<?xml version="1.0" encoding="UTF-8" standalone="no" ?>
<gpx xmlns="http://www.topografix.com/GPX/1/1" xmlns:xsi="http://www.w3.org/2001/XMLSchema-instance" xsi:schemaLocation="http://www.topografix.com/GPX/1/1 http://www.topografix.com/GPX/1/1/gpx.xsd" version="1.1" creator="VisuGPX - https://www.visugpx.com">
  <metadata>
    <name>GESVRES &amp; ERDRE</name>
    <desc><![CDATA[
]]></desc>
  </metadata>
  <trk>
    <name><![CDATA[GESVRES & ERDRE_1]]></name>
    <trkseg>
      <trkpt lat="47.27025" lon="-1.63432">
        <ele>40</ele>
        <time>2019-10-17T11:46:24.000Z</time>
      </trkpt>
      <trkpt lat="47.27025" lon="-1.63432">
        <ele>40</ele>
        <time>2019-10-17T11:46:25.000Z</time>
      </trkpt>
      <trkpt lat="47.27025" lon="-1.63432">
        <ele>40</ele>
        <time>2019-10-17T11:46:26.000Z</time>
      </trkpt>
      <trkpt lat="47.27025" lon="-1.63432">
        <ele>40</ele>
        <time>2019-10-17T11:46:27.000Z</time>
      </trkpt>
      <trkpt lat="47.27024" lon="-1.63431">
        <ele>40</ele>
        <time>2019-10-17T11:46:28.000Z</time>
      </trkpt>
      <trkpt lat="47.27024" lon="-1.6343">
        <ele>41</ele>
        <time>2019-10-17T11:46:29.000Z</time>
      </trkpt>
      <trkpt lat="47.27024" lon="-1.63428">
        <ele>41</ele>
        <time>2019-10-17T11:46:30.000Z</time>
      </trkpt>
      <trkpt lat="47.27024" lon="-1.63427">
        <ele>41</ele>
        <time>2019-10-17T11:46:31.000Z</time>
      </trkpt>
      <trkpt lat="47.27025" lon="-1.63425">
        <ele>41</ele>
        <time>2019-10-17T11:46:32.000Z</time>
      </trkpt>
      <trkpt lat="47.27027" lon="-1.63424">
        <ele>41</ele>
        <time>2019-10-17T11:46:33.000Z</time>
      </trkpt>
      <trkpt lat="47.27029" lon="-1.63423">
        <ele>40</ele>
        <time>2019-10-17T11:46:34.000Z</time>
      </trkpt>
      <trkpt lat="47.27031" lon="-1.63423">
        <ele>40</ele>
        <time>2019-10-17T11:46:35.000Z</time>
      </trkpt>
      <trkpt lat="47.27033" lon="-1.63424">
        <ele>40</ele>
        <time>2019-10-17T11:46:36.000Z</time>
      </trkpt>
      <trkpt lat="47.27035" lon="-1.63424">
        <ele>40</ele>
        <time>2019-10-17T11:46:37.000Z</time>
      </trkpt>
      <trkpt lat="47.27037" lon="-1.63424">
        <ele>40</ele>
        <time>2019-10-17T11:46:38.000Z</time>
      </trkpt>
      <trkpt lat="47.27039" lon="-1.63424">
        <ele>40</ele>
        <time>2019-10-17T11:46:39.000Z</time>
      </trkpt>
      <trkpt lat="47.27042" lon="-1.63423">
        <ele>40</ele>
        <time>2019-10-17T11:46:40.000Z</time>
      </trkpt>
      <trkpt lat="47.27043" lon="-1.63423">
        <ele>40</ele>
        <time>2019-10-17T11:46:41.000Z</time>
      </trkpt>
      <trkpt lat="47.27045" lon="-1.63423">
        <ele>40</ele>
        <time>2019-10-17T11:46:42.000Z</time>
      </trkpt>
      <trkpt lat="47.27047" lon="-1.63422">
        <ele>40</ele>
        <time>2019-10-17T11:46:43.000Z</time>
      </trkpt>
      <trkpt lat="47.27048" lon="-1.6342">
        <ele>40</ele>
        <time>2019-10-17T11:46:44.000Z</time>
      </trkpt>
      <trkpt lat="47.27049" lon="-1.63419">
        <ele>40</ele>
        <time>2019-10-17T11:46:45.000Z</time>
      </trkpt>
      <trkpt lat="47.27049" lon="-1.63417">
        <ele>40</ele>
        <time>2019-10-17T11:46:46.000Z</time>
      </trkpt>
      <trkpt lat="47.27049" lon="-1.63414">
        <ele>40</ele>
        <time>2019-10-17T11:46:47.000Z</time>
      </trkpt>
      <trkpt lat="47.27048" lon="-1.63411">
        <ele>40</ele>
        <time>2019-10-17T11:46:48.000Z</time>
      </trkpt>
      <trkpt lat="47.27047" lon="-1.63407">
        <ele>40</ele>
        <time>2019-10-17T11:46:49.000Z</time>
      </trkpt>
      <trkpt lat="47.27047" lon="-1.63405">
        <ele>40</ele>
        <time>2019-10-17T11:46:50.000Z</time>
      </trkpt>
      <trkpt lat="47.27047" lon="-1.63402">
        <ele>40</ele>
        <time>2019-10-17T11:46:51.000Z</time>
      </trkpt>
      <trkpt lat="47.27047" lon="-1.634">
        <ele>40</ele>
        <time>2019-10-17T11:46:52.000Z</time>
      </trkpt>
      <trkpt lat="47.27047" lon="-1.63396">
        <ele>40</ele>
        <time>2019-10-17T11:46:53.000Z</time>
      </trkpt>
      <trkpt lat="47.27046" lon="-1.63393">
        <ele>40</ele>
        <time>2019-10-17T11:46:54.000Z</time>
      </trkpt>
      <trkpt lat="47.27046" lon="-1.63388">
        <ele>41</ele>
        <time>2019-10-17T11:46:55.000Z</time>
      </trkpt>
      <trkpt lat="47.27045" lon="-1.63383">
        <ele>41</ele>
        <time>2019-10-17T11:46:56.000Z</time>
      </trkpt>
      <trkpt lat="47.27044" lon="-1.63379">
        <ele>41</ele>
        <time>2019-10-17T11:46:57.000Z</time>
      </trkpt>
      <trkpt lat="47.27044" lon="-1.63374">
        <ele>41</ele>
        <time>2019-10-17T11:46:58.000Z</time>
      </trkpt>
      <trkpt lat="47.27044" lon="-1.63368">
        <ele>41</ele>
        <time>2019-10-17T11:46:59.000Z</time>
      </trkpt>
      <trkpt lat="47.27044" lon="-1.63362">
        <ele>42</ele>
        <time>2019-10-17T11:47:00.000Z</time>
      </trkpt>
      <trkpt lat="47.27044" lon="-1.63356">
        <ele>42</ele>
        <time>2019-10-17T11:47:01.000Z</time>
      </trkpt>
      <trkpt lat="47.27045" lon="-1.63352">
        <ele>42</ele>
        <time>2019-10-17T11:47:02.000Z</time>
      </trkpt>
      <trkpt lat="47.27045" lon="-1.63348">
        <ele>42</ele>
        <time>2019-10-17T11:47:03.000Z</time>
      </trkpt>
      <trkpt lat="47.27046" lon="-1.63344">
        <ele>42</ele>
        <time>2019-10-17T11:47:04.000Z</time>
      </trkpt>
      <trkpt lat="47.27046" lon="-1.63338">
        <ele>42</ele>
        <time>2019-10-17T11:47:05.000Z</time>
      </trkpt>
      <trkpt lat="47.27046" lon="-1.63333">
        <ele>42</ele>
        <time>2019-10-17T11:47:06.000Z</time>
      </trkpt>
      <trkpt lat="47.27046" lon="-1.63325">
        <ele>42</ele>
        <time>2019-10-17T11:47:07.000Z</time>
      </trkpt>
      <trkpt lat="47.27047" lon="-1.63317">
        <ele>43</ele>
        <time>2019-10-17T11:47:08.000Z</time>
      </trkpt>
      <trkpt lat="47.27047" lon="-1.63308">
        <ele>43</ele>
        <time>2019-10-17T11:47:09.000Z</time>
      </trkpt>
      <trkpt lat="47.27047" lon="-1.633">
        <ele>43</ele>
        <time>2019-10-17T11:47:10.000Z</time>
      </trkpt>
      <trkpt lat="47.27046" lon="-1.63292">
        <ele>43</ele>
        <time>2019-10-17T11:47:11.000Z</time>
      </trkpt>
      <trkpt lat="47.27044" lon="-1.63286">
        <ele>42</ele>
        <time>2019-10-17T11:47:12.000Z</time>
      </trkpt>
      <trkpt lat="47.27041" lon="-1.6328">
        <ele>42</ele>
        <time>2019-10-17T11:47:13.000Z</time>
      </trkpt>
      <trkpt lat="47.27038" lon="-1.63275">
        <ele>42</ele>
        <time>2019-10-17T11:47:14.000Z</time>
      </trkpt>
      <trkpt lat="47.27035" lon="-1.6327">
        <ele>42</ele>
        <time>2019-10-17T11:47:15.000Z</time>
      </trkpt>
      <trkpt lat="47.27032" lon="-1.63267">
        <ele>42</ele>
        <time>2019-10-17T11:47:16.000Z</time>
      </trkpt>
      <trkpt lat="47.27027" lon="-1.63265">
        <ele>42</ele>
        <time>2019-10-17T11:47:17.000Z</time>
      </trkpt>
      <trkpt lat="47.27023" lon="-1.63263">
        <ele>42</ele>
        <time>2019-10-17T11:47:18.000Z</time>
      </trkpt>
      <trkpt lat="47.27018" lon="-1.63261">
        <ele>42</ele>
        <time>2019-10-17T11:47:19.000Z</time>
      </trkpt>
      <trkpt lat="47.27012" lon="-1.6326">
        <ele>42</ele>
        <time>2019-10-17T11:47:20.000Z</time>
      </trkpt>
      <trkpt lat="47.27006" lon="-1.63259">
        <ele>42</ele>
        <time>2019-10-17T11:47:21.000Z</time>
      </trkpt>
      <trkpt lat="47.26999" lon="-1.63258">
        <ele>42</ele>
        <time>2019-10-17T11:47:22.000Z</time>
      </trkpt>
      <trkpt lat="47.26993" lon="-1.63257">
        <ele>42</ele>
        <time>2019-10-17T11:47:23.000Z</time>
      </trkpt>
      <trkpt lat="47.26986" lon="-1.63257">
        <ele>42</ele>
        <time>2019-10-17T11:47:24.000Z</time>
      </trkpt>
      <trkpt lat="47.2698" lon="-1.63256">
        <ele>42</ele>
        <time>2019-10-17T11:47:25.000Z</time>
      </trkpt>
      <trkpt lat="47.26973" lon="-1.63254">
        <ele>42</ele>
        <time>2019-10-17T11:47:26.000Z</time>
      </trkpt>
      <trkpt lat="47.26966" lon="-1.63255">
        <ele>42</ele>
        <time>2019-10-17T11:47:27.000Z</time>
      </trkpt>
      <trkpt lat="47.26958" lon="-1.63254">
        <ele>42</ele>
        <time>2019-10-17T11:47:28.000Z</time>
      </trkpt>
      <trkpt lat="47.26949" lon="-1.63253">
        <ele>42</ele>
        <time>2019-10-17T11:47:29.000Z</time>
      </trkpt>
      <trkpt lat="47.2694" lon="-1.6325">
        <ele>41</ele>
        <time>2019-10-17T11:47:30.000Z</time>
      </trkpt>
      <trkpt lat="47.2693" lon="-1.63245">
        <ele>41</ele>
        <time>2019-10-17T11:47:31.000Z</time>
      </trkpt>
      <trkpt lat="47.26921" lon="-1.6324">
        <ele>40</ele>
        <time>2019-10-17T11:47:32.000Z</time>
      </trkpt>
      <trkpt lat="47.26911" lon="-1.63236">
        <ele>40</ele>
        <time>2019-10-17T11:47:33.000Z</time>
      </trkpt>
      <trkpt lat="47.26903" lon="-1.63231">
        <ele>40</ele>
        <time>2019-10-17T11:47:34.000Z</time>
      </trkpt>
      <trkpt lat="47.26896" lon="-1.63228">
        <ele>40</ele>
        <time>2019-10-17T11:47:35.000Z</time>
      </trkpt>
      <trkpt lat="47.26892" lon="-1.63223">
        <ele>40</ele>
        <time>2019-10-17T11:47:36.000Z</time>
      </trkpt>
      <trkpt lat="47.26889" lon="-1.63218">
        <ele>41</ele>
        <time>2019-10-17T11:47:37.000Z</time>
      </trkpt>
      <trkpt lat="47.26889" lon="-1.63213">
        <ele>41</ele>
        <time>2019-10-17T11:47:38.000Z</time>
      </trkpt>
      <trkpt lat="47.2689" lon="-1.63208">
        <ele>41</ele>
        <time>2019-10-17T11:47:39.000Z</time>
      </trkpt>
      <trkpt lat="47.2689" lon="-1.63199">
        <ele>41</ele>
        <time>2019-10-17T11:47:40.000Z</time>
      </trkpt>
      <trkpt lat="47.26892" lon="-1.63195">
        <ele>41</ele>
        <time>2019-10-17T11:47:41.000Z</time>
      </trkpt>
      <trkpt lat="47.26894" lon="-1.63191">
        <ele>41</ele>
        <time>2019-10-17T11:47:42.000Z</time>
      </trkpt>
      <trkpt lat="47.26895" lon="-1.63184">
        <ele>42</ele>
        <time>2019-10-17T11:47:43.000Z</time>
      </trkpt>
      <trkpt lat="47.26894" lon="-1.63177">
        <ele>42</ele>
        <time>2019-10-17T11:47:44.000Z</time>
      </trkpt>
      <trkpt lat="47.26894" lon="-1.63168">
        <ele>42</ele>
        <time>2019-10-17T11:47:45.000Z</time>
      </trkpt>
      <trkpt lat="47.26894" lon="-1.63168">
        <ele>43</ele>
        <time>2019-10-17T11:47:49.000Z</time>
      </trkpt>
      <trkpt lat="47.26894" lon="-1.63168">
        <ele>44</ele>
        <time>2019-10-17T11:47:50.000Z</time>
      </trkpt>
      <trkpt lat="47.26886" lon="-1.63113">
        <ele>44</ele>
        <time>2019-10-17T11:47:51.000Z</time>
      </trkpt>
      <trkpt lat="47.26885" lon="-1.631">
        <ele>45</ele>
        <time>2019-10-17T11:47:52.000Z</time>
      </trkpt>
      <trkpt lat="47.26881" lon="-1.63091">
        <ele>46</ele>
        <time>2019-10-17T11:47:53.000Z</time>
      </trkpt>
      <trkpt lat="47.26878" lon="-1.63081">
        <ele>47</ele>
        <time>2019-10-17T11:47:54.000Z</time>
      </trkpt>
      <trkpt lat="47.26875" lon="-1.63072">
        <ele>48</ele>
        <time>2019-10-17T11:47:55.000Z</time>
      </trkpt>
      <trkpt lat="47.26871" lon="-1.63064">
        <ele>48</ele>
        <time>2019-10-17T11:47:56.000Z</time>
      </trkpt>
      <trkpt lat="47.26866" lon="-1.63057">
        <ele>48</ele>
        <time>2019-10-17T11:47:57.000Z</time>
      </trkpt>
      <trkpt lat="47.26861" lon="-1.63051">
        <ele>47</ele>
        <time>2019-10-17T11:47:58.000Z</time>
      </trkpt>
      <trkpt lat="47.26855" lon="-1.63046">
        <ele>46</ele>
        <time>2019-10-17T11:47:59.000Z</time>
      </trkpt>
      <trkpt lat="47.2685" lon="-1.63042">
        <ele>46</ele>
        <time>2019-10-17T11:48:00.000Z</time>
      </trkpt>
      <trkpt lat="47.26846" lon="-1.63038">
        <ele>45</ele>
        <time>2019-10-17T11:48:01.000Z</time>
      </trkpt>
      <trkpt lat="47.26842" lon="-1.63034">
        <ele>46</ele>
        <time>2019-10-17T11:48:02.000Z</time>
      </trkpt>
      <trkpt lat="47.26838" lon="-1.6303">
        <ele>47</ele>
        <time>2019-10-17T11:48:03.000Z</time>
      </trkpt>
      <trkpt lat="47.26834" lon="-1.63026">
        <ele>47</ele>
        <time>2019-10-17T11:48:04.000Z</time>
      </trkpt>
      <trkpt lat="47.26829" lon="-1.63023">
        <ele>47</ele>
        <time>2019-10-17T11:48:05.000Z</time>
      </trkpt>
      <trkpt lat="47.26824" lon="-1.63019">
        <ele>46</ele>
        <time>2019-10-17T11:48:06.000Z</time>
      </trkpt>
      <trkpt lat="47.2682" lon="-1.63016">
        <ele>46</ele>
        <time>2019-10-17T11:48:07.000Z</time>
      </trkpt>
      <trkpt lat="47.26815" lon="-1.63014">
        <ele>44</ele>
        <time>2019-10-17T11:48:08.000Z</time>
      </trkpt>
      <trkpt lat="47.2681" lon="-1.63013">
        <ele>43</ele>
        <time>2019-10-17T11:48:09.000Z</time>
      </trkpt>
      <trkpt lat="47.26805" lon="-1.63013">
        <ele>42</ele>
        <time>2019-10-17T11:48:10.000Z</time>
      </trkpt>
      <trkpt lat="47.268" lon="-1.63013">
        <ele>42</ele>
        <time>2019-10-17T11:48:11.000Z</time>
      </trkpt>
      <trkpt lat="47.26794" lon="-1.63011">
        <ele>41</ele>
        <time>2019-10-17T11:48:12.000Z</time>
      </trkpt>
      <trkpt lat="47.26788" lon="-1.6301">
        <ele>40</ele>
        <time>2019-10-17T11:48:13.000Z</time>
      </trkpt>
      <trkpt lat="47.26783" lon="-1.63009">
        <ele>39</ele>
        <time>2019-10-17T11:48:14.000Z</time>
      </trkpt>
      <trkpt lat="47.26777" lon="-1.6301">
        <ele>38</ele>
        <time>2019-10-17T11:48:15.000Z</time>
      </trkpt>
      <trkpt lat="47.26772" lon="-1.63009">
        <ele>38</ele>
        <time>2019-10-17T11:48:16.000Z</time>
      </trkpt>
      <trkpt lat="47.26767" lon="-1.63006">
        <ele>38</ele>
        <time>2019-10-17T11:48:17.000Z</time>
      </trkpt>
      <trkpt lat="47.26767" lon="-1.63006">
        <ele>37</ele>
        <time>2019-10-17T11:48:20.000Z</time>
      </trkpt>
      <trkpt lat="47.26767" lon="-1.63006">
        <ele>37</ele>
        <time>2019-10-17T11:48:21.000Z</time>
      </trkpt>
      <trkpt lat="47.26752" lon="-1.6298">
        <ele>35</ele>
        <time>2019-10-17T11:48:22.000Z</time>
      </trkpt>
      <trkpt lat="47.26752" lon="-1.62971">
        <ele>38</ele>
        <time>2019-10-17T11:48:23.000Z</time>
      </trkpt>
      <trkpt lat="47.26753" lon="-1.62962">
        <ele>40</ele>
        <time>2019-10-17T11:48:24.000Z</time>
      </trkpt>
      <trkpt lat="47.26755" lon="-1.62953">
        <ele>42</ele>
        <time>2019-10-17T11:48:25.000Z</time>
      </trkpt>
      <trkpt lat="47.26757" lon="-1.62946">
        <ele>42</ele>
        <time>2019-10-17T11:48:26.000Z</time>
      </trkpt>
      <trkpt lat="47.2676" lon="-1.62938">
        <ele>43</ele>
        <time>2019-10-17T11:48:27.000Z</time>
      </trkpt>
      <trkpt lat="47.26762" lon="-1.62931">
        <ele>44</ele>
        <time>2019-10-17T11:48:28.000Z</time>
      </trkpt>
      <trkpt lat="47.26765" lon="-1.62925">
        <ele>46</ele>
        <time>2019-10-17T11:48:29.000Z</time>
      </trkpt>
      <trkpt lat="47.26767" lon="-1.62915">
        <ele>48</ele>
        <time>2019-10-17T11:48:30.000Z</time>
      </trkpt>
      <trkpt lat="47.26769" lon="-1.62904">
        <ele>52</ele>
        <time>2019-10-17T11:48:31.000Z</time>
      </trkpt>
      <trkpt lat="47.26771" lon="-1.62896">
        <ele>54</ele>
        <time>2019-10-17T11:48:32.000Z</time>
      </trkpt>
      <trkpt lat="47.26773" lon="-1.62885">
        <ele>55</ele>
        <time>2019-10-17T11:48:33.000Z</time>
      </trkpt>
      <trkpt lat="47.26775" lon="-1.62876">
        <ele>57</ele>
        <time>2019-10-17T11:48:34.000Z</time>
      </trkpt>
      <trkpt lat="47.26778" lon="-1.62869">
        <ele>57</ele>
        <time>2019-10-17T11:48:35.000Z</time>
      </trkpt>
      <trkpt lat="47.26779" lon="-1.62859">
        <ele>59</ele>
        <time>2019-10-17T11:48:36.000Z</time>
      </trkpt>
      <trkpt lat="47.2678" lon="-1.6285">
        <ele>61</ele>
        <time>2019-10-17T11:48:37.000Z</time>
      </trkpt>
      <trkpt lat="47.2678" lon="-1.62841">
        <ele>61</ele>
        <time>2019-10-17T11:48:38.000Z</time>
      </trkpt>
      <trkpt lat="47.26778" lon="-1.62832">
        <ele>65</ele>
        <time>2019-10-17T11:48:39.000Z</time>
      </trkpt>
      <trkpt lat="47.26777" lon="-1.62823">
        <ele>64</ele>
        <time>2019-10-17T11:48:40.000Z</time>
      </trkpt>
      <trkpt lat="47.26776" lon="-1.62812">
        <ele>68</ele>
        <time>2019-10-17T11:48:41.000Z</time>
      </trkpt>
      <trkpt lat="47.26774" lon="-1.628">
        <ele>70</ele>
        <time>2019-10-17T11:48:42.000Z</time>
      </trkpt>
      <trkpt lat="47.26773" lon="-1.6279">
        <ele>73</ele>
        <time>2019-10-17T11:48:43.000Z</time>
      </trkpt>
      <trkpt lat="47.26772" lon="-1.62778">
        <ele>77</ele>
        <time>2019-10-17T11:48:44.000Z</time>
      </trkpt>
      <trkpt lat="47.26772" lon="-1.62768">
        <ele>79</ele>
        <time>2019-10-17T11:48:45.000Z</time>
      </trkpt>
      <trkpt lat="47.2677" lon="-1.62757">
        <ele>83</ele>
        <time>2019-10-17T11:48:46.000Z</time>
      </trkpt>
      <trkpt lat="47.26769" lon="-1.62744">
        <ele>87</ele>
        <time>2019-10-17T11:48:47.000Z</time>
      </trkpt>
      <trkpt lat="47.26767" lon="-1.62732">
        <ele>92</ele>
        <time>2019-10-17T11:48:48.000Z</time>
      </trkpt>
      <trkpt lat="47.26767" lon="-1.62723">
        <ele>94</ele>
        <time>2019-10-17T11:48:49.000Z</time>
      </trkpt>
      <trkpt lat="47.26766" lon="-1.62714">
        <ele>95</ele>
        <time>2019-10-17T11:48:50.000Z</time>
      </trkpt>
      <trkpt lat="47.26767" lon="-1.62708">
        <ele>90</ele>
        <time>2019-10-17T11:48:51.000Z</time>
      </trkpt>
      <trkpt lat="47.26766" lon="-1.62698">
        <ele>89</ele>
        <time>2019-10-17T11:48:52.000Z</time>
      </trkpt>
      <trkpt lat="47.26766" lon="-1.6269">
        <ele>86</ele>
        <time>2019-10-17T11:48:53.000Z</time>
      </trkpt>
      <trkpt lat="47.26766" lon="-1.62683">
        <ele>83</ele>
        <time>2019-10-17T11:48:54.000Z</time>
      </trkpt>
      <trkpt lat="47.26767" lon="-1.62674">
        <ele>82</ele>
        <time>2019-10-17T11:48:55.000Z</time>
      </trkpt>
      <trkpt lat="47.26767" lon="-1.62667">
        <ele>82</ele>
        <time>2019-10-17T11:48:56.000Z</time>
      </trkpt>
      <trkpt lat="47.26767" lon="-1.62658">
        <ele>82</ele>
        <time>2019-10-17T11:48:57.000Z</time>
      </trkpt>
      <trkpt lat="47.26767" lon="-1.62648">
        <ele>81</ele>
        <time>2019-10-17T11:48:58.000Z</time>
      </trkpt>
      <trkpt lat="47.26766" lon="-1.6264">
        <ele>80</ele>
        <time>2019-10-17T11:48:59.000Z</time>
      </trkpt>
      <trkpt lat="47.26765" lon="-1.62631">
        <ele>80</ele>
        <time>2019-10-17T11:49:00.000Z</time>
      </trkpt>
      <trkpt lat="47.26764" lon="-1.62622">
        <ele>80</ele>
        <time>2019-10-17T11:49:01.000Z</time>
      </trkpt>
      <trkpt lat="47.26764" lon="-1.62614">
        <ele>80</ele>
        <time>2019-10-17T11:49:02.000Z</time>
      </trkpt>
      <trkpt lat="47.26763" lon="-1.62606">
        <ele>80</ele>
        <time>2019-10-17T11:49:03.000Z</time>
      </trkpt>
      <trkpt lat="47.26763" lon="-1.62602">
        <ele>79</ele>
        <time>2019-10-17T11:49:04.000Z</time>
      </trkpt>
      <trkpt lat="47.26764" lon="-1.62597">
        <ele>78</ele>
        <time>2019-10-17T11:49:05.000Z</time>
      </trkpt>
      <trkpt lat="47.26764" lon="-1.62588">
        <ele>78</ele>
        <time>2019-10-17T11:49:06.000Z</time>
      </trkpt>
      <trkpt lat="47.26765" lon="-1.6258">
        <ele>78</ele>
        <time>2019-10-17T11:49:07.000Z</time>
      </trkpt>
      <trkpt lat="47.26765" lon="-1.62571">
        <ele>78</ele>
        <time>2019-10-17T11:49:08.000Z</time>
      </trkpt>
      <trkpt lat="47.26766" lon="-1.62563">
        <ele>79</ele>
        <time>2019-10-17T11:49:09.000Z</time>
      </trkpt>
      <trkpt lat="47.26768" lon="-1.62556">
        <ele>79</ele>
        <time>2019-10-17T11:49:10.000Z</time>
      </trkpt>
      <trkpt lat="47.2677" lon="-1.62552">
        <ele>78</ele>
        <time>2019-10-17T11:49:11.000Z</time>
      </trkpt>
      <trkpt lat="47.26771" lon="-1.62545">
        <ele>78</ele>
        <time>2019-10-17T11:49:12.000Z</time>
      </trkpt>
      <trkpt lat="47.26772" lon="-1.62539">
        <ele>78</ele>
        <time>2019-10-17T11:49:13.000Z</time>
      </trkpt>
      <trkpt lat="47.26773" lon="-1.62532">
        <ele>78</ele>
        <time>2019-10-17T11:49:14.000Z</time>
      </trkpt>
      <trkpt lat="47.26773" lon="-1.62522">
        <ele>78</ele>
        <time>2019-10-17T11:49:15.000Z</time>
      </trkpt>
      <trkpt lat="47.26773" lon="-1.62512">
        <ele>77</ele>
        <time>2019-10-17T11:49:16.000Z</time>
      </trkpt>
      <trkpt lat="47.26774" lon="-1.62502">
        <ele>76</ele>
        <time>2019-10-17T11:49:17.000Z</time>
      </trkpt>
      <trkpt lat="47.26774" lon="-1.62492">
        <ele>75</ele>
        <time>2019-10-17T11:49:18.000Z</time>
      </trkpt>
      <trkpt lat="47.26774" lon="-1.62481">
        <ele>75</ele>
        <time>2019-10-17T11:49:19.000Z</time>
      </trkpt>
      <trkpt lat="47.26774" lon="-1.6247">
        <ele>74</ele>
        <time>2019-10-17T11:49:20.000Z</time>
      </trkpt>
      <trkpt lat="47.26774" lon="-1.62462">
        <ele>73</ele>
        <time>2019-10-17T11:49:21.000Z</time>
      </trkpt>
      <trkpt lat="47.26774" lon="-1.62453">
        <ele>72</ele>
        <time>2019-10-17T11:49:22.000Z</time>
      </trkpt>
      <trkpt lat="47.26774" lon="-1.62444">
        <ele>71</ele>
        <time>2019-10-17T11:49:23.000Z</time>
      </trkpt>
      <trkpt lat="47.26774" lon="-1.62436">
        <ele>70</ele>
        <time>2019-10-17T11:49:24.000Z</time>
      </trkpt>
      <trkpt lat="47.26774" lon="-1.6243">
        <ele>69</ele>
        <time>2019-10-17T11:49:25.000Z</time>
      </trkpt>
      <trkpt lat="47.26775" lon="-1.62425">
        <ele>68</ele>
        <time>2019-10-17T11:49:26.000Z</time>
      </trkpt>
      <trkpt lat="47.26776" lon="-1.6242">
        <ele>67</ele>
        <time>2019-10-17T11:49:27.000Z</time>
      </trkpt>
      <trkpt lat="47.26777" lon="-1.62414">
        <ele>67</ele>
        <time>2019-10-17T11:49:28.000Z</time>
      </trkpt>
      <trkpt lat="47.26779" lon="-1.62406">
        <ele>67</ele>
        <time>2019-10-17T11:49:29.000Z</time>
      </trkpt>
      <trkpt lat="47.2678" lon="-1.62399">
        <ele>67</ele>
        <time>2019-10-17T11:49:30.000Z</time>
      </trkpt>
      <trkpt lat="47.26781" lon="-1.62392">
        <ele>66</ele>
        <time>2019-10-17T11:49:31.000Z</time>
      </trkpt>
      <trkpt lat="47.26781" lon="-1.62384">
        <ele>66</ele>
        <time>2019-10-17T11:49:32.000Z</time>
      </trkpt>
      <trkpt lat="47.26782" lon="-1.62374">
        <ele>65</ele>
        <time>2019-10-17T11:49:33.000Z</time>
      </trkpt>
      <trkpt lat="47.26784" lon="-1.62365">
        <ele>65</ele>
        <time>2019-10-17T11:49:34.000Z</time>
      </trkpt>
      <trkpt lat="47.26785" lon="-1.62358">
        <ele>65</ele>
        <time>2019-10-17T11:49:35.000Z</time>
      </trkpt>
      <trkpt lat="47.26787" lon="-1.62353">
        <ele>64</ele>
        <time>2019-10-17T11:49:36.000Z</time>
      </trkpt>
      <trkpt lat="47.26789" lon="-1.62348">
        <ele>63</ele>
        <time>2019-10-17T11:49:37.000Z</time>
      </trkpt>
      <trkpt lat="47.26792" lon="-1.62345">
        <ele>62</ele>
        <time>2019-10-17T11:49:38.000Z</time>
      </trkpt>
      <trkpt lat="47.26795" lon="-1.62344">
        <ele>61</ele>
        <time>2019-10-17T11:49:39.000Z</time>
      </trkpt>
      <trkpt lat="47.26797" lon="-1.62343">
        <ele>60</ele>
        <time>2019-10-17T11:49:40.000Z</time>
      </trkpt>
      <trkpt lat="47.26798" lon="-1.62344">
        <ele>59</ele>
        <time>2019-10-17T11:49:41.000Z</time>
      </trkpt>
      <trkpt lat="47.26799" lon="-1.62347">
        <ele>58</ele>
        <time>2019-10-17T11:49:42.000Z</time>
      </trkpt>
      <trkpt lat="47.268" lon="-1.62351">
        <ele>57</ele>
        <time>2019-10-17T11:49:43.000Z</time>
      </trkpt>
      <trkpt lat="47.26801" lon="-1.62354">
        <ele>56</ele>
        <time>2019-10-17T11:49:44.000Z</time>
      </trkpt>
      <trkpt lat="47.26803" lon="-1.62357">
        <ele>55</ele>
        <time>2019-10-17T11:49:45.000Z</time>
      </trkpt>
      <trkpt lat="47.26805" lon="-1.62359">
        <ele>55</ele>
        <time>2019-10-17T11:49:46.000Z</time>
      </trkpt>
      <trkpt lat="47.26806" lon="-1.62361">
        <ele>54</ele>
        <time>2019-10-17T11:49:47.000Z</time>
      </trkpt>
      <trkpt lat="47.26808" lon="-1.62363">
        <ele>53</ele>
        <time>2019-10-17T11:49:48.000Z</time>
      </trkpt>
      <trkpt lat="47.2681" lon="-1.62365">
        <ele>53</ele>
        <time>2019-10-17T11:49:49.000Z</time>
      </trkpt>
      <trkpt lat="47.26812" lon="-1.62367">
        <ele>52</ele>
        <time>2019-10-17T11:49:50.000Z</time>
      </trkpt>
      <trkpt lat="47.26815" lon="-1.62368">
        <ele>51</ele>
        <time>2019-10-17T11:49:51.000Z</time>
      </trkpt>
      <trkpt lat="47.26817" lon="-1.62369">
        <ele>50</ele>
        <time>2019-10-17T11:49:52.000Z</time>
      </trkpt>
      <trkpt lat="47.26819" lon="-1.62371">
        <ele>50</ele>
        <time>2019-10-17T11:49:53.000Z</time>
      </trkpt>
      <trkpt lat="47.26822" lon="-1.62374">
        <ele>49</ele>
        <time>2019-10-17T11:49:54.000Z</time>
      </trkpt>
      <trkpt lat="47.26824" lon="-1.62376">
        <ele>49</ele>
        <time>2019-10-17T11:49:55.000Z</time>
      </trkpt>
      <trkpt lat="47.26827" lon="-1.62377">
        <ele>48</ele>
        <time>2019-10-17T11:49:56.000Z</time>
      </trkpt>
      <trkpt lat="47.2683" lon="-1.62379">
        <ele>48</ele>
        <time>2019-10-17T11:49:57.000Z</time>
      </trkpt>
      <trkpt lat="47.26832" lon="-1.6238">
        <ele>48</ele>
        <time>2019-10-17T11:49:58.000Z</time>
      </trkpt>
      <trkpt lat="47.26833" lon="-1.62382">
        <ele>48</ele>
        <time>2019-10-17T11:49:59.000Z</time>
      </trkpt>
      <trkpt lat="47.26834" lon="-1.62383">
        <ele>48</ele>
        <time>2019-10-17T11:50:00.000Z</time>
      </trkpt>
      <trkpt lat="47.26834" lon="-1.62384">
        <ele>47</ele>
        <time>2019-10-17T11:50:01.000Z</time>
      </trkpt>
      <trkpt lat="47.26834" lon="-1.62384">
        <ele>47</ele>
        <time>2019-10-17T11:50:02.000Z</time>
      </trkpt>
      <trkpt lat="47.26832" lon="-1.62382">
        <ele>46</ele>
        <time>2019-10-17T11:50:03.000Z</time>
      </trkpt>
      <trkpt lat="47.2683" lon="-1.62381">
        <ele>46</ele>
        <time>2019-10-17T11:50:04.000Z</time>
      </trkpt>
      <trkpt lat="47.26828" lon="-1.62379">
        <ele>45</ele>
        <time>2019-10-17T11:50:05.000Z</time>
      </trkpt>
      <trkpt lat="47.26825" lon="-1.62376">
        <ele>45</ele>
        <time>2019-10-17T11:50:06.000Z</time>
      </trkpt>
      <trkpt lat="47.26822" lon="-1.62374">
        <ele>45</ele>
        <time>2019-10-17T11:50:07.000Z</time>
      </trkpt>
      <trkpt lat="47.26819" lon="-1.62371">
        <ele>44</ele>
        <time>2019-10-17T11:50:08.000Z</time>
      </trkpt>
      <trkpt lat="47.26814" lon="-1.62367">
        <ele>44</ele>
        <time>2019-10-17T11:50:09.000Z</time>
      </trkpt>
      <trkpt lat="47.2681" lon="-1.62362">
        <ele>44</ele>
        <time>2019-10-17T11:50:10.000Z</time>
      </trkpt>
      <trkpt lat="47.26804" lon="-1.62357">
        <ele>43</ele>
        <time>2019-10-17T11:50:11.000Z</time>
      </trkpt>
      <trkpt lat="47.26797" lon="-1.62351">
        <ele>43</ele>
        <time>2019-10-17T11:50:12.000Z</time>
      </trkpt>
      <trkpt lat="47.2679" lon="-1.62344">
        <ele>43</ele>
        <time>2019-10-17T11:50:13.000Z</time>
      </trkpt>
      <trkpt lat="47.26783" lon="-1.62336">
        <ele>42</ele>
        <time>2019-10-17T11:50:14.000Z</time>
      </trkpt>
      <trkpt lat="47.26776" lon="-1.62328">
        <ele>42</ele>
        <time>2019-10-17T11:50:15.000Z</time>
      </trkpt>
      <trkpt lat="47.26769" lon="-1.6232">
        <ele>43</ele>
        <time>2019-10-17T11:50:16.000Z</time>
      </trkpt>
      <trkpt lat="47.26764" lon="-1.62313">
        <ele>43</ele>
        <time>2019-10-17T11:50:17.000Z</time>
      </trkpt>
      <trkpt lat="47.26759" lon="-1.62307">
        <ele>43</ele>
        <time>2019-10-17T11:50:18.000Z</time>
      </trkpt>
      <trkpt lat="47.26756" lon="-1.62302">
        <ele>42</ele>
        <time>2019-10-17T11:50:19.000Z</time>
      </trkpt>
      <trkpt lat="47.26753" lon="-1.62298">
        <ele>42</ele>
        <time>2019-10-17T11:50:20.000Z</time>
      </trkpt>
      <trkpt lat="47.26752" lon="-1.62298">
        <ele>42</ele>
        <time>2019-10-17T11:50:21.000Z</time>
      </trkpt>
      <trkpt lat="47.26752" lon="-1.62299">
        <ele>42</ele>
        <time>2019-10-17T11:50:22.000Z</time>
      </trkpt>
      <trkpt lat="47.26753" lon="-1.62301">
        <ele>42</ele>
        <time>2019-10-17T11:50:23.000Z</time>
      </trkpt>
      <trkpt lat="47.26753" lon="-1.62301">
        <ele>42</ele>
        <time>2019-10-17T11:50:24.000Z</time>
      </trkpt>
      <trkpt lat="47.26755" lon="-1.62304">
        <ele>42</ele>
        <time>2019-10-17T11:50:25.000Z</time>
      </trkpt>
      <trkpt lat="47.26755" lon="-1.62304">
        <ele>42</ele>
        <time>2019-10-17T11:50:27.000Z</time>
      </trkpt>
      <trkpt lat="47.26755" lon="-1.62304">
        <ele>42</ele>
        <time>2019-10-17T11:50:28.000Z</time>
      </trkpt>
      <trkpt lat="47.26759" lon="-1.62292">
        <ele>42</ele>
        <time>2019-10-17T11:50:29.000Z</time>
      </trkpt>
      <trkpt lat="47.2676" lon="-1.62288">
        <ele>42</ele>
        <time>2019-10-17T11:50:30.000Z</time>
      </trkpt>
      <trkpt lat="47.26763" lon="-1.62282">
        <ele>42</ele>
        <time>2019-10-17T11:50:31.000Z</time>
      </trkpt>
      <trkpt lat="47.26765" lon="-1.62277">
        <ele>41</ele>
        <time>2019-10-17T11:50:32.000Z</time>
      </trkpt>
      <trkpt lat="47.26767" lon="-1.62272">
        <ele>41</ele>
        <time>2019-10-17T11:50:33.000Z</time>
      </trkpt>
      <trkpt lat="47.26769" lon="-1.62267">
        <ele>41</ele>
        <time>2019-10-17T11:50:34.000Z</time>
      </trkpt>
      <trkpt lat="47.26772" lon="-1.62262">
        <ele>41</ele>
        <time>2019-10-17T11:50:35.000Z</time>
      </trkpt>
      <trkpt lat="47.26775" lon="-1.62257">
        <ele>40</ele>
        <time>2019-10-17T11:50:36.000Z</time>
      </trkpt>
      <trkpt lat="47.26778" lon="-1.62252">
        <ele>39</ele>
        <time>2019-10-17T11:50:37.000Z</time>
      </trkpt>
      <trkpt lat="47.26781" lon="-1.62246">
        <ele>38</ele>
        <time>2019-10-17T11:50:38.000Z</time>
      </trkpt>
      <trkpt lat="47.26784" lon="-1.62241">
        <ele>37</ele>
        <time>2019-10-17T11:50:39.000Z</time>
      </trkpt>
      <trkpt lat="47.26787" lon="-1.62238">
        <ele>37</ele>
        <time>2019-10-17T11:50:40.000Z</time>
      </trkpt>
      <trkpt lat="47.2679" lon="-1.62236">
        <ele>36</ele>
        <time>2019-10-17T11:50:41.000Z</time>
      </trkpt>
      <trkpt lat="47.26794" lon="-1.62232">
        <ele>35</ele>
        <time>2019-10-17T11:50:42.000Z</time>
      </trkpt>
      <trkpt lat="47.26798" lon="-1.62228">
        <ele>34</ele>
        <time>2019-10-17T11:50:43.000Z</time>
      </trkpt>
      <trkpt lat="47.26802" lon="-1.62224">
        <ele>33</ele>
        <time>2019-10-17T11:50:44.000Z</time>
      </trkpt>
      <trkpt lat="47.26807" lon="-1.6222">
        <ele>31</ele>
        <time>2019-10-17T11:50:45.000Z</time>
      </trkpt>
      <trkpt lat="47.26811" lon="-1.62216">
        <ele>29</ele>
        <time>2019-10-17T11:50:46.000Z</time>
      </trkpt>
      <trkpt lat="47.26811" lon="-1.62216">
        <ele>28</ele>
        <time>2019-10-17T11:50:48.000Z</time>
      </trkpt>
      <trkpt lat="47.26811" lon="-1.62216">
        <ele>28</ele>
        <time>2019-10-17T11:50:49.000Z</time>
      </trkpt>
      <trkpt lat="47.26827" lon="-1.62215">
        <ele>25</ele>
        <time>2019-10-17T11:50:50.000Z</time>
      </trkpt>
      <trkpt lat="47.26832" lon="-1.62216">
        <ele>23</ele>
        <time>2019-10-17T11:50:51.000Z</time>
      </trkpt>
      <trkpt lat="47.26836" lon="-1.62217">
        <ele>22</ele>
        <time>2019-10-17T11:50:52.000Z</time>
      </trkpt>
      <trkpt lat="47.2684" lon="-1.62218">
        <ele>22</ele>
        <time>2019-10-17T11:50:53.000Z</time>
      </trkpt>
      <trkpt lat="47.26844" lon="-1.6222">
        <ele>21</ele>
        <time>2019-10-17T11:50:54.000Z</time>
      </trkpt>
      <trkpt lat="47.26848" lon="-1.62221">
        <ele>21</ele>
        <time>2019-10-17T11:50:55.000Z</time>
      </trkpt>
      <trkpt lat="47.26851" lon="-1.62223">
        <ele>21</ele>
        <time>2019-10-17T11:50:56.000Z</time>
      </trkpt>
      <trkpt lat="47.26854" lon="-1.62226">
        <ele>21</ele>
        <time>2019-10-17T11:50:57.000Z</time>
      </trkpt>
      <trkpt lat="47.26856" lon="-1.62228">
        <ele>22</ele>
        <time>2019-10-17T11:50:58.000Z</time>
      </trkpt>
      <trkpt lat="47.26859" lon="-1.62232">
        <ele>21</ele>
        <time>2019-10-17T11:50:59.000Z</time>
      </trkpt>
      <trkpt lat="47.26861" lon="-1.62234">
        <ele>20</ele>
        <time>2019-10-17T11:51:00.000Z</time>
      </trkpt>
      <trkpt lat="47.26864" lon="-1.62235">
        <ele>20</ele>
        <time>2019-10-17T11:51:01.000Z</time>
      </trkpt>
      <trkpt lat="47.26866" lon="-1.62235">
        <ele>21</ele>
        <time>2019-10-17T11:51:02.000Z</time>
      </trkpt>
      <trkpt lat="47.26868" lon="-1.62236">
        <ele>20</ele>
        <time>2019-10-17T11:51:03.000Z</time>
      </trkpt>
      <trkpt lat="47.26871" lon="-1.62238">
        <ele>19</ele>
        <time>2019-10-17T11:51:04.000Z</time>
      </trkpt>
      <trkpt lat="47.26872" lon="-1.62239">
        <ele>19</ele>
        <time>2019-10-17T11:51:05.000Z</time>
      </trkpt>
      <trkpt lat="47.26874" lon="-1.62243">
        <ele>18</ele>
        <time>2019-10-17T11:51:06.000Z</time>
      </trkpt>
      <trkpt lat="47.26875" lon="-1.62246">
        <ele>18</ele>
        <time>2019-10-17T11:51:07.000Z</time>
      </trkpt>
      <trkpt lat="47.26877" lon="-1.62249">
        <ele>17</ele>
        <time>2019-10-17T11:51:08.000Z</time>
      </trkpt>
      <trkpt lat="47.26879" lon="-1.6225">
        <ele>17</ele>
        <time>2019-10-17T11:51:09.000Z</time>
      </trkpt>
      <trkpt lat="47.26881" lon="-1.62252">
        <ele>16</ele>
        <time>2019-10-17T11:51:10.000Z</time>
      </trkpt>
      <trkpt lat="47.26884" lon="-1.62252">
        <ele>16</ele>
        <time>2019-10-17T11:51:11.000Z</time>
      </trkpt>
      <trkpt lat="47.26888" lon="-1.62252">
        <ele>15</ele>
        <time>2019-10-17T11:51:12.000Z</time>
      </trkpt>
      <trkpt lat="47.26891" lon="-1.62251">
        <ele>14</ele>
        <time>2019-10-17T11:51:13.000Z</time>
      </trkpt>
      <trkpt lat="47.26894" lon="-1.62248">
        <ele>13</ele>
        <time>2019-10-17T11:51:14.000Z</time>
      </trkpt>
      <trkpt lat="47.26897" lon="-1.62247">
        <ele>14</ele>
        <time>2019-10-17T11:51:15.000Z</time>
      </trkpt>
      <trkpt lat="47.269" lon="-1.62246">
        <ele>14</ele>
        <time>2019-10-17T11:51:16.000Z</time>
      </trkpt>
      <trkpt lat="47.26902" lon="-1.62244">
        <ele>14</ele>
        <time>2019-10-17T11:51:17.000Z</time>
      </trkpt>
      <trkpt lat="47.26905" lon="-1.62243">
        <ele>14</ele>
        <time>2019-10-17T11:51:18.000Z</time>
      </trkpt>
      <trkpt lat="47.26906" lon="-1.6224">
        <ele>18</ele>
        <time>2019-10-17T11:51:19.000Z</time>
      </trkpt>
      <trkpt lat="47.26908" lon="-1.62239">
        <ele>19</ele>
        <time>2019-10-17T11:51:20.000Z</time>
      </trkpt>
      <trkpt lat="47.26911" lon="-1.62239">
        <ele>19</ele>
        <time>2019-10-17T11:51:21.000Z</time>
      </trkpt>
      <trkpt lat="47.26915" lon="-1.62239">
        <ele>18</ele>
        <time>2019-10-17T11:51:22.000Z</time>
      </trkpt>
      <trkpt lat="47.26918" lon="-1.6224">
        <ele>18</ele>
        <time>2019-10-17T11:51:23.000Z</time>
      </trkpt>
      <trkpt lat="47.26921" lon="-1.6224">
        <ele>19</ele>
        <time>2019-10-17T11:51:24.000Z</time>
      </trkpt>
      <trkpt lat="47.26924" lon="-1.62241">
        <ele>19</ele>
        <time>2019-10-17T11:51:25.000Z</time>
      </trkpt>
      <trkpt lat="47.26928" lon="-1.62242">
        <ele>20</ele>
        <time>2019-10-17T11:51:26.000Z</time>
      </trkpt>
      <trkpt lat="47.2693" lon="-1.62243">
        <ele>19</ele>
        <time>2019-10-17T11:51:27.000Z</time>
      </trkpt>
      <trkpt lat="47.26933" lon="-1.62245">
        <ele>19</ele>
        <time>2019-10-17T11:51:28.000Z</time>
      </trkpt>
      <trkpt lat="47.26936" lon="-1.62246">
        <ele>18</ele>
        <time>2019-10-17T11:51:29.000Z</time>
      </trkpt>
      <trkpt lat="47.26939" lon="-1.62246">
        <ele>18</ele>
        <time>2019-10-17T11:51:30.000Z</time>
      </trkpt>
      <trkpt lat="47.26942" lon="-1.62246">
        <ele>18</ele>
        <time>2019-10-17T11:51:31.000Z</time>
      </trkpt>
      <trkpt lat="47.26944" lon="-1.62246">
        <ele>18</ele>
        <time>2019-10-17T11:51:32.000Z</time>
      </trkpt>
      <trkpt lat="47.26947" lon="-1.62246">
        <ele>19</ele>
        <time>2019-10-17T11:51:33.000Z</time>
      </trkpt>
      <trkpt lat="47.26949" lon="-1.62246">
        <ele>19</ele>
        <time>2019-10-17T11:51:34.000Z</time>
      </trkpt>
      <trkpt lat="47.26952" lon="-1.62246">
        <ele>19</ele>
        <time>2019-10-17T11:51:35.000Z</time>
      </trkpt>
      <trkpt lat="47.26954" lon="-1.62246">
        <ele>20</ele>
        <time>2019-10-17T11:51:36.000Z</time>
      </trkpt>
      <trkpt lat="47.26956" lon="-1.62247">
        <ele>20</ele>
        <time>2019-10-17T11:51:37.000Z</time>
      </trkpt>
      <trkpt lat="47.26958" lon="-1.6225">
        <ele>19</ele>
        <time>2019-10-17T11:51:38.000Z</time>
      </trkpt>
      <trkpt lat="47.26961" lon="-1.6225">
        <ele>19</ele>
        <time>2019-10-17T11:51:39.000Z</time>
      </trkpt>
      <trkpt lat="47.26965" lon="-1.6225">
        <ele>19</ele>
        <time>2019-10-17T11:51:40.000Z</time>
      </trkpt>
      <trkpt lat="47.26967" lon="-1.6225">
        <ele>19</ele>
        <time>2019-10-17T11:51:41.000Z</time>
      </trkpt>
      <trkpt lat="47.26969" lon="-1.62252">
        <ele>19</ele>
        <time>2019-10-17T11:51:42.000Z</time>
      </trkpt>
      <trkpt lat="47.26972" lon="-1.62252">
        <ele>20</ele>
        <time>2019-10-17T11:51:43.000Z</time>
      </trkpt>
      <trkpt lat="47.26975" lon="-1.62252">
        <ele>21</ele>
        <time>2019-10-17T11:51:44.000Z</time>
      </trkpt>
      <trkpt lat="47.26977" lon="-1.62253">
        <ele>21</ele>
        <time>2019-10-17T11:51:45.000Z</time>
      </trkpt>
      <trkpt lat="47.2698" lon="-1.62253">
        <ele>21</ele>
        <time>2019-10-17T11:51:46.000Z</time>
      </trkpt>
      <trkpt lat="47.26981" lon="-1.62253">
        <ele>22</ele>
        <time>2019-10-17T11:51:47.000Z</time>
      </trkpt>
      <trkpt lat="47.26983" lon="-1.62254">
        <ele>22</ele>
        <time>2019-10-17T11:51:48.000Z</time>
      </trkpt>
      <trkpt lat="47.26985" lon="-1.62253">
        <ele>22</ele>
        <time>2019-10-17T11:51:49.000Z</time>
      </trkpt>
      <trkpt lat="47.26988" lon="-1.62253">
        <ele>23</ele>
        <time>2019-10-17T11:51:50.000Z</time>
      </trkpt>
      <trkpt lat="47.2699" lon="-1.62251">
        <ele>23</ele>
        <time>2019-10-17T11:51:51.000Z</time>
      </trkpt>
      <trkpt lat="47.26992" lon="-1.6225">
        <ele>24</ele>
        <time>2019-10-17T11:51:52.000Z</time>
      </trkpt>
      <trkpt lat="47.26995" lon="-1.62248">
        <ele>24</ele>
        <time>2019-10-17T11:51:53.000Z</time>
      </trkpt>
      <trkpt lat="47.26998" lon="-1.62246">
        <ele>24</ele>
        <time>2019-10-17T11:51:54.000Z</time>
      </trkpt>
      <trkpt lat="47.27001" lon="-1.62246">
        <ele>24</ele>
        <time>2019-10-17T11:51:55.000Z</time>
      </trkpt>
      <trkpt lat="47.27003" lon="-1.62246">
        <ele>23</ele>
        <time>2019-10-17T11:51:56.000Z</time>
      </trkpt>
      <trkpt lat="47.27006" lon="-1.62246">
        <ele>23</ele>
        <time>2019-10-17T11:51:57.000Z</time>
      </trkpt>
      <trkpt lat="47.2701" lon="-1.62245">
        <ele>23</ele>
        <time>2019-10-17T11:51:58.000Z</time>
      </trkpt>
      <trkpt lat="47.27012" lon="-1.62245">
        <ele>24</ele>
        <time>2019-10-17T11:51:59.000Z</time>
      </trkpt>
      <trkpt lat="47.27015" lon="-1.62246">
        <ele>24</ele>
        <time>2019-10-17T11:52:00.000Z</time>
      </trkpt>
      <trkpt lat="47.27018" lon="-1.62246">
        <ele>24</ele>
        <time>2019-10-17T11:52:01.000Z</time>
      </trkpt>
      <trkpt lat="47.2702" lon="-1.62247">
        <ele>24</ele>
        <time>2019-10-17T11:52:02.000Z</time>
      </trkpt>
      <trkpt lat="47.27022" lon="-1.62247">
        <ele>24</ele>
        <time>2019-10-17T11:52:03.000Z</time>
      </trkpt>
      <trkpt lat="47.27024" lon="-1.62247">
        <ele>24</ele>
        <time>2019-10-17T11:52:04.000Z</time>
      </trkpt>
      <trkpt lat="47.27027" lon="-1.62247">
        <ele>24</ele>
        <time>2019-10-17T11:52:05.000Z</time>
      </trkpt>
      <trkpt lat="47.27029" lon="-1.62248">
        <ele>24</ele>
        <time>2019-10-17T11:52:06.000Z</time>
      </trkpt>
      <trkpt lat="47.27031" lon="-1.62249">
        <ele>24</ele>
        <time>2019-10-17T11:52:07.000Z</time>
      </trkpt>
      <trkpt lat="47.27034" lon="-1.62249">
        <ele>24</ele>
        <time>2019-10-17T11:52:08.000Z</time>
      </trkpt>
      <trkpt lat="47.27036" lon="-1.62249">
        <ele>24</ele>
        <time>2019-10-17T11:52:09.000Z</time>
      </trkpt>
      <trkpt lat="47.27038" lon="-1.62249">
        <ele>24</ele>
        <time>2019-10-17T11:52:10.000Z</time>
      </trkpt>
      <trkpt lat="47.27041" lon="-1.62249">
        <ele>24</ele>
        <time>2019-10-17T11:52:11.000Z</time>
      </trkpt>
      <trkpt lat="47.27043" lon="-1.62249">
        <ele>24</ele>
        <time>2019-10-17T11:52:12.000Z</time>
      </trkpt>
      <trkpt lat="47.27045" lon="-1.62249">
        <ele>23</ele>
        <time>2019-10-17T11:52:13.000Z</time>
      </trkpt>
      <trkpt lat="47.27048" lon="-1.62248">
        <ele>24</ele>
        <time>2019-10-17T11:52:14.000Z</time>
      </trkpt>
      <trkpt lat="47.2705" lon="-1.62247">
        <ele>24</ele>
        <time>2019-10-17T11:52:15.000Z</time>
      </trkpt>
      <trkpt lat="47.2705" lon="-1.62247">
        <ele>24</ele>
        <time>2019-10-17T11:52:19.000Z</time>
      </trkpt>
      <trkpt lat="47.2705" lon="-1.62247">
        <ele>24</ele>
        <time>2019-10-17T11:52:20.000Z</time>
      </trkpt>
      <trkpt lat="47.27061" lon="-1.62245">
        <ele>24</ele>
        <time>2019-10-17T11:52:21.000Z</time>
      </trkpt>
      <trkpt lat="47.27063" lon="-1.62245">
        <ele>24</ele>
        <time>2019-10-17T11:52:22.000Z</time>
      </trkpt>
      <trkpt lat="47.27066" lon="-1.62246">
        <ele>25</ele>
        <time>2019-10-17T11:52:23.000Z</time>
      </trkpt>
      <trkpt lat="47.27069" lon="-1.62247">
        <ele>25</ele>
        <time>2019-10-17T11:52:24.000Z</time>
      </trkpt>
      <trkpt lat="47.27072" lon="-1.62248">
        <ele>24</ele>
        <time>2019-10-17T11:52:25.000Z</time>
      </trkpt>
      <trkpt lat="47.27074" lon="-1.62251">
        <ele>24</ele>
        <time>2019-10-17T11:52:26.000Z</time>
      </trkpt>
      <trkpt lat="47.27077" lon="-1.62253">
        <ele>23</ele>
        <time>2019-10-17T11:52:27.000Z</time>
      </trkpt>
      <trkpt lat="47.27079" lon="-1.62248">
        <ele>25</ele>
        <time>2019-10-17T11:52:28.000Z</time>
      </trkpt>
      <trkpt lat="47.2708" lon="-1.62244">
        <ele>26</ele>
        <time>2019-10-17T11:52:29.000Z</time>
      </trkpt>
      <trkpt lat="47.27081" lon="-1.62241">
        <ele>28</ele>
        <time>2019-10-17T11:52:30.000Z</time>
      </trkpt>
      <trkpt lat="47.27082" lon="-1.62236">
        <ele>30</ele>
        <time>2019-10-17T11:52:31.000Z</time>
      </trkpt>
      <trkpt lat="47.27083" lon="-1.6223">
        <ele>33</ele>
        <time>2019-10-17T11:52:32.000Z</time>
      </trkpt>
      <trkpt lat="47.27083" lon="-1.62225">
        <ele>36</ele>
        <time>2019-10-17T11:52:33.000Z</time>
      </trkpt>
      <trkpt lat="47.27084" lon="-1.6222">
        <ele>39</ele>
        <time>2019-10-17T11:52:34.000Z</time>
      </trkpt>
      <trkpt lat="47.27085" lon="-1.62213">
        <ele>43</ele>
        <time>2019-10-17T11:52:35.000Z</time>
      </trkpt>
      <trkpt lat="47.27086" lon="-1.62207">
        <ele>48</ele>
        <time>2019-10-17T11:52:36.000Z</time>
      </trkpt>
      <trkpt lat="47.27086" lon="-1.622">
        <ele>53</ele>
        <time>2019-10-17T11:52:37.000Z</time>
      </trkpt>
      <trkpt lat="47.27087" lon="-1.62193">
        <ele>57</ele>
        <time>2019-10-17T11:52:38.000Z</time>
      </trkpt>
      <trkpt lat="47.27087" lon="-1.62186">
        <ele>60</ele>
        <time>2019-10-17T11:52:39.000Z</time>
      </trkpt>
      <trkpt lat="47.27085" lon="-1.62181">
        <ele>61</ele>
        <time>2019-10-17T11:52:40.000Z</time>
      </trkpt>
      <trkpt lat="47.27083" lon="-1.62177">
        <ele>62</ele>
        <time>2019-10-17T11:52:41.000Z</time>
      </trkpt>
      <trkpt lat="47.27079" lon="-1.62174">
        <ele>61</ele>
        <time>2019-10-17T11:52:42.000Z</time>
      </trkpt>
      <trkpt lat="47.27075" lon="-1.6217">
        <ele>62</ele>
        <time>2019-10-17T11:52:43.000Z</time>
      </trkpt>
      <trkpt lat="47.27071" lon="-1.62166">
        <ele>62</ele>
        <time>2019-10-17T11:52:44.000Z</time>
      </trkpt>
      <trkpt lat="47.27067" lon="-1.62162">
        <ele>62</ele>
        <time>2019-10-17T11:52:45.000Z</time>
      </trkpt>
      <trkpt lat="47.27064" lon="-1.62158">
        <ele>63</ele>
        <time>2019-10-17T11:52:46.000Z</time>
      </trkpt>
      <trkpt lat="47.27061" lon="-1.62151">
        <ele>64</ele>
        <time>2019-10-17T11:52:47.000Z</time>
      </trkpt>
      <trkpt lat="47.27059" lon="-1.62144">
        <ele>64</ele>
        <time>2019-10-17T11:52:48.000Z</time>
      </trkpt>
      <trkpt lat="47.27058" lon="-1.62137">
        <ele>65</ele>
        <time>2019-10-17T11:52:49.000Z</time>
      </trkpt>
      <trkpt lat="47.27059" lon="-1.62132">
        <ele>62</ele>
        <time>2019-10-17T11:52:50.000Z</time>
      </trkpt>
      <trkpt lat="47.27059" lon="-1.62126">
        <ele>60</ele>
        <time>2019-10-17T11:52:51.000Z</time>
      </trkpt>
      <trkpt lat="47.2706" lon="-1.6212">
        <ele>59</ele>
        <time>2019-10-17T11:52:52.000Z</time>
      </trkpt>
      <trkpt lat="47.2706" lon="-1.62117">
        <ele>58</ele>
        <time>2019-10-17T11:52:53.000Z</time>
      </trkpt>
      <trkpt lat="47.27061" lon="-1.62115">
        <ele>58</ele>
        <time>2019-10-17T11:52:54.000Z</time>
      </trkpt>
      <trkpt lat="47.27061" lon="-1.62113">
        <ele>58</ele>
        <time>2019-10-17T11:52:55.000Z</time>
      </trkpt>
      <trkpt lat="47.27061" lon="-1.6211">
        <ele>59</ele>
        <time>2019-10-17T11:52:56.000Z</time>
      </trkpt>
      <trkpt lat="47.27061" lon="-1.62107">
        <ele>58</ele>
        <time>2019-10-17T11:52:57.000Z</time>
      </trkpt>
      <trkpt lat="47.2706" lon="-1.62104">
        <ele>58</ele>
        <time>2019-10-17T11:52:58.000Z</time>
      </trkpt>
      <trkpt lat="47.2706" lon="-1.62102">
        <ele>57</ele>
        <time>2019-10-17T11:52:59.000Z</time>
      </trkpt>
      <trkpt lat="47.27059" lon="-1.62103">
        <ele>56</ele>
        <time>2019-10-17T11:53:00.000Z</time>
      </trkpt>
      <trkpt lat="47.2706" lon="-1.62102">
        <ele>56</ele>
        <time>2019-10-17T11:53:01.000Z</time>
      </trkpt>
      <trkpt lat="47.2706" lon="-1.62102">
        <ele>55</ele>
        <time>2019-10-17T11:53:02.000Z</time>
      </trkpt>
      <trkpt lat="47.2706" lon="-1.62103">
        <ele>55</ele>
        <time>2019-10-17T11:53:03.000Z</time>
      </trkpt>
      <trkpt lat="47.2706" lon="-1.62103">
        <ele>55</ele>
        <time>2019-10-17T11:53:04.000Z</time>
      </trkpt>
      <trkpt lat="47.2706" lon="-1.62102">
        <ele>55</ele>
        <time>2019-10-17T11:53:05.000Z</time>
      </trkpt>
      <trkpt lat="47.27063" lon="-1.62098">
        <ele>53</ele>
        <time>2019-10-17T11:53:06.000Z</time>
      </trkpt>
      <trkpt lat="47.27063" lon="-1.62098">
        <ele>53</ele>
        <time>2019-10-17T11:53:07.000Z</time>
      </trkpt>
      <trkpt lat="47.27064" lon="-1.62097">
        <ele>53</ele>
        <time>2019-10-17T11:53:08.000Z</time>
      </trkpt>
      <trkpt lat="47.27064" lon="-1.62096">
        <ele>53</ele>
        <time>2019-10-17T11:53:09.000Z</time>
      </trkpt>
      <trkpt lat="47.27065" lon="-1.62094">
        <ele>53</ele>
        <time>2019-10-17T11:53:10.000Z</time>
      </trkpt>
      <trkpt lat="47.27066" lon="-1.62094">
        <ele>53</ele>
        <time>2019-10-17T11:53:11.000Z</time>
      </trkpt>
      <trkpt lat="47.27067" lon="-1.62093">
        <ele>53</ele>
        <time>2019-10-17T11:53:12.000Z</time>
      </trkpt>
      <trkpt lat="47.27067" lon="-1.62093">
        <ele>52</ele>
        <time>2019-10-17T11:53:13.000Z</time>
      </trkpt>
      <trkpt lat="47.2707" lon="-1.62091">
        <ele>48</ele>
        <time>2019-10-17T11:53:14.000Z</time>
      </trkpt>
      <trkpt lat="47.27071" lon="-1.62089">
        <ele>48</ele>
        <time>2019-10-17T11:53:15.000Z</time>
      </trkpt>
      <trkpt lat="47.27073" lon="-1.62088">
        <ele>47</ele>
        <time>2019-10-17T11:53:16.000Z</time>
      </trkpt>
      <trkpt lat="47.27074" lon="-1.62088">
        <ele>47</ele>
        <time>2019-10-17T11:53:17.000Z</time>
      </trkpt>
      <trkpt lat="47.27076" lon="-1.62087">
        <ele>46</ele>
        <time>2019-10-17T11:53:18.000Z</time>
      </trkpt>
      <trkpt lat="47.27077" lon="-1.62087">
        <ele>45</ele>
        <time>2019-10-17T11:53:19.000Z</time>
      </trkpt>
      <trkpt lat="47.27078" lon="-1.62086">
        <ele>43</ele>
        <time>2019-10-17T11:53:20.000Z</time>
      </trkpt>
      <trkpt lat="47.2708" lon="-1.62086">
        <ele>42</ele>
        <time>2019-10-17T11:53:21.000Z</time>
      </trkpt>
      <trkpt lat="47.27082" lon="-1.62084">
        <ele>41</ele>
        <time>2019-10-17T11:53:22.000Z</time>
      </trkpt>
      <trkpt lat="47.27083" lon="-1.62084">
        <ele>40</ele>
        <time>2019-10-17T11:53:23.000Z</time>
      </trkpt>
      <trkpt lat="47.27085" lon="-1.62083">
        <ele>39</ele>
        <time>2019-10-17T11:53:24.000Z</time>
      </trkpt>
      <trkpt lat="47.27087" lon="-1.62083">
        <ele>39</ele>
        <time>2019-10-17T11:53:25.000Z</time>
      </trkpt>
      <trkpt lat="47.27089" lon="-1.62083">
        <ele>38</ele>
        <time>2019-10-17T11:53:26.000Z</time>
      </trkpt>
      <trkpt lat="47.2709" lon="-1.62084">
        <ele>37</ele>
        <time>2019-10-17T11:53:27.000Z</time>
      </trkpt>
      <trkpt lat="47.27091" lon="-1.62086">
        <ele>36</ele>
        <time>2019-10-17T11:53:28.000Z</time>
      </trkpt>
      <trkpt lat="47.27093" lon="-1.62088">
        <ele>35</ele>
        <time>2019-10-17T11:53:29.000Z</time>
      </trkpt>
      <trkpt lat="47.27094" lon="-1.6209">
        <ele>34</ele>
        <time>2019-10-17T11:53:30.000Z</time>
      </trkpt>
      <trkpt lat="47.27094" lon="-1.62092">
        <ele>33</ele>
        <time>2019-10-17T11:53:31.000Z</time>
      </trkpt>
      <trkpt lat="47.27094" lon="-1.62093">
        <ele>33</ele>
        <time>2019-10-17T11:53:32.000Z</time>
      </trkpt>
      <trkpt lat="47.27095" lon="-1.62095">
        <ele>32</ele>
        <time>2019-10-17T11:53:33.000Z</time>
      </trkpt>
      <trkpt lat="47.27095" lon="-1.62096">
        <ele>32</ele>
        <time>2019-10-17T11:53:34.000Z</time>
      </trkpt>
      <trkpt lat="47.27095" lon="-1.62096">
        <ele>32</ele>
        <time>2019-10-17T11:53:35.000Z</time>
      </trkpt>
      <trkpt lat="47.27095" lon="-1.62094">
        <ele>31</ele>
        <time>2019-10-17T11:53:36.000Z</time>
      </trkpt>
      <trkpt lat="47.27093" lon="-1.62093">
        <ele>31</ele>
        <time>2019-10-17T11:53:37.000Z</time>
      </trkpt>
      <trkpt lat="47.27093" lon="-1.62091">
        <ele>30</ele>
        <time>2019-10-17T11:53:38.000Z</time>
      </trkpt>
      <trkpt lat="47.27092" lon="-1.62087">
        <ele>31</ele>
        <time>2019-10-17T11:53:39.000Z</time>
      </trkpt>
      <trkpt lat="47.27093" lon="-1.62084">
        <ele>31</ele>
        <time>2019-10-17T11:53:40.000Z</time>
      </trkpt>
      <trkpt lat="47.27094" lon="-1.6208">
        <ele>31</ele>
        <time>2019-10-17T11:53:41.000Z</time>
      </trkpt>
      <trkpt lat="47.27094" lon="-1.62074">
        <ele>32</ele>
        <time>2019-10-17T11:53:42.000Z</time>
      </trkpt>
      <trkpt lat="47.27094" lon="-1.62068">
        <ele>32</ele>
        <time>2019-10-17T11:53:43.000Z</time>
      </trkpt>
      <trkpt lat="47.27094" lon="-1.6206">
        <ele>32</ele>
        <time>2019-10-17T11:53:44.000Z</time>
      </trkpt>
      <trkpt lat="47.27094" lon="-1.62054">
        <ele>33</ele>
        <time>2019-10-17T11:53:45.000Z</time>
      </trkpt>
      <trkpt lat="47.27093" lon="-1.62047">
        <ele>34</ele>
        <time>2019-10-17T11:53:46.000Z</time>
      </trkpt>
      <trkpt lat="47.27094" lon="-1.6204">
        <ele>35</ele>
        <time>2019-10-17T11:53:47.000Z</time>
      </trkpt>
      <trkpt lat="47.27094" lon="-1.62033">
        <ele>35</ele>
        <time>2019-10-17T11:53:48.000Z</time>
      </trkpt>
      <trkpt lat="47.27094" lon="-1.62026">
        <ele>36</ele>
        <time>2019-10-17T11:53:49.000Z</time>
      </trkpt>
      <trkpt lat="47.27094" lon="-1.6202">
        <ele>36</ele>
        <time>2019-10-17T11:53:50.000Z</time>
      </trkpt>
      <trkpt lat="47.27094" lon="-1.62015">
        <ele>36</ele>
        <time>2019-10-17T11:53:51.000Z</time>
      </trkpt>
      <trkpt lat="47.27095" lon="-1.62011">
        <ele>37</ele>
        <time>2019-10-17T11:53:52.000Z</time>
      </trkpt>
      <trkpt lat="47.27096" lon="-1.62009">
        <ele>37</ele>
        <time>2019-10-17T11:53:53.000Z</time>
      </trkpt>
      <trkpt lat="47.271" lon="-1.62007">
        <ele>38</ele>
        <time>2019-10-17T11:53:54.000Z</time>
      </trkpt>
      <trkpt lat="47.27103" lon="-1.62006">
        <ele>39</ele>
        <time>2019-10-17T11:53:55.000Z</time>
      </trkpt>
      <trkpt lat="47.27106" lon="-1.62006">
        <ele>38</ele>
        <time>2019-10-17T11:53:56.000Z</time>
      </trkpt>
      <trkpt lat="47.2711" lon="-1.62005">
        <ele>38</ele>
        <time>2019-10-17T11:53:57.000Z</time>
      </trkpt>
      <trkpt lat="47.27112" lon="-1.62008">
        <ele>38</ele>
        <time>2019-10-17T11:53:58.000Z</time>
      </trkpt>
      <trkpt lat="47.27115" lon="-1.62012">
        <ele>37</ele>
        <time>2019-10-17T11:53:59.000Z</time>
      </trkpt>
      <trkpt lat="47.27117" lon="-1.62015">
        <ele>37</ele>
        <time>2019-10-17T11:54:00.000Z</time>
      </trkpt>
      <trkpt lat="47.27119" lon="-1.62018">
        <ele>37</ele>
        <time>2019-10-17T11:54:01.000Z</time>
      </trkpt>
      <trkpt lat="47.27122" lon="-1.62021">
        <ele>36</ele>
        <time>2019-10-17T11:54:02.000Z</time>
      </trkpt>
      <trkpt lat="47.27125" lon="-1.62025">
        <ele>36</ele>
        <time>2019-10-17T11:54:03.000Z</time>
      </trkpt>
      <trkpt lat="47.27127" lon="-1.62028">
        <ele>36</ele>
        <time>2019-10-17T11:54:04.000Z</time>
      </trkpt>
      <trkpt lat="47.2713" lon="-1.62033">
        <ele>36</ele>
        <time>2019-10-17T11:54:05.000Z</time>
      </trkpt>
      <trkpt lat="47.27132" lon="-1.62038">
        <ele>36</ele>
        <time>2019-10-17T11:54:06.000Z</time>
      </trkpt>
      <trkpt lat="47.27134" lon="-1.62043">
        <ele>35</ele>
        <time>2019-10-17T11:54:07.000Z</time>
      </trkpt>
      <trkpt lat="47.27136" lon="-1.6205">
        <ele>35</ele>
        <time>2019-10-17T11:54:08.000Z</time>
      </trkpt>
      <trkpt lat="47.27138" lon="-1.62056">
        <ele>35</ele>
        <time>2019-10-17T11:54:09.000Z</time>
      </trkpt>
      <trkpt lat="47.2714" lon="-1.62063">
        <ele>35</ele>
        <time>2019-10-17T11:54:10.000Z</time>
      </trkpt>
      <trkpt lat="47.27142" lon="-1.62068">
        <ele>35</ele>
        <time>2019-10-17T11:54:11.000Z</time>
      </trkpt>
      <trkpt lat="47.27143" lon="-1.62074">
        <ele>34</ele>
        <time>2019-10-17T11:54:12.000Z</time>
      </trkpt>
      <trkpt lat="47.27145" lon="-1.6208">
        <ele>34</ele>
        <time>2019-10-17T11:54:13.000Z</time>
      </trkpt>
      <trkpt lat="47.27147" lon="-1.62085">
        <ele>34</ele>
        <time>2019-10-17T11:54:14.000Z</time>
      </trkpt>
      <trkpt lat="47.27149" lon="-1.62089">
        <ele>33</ele>
        <time>2019-10-17T11:54:15.000Z</time>
      </trkpt>
      <trkpt lat="47.2715" lon="-1.62093">
        <ele>33</ele>
        <time>2019-10-17T11:54:16.000Z</time>
      </trkpt>
      <trkpt lat="47.27152" lon="-1.62098">
        <ele>33</ele>
        <time>2019-10-17T11:54:17.000Z</time>
      </trkpt>
      <trkpt lat="47.27154" lon="-1.62102">
        <ele>33</ele>
        <time>2019-10-17T11:54:18.000Z</time>
      </trkpt>
      <trkpt lat="47.27156" lon="-1.62108">
        <ele>33</ele>
        <time>2019-10-17T11:54:19.000Z</time>
      </trkpt>
      <trkpt lat="47.27157" lon="-1.62113">
        <ele>33</ele>
        <time>2019-10-17T11:54:20.000Z</time>
      </trkpt>
      <trkpt lat="47.2716" lon="-1.62118">
        <ele>33</ele>
        <time>2019-10-17T11:54:21.000Z</time>
      </trkpt>
      <trkpt lat="47.27162" lon="-1.62122">
        <ele>32</ele>
        <time>2019-10-17T11:54:22.000Z</time>
      </trkpt>
      <trkpt lat="47.27164" lon="-1.62128">
        <ele>32</ele>
        <time>2019-10-17T11:54:23.000Z</time>
      </trkpt>
      <trkpt lat="47.27167" lon="-1.62131">
        <ele>32</ele>
        <time>2019-10-17T11:54:24.000Z</time>
      </trkpt>
      <trkpt lat="47.27169" lon="-1.62135">
        <ele>32</ele>
        <time>2019-10-17T11:54:25.000Z</time>
      </trkpt>
      <trkpt lat="47.27171" lon="-1.62139">
        <ele>32</ele>
        <time>2019-10-17T11:54:26.000Z</time>
      </trkpt>
      <trkpt lat="47.27173" lon="-1.62144">
        <ele>32</ele>
        <time>2019-10-17T11:54:27.000Z</time>
      </trkpt>
      <trkpt lat="47.27176" lon="-1.62146">
        <ele>32</ele>
        <time>2019-10-17T11:54:28.000Z</time>
      </trkpt>
      <trkpt lat="47.27179" lon="-1.62148">
        <ele>32</ele>
        <time>2019-10-17T11:54:29.000Z</time>
      </trkpt>
      <trkpt lat="47.27182" lon="-1.62148">
        <ele>32</ele>
        <time>2019-10-17T11:54:30.000Z</time>
      </trkpt>
      <trkpt lat="47.27185" lon="-1.62147">
        <ele>32</ele>
        <time>2019-10-17T11:54:31.000Z</time>
      </trkpt>
      <trkpt lat="47.27187" lon="-1.62144">
        <ele>32</ele>
        <time>2019-10-17T11:54:32.000Z</time>
      </trkpt>
      <trkpt lat="47.27188" lon="-1.62139">
        <ele>32</ele>
        <time>2019-10-17T11:54:33.000Z</time>
      </trkpt>
      <trkpt lat="47.2719" lon="-1.62134">
        <ele>32</ele>
        <time>2019-10-17T11:54:34.000Z</time>
      </trkpt>
      <trkpt lat="47.27191" lon="-1.62129">
        <ele>32</ele>
        <time>2019-10-17T11:54:35.000Z</time>
      </trkpt>
      <trkpt lat="47.27193" lon="-1.62125">
        <ele>32</ele>
        <time>2019-10-17T11:54:36.000Z</time>
      </trkpt>
      <trkpt lat="47.27194" lon="-1.62119">
        <ele>32</ele>
        <time>2019-10-17T11:54:37.000Z</time>
      </trkpt>
      <trkpt lat="47.27194" lon="-1.62114">
        <ele>32</ele>
        <time>2019-10-17T11:54:38.000Z</time>
      </trkpt>
      <trkpt lat="47.27195" lon="-1.62108">
        <ele>33</ele>
        <time>2019-10-17T11:54:39.000Z</time>
      </trkpt>
      <trkpt lat="47.27196" lon="-1.62102">
        <ele>33</ele>
        <time>2019-10-17T11:54:40.000Z</time>
      </trkpt>
      <trkpt lat="47.27195" lon="-1.62097">
        <ele>33</ele>
        <time>2019-10-17T11:54:41.000Z</time>
      </trkpt>
      <trkpt lat="47.27193" lon="-1.62093">
        <ele>33</ele>
        <time>2019-10-17T11:54:42.000Z</time>
      </trkpt>
      <trkpt lat="47.27192" lon="-1.62089">
        <ele>33</ele>
        <time>2019-10-17T11:54:43.000Z</time>
      </trkpt>
      <trkpt lat="47.2719" lon="-1.62085">
        <ele>33</ele>
        <time>2019-10-17T11:54:44.000Z</time>
      </trkpt>
      <trkpt lat="47.27188" lon="-1.6208">
        <ele>33</ele>
        <time>2019-10-17T11:54:45.000Z</time>
      </trkpt>
      <trkpt lat="47.27187" lon="-1.62076">
        <ele>33</ele>
        <time>2019-10-17T11:54:46.000Z</time>
      </trkpt>
      <trkpt lat="47.27185" lon="-1.62072">
        <ele>33</ele>
        <time>2019-10-17T11:54:47.000Z</time>
      </trkpt>
      <trkpt lat="47.27183" lon="-1.62068">
        <ele>33</ele>
        <time>2019-10-17T11:54:48.000Z</time>
      </trkpt>
      <trkpt lat="47.2718" lon="-1.62063">
        <ele>33</ele>
        <time>2019-10-17T11:54:49.000Z</time>
      </trkpt>
      <trkpt lat="47.27178" lon="-1.62057">
        <ele>33</ele>
        <time>2019-10-17T11:54:50.000Z</time>
      </trkpt>
      <trkpt lat="47.27176" lon="-1.62052">
        <ele>33</ele>
        <time>2019-10-17T11:54:51.000Z</time>
      </trkpt>
      <trkpt lat="47.27176" lon="-1.62046">
        <ele>33</ele>
        <time>2019-10-17T11:54:52.000Z</time>
      </trkpt>
      <trkpt lat="47.27177" lon="-1.62042">
        <ele>33</ele>
        <time>2019-10-17T11:54:53.000Z</time>
      </trkpt>
      <trkpt lat="47.27178" lon="-1.62036">
        <ele>34</ele>
        <time>2019-10-17T11:54:54.000Z</time>
      </trkpt>
      <trkpt lat="47.27178" lon="-1.62031">
        <ele>34</ele>
        <time>2019-10-17T11:54:55.000Z</time>
      </trkpt>
      <trkpt lat="47.27177" lon="-1.62026">
        <ele>34</ele>
        <time>2019-10-17T11:54:56.000Z</time>
      </trkpt>
      <trkpt lat="47.27176" lon="-1.62021">
        <ele>35</ele>
        <time>2019-10-17T11:54:57.000Z</time>
      </trkpt>
      <trkpt lat="47.27173" lon="-1.62016">
        <ele>35</ele>
        <time>2019-10-17T11:54:58.000Z</time>
      </trkpt>
      <trkpt lat="47.2717" lon="-1.62011">
        <ele>35</ele>
        <time>2019-10-17T11:54:59.000Z</time>
      </trkpt>
      <trkpt lat="47.27167" lon="-1.62006">
        <ele>35</ele>
        <time>2019-10-17T11:55:00.000Z</time>
      </trkpt>
      <trkpt lat="47.27164" lon="-1.62001">
        <ele>35</ele>
        <time>2019-10-17T11:55:01.000Z</time>
      </trkpt>
      <trkpt lat="47.2716" lon="-1.61996">
        <ele>36</ele>
        <time>2019-10-17T11:55:02.000Z</time>
      </trkpt>
      <trkpt lat="47.27157" lon="-1.61991">
        <ele>36</ele>
        <time>2019-10-17T11:55:03.000Z</time>
      </trkpt>
      <trkpt lat="47.27154" lon="-1.61986">
        <ele>36</ele>
        <time>2019-10-17T11:55:04.000Z</time>
      </trkpt>
      <trkpt lat="47.27152" lon="-1.61979">
        <ele>36</ele>
        <time>2019-10-17T11:55:05.000Z</time>
      </trkpt>
      <trkpt lat="47.27149" lon="-1.61971">
        <ele>36</ele>
        <time>2019-10-17T11:55:06.000Z</time>
      </trkpt>
      <trkpt lat="47.27146" lon="-1.61966">
        <ele>36</ele>
        <time>2019-10-17T11:55:07.000Z</time>
      </trkpt>
      <trkpt lat="47.27144" lon="-1.61961">
        <ele>37</ele>
        <time>2019-10-17T11:55:08.000Z</time>
      </trkpt>
      <trkpt lat="47.27141" lon="-1.61956">
        <ele>38</ele>
        <time>2019-10-17T11:55:09.000Z</time>
      </trkpt>
      <trkpt lat="47.27138" lon="-1.61951">
        <ele>38</ele>
        <time>2019-10-17T11:55:10.000Z</time>
      </trkpt>
      <trkpt lat="47.27136" lon="-1.61945">
        <ele>39</ele>
        <time>2019-10-17T11:55:11.000Z</time>
      </trkpt>
      <trkpt lat="47.27133" lon="-1.6194">
        <ele>40</ele>
        <time>2019-10-17T11:55:12.000Z</time>
      </trkpt>
      <trkpt lat="47.2713" lon="-1.61936">
        <ele>40</ele>
        <time>2019-10-17T11:55:13.000Z</time>
      </trkpt>
      <trkpt lat="47.27127" lon="-1.61933">
        <ele>40</ele>
        <time>2019-10-17T11:55:14.000Z</time>
      </trkpt>
      <trkpt lat="47.27124" lon="-1.6193">
        <ele>40</ele>
        <time>2019-10-17T11:55:15.000Z</time>
      </trkpt>
      <trkpt lat="47.27121" lon="-1.61926">
        <ele>40</ele>
        <time>2019-10-17T11:55:16.000Z</time>
      </trkpt>
      <trkpt lat="47.27118" lon="-1.61923">
        <ele>41</ele>
        <time>2019-10-17T11:55:17.000Z</time>
      </trkpt>
      <trkpt lat="47.27115" lon="-1.61917">
        <ele>41</ele>
        <time>2019-10-17T11:55:18.000Z</time>
      </trkpt>
      <trkpt lat="47.27112" lon="-1.61912">
        <ele>41</ele>
        <time>2019-10-17T11:55:19.000Z</time>
      </trkpt>
      <trkpt lat="47.2711" lon="-1.61908">
        <ele>41</ele>
        <time>2019-10-17T11:55:20.000Z</time>
      </trkpt>
      <trkpt lat="47.27108" lon="-1.61902">
        <ele>41</ele>
        <time>2019-10-17T11:55:21.000Z</time>
      </trkpt>
      <trkpt lat="47.27107" lon="-1.61896">
        <ele>42</ele>
        <time>2019-10-17T11:55:22.000Z</time>
      </trkpt>
      <trkpt lat="47.27106" lon="-1.61891">
        <ele>42</ele>
        <time>2019-10-17T11:55:23.000Z</time>
      </trkpt>
      <trkpt lat="47.27105" lon="-1.61885">
        <ele>42</ele>
        <time>2019-10-17T11:55:24.000Z</time>
      </trkpt>
      <trkpt lat="47.27106" lon="-1.6188">
        <ele>43</ele>
        <time>2019-10-17T11:55:25.000Z</time>
      </trkpt>
      <trkpt lat="47.27106" lon="-1.61878">
        <ele>43</ele>
        <time>2019-10-17T11:55:26.000Z</time>
      </trkpt>
      <trkpt lat="47.27108" lon="-1.61876">
        <ele>44</ele>
        <time>2019-10-17T11:55:27.000Z</time>
      </trkpt>
      <trkpt lat="47.27108" lon="-1.61873">
        <ele>44</ele>
        <time>2019-10-17T11:55:28.000Z</time>
      </trkpt>
      <trkpt lat="47.27107" lon="-1.61869">
        <ele>44</ele>
        <time>2019-10-17T11:55:29.000Z</time>
      </trkpt>
      <trkpt lat="47.27104" lon="-1.61867">
        <ele>44</ele>
        <time>2019-10-17T11:55:30.000Z</time>
      </trkpt>
      <trkpt lat="47.27099" lon="-1.61865">
        <ele>44</ele>
        <time>2019-10-17T11:55:31.000Z</time>
      </trkpt>
      <trkpt lat="47.27095" lon="-1.61865">
        <ele>44</ele>
        <time>2019-10-17T11:55:32.000Z</time>
      </trkpt>
      <trkpt lat="47.2709" lon="-1.61864">
        <ele>44</ele>
        <time>2019-10-17T11:55:33.000Z</time>
      </trkpt>
      <trkpt lat="47.27085" lon="-1.61865">
        <ele>44</ele>
        <time>2019-10-17T11:55:34.000Z</time>
      </trkpt>
      <trkpt lat="47.27081" lon="-1.61865">
        <ele>44</ele>
        <time>2019-10-17T11:55:35.000Z</time>
      </trkpt>
      <trkpt lat="47.27076" lon="-1.61864">
        <ele>44</ele>
        <time>2019-10-17T11:55:36.000Z</time>
      </trkpt>
      <trkpt lat="47.27071" lon="-1.61862">
        <ele>44</ele>
        <time>2019-10-17T11:55:37.000Z</time>
      </trkpt>
      <trkpt lat="47.27067" lon="-1.61858">
        <ele>44</ele>
        <time>2019-10-17T11:55:38.000Z</time>
      </trkpt>
      <trkpt lat="47.27064" lon="-1.61854">
        <ele>44</ele>
        <time>2019-10-17T11:55:39.000Z</time>
      </trkpt>
      <trkpt lat="47.27061" lon="-1.61849">
        <ele>44</ele>
        <time>2019-10-17T11:55:40.000Z</time>
      </trkpt>
      <trkpt lat="47.27057" lon="-1.61845">
        <ele>44</ele>
        <time>2019-10-17T11:55:41.000Z</time>
      </trkpt>
      <trkpt lat="47.27054" lon="-1.61841">
        <ele>44</ele>
        <time>2019-10-17T11:55:42.000Z</time>
      </trkpt>
      <trkpt lat="47.27051" lon="-1.61837">
        <ele>44</ele>
        <time>2019-10-17T11:55:43.000Z</time>
      </trkpt>
      <trkpt lat="47.27048" lon="-1.61833">
        <ele>44</ele>
        <time>2019-10-17T11:55:44.000Z</time>
      </trkpt>
      <trkpt lat="47.27045" lon="-1.61828">
        <ele>44</ele>
        <time>2019-10-17T11:55:45.000Z</time>
      </trkpt>
      <trkpt lat="47.27042" lon="-1.61823">
        <ele>44</ele>
        <time>2019-10-17T11:55:46.000Z</time>
      </trkpt>
      <trkpt lat="47.27039" lon="-1.61817">
        <ele>44</ele>
        <time>2019-10-17T11:55:47.000Z</time>
      </trkpt>
      <trkpt lat="47.27037" lon="-1.61811">
        <ele>44</ele>
        <time>2019-10-17T11:55:48.000Z</time>
      </trkpt>
      <trkpt lat="47.27034" lon="-1.61805">
        <ele>45</ele>
        <time>2019-10-17T11:55:49.000Z</time>
      </trkpt>
      <trkpt lat="47.27032" lon="-1.618">
        <ele>45</ele>
        <time>2019-10-17T11:55:50.000Z</time>
      </trkpt>
      <trkpt lat="47.27028" lon="-1.61795">
        <ele>45</ele>
        <time>2019-10-17T11:55:51.000Z</time>
      </trkpt>
      <trkpt lat="47.27026" lon="-1.6179">
        <ele>45</ele>
        <time>2019-10-17T11:55:52.000Z</time>
      </trkpt>
      <trkpt lat="47.27023" lon="-1.61785">
        <ele>45</ele>
        <time>2019-10-17T11:55:53.000Z</time>
      </trkpt>
      <trkpt lat="47.2702" lon="-1.6178">
        <ele>45</ele>
        <time>2019-10-17T11:55:54.000Z</time>
      </trkpt>
      <trkpt lat="47.27017" lon="-1.61775">
        <ele>45</ele>
        <time>2019-10-17T11:55:55.000Z</time>
      </trkpt>
      <trkpt lat="47.27014" lon="-1.61771">
        <ele>45</ele>
        <time>2019-10-17T11:55:56.000Z</time>
      </trkpt>
      <trkpt lat="47.27011" lon="-1.61766">
        <ele>45</ele>
        <time>2019-10-17T11:55:57.000Z</time>
      </trkpt>
      <trkpt lat="47.27008" lon="-1.61762">
        <ele>45</ele>
        <time>2019-10-17T11:55:58.000Z</time>
      </trkpt>
      <trkpt lat="47.27006" lon="-1.61757">
        <ele>45</ele>
        <time>2019-10-17T11:55:59.000Z</time>
      </trkpt>
      <trkpt lat="47.27003" lon="-1.61753">
        <ele>46</ele>
        <time>2019-10-17T11:56:00.000Z</time>
      </trkpt>
      <trkpt lat="47.27002" lon="-1.61748">
        <ele>46</ele>
        <time>2019-10-17T11:56:01.000Z</time>
      </trkpt>
      <trkpt lat="47.27" lon="-1.61745">
        <ele>46</ele>
        <time>2019-10-17T11:56:02.000Z</time>
      </trkpt>
      <trkpt lat="47.26997" lon="-1.61739">
        <ele>46</ele>
        <time>2019-10-17T11:56:03.000Z</time>
      </trkpt>
      <trkpt lat="47.26995" lon="-1.61734">
        <ele>46</ele>
        <time>2019-10-17T11:56:04.000Z</time>
      </trkpt>
      <trkpt lat="47.26993" lon="-1.6173">
        <ele>46</ele>
        <time>2019-10-17T11:56:05.000Z</time>
      </trkpt>
      <trkpt lat="47.26991" lon="-1.61724">
        <ele>47</ele>
        <time>2019-10-17T11:56:06.000Z</time>
      </trkpt>
      <trkpt lat="47.2699" lon="-1.61719">
        <ele>47</ele>
        <time>2019-10-17T11:56:07.000Z</time>
      </trkpt>
      <trkpt lat="47.26989" lon="-1.61712">
        <ele>47</ele>
        <time>2019-10-17T11:56:08.000Z</time>
      </trkpt>
      <trkpt lat="47.26988" lon="-1.61706">
        <ele>47</ele>
        <time>2019-10-17T11:56:09.000Z</time>
      </trkpt>
      <trkpt lat="47.26987" lon="-1.61698">
        <ele>47</ele>
        <time>2019-10-17T11:56:10.000Z</time>
      </trkpt>
      <trkpt lat="47.26986" lon="-1.61691">
        <ele>47</ele>
        <time>2019-10-17T11:56:11.000Z</time>
      </trkpt>
      <trkpt lat="47.26985" lon="-1.61682">
        <ele>47</ele>
        <time>2019-10-17T11:56:12.000Z</time>
      </trkpt>
      <trkpt lat="47.26984" lon="-1.61673">
        <ele>48</ele>
        <time>2019-10-17T11:56:13.000Z</time>
      </trkpt>
      <trkpt lat="47.26984" lon="-1.61667">
        <ele>47</ele>
        <time>2019-10-17T11:56:14.000Z</time>
      </trkpt>
      <trkpt lat="47.26983" lon="-1.6166">
        <ele>48</ele>
        <time>2019-10-17T11:56:15.000Z</time>
      </trkpt>
      <trkpt lat="47.26983" lon="-1.61654">
        <ele>48</ele>
        <time>2019-10-17T11:56:16.000Z</time>
      </trkpt>
      <trkpt lat="47.26981" lon="-1.61651">
        <ele>47</ele>
        <time>2019-10-17T11:56:17.000Z</time>
      </trkpt>
      <trkpt lat="47.2698" lon="-1.61647">
        <ele>47</ele>
        <time>2019-10-17T11:56:18.000Z</time>
      </trkpt>
      <trkpt lat="47.26979" lon="-1.61642">
        <ele>47</ele>
        <time>2019-10-17T11:56:19.000Z</time>
      </trkpt>
      <trkpt lat="47.26979" lon="-1.61634">
        <ele>47</ele>
        <time>2019-10-17T11:56:20.000Z</time>
      </trkpt>
      <trkpt lat="47.26978" lon="-1.61629">
        <ele>46</ele>
        <time>2019-10-17T11:56:21.000Z</time>
      </trkpt>
      <trkpt lat="47.26978" lon="-1.61622">
        <ele>47</ele>
        <time>2019-10-17T11:56:22.000Z</time>
      </trkpt>
      <trkpt lat="47.26978" lon="-1.61617">
        <ele>47</ele>
        <time>2019-10-17T11:56:23.000Z</time>
      </trkpt>
      <trkpt lat="47.26977" lon="-1.61611">
        <ele>47</ele>
        <time>2019-10-17T11:56:24.000Z</time>
      </trkpt>
      <trkpt lat="47.26977" lon="-1.61605">
        <ele>48</ele>
        <time>2019-10-17T11:56:25.000Z</time>
      </trkpt>
      <trkpt lat="47.26975" lon="-1.61598">
        <ele>48</ele>
        <time>2019-10-17T11:56:26.000Z</time>
      </trkpt>
      <trkpt lat="47.26975" lon="-1.61591">
        <ele>48</ele>
        <time>2019-10-17T11:56:27.000Z</time>
      </trkpt>
      <trkpt lat="47.26974" lon="-1.61584">
        <ele>48</ele>
        <time>2019-10-17T11:56:28.000Z</time>
      </trkpt>
      <trkpt lat="47.26972" lon="-1.61577">
        <ele>48</ele>
        <time>2019-10-17T11:56:29.000Z</time>
      </trkpt>
      <trkpt lat="47.26971" lon="-1.61569">
        <ele>48</ele>
        <time>2019-10-17T11:56:30.000Z</time>
      </trkpt>
      <trkpt lat="47.2697" lon="-1.61563">
        <ele>48</ele>
        <time>2019-10-17T11:56:31.000Z</time>
      </trkpt>
      <trkpt lat="47.26969" lon="-1.61557">
        <ele>48</ele>
        <time>2019-10-17T11:56:32.000Z</time>
      </trkpt>
      <trkpt lat="47.26968" lon="-1.61552">
        <ele>48</ele>
        <time>2019-10-17T11:56:33.000Z</time>
      </trkpt>
      <trkpt lat="47.26968" lon="-1.61545">
        <ele>48</ele>
        <time>2019-10-17T11:56:34.000Z</time>
      </trkpt>
      <trkpt lat="47.26967" lon="-1.61541">
        <ele>49</ele>
        <time>2019-10-17T11:56:35.000Z</time>
      </trkpt>
      <trkpt lat="47.26966" lon="-1.61534">
        <ele>49</ele>
        <time>2019-10-17T11:56:36.000Z</time>
      </trkpt>
      <trkpt lat="47.26965" lon="-1.61526">
        <ele>49</ele>
        <time>2019-10-17T11:56:37.000Z</time>
      </trkpt>
      <trkpt lat="47.26964" lon="-1.61518">
        <ele>49</ele>
        <time>2019-10-17T11:56:38.000Z</time>
      </trkpt>
      <trkpt lat="47.26963" lon="-1.6151">
        <ele>49</ele>
        <time>2019-10-17T11:56:39.000Z</time>
      </trkpt>
      <trkpt lat="47.26962" lon="-1.61505">
        <ele>49</ele>
        <time>2019-10-17T11:56:40.000Z</time>
      </trkpt>
      <trkpt lat="47.26961" lon="-1.61499">
        <ele>49</ele>
        <time>2019-10-17T11:56:41.000Z</time>
      </trkpt>
      <trkpt lat="47.2696" lon="-1.61492">
        <ele>49</ele>
        <time>2019-10-17T11:56:42.000Z</time>
      </trkpt>
      <trkpt lat="47.26959" lon="-1.61486">
        <ele>49</ele>
        <time>2019-10-17T11:56:43.000Z</time>
      </trkpt>
      <trkpt lat="47.26959" lon="-1.61482">
        <ele>49</ele>
        <time>2019-10-17T11:56:44.000Z</time>
      </trkpt>
      <trkpt lat="47.26959" lon="-1.61475">
        <ele>49</ele>
        <time>2019-10-17T11:56:45.000Z</time>
      </trkpt>
      <trkpt lat="47.2696" lon="-1.6147">
        <ele>49</ele>
        <time>2019-10-17T11:56:46.000Z</time>
      </trkpt>
      <trkpt lat="47.26961" lon="-1.61466">
        <ele>48</ele>
        <time>2019-10-17T11:56:47.000Z</time>
      </trkpt>
      <trkpt lat="47.26963" lon="-1.61462">
        <ele>48</ele>
        <time>2019-10-17T11:56:48.000Z</time>
      </trkpt>
      <trkpt lat="47.26965" lon="-1.61458">
        <ele>48</ele>
        <time>2019-10-17T11:56:49.000Z</time>
      </trkpt>
      <trkpt lat="47.26967" lon="-1.61453">
        <ele>48</ele>
        <time>2019-10-17T11:56:50.000Z</time>
      </trkpt>
      <trkpt lat="47.26967" lon="-1.61453">
        <ele>48</ele>
        <time>2019-10-17T11:56:53.000Z</time>
      </trkpt>
      <trkpt lat="47.26967" lon="-1.61453">
        <ele>47</ele>
        <time>2019-10-17T11:56:54.000Z</time>
      </trkpt>
      <trkpt lat="47.26981" lon="-1.61431">
        <ele>47</ele>
        <time>2019-10-17T11:56:55.000Z</time>
      </trkpt>
      <trkpt lat="47.26983" lon="-1.61427">
        <ele>47</ele>
        <time>2019-10-17T11:56:56.000Z</time>
      </trkpt>
      <trkpt lat="47.26985" lon="-1.61421">
        <ele>47</ele>
        <time>2019-10-17T11:56:57.000Z</time>
      </trkpt>
      <trkpt lat="47.26985" lon="-1.61414">
        <ele>48</ele>
        <time>2019-10-17T11:56:58.000Z</time>
      </trkpt>
      <trkpt lat="47.26986" lon="-1.61408">
        <ele>48</ele>
        <time>2019-10-17T11:56:59.000Z</time>
      </trkpt>
      <trkpt lat="47.26985" lon="-1.61401">
        <ele>48</ele>
        <time>2019-10-17T11:57:00.000Z</time>
      </trkpt>
      <trkpt lat="47.26983" lon="-1.61395">
        <ele>47</ele>
        <time>2019-10-17T11:57:01.000Z</time>
      </trkpt>
      <trkpt lat="47.2698" lon="-1.61388">
        <ele>47</ele>
        <time>2019-10-17T11:57:02.000Z</time>
      </trkpt>
      <trkpt lat="47.26977" lon="-1.61383">
        <ele>47</ele>
        <time>2019-10-17T11:57:03.000Z</time>
      </trkpt>
      <trkpt lat="47.26973" lon="-1.61379">
        <ele>47</ele>
        <time>2019-10-17T11:57:04.000Z</time>
      </trkpt>
      <trkpt lat="47.26968" lon="-1.61377">
        <ele>47</ele>
        <time>2019-10-17T11:57:05.000Z</time>
      </trkpt>
      <trkpt lat="47.26964" lon="-1.61375">
        <ele>47</ele>
        <time>2019-10-17T11:57:06.000Z</time>
      </trkpt>
      <trkpt lat="47.26959" lon="-1.61373">
        <ele>47</ele>
        <time>2019-10-17T11:57:07.000Z</time>
      </trkpt>
      <trkpt lat="47.26956" lon="-1.6137">
        <ele>47</ele>
        <time>2019-10-17T11:57:08.000Z</time>
      </trkpt>
      <trkpt lat="47.26952" lon="-1.61365">
        <ele>48</ele>
        <time>2019-10-17T11:57:09.000Z</time>
      </trkpt>
      <trkpt lat="47.26949" lon="-1.6136">
        <ele>48</ele>
        <time>2019-10-17T11:57:10.000Z</time>
      </trkpt>
      <trkpt lat="47.26946" lon="-1.61353">
        <ele>49</ele>
        <time>2019-10-17T11:57:11.000Z</time>
      </trkpt>
      <trkpt lat="47.26944" lon="-1.61346">
        <ele>49</ele>
        <time>2019-10-17T11:57:12.000Z</time>
      </trkpt>
      <trkpt lat="47.26941" lon="-1.61339">
        <ele>51</ele>
        <time>2019-10-17T11:57:13.000Z</time>
      </trkpt>
      <trkpt lat="47.2694" lon="-1.61331">
        <ele>50</ele>
        <time>2019-10-17T11:57:14.000Z</time>
      </trkpt>
      <trkpt lat="47.26938" lon="-1.61324">
        <ele>50</ele>
        <time>2019-10-17T11:57:15.000Z</time>
      </trkpt>
      <trkpt lat="47.26937" lon="-1.61316">
        <ele>49</ele>
        <time>2019-10-17T11:57:16.000Z</time>
      </trkpt>
      <trkpt lat="47.26936" lon="-1.61308">
        <ele>48</ele>
        <time>2019-10-17T11:57:17.000Z</time>
      </trkpt>
      <trkpt lat="47.26935" lon="-1.61301">
        <ele>48</ele>
        <time>2019-10-17T11:57:18.000Z</time>
      </trkpt>
      <trkpt lat="47.26934" lon="-1.61293">
        <ele>48</ele>
        <time>2019-10-17T11:57:19.000Z</time>
      </trkpt>
      <trkpt lat="47.26932" lon="-1.61287">
        <ele>48</ele>
        <time>2019-10-17T11:57:20.000Z</time>
      </trkpt>
      <trkpt lat="47.26931" lon="-1.61279">
        <ele>49</ele>
        <time>2019-10-17T11:57:21.000Z</time>
      </trkpt>
      <trkpt lat="47.2693" lon="-1.61271">
        <ele>49</ele>
        <time>2019-10-17T11:57:22.000Z</time>
      </trkpt>
      <trkpt lat="47.26929" lon="-1.61262">
        <ele>49</ele>
        <time>2019-10-17T11:57:23.000Z</time>
      </trkpt>
      <trkpt lat="47.26928" lon="-1.61253">
        <ele>49</ele>
        <time>2019-10-17T11:57:24.000Z</time>
      </trkpt>
      <trkpt lat="47.26927" lon="-1.61244">
        <ele>50</ele>
        <time>2019-10-17T11:57:25.000Z</time>
      </trkpt>
      <trkpt lat="47.26926" lon="-1.61234">
        <ele>50</ele>
        <time>2019-10-17T11:57:26.000Z</time>
      </trkpt>
      <trkpt lat="47.26925" lon="-1.61225">
        <ele>50</ele>
        <time>2019-10-17T11:57:27.000Z</time>
      </trkpt>
      <trkpt lat="47.26923" lon="-1.61217">
        <ele>51</ele>
        <time>2019-10-17T11:57:28.000Z</time>
      </trkpt>
      <trkpt lat="47.26922" lon="-1.6121">
        <ele>51</ele>
        <time>2019-10-17T11:57:29.000Z</time>
      </trkpt>
      <trkpt lat="47.2692" lon="-1.61202">
        <ele>51</ele>
        <time>2019-10-17T11:57:30.000Z</time>
      </trkpt>
      <trkpt lat="47.26919" lon="-1.61194">
        <ele>51</ele>
        <time>2019-10-17T11:57:31.000Z</time>
      </trkpt>
      <trkpt lat="47.26917" lon="-1.61184">
        <ele>51</ele>
        <time>2019-10-17T11:57:32.000Z</time>
      </trkpt>
      <trkpt lat="47.26916" lon="-1.61176">
        <ele>51</ele>
        <time>2019-10-17T11:57:33.000Z</time>
      </trkpt>
      <trkpt lat="47.26915" lon="-1.61166">
        <ele>51</ele>
        <time>2019-10-17T11:57:34.000Z</time>
      </trkpt>
      <trkpt lat="47.26914" lon="-1.61157">
        <ele>51</ele>
        <time>2019-10-17T11:57:35.000Z</time>
      </trkpt>
      <trkpt lat="47.26914" lon="-1.61147">
        <ele>51</ele>
        <time>2019-10-17T11:57:36.000Z</time>
      </trkpt>
      <trkpt lat="47.26913" lon="-1.61136">
        <ele>52</ele>
        <time>2019-10-17T11:57:37.000Z</time>
      </trkpt>
      <trkpt lat="47.26912" lon="-1.61126">
        <ele>52</ele>
        <time>2019-10-17T11:57:38.000Z</time>
      </trkpt>
      <trkpt lat="47.26911" lon="-1.61116">
        <ele>52</ele>
        <time>2019-10-17T11:57:39.000Z</time>
      </trkpt>
      <trkpt lat="47.26909" lon="-1.61106">
        <ele>52</ele>
        <time>2019-10-17T11:57:40.000Z</time>
      </trkpt>
      <trkpt lat="47.26908" lon="-1.61096">
        <ele>52</ele>
        <time>2019-10-17T11:57:41.000Z</time>
      </trkpt>
      <trkpt lat="47.26907" lon="-1.61086">
        <ele>52</ele>
        <time>2019-10-17T11:57:42.000Z</time>
      </trkpt>
      <trkpt lat="47.26906" lon="-1.61075">
        <ele>53</ele>
        <time>2019-10-17T11:57:43.000Z</time>
      </trkpt>
      <trkpt lat="47.26907" lon="-1.61066">
        <ele>53</ele>
        <time>2019-10-17T11:57:44.000Z</time>
      </trkpt>
      <trkpt lat="47.26909" lon="-1.6106">
        <ele>53</ele>
        <time>2019-10-17T11:57:45.000Z</time>
      </trkpt>
      <trkpt lat="47.26912" lon="-1.61053">
        <ele>53</ele>
        <time>2019-10-17T11:57:46.000Z</time>
      </trkpt>
      <trkpt lat="47.26915" lon="-1.61047">
        <ele>52</ele>
        <time>2019-10-17T11:57:47.000Z</time>
      </trkpt>
      <trkpt lat="47.26919" lon="-1.61041">
        <ele>52</ele>
        <time>2019-10-17T11:57:48.000Z</time>
      </trkpt>
      <trkpt lat="47.26922" lon="-1.61033">
        <ele>52</ele>
        <time>2019-10-17T11:57:49.000Z</time>
      </trkpt>
      <trkpt lat="47.26924" lon="-1.61028">
        <ele>51</ele>
        <time>2019-10-17T11:57:50.000Z</time>
      </trkpt>
      <trkpt lat="47.26926" lon="-1.61022">
        <ele>51</ele>
        <time>2019-10-17T11:57:51.000Z</time>
      </trkpt>
      <trkpt lat="47.2693" lon="-1.61018">
        <ele>51</ele>
        <time>2019-10-17T11:57:52.000Z</time>
      </trkpt>
      <trkpt lat="47.26934" lon="-1.61015">
        <ele>50</ele>
        <time>2019-10-17T11:57:53.000Z</time>
      </trkpt>
      <trkpt lat="47.26939" lon="-1.6101">
        <ele>50</ele>
        <time>2019-10-17T11:57:54.000Z</time>
      </trkpt>
      <trkpt lat="47.26943" lon="-1.61009">
        <ele>50</ele>
        <time>2019-10-17T11:57:55.000Z</time>
      </trkpt>
      <trkpt lat="47.26949" lon="-1.61006">
        <ele>50</ele>
        <time>2019-10-17T11:57:56.000Z</time>
      </trkpt>
      <trkpt lat="47.26954" lon="-1.61001">
        <ele>50</ele>
        <time>2019-10-17T11:57:57.000Z</time>
      </trkpt>
      <trkpt lat="47.26959" lon="-1.60997">
        <ele>49</ele>
        <time>2019-10-17T11:57:58.000Z</time>
      </trkpt>
      <trkpt lat="47.26963" lon="-1.60993">
        <ele>49</ele>
        <time>2019-10-17T11:57:59.000Z</time>
      </trkpt>
      <trkpt lat="47.26969" lon="-1.60987">
        <ele>49</ele>
        <time>2019-10-17T11:58:00.000Z</time>
      </trkpt>
      <trkpt lat="47.26973" lon="-1.60982">
        <ele>49</ele>
        <time>2019-10-17T11:58:01.000Z</time>
      </trkpt>
      <trkpt lat="47.26978" lon="-1.60977">
        <ele>49</ele>
        <time>2019-10-17T11:58:02.000Z</time>
      </trkpt>
      <trkpt lat="47.26983" lon="-1.60971">
        <ele>49</ele>
        <time>2019-10-17T11:58:03.000Z</time>
      </trkpt>
      <trkpt lat="47.26987" lon="-1.60968">
        <ele>49</ele>
        <time>2019-10-17T11:58:04.000Z</time>
      </trkpt>
      <trkpt lat="47.26991" lon="-1.60966">
        <ele>49</ele>
        <time>2019-10-17T11:58:05.000Z</time>
      </trkpt>
      <trkpt lat="47.26995" lon="-1.60965">
        <ele>49</ele>
        <time>2019-10-17T11:58:06.000Z</time>
      </trkpt>
      <trkpt lat="47.26999" lon="-1.60962">
        <ele>49</ele>
        <time>2019-10-17T11:58:07.000Z</time>
      </trkpt>
      <trkpt lat="47.27004" lon="-1.60958">
        <ele>49</ele>
        <time>2019-10-17T11:58:08.000Z</time>
      </trkpt>
      <trkpt lat="47.27009" lon="-1.60952">
        <ele>49</ele>
        <time>2019-10-17T11:58:09.000Z</time>
      </trkpt>
      <trkpt lat="47.27013" lon="-1.60947">
        <ele>49</ele>
        <time>2019-10-17T11:58:10.000Z</time>
      </trkpt>
      <trkpt lat="47.27018" lon="-1.60944">
        <ele>49</ele>
        <time>2019-10-17T11:58:11.000Z</time>
      </trkpt>
      <trkpt lat="47.27022" lon="-1.60939">
        <ele>48</ele>
        <time>2019-10-17T11:58:12.000Z</time>
      </trkpt>
      <trkpt lat="47.27027" lon="-1.60934">
        <ele>48</ele>
        <time>2019-10-17T11:58:13.000Z</time>
      </trkpt>
      <trkpt lat="47.27033" lon="-1.60929">
        <ele>48</ele>
        <time>2019-10-17T11:58:14.000Z</time>
      </trkpt>
      <trkpt lat="47.27038" lon="-1.60923">
        <ele>48</ele>
        <time>2019-10-17T11:58:15.000Z</time>
      </trkpt>
      <trkpt lat="47.27044" lon="-1.60917">
        <ele>48</ele>
        <time>2019-10-17T11:58:16.000Z</time>
      </trkpt>
      <trkpt lat="47.27049" lon="-1.60911">
        <ele>48</ele>
        <time>2019-10-17T11:58:17.000Z</time>
      </trkpt>
      <trkpt lat="47.27054" lon="-1.60904">
        <ele>48</ele>
        <time>2019-10-17T11:58:18.000Z</time>
      </trkpt>
      <trkpt lat="47.27058" lon="-1.609">
        <ele>48</ele>
        <time>2019-10-17T11:58:19.000Z</time>
      </trkpt>
      <trkpt lat="47.27063" lon="-1.60897">
        <ele>48</ele>
        <time>2019-10-17T11:58:20.000Z</time>
      </trkpt>
      <trkpt lat="47.27068" lon="-1.60892">
        <ele>48</ele>
        <time>2019-10-17T11:58:21.000Z</time>
      </trkpt>
      <trkpt lat="47.27074" lon="-1.60889">
        <ele>48</ele>
        <time>2019-10-17T11:58:22.000Z</time>
      </trkpt>
      <trkpt lat="47.27079" lon="-1.60884">
        <ele>48</ele>
        <time>2019-10-17T11:58:23.000Z</time>
      </trkpt>
      <trkpt lat="47.27083" lon="-1.60882">
        <ele>48</ele>
        <time>2019-10-17T11:58:24.000Z</time>
      </trkpt>
      <trkpt lat="47.27087" lon="-1.60878">
        <ele>48</ele>
        <time>2019-10-17T11:58:25.000Z</time>
      </trkpt>
      <trkpt lat="47.27091" lon="-1.60874">
        <ele>48</ele>
        <time>2019-10-17T11:58:26.000Z</time>
      </trkpt>
      <trkpt lat="47.27094" lon="-1.6087">
        <ele>48</ele>
        <time>2019-10-17T11:58:27.000Z</time>
      </trkpt>
      <trkpt lat="47.27097" lon="-1.60867">
        <ele>47</ele>
        <time>2019-10-17T11:58:28.000Z</time>
      </trkpt>
      <trkpt lat="47.27099" lon="-1.60865">
        <ele>47</ele>
        <time>2019-10-17T11:58:29.000Z</time>
      </trkpt>
      <trkpt lat="47.271" lon="-1.60864">
        <ele>47</ele>
        <time>2019-10-17T11:58:30.000Z</time>
      </trkpt>
      <trkpt lat="47.27101" lon="-1.60864">
        <ele>47</ele>
        <time>2019-10-17T11:58:31.000Z</time>
      </trkpt>
      <trkpt lat="47.27102" lon="-1.60865">
        <ele>47</ele>
        <time>2019-10-17T11:58:32.000Z</time>
      </trkpt>
      <trkpt lat="47.27103" lon="-1.60865">
        <ele>47</ele>
        <time>2019-10-17T11:58:33.000Z</time>
      </trkpt>
      <trkpt lat="47.27104" lon="-1.60865">
        <ele>47</ele>
        <time>2019-10-17T11:58:34.000Z</time>
      </trkpt>
      <trkpt lat="47.27105" lon="-1.60864">
        <ele>47</ele>
        <time>2019-10-17T11:58:35.000Z</time>
      </trkpt>
      <trkpt lat="47.27105" lon="-1.60863">
        <ele>47</ele>
        <time>2019-10-17T11:58:36.000Z</time>
      </trkpt>
      <trkpt lat="47.27106" lon="-1.60862">
        <ele>48</ele>
        <time>2019-10-17T11:58:37.000Z</time>
      </trkpt>
      <trkpt lat="47.27107" lon="-1.60861">
        <ele>47</ele>
        <time>2019-10-17T11:58:38.000Z</time>
      </trkpt>
      <trkpt lat="47.27108" lon="-1.60861">
        <ele>48</ele>
        <time>2019-10-17T11:58:39.000Z</time>
      </trkpt>
      <trkpt lat="47.27108" lon="-1.60859">
        <ele>48</ele>
        <time>2019-10-17T11:58:40.000Z</time>
      </trkpt>
      <trkpt lat="47.2711" lon="-1.60857">
        <ele>48</ele>
        <time>2019-10-17T11:58:41.000Z</time>
      </trkpt>
      <trkpt lat="47.27111" lon="-1.60856">
        <ele>48</ele>
        <time>2019-10-17T11:58:42.000Z</time>
      </trkpt>
      <trkpt lat="47.27112" lon="-1.60856">
        <ele>48</ele>
        <time>2019-10-17T11:58:43.000Z</time>
      </trkpt>
      <trkpt lat="47.27114" lon="-1.60855">
        <ele>47</ele>
        <time>2019-10-17T11:58:44.000Z</time>
      </trkpt>
      <trkpt lat="47.27116" lon="-1.60854">
        <ele>47</ele>
        <time>2019-10-17T11:58:45.000Z</time>
      </trkpt>
      <trkpt lat="47.27118" lon="-1.60853">
        <ele>47</ele>
        <time>2019-10-17T11:58:46.000Z</time>
      </trkpt>
      <trkpt lat="47.2712" lon="-1.60852">
        <ele>46</ele>
        <time>2019-10-17T11:58:47.000Z</time>
      </trkpt>
      <trkpt lat="47.27122" lon="-1.60851">
        <ele>46</ele>
        <time>2019-10-17T11:58:48.000Z</time>
      </trkpt>
      <trkpt lat="47.27125" lon="-1.60848">
        <ele>46</ele>
        <time>2019-10-17T11:58:49.000Z</time>
      </trkpt>
      <trkpt lat="47.27128" lon="-1.60845">
        <ele>45</ele>
        <time>2019-10-17T11:58:50.000Z</time>
      </trkpt>
      <trkpt lat="47.27131" lon="-1.60842">
        <ele>45</ele>
        <time>2019-10-17T11:58:51.000Z</time>
      </trkpt>
      <trkpt lat="47.27135" lon="-1.60839">
        <ele>45</ele>
        <time>2019-10-17T11:58:52.000Z</time>
      </trkpt>
      <trkpt lat="47.27138" lon="-1.60834">
        <ele>45</ele>
        <time>2019-10-17T11:58:53.000Z</time>
      </trkpt>
      <trkpt lat="47.2714" lon="-1.60829">
        <ele>45</ele>
        <time>2019-10-17T11:58:54.000Z</time>
      </trkpt>
      <trkpt lat="47.27143" lon="-1.60825">
        <ele>45</ele>
        <time>2019-10-17T11:58:55.000Z</time>
      </trkpt>
      <trkpt lat="47.27145" lon="-1.60822">
        <ele>45</ele>
        <time>2019-10-17T11:58:56.000Z</time>
      </trkpt>
      <trkpt lat="47.27148" lon="-1.60819">
        <ele>45</ele>
        <time>2019-10-17T11:58:57.000Z</time>
      </trkpt>
      <trkpt lat="47.27151" lon="-1.60818">
        <ele>45</ele>
        <time>2019-10-17T11:58:58.000Z</time>
      </trkpt>
      <trkpt lat="47.27154" lon="-1.60815">
        <ele>45</ele>
        <time>2019-10-17T11:58:59.000Z</time>
      </trkpt>
      <trkpt lat="47.27159" lon="-1.60812">
        <ele>45</ele>
        <time>2019-10-17T11:59:00.000Z</time>
      </trkpt>
      <trkpt lat="47.27163" lon="-1.60807">
        <ele>44</ele>
        <time>2019-10-17T11:59:01.000Z</time>
      </trkpt>
      <trkpt lat="47.27168" lon="-1.60803">
        <ele>44</ele>
        <time>2019-10-17T11:59:02.000Z</time>
      </trkpt>
      <trkpt lat="47.27172" lon="-1.608">
        <ele>44</ele>
        <time>2019-10-17T11:59:03.000Z</time>
      </trkpt>
      <trkpt lat="47.27177" lon="-1.60795">
        <ele>44</ele>
        <time>2019-10-17T11:59:04.000Z</time>
      </trkpt>
      <trkpt lat="47.27182" lon="-1.60791">
        <ele>44</ele>
        <time>2019-10-17T11:59:05.000Z</time>
      </trkpt>
      <trkpt lat="47.27187" lon="-1.60787">
        <ele>44</ele>
        <time>2019-10-17T11:59:06.000Z</time>
      </trkpt>
      <trkpt lat="47.27191" lon="-1.60782">
        <ele>44</ele>
        <time>2019-10-17T11:59:07.000Z</time>
      </trkpt>
      <trkpt lat="47.27196" lon="-1.60776">
        <ele>43</ele>
        <time>2019-10-17T11:59:08.000Z</time>
      </trkpt>
      <trkpt lat="47.27201" lon="-1.6077">
        <ele>43</ele>
        <time>2019-10-17T11:59:09.000Z</time>
      </trkpt>
      <trkpt lat="47.27206" lon="-1.60766">
        <ele>43</ele>
        <time>2019-10-17T11:59:10.000Z</time>
      </trkpt>
      <trkpt lat="47.27211" lon="-1.60761">
        <ele>43</ele>
        <time>2019-10-17T11:59:11.000Z</time>
      </trkpt>
      <trkpt lat="47.27216" lon="-1.60757">
        <ele>43</ele>
        <time>2019-10-17T11:59:12.000Z</time>
      </trkpt>
      <trkpt lat="47.27221" lon="-1.60751">
        <ele>43</ele>
        <time>2019-10-17T11:59:13.000Z</time>
      </trkpt>
      <trkpt lat="47.27227" lon="-1.60746">
        <ele>43</ele>
        <time>2019-10-17T11:59:14.000Z</time>
      </trkpt>
      <trkpt lat="47.27232" lon="-1.6074">
        <ele>43</ele>
        <time>2019-10-17T11:59:15.000Z</time>
      </trkpt>
      <trkpt lat="47.27237" lon="-1.60735">
        <ele>43</ele>
        <time>2019-10-17T11:59:16.000Z</time>
      </trkpt>
      <trkpt lat="47.27242" lon="-1.6073">
        <ele>43</ele>
        <time>2019-10-17T11:59:17.000Z</time>
      </trkpt>
      <trkpt lat="47.27246" lon="-1.60725">
        <ele>42</ele>
        <time>2019-10-17T11:59:18.000Z</time>
      </trkpt>
      <trkpt lat="47.2725" lon="-1.60722">
        <ele>42</ele>
        <time>2019-10-17T11:59:19.000Z</time>
      </trkpt>
      <trkpt lat="47.27254" lon="-1.60719">
        <ele>42</ele>
        <time>2019-10-17T11:59:20.000Z</time>
      </trkpt>
      <trkpt lat="47.27257" lon="-1.60716">
        <ele>42</ele>
        <time>2019-10-17T11:59:21.000Z</time>
      </trkpt>
      <trkpt lat="47.27261" lon="-1.60712">
        <ele>42</ele>
        <time>2019-10-17T11:59:22.000Z</time>
      </trkpt>
      <trkpt lat="47.27266" lon="-1.60707">
        <ele>42</ele>
        <time>2019-10-17T11:59:23.000Z</time>
      </trkpt>
      <trkpt lat="47.2727" lon="-1.60702">
        <ele>42</ele>
        <time>2019-10-17T11:59:24.000Z</time>
      </trkpt>
      <trkpt lat="47.27275" lon="-1.60697">
        <ele>41</ele>
        <time>2019-10-17T11:59:25.000Z</time>
      </trkpt>
      <trkpt lat="47.27279" lon="-1.60692">
        <ele>41</ele>
        <time>2019-10-17T11:59:26.000Z</time>
      </trkpt>
      <trkpt lat="47.27283" lon="-1.60689">
        <ele>41</ele>
        <time>2019-10-17T11:59:27.000Z</time>
      </trkpt>
      <trkpt lat="47.27287" lon="-1.60688">
        <ele>41</ele>
        <time>2019-10-17T11:59:28.000Z</time>
      </trkpt>
      <trkpt lat="47.27291" lon="-1.60686">
        <ele>41</ele>
        <time>2019-10-17T11:59:29.000Z</time>
      </trkpt>
      <trkpt lat="47.27296" lon="-1.60684">
        <ele>41</ele>
        <time>2019-10-17T11:59:30.000Z</time>
      </trkpt>
      <trkpt lat="47.27302" lon="-1.60681">
        <ele>41</ele>
        <time>2019-10-17T11:59:31.000Z</time>
      </trkpt>
      <trkpt lat="47.27307" lon="-1.60679">
        <ele>41</ele>
        <time>2019-10-17T11:59:32.000Z</time>
      </trkpt>
      <trkpt lat="47.27312" lon="-1.60676">
        <ele>41</ele>
        <time>2019-10-17T11:59:33.000Z</time>
      </trkpt>
      <trkpt lat="47.27317" lon="-1.60672">
        <ele>41</ele>
        <time>2019-10-17T11:59:34.000Z</time>
      </trkpt>
      <trkpt lat="47.27322" lon="-1.6067">
        <ele>41</ele>
        <time>2019-10-17T11:59:35.000Z</time>
      </trkpt>
      <trkpt lat="47.27327" lon="-1.60665">
        <ele>41</ele>
        <time>2019-10-17T11:59:36.000Z</time>
      </trkpt>
      <trkpt lat="47.27331" lon="-1.60661">
        <ele>41</ele>
        <time>2019-10-17T11:59:37.000Z</time>
      </trkpt>
      <trkpt lat="47.27336" lon="-1.60658">
        <ele>41</ele>
        <time>2019-10-17T11:59:38.000Z</time>
      </trkpt>
      <trkpt lat="47.2734" lon="-1.60653">
        <ele>41</ele>
        <time>2019-10-17T11:59:39.000Z</time>
      </trkpt>
      <trkpt lat="47.27345" lon="-1.60649">
        <ele>41</ele>
        <time>2019-10-17T11:59:40.000Z</time>
      </trkpt>
      <trkpt lat="47.27349" lon="-1.60646">
        <ele>41</ele>
        <time>2019-10-17T11:59:41.000Z</time>
      </trkpt>
      <trkpt lat="47.27354" lon="-1.60644">
        <ele>41</ele>
        <time>2019-10-17T11:59:42.000Z</time>
      </trkpt>
      <trkpt lat="47.27358" lon="-1.6064">
        <ele>41</ele>
        <time>2019-10-17T11:59:43.000Z</time>
      </trkpt>
      <trkpt lat="47.27363" lon="-1.60635">
        <ele>41</ele>
        <time>2019-10-17T11:59:44.000Z</time>
      </trkpt>
      <trkpt lat="47.27367" lon="-1.60631">
        <ele>41</ele>
        <time>2019-10-17T11:59:45.000Z</time>
      </trkpt>
      <trkpt lat="47.2737" lon="-1.60627">
        <ele>41</ele>
        <time>2019-10-17T11:59:46.000Z</time>
      </trkpt>
      <trkpt lat="47.27374" lon="-1.60623">
        <ele>40</ele>
        <time>2019-10-17T11:59:47.000Z</time>
      </trkpt>
      <trkpt lat="47.27378" lon="-1.6062">
        <ele>40</ele>
        <time>2019-10-17T11:59:48.000Z</time>
      </trkpt>
      <trkpt lat="47.27382" lon="-1.60615">
        <ele>41</ele>
        <time>2019-10-17T11:59:49.000Z</time>
      </trkpt>
      <trkpt lat="47.27386" lon="-1.60614">
        <ele>40</ele>
        <time>2019-10-17T11:59:50.000Z</time>
      </trkpt>
      <trkpt lat="47.2739" lon="-1.60611">
        <ele>40</ele>
        <time>2019-10-17T11:59:51.000Z</time>
      </trkpt>
      <trkpt lat="47.27393" lon="-1.60606">
        <ele>40</ele>
        <time>2019-10-17T11:59:52.000Z</time>
      </trkpt>
      <trkpt lat="47.27396" lon="-1.60603">
        <ele>41</ele>
        <time>2019-10-17T11:59:53.000Z</time>
      </trkpt>
      <trkpt lat="47.27401" lon="-1.60601">
        <ele>41</ele>
        <time>2019-10-17T11:59:54.000Z</time>
      </trkpt>
      <trkpt lat="47.27404" lon="-1.60598">
        <ele>40</ele>
        <time>2019-10-17T11:59:55.000Z</time>
      </trkpt>
      <trkpt lat="47.27408" lon="-1.60598">
        <ele>40</ele>
        <time>2019-10-17T11:59:56.000Z</time>
      </trkpt>
      <trkpt lat="47.27411" lon="-1.60599">
        <ele>40</ele>
        <time>2019-10-17T11:59:57.000Z</time>
      </trkpt>
      <trkpt lat="47.27416" lon="-1.60598">
        <ele>40</ele>
        <time>2019-10-17T11:59:58.000Z</time>
      </trkpt>
      <trkpt lat="47.27421" lon="-1.60597">
        <ele>40</ele>
        <time>2019-10-17T11:59:59.000Z</time>
      </trkpt>
      <trkpt lat="47.27427" lon="-1.60596">
        <ele>40</ele>
        <time>2019-10-17T12:00:00.000Z</time>
      </trkpt>
      <trkpt lat="47.27433" lon="-1.60595">
        <ele>39</ele>
        <time>2019-10-17T12:00:01.000Z</time>
      </trkpt>
      <trkpt lat="47.27438" lon="-1.60593">
        <ele>39</ele>
        <time>2019-10-17T12:00:02.000Z</time>
      </trkpt>
      <trkpt lat="47.27443" lon="-1.60592">
        <ele>39</ele>
        <time>2019-10-17T12:00:03.000Z</time>
      </trkpt>
      <trkpt lat="47.27449" lon="-1.60592">
        <ele>39</ele>
        <time>2019-10-17T12:00:04.000Z</time>
      </trkpt>
      <trkpt lat="47.27455" lon="-1.6059">
        <ele>39</ele>
        <time>2019-10-17T12:00:05.000Z</time>
      </trkpt>
      <trkpt lat="47.2746" lon="-1.60587">
        <ele>39</ele>
        <time>2019-10-17T12:00:06.000Z</time>
      </trkpt>
      <trkpt lat="47.27466" lon="-1.60587">
        <ele>39</ele>
        <time>2019-10-17T12:00:07.000Z</time>
      </trkpt>
      <trkpt lat="47.27472" lon="-1.60586">
        <ele>39</ele>
        <time>2019-10-17T12:00:08.000Z</time>
      </trkpt>
      <trkpt lat="47.27478" lon="-1.60586">
        <ele>39</ele>
        <time>2019-10-17T12:00:09.000Z</time>
      </trkpt>
      <trkpt lat="47.27483" lon="-1.60585">
        <ele>39</ele>
        <time>2019-10-17T12:00:10.000Z</time>
      </trkpt>
      <trkpt lat="47.27488" lon="-1.60585">
        <ele>39</ele>
        <time>2019-10-17T12:00:11.000Z</time>
      </trkpt>
      <trkpt lat="47.27488" lon="-1.60585">
        <ele>39</ele>
        <time>2019-10-17T12:00:13.000Z</time>
      </trkpt>
      <trkpt lat="47.27488" lon="-1.60585">
        <ele>39</ele>
        <time>2019-10-17T12:00:14.000Z</time>
      </trkpt>
      <trkpt lat="47.27508" lon="-1.60577">
        <ele>39</ele>
        <time>2019-10-17T12:00:15.000Z</time>
      </trkpt>
      <trkpt lat="47.27513" lon="-1.60574">
        <ele>39</ele>
        <time>2019-10-17T12:00:16.000Z</time>
      </trkpt>
      <trkpt lat="47.27517" lon="-1.60572">
        <ele>39</ele>
        <time>2019-10-17T12:00:17.000Z</time>
      </trkpt>
      <trkpt lat="47.27521" lon="-1.60571">
        <ele>39</ele>
        <time>2019-10-17T12:00:18.000Z</time>
      </trkpt>
      <trkpt lat="47.27525" lon="-1.60569">
        <ele>39</ele>
        <time>2019-10-17T12:00:19.000Z</time>
      </trkpt>
      <trkpt lat="47.2753" lon="-1.60568">
        <ele>39</ele>
        <time>2019-10-17T12:00:20.000Z</time>
      </trkpt>
      <trkpt lat="47.27534" lon="-1.60566">
        <ele>39</ele>
        <time>2019-10-17T12:00:21.000Z</time>
      </trkpt>
      <trkpt lat="47.27539" lon="-1.60565">
        <ele>38</ele>
        <time>2019-10-17T12:00:22.000Z</time>
      </trkpt>
      <trkpt lat="47.27543" lon="-1.60564">
        <ele>38</ele>
        <time>2019-10-17T12:00:23.000Z</time>
      </trkpt>
      <trkpt lat="47.27548" lon="-1.60563">
        <ele>38</ele>
        <time>2019-10-17T12:00:24.000Z</time>
      </trkpt>
      <trkpt lat="47.27553" lon="-1.60562">
        <ele>38</ele>
        <time>2019-10-17T12:00:25.000Z</time>
      </trkpt>
      <trkpt lat="47.27558" lon="-1.60561">
        <ele>38</ele>
        <time>2019-10-17T12:00:26.000Z</time>
      </trkpt>
      <trkpt lat="47.27563" lon="-1.60561">
        <ele>38</ele>
        <time>2019-10-17T12:00:27.000Z</time>
      </trkpt>
      <trkpt lat="47.27569" lon="-1.60561">
        <ele>39</ele>
        <time>2019-10-17T12:00:28.000Z</time>
      </trkpt>
      <trkpt lat="47.27574" lon="-1.60562">
        <ele>39</ele>
        <time>2019-10-17T12:00:29.000Z</time>
      </trkpt>
      <trkpt lat="47.27579" lon="-1.60562">
        <ele>39</ele>
        <time>2019-10-17T12:00:30.000Z</time>
      </trkpt>
      <trkpt lat="47.27583" lon="-1.60563">
        <ele>39</ele>
        <time>2019-10-17T12:00:31.000Z</time>
      </trkpt>
      <trkpt lat="47.27588" lon="-1.60566">
        <ele>39</ele>
        <time>2019-10-17T12:00:32.000Z</time>
      </trkpt>
      <trkpt lat="47.27593" lon="-1.60566">
        <ele>38</ele>
        <time>2019-10-17T12:00:33.000Z</time>
      </trkpt>
      <trkpt lat="47.27599" lon="-1.60569">
        <ele>37</ele>
        <time>2019-10-17T12:00:34.000Z</time>
      </trkpt>
      <trkpt lat="47.27605" lon="-1.6057">
        <ele>37</ele>
        <time>2019-10-17T12:00:35.000Z</time>
      </trkpt>
      <trkpt lat="47.2761" lon="-1.60573">
        <ele>38</ele>
        <time>2019-10-17T12:00:36.000Z</time>
      </trkpt>
      <trkpt lat="47.27614" lon="-1.60572">
        <ele>39</ele>
        <time>2019-10-17T12:00:37.000Z</time>
      </trkpt>
      <trkpt lat="47.27619" lon="-1.60573">
        <ele>39</ele>
        <time>2019-10-17T12:00:38.000Z</time>
      </trkpt>
      <trkpt lat="47.27624" lon="-1.60574">
        <ele>39</ele>
        <time>2019-10-17T12:00:39.000Z</time>
      </trkpt>
      <trkpt lat="47.27629" lon="-1.60573">
        <ele>40</ele>
        <time>2019-10-17T12:00:40.000Z</time>
      </trkpt>
      <trkpt lat="47.27634" lon="-1.6057">
        <ele>41</ele>
        <time>2019-10-17T12:00:41.000Z</time>
      </trkpt>
      <trkpt lat="47.27638" lon="-1.6057">
        <ele>41</ele>
        <time>2019-10-17T12:00:42.000Z</time>
      </trkpt>
      <trkpt lat="47.27643" lon="-1.6057">
        <ele>41</ele>
        <time>2019-10-17T12:00:43.000Z</time>
      </trkpt>
      <trkpt lat="47.27647" lon="-1.6057">
        <ele>42</ele>
        <time>2019-10-17T12:00:44.000Z</time>
      </trkpt>
      <trkpt lat="47.27651" lon="-1.6057">
        <ele>42</ele>
        <time>2019-10-17T12:00:45.000Z</time>
      </trkpt>
      <trkpt lat="47.27655" lon="-1.60569">
        <ele>42</ele>
        <time>2019-10-17T12:00:46.000Z</time>
      </trkpt>
      <trkpt lat="47.27659" lon="-1.60569">
        <ele>42</ele>
        <time>2019-10-17T12:00:47.000Z</time>
      </trkpt>
      <trkpt lat="47.27662" lon="-1.60568">
        <ele>41</ele>
        <time>2019-10-17T12:00:48.000Z</time>
      </trkpt>
      <trkpt lat="47.27665" lon="-1.60567">
        <ele>41</ele>
        <time>2019-10-17T12:00:49.000Z</time>
      </trkpt>
      <trkpt lat="47.27669" lon="-1.60566">
        <ele>41</ele>
        <time>2019-10-17T12:00:50.000Z</time>
      </trkpt>
      <trkpt lat="47.27672" lon="-1.60565">
        <ele>41</ele>
        <time>2019-10-17T12:00:51.000Z</time>
      </trkpt>
      <trkpt lat="47.27675" lon="-1.60563">
        <ele>41</ele>
        <time>2019-10-17T12:00:52.000Z</time>
      </trkpt>
      <trkpt lat="47.27678" lon="-1.60561">
        <ele>40</ele>
        <time>2019-10-17T12:00:53.000Z</time>
      </trkpt>
      <trkpt lat="47.2768" lon="-1.60559">
        <ele>40</ele>
        <time>2019-10-17T12:00:54.000Z</time>
      </trkpt>
      <trkpt lat="47.27681" lon="-1.60556">
        <ele>39</ele>
        <time>2019-10-17T12:00:55.000Z</time>
      </trkpt>
      <trkpt lat="47.27683" lon="-1.60553">
        <ele>38</ele>
        <time>2019-10-17T12:00:56.000Z</time>
      </trkpt>
      <trkpt lat="47.27684" lon="-1.60548">
        <ele>38</ele>
        <time>2019-10-17T12:00:57.000Z</time>
      </trkpt>
      <trkpt lat="47.27685" lon="-1.60543">
        <ele>37</ele>
        <time>2019-10-17T12:00:58.000Z</time>
      </trkpt>
      <trkpt lat="47.27685" lon="-1.60537">
        <ele>37</ele>
        <time>2019-10-17T12:00:59.000Z</time>
      </trkpt>
      <trkpt lat="47.27686" lon="-1.6053">
        <ele>37</ele>
        <time>2019-10-17T12:01:00.000Z</time>
      </trkpt>
      <trkpt lat="47.27686" lon="-1.60523">
        <ele>37</ele>
        <time>2019-10-17T12:01:01.000Z</time>
      </trkpt>
      <trkpt lat="47.27686" lon="-1.60516">
        <ele>36</ele>
        <time>2019-10-17T12:01:02.000Z</time>
      </trkpt>
      <trkpt lat="47.27685" lon="-1.60509">
        <ele>36</ele>
        <time>2019-10-17T12:01:03.000Z</time>
      </trkpt>
      <trkpt lat="47.27684" lon="-1.60501">
        <ele>36</ele>
        <time>2019-10-17T12:01:04.000Z</time>
      </trkpt>
      <trkpt lat="47.27683" lon="-1.60494">
        <ele>36</ele>
        <time>2019-10-17T12:01:05.000Z</time>
      </trkpt>
      <trkpt lat="47.27683" lon="-1.60486">
        <ele>36</ele>
        <time>2019-10-17T12:01:06.000Z</time>
      </trkpt>
      <trkpt lat="47.27682" lon="-1.60478">
        <ele>36</ele>
        <time>2019-10-17T12:01:07.000Z</time>
      </trkpt>
      <trkpt lat="47.27681" lon="-1.6047">
        <ele>36</ele>
        <time>2019-10-17T12:01:08.000Z</time>
      </trkpt>
      <trkpt lat="47.2768" lon="-1.60462">
        <ele>35</ele>
        <time>2019-10-17T12:01:09.000Z</time>
      </trkpt>
      <trkpt lat="47.27679" lon="-1.60453">
        <ele>35</ele>
        <time>2019-10-17T12:01:10.000Z</time>
      </trkpt>
      <trkpt lat="47.27677" lon="-1.60445">
        <ele>35</ele>
        <time>2019-10-17T12:01:11.000Z</time>
      </trkpt>
      <trkpt lat="47.27676" lon="-1.60437">
        <ele>35</ele>
        <time>2019-10-17T12:01:12.000Z</time>
      </trkpt>
      <trkpt lat="47.27675" lon="-1.60428">
        <ele>35</ele>
        <time>2019-10-17T12:01:13.000Z</time>
      </trkpt>
      <trkpt lat="47.27673" lon="-1.6042">
        <ele>35</ele>
        <time>2019-10-17T12:01:14.000Z</time>
      </trkpt>
      <trkpt lat="47.27672" lon="-1.60412">
        <ele>35</ele>
        <time>2019-10-17T12:01:15.000Z</time>
      </trkpt>
      <trkpt lat="47.27671" lon="-1.60404">
        <ele>35</ele>
        <time>2019-10-17T12:01:16.000Z</time>
      </trkpt>
      <trkpt lat="47.2767" lon="-1.60395">
        <ele>35</ele>
        <time>2019-10-17T12:01:17.000Z</time>
      </trkpt>
      <trkpt lat="47.27669" lon="-1.60387">
        <ele>35</ele>
        <time>2019-10-17T12:01:18.000Z</time>
      </trkpt>
      <trkpt lat="47.27668" lon="-1.60379">
        <ele>35</ele>
        <time>2019-10-17T12:01:19.000Z</time>
      </trkpt>
      <trkpt lat="47.27668" lon="-1.60371">
        <ele>35</ele>
        <time>2019-10-17T12:01:20.000Z</time>
      </trkpt>
      <trkpt lat="47.27668" lon="-1.60363">
        <ele>35</ele>
        <time>2019-10-17T12:01:21.000Z</time>
      </trkpt>
      <trkpt lat="47.27667" lon="-1.60355">
        <ele>35</ele>
        <time>2019-10-17T12:01:22.000Z</time>
      </trkpt>
      <trkpt lat="47.27666" lon="-1.60348">
        <ele>35</ele>
        <time>2019-10-17T12:01:23.000Z</time>
      </trkpt>
      <trkpt lat="47.27664" lon="-1.6034">
        <ele>35</ele>
        <time>2019-10-17T12:01:24.000Z</time>
      </trkpt>
      <trkpt lat="47.27663" lon="-1.60333">
        <ele>34</ele>
        <time>2019-10-17T12:01:25.000Z</time>
      </trkpt>
      <trkpt lat="47.27662" lon="-1.60324">
        <ele>34</ele>
        <time>2019-10-17T12:01:26.000Z</time>
      </trkpt>
      <trkpt lat="47.27661" lon="-1.60317">
        <ele>34</ele>
        <time>2019-10-17T12:01:27.000Z</time>
      </trkpt>
      <trkpt lat="47.2766" lon="-1.60309">
        <ele>34</ele>
        <time>2019-10-17T12:01:28.000Z</time>
      </trkpt>
      <trkpt lat="47.27659" lon="-1.603">
        <ele>34</ele>
        <time>2019-10-17T12:01:29.000Z</time>
      </trkpt>
      <trkpt lat="47.27658" lon="-1.60292">
        <ele>34</ele>
        <time>2019-10-17T12:01:30.000Z</time>
      </trkpt>
      <trkpt lat="47.27657" lon="-1.60284">
        <ele>34</ele>
        <time>2019-10-17T12:01:31.000Z</time>
      </trkpt>
      <trkpt lat="47.27657" lon="-1.60275">
        <ele>34</ele>
        <time>2019-10-17T12:01:32.000Z</time>
      </trkpt>
      <trkpt lat="47.27656" lon="-1.60267">
        <ele>35</ele>
        <time>2019-10-17T12:01:33.000Z</time>
      </trkpt>
      <trkpt lat="47.27655" lon="-1.60258">
        <ele>35</ele>
        <time>2019-10-17T12:01:34.000Z</time>
      </trkpt>
      <trkpt lat="47.27654" lon="-1.6025">
        <ele>35</ele>
        <time>2019-10-17T12:01:35.000Z</time>
      </trkpt>
      <trkpt lat="47.27654" lon="-1.60242">
        <ele>35</ele>
        <time>2019-10-17T12:01:36.000Z</time>
      </trkpt>
      <trkpt lat="47.27653" lon="-1.60235">
        <ele>35</ele>
        <time>2019-10-17T12:01:37.000Z</time>
      </trkpt>
      <trkpt lat="47.27653" lon="-1.60227">
        <ele>35</ele>
        <time>2019-10-17T12:01:38.000Z</time>
      </trkpt>
      <trkpt lat="47.27653" lon="-1.6022">
        <ele>36</ele>
        <time>2019-10-17T12:01:39.000Z</time>
      </trkpt>
      <trkpt lat="47.27653" lon="-1.60213">
        <ele>36</ele>
        <time>2019-10-17T12:01:40.000Z</time>
      </trkpt>
      <trkpt lat="47.27653" lon="-1.60206">
        <ele>36</ele>
        <time>2019-10-17T12:01:41.000Z</time>
      </trkpt>
      <trkpt lat="47.27653" lon="-1.602">
        <ele>37</ele>
        <time>2019-10-17T12:01:42.000Z</time>
      </trkpt>
      <trkpt lat="47.27653" lon="-1.60193">
        <ele>37</ele>
        <time>2019-10-17T12:01:43.000Z</time>
      </trkpt>
      <trkpt lat="47.27654" lon="-1.60186">
        <ele>37</ele>
        <time>2019-10-17T12:01:44.000Z</time>
      </trkpt>
      <trkpt lat="47.27654" lon="-1.6018">
        <ele>38</ele>
        <time>2019-10-17T12:01:45.000Z</time>
      </trkpt>
      <trkpt lat="47.27654" lon="-1.60173">
        <ele>38</ele>
        <time>2019-10-17T12:01:46.000Z</time>
      </trkpt>
      <trkpt lat="47.27655" lon="-1.60167">
        <ele>39</ele>
        <time>2019-10-17T12:01:47.000Z</time>
      </trkpt>
      <trkpt lat="47.27655" lon="-1.6016">
        <ele>39</ele>
        <time>2019-10-17T12:01:48.000Z</time>
      </trkpt>
      <trkpt lat="47.27656" lon="-1.60154">
        <ele>39</ele>
        <time>2019-10-17T12:01:49.000Z</time>
      </trkpt>
      <trkpt lat="47.27657" lon="-1.60147">
        <ele>40</ele>
        <time>2019-10-17T12:01:50.000Z</time>
      </trkpt>
      <trkpt lat="47.27657" lon="-1.6014">
        <ele>40</ele>
        <time>2019-10-17T12:01:51.000Z</time>
      </trkpt>
      <trkpt lat="47.27658" lon="-1.60133">
        <ele>40</ele>
        <time>2019-10-17T12:01:52.000Z</time>
      </trkpt>
      <trkpt lat="47.2766" lon="-1.60125">
        <ele>41</ele>
        <time>2019-10-17T12:01:53.000Z</time>
      </trkpt>
      <trkpt lat="47.27661" lon="-1.60118">
        <ele>41</ele>
        <time>2019-10-17T12:01:54.000Z</time>
      </trkpt>
      <trkpt lat="47.27662" lon="-1.60111">
        <ele>41</ele>
        <time>2019-10-17T12:01:55.000Z</time>
      </trkpt>
      <trkpt lat="47.27663" lon="-1.60104">
        <ele>41</ele>
        <time>2019-10-17T12:01:56.000Z</time>
      </trkpt>
      <trkpt lat="47.27665" lon="-1.60098">
        <ele>42</ele>
        <time>2019-10-17T12:01:57.000Z</time>
      </trkpt>
      <trkpt lat="47.27666" lon="-1.60091">
        <ele>42</ele>
        <time>2019-10-17T12:01:58.000Z</time>
      </trkpt>
      <trkpt lat="47.27668" lon="-1.60084">
        <ele>42</ele>
        <time>2019-10-17T12:01:59.000Z</time>
      </trkpt>
      <trkpt lat="47.27669" lon="-1.60078">
        <ele>42</ele>
        <time>2019-10-17T12:02:00.000Z</time>
      </trkpt>
      <trkpt lat="47.27671" lon="-1.60071">
        <ele>42</ele>
        <time>2019-10-17T12:02:01.000Z</time>
      </trkpt>
      <trkpt lat="47.27672" lon="-1.60065">
        <ele>43</ele>
        <time>2019-10-17T12:02:02.000Z</time>
      </trkpt>
      <trkpt lat="47.27674" lon="-1.60059">
        <ele>43</ele>
        <time>2019-10-17T12:02:03.000Z</time>
      </trkpt>
      <trkpt lat="47.27676" lon="-1.60053">
        <ele>43</ele>
        <time>2019-10-17T12:02:04.000Z</time>
      </trkpt>
      <trkpt lat="47.27678" lon="-1.60047">
        <ele>43</ele>
        <time>2019-10-17T12:02:05.000Z</time>
      </trkpt>
      <trkpt lat="47.27679" lon="-1.60041">
        <ele>43</ele>
        <time>2019-10-17T12:02:06.000Z</time>
      </trkpt>
      <trkpt lat="47.27681" lon="-1.60035">
        <ele>43</ele>
        <time>2019-10-17T12:02:07.000Z</time>
      </trkpt>
      <trkpt lat="47.27683" lon="-1.60029">
        <ele>44</ele>
        <time>2019-10-17T12:02:08.000Z</time>
      </trkpt>
      <trkpt lat="47.27685" lon="-1.60023">
        <ele>44</ele>
        <time>2019-10-17T12:02:09.000Z</time>
      </trkpt>
      <trkpt lat="47.27687" lon="-1.60017">
        <ele>44</ele>
        <time>2019-10-17T12:02:10.000Z</time>
      </trkpt>
      <trkpt lat="47.27689" lon="-1.60011">
        <ele>44</ele>
        <time>2019-10-17T12:02:11.000Z</time>
      </trkpt>
      <trkpt lat="47.27691" lon="-1.60004">
        <ele>44</ele>
        <time>2019-10-17T12:02:12.000Z</time>
      </trkpt>
      <trkpt lat="47.27694" lon="-1.59998">
        <ele>45</ele>
        <time>2019-10-17T12:02:13.000Z</time>
      </trkpt>
      <trkpt lat="47.27696" lon="-1.59991">
        <ele>45</ele>
        <time>2019-10-17T12:02:14.000Z</time>
      </trkpt>
      <trkpt lat="47.27698" lon="-1.59985">
        <ele>45</ele>
        <time>2019-10-17T12:02:15.000Z</time>
      </trkpt>
      <trkpt lat="47.277" lon="-1.59978">
        <ele>46</ele>
        <time>2019-10-17T12:02:16.000Z</time>
      </trkpt>
      <trkpt lat="47.27703" lon="-1.59972">
        <ele>46</ele>
        <time>2019-10-17T12:02:17.000Z</time>
      </trkpt>
      <trkpt lat="47.27705" lon="-1.59965">
        <ele>46</ele>
        <time>2019-10-17T12:02:18.000Z</time>
      </trkpt>
      <trkpt lat="47.27708" lon="-1.59958">
        <ele>46</ele>
        <time>2019-10-17T12:02:19.000Z</time>
      </trkpt>
      <trkpt lat="47.2771" lon="-1.59951">
        <ele>47</ele>
        <time>2019-10-17T12:02:20.000Z</time>
      </trkpt>
      <trkpt lat="47.27712" lon="-1.59945">
        <ele>47</ele>
        <time>2019-10-17T12:02:21.000Z</time>
      </trkpt>
      <trkpt lat="47.27715" lon="-1.59938">
        <ele>47</ele>
        <time>2019-10-17T12:02:22.000Z</time>
      </trkpt>
      <trkpt lat="47.27717" lon="-1.59931">
        <ele>47</ele>
        <time>2019-10-17T12:02:23.000Z</time>
      </trkpt>
      <trkpt lat="47.2772" lon="-1.59924">
        <ele>47</ele>
        <time>2019-10-17T12:02:24.000Z</time>
      </trkpt>
      <trkpt lat="47.27723" lon="-1.59917">
        <ele>47</ele>
        <time>2019-10-17T12:02:25.000Z</time>
      </trkpt>
      <trkpt lat="47.27725" lon="-1.5991">
        <ele>48</ele>
        <time>2019-10-17T12:02:26.000Z</time>
      </trkpt>
      <trkpt lat="47.27728" lon="-1.59903">
        <ele>48</ele>
        <time>2019-10-17T12:02:27.000Z</time>
      </trkpt>
      <trkpt lat="47.2773" lon="-1.59895">
        <ele>48</ele>
        <time>2019-10-17T12:02:28.000Z</time>
      </trkpt>
      <trkpt lat="47.27733" lon="-1.59888">
        <ele>48</ele>
        <time>2019-10-17T12:02:29.000Z</time>
      </trkpt>
      <trkpt lat="47.27735" lon="-1.59881">
        <ele>49</ele>
        <time>2019-10-17T12:02:30.000Z</time>
      </trkpt>
      <trkpt lat="47.27738" lon="-1.59873">
        <ele>49</ele>
        <time>2019-10-17T12:02:31.000Z</time>
      </trkpt>
      <trkpt lat="47.2774" lon="-1.59866">
        <ele>49</ele>
        <time>2019-10-17T12:02:32.000Z</time>
      </trkpt>
      <trkpt lat="47.27743" lon="-1.59859">
        <ele>50</ele>
        <time>2019-10-17T12:02:33.000Z</time>
      </trkpt>
      <trkpt lat="47.27745" lon="-1.59851">
        <ele>50</ele>
        <time>2019-10-17T12:02:34.000Z</time>
      </trkpt>
      <trkpt lat="47.27748" lon="-1.59844">
        <ele>50</ele>
        <time>2019-10-17T12:02:35.000Z</time>
      </trkpt>
      <trkpt lat="47.2775" lon="-1.59836">
        <ele>50</ele>
        <time>2019-10-17T12:02:36.000Z</time>
      </trkpt>
      <trkpt lat="47.27753" lon="-1.59828">
        <ele>51</ele>
        <time>2019-10-17T12:02:37.000Z</time>
      </trkpt>
      <trkpt lat="47.27755" lon="-1.59821">
        <ele>51</ele>
        <time>2019-10-17T12:02:38.000Z</time>
      </trkpt>
      <trkpt lat="47.27757" lon="-1.59813">
        <ele>51</ele>
        <time>2019-10-17T12:02:39.000Z</time>
      </trkpt>
      <trkpt lat="47.2776" lon="-1.59806">
        <ele>52</ele>
        <time>2019-10-17T12:02:40.000Z</time>
      </trkpt>
      <trkpt lat="47.27762" lon="-1.59798">
        <ele>52</ele>
        <time>2019-10-17T12:02:41.000Z</time>
      </trkpt>
      <trkpt lat="47.27765" lon="-1.5979">
        <ele>52</ele>
        <time>2019-10-17T12:02:42.000Z</time>
      </trkpt>
      <trkpt lat="47.27768" lon="-1.59783">
        <ele>52</ele>
        <time>2019-10-17T12:02:43.000Z</time>
      </trkpt>
      <trkpt lat="47.27771" lon="-1.59775">
        <ele>53</ele>
        <time>2019-10-17T12:02:44.000Z</time>
      </trkpt>
      <trkpt lat="47.27773" lon="-1.59768">
        <ele>53</ele>
        <time>2019-10-17T12:02:45.000Z</time>
      </trkpt>
      <trkpt lat="47.27776" lon="-1.5976">
        <ele>53</ele>
        <time>2019-10-17T12:02:46.000Z</time>
      </trkpt>
      <trkpt lat="47.27777" lon="-1.59752">
        <ele>53</ele>
        <time>2019-10-17T12:02:47.000Z</time>
      </trkpt>
      <trkpt lat="47.27779" lon="-1.59744">
        <ele>53</ele>
        <time>2019-10-17T12:02:48.000Z</time>
      </trkpt>
      <trkpt lat="47.2778" lon="-1.59736">
        <ele>53</ele>
        <time>2019-10-17T12:02:49.000Z</time>
      </trkpt>
      <trkpt lat="47.27779" lon="-1.59728">
        <ele>53</ele>
        <time>2019-10-17T12:02:50.000Z</time>
      </trkpt>
      <trkpt lat="47.27778" lon="-1.5972">
        <ele>53</ele>
        <time>2019-10-17T12:02:51.000Z</time>
      </trkpt>
      <trkpt lat="47.27776" lon="-1.59713">
        <ele>53</ele>
        <time>2019-10-17T12:02:52.000Z</time>
      </trkpt>
      <trkpt lat="47.27775" lon="-1.59705">
        <ele>53</ele>
        <time>2019-10-17T12:02:53.000Z</time>
      </trkpt>
      <trkpt lat="47.27774" lon="-1.59698">
        <ele>53</ele>
        <time>2019-10-17T12:02:54.000Z</time>
      </trkpt>
      <trkpt lat="47.27773" lon="-1.5969">
        <ele>53</ele>
        <time>2019-10-17T12:02:55.000Z</time>
      </trkpt>
      <trkpt lat="47.27773" lon="-1.59682">
        <ele>53</ele>
        <time>2019-10-17T12:02:56.000Z</time>
      </trkpt>
      <trkpt lat="47.27774" lon="-1.59674">
        <ele>53</ele>
        <time>2019-10-17T12:02:57.000Z</time>
      </trkpt>
      <trkpt lat="47.27776" lon="-1.59666">
        <ele>53</ele>
        <time>2019-10-17T12:02:58.000Z</time>
      </trkpt>
      <trkpt lat="47.27779" lon="-1.59659">
        <ele>53</ele>
        <time>2019-10-17T12:02:59.000Z</time>
      </trkpt>
      <trkpt lat="47.27783" lon="-1.59653">
        <ele>53</ele>
        <time>2019-10-17T12:03:00.000Z</time>
      </trkpt>
      <trkpt lat="47.27788" lon="-1.59649">
        <ele>53</ele>
        <time>2019-10-17T12:03:01.000Z</time>
      </trkpt>
      <trkpt lat="47.27792" lon="-1.59645">
        <ele>53</ele>
        <time>2019-10-17T12:03:02.000Z</time>
      </trkpt>
      <trkpt lat="47.27797" lon="-1.59643">
        <ele>53</ele>
        <time>2019-10-17T12:03:03.000Z</time>
      </trkpt>
      <trkpt lat="47.27803" lon="-1.59641">
        <ele>53</ele>
        <time>2019-10-17T12:03:04.000Z</time>
      </trkpt>
      <trkpt lat="47.27808" lon="-1.59638">
        <ele>53</ele>
        <time>2019-10-17T12:03:05.000Z</time>
      </trkpt>
      <trkpt lat="47.27813" lon="-1.59635">
        <ele>53</ele>
        <time>2019-10-17T12:03:06.000Z</time>
      </trkpt>
      <trkpt lat="47.27817" lon="-1.5963">
        <ele>53</ele>
        <time>2019-10-17T12:03:07.000Z</time>
      </trkpt>
      <trkpt lat="47.27819" lon="-1.59624">
        <ele>53</ele>
        <time>2019-10-17T12:03:08.000Z</time>
      </trkpt>
      <trkpt lat="47.27822" lon="-1.59618">
        <ele>53</ele>
        <time>2019-10-17T12:03:09.000Z</time>
      </trkpt>
      <trkpt lat="47.27825" lon="-1.59611">
        <ele>53</ele>
        <time>2019-10-17T12:03:10.000Z</time>
      </trkpt>
      <trkpt lat="47.27827" lon="-1.59605">
        <ele>53</ele>
        <time>2019-10-17T12:03:11.000Z</time>
      </trkpt>
      <trkpt lat="47.2783" lon="-1.59598">
        <ele>53</ele>
        <time>2019-10-17T12:03:12.000Z</time>
      </trkpt>
      <trkpt lat="47.27832" lon="-1.5959">
        <ele>53</ele>
        <time>2019-10-17T12:03:13.000Z</time>
      </trkpt>
      <trkpt lat="47.27832" lon="-1.59582">
        <ele>52</ele>
        <time>2019-10-17T12:03:14.000Z</time>
      </trkpt>
      <trkpt lat="47.27833" lon="-1.59573">
        <ele>52</ele>
        <time>2019-10-17T12:03:15.000Z</time>
      </trkpt>
      <trkpt lat="47.27835" lon="-1.59565">
        <ele>52</ele>
        <time>2019-10-17T12:03:16.000Z</time>
      </trkpt>
      <trkpt lat="47.27838" lon="-1.59558">
        <ele>52</ele>
        <time>2019-10-17T12:03:17.000Z</time>
      </trkpt>
      <trkpt lat="47.27842" lon="-1.59552">
        <ele>52</ele>
        <time>2019-10-17T12:03:18.000Z</time>
      </trkpt>
      <trkpt lat="47.27846" lon="-1.59547">
        <ele>52</ele>
        <time>2019-10-17T12:03:19.000Z</time>
      </trkpt>
      <trkpt lat="47.27849" lon="-1.59542">
        <ele>52</ele>
        <time>2019-10-17T12:03:20.000Z</time>
      </trkpt>
      <trkpt lat="47.27852" lon="-1.59536">
        <ele>52</ele>
        <time>2019-10-17T12:03:21.000Z</time>
      </trkpt>
      <trkpt lat="47.27856" lon="-1.59529">
        <ele>52</ele>
        <time>2019-10-17T12:03:22.000Z</time>
      </trkpt>
      <trkpt lat="47.27859" lon="-1.59523">
        <ele>52</ele>
        <time>2019-10-17T12:03:23.000Z</time>
      </trkpt>
      <trkpt lat="47.27862" lon="-1.59515">
        <ele>52</ele>
        <time>2019-10-17T12:03:24.000Z</time>
      </trkpt>
      <trkpt lat="47.27865" lon="-1.59508">
        <ele>53</ele>
        <time>2019-10-17T12:03:25.000Z</time>
      </trkpt>
      <trkpt lat="47.27868" lon="-1.595">
        <ele>53</ele>
        <time>2019-10-17T12:03:26.000Z</time>
      </trkpt>
      <trkpt lat="47.27871" lon="-1.59493">
        <ele>53</ele>
        <time>2019-10-17T12:03:27.000Z</time>
      </trkpt>
      <trkpt lat="47.27874" lon="-1.59485">
        <ele>53</ele>
        <time>2019-10-17T12:03:28.000Z</time>
      </trkpt>
      <trkpt lat="47.27877" lon="-1.59477">
        <ele>53</ele>
        <time>2019-10-17T12:03:29.000Z</time>
      </trkpt>
      <trkpt lat="47.27881" lon="-1.59469">
        <ele>53</ele>
        <time>2019-10-17T12:03:30.000Z</time>
      </trkpt>
      <trkpt lat="47.27884" lon="-1.59462">
        <ele>53</ele>
        <time>2019-10-17T12:03:31.000Z</time>
      </trkpt>
      <trkpt lat="47.27887" lon="-1.59454">
        <ele>53</ele>
        <time>2019-10-17T12:03:32.000Z</time>
      </trkpt>
      <trkpt lat="47.2789" lon="-1.59446">
        <ele>53</ele>
        <time>2019-10-17T12:03:33.000Z</time>
      </trkpt>
      <trkpt lat="47.27893" lon="-1.59438">
        <ele>53</ele>
        <time>2019-10-17T12:03:34.000Z</time>
      </trkpt>
      <trkpt lat="47.27897" lon="-1.5943">
        <ele>54</ele>
        <time>2019-10-17T12:03:35.000Z</time>
      </trkpt>
      <trkpt lat="47.279" lon="-1.59423">
        <ele>54</ele>
        <time>2019-10-17T12:03:36.000Z</time>
      </trkpt>
      <trkpt lat="47.27903" lon="-1.59415">
        <ele>54</ele>
        <time>2019-10-17T12:03:37.000Z</time>
      </trkpt>
      <trkpt lat="47.27906" lon="-1.59407">
        <ele>54</ele>
        <time>2019-10-17T12:03:38.000Z</time>
      </trkpt>
      <trkpt lat="47.27909" lon="-1.59399">
        <ele>54</ele>
        <time>2019-10-17T12:03:39.000Z</time>
      </trkpt>
      <trkpt lat="47.27912" lon="-1.59391">
        <ele>55</ele>
        <time>2019-10-17T12:03:40.000Z</time>
      </trkpt>
      <trkpt lat="47.27915" lon="-1.59383">
        <ele>55</ele>
        <time>2019-10-17T12:03:41.000Z</time>
      </trkpt>
      <trkpt lat="47.27919" lon="-1.59375">
        <ele>55</ele>
        <time>2019-10-17T12:03:42.000Z</time>
      </trkpt>
      <trkpt lat="47.27922" lon="-1.59367">
        <ele>55</ele>
        <time>2019-10-17T12:03:43.000Z</time>
      </trkpt>
      <trkpt lat="47.27926" lon="-1.5936">
        <ele>55</ele>
        <time>2019-10-17T12:03:44.000Z</time>
      </trkpt>
      <trkpt lat="47.2793" lon="-1.59352">
        <ele>55</ele>
        <time>2019-10-17T12:03:45.000Z</time>
      </trkpt>
      <trkpt lat="47.27934" lon="-1.59345">
        <ele>56</ele>
        <time>2019-10-17T12:03:46.000Z</time>
      </trkpt>
      <trkpt lat="47.27938" lon="-1.59338">
        <ele>56</ele>
        <time>2019-10-17T12:03:47.000Z</time>
      </trkpt>
      <trkpt lat="47.27942" lon="-1.5933">
        <ele>56</ele>
        <time>2019-10-17T12:03:48.000Z</time>
      </trkpt>
      <trkpt lat="47.27947" lon="-1.59323">
        <ele>56</ele>
        <time>2019-10-17T12:03:49.000Z</time>
      </trkpt>
      <trkpt lat="47.27951" lon="-1.59316">
        <ele>56</ele>
        <time>2019-10-17T12:03:50.000Z</time>
      </trkpt>
      <trkpt lat="47.27955" lon="-1.59309">
        <ele>57</ele>
        <time>2019-10-17T12:03:51.000Z</time>
      </trkpt>
      <trkpt lat="47.2796" lon="-1.59302">
        <ele>57</ele>
        <time>2019-10-17T12:03:52.000Z</time>
      </trkpt>
      <trkpt lat="47.27964" lon="-1.59295">
        <ele>57</ele>
        <time>2019-10-17T12:03:53.000Z</time>
      </trkpt>
      <trkpt lat="47.27969" lon="-1.59288">
        <ele>57</ele>
        <time>2019-10-17T12:03:54.000Z</time>
      </trkpt>
      <trkpt lat="47.27973" lon="-1.59281">
        <ele>57</ele>
        <time>2019-10-17T12:03:55.000Z</time>
      </trkpt>
      <trkpt lat="47.27977" lon="-1.59274">
        <ele>57</ele>
        <time>2019-10-17T12:03:56.000Z</time>
      </trkpt>
      <trkpt lat="47.27982" lon="-1.59268">
        <ele>57</ele>
        <time>2019-10-17T12:03:57.000Z</time>
      </trkpt>
      <trkpt lat="47.27986" lon="-1.59261">
        <ele>57</ele>
        <time>2019-10-17T12:03:58.000Z</time>
      </trkpt>
      <trkpt lat="47.27991" lon="-1.59254">
        <ele>57</ele>
        <time>2019-10-17T12:03:59.000Z</time>
      </trkpt>
      <trkpt lat="47.27995" lon="-1.59247">
        <ele>57</ele>
        <time>2019-10-17T12:04:00.000Z</time>
      </trkpt>
      <trkpt lat="47.28" lon="-1.59241">
        <ele>57</ele>
        <time>2019-10-17T12:04:01.000Z</time>
      </trkpt>
      <trkpt lat="47.28004" lon="-1.59234">
        <ele>57</ele>
        <time>2019-10-17T12:04:02.000Z</time>
      </trkpt>
      <trkpt lat="47.28009" lon="-1.59227">
        <ele>57</ele>
        <time>2019-10-17T12:04:03.000Z</time>
      </trkpt>
      <trkpt lat="47.28013" lon="-1.5922">
        <ele>57</ele>
        <time>2019-10-17T12:04:04.000Z</time>
      </trkpt>
      <trkpt lat="47.28018" lon="-1.59213">
        <ele>57</ele>
        <time>2019-10-17T12:04:05.000Z</time>
      </trkpt>
      <trkpt lat="47.28023" lon="-1.59206">
        <ele>57</ele>
        <time>2019-10-17T12:04:06.000Z</time>
      </trkpt>
      <trkpt lat="47.28027" lon="-1.592">
        <ele>56</ele>
        <time>2019-10-17T12:04:07.000Z</time>
      </trkpt>
      <trkpt lat="47.28032" lon="-1.59193">
        <ele>56</ele>
        <time>2019-10-17T12:04:08.000Z</time>
      </trkpt>
      <trkpt lat="47.28036" lon="-1.59187">
        <ele>56</ele>
        <time>2019-10-17T12:04:09.000Z</time>
      </trkpt>
      <trkpt lat="47.2804" lon="-1.5918">
        <ele>55</ele>
        <time>2019-10-17T12:04:10.000Z</time>
      </trkpt>
      <trkpt lat="47.28044" lon="-1.59173">
        <ele>55</ele>
        <time>2019-10-17T12:04:11.000Z</time>
      </trkpt>
      <trkpt lat="47.28047" lon="-1.59166">
        <ele>55</ele>
        <time>2019-10-17T12:04:12.000Z</time>
      </trkpt>
      <trkpt lat="47.28049" lon="-1.59158">
        <ele>55</ele>
        <time>2019-10-17T12:04:13.000Z</time>
      </trkpt>
      <trkpt lat="47.28051" lon="-1.5915">
        <ele>54</ele>
        <time>2019-10-17T12:04:14.000Z</time>
      </trkpt>
      <trkpt lat="47.28054" lon="-1.59143">
        <ele>54</ele>
        <time>2019-10-17T12:04:15.000Z</time>
      </trkpt>
      <trkpt lat="47.28057" lon="-1.59136">
        <ele>54</ele>
        <time>2019-10-17T12:04:16.000Z</time>
      </trkpt>
      <trkpt lat="47.28061" lon="-1.5913">
        <ele>54</ele>
        <time>2019-10-17T12:04:17.000Z</time>
      </trkpt>
      <trkpt lat="47.28065" lon="-1.59125">
        <ele>54</ele>
        <time>2019-10-17T12:04:18.000Z</time>
      </trkpt>
      <trkpt lat="47.2807" lon="-1.59121">
        <ele>54</ele>
        <time>2019-10-17T12:04:19.000Z</time>
      </trkpt>
      <trkpt lat="47.28075" lon="-1.59118">
        <ele>54</ele>
        <time>2019-10-17T12:04:20.000Z</time>
      </trkpt>
      <trkpt lat="47.28079" lon="-1.59113">
        <ele>54</ele>
        <time>2019-10-17T12:04:21.000Z</time>
      </trkpt>
      <trkpt lat="47.28084" lon="-1.59108">
        <ele>54</ele>
        <time>2019-10-17T12:04:22.000Z</time>
      </trkpt>
      <trkpt lat="47.28088" lon="-1.59102">
        <ele>53</ele>
        <time>2019-10-17T12:04:23.000Z</time>
      </trkpt>
      <trkpt lat="47.28092" lon="-1.59096">
        <ele>53</ele>
        <time>2019-10-17T12:04:24.000Z</time>
      </trkpt>
      <trkpt lat="47.28097" lon="-1.5909">
        <ele>53</ele>
        <time>2019-10-17T12:04:25.000Z</time>
      </trkpt>
      <trkpt lat="47.28101" lon="-1.59084">
        <ele>53</ele>
        <time>2019-10-17T12:04:26.000Z</time>
      </trkpt>
      <trkpt lat="47.28105" lon="-1.59078">
        <ele>53</ele>
        <time>2019-10-17T12:04:27.000Z</time>
      </trkpt>
      <trkpt lat="47.28109" lon="-1.59071">
        <ele>53</ele>
        <time>2019-10-17T12:04:28.000Z</time>
      </trkpt>
      <trkpt lat="47.28114" lon="-1.59065">
        <ele>53</ele>
        <time>2019-10-17T12:04:29.000Z</time>
      </trkpt>
      <trkpt lat="47.28118" lon="-1.59059">
        <ele>53</ele>
        <time>2019-10-17T12:04:30.000Z</time>
      </trkpt>
      <trkpt lat="47.28123" lon="-1.59052">
        <ele>53</ele>
        <time>2019-10-17T12:04:31.000Z</time>
      </trkpt>
      <trkpt lat="47.28127" lon="-1.59045">
        <ele>53</ele>
        <time>2019-10-17T12:04:32.000Z</time>
      </trkpt>
      <trkpt lat="47.28132" lon="-1.59039">
        <ele>53</ele>
        <time>2019-10-17T12:04:33.000Z</time>
      </trkpt>
      <trkpt lat="47.28137" lon="-1.59032">
        <ele>54</ele>
        <time>2019-10-17T12:04:34.000Z</time>
      </trkpt>
      <trkpt lat="47.28141" lon="-1.59024">
        <ele>54</ele>
        <time>2019-10-17T12:04:35.000Z</time>
      </trkpt>
      <trkpt lat="47.28145" lon="-1.59017">
        <ele>54</ele>
        <time>2019-10-17T12:04:36.000Z</time>
      </trkpt>
      <trkpt lat="47.28149" lon="-1.5901">
        <ele>54</ele>
        <time>2019-10-17T12:04:37.000Z</time>
      </trkpt>
      <trkpt lat="47.28153" lon="-1.59003">
        <ele>54</ele>
        <time>2019-10-17T12:04:38.000Z</time>
      </trkpt>
      <trkpt lat="47.28158" lon="-1.58995">
        <ele>54</ele>
        <time>2019-10-17T12:04:39.000Z</time>
      </trkpt>
      <trkpt lat="47.28162" lon="-1.58988">
        <ele>54</ele>
        <time>2019-10-17T12:04:40.000Z</time>
      </trkpt>
      <trkpt lat="47.28167" lon="-1.58981">
        <ele>53</ele>
        <time>2019-10-17T12:04:41.000Z</time>
      </trkpt>
      <trkpt lat="47.28172" lon="-1.58973">
        <ele>53</ele>
        <time>2019-10-17T12:04:42.000Z</time>
      </trkpt>
      <trkpt lat="47.28177" lon="-1.58965">
        <ele>52</ele>
        <time>2019-10-17T12:04:43.000Z</time>
      </trkpt>
      <trkpt lat="47.28181" lon="-1.58957">
        <ele>52</ele>
        <time>2019-10-17T12:04:44.000Z</time>
      </trkpt>
      <trkpt lat="47.28186" lon="-1.58949">
        <ele>51</ele>
        <time>2019-10-17T12:04:45.000Z</time>
      </trkpt>
      <trkpt lat="47.28191" lon="-1.58941">
        <ele>50</ele>
        <time>2019-10-17T12:04:46.000Z</time>
      </trkpt>
      <trkpt lat="47.28195" lon="-1.58932">
        <ele>50</ele>
        <time>2019-10-17T12:04:47.000Z</time>
      </trkpt>
      <trkpt lat="47.282" lon="-1.58924">
        <ele>49</ele>
        <time>2019-10-17T12:04:48.000Z</time>
      </trkpt>
      <trkpt lat="47.28204" lon="-1.58916">
        <ele>48</ele>
        <time>2019-10-17T12:04:49.000Z</time>
      </trkpt>
      <trkpt lat="47.28209" lon="-1.58907">
        <ele>48</ele>
        <time>2019-10-17T12:04:50.000Z</time>
      </trkpt>
      <trkpt lat="47.28213" lon="-1.58898">
        <ele>47</ele>
        <time>2019-10-17T12:04:51.000Z</time>
      </trkpt>
      <trkpt lat="47.28217" lon="-1.58889">
        <ele>47</ele>
        <time>2019-10-17T12:04:52.000Z</time>
      </trkpt>
      <trkpt lat="47.2822" lon="-1.58882">
        <ele>47</ele>
        <time>2019-10-17T12:04:53.000Z</time>
      </trkpt>
      <trkpt lat="47.28224" lon="-1.58875">
        <ele>46</ele>
        <time>2019-10-17T12:04:54.000Z</time>
      </trkpt>
      <trkpt lat="47.28226" lon="-1.58869">
        <ele>46</ele>
        <time>2019-10-17T12:04:55.000Z</time>
      </trkpt>
      <trkpt lat="47.28226" lon="-1.58864">
        <ele>46</ele>
        <time>2019-10-17T12:04:56.000Z</time>
      </trkpt>
      <trkpt lat="47.28225" lon="-1.58859">
        <ele>45</ele>
        <time>2019-10-17T12:04:57.000Z</time>
      </trkpt>
      <trkpt lat="47.28222" lon="-1.58855">
        <ele>45</ele>
        <time>2019-10-17T12:04:58.000Z</time>
      </trkpt>
      <trkpt lat="47.28218" lon="-1.58851">
        <ele>45</ele>
        <time>2019-10-17T12:04:59.000Z</time>
      </trkpt>
      <trkpt lat="47.28215" lon="-1.58848">
        <ele>45</ele>
        <time>2019-10-17T12:05:00.000Z</time>
      </trkpt>
      <trkpt lat="47.28211" lon="-1.58844">
        <ele>45</ele>
        <time>2019-10-17T12:05:01.000Z</time>
      </trkpt>
      <trkpt lat="47.28206" lon="-1.5884">
        <ele>44</ele>
        <time>2019-10-17T12:05:02.000Z</time>
      </trkpt>
      <trkpt lat="47.28202" lon="-1.58836">
        <ele>44</ele>
        <time>2019-10-17T12:05:03.000Z</time>
      </trkpt>
      <trkpt lat="47.28198" lon="-1.58832">
        <ele>44</ele>
        <time>2019-10-17T12:05:04.000Z</time>
      </trkpt>
      <trkpt lat="47.28193" lon="-1.58828">
        <ele>44</ele>
        <time>2019-10-17T12:05:05.000Z</time>
      </trkpt>
      <trkpt lat="47.28188" lon="-1.58824">
        <ele>44</ele>
        <time>2019-10-17T12:05:06.000Z</time>
      </trkpt>
      <trkpt lat="47.28183" lon="-1.58821">
        <ele>44</ele>
        <time>2019-10-17T12:05:07.000Z</time>
      </trkpt>
      <trkpt lat="47.28177" lon="-1.58819">
        <ele>44</ele>
        <time>2019-10-17T12:05:08.000Z</time>
      </trkpt>
      <trkpt lat="47.28172" lon="-1.58816">
        <ele>44</ele>
        <time>2019-10-17T12:05:09.000Z</time>
      </trkpt>
      <trkpt lat="47.28166" lon="-1.58814">
        <ele>44</ele>
        <time>2019-10-17T12:05:10.000Z</time>
      </trkpt>
      <trkpt lat="47.28161" lon="-1.58811">
        <ele>44</ele>
        <time>2019-10-17T12:05:11.000Z</time>
      </trkpt>
      <trkpt lat="47.28156" lon="-1.58808">
        <ele>44</ele>
        <time>2019-10-17T12:05:12.000Z</time>
      </trkpt>
      <trkpt lat="47.2815" lon="-1.58804">
        <ele>44</ele>
        <time>2019-10-17T12:05:13.000Z</time>
      </trkpt>
      <trkpt lat="47.28146" lon="-1.58799">
        <ele>44</ele>
        <time>2019-10-17T12:05:14.000Z</time>
      </trkpt>
      <trkpt lat="47.28143" lon="-1.58792">
        <ele>44</ele>
        <time>2019-10-17T12:05:15.000Z</time>
      </trkpt>
      <trkpt lat="47.28142" lon="-1.58784">
        <ele>44</ele>
        <time>2019-10-17T12:05:16.000Z</time>
      </trkpt>
      <trkpt lat="47.28141" lon="-1.58776">
        <ele>45</ele>
        <time>2019-10-17T12:05:17.000Z</time>
      </trkpt>
      <trkpt lat="47.2814" lon="-1.58768">
        <ele>45</ele>
        <time>2019-10-17T12:05:18.000Z</time>
      </trkpt>
      <trkpt lat="47.28141" lon="-1.5876">
        <ele>45</ele>
        <time>2019-10-17T12:05:19.000Z</time>
      </trkpt>
      <trkpt lat="47.28142" lon="-1.58752">
        <ele>45</ele>
        <time>2019-10-17T12:05:20.000Z</time>
      </trkpt>
      <trkpt lat="47.28144" lon="-1.58744">
        <ele>45</ele>
        <time>2019-10-17T12:05:21.000Z</time>
      </trkpt>
      <trkpt lat="47.28147" lon="-1.58736">
        <ele>45</ele>
        <time>2019-10-17T12:05:22.000Z</time>
      </trkpt>
      <trkpt lat="47.28149" lon="-1.58728">
        <ele>45</ele>
        <time>2019-10-17T12:05:23.000Z</time>
      </trkpt>
      <trkpt lat="47.28152" lon="-1.58721">
        <ele>45</ele>
        <time>2019-10-17T12:05:24.000Z</time>
      </trkpt>
      <trkpt lat="47.28155" lon="-1.58713">
        <ele>46</ele>
        <time>2019-10-17T12:05:25.000Z</time>
      </trkpt>
      <trkpt lat="47.28158" lon="-1.58706">
        <ele>46</ele>
        <time>2019-10-17T12:05:26.000Z</time>
      </trkpt>
      <trkpt lat="47.28161" lon="-1.58699">
        <ele>46</ele>
        <time>2019-10-17T12:05:27.000Z</time>
      </trkpt>
      <trkpt lat="47.28163" lon="-1.58692">
        <ele>46</ele>
        <time>2019-10-17T12:05:28.000Z</time>
      </trkpt>
      <trkpt lat="47.28166" lon="-1.58685">
        <ele>46</ele>
        <time>2019-10-17T12:05:29.000Z</time>
      </trkpt>
      <trkpt lat="47.28169" lon="-1.58679">
        <ele>46</ele>
        <time>2019-10-17T12:05:30.000Z</time>
      </trkpt>
      <trkpt lat="47.28172" lon="-1.58672">
        <ele>46</ele>
        <time>2019-10-17T12:05:31.000Z</time>
      </trkpt>
      <trkpt lat="47.28173" lon="-1.58666">
        <ele>46</ele>
        <time>2019-10-17T12:05:32.000Z</time>
      </trkpt>
      <trkpt lat="47.28172" lon="-1.5866">
        <ele>46</ele>
        <time>2019-10-17T12:05:33.000Z</time>
      </trkpt>
      <trkpt lat="47.28169" lon="-1.58656">
        <ele>46</ele>
        <time>2019-10-17T12:05:34.000Z</time>
      </trkpt>
      <trkpt lat="47.28166" lon="-1.58655">
        <ele>47</ele>
        <time>2019-10-17T12:05:35.000Z</time>
      </trkpt>
      <trkpt lat="47.28161" lon="-1.58654">
        <ele>47</ele>
        <time>2019-10-17T12:05:36.000Z</time>
      </trkpt>
      <trkpt lat="47.28157" lon="-1.58653">
        <ele>47</ele>
        <time>2019-10-17T12:05:37.000Z</time>
      </trkpt>
      <trkpt lat="47.28153" lon="-1.58653">
        <ele>47</ele>
        <time>2019-10-17T12:05:38.000Z</time>
      </trkpt>
      <trkpt lat="47.28148" lon="-1.58652">
        <ele>47</ele>
        <time>2019-10-17T12:05:39.000Z</time>
      </trkpt>
      <trkpt lat="47.28144" lon="-1.58651">
        <ele>48</ele>
        <time>2019-10-17T12:05:40.000Z</time>
      </trkpt>
      <trkpt lat="47.28139" lon="-1.5865">
        <ele>48</ele>
        <time>2019-10-17T12:05:41.000Z</time>
      </trkpt>
      <trkpt lat="47.28134" lon="-1.5865">
        <ele>48</ele>
        <time>2019-10-17T12:05:42.000Z</time>
      </trkpt>
      <trkpt lat="47.2813" lon="-1.58649">
        <ele>48</ele>
        <time>2019-10-17T12:05:43.000Z</time>
      </trkpt>
      <trkpt lat="47.28125" lon="-1.58648">
        <ele>48</ele>
        <time>2019-10-17T12:05:44.000Z</time>
      </trkpt>
      <trkpt lat="47.2812" lon="-1.58647">
        <ele>48</ele>
        <time>2019-10-17T12:05:45.000Z</time>
      </trkpt>
      <trkpt lat="47.28115" lon="-1.58647">
        <ele>48</ele>
        <time>2019-10-17T12:05:46.000Z</time>
      </trkpt>
      <trkpt lat="47.2811" lon="-1.58646">
        <ele>48</ele>
        <time>2019-10-17T12:05:47.000Z</time>
      </trkpt>
      <trkpt lat="47.28105" lon="-1.58645">
        <ele>48</ele>
        <time>2019-10-17T12:05:48.000Z</time>
      </trkpt>
      <trkpt lat="47.28099" lon="-1.58645">
        <ele>48</ele>
        <time>2019-10-17T12:05:49.000Z</time>
      </trkpt>
      <trkpt lat="47.28094" lon="-1.58644">
        <ele>48</ele>
        <time>2019-10-17T12:05:50.000Z</time>
      </trkpt>
      <trkpt lat="47.28088" lon="-1.58643">
        <ele>48</ele>
        <time>2019-10-17T12:05:51.000Z</time>
      </trkpt>
      <trkpt lat="47.28083" lon="-1.58642">
        <ele>48</ele>
        <time>2019-10-17T12:05:52.000Z</time>
      </trkpt>
      <trkpt lat="47.28077" lon="-1.58641">
        <ele>48</ele>
        <time>2019-10-17T12:05:53.000Z</time>
      </trkpt>
      <trkpt lat="47.28072" lon="-1.5864">
        <ele>48</ele>
        <time>2019-10-17T12:05:54.000Z</time>
      </trkpt>
      <trkpt lat="47.28066" lon="-1.5864">
        <ele>48</ele>
        <time>2019-10-17T12:05:55.000Z</time>
      </trkpt>
      <trkpt lat="47.28061" lon="-1.58639">
        <ele>48</ele>
        <time>2019-10-17T12:05:56.000Z</time>
      </trkpt>
      <trkpt lat="47.28056" lon="-1.58638">
        <ele>48</ele>
        <time>2019-10-17T12:05:57.000Z</time>
      </trkpt>
      <trkpt lat="47.2805" lon="-1.58638">
        <ele>48</ele>
        <time>2019-10-17T12:05:58.000Z</time>
      </trkpt>
      <trkpt lat="47.28045" lon="-1.58637">
        <ele>48</ele>
        <time>2019-10-17T12:05:59.000Z</time>
      </trkpt>
      <trkpt lat="47.2804" lon="-1.58636">
        <ele>48</ele>
        <time>2019-10-17T12:06:00.000Z</time>
      </trkpt>
      <trkpt lat="47.28034" lon="-1.58635">
        <ele>48</ele>
        <time>2019-10-17T12:06:01.000Z</time>
      </trkpt>
      <trkpt lat="47.28029" lon="-1.58634">
        <ele>48</ele>
        <time>2019-10-17T12:06:02.000Z</time>
      </trkpt>
      <trkpt lat="47.28024" lon="-1.58634">
        <ele>48</ele>
        <time>2019-10-17T12:06:03.000Z</time>
      </trkpt>
      <trkpt lat="47.28018" lon="-1.58633">
        <ele>48</ele>
        <time>2019-10-17T12:06:04.000Z</time>
      </trkpt>
      <trkpt lat="47.28013" lon="-1.58633">
        <ele>48</ele>
        <time>2019-10-17T12:06:05.000Z</time>
      </trkpt>
      <trkpt lat="47.28008" lon="-1.58633">
        <ele>48</ele>
        <time>2019-10-17T12:06:06.000Z</time>
      </trkpt>
      <trkpt lat="47.28003" lon="-1.58633">
        <ele>48</ele>
        <time>2019-10-17T12:06:07.000Z</time>
      </trkpt>
      <trkpt lat="47.27999" lon="-1.58634">
        <ele>48</ele>
        <time>2019-10-17T12:06:08.000Z</time>
      </trkpt>
      <trkpt lat="47.27995" lon="-1.58634">
        <ele>48</ele>
        <time>2019-10-17T12:06:09.000Z</time>
      </trkpt>
      <trkpt lat="47.27991" lon="-1.58634">
        <ele>48</ele>
        <time>2019-10-17T12:06:10.000Z</time>
      </trkpt>
      <trkpt lat="47.27986" lon="-1.58634">
        <ele>48</ele>
        <time>2019-10-17T12:06:11.000Z</time>
      </trkpt>
      <trkpt lat="47.27982" lon="-1.58635">
        <ele>48</ele>
        <time>2019-10-17T12:06:12.000Z</time>
      </trkpt>
      <trkpt lat="47.27977" lon="-1.58636">
        <ele>48</ele>
        <time>2019-10-17T12:06:13.000Z</time>
      </trkpt>
      <trkpt lat="47.27972" lon="-1.58636">
        <ele>48</ele>
        <time>2019-10-17T12:06:14.000Z</time>
      </trkpt>
      <trkpt lat="47.27967" lon="-1.58637">
        <ele>48</ele>
        <time>2019-10-17T12:06:15.000Z</time>
      </trkpt>
      <trkpt lat="47.27961" lon="-1.58638">
        <ele>48</ele>
        <time>2019-10-17T12:06:16.000Z</time>
      </trkpt>
      <trkpt lat="47.27956" lon="-1.58638">
        <ele>47</ele>
        <time>2019-10-17T12:06:17.000Z</time>
      </trkpt>
      <trkpt lat="47.2795" lon="-1.58638">
        <ele>47</ele>
        <time>2019-10-17T12:06:18.000Z</time>
      </trkpt>
      <trkpt lat="47.27945" lon="-1.58639">
        <ele>47</ele>
        <time>2019-10-17T12:06:19.000Z</time>
      </trkpt>
      <trkpt lat="47.27939" lon="-1.58639">
        <ele>47</ele>
        <time>2019-10-17T12:06:20.000Z</time>
      </trkpt>
      <trkpt lat="47.27934" lon="-1.58639">
        <ele>47</ele>
        <time>2019-10-17T12:06:21.000Z</time>
      </trkpt>
      <trkpt lat="47.27929" lon="-1.58639">
        <ele>46</ele>
        <time>2019-10-17T12:06:22.000Z</time>
      </trkpt>
      <trkpt lat="47.27924" lon="-1.58637">
        <ele>46</ele>
        <time>2019-10-17T12:06:23.000Z</time>
      </trkpt>
      <trkpt lat="47.27921" lon="-1.58634">
        <ele>46</ele>
        <time>2019-10-17T12:06:24.000Z</time>
      </trkpt>
      <trkpt lat="47.27919" lon="-1.58631">
        <ele>46</ele>
        <time>2019-10-17T12:06:25.000Z</time>
      </trkpt>
      <trkpt lat="47.27919" lon="-1.58626">
        <ele>46</ele>
        <time>2019-10-17T12:06:26.000Z</time>
      </trkpt>
      <trkpt lat="47.27919" lon="-1.58622">
        <ele>46</ele>
        <time>2019-10-17T12:06:27.000Z</time>
      </trkpt>
      <trkpt lat="47.2792" lon="-1.58618">
        <ele>46</ele>
        <time>2019-10-17T12:06:28.000Z</time>
      </trkpt>
      <trkpt lat="47.27921" lon="-1.58614">
        <ele>47</ele>
        <time>2019-10-17T12:06:29.000Z</time>
      </trkpt>
      <trkpt lat="47.2792" lon="-1.58611">
        <ele>47</ele>
        <time>2019-10-17T12:06:30.000Z</time>
      </trkpt>
      <trkpt lat="47.27918" lon="-1.58609">
        <ele>47</ele>
        <time>2019-10-17T12:06:31.000Z</time>
      </trkpt>
      <trkpt lat="47.27916" lon="-1.58608">
        <ele>47</ele>
        <time>2019-10-17T12:06:32.000Z</time>
      </trkpt>
      <trkpt lat="47.27912" lon="-1.58609">
        <ele>47</ele>
        <time>2019-10-17T12:06:33.000Z</time>
      </trkpt>
      <trkpt lat="47.27908" lon="-1.58608">
        <ele>47</ele>
        <time>2019-10-17T12:06:34.000Z</time>
      </trkpt>
      <trkpt lat="47.27904" lon="-1.58607">
        <ele>47</ele>
        <time>2019-10-17T12:06:35.000Z</time>
      </trkpt>
      <trkpt lat="47.27899" lon="-1.58606">
        <ele>47</ele>
        <time>2019-10-17T12:06:36.000Z</time>
      </trkpt>
      <trkpt lat="47.27894" lon="-1.58606">
        <ele>47</ele>
        <time>2019-10-17T12:06:37.000Z</time>
      </trkpt>
      <trkpt lat="47.2789" lon="-1.58606">
        <ele>47</ele>
        <time>2019-10-17T12:06:38.000Z</time>
      </trkpt>
      <trkpt lat="47.27885" lon="-1.58606">
        <ele>47</ele>
        <time>2019-10-17T12:06:39.000Z</time>
      </trkpt>
      <trkpt lat="47.2788" lon="-1.58605">
        <ele>47</ele>
        <time>2019-10-17T12:06:40.000Z</time>
      </trkpt>
      <trkpt lat="47.27876" lon="-1.58604">
        <ele>47</ele>
        <time>2019-10-17T12:06:41.000Z</time>
      </trkpt>
      <trkpt lat="47.27871" lon="-1.58603">
        <ele>47</ele>
        <time>2019-10-17T12:06:42.000Z</time>
      </trkpt>
      <trkpt lat="47.27866" lon="-1.58601">
        <ele>47</ele>
        <time>2019-10-17T12:06:43.000Z</time>
      </trkpt>
      <trkpt lat="47.27861" lon="-1.586">
        <ele>47</ele>
        <time>2019-10-17T12:06:44.000Z</time>
      </trkpt>
      <trkpt lat="47.27857" lon="-1.58598">
        <ele>47</ele>
        <time>2019-10-17T12:06:45.000Z</time>
      </trkpt>
      <trkpt lat="47.27851" lon="-1.58596">
        <ele>47</ele>
        <time>2019-10-17T12:06:46.000Z</time>
      </trkpt>
      <trkpt lat="47.27846" lon="-1.58595">
        <ele>47</ele>
        <time>2019-10-17T12:06:47.000Z</time>
      </trkpt>
      <trkpt lat="47.27841" lon="-1.58594">
        <ele>47</ele>
        <time>2019-10-17T12:06:48.000Z</time>
      </trkpt>
      <trkpt lat="47.27836" lon="-1.58593">
        <ele>47</ele>
        <time>2019-10-17T12:06:49.000Z</time>
      </trkpt>
      <trkpt lat="47.27832" lon="-1.58592">
        <ele>47</ele>
        <time>2019-10-17T12:06:50.000Z</time>
      </trkpt>
      <trkpt lat="47.27827" lon="-1.58592">
        <ele>48</ele>
        <time>2019-10-17T12:06:51.000Z</time>
      </trkpt>
      <trkpt lat="47.27822" lon="-1.58592">
        <ele>48</ele>
        <time>2019-10-17T12:06:52.000Z</time>
      </trkpt>
      <trkpt lat="47.27818" lon="-1.58592">
        <ele>48</ele>
        <time>2019-10-17T12:06:53.000Z</time>
      </trkpt>
      <trkpt lat="47.27813" lon="-1.58591">
        <ele>48</ele>
        <time>2019-10-17T12:06:54.000Z</time>
      </trkpt>
      <trkpt lat="47.27808" lon="-1.5859">
        <ele>48</ele>
        <time>2019-10-17T12:06:55.000Z</time>
      </trkpt>
      <trkpt lat="47.27803" lon="-1.58588">
        <ele>48</ele>
        <time>2019-10-17T12:06:56.000Z</time>
      </trkpt>
      <trkpt lat="47.27798" lon="-1.58587">
        <ele>48</ele>
        <time>2019-10-17T12:06:57.000Z</time>
      </trkpt>
      <trkpt lat="47.27793" lon="-1.58585">
        <ele>48</ele>
        <time>2019-10-17T12:06:58.000Z</time>
      </trkpt>
      <trkpt lat="47.27787" lon="-1.58582">
        <ele>48</ele>
        <time>2019-10-17T12:06:59.000Z</time>
      </trkpt>
      <trkpt lat="47.2778" lon="-1.58579">
        <ele>48</ele>
        <time>2019-10-17T12:07:00.000Z</time>
      </trkpt>
      <trkpt lat="47.27774" lon="-1.58576">
        <ele>48</ele>
        <time>2019-10-17T12:07:01.000Z</time>
      </trkpt>
      <trkpt lat="47.27769" lon="-1.58573">
        <ele>48</ele>
        <time>2019-10-17T12:07:02.000Z</time>
      </trkpt>
      <trkpt lat="47.27763" lon="-1.58569">
        <ele>48</ele>
        <time>2019-10-17T12:07:03.000Z</time>
      </trkpt>
      <trkpt lat="47.27758" lon="-1.58567">
        <ele>48</ele>
        <time>2019-10-17T12:07:04.000Z</time>
      </trkpt>
      <trkpt lat="47.27753" lon="-1.58563">
        <ele>48</ele>
        <time>2019-10-17T12:07:05.000Z</time>
      </trkpt>
      <trkpt lat="47.27749" lon="-1.5856">
        <ele>48</ele>
        <time>2019-10-17T12:07:06.000Z</time>
      </trkpt>
      <trkpt lat="47.27744" lon="-1.58557">
        <ele>48</ele>
        <time>2019-10-17T12:07:07.000Z</time>
      </trkpt>
      <trkpt lat="47.27739" lon="-1.58556">
        <ele>48</ele>
        <time>2019-10-17T12:07:08.000Z</time>
      </trkpt>
      <trkpt lat="47.27734" lon="-1.58556">
        <ele>48</ele>
        <time>2019-10-17T12:07:09.000Z</time>
      </trkpt>
      <trkpt lat="47.27729" lon="-1.58554">
        <ele>48</ele>
        <time>2019-10-17T12:07:10.000Z</time>
      </trkpt>
      <trkpt lat="47.27724" lon="-1.58552">
        <ele>48</ele>
        <time>2019-10-17T12:07:11.000Z</time>
      </trkpt>
      <trkpt lat="47.27719" lon="-1.5855">
        <ele>48</ele>
        <time>2019-10-17T12:07:12.000Z</time>
      </trkpt>
      <trkpt lat="47.27713" lon="-1.58548">
        <ele>48</ele>
        <time>2019-10-17T12:07:13.000Z</time>
      </trkpt>
      <trkpt lat="47.27708" lon="-1.58546">
        <ele>49</ele>
        <time>2019-10-17T12:07:14.000Z</time>
      </trkpt>
      <trkpt lat="47.27702" lon="-1.58545">
        <ele>49</ele>
        <time>2019-10-17T12:07:15.000Z</time>
      </trkpt>
      <trkpt lat="47.27697" lon="-1.58543">
        <ele>48</ele>
        <time>2019-10-17T12:07:16.000Z</time>
      </trkpt>
      <trkpt lat="47.27692" lon="-1.58539">
        <ele>48</ele>
        <time>2019-10-17T12:07:17.000Z</time>
      </trkpt>
      <trkpt lat="47.27687" lon="-1.58536">
        <ele>48</ele>
        <time>2019-10-17T12:07:18.000Z</time>
      </trkpt>
      <trkpt lat="47.27682" lon="-1.58533">
        <ele>48</ele>
        <time>2019-10-17T12:07:19.000Z</time>
      </trkpt>
      <trkpt lat="47.27677" lon="-1.5853">
        <ele>49</ele>
        <time>2019-10-17T12:07:20.000Z</time>
      </trkpt>
      <trkpt lat="47.27673" lon="-1.58527">
        <ele>49</ele>
        <time>2019-10-17T12:07:21.000Z</time>
      </trkpt>
      <trkpt lat="47.27668" lon="-1.58525">
        <ele>49</ele>
        <time>2019-10-17T12:07:22.000Z</time>
      </trkpt>
      <trkpt lat="47.27663" lon="-1.58523">
        <ele>49</ele>
        <time>2019-10-17T12:07:23.000Z</time>
      </trkpt>
      <trkpt lat="47.27658" lon="-1.58522">
        <ele>49</ele>
        <time>2019-10-17T12:07:24.000Z</time>
      </trkpt>
      <trkpt lat="47.27653" lon="-1.58519">
        <ele>49</ele>
        <time>2019-10-17T12:07:25.000Z</time>
      </trkpt>
      <trkpt lat="47.27648" lon="-1.58516">
        <ele>49</ele>
        <time>2019-10-17T12:07:26.000Z</time>
      </trkpt>
      <trkpt lat="47.27642" lon="-1.58513">
        <ele>49</ele>
        <time>2019-10-17T12:07:27.000Z</time>
      </trkpt>
      <trkpt lat="47.27637" lon="-1.5851">
        <ele>49</ele>
        <time>2019-10-17T12:07:28.000Z</time>
      </trkpt>
      <trkpt lat="47.27632" lon="-1.58507">
        <ele>49</ele>
        <time>2019-10-17T12:07:29.000Z</time>
      </trkpt>
      <trkpt lat="47.27626" lon="-1.58504">
        <ele>49</ele>
        <time>2019-10-17T12:07:30.000Z</time>
      </trkpt>
      <trkpt lat="47.2762" lon="-1.58501">
        <ele>49</ele>
        <time>2019-10-17T12:07:31.000Z</time>
      </trkpt>
      <trkpt lat="47.27614" lon="-1.58497">
        <ele>49</ele>
        <time>2019-10-17T12:07:32.000Z</time>
      </trkpt>
      <trkpt lat="47.27608" lon="-1.58495">
        <ele>49</ele>
        <time>2019-10-17T12:07:33.000Z</time>
      </trkpt>
      <trkpt lat="47.27603" lon="-1.58493">
        <ele>49</ele>
        <time>2019-10-17T12:07:34.000Z</time>
      </trkpt>
      <trkpt lat="47.27598" lon="-1.5849">
        <ele>49</ele>
        <time>2019-10-17T12:07:35.000Z</time>
      </trkpt>
      <trkpt lat="47.27593" lon="-1.58488">
        <ele>49</ele>
        <time>2019-10-17T12:07:36.000Z</time>
      </trkpt>
      <trkpt lat="47.27587" lon="-1.58486">
        <ele>49</ele>
        <time>2019-10-17T12:07:37.000Z</time>
      </trkpt>
      <trkpt lat="47.27582" lon="-1.58484">
        <ele>49</ele>
        <time>2019-10-17T12:07:38.000Z</time>
      </trkpt>
      <trkpt lat="47.27576" lon="-1.58482">
        <ele>49</ele>
        <time>2019-10-17T12:07:39.000Z</time>
      </trkpt>
      <trkpt lat="47.27571" lon="-1.5848">
        <ele>49</ele>
        <time>2019-10-17T12:07:40.000Z</time>
      </trkpt>
      <trkpt lat="47.27566" lon="-1.58476">
        <ele>49</ele>
        <time>2019-10-17T12:07:41.000Z</time>
      </trkpt>
      <trkpt lat="47.27561" lon="-1.58474">
        <ele>49</ele>
        <time>2019-10-17T12:07:42.000Z</time>
      </trkpt>
      <trkpt lat="47.27556" lon="-1.58469">
        <ele>49</ele>
        <time>2019-10-17T12:07:43.000Z</time>
      </trkpt>
      <trkpt lat="47.27553" lon="-1.58466">
        <ele>49</ele>
        <time>2019-10-17T12:07:44.000Z</time>
      </trkpt>
      <trkpt lat="47.2755" lon="-1.58461">
        <ele>49</ele>
        <time>2019-10-17T12:07:45.000Z</time>
      </trkpt>
      <trkpt lat="47.27549" lon="-1.58454">
        <ele>49</ele>
        <time>2019-10-17T12:07:46.000Z</time>
      </trkpt>
      <trkpt lat="47.27548" lon="-1.58449">
        <ele>50</ele>
        <time>2019-10-17T12:07:47.000Z</time>
      </trkpt>
      <trkpt lat="47.27548" lon="-1.58443">
        <ele>50</ele>
        <time>2019-10-17T12:07:48.000Z</time>
      </trkpt>
      <trkpt lat="47.27548" lon="-1.58438">
        <ele>50</ele>
        <time>2019-10-17T12:07:49.000Z</time>
      </trkpt>
      <trkpt lat="47.27549" lon="-1.58432">
        <ele>50</ele>
        <time>2019-10-17T12:07:50.000Z</time>
      </trkpt>
      <trkpt lat="47.2755" lon="-1.58426">
        <ele>50</ele>
        <time>2019-10-17T12:07:51.000Z</time>
      </trkpt>
      <trkpt lat="47.27551" lon="-1.5842">
        <ele>50</ele>
        <time>2019-10-17T12:07:52.000Z</time>
      </trkpt>
      <trkpt lat="47.27551" lon="-1.58413">
        <ele>50</ele>
        <time>2019-10-17T12:07:53.000Z</time>
      </trkpt>
      <trkpt lat="47.27553" lon="-1.58407">
        <ele>50</ele>
        <time>2019-10-17T12:07:54.000Z</time>
      </trkpt>
      <trkpt lat="47.27554" lon="-1.584">
        <ele>50</ele>
        <time>2019-10-17T12:07:55.000Z</time>
      </trkpt>
      <trkpt lat="47.27556" lon="-1.58394">
        <ele>50</ele>
        <time>2019-10-17T12:07:56.000Z</time>
      </trkpt>
      <trkpt lat="47.27558" lon="-1.58387">
        <ele>50</ele>
        <time>2019-10-17T12:07:57.000Z</time>
      </trkpt>
      <trkpt lat="47.2756" lon="-1.5838">
        <ele>50</ele>
        <time>2019-10-17T12:07:58.000Z</time>
      </trkpt>
      <trkpt lat="47.27562" lon="-1.58373">
        <ele>50</ele>
        <time>2019-10-17T12:07:59.000Z</time>
      </trkpt>
      <trkpt lat="47.27563" lon="-1.58367">
        <ele>50</ele>
        <time>2019-10-17T12:08:00.000Z</time>
      </trkpt>
      <trkpt lat="47.27565" lon="-1.58359">
        <ele>50</ele>
        <time>2019-10-17T12:08:01.000Z</time>
      </trkpt>
      <trkpt lat="47.27567" lon="-1.58353">
        <ele>50</ele>
        <time>2019-10-17T12:08:02.000Z</time>
      </trkpt>
      <trkpt lat="47.2757" lon="-1.58346">
        <ele>50</ele>
        <time>2019-10-17T12:08:03.000Z</time>
      </trkpt>
      <trkpt lat="47.27572" lon="-1.5834">
        <ele>50</ele>
        <time>2019-10-17T12:08:04.000Z</time>
      </trkpt>
      <trkpt lat="47.27574" lon="-1.58333">
        <ele>50</ele>
        <time>2019-10-17T12:08:05.000Z</time>
      </trkpt>
      <trkpt lat="47.27575" lon="-1.58326">
        <ele>50</ele>
        <time>2019-10-17T12:08:06.000Z</time>
      </trkpt>
      <trkpt lat="47.27577" lon="-1.58319">
        <ele>50</ele>
        <time>2019-10-17T12:08:07.000Z</time>
      </trkpt>
      <trkpt lat="47.27579" lon="-1.58312">
        <ele>50</ele>
        <time>2019-10-17T12:08:08.000Z</time>
      </trkpt>
      <trkpt lat="47.2758" lon="-1.58306">
        <ele>50</ele>
        <time>2019-10-17T12:08:09.000Z</time>
      </trkpt>
      <trkpt lat="47.27583" lon="-1.58299">
        <ele>50</ele>
        <time>2019-10-17T12:08:10.000Z</time>
      </trkpt>
      <trkpt lat="47.27584" lon="-1.58293">
        <ele>50</ele>
        <time>2019-10-17T12:08:11.000Z</time>
      </trkpt>
      <trkpt lat="47.27586" lon="-1.58287">
        <ele>50</ele>
        <time>2019-10-17T12:08:12.000Z</time>
      </trkpt>
      <trkpt lat="47.27587" lon="-1.58279">
        <ele>50</ele>
        <time>2019-10-17T12:08:13.000Z</time>
      </trkpt>
      <trkpt lat="47.27589" lon="-1.58273">
        <ele>50</ele>
        <time>2019-10-17T12:08:14.000Z</time>
      </trkpt>
      <trkpt lat="47.27591" lon="-1.58266">
        <ele>51</ele>
        <time>2019-10-17T12:08:15.000Z</time>
      </trkpt>
      <trkpt lat="47.27593" lon="-1.5826">
        <ele>51</ele>
        <time>2019-10-17T12:08:16.000Z</time>
      </trkpt>
      <trkpt lat="47.27595" lon="-1.58253">
        <ele>51</ele>
        <time>2019-10-17T12:08:17.000Z</time>
      </trkpt>
      <trkpt lat="47.27597" lon="-1.58246">
        <ele>51</ele>
        <time>2019-10-17T12:08:18.000Z</time>
      </trkpt>
      <trkpt lat="47.27599" lon="-1.5824">
        <ele>51</ele>
        <time>2019-10-17T12:08:19.000Z</time>
      </trkpt>
      <trkpt lat="47.27601" lon="-1.58233">
        <ele>51</ele>
        <time>2019-10-17T12:08:20.000Z</time>
      </trkpt>
      <trkpt lat="47.27603" lon="-1.58228">
        <ele>51</ele>
        <time>2019-10-17T12:08:21.000Z</time>
      </trkpt>
      <trkpt lat="47.27604" lon="-1.58222">
        <ele>51</ele>
        <time>2019-10-17T12:08:22.000Z</time>
      </trkpt>
      <trkpt lat="47.27604" lon="-1.58216">
        <ele>51</ele>
        <time>2019-10-17T12:08:23.000Z</time>
      </trkpt>
      <trkpt lat="47.27605" lon="-1.5821">
        <ele>51</ele>
        <time>2019-10-17T12:08:24.000Z</time>
      </trkpt>
      <trkpt lat="47.27606" lon="-1.58204">
        <ele>51</ele>
        <time>2019-10-17T12:08:25.000Z</time>
      </trkpt>
      <trkpt lat="47.27607" lon="-1.58199">
        <ele>51</ele>
        <time>2019-10-17T12:08:26.000Z</time>
      </trkpt>
      <trkpt lat="47.27609" lon="-1.58192">
        <ele>51</ele>
        <time>2019-10-17T12:08:27.000Z</time>
      </trkpt>
      <trkpt lat="47.2761" lon="-1.58185">
        <ele>51</ele>
        <time>2019-10-17T12:08:28.000Z</time>
      </trkpt>
      <trkpt lat="47.27612" lon="-1.5818">
        <ele>51</ele>
        <time>2019-10-17T12:08:29.000Z</time>
      </trkpt>
      <trkpt lat="47.27613" lon="-1.58174">
        <ele>51</ele>
        <time>2019-10-17T12:08:30.000Z</time>
      </trkpt>
      <trkpt lat="47.27615" lon="-1.58167">
        <ele>51</ele>
        <time>2019-10-17T12:08:31.000Z</time>
      </trkpt>
      <trkpt lat="47.27617" lon="-1.5816">
        <ele>51</ele>
        <time>2019-10-17T12:08:32.000Z</time>
      </trkpt>
      <trkpt lat="47.27619" lon="-1.58155">
        <ele>51</ele>
        <time>2019-10-17T12:08:33.000Z</time>
      </trkpt>
      <trkpt lat="47.2762" lon="-1.5815">
        <ele>51</ele>
        <time>2019-10-17T12:08:34.000Z</time>
      </trkpt>
      <trkpt lat="47.27622" lon="-1.58144">
        <ele>51</ele>
        <time>2019-10-17T12:08:35.000Z</time>
      </trkpt>
      <trkpt lat="47.27624" lon="-1.58138">
        <ele>50</ele>
        <time>2019-10-17T12:08:36.000Z</time>
      </trkpt>
      <trkpt lat="47.27626" lon="-1.58131">
        <ele>50</ele>
        <time>2019-10-17T12:08:37.000Z</time>
      </trkpt>
      <trkpt lat="47.27628" lon="-1.58124">
        <ele>50</ele>
        <time>2019-10-17T12:08:38.000Z</time>
      </trkpt>
      <trkpt lat="47.2763" lon="-1.58116">
        <ele>50</ele>
        <time>2019-10-17T12:08:39.000Z</time>
      </trkpt>
      <trkpt lat="47.27632" lon="-1.58109">
        <ele>50</ele>
        <time>2019-10-17T12:08:40.000Z</time>
      </trkpt>
      <trkpt lat="47.27634" lon="-1.58101">
        <ele>49</ele>
        <time>2019-10-17T12:08:41.000Z</time>
      </trkpt>
      <trkpt lat="47.27636" lon="-1.58093">
        <ele>49</ele>
        <time>2019-10-17T12:08:42.000Z</time>
      </trkpt>
      <trkpt lat="47.27638" lon="-1.58086">
        <ele>49</ele>
        <time>2019-10-17T12:08:43.000Z</time>
      </trkpt>
      <trkpt lat="47.27641" lon="-1.58078">
        <ele>49</ele>
        <time>2019-10-17T12:08:44.000Z</time>
      </trkpt>
      <trkpt lat="47.27644" lon="-1.58071">
        <ele>49</ele>
        <time>2019-10-17T12:08:45.000Z</time>
      </trkpt>
      <trkpt lat="47.27646" lon="-1.58064">
        <ele>49</ele>
        <time>2019-10-17T12:08:46.000Z</time>
      </trkpt>
      <trkpt lat="47.27649" lon="-1.58056">
        <ele>48</ele>
        <time>2019-10-17T12:08:47.000Z</time>
      </trkpt>
      <trkpt lat="47.27651" lon="-1.58049">
        <ele>48</ele>
        <time>2019-10-17T12:08:48.000Z</time>
      </trkpt>
      <trkpt lat="47.27653" lon="-1.58041">
        <ele>48</ele>
        <time>2019-10-17T12:08:49.000Z</time>
      </trkpt>
      <trkpt lat="47.27656" lon="-1.58033">
        <ele>48</ele>
        <time>2019-10-17T12:08:50.000Z</time>
      </trkpt>
      <trkpt lat="47.27658" lon="-1.58025">
        <ele>48</ele>
        <time>2019-10-17T12:08:51.000Z</time>
      </trkpt>
      <trkpt lat="47.2766" lon="-1.58017">
        <ele>48</ele>
        <time>2019-10-17T12:08:52.000Z</time>
      </trkpt>
      <trkpt lat="47.27663" lon="-1.58009">
        <ele>48</ele>
        <time>2019-10-17T12:08:53.000Z</time>
      </trkpt>
      <trkpt lat="47.27665" lon="-1.58">
        <ele>48</ele>
        <time>2019-10-17T12:08:54.000Z</time>
      </trkpt>
      <trkpt lat="47.27668" lon="-1.57991">
        <ele>48</ele>
        <time>2019-10-17T12:08:55.000Z</time>
      </trkpt>
      <trkpt lat="47.27671" lon="-1.57983">
        <ele>48</ele>
        <time>2019-10-17T12:08:56.000Z</time>
      </trkpt>
      <trkpt lat="47.27674" lon="-1.57976">
        <ele>47</ele>
        <time>2019-10-17T12:08:57.000Z</time>
      </trkpt>
      <trkpt lat="47.27678" lon="-1.57969">
        <ele>47</ele>
        <time>2019-10-17T12:08:58.000Z</time>
      </trkpt>
      <trkpt lat="47.27682" lon="-1.57963">
        <ele>47</ele>
        <time>2019-10-17T12:08:59.000Z</time>
      </trkpt>
      <trkpt lat="47.27686" lon="-1.57957">
        <ele>47</ele>
        <time>2019-10-17T12:09:00.000Z</time>
      </trkpt>
      <trkpt lat="47.27691" lon="-1.5795">
        <ele>46</ele>
        <time>2019-10-17T12:09:01.000Z</time>
      </trkpt>
      <trkpt lat="47.27696" lon="-1.57944">
        <ele>46</ele>
        <time>2019-10-17T12:09:02.000Z</time>
      </trkpt>
      <trkpt lat="47.277" lon="-1.57938">
        <ele>46</ele>
        <time>2019-10-17T12:09:03.000Z</time>
      </trkpt>
      <trkpt lat="47.27705" lon="-1.57932">
        <ele>45</ele>
        <time>2019-10-17T12:09:04.000Z</time>
      </trkpt>
      <trkpt lat="47.27709" lon="-1.57926">
        <ele>45</ele>
        <time>2019-10-17T12:09:05.000Z</time>
      </trkpt>
      <trkpt lat="47.27713" lon="-1.57921">
        <ele>44</ele>
        <time>2019-10-17T12:09:06.000Z</time>
      </trkpt>
      <trkpt lat="47.27717" lon="-1.57916">
        <ele>44</ele>
        <time>2019-10-17T12:09:07.000Z</time>
      </trkpt>
      <trkpt lat="47.27722" lon="-1.57911">
        <ele>44</ele>
        <time>2019-10-17T12:09:08.000Z</time>
      </trkpt>
      <trkpt lat="47.27726" lon="-1.57906">
        <ele>43</ele>
        <time>2019-10-17T12:09:09.000Z</time>
      </trkpt>
      <trkpt lat="47.2773" lon="-1.57901">
        <ele>43</ele>
        <time>2019-10-17T12:09:10.000Z</time>
      </trkpt>
      <trkpt lat="47.27735" lon="-1.57896">
        <ele>43</ele>
        <time>2019-10-17T12:09:11.000Z</time>
      </trkpt>
      <trkpt lat="47.27738" lon="-1.57891">
        <ele>42</ele>
        <time>2019-10-17T12:09:12.000Z</time>
      </trkpt>
      <trkpt lat="47.27742" lon="-1.57887">
        <ele>42</ele>
        <time>2019-10-17T12:09:13.000Z</time>
      </trkpt>
      <trkpt lat="47.27745" lon="-1.57882">
        <ele>42</ele>
        <time>2019-10-17T12:09:14.000Z</time>
      </trkpt>
      <trkpt lat="47.27749" lon="-1.57878">
        <ele>41</ele>
        <time>2019-10-17T12:09:15.000Z</time>
      </trkpt>
      <trkpt lat="47.27753" lon="-1.57873">
        <ele>41</ele>
        <time>2019-10-17T12:09:16.000Z</time>
      </trkpt>
      <trkpt lat="47.27757" lon="-1.57867">
        <ele>41</ele>
        <time>2019-10-17T12:09:17.000Z</time>
      </trkpt>
      <trkpt lat="47.27761" lon="-1.57862">
        <ele>41</ele>
        <time>2019-10-17T12:09:18.000Z</time>
      </trkpt>
      <trkpt lat="47.27764" lon="-1.57857">
        <ele>40</ele>
        <time>2019-10-17T12:09:19.000Z</time>
      </trkpt>
      <trkpt lat="47.27768" lon="-1.57852">
        <ele>40</ele>
        <time>2019-10-17T12:09:20.000Z</time>
      </trkpt>
      <trkpt lat="47.27772" lon="-1.57847">
        <ele>40</ele>
        <time>2019-10-17T12:09:21.000Z</time>
      </trkpt>
      <trkpt lat="47.27775" lon="-1.57843">
        <ele>39</ele>
        <time>2019-10-17T12:09:22.000Z</time>
      </trkpt>
      <trkpt lat="47.27779" lon="-1.57839">
        <ele>39</ele>
        <time>2019-10-17T12:09:23.000Z</time>
      </trkpt>
      <trkpt lat="47.27783" lon="-1.57835">
        <ele>39</ele>
        <time>2019-10-17T12:09:24.000Z</time>
      </trkpt>
      <trkpt lat="47.27787" lon="-1.57832">
        <ele>39</ele>
        <time>2019-10-17T12:09:25.000Z</time>
      </trkpt>
      <trkpt lat="47.2779" lon="-1.57827">
        <ele>38</ele>
        <time>2019-10-17T12:09:26.000Z</time>
      </trkpt>
      <trkpt lat="47.27794" lon="-1.57824">
        <ele>38</ele>
        <time>2019-10-17T12:09:27.000Z</time>
      </trkpt>
      <trkpt lat="47.27797" lon="-1.5782">
        <ele>38</ele>
        <time>2019-10-17T12:09:28.000Z</time>
      </trkpt>
      <trkpt lat="47.278" lon="-1.57815">
        <ele>38</ele>
        <time>2019-10-17T12:09:29.000Z</time>
      </trkpt>
      <trkpt lat="47.27805" lon="-1.57811">
        <ele>38</ele>
        <time>2019-10-17T12:09:30.000Z</time>
      </trkpt>
      <trkpt lat="47.27809" lon="-1.57806">
        <ele>37</ele>
        <time>2019-10-17T12:09:31.000Z</time>
      </trkpt>
      <trkpt lat="47.27811" lon="-1.578">
        <ele>37</ele>
        <time>2019-10-17T12:09:32.000Z</time>
      </trkpt>
      <trkpt lat="47.27812" lon="-1.57796">
        <ele>37</ele>
        <time>2019-10-17T12:09:33.000Z</time>
      </trkpt>
      <trkpt lat="47.27812" lon="-1.57791">
        <ele>37</ele>
        <time>2019-10-17T12:09:34.000Z</time>
      </trkpt>
      <trkpt lat="47.27811" lon="-1.57787">
        <ele>37</ele>
        <time>2019-10-17T12:09:35.000Z</time>
      </trkpt>
      <trkpt lat="47.2781" lon="-1.57782">
        <ele>37</ele>
        <time>2019-10-17T12:09:36.000Z</time>
      </trkpt>
      <trkpt lat="47.2781" lon="-1.57782">
        <ele>37</ele>
        <time>2019-10-17T12:09:38.000Z</time>
      </trkpt>
      <trkpt lat="47.2781" lon="-1.57782">
        <ele>37</ele>
        <time>2019-10-17T12:09:39.000Z</time>
      </trkpt>
      <trkpt lat="47.27804" lon="-1.57763">
        <ele>37</ele>
        <time>2019-10-17T12:09:40.000Z</time>
      </trkpt>
      <trkpt lat="47.27802" lon="-1.57757">
        <ele>37</ele>
        <time>2019-10-17T12:09:41.000Z</time>
      </trkpt>
      <trkpt lat="47.278" lon="-1.57751">
        <ele>38</ele>
        <time>2019-10-17T12:09:42.000Z</time>
      </trkpt>
      <trkpt lat="47.27797" lon="-1.57745">
        <ele>38</ele>
        <time>2019-10-17T12:09:43.000Z</time>
      </trkpt>
      <trkpt lat="47.27795" lon="-1.57739">
        <ele>38</ele>
        <time>2019-10-17T12:09:44.000Z</time>
      </trkpt>
      <trkpt lat="47.27792" lon="-1.57733">
        <ele>39</ele>
        <time>2019-10-17T12:09:45.000Z</time>
      </trkpt>
      <trkpt lat="47.2779" lon="-1.57727">
        <ele>39</ele>
        <time>2019-10-17T12:09:46.000Z</time>
      </trkpt>
      <trkpt lat="47.2779" lon="-1.57727">
        <ele>41</ele>
        <time>2019-10-17T12:09:48.000Z</time>
      </trkpt>
      <trkpt lat="47.2779" lon="-1.57727">
        <ele>41</ele>
        <time>2019-10-17T12:09:49.000Z</time>
      </trkpt>
      <trkpt lat="47.27782" lon="-1.57699">
        <ele>41</ele>
        <time>2019-10-17T12:09:50.000Z</time>
      </trkpt>
      <trkpt lat="47.2778" lon="-1.57691">
        <ele>42</ele>
        <time>2019-10-17T12:09:51.000Z</time>
      </trkpt>
      <trkpt lat="47.27778" lon="-1.57682">
        <ele>42</ele>
        <time>2019-10-17T12:09:52.000Z</time>
      </trkpt>
      <trkpt lat="47.27777" lon="-1.57674">
        <ele>43</ele>
        <time>2019-10-17T12:09:53.000Z</time>
      </trkpt>
      <trkpt lat="47.27776" lon="-1.57665">
        <ele>43</ele>
        <time>2019-10-17T12:09:54.000Z</time>
      </trkpt>
      <trkpt lat="47.27776" lon="-1.57657">
        <ele>44</ele>
        <time>2019-10-17T12:09:55.000Z</time>
      </trkpt>
      <trkpt lat="47.27775" lon="-1.57649">
        <ele>44</ele>
        <time>2019-10-17T12:09:56.000Z</time>
      </trkpt>
      <trkpt lat="47.27775" lon="-1.5764">
        <ele>44</ele>
        <time>2019-10-17T12:09:57.000Z</time>
      </trkpt>
      <trkpt lat="47.27775" lon="-1.57631">
        <ele>44</ele>
        <time>2019-10-17T12:09:58.000Z</time>
      </trkpt>
      <trkpt lat="47.27775" lon="-1.57621">
        <ele>44</ele>
        <time>2019-10-17T12:09:59.000Z</time>
      </trkpt>
      <trkpt lat="47.27775" lon="-1.57612">
        <ele>44</ele>
        <time>2019-10-17T12:10:00.000Z</time>
      </trkpt>
      <trkpt lat="47.27775" lon="-1.57602">
        <ele>44</ele>
        <time>2019-10-17T12:10:01.000Z</time>
      </trkpt>
      <trkpt lat="47.27775" lon="-1.57593">
        <ele>44</ele>
        <time>2019-10-17T12:10:02.000Z</time>
      </trkpt>
      <trkpt lat="47.27776" lon="-1.57583">
        <ele>44</ele>
        <time>2019-10-17T12:10:03.000Z</time>
      </trkpt>
      <trkpt lat="47.27776" lon="-1.57573">
        <ele>44</ele>
        <time>2019-10-17T12:10:04.000Z</time>
      </trkpt>
      <trkpt lat="47.27776" lon="-1.57564">
        <ele>43</ele>
        <time>2019-10-17T12:10:05.000Z</time>
      </trkpt>
      <trkpt lat="47.27776" lon="-1.57554">
        <ele>43</ele>
        <time>2019-10-17T12:10:06.000Z</time>
      </trkpt>
      <trkpt lat="47.27777" lon="-1.57544">
        <ele>43</ele>
        <time>2019-10-17T12:10:07.000Z</time>
      </trkpt>
      <trkpt lat="47.27777" lon="-1.57534">
        <ele>43</ele>
        <time>2019-10-17T12:10:08.000Z</time>
      </trkpt>
      <trkpt lat="47.27777" lon="-1.57525">
        <ele>44</ele>
        <time>2019-10-17T12:10:09.000Z</time>
      </trkpt>
      <trkpt lat="47.27778" lon="-1.57515">
        <ele>44</ele>
        <time>2019-10-17T12:10:10.000Z</time>
      </trkpt>
      <trkpt lat="47.27778" lon="-1.57505">
        <ele>44</ele>
        <time>2019-10-17T12:10:11.000Z</time>
      </trkpt>
      <trkpt lat="47.27778" lon="-1.57495">
        <ele>44</ele>
        <time>2019-10-17T12:10:12.000Z</time>
      </trkpt>
      <trkpt lat="47.27778" lon="-1.57486">
        <ele>45</ele>
        <time>2019-10-17T12:10:13.000Z</time>
      </trkpt>
      <trkpt lat="47.27779" lon="-1.57477">
        <ele>46</ele>
        <time>2019-10-17T12:10:14.000Z</time>
      </trkpt>
      <trkpt lat="47.2778" lon="-1.57468">
        <ele>47</ele>
        <time>2019-10-17T12:10:15.000Z</time>
      </trkpt>
      <trkpt lat="47.27781" lon="-1.57459">
        <ele>47</ele>
        <time>2019-10-17T12:10:16.000Z</time>
      </trkpt>
      <trkpt lat="47.27783" lon="-1.5745">
        <ele>48</ele>
        <time>2019-10-17T12:10:17.000Z</time>
      </trkpt>
      <trkpt lat="47.27783" lon="-1.57441">
        <ele>48</ele>
        <time>2019-10-17T12:10:18.000Z</time>
      </trkpt>
      <trkpt lat="47.27784" lon="-1.57431">
        <ele>48</ele>
        <time>2019-10-17T12:10:19.000Z</time>
      </trkpt>
      <trkpt lat="47.27785" lon="-1.57422">
        <ele>48</ele>
        <time>2019-10-17T12:10:20.000Z</time>
      </trkpt>
      <trkpt lat="47.27785" lon="-1.57412">
        <ele>48</ele>
        <time>2019-10-17T12:10:21.000Z</time>
      </trkpt>
      <trkpt lat="47.27786" lon="-1.57402">
        <ele>48</ele>
        <time>2019-10-17T12:10:22.000Z</time>
      </trkpt>
      <trkpt lat="47.27787" lon="-1.57394">
        <ele>48</ele>
        <time>2019-10-17T12:10:23.000Z</time>
      </trkpt>
      <trkpt lat="47.27789" lon="-1.57386">
        <ele>48</ele>
        <time>2019-10-17T12:10:24.000Z</time>
      </trkpt>
      <trkpt lat="47.27789" lon="-1.57376">
        <ele>48</ele>
        <time>2019-10-17T12:10:25.000Z</time>
      </trkpt>
      <trkpt lat="47.2779" lon="-1.57366">
        <ele>47</ele>
        <time>2019-10-17T12:10:26.000Z</time>
      </trkpt>
      <trkpt lat="47.27791" lon="-1.57356">
        <ele>47</ele>
        <time>2019-10-17T12:10:27.000Z</time>
      </trkpt>
      <trkpt lat="47.27791" lon="-1.57346">
        <ele>47</ele>
        <time>2019-10-17T12:10:28.000Z</time>
      </trkpt>
      <trkpt lat="47.27791" lon="-1.57336">
        <ele>47</ele>
        <time>2019-10-17T12:10:29.000Z</time>
      </trkpt>
      <trkpt lat="47.27792" lon="-1.57326">
        <ele>46</ele>
        <time>2019-10-17T12:10:30.000Z</time>
      </trkpt>
      <trkpt lat="47.27792" lon="-1.57315">
        <ele>46</ele>
        <time>2019-10-17T12:10:31.000Z</time>
      </trkpt>
      <trkpt lat="47.27792" lon="-1.57305">
        <ele>45</ele>
        <time>2019-10-17T12:10:32.000Z</time>
      </trkpt>
      <trkpt lat="47.27792" lon="-1.57295">
        <ele>45</ele>
        <time>2019-10-17T12:10:33.000Z</time>
      </trkpt>
      <trkpt lat="47.27792" lon="-1.57285">
        <ele>45</ele>
        <time>2019-10-17T12:10:34.000Z</time>
      </trkpt>
      <trkpt lat="47.27792" lon="-1.57274">
        <ele>45</ele>
        <time>2019-10-17T12:10:35.000Z</time>
      </trkpt>
      <trkpt lat="47.27792" lon="-1.57264">
        <ele>44</ele>
        <time>2019-10-17T12:10:36.000Z</time>
      </trkpt>
      <trkpt lat="47.27793" lon="-1.57254">
        <ele>44</ele>
        <time>2019-10-17T12:10:37.000Z</time>
      </trkpt>
      <trkpt lat="47.27793" lon="-1.57243">
        <ele>44</ele>
        <time>2019-10-17T12:10:38.000Z</time>
      </trkpt>
      <trkpt lat="47.27793" lon="-1.57233">
        <ele>43</ele>
        <time>2019-10-17T12:10:39.000Z</time>
      </trkpt>
      <trkpt lat="47.27794" lon="-1.57224">
        <ele>43</ele>
        <time>2019-10-17T12:10:40.000Z</time>
      </trkpt>
      <trkpt lat="47.27794" lon="-1.57215">
        <ele>43</ele>
        <time>2019-10-17T12:10:41.000Z</time>
      </trkpt>
      <trkpt lat="47.27797" lon="-1.57207">
        <ele>42</ele>
        <time>2019-10-17T12:10:42.000Z</time>
      </trkpt>
      <trkpt lat="47.278" lon="-1.572">
        <ele>42</ele>
        <time>2019-10-17T12:10:43.000Z</time>
      </trkpt>
      <trkpt lat="47.27805" lon="-1.57196">
        <ele>41</ele>
        <time>2019-10-17T12:10:44.000Z</time>
      </trkpt>
      <trkpt lat="47.2781" lon="-1.57194">
        <ele>41</ele>
        <time>2019-10-17T12:10:45.000Z</time>
      </trkpt>
      <trkpt lat="47.27815" lon="-1.57192">
        <ele>41</ele>
        <time>2019-10-17T12:10:46.000Z</time>
      </trkpt>
      <trkpt lat="47.2782" lon="-1.57191">
        <ele>40</ele>
        <time>2019-10-17T12:10:47.000Z</time>
      </trkpt>
      <trkpt lat="47.27825" lon="-1.57189">
        <ele>40</ele>
        <time>2019-10-17T12:10:48.000Z</time>
      </trkpt>
      <trkpt lat="47.27831" lon="-1.57187">
        <ele>40</ele>
        <time>2019-10-17T12:10:49.000Z</time>
      </trkpt>
      <trkpt lat="47.27836" lon="-1.57186">
        <ele>39</ele>
        <time>2019-10-17T12:10:50.000Z</time>
      </trkpt>
      <trkpt lat="47.27841" lon="-1.57184">
        <ele>39</ele>
        <time>2019-10-17T12:10:51.000Z</time>
      </trkpt>
      <trkpt lat="47.27846" lon="-1.57183">
        <ele>39</ele>
        <time>2019-10-17T12:10:52.000Z</time>
      </trkpt>
      <trkpt lat="47.27851" lon="-1.57181">
        <ele>39</ele>
        <time>2019-10-17T12:10:53.000Z</time>
      </trkpt>
      <trkpt lat="47.27857" lon="-1.57179">
        <ele>38</ele>
        <time>2019-10-17T12:10:54.000Z</time>
      </trkpt>
      <trkpt lat="47.27863" lon="-1.57177">
        <ele>38</ele>
        <time>2019-10-17T12:10:55.000Z</time>
      </trkpt>
      <trkpt lat="47.27869" lon="-1.57176">
        <ele>38</ele>
        <time>2019-10-17T12:10:56.000Z</time>
      </trkpt>
      <trkpt lat="47.27875" lon="-1.57173">
        <ele>38</ele>
        <time>2019-10-17T12:10:57.000Z</time>
      </trkpt>
      <trkpt lat="47.27881" lon="-1.57172">
        <ele>38</ele>
        <time>2019-10-17T12:10:58.000Z</time>
      </trkpt>
      <trkpt lat="47.27888" lon="-1.5717">
        <ele>38</ele>
        <time>2019-10-17T12:10:59.000Z</time>
      </trkpt>
      <trkpt lat="47.27895" lon="-1.57167">
        <ele>37</ele>
        <time>2019-10-17T12:11:00.000Z</time>
      </trkpt>
      <trkpt lat="47.27902" lon="-1.57165">
        <ele>37</ele>
        <time>2019-10-17T12:11:01.000Z</time>
      </trkpt>
      <trkpt lat="47.27908" lon="-1.57162">
        <ele>37</ele>
        <time>2019-10-17T12:11:02.000Z</time>
      </trkpt>
      <trkpt lat="47.27913" lon="-1.57159">
        <ele>37</ele>
        <time>2019-10-17T12:11:03.000Z</time>
      </trkpt>
      <trkpt lat="47.27919" lon="-1.57156">
        <ele>36</ele>
        <time>2019-10-17T12:11:04.000Z</time>
      </trkpt>
      <trkpt lat="47.27923" lon="-1.57154">
        <ele>36</ele>
        <time>2019-10-17T12:11:05.000Z</time>
      </trkpt>
      <trkpt lat="47.27928" lon="-1.57151">
        <ele>36</ele>
        <time>2019-10-17T12:11:06.000Z</time>
      </trkpt>
      <trkpt lat="47.27933" lon="-1.5715">
        <ele>36</ele>
        <time>2019-10-17T12:11:07.000Z</time>
      </trkpt>
      <trkpt lat="47.27939" lon="-1.57147">
        <ele>36</ele>
        <time>2019-10-17T12:11:08.000Z</time>
      </trkpt>
      <trkpt lat="47.27946" lon="-1.57145">
        <ele>35</ele>
        <time>2019-10-17T12:11:09.000Z</time>
      </trkpt>
      <trkpt lat="47.27952" lon="-1.57143">
        <ele>35</ele>
        <time>2019-10-17T12:11:10.000Z</time>
      </trkpt>
      <trkpt lat="47.27957" lon="-1.57141">
        <ele>35</ele>
        <time>2019-10-17T12:11:11.000Z</time>
      </trkpt>
      <trkpt lat="47.27963" lon="-1.57139">
        <ele>35</ele>
        <time>2019-10-17T12:11:12.000Z</time>
      </trkpt>
      <trkpt lat="47.27969" lon="-1.57136">
        <ele>34</ele>
        <time>2019-10-17T12:11:13.000Z</time>
      </trkpt>
      <trkpt lat="47.27975" lon="-1.57132">
        <ele>34</ele>
        <time>2019-10-17T12:11:14.000Z</time>
      </trkpt>
      <trkpt lat="47.27982" lon="-1.57127">
        <ele>34</ele>
        <time>2019-10-17T12:11:15.000Z</time>
      </trkpt>
      <trkpt lat="47.27988" lon="-1.5712">
        <ele>34</ele>
        <time>2019-10-17T12:11:16.000Z</time>
      </trkpt>
      <trkpt lat="47.27994" lon="-1.57113">
        <ele>34</ele>
        <time>2019-10-17T12:11:17.000Z</time>
      </trkpt>
      <trkpt lat="47.28" lon="-1.57106">
        <ele>33</ele>
        <time>2019-10-17T12:11:18.000Z</time>
      </trkpt>
      <trkpt lat="47.28006" lon="-1.57098">
        <ele>33</ele>
        <time>2019-10-17T12:11:19.000Z</time>
      </trkpt>
      <trkpt lat="47.28011" lon="-1.5709">
        <ele>33</ele>
        <time>2019-10-17T12:11:20.000Z</time>
      </trkpt>
      <trkpt lat="47.28016" lon="-1.57081">
        <ele>33</ele>
        <time>2019-10-17T12:11:21.000Z</time>
      </trkpt>
      <trkpt lat="47.28022" lon="-1.57073">
        <ele>33</ele>
        <time>2019-10-17T12:11:22.000Z</time>
      </trkpt>
      <trkpt lat="47.28027" lon="-1.57065">
        <ele>33</ele>
        <time>2019-10-17T12:11:23.000Z</time>
      </trkpt>
      <trkpt lat="47.28032" lon="-1.57057">
        <ele>33</ele>
        <time>2019-10-17T12:11:24.000Z</time>
      </trkpt>
      <trkpt lat="47.28036" lon="-1.57048">
        <ele>33</ele>
        <time>2019-10-17T12:11:25.000Z</time>
      </trkpt>
      <trkpt lat="47.2804" lon="-1.5704">
        <ele>32</ele>
        <time>2019-10-17T12:11:26.000Z</time>
      </trkpt>
      <trkpt lat="47.28045" lon="-1.57031">
        <ele>32</ele>
        <time>2019-10-17T12:11:27.000Z</time>
      </trkpt>
      <trkpt lat="47.28049" lon="-1.57023">
        <ele>32</ele>
        <time>2019-10-17T12:11:28.000Z</time>
      </trkpt>
      <trkpt lat="47.28053" lon="-1.57013">
        <ele>32</ele>
        <time>2019-10-17T12:11:29.000Z</time>
      </trkpt>
      <trkpt lat="47.28057" lon="-1.57003">
        <ele>32</ele>
        <time>2019-10-17T12:11:30.000Z</time>
      </trkpt>
      <trkpt lat="47.2806" lon="-1.56994">
        <ele>32</ele>
        <time>2019-10-17T12:11:31.000Z</time>
      </trkpt>
      <trkpt lat="47.28064" lon="-1.56984">
        <ele>32</ele>
        <time>2019-10-17T12:11:32.000Z</time>
      </trkpt>
      <trkpt lat="47.28068" lon="-1.56974">
        <ele>32</ele>
        <time>2019-10-17T12:11:33.000Z</time>
      </trkpt>
      <trkpt lat="47.28073" lon="-1.56964">
        <ele>31</ele>
        <time>2019-10-17T12:11:34.000Z</time>
      </trkpt>
      <trkpt lat="47.28076" lon="-1.56953">
        <ele>31</ele>
        <time>2019-10-17T12:11:35.000Z</time>
      </trkpt>
      <trkpt lat="47.28079" lon="-1.56943">
        <ele>31</ele>
        <time>2019-10-17T12:11:36.000Z</time>
      </trkpt>
      <trkpt lat="47.28082" lon="-1.56934">
        <ele>31</ele>
        <time>2019-10-17T12:11:37.000Z</time>
      </trkpt>
      <trkpt lat="47.28085" lon="-1.56925">
        <ele>30</ele>
        <time>2019-10-17T12:11:38.000Z</time>
      </trkpt>
      <trkpt lat="47.28088" lon="-1.56917">
        <ele>30</ele>
        <time>2019-10-17T12:11:39.000Z</time>
      </trkpt>
      <trkpt lat="47.2809" lon="-1.56909">
        <ele>30</ele>
        <time>2019-10-17T12:11:40.000Z</time>
      </trkpt>
      <trkpt lat="47.28093" lon="-1.56902">
        <ele>29</ele>
        <time>2019-10-17T12:11:41.000Z</time>
      </trkpt>
      <trkpt lat="47.28094" lon="-1.56896">
        <ele>29</ele>
        <time>2019-10-17T12:11:42.000Z</time>
      </trkpt>
      <trkpt lat="47.28094" lon="-1.56892">
        <ele>29</ele>
        <time>2019-10-17T12:11:43.000Z</time>
      </trkpt>
      <trkpt lat="47.28092" lon="-1.56889">
        <ele>29</ele>
        <time>2019-10-17T12:11:44.000Z</time>
      </trkpt>
      <trkpt lat="47.28089" lon="-1.56887">
        <ele>29</ele>
        <time>2019-10-17T12:11:45.000Z</time>
      </trkpt>
      <trkpt lat="47.28085" lon="-1.56885">
        <ele>29</ele>
        <time>2019-10-17T12:11:46.000Z</time>
      </trkpt>
      <trkpt lat="47.2808" lon="-1.56884">
        <ele>29</ele>
        <time>2019-10-17T12:11:47.000Z</time>
      </trkpt>
      <trkpt lat="47.28075" lon="-1.56882">
        <ele>28</ele>
        <time>2019-10-17T12:11:48.000Z</time>
      </trkpt>
      <trkpt lat="47.28069" lon="-1.5688">
        <ele>28</ele>
        <time>2019-10-17T12:11:49.000Z</time>
      </trkpt>
      <trkpt lat="47.28064" lon="-1.56879">
        <ele>28</ele>
        <time>2019-10-17T12:11:50.000Z</time>
      </trkpt>
      <trkpt lat="47.28058" lon="-1.56878">
        <ele>28</ele>
        <time>2019-10-17T12:11:51.000Z</time>
      </trkpt>
      <trkpt lat="47.28052" lon="-1.56876">
        <ele>28</ele>
        <time>2019-10-17T12:11:52.000Z</time>
      </trkpt>
      <trkpt lat="47.28046" lon="-1.56874">
        <ele>27</ele>
        <time>2019-10-17T12:11:53.000Z</time>
      </trkpt>
      <trkpt lat="47.28039" lon="-1.56872">
        <ele>27</ele>
        <time>2019-10-17T12:11:54.000Z</time>
      </trkpt>
      <trkpt lat="47.28033" lon="-1.5687">
        <ele>26</ele>
        <time>2019-10-17T12:11:55.000Z</time>
      </trkpt>
      <trkpt lat="47.28026" lon="-1.56868">
        <ele>26</ele>
        <time>2019-10-17T12:11:56.000Z</time>
      </trkpt>
      <trkpt lat="47.2802" lon="-1.56866">
        <ele>26</ele>
        <time>2019-10-17T12:11:57.000Z</time>
      </trkpt>
      <trkpt lat="47.28014" lon="-1.56863">
        <ele>26</ele>
        <time>2019-10-17T12:11:58.000Z</time>
      </trkpt>
      <trkpt lat="47.28009" lon="-1.5686">
        <ele>25</ele>
        <time>2019-10-17T12:11:59.000Z</time>
      </trkpt>
      <trkpt lat="47.28005" lon="-1.56856">
        <ele>25</ele>
        <time>2019-10-17T12:12:00.000Z</time>
      </trkpt>
      <trkpt lat="47.28002" lon="-1.5685">
        <ele>25</ele>
        <time>2019-10-17T12:12:01.000Z</time>
      </trkpt>
      <trkpt lat="47.28001" lon="-1.56843">
        <ele>25</ele>
        <time>2019-10-17T12:12:02.000Z</time>
      </trkpt>
      <trkpt lat="47.28001" lon="-1.56837">
        <ele>25</ele>
        <time>2019-10-17T12:12:03.000Z</time>
      </trkpt>
      <trkpt lat="47.28002" lon="-1.56831">
        <ele>25</ele>
        <time>2019-10-17T12:12:04.000Z</time>
      </trkpt>
      <trkpt lat="47.28003" lon="-1.56827">
        <ele>25</ele>
        <time>2019-10-17T12:12:05.000Z</time>
      </trkpt>
      <trkpt lat="47.28004" lon="-1.56823">
        <ele>25</ele>
        <time>2019-10-17T12:12:06.000Z</time>
      </trkpt>
      <trkpt lat="47.28005" lon="-1.5682">
        <ele>25</ele>
        <time>2019-10-17T12:12:07.000Z</time>
      </trkpt>
      <trkpt lat="47.28006" lon="-1.56816">
        <ele>25</ele>
        <time>2019-10-17T12:12:08.000Z</time>
      </trkpt>
      <trkpt lat="47.28007" lon="-1.56812">
        <ele>25</ele>
        <time>2019-10-17T12:12:09.000Z</time>
      </trkpt>
      <trkpt lat="47.28009" lon="-1.56808">
        <ele>25</ele>
        <time>2019-10-17T12:12:10.000Z</time>
      </trkpt>
      <trkpt lat="47.2801" lon="-1.56804">
        <ele>25</ele>
        <time>2019-10-17T12:12:11.000Z</time>
      </trkpt>
      <trkpt lat="47.28012" lon="-1.56799">
        <ele>25</ele>
        <time>2019-10-17T12:12:12.000Z</time>
      </trkpt>
      <trkpt lat="47.28014" lon="-1.56795">
        <ele>25</ele>
        <time>2019-10-17T12:12:13.000Z</time>
      </trkpt>
      <trkpt lat="47.28015" lon="-1.5679">
        <ele>25</ele>
        <time>2019-10-17T12:12:14.000Z</time>
      </trkpt>
      <trkpt lat="47.28017" lon="-1.56784">
        <ele>25</ele>
        <time>2019-10-17T12:12:15.000Z</time>
      </trkpt>
      <trkpt lat="47.28018" lon="-1.56779">
        <ele>25</ele>
        <time>2019-10-17T12:12:16.000Z</time>
      </trkpt>
      <trkpt lat="47.28019" lon="-1.56773">
        <ele>25</ele>
        <time>2019-10-17T12:12:17.000Z</time>
      </trkpt>
      <trkpt lat="47.28019" lon="-1.56767">
        <ele>26</ele>
        <time>2019-10-17T12:12:18.000Z</time>
      </trkpt>
      <trkpt lat="47.28019" lon="-1.56762">
        <ele>26</ele>
        <time>2019-10-17T12:12:19.000Z</time>
      </trkpt>
      <trkpt lat="47.28018" lon="-1.56757">
        <ele>26</ele>
        <time>2019-10-17T12:12:20.000Z</time>
      </trkpt>
      <trkpt lat="47.28016" lon="-1.56754">
        <ele>26</ele>
        <time>2019-10-17T12:12:21.000Z</time>
      </trkpt>
      <trkpt lat="47.28012" lon="-1.56751">
        <ele>26</ele>
        <time>2019-10-17T12:12:22.000Z</time>
      </trkpt>
      <trkpt lat="47.28007" lon="-1.56748">
        <ele>26</ele>
        <time>2019-10-17T12:12:23.000Z</time>
      </trkpt>
      <trkpt lat="47.28002" lon="-1.56746">
        <ele>26</ele>
        <time>2019-10-17T12:12:24.000Z</time>
      </trkpt>
      <trkpt lat="47.27997" lon="-1.56744">
        <ele>26</ele>
        <time>2019-10-17T12:12:25.000Z</time>
      </trkpt>
      <trkpt lat="47.27993" lon="-1.56743">
        <ele>26</ele>
        <time>2019-10-17T12:12:26.000Z</time>
      </trkpt>
      <trkpt lat="47.27988" lon="-1.56743">
        <ele>26</ele>
        <time>2019-10-17T12:12:27.000Z</time>
      </trkpt>
      <trkpt lat="47.27983" lon="-1.56742">
        <ele>26</ele>
        <time>2019-10-17T12:12:28.000Z</time>
      </trkpt>
      <trkpt lat="47.27978" lon="-1.56742">
        <ele>25</ele>
        <time>2019-10-17T12:12:29.000Z</time>
      </trkpt>
      <trkpt lat="47.27973" lon="-1.56742">
        <ele>25</ele>
        <time>2019-10-17T12:12:30.000Z</time>
      </trkpt>
      <trkpt lat="47.27968" lon="-1.56743">
        <ele>25</ele>
        <time>2019-10-17T12:12:31.000Z</time>
      </trkpt>
      <trkpt lat="47.27964" lon="-1.56744">
        <ele>25</ele>
        <time>2019-10-17T12:12:32.000Z</time>
      </trkpt>
      <trkpt lat="47.27961" lon="-1.56744">
        <ele>25</ele>
        <time>2019-10-17T12:12:33.000Z</time>
      </trkpt>
      <trkpt lat="47.27958" lon="-1.56744">
        <ele>25</ele>
        <time>2019-10-17T12:12:34.000Z</time>
      </trkpt>
      <trkpt lat="47.27955" lon="-1.56744">
        <ele>25</ele>
        <time>2019-10-17T12:12:35.000Z</time>
      </trkpt>
      <trkpt lat="47.27952" lon="-1.56745">
        <ele>25</ele>
        <time>2019-10-17T12:12:36.000Z</time>
      </trkpt>
      <trkpt lat="47.27948" lon="-1.56744">
        <ele>25</ele>
        <time>2019-10-17T12:12:37.000Z</time>
      </trkpt>
      <trkpt lat="47.27945" lon="-1.56744">
        <ele>25</ele>
        <time>2019-10-17T12:12:38.000Z</time>
      </trkpt>
      <trkpt lat="47.27943" lon="-1.56743">
        <ele>24</ele>
        <time>2019-10-17T12:12:39.000Z</time>
      </trkpt>
      <trkpt lat="47.27942" lon="-1.56741">
        <ele>24</ele>
        <time>2019-10-17T12:12:40.000Z</time>
      </trkpt>
      <trkpt lat="47.27942" lon="-1.56739">
        <ele>24</ele>
        <time>2019-10-17T12:12:41.000Z</time>
      </trkpt>
      <trkpt lat="47.27941" lon="-1.56736">
        <ele>24</ele>
        <time>2019-10-17T12:12:42.000Z</time>
      </trkpt>
      <trkpt lat="47.27941" lon="-1.56731">
        <ele>24</ele>
        <time>2019-10-17T12:12:43.000Z</time>
      </trkpt>
      <trkpt lat="47.27941" lon="-1.56726">
        <ele>24</ele>
        <time>2019-10-17T12:12:44.000Z</time>
      </trkpt>
      <trkpt lat="47.27942" lon="-1.56721">
        <ele>24</ele>
        <time>2019-10-17T12:12:45.000Z</time>
      </trkpt>
      <trkpt lat="47.27944" lon="-1.56718">
        <ele>23</ele>
        <time>2019-10-17T12:12:46.000Z</time>
      </trkpt>
      <trkpt lat="47.27944" lon="-1.56715">
        <ele>23</ele>
        <time>2019-10-17T12:12:47.000Z</time>
      </trkpt>
      <trkpt lat="47.27944" lon="-1.56712">
        <ele>23</ele>
        <time>2019-10-17T12:12:48.000Z</time>
      </trkpt>
      <trkpt lat="47.27943" lon="-1.5671">
        <ele>23</ele>
        <time>2019-10-17T12:12:49.000Z</time>
      </trkpt>
      <trkpt lat="47.27943" lon="-1.56707">
        <ele>23</ele>
        <time>2019-10-17T12:12:50.000Z</time>
      </trkpt>
      <trkpt lat="47.27943" lon="-1.56702">
        <ele>23</ele>
        <time>2019-10-17T12:12:51.000Z</time>
      </trkpt>
      <trkpt lat="47.27944" lon="-1.56697">
        <ele>23</ele>
        <time>2019-10-17T12:12:52.000Z</time>
      </trkpt>
      <trkpt lat="47.27945" lon="-1.5669">
        <ele>23</ele>
        <time>2019-10-17T12:12:53.000Z</time>
      </trkpt>
      <trkpt lat="47.27946" lon="-1.56685">
        <ele>22</ele>
        <time>2019-10-17T12:12:54.000Z</time>
      </trkpt>
      <trkpt lat="47.27947" lon="-1.56679">
        <ele>22</ele>
        <time>2019-10-17T12:12:55.000Z</time>
      </trkpt>
      <trkpt lat="47.27947" lon="-1.56673">
        <ele>22</ele>
        <time>2019-10-17T12:12:56.000Z</time>
      </trkpt>
      <trkpt lat="47.27948" lon="-1.56668">
        <ele>22</ele>
        <time>2019-10-17T12:12:57.000Z</time>
      </trkpt>
      <trkpt lat="47.27949" lon="-1.56664">
        <ele>22</ele>
        <time>2019-10-17T12:12:58.000Z</time>
      </trkpt>
      <trkpt lat="47.27949" lon="-1.56659">
        <ele>22</ele>
        <time>2019-10-17T12:12:59.000Z</time>
      </trkpt>
      <trkpt lat="47.2795" lon="-1.56655">
        <ele>21</ele>
        <time>2019-10-17T12:13:00.000Z</time>
      </trkpt>
      <trkpt lat="47.2795" lon="-1.56651">
        <ele>22</ele>
        <time>2019-10-17T12:13:01.000Z</time>
      </trkpt>
      <trkpt lat="47.27951" lon="-1.56647">
        <ele>22</ele>
        <time>2019-10-17T12:13:02.000Z</time>
      </trkpt>
      <trkpt lat="47.27952" lon="-1.56643">
        <ele>22</ele>
        <time>2019-10-17T12:13:03.000Z</time>
      </trkpt>
      <trkpt lat="47.27953" lon="-1.56638">
        <ele>22</ele>
        <time>2019-10-17T12:13:04.000Z</time>
      </trkpt>
      <trkpt lat="47.27952" lon="-1.56633">
        <ele>22</ele>
        <time>2019-10-17T12:13:05.000Z</time>
      </trkpt>
      <trkpt lat="47.2795" lon="-1.56628">
        <ele>22</ele>
        <time>2019-10-17T12:13:06.000Z</time>
      </trkpt>
      <trkpt lat="47.27948" lon="-1.56623">
        <ele>22</ele>
        <time>2019-10-17T12:13:07.000Z</time>
      </trkpt>
      <trkpt lat="47.27945" lon="-1.56619">
        <ele>22</ele>
        <time>2019-10-17T12:13:08.000Z</time>
      </trkpt>
      <trkpt lat="47.27943" lon="-1.56615">
        <ele>22</ele>
        <time>2019-10-17T12:13:09.000Z</time>
      </trkpt>
      <trkpt lat="47.27942" lon="-1.56613">
        <ele>22</ele>
        <time>2019-10-17T12:13:10.000Z</time>
      </trkpt>
      <trkpt lat="47.2794" lon="-1.5661">
        <ele>22</ele>
        <time>2019-10-17T12:13:11.000Z</time>
      </trkpt>
      <trkpt lat="47.27938" lon="-1.56607">
        <ele>22</ele>
        <time>2019-10-17T12:13:12.000Z</time>
      </trkpt>
      <trkpt lat="47.27934" lon="-1.56603">
        <ele>22</ele>
        <time>2019-10-17T12:13:13.000Z</time>
      </trkpt>
      <trkpt lat="47.2793" lon="-1.56599">
        <ele>22</ele>
        <time>2019-10-17T12:13:14.000Z</time>
      </trkpt>
      <trkpt lat="47.27926" lon="-1.56592">
        <ele>22</ele>
        <time>2019-10-17T12:13:15.000Z</time>
      </trkpt>
      <trkpt lat="47.27921" lon="-1.56585">
        <ele>21</ele>
        <time>2019-10-17T12:13:16.000Z</time>
      </trkpt>
      <trkpt lat="47.27917" lon="-1.56579">
        <ele>21</ele>
        <time>2019-10-17T12:13:17.000Z</time>
      </trkpt>
      <trkpt lat="47.27913" lon="-1.56574">
        <ele>21</ele>
        <time>2019-10-17T12:13:18.000Z</time>
      </trkpt>
      <trkpt lat="47.27909" lon="-1.56569">
        <ele>21</ele>
        <time>2019-10-17T12:13:19.000Z</time>
      </trkpt>
      <trkpt lat="47.27906" lon="-1.56565">
        <ele>21</ele>
        <time>2019-10-17T12:13:20.000Z</time>
      </trkpt>
      <trkpt lat="47.27903" lon="-1.56561">
        <ele>21</ele>
        <time>2019-10-17T12:13:21.000Z</time>
      </trkpt>
      <trkpt lat="47.27899" lon="-1.56557">
        <ele>21</ele>
        <time>2019-10-17T12:13:22.000Z</time>
      </trkpt>
      <trkpt lat="47.27895" lon="-1.56553">
        <ele>21</ele>
        <time>2019-10-17T12:13:23.000Z</time>
      </trkpt>
      <trkpt lat="47.27892" lon="-1.56549">
        <ele>21</ele>
        <time>2019-10-17T12:13:24.000Z</time>
      </trkpt>
      <trkpt lat="47.2789" lon="-1.56546">
        <ele>21</ele>
        <time>2019-10-17T12:13:25.000Z</time>
      </trkpt>
      <trkpt lat="47.27888" lon="-1.56542">
        <ele>21</ele>
        <time>2019-10-17T12:13:26.000Z</time>
      </trkpt>
      <trkpt lat="47.27885" lon="-1.56538">
        <ele>21</ele>
        <time>2019-10-17T12:13:27.000Z</time>
      </trkpt>
      <trkpt lat="47.27883" lon="-1.56533">
        <ele>21</ele>
        <time>2019-10-17T12:13:28.000Z</time>
      </trkpt>
      <trkpt lat="47.27882" lon="-1.56529">
        <ele>21</ele>
        <time>2019-10-17T12:13:29.000Z</time>
      </trkpt>
      <trkpt lat="47.27881" lon="-1.56525">
        <ele>20</ele>
        <time>2019-10-17T12:13:30.000Z</time>
      </trkpt>
      <trkpt lat="47.2788" lon="-1.5652">
        <ele>20</ele>
        <time>2019-10-17T12:13:31.000Z</time>
      </trkpt>
      <trkpt lat="47.27879" lon="-1.56515">
        <ele>20</ele>
        <time>2019-10-17T12:13:32.000Z</time>
      </trkpt>
      <trkpt lat="47.27878" lon="-1.56509">
        <ele>20</ele>
        <time>2019-10-17T12:13:33.000Z</time>
      </trkpt>
      <trkpt lat="47.27877" lon="-1.56504">
        <ele>20</ele>
        <time>2019-10-17T12:13:34.000Z</time>
      </trkpt>
      <trkpt lat="47.27876" lon="-1.565">
        <ele>19</ele>
        <time>2019-10-17T12:13:35.000Z</time>
      </trkpt>
      <trkpt lat="47.27875" lon="-1.56496">
        <ele>19</ele>
        <time>2019-10-17T12:13:36.000Z</time>
      </trkpt>
      <trkpt lat="47.27875" lon="-1.56491">
        <ele>19</ele>
        <time>2019-10-17T12:13:37.000Z</time>
      </trkpt>
      <trkpt lat="47.27875" lon="-1.56487">
        <ele>19</ele>
        <time>2019-10-17T12:13:38.000Z</time>
      </trkpt>
      <trkpt lat="47.27875" lon="-1.56482">
        <ele>19</ele>
        <time>2019-10-17T12:13:39.000Z</time>
      </trkpt>
      <trkpt lat="47.27875" lon="-1.56478">
        <ele>18</ele>
        <time>2019-10-17T12:13:40.000Z</time>
      </trkpt>
      <trkpt lat="47.27875" lon="-1.56473">
        <ele>18</ele>
        <time>2019-10-17T12:13:41.000Z</time>
      </trkpt>
      <trkpt lat="47.27875" lon="-1.56469">
        <ele>18</ele>
        <time>2019-10-17T12:13:42.000Z</time>
      </trkpt>
      <trkpt lat="47.27877" lon="-1.56465">
        <ele>18</ele>
        <time>2019-10-17T12:13:43.000Z</time>
      </trkpt>
      <trkpt lat="47.27878" lon="-1.5646">
        <ele>18</ele>
        <time>2019-10-17T12:13:44.000Z</time>
      </trkpt>
      <trkpt lat="47.27879" lon="-1.56455">
        <ele>18</ele>
        <time>2019-10-17T12:13:45.000Z</time>
      </trkpt>
      <trkpt lat="47.2788" lon="-1.56451">
        <ele>18</ele>
        <time>2019-10-17T12:13:46.000Z</time>
      </trkpt>
      <trkpt lat="47.27881" lon="-1.56446">
        <ele>18</ele>
        <time>2019-10-17T12:13:47.000Z</time>
      </trkpt>
      <trkpt lat="47.27882" lon="-1.56441">
        <ele>18</ele>
        <time>2019-10-17T12:13:48.000Z</time>
      </trkpt>
      <trkpt lat="47.27883" lon="-1.56436">
        <ele>18</ele>
        <time>2019-10-17T12:13:49.000Z</time>
      </trkpt>
      <trkpt lat="47.27883" lon="-1.56432">
        <ele>18</ele>
        <time>2019-10-17T12:13:50.000Z</time>
      </trkpt>
      <trkpt lat="47.27884" lon="-1.56427">
        <ele>18</ele>
        <time>2019-10-17T12:13:51.000Z</time>
      </trkpt>
      <trkpt lat="47.27885" lon="-1.56423">
        <ele>18</ele>
        <time>2019-10-17T12:13:52.000Z</time>
      </trkpt>
      <trkpt lat="47.27885" lon="-1.56418">
        <ele>18</ele>
        <time>2019-10-17T12:13:53.000Z</time>
      </trkpt>
      <trkpt lat="47.27885" lon="-1.56415">
        <ele>18</ele>
        <time>2019-10-17T12:13:54.000Z</time>
      </trkpt>
      <trkpt lat="47.27885" lon="-1.56411">
        <ele>19</ele>
        <time>2019-10-17T12:13:55.000Z</time>
      </trkpt>
      <trkpt lat="47.27885" lon="-1.56407">
        <ele>19</ele>
        <time>2019-10-17T12:13:56.000Z</time>
      </trkpt>
      <trkpt lat="47.27885" lon="-1.56404">
        <ele>19</ele>
        <time>2019-10-17T12:13:57.000Z</time>
      </trkpt>
      <trkpt lat="47.27885" lon="-1.564">
        <ele>19</ele>
        <time>2019-10-17T12:13:58.000Z</time>
      </trkpt>
      <trkpt lat="47.27885" lon="-1.56396">
        <ele>19</ele>
        <time>2019-10-17T12:13:59.000Z</time>
      </trkpt>
      <trkpt lat="47.27885" lon="-1.56392">
        <ele>20</ele>
        <time>2019-10-17T12:14:00.000Z</time>
      </trkpt>
      <trkpt lat="47.27883" lon="-1.56389">
        <ele>20</ele>
        <time>2019-10-17T12:14:01.000Z</time>
      </trkpt>
      <trkpt lat="47.27881" lon="-1.56385">
        <ele>20</ele>
        <time>2019-10-17T12:14:02.000Z</time>
      </trkpt>
      <trkpt lat="47.27879" lon="-1.56382">
        <ele>21</ele>
        <time>2019-10-17T12:14:03.000Z</time>
      </trkpt>
      <trkpt lat="47.27877" lon="-1.5638">
        <ele>21</ele>
        <time>2019-10-17T12:14:04.000Z</time>
      </trkpt>
      <trkpt lat="47.27876" lon="-1.56377">
        <ele>21</ele>
        <time>2019-10-17T12:14:05.000Z</time>
      </trkpt>
      <trkpt lat="47.27873" lon="-1.56374">
        <ele>22</ele>
        <time>2019-10-17T12:14:06.000Z</time>
      </trkpt>
      <trkpt lat="47.2787" lon="-1.56371">
        <ele>22</ele>
        <time>2019-10-17T12:14:07.000Z</time>
      </trkpt>
      <trkpt lat="47.27867" lon="-1.56367">
        <ele>22</ele>
        <time>2019-10-17T12:14:08.000Z</time>
      </trkpt>
      <trkpt lat="47.27865" lon="-1.56364">
        <ele>23</ele>
        <time>2019-10-17T12:14:09.000Z</time>
      </trkpt>
      <trkpt lat="47.27862" lon="-1.5636">
        <ele>23</ele>
        <time>2019-10-17T12:14:10.000Z</time>
      </trkpt>
      <trkpt lat="47.27859" lon="-1.56357">
        <ele>23</ele>
        <time>2019-10-17T12:14:11.000Z</time>
      </trkpt>
      <trkpt lat="47.27857" lon="-1.56354">
        <ele>23</ele>
        <time>2019-10-17T12:14:12.000Z</time>
      </trkpt>
      <trkpt lat="47.27854" lon="-1.56351">
        <ele>23</ele>
        <time>2019-10-17T12:14:13.000Z</time>
      </trkpt>
      <trkpt lat="47.27852" lon="-1.56347">
        <ele>24</ele>
        <time>2019-10-17T12:14:14.000Z</time>
      </trkpt>
      <trkpt lat="47.27849" lon="-1.56344">
        <ele>24</ele>
        <time>2019-10-17T12:14:15.000Z</time>
      </trkpt>
      <trkpt lat="47.27846" lon="-1.5634">
        <ele>24</ele>
        <time>2019-10-17T12:14:16.000Z</time>
      </trkpt>
      <trkpt lat="47.27843" lon="-1.56336">
        <ele>24</ele>
        <time>2019-10-17T12:14:17.000Z</time>
      </trkpt>
      <trkpt lat="47.27841" lon="-1.56333">
        <ele>24</ele>
        <time>2019-10-17T12:14:18.000Z</time>
      </trkpt>
      <trkpt lat="47.27839" lon="-1.5633">
        <ele>25</ele>
        <time>2019-10-17T12:14:19.000Z</time>
      </trkpt>
      <trkpt lat="47.27837" lon="-1.56327">
        <ele>25</ele>
        <time>2019-10-17T12:14:20.000Z</time>
      </trkpt>
      <trkpt lat="47.27835" lon="-1.56323">
        <ele>25</ele>
        <time>2019-10-17T12:14:21.000Z</time>
      </trkpt>
      <trkpt lat="47.27833" lon="-1.5632">
        <ele>25</ele>
        <time>2019-10-17T12:14:22.000Z</time>
      </trkpt>
      <trkpt lat="47.27831" lon="-1.56317">
        <ele>25</ele>
        <time>2019-10-17T12:14:23.000Z</time>
      </trkpt>
      <trkpt lat="47.2783" lon="-1.56314">
        <ele>26</ele>
        <time>2019-10-17T12:14:24.000Z</time>
      </trkpt>
      <trkpt lat="47.27828" lon="-1.56311">
        <ele>26</ele>
        <time>2019-10-17T12:14:25.000Z</time>
      </trkpt>
      <trkpt lat="47.27827" lon="-1.56308">
        <ele>26</ele>
        <time>2019-10-17T12:14:26.000Z</time>
      </trkpt>
      <trkpt lat="47.27826" lon="-1.56305">
        <ele>26</ele>
        <time>2019-10-17T12:14:27.000Z</time>
      </trkpt>
      <trkpt lat="47.27826" lon="-1.56303">
        <ele>26</ele>
        <time>2019-10-17T12:14:28.000Z</time>
      </trkpt>
      <trkpt lat="47.27825" lon="-1.56299">
        <ele>27</ele>
        <time>2019-10-17T12:14:29.000Z</time>
      </trkpt>
      <trkpt lat="47.27824" lon="-1.56296">
        <ele>27</ele>
        <time>2019-10-17T12:14:30.000Z</time>
      </trkpt>
      <trkpt lat="47.27822" lon="-1.56293">
        <ele>27</ele>
        <time>2019-10-17T12:14:31.000Z</time>
      </trkpt>
      <trkpt lat="47.27821" lon="-1.5629">
        <ele>27</ele>
        <time>2019-10-17T12:14:32.000Z</time>
      </trkpt>
      <trkpt lat="47.2782" lon="-1.56287">
        <ele>27</ele>
        <time>2019-10-17T12:14:33.000Z</time>
      </trkpt>
      <trkpt lat="47.27819" lon="-1.56284">
        <ele>27</ele>
        <time>2019-10-17T12:14:34.000Z</time>
      </trkpt>
      <trkpt lat="47.27818" lon="-1.56281">
        <ele>27</ele>
        <time>2019-10-17T12:14:35.000Z</time>
      </trkpt>
      <trkpt lat="47.27817" lon="-1.56278">
        <ele>27</ele>
        <time>2019-10-17T12:14:36.000Z</time>
      </trkpt>
      <trkpt lat="47.27815" lon="-1.56274">
        <ele>27</ele>
        <time>2019-10-17T12:14:37.000Z</time>
      </trkpt>
      <trkpt lat="47.27814" lon="-1.56271">
        <ele>27</ele>
        <time>2019-10-17T12:14:38.000Z</time>
      </trkpt>
      <trkpt lat="47.27813" lon="-1.56267">
        <ele>27</ele>
        <time>2019-10-17T12:14:39.000Z</time>
      </trkpt>
      <trkpt lat="47.27811" lon="-1.56264">
        <ele>28</ele>
        <time>2019-10-17T12:14:40.000Z</time>
      </trkpt>
      <trkpt lat="47.2781" lon="-1.56261">
        <ele>28</ele>
        <time>2019-10-17T12:14:41.000Z</time>
      </trkpt>
      <trkpt lat="47.27809" lon="-1.56257">
        <ele>28</ele>
        <time>2019-10-17T12:14:42.000Z</time>
      </trkpt>
      <trkpt lat="47.27807" lon="-1.56252">
        <ele>28</ele>
        <time>2019-10-17T12:14:43.000Z</time>
      </trkpt>
      <trkpt lat="47.27806" lon="-1.56248">
        <ele>28</ele>
        <time>2019-10-17T12:14:44.000Z</time>
      </trkpt>
      <trkpt lat="47.27804" lon="-1.56244">
        <ele>29</ele>
        <time>2019-10-17T12:14:45.000Z</time>
      </trkpt>
      <trkpt lat="47.27803" lon="-1.56241">
        <ele>29</ele>
        <time>2019-10-17T12:14:46.000Z</time>
      </trkpt>
      <trkpt lat="47.27801" lon="-1.56236">
        <ele>29</ele>
        <time>2019-10-17T12:14:47.000Z</time>
      </trkpt>
      <trkpt lat="47.278" lon="-1.56232">
        <ele>30</ele>
        <time>2019-10-17T12:14:48.000Z</time>
      </trkpt>
      <trkpt lat="47.27798" lon="-1.56228">
        <ele>30</ele>
        <time>2019-10-17T12:14:49.000Z</time>
      </trkpt>
      <trkpt lat="47.27797" lon="-1.56223">
        <ele>30</ele>
        <time>2019-10-17T12:14:50.000Z</time>
      </trkpt>
      <trkpt lat="47.27796" lon="-1.56218">
        <ele>31</ele>
        <time>2019-10-17T12:14:51.000Z</time>
      </trkpt>
      <trkpt lat="47.27794" lon="-1.56212">
        <ele>31</ele>
        <time>2019-10-17T12:14:52.000Z</time>
      </trkpt>
      <trkpt lat="47.2779" lon="-1.56204">
        <ele>31</ele>
        <time>2019-10-17T12:14:53.000Z</time>
      </trkpt>
      <trkpt lat="47.27787" lon="-1.56196">
        <ele>32</ele>
        <time>2019-10-17T12:14:54.000Z</time>
      </trkpt>
      <trkpt lat="47.27782" lon="-1.56188">
        <ele>32</ele>
        <time>2019-10-17T12:14:55.000Z</time>
      </trkpt>
      <trkpt lat="47.27776" lon="-1.56181">
        <ele>32</ele>
        <time>2019-10-17T12:14:56.000Z</time>
      </trkpt>
      <trkpt lat="47.27769" lon="-1.56175">
        <ele>32</ele>
        <time>2019-10-17T12:14:57.000Z</time>
      </trkpt>
      <trkpt lat="47.27763" lon="-1.5617">
        <ele>32</ele>
        <time>2019-10-17T12:14:58.000Z</time>
      </trkpt>
      <trkpt lat="47.27756" lon="-1.56166">
        <ele>32</ele>
        <time>2019-10-17T12:14:59.000Z</time>
      </trkpt>
      <trkpt lat="47.2775" lon="-1.56163">
        <ele>32</ele>
        <time>2019-10-17T12:15:00.000Z</time>
      </trkpt>
      <trkpt lat="47.27745" lon="-1.56161">
        <ele>31</ele>
        <time>2019-10-17T12:15:01.000Z</time>
      </trkpt>
      <trkpt lat="47.27741" lon="-1.56159">
        <ele>31</ele>
        <time>2019-10-17T12:15:02.000Z</time>
      </trkpt>
      <trkpt lat="47.27736" lon="-1.56157">
        <ele>31</ele>
        <time>2019-10-17T12:15:03.000Z</time>
      </trkpt>
      <trkpt lat="47.27731" lon="-1.56154">
        <ele>31</ele>
        <time>2019-10-17T12:15:04.000Z</time>
      </trkpt>
      <trkpt lat="47.27725" lon="-1.56151">
        <ele>31</ele>
        <time>2019-10-17T12:15:05.000Z</time>
      </trkpt>
      <trkpt lat="47.2772" lon="-1.56148">
        <ele>31</ele>
        <time>2019-10-17T12:15:06.000Z</time>
      </trkpt>
      <trkpt lat="47.27714" lon="-1.56145">
        <ele>30</ele>
        <time>2019-10-17T12:15:07.000Z</time>
      </trkpt>
      <trkpt lat="47.27708" lon="-1.56143">
        <ele>30</ele>
        <time>2019-10-17T12:15:08.000Z</time>
      </trkpt>
      <trkpt lat="47.27703" lon="-1.5614">
        <ele>30</ele>
        <time>2019-10-17T12:15:09.000Z</time>
      </trkpt>
      <trkpt lat="47.27697" lon="-1.56137">
        <ele>29</ele>
        <time>2019-10-17T12:15:10.000Z</time>
      </trkpt>
      <trkpt lat="47.27692" lon="-1.56134">
        <ele>29</ele>
        <time>2019-10-17T12:15:11.000Z</time>
      </trkpt>
      <trkpt lat="47.27687" lon="-1.56131">
        <ele>29</ele>
        <time>2019-10-17T12:15:12.000Z</time>
      </trkpt>
      <trkpt lat="47.27682" lon="-1.56127">
        <ele>28</ele>
        <time>2019-10-17T12:15:13.000Z</time>
      </trkpt>
      <trkpt lat="47.27677" lon="-1.56124">
        <ele>28</ele>
        <time>2019-10-17T12:15:14.000Z</time>
      </trkpt>
      <trkpt lat="47.27674" lon="-1.56121">
        <ele>27</ele>
        <time>2019-10-17T12:15:15.000Z</time>
      </trkpt>
      <trkpt lat="47.27671" lon="-1.56118">
        <ele>27</ele>
        <time>2019-10-17T12:15:16.000Z</time>
      </trkpt>
      <trkpt lat="47.27668" lon="-1.56114">
        <ele>27</ele>
        <time>2019-10-17T12:15:17.000Z</time>
      </trkpt>
      <trkpt lat="47.27665" lon="-1.5611">
        <ele>27</ele>
        <time>2019-10-17T12:15:18.000Z</time>
      </trkpt>
      <trkpt lat="47.27662" lon="-1.56107">
        <ele>27</ele>
        <time>2019-10-17T12:15:19.000Z</time>
      </trkpt>
      <trkpt lat="47.27658" lon="-1.56105">
        <ele>27</ele>
        <time>2019-10-17T12:15:20.000Z</time>
      </trkpt>
      <trkpt lat="47.27656" lon="-1.56102">
        <ele>27</ele>
        <time>2019-10-17T12:15:21.000Z</time>
      </trkpt>
      <trkpt lat="47.27654" lon="-1.56099">
        <ele>27</ele>
        <time>2019-10-17T12:15:22.000Z</time>
      </trkpt>
      <trkpt lat="47.27652" lon="-1.56096">
        <ele>27</ele>
        <time>2019-10-17T12:15:23.000Z</time>
      </trkpt>
      <trkpt lat="47.27649" lon="-1.56093">
        <ele>27</ele>
        <time>2019-10-17T12:15:24.000Z</time>
      </trkpt>
      <trkpt lat="47.27646" lon="-1.56088">
        <ele>27</ele>
        <time>2019-10-17T12:15:25.000Z</time>
      </trkpt>
      <trkpt lat="47.27643" lon="-1.56082">
        <ele>27</ele>
        <time>2019-10-17T12:15:26.000Z</time>
      </trkpt>
      <trkpt lat="47.2764" lon="-1.56077">
        <ele>27</ele>
        <time>2019-10-17T12:15:27.000Z</time>
      </trkpt>
      <trkpt lat="47.27639" lon="-1.56071">
        <ele>27</ele>
        <time>2019-10-17T12:15:28.000Z</time>
      </trkpt>
      <trkpt lat="47.27637" lon="-1.56066">
        <ele>27</ele>
        <time>2019-10-17T12:15:29.000Z</time>
      </trkpt>
      <trkpt lat="47.27635" lon="-1.56061">
        <ele>27</ele>
        <time>2019-10-17T12:15:30.000Z</time>
      </trkpt>
      <trkpt lat="47.27633" lon="-1.56054">
        <ele>27</ele>
        <time>2019-10-17T12:15:31.000Z</time>
      </trkpt>
      <trkpt lat="47.27631" lon="-1.56047">
        <ele>27</ele>
        <time>2019-10-17T12:15:32.000Z</time>
      </trkpt>
      <trkpt lat="47.27629" lon="-1.5604">
        <ele>27</ele>
        <time>2019-10-17T12:15:33.000Z</time>
      </trkpt>
      <trkpt lat="47.27626" lon="-1.56033">
        <ele>27</ele>
        <time>2019-10-17T12:15:34.000Z</time>
      </trkpt>
      <trkpt lat="47.27624" lon="-1.56026">
        <ele>27</ele>
        <time>2019-10-17T12:15:35.000Z</time>
      </trkpt>
      <trkpt lat="47.2762" lon="-1.56021">
        <ele>27</ele>
        <time>2019-10-17T12:15:36.000Z</time>
      </trkpt>
      <trkpt lat="47.27617" lon="-1.56016">
        <ele>27</ele>
        <time>2019-10-17T12:15:37.000Z</time>
      </trkpt>
      <trkpt lat="47.27614" lon="-1.56013">
        <ele>27</ele>
        <time>2019-10-17T12:15:38.000Z</time>
      </trkpt>
      <trkpt lat="47.27611" lon="-1.56009">
        <ele>28</ele>
        <time>2019-10-17T12:15:39.000Z</time>
      </trkpt>
      <trkpt lat="47.27608" lon="-1.56006">
        <ele>28</ele>
        <time>2019-10-17T12:15:40.000Z</time>
      </trkpt>
      <trkpt lat="47.27606" lon="-1.56004">
        <ele>28</ele>
        <time>2019-10-17T12:15:41.000Z</time>
      </trkpt>
      <trkpt lat="47.27603" lon="-1.56001">
        <ele>28</ele>
        <time>2019-10-17T12:15:42.000Z</time>
      </trkpt>
      <trkpt lat="47.276" lon="-1.55998">
        <ele>28</ele>
        <time>2019-10-17T12:15:43.000Z</time>
      </trkpt>
      <trkpt lat="47.27597" lon="-1.55994">
        <ele>28</ele>
        <time>2019-10-17T12:15:44.000Z</time>
      </trkpt>
      <trkpt lat="47.27596" lon="-1.55992">
        <ele>28</ele>
        <time>2019-10-17T12:15:45.000Z</time>
      </trkpt>
      <trkpt lat="47.27595" lon="-1.55989">
        <ele>29</ele>
        <time>2019-10-17T12:15:46.000Z</time>
      </trkpt>
      <trkpt lat="47.27594" lon="-1.55988">
        <ele>29</ele>
        <time>2019-10-17T12:15:47.000Z</time>
      </trkpt>
      <trkpt lat="47.27592" lon="-1.55987">
        <ele>29</ele>
        <time>2019-10-17T12:15:48.000Z</time>
      </trkpt>
      <trkpt lat="47.27591" lon="-1.55986">
        <ele>29</ele>
        <time>2019-10-17T12:15:49.000Z</time>
      </trkpt>
      <trkpt lat="47.2759" lon="-1.55985">
        <ele>29</ele>
        <time>2019-10-17T12:15:50.000Z</time>
      </trkpt>
      <trkpt lat="47.27589" lon="-1.55984">
        <ele>29</ele>
        <time>2019-10-17T12:15:51.000Z</time>
      </trkpt>
      <trkpt lat="47.27588" lon="-1.55984">
        <ele>29</ele>
        <time>2019-10-17T12:15:52.000Z</time>
      </trkpt>
      <trkpt lat="47.27587" lon="-1.55984">
        <ele>29</ele>
        <time>2019-10-17T12:15:53.000Z</time>
      </trkpt>
      <trkpt lat="47.27586" lon="-1.55983">
        <ele>29</ele>
        <time>2019-10-17T12:15:54.000Z</time>
      </trkpt>
      <trkpt lat="47.27585" lon="-1.55983">
        <ele>29</ele>
        <time>2019-10-17T12:15:55.000Z</time>
      </trkpt>
      <trkpt lat="47.27584" lon="-1.55983">
        <ele>29</ele>
        <time>2019-10-17T12:15:56.000Z</time>
      </trkpt>
      <trkpt lat="47.27583" lon="-1.55983">
        <ele>29</ele>
        <time>2019-10-17T12:15:57.000Z</time>
      </trkpt>
      <trkpt lat="47.27582" lon="-1.55983">
        <ele>29</ele>
        <time>2019-10-17T12:15:58.000Z</time>
      </trkpt>
      <trkpt lat="47.27582" lon="-1.55984">
        <ele>29</ele>
        <time>2019-10-17T12:15:59.000Z</time>
      </trkpt>
      <trkpt lat="47.2758" lon="-1.55986">
        <ele>28</ele>
        <time>2019-10-17T12:16:00.000Z</time>
      </trkpt>
      <trkpt lat="47.27579" lon="-1.55988">
        <ele>28</ele>
        <time>2019-10-17T12:16:01.000Z</time>
      </trkpt>
      <trkpt lat="47.27577" lon="-1.5599">
        <ele>28</ele>
        <time>2019-10-17T12:16:02.000Z</time>
      </trkpt>
      <trkpt lat="47.27574" lon="-1.55992">
        <ele>28</ele>
        <time>2019-10-17T12:16:03.000Z</time>
      </trkpt>
      <trkpt lat="47.27572" lon="-1.55993">
        <ele>28</ele>
        <time>2019-10-17T12:16:04.000Z</time>
      </trkpt>
      <trkpt lat="47.2757" lon="-1.55994">
        <ele>28</ele>
        <time>2019-10-17T12:16:05.000Z</time>
      </trkpt>
      <trkpt lat="47.27569" lon="-1.55995">
        <ele>28</ele>
        <time>2019-10-17T12:16:06.000Z</time>
      </trkpt>
      <trkpt lat="47.27568" lon="-1.55994">
        <ele>28</ele>
        <time>2019-10-17T12:16:07.000Z</time>
      </trkpt>
      <trkpt lat="47.27567" lon="-1.55995">
        <ele>28</ele>
        <time>2019-10-17T12:16:08.000Z</time>
      </trkpt>
      <trkpt lat="47.27566" lon="-1.55995">
        <ele>27</ele>
        <time>2019-10-17T12:16:09.000Z</time>
      </trkpt>
      <trkpt lat="47.27565" lon="-1.55996">
        <ele>27</ele>
        <time>2019-10-17T12:16:10.000Z</time>
      </trkpt>
      <trkpt lat="47.27564" lon="-1.55996">
        <ele>27</ele>
        <time>2019-10-17T12:16:11.000Z</time>
      </trkpt>
      <trkpt lat="47.27563" lon="-1.55997">
        <ele>27</ele>
        <time>2019-10-17T12:16:12.000Z</time>
      </trkpt>
      <trkpt lat="47.27561" lon="-1.55996">
        <ele>27</ele>
        <time>2019-10-17T12:16:13.000Z</time>
      </trkpt>
      <trkpt lat="47.27559" lon="-1.55996">
        <ele>27</ele>
        <time>2019-10-17T12:16:14.000Z</time>
      </trkpt>
      <trkpt lat="47.27557" lon="-1.55995">
        <ele>26</ele>
        <time>2019-10-17T12:16:15.000Z</time>
      </trkpt>
      <trkpt lat="47.27554" lon="-1.55995">
        <ele>26</ele>
        <time>2019-10-17T12:16:16.000Z</time>
      </trkpt>
      <trkpt lat="47.27553" lon="-1.55995">
        <ele>26</ele>
        <time>2019-10-17T12:16:17.000Z</time>
      </trkpt>
      <trkpt lat="47.27551" lon="-1.55995">
        <ele>26</ele>
        <time>2019-10-17T12:16:18.000Z</time>
      </trkpt>
      <trkpt lat="47.27549" lon="-1.55996">
        <ele>26</ele>
        <time>2019-10-17T12:16:19.000Z</time>
      </trkpt>
      <trkpt lat="47.27547" lon="-1.55996">
        <ele>25</ele>
        <time>2019-10-17T12:16:20.000Z</time>
      </trkpt>
      <trkpt lat="47.27544" lon="-1.55996">
        <ele>25</ele>
        <time>2019-10-17T12:16:21.000Z</time>
      </trkpt>
      <trkpt lat="47.27541" lon="-1.55996">
        <ele>25</ele>
        <time>2019-10-17T12:16:22.000Z</time>
      </trkpt>
      <trkpt lat="47.27538" lon="-1.55996">
        <ele>25</ele>
        <time>2019-10-17T12:16:23.000Z</time>
      </trkpt>
      <trkpt lat="47.27535" lon="-1.55997">
        <ele>24</ele>
        <time>2019-10-17T12:16:24.000Z</time>
      </trkpt>
      <trkpt lat="47.27534" lon="-1.56001">
        <ele>24</ele>
        <time>2019-10-17T12:16:25.000Z</time>
      </trkpt>
      <trkpt lat="47.27533" lon="-1.56004">
        <ele>24</ele>
        <time>2019-10-17T12:16:26.000Z</time>
      </trkpt>
      <trkpt lat="47.27533" lon="-1.56007">
        <ele>24</ele>
        <time>2019-10-17T12:16:27.000Z</time>
      </trkpt>
      <trkpt lat="47.27534" lon="-1.5601">
        <ele>24</ele>
        <time>2019-10-17T12:16:28.000Z</time>
      </trkpt>
      <trkpt lat="47.27533" lon="-1.56013">
        <ele>24</ele>
        <time>2019-10-17T12:16:29.000Z</time>
      </trkpt>
      <trkpt lat="47.27531" lon="-1.56016">
        <ele>24</ele>
        <time>2019-10-17T12:16:30.000Z</time>
      </trkpt>
      <trkpt lat="47.2753" lon="-1.56018">
        <ele>24</ele>
        <time>2019-10-17T12:16:31.000Z</time>
      </trkpt>
      <trkpt lat="47.27527" lon="-1.56021">
        <ele>23</ele>
        <time>2019-10-17T12:16:32.000Z</time>
      </trkpt>
      <trkpt lat="47.27525" lon="-1.56023">
        <ele>23</ele>
        <time>2019-10-17T12:16:33.000Z</time>
      </trkpt>
      <trkpt lat="47.27523" lon="-1.56025">
        <ele>23</ele>
        <time>2019-10-17T12:16:34.000Z</time>
      </trkpt>
      <trkpt lat="47.2752" lon="-1.56027">
        <ele>23</ele>
        <time>2019-10-17T12:16:35.000Z</time>
      </trkpt>
      <trkpt lat="47.27518" lon="-1.5603">
        <ele>23</ele>
        <time>2019-10-17T12:16:36.000Z</time>
      </trkpt>
      <trkpt lat="47.27517" lon="-1.56032">
        <ele>23</ele>
        <time>2019-10-17T12:16:37.000Z</time>
      </trkpt>
      <trkpt lat="47.27517" lon="-1.56033">
        <ele>23</ele>
        <time>2019-10-17T12:16:38.000Z</time>
      </trkpt>
      <trkpt lat="47.27516" lon="-1.56034">
        <ele>23</ele>
        <time>2019-10-17T12:16:39.000Z</time>
      </trkpt>
      <trkpt lat="47.27516" lon="-1.56034">
        <ele>23</ele>
        <time>2019-10-17T12:16:40.000Z</time>
      </trkpt>
      <trkpt lat="47.27516" lon="-1.56035">
        <ele>23</ele>
        <time>2019-10-17T12:16:41.000Z</time>
      </trkpt>
      <trkpt lat="47.27515" lon="-1.56037">
        <ele>23</ele>
        <time>2019-10-17T12:16:42.000Z</time>
      </trkpt>
      <trkpt lat="47.27514" lon="-1.56038">
        <ele>23</ele>
        <time>2019-10-17T12:16:43.000Z</time>
      </trkpt>
      <trkpt lat="47.27514" lon="-1.56039">
        <ele>23</ele>
        <time>2019-10-17T12:16:44.000Z</time>
      </trkpt>
      <trkpt lat="47.27514" lon="-1.56039">
        <ele>23</ele>
        <time>2019-10-17T12:16:45.000Z</time>
      </trkpt>
      <trkpt lat="47.27515" lon="-1.56049">
        <ele>24</ele>
        <time>2019-10-17T12:16:46.000Z</time>
      </trkpt>
      <trkpt lat="47.27514" lon="-1.56051">
        <ele>24</ele>
        <time>2019-10-17T12:16:47.000Z</time>
      </trkpt>
      <trkpt lat="47.27514" lon="-1.56053">
        <ele>24</ele>
        <time>2019-10-17T12:16:48.000Z</time>
      </trkpt>
      <trkpt lat="47.27512" lon="-1.56055">
        <ele>24</ele>
        <time>2019-10-17T12:16:49.000Z</time>
      </trkpt>
      <trkpt lat="47.2751" lon="-1.56057">
        <ele>24</ele>
        <time>2019-10-17T12:16:50.000Z</time>
      </trkpt>
      <trkpt lat="47.27506" lon="-1.5606">
        <ele>24</ele>
        <time>2019-10-17T12:16:51.000Z</time>
      </trkpt>
      <trkpt lat="47.27503" lon="-1.56063">
        <ele>24</ele>
        <time>2019-10-17T12:16:52.000Z</time>
      </trkpt>
      <trkpt lat="47.275" lon="-1.56065">
        <ele>25</ele>
        <time>2019-10-17T12:16:53.000Z</time>
      </trkpt>
      <trkpt lat="47.27497" lon="-1.56068">
        <ele>25</ele>
        <time>2019-10-17T12:16:54.000Z</time>
      </trkpt>
      <trkpt lat="47.27494" lon="-1.56071">
        <ele>25</ele>
        <time>2019-10-17T12:16:55.000Z</time>
      </trkpt>
      <trkpt lat="47.27491" lon="-1.56074">
        <ele>25</ele>
        <time>2019-10-17T12:16:56.000Z</time>
      </trkpt>
      <trkpt lat="47.27488" lon="-1.56077">
        <ele>25</ele>
        <time>2019-10-17T12:16:57.000Z</time>
      </trkpt>
      <trkpt lat="47.27484" lon="-1.5608">
        <ele>25</ele>
        <time>2019-10-17T12:16:58.000Z</time>
      </trkpt>
      <trkpt lat="47.2748" lon="-1.56082">
        <ele>25</ele>
        <time>2019-10-17T12:16:59.000Z</time>
      </trkpt>
      <trkpt lat="47.27476" lon="-1.56083">
        <ele>25</ele>
        <time>2019-10-17T12:17:00.000Z</time>
      </trkpt>
      <trkpt lat="47.27472" lon="-1.56086">
        <ele>25</ele>
        <time>2019-10-17T12:17:01.000Z</time>
      </trkpt>
      <trkpt lat="47.2747" lon="-1.56088">
        <ele>25</ele>
        <time>2019-10-17T12:17:02.000Z</time>
      </trkpt>
      <trkpt lat="47.27469" lon="-1.5609">
        <ele>25</ele>
        <time>2019-10-17T12:17:03.000Z</time>
      </trkpt>
      <trkpt lat="47.27466" lon="-1.56092">
        <ele>25</ele>
        <time>2019-10-17T12:17:04.000Z</time>
      </trkpt>
      <trkpt lat="47.27463" lon="-1.56093">
        <ele>25</ele>
        <time>2019-10-17T12:17:05.000Z</time>
      </trkpt>
      <trkpt lat="47.2746" lon="-1.56094">
        <ele>25</ele>
        <time>2019-10-17T12:17:06.000Z</time>
      </trkpt>
      <trkpt lat="47.27457" lon="-1.56095">
        <ele>24</ele>
        <time>2019-10-17T12:17:07.000Z</time>
      </trkpt>
      <trkpt lat="47.27455" lon="-1.56096">
        <ele>24</ele>
        <time>2019-10-17T12:17:08.000Z</time>
      </trkpt>
      <trkpt lat="47.27454" lon="-1.56098">
        <ele>24</ele>
        <time>2019-10-17T12:17:09.000Z</time>
      </trkpt>
      <trkpt lat="47.27453" lon="-1.561">
        <ele>24</ele>
        <time>2019-10-17T12:17:10.000Z</time>
      </trkpt>
      <trkpt lat="47.27452" lon="-1.56102">
        <ele>24</ele>
        <time>2019-10-17T12:17:11.000Z</time>
      </trkpt>
      <trkpt lat="47.27451" lon="-1.56103">
        <ele>24</ele>
        <time>2019-10-17T12:17:12.000Z</time>
      </trkpt>
      <trkpt lat="47.27451" lon="-1.56104">
        <ele>24</ele>
        <time>2019-10-17T12:17:13.000Z</time>
      </trkpt>
      <trkpt lat="47.27452" lon="-1.56105">
        <ele>24</ele>
        <time>2019-10-17T12:17:14.000Z</time>
      </trkpt>
      <trkpt lat="47.27452" lon="-1.56106">
        <ele>24</ele>
        <time>2019-10-17T12:17:15.000Z</time>
      </trkpt>
      <trkpt lat="47.27453" lon="-1.56109">
        <ele>24</ele>
        <time>2019-10-17T12:17:16.000Z</time>
      </trkpt>
      <trkpt lat="47.27455" lon="-1.56112">
        <ele>24</ele>
        <time>2019-10-17T12:17:17.000Z</time>
      </trkpt>
      <trkpt lat="47.27456" lon="-1.56116">
        <ele>24</ele>
        <time>2019-10-17T12:17:18.000Z</time>
      </trkpt>
      <trkpt lat="47.27457" lon="-1.56119">
        <ele>23</ele>
        <time>2019-10-17T12:17:19.000Z</time>
      </trkpt>
      <trkpt lat="47.27457" lon="-1.5612">
        <ele>23</ele>
        <time>2019-10-17T12:17:20.000Z</time>
      </trkpt>
      <trkpt lat="47.27457" lon="-1.56122">
        <ele>23</ele>
        <time>2019-10-17T12:17:21.000Z</time>
      </trkpt>
      <trkpt lat="47.27456" lon="-1.56123">
        <ele>23</ele>
        <time>2019-10-17T12:17:22.000Z</time>
      </trkpt>
      <trkpt lat="47.27455" lon="-1.56124">
        <ele>22</ele>
        <time>2019-10-17T12:17:23.000Z</time>
      </trkpt>
      <trkpt lat="47.27454" lon="-1.56124">
        <ele>22</ele>
        <time>2019-10-17T12:17:24.000Z</time>
      </trkpt>
      <trkpt lat="47.27452" lon="-1.56125">
        <ele>22</ele>
        <time>2019-10-17T12:17:25.000Z</time>
      </trkpt>
      <trkpt lat="47.27452" lon="-1.56125">
        <ele>21</ele>
        <time>2019-10-17T12:17:26.000Z</time>
      </trkpt>
      <trkpt lat="47.27452" lon="-1.56126">
        <ele>21</ele>
        <time>2019-10-17T12:17:27.000Z</time>
      </trkpt>
      <trkpt lat="47.27451" lon="-1.56126">
        <ele>21</ele>
        <time>2019-10-17T12:17:28.000Z</time>
      </trkpt>
      <trkpt lat="47.27451" lon="-1.56127">
        <ele>21</ele>
        <time>2019-10-17T12:17:29.000Z</time>
      </trkpt>
      <trkpt lat="47.27451" lon="-1.56127">
        <ele>21</ele>
        <time>2019-10-17T12:17:30.000Z</time>
      </trkpt>
      <trkpt lat="47.27451" lon="-1.56127">
        <ele>20</ele>
        <time>2019-10-17T12:17:31.000Z</time>
      </trkpt>
      <trkpt lat="47.27451" lon="-1.56128">
        <ele>20</ele>
        <time>2019-10-17T12:17:32.000Z</time>
      </trkpt>
      <trkpt lat="47.27444" lon="-1.5613">
        <ele>19</ele>
        <time>2019-10-17T12:17:33.000Z</time>
      </trkpt>
      <trkpt lat="47.27444" lon="-1.5613">
        <ele>19</ele>
        <time>2019-10-17T12:17:34.000Z</time>
      </trkpt>
      <trkpt lat="47.27443" lon="-1.56131">
        <ele>19</ele>
        <time>2019-10-17T12:17:35.000Z</time>
      </trkpt>
      <trkpt lat="47.27441" lon="-1.56131">
        <ele>19</ele>
        <time>2019-10-17T12:17:36.000Z</time>
      </trkpt>
      <trkpt lat="47.2744" lon="-1.5613">
        <ele>19</ele>
        <time>2019-10-17T12:17:37.000Z</time>
      </trkpt>
      <trkpt lat="47.27438" lon="-1.56131">
        <ele>19</ele>
        <time>2019-10-17T12:17:38.000Z</time>
      </trkpt>
      <trkpt lat="47.27436" lon="-1.56132">
        <ele>19</ele>
        <time>2019-10-17T12:17:39.000Z</time>
      </trkpt>
      <trkpt lat="47.27434" lon="-1.56131">
        <ele>19</ele>
        <time>2019-10-17T12:17:40.000Z</time>
      </trkpt>
      <trkpt lat="47.27432" lon="-1.56129">
        <ele>19</ele>
        <time>2019-10-17T12:17:41.000Z</time>
      </trkpt>
      <trkpt lat="47.2743" lon="-1.56128">
        <ele>19</ele>
        <time>2019-10-17T12:17:42.000Z</time>
      </trkpt>
      <trkpt lat="47.27429" lon="-1.56129">
        <ele>19</ele>
        <time>2019-10-17T12:17:43.000Z</time>
      </trkpt>
      <trkpt lat="47.27426" lon="-1.56131">
        <ele>19</ele>
        <time>2019-10-17T12:17:44.000Z</time>
      </trkpt>
      <trkpt lat="47.27423" lon="-1.56133">
        <ele>19</ele>
        <time>2019-10-17T12:17:45.000Z</time>
      </trkpt>
      <trkpt lat="47.27419" lon="-1.56134">
        <ele>19</ele>
        <time>2019-10-17T12:17:46.000Z</time>
      </trkpt>
      <trkpt lat="47.27414" lon="-1.56135">
        <ele>19</ele>
        <time>2019-10-17T12:17:47.000Z</time>
      </trkpt>
      <trkpt lat="47.27408" lon="-1.56135">
        <ele>19</ele>
        <time>2019-10-17T12:17:48.000Z</time>
      </trkpt>
      <trkpt lat="47.27403" lon="-1.56134">
        <ele>19</ele>
        <time>2019-10-17T12:17:49.000Z</time>
      </trkpt>
      <trkpt lat="47.27399" lon="-1.56133">
        <ele>19</ele>
        <time>2019-10-17T12:17:50.000Z</time>
      </trkpt>
      <trkpt lat="47.27395" lon="-1.56132">
        <ele>19</ele>
        <time>2019-10-17T12:17:51.000Z</time>
      </trkpt>
      <trkpt lat="47.27392" lon="-1.56132">
        <ele>18</ele>
        <time>2019-10-17T12:17:52.000Z</time>
      </trkpt>
      <trkpt lat="47.27387" lon="-1.56132">
        <ele>18</ele>
        <time>2019-10-17T12:17:53.000Z</time>
      </trkpt>
      <trkpt lat="47.27383" lon="-1.56133">
        <ele>18</ele>
        <time>2019-10-17T12:17:54.000Z</time>
      </trkpt>
      <trkpt lat="47.27378" lon="-1.56133">
        <ele>17</ele>
        <time>2019-10-17T12:17:55.000Z</time>
      </trkpt>
      <trkpt lat="47.27374" lon="-1.56133">
        <ele>17</ele>
        <time>2019-10-17T12:17:56.000Z</time>
      </trkpt>
      <trkpt lat="47.2737" lon="-1.56132">
        <ele>17</ele>
        <time>2019-10-17T12:17:57.000Z</time>
      </trkpt>
      <trkpt lat="47.27366" lon="-1.56131">
        <ele>16</ele>
        <time>2019-10-17T12:17:58.000Z</time>
      </trkpt>
      <trkpt lat="47.27363" lon="-1.56129">
        <ele>16</ele>
        <time>2019-10-17T12:17:59.000Z</time>
      </trkpt>
      <trkpt lat="47.27362" lon="-1.56128">
        <ele>16</ele>
        <time>2019-10-17T12:18:00.000Z</time>
      </trkpt>
      <trkpt lat="47.27361" lon="-1.56126">
        <ele>16</ele>
        <time>2019-10-17T12:18:01.000Z</time>
      </trkpt>
      <trkpt lat="47.27359" lon="-1.56126">
        <ele>16</ele>
        <time>2019-10-17T12:18:02.000Z</time>
      </trkpt>
      <trkpt lat="47.27357" lon="-1.56125">
        <ele>15</ele>
        <time>2019-10-17T12:18:03.000Z</time>
      </trkpt>
      <trkpt lat="47.27355" lon="-1.56124">
        <ele>15</ele>
        <time>2019-10-17T12:18:04.000Z</time>
      </trkpt>
      <trkpt lat="47.27352" lon="-1.56122">
        <ele>15</ele>
        <time>2019-10-17T12:18:05.000Z</time>
      </trkpt>
      <trkpt lat="47.27349" lon="-1.5612">
        <ele>15</ele>
        <time>2019-10-17T12:18:06.000Z</time>
      </trkpt>
      <trkpt lat="47.27347" lon="-1.56118">
        <ele>15</ele>
        <time>2019-10-17T12:18:07.000Z</time>
      </trkpt>
      <trkpt lat="47.27345" lon="-1.56117">
        <ele>14</ele>
        <time>2019-10-17T12:18:08.000Z</time>
      </trkpt>
      <trkpt lat="47.27342" lon="-1.56116">
        <ele>14</ele>
        <time>2019-10-17T12:18:09.000Z</time>
      </trkpt>
      <trkpt lat="47.27339" lon="-1.56114">
        <ele>14</ele>
        <time>2019-10-17T12:18:10.000Z</time>
      </trkpt>
      <trkpt lat="47.27335" lon="-1.56111">
        <ele>14</ele>
        <time>2019-10-17T12:18:11.000Z</time>
      </trkpt>
      <trkpt lat="47.27331" lon="-1.56108">
        <ele>14</ele>
        <time>2019-10-17T12:18:12.000Z</time>
      </trkpt>
      <trkpt lat="47.27327" lon="-1.56105">
        <ele>13</ele>
        <time>2019-10-17T12:18:13.000Z</time>
      </trkpt>
      <trkpt lat="47.27323" lon="-1.56102">
        <ele>13</ele>
        <time>2019-10-17T12:18:14.000Z</time>
      </trkpt>
      <trkpt lat="47.2732" lon="-1.56099">
        <ele>13</ele>
        <time>2019-10-17T12:18:15.000Z</time>
      </trkpt>
      <trkpt lat="47.27316" lon="-1.56096">
        <ele>12</ele>
        <time>2019-10-17T12:18:16.000Z</time>
      </trkpt>
      <trkpt lat="47.27312" lon="-1.56092">
        <ele>12</ele>
        <time>2019-10-17T12:18:17.000Z</time>
      </trkpt>
      <trkpt lat="47.27309" lon="-1.56089">
        <ele>11</ele>
        <time>2019-10-17T12:18:18.000Z</time>
      </trkpt>
      <trkpt lat="47.27307" lon="-1.56088">
        <ele>11</ele>
        <time>2019-10-17T12:18:19.000Z</time>
      </trkpt>
      <trkpt lat="47.27307" lon="-1.56087">
        <ele>11</ele>
        <time>2019-10-17T12:18:20.000Z</time>
      </trkpt>
      <trkpt lat="47.27306" lon="-1.56087">
        <ele>11</ele>
        <time>2019-10-17T12:18:21.000Z</time>
      </trkpt>
      <trkpt lat="47.27305" lon="-1.56087">
        <ele>10</ele>
        <time>2019-10-17T12:18:22.000Z</time>
      </trkpt>
      <trkpt lat="47.27305" lon="-1.56088">
        <ele>10</ele>
        <time>2019-10-17T12:18:23.000Z</time>
      </trkpt>
      <trkpt lat="47.27308" lon="-1.56084">
        <ele>9</ele>
        <time>2019-10-17T12:18:24.000Z</time>
      </trkpt>
      <trkpt lat="47.27309" lon="-1.56083">
        <ele>9</ele>
        <time>2019-10-17T12:18:25.000Z</time>
      </trkpt>
      <trkpt lat="47.2731" lon="-1.56082">
        <ele>9</ele>
        <time>2019-10-17T12:18:26.000Z</time>
      </trkpt>
      <trkpt lat="47.2731" lon="-1.5608">
        <ele>9</ele>
        <time>2019-10-17T12:18:27.000Z</time>
      </trkpt>
      <trkpt lat="47.27312" lon="-1.56078">
        <ele>9</ele>
        <time>2019-10-17T12:18:28.000Z</time>
      </trkpt>
      <trkpt lat="47.27313" lon="-1.56076">
        <ele>9</ele>
        <time>2019-10-17T12:18:29.000Z</time>
      </trkpt>
      <trkpt lat="47.27313" lon="-1.56074">
        <ele>9</ele>
        <time>2019-10-17T12:18:30.000Z</time>
      </trkpt>
      <trkpt lat="47.27314" lon="-1.56072">
        <ele>10</ele>
        <time>2019-10-17T12:18:31.000Z</time>
      </trkpt>
      <trkpt lat="47.27316" lon="-1.5607">
        <ele>10</ele>
        <time>2019-10-17T12:18:32.000Z</time>
      </trkpt>
      <trkpt lat="47.27316" lon="-1.56068">
        <ele>10</ele>
        <time>2019-10-17T12:18:33.000Z</time>
      </trkpt>
      <trkpt lat="47.27316" lon="-1.56066">
        <ele>10</ele>
        <time>2019-10-17T12:18:34.000Z</time>
      </trkpt>
      <trkpt lat="47.27316" lon="-1.56063">
        <ele>10</ele>
        <time>2019-10-17T12:18:35.000Z</time>
      </trkpt>
      <trkpt lat="47.27317" lon="-1.56061">
        <ele>10</ele>
        <time>2019-10-17T12:18:36.000Z</time>
      </trkpt>
      <trkpt lat="47.27318" lon="-1.5606">
        <ele>10</ele>
        <time>2019-10-17T12:18:37.000Z</time>
      </trkpt>
      <trkpt lat="47.27318" lon="-1.56058">
        <ele>11</ele>
        <time>2019-10-17T12:18:38.000Z</time>
      </trkpt>
      <trkpt lat="47.27318" lon="-1.56056">
        <ele>11</ele>
        <time>2019-10-17T12:18:39.000Z</time>
      </trkpt>
      <trkpt lat="47.27318" lon="-1.56054">
        <ele>11</ele>
        <time>2019-10-17T12:18:40.000Z</time>
      </trkpt>
      <trkpt lat="47.27319" lon="-1.56052">
        <ele>11</ele>
        <time>2019-10-17T12:18:41.000Z</time>
      </trkpt>
      <trkpt lat="47.2732" lon="-1.5605">
        <ele>12</ele>
        <time>2019-10-17T12:18:42.000Z</time>
      </trkpt>
      <trkpt lat="47.27321" lon="-1.56047">
        <ele>12</ele>
        <time>2019-10-17T12:18:43.000Z</time>
      </trkpt>
      <trkpt lat="47.27321" lon="-1.56045">
        <ele>12</ele>
        <time>2019-10-17T12:18:44.000Z</time>
      </trkpt>
      <trkpt lat="47.27322" lon="-1.56042">
        <ele>12</ele>
        <time>2019-10-17T12:18:45.000Z</time>
      </trkpt>
      <trkpt lat="47.27322" lon="-1.56039">
        <ele>13</ele>
        <time>2019-10-17T12:18:46.000Z</time>
      </trkpt>
      <trkpt lat="47.27323" lon="-1.56036">
        <ele>13</ele>
        <time>2019-10-17T12:18:47.000Z</time>
      </trkpt>
      <trkpt lat="47.27324" lon="-1.56033">
        <ele>13</ele>
        <time>2019-10-17T12:18:48.000Z</time>
      </trkpt>
      <trkpt lat="47.27324" lon="-1.56031">
        <ele>13</ele>
        <time>2019-10-17T12:18:49.000Z</time>
      </trkpt>
      <trkpt lat="47.27325" lon="-1.56029">
        <ele>14</ele>
        <time>2019-10-17T12:18:50.000Z</time>
      </trkpt>
      <trkpt lat="47.27326" lon="-1.56027">
        <ele>14</ele>
        <time>2019-10-17T12:18:51.000Z</time>
      </trkpt>
      <trkpt lat="47.27326" lon="-1.56025">
        <ele>14</ele>
        <time>2019-10-17T12:18:52.000Z</time>
      </trkpt>
      <trkpt lat="47.27326" lon="-1.56022">
        <ele>14</ele>
        <time>2019-10-17T12:18:53.000Z</time>
      </trkpt>
      <trkpt lat="47.27326" lon="-1.5602">
        <ele>15</ele>
        <time>2019-10-17T12:18:54.000Z</time>
      </trkpt>
      <trkpt lat="47.27328" lon="-1.56017">
        <ele>15</ele>
        <time>2019-10-17T12:18:55.000Z</time>
      </trkpt>
      <trkpt lat="47.27329" lon="-1.56014">
        <ele>15</ele>
        <time>2019-10-17T12:18:56.000Z</time>
      </trkpt>
      <trkpt lat="47.27331" lon="-1.56011">
        <ele>15</ele>
        <time>2019-10-17T12:18:57.000Z</time>
      </trkpt>
      <trkpt lat="47.27332" lon="-1.56007">
        <ele>16</ele>
        <time>2019-10-17T12:18:58.000Z</time>
      </trkpt>
      <trkpt lat="47.27333" lon="-1.56003">
        <ele>16</ele>
        <time>2019-10-17T12:18:59.000Z</time>
      </trkpt>
      <trkpt lat="47.27333" lon="-1.55999">
        <ele>16</ele>
        <time>2019-10-17T12:19:00.000Z</time>
      </trkpt>
      <trkpt lat="47.27333" lon="-1.55996">
        <ele>17</ele>
        <time>2019-10-17T12:19:01.000Z</time>
      </trkpt>
      <trkpt lat="47.27334" lon="-1.55993">
        <ele>17</ele>
        <time>2019-10-17T12:19:02.000Z</time>
      </trkpt>
      <trkpt lat="47.27335" lon="-1.55991">
        <ele>17</ele>
        <time>2019-10-17T12:19:03.000Z</time>
      </trkpt>
      <trkpt lat="47.27335" lon="-1.55988">
        <ele>17</ele>
        <time>2019-10-17T12:19:04.000Z</time>
      </trkpt>
      <trkpt lat="47.27336" lon="-1.55986">
        <ele>18</ele>
        <time>2019-10-17T12:19:05.000Z</time>
      </trkpt>
      <trkpt lat="47.27336" lon="-1.55983">
        <ele>18</ele>
        <time>2019-10-17T12:19:06.000Z</time>
      </trkpt>
      <trkpt lat="47.27336" lon="-1.5598">
        <ele>18</ele>
        <time>2019-10-17T12:19:07.000Z</time>
      </trkpt>
      <trkpt lat="47.27336" lon="-1.55978">
        <ele>19</ele>
        <time>2019-10-17T12:19:08.000Z</time>
      </trkpt>
      <trkpt lat="47.27334" lon="-1.55976">
        <ele>19</ele>
        <time>2019-10-17T12:19:09.000Z</time>
      </trkpt>
      <trkpt lat="47.27333" lon="-1.55974">
        <ele>19</ele>
        <time>2019-10-17T12:19:10.000Z</time>
      </trkpt>
      <trkpt lat="47.27333" lon="-1.55971">
        <ele>20</ele>
        <time>2019-10-17T12:19:11.000Z</time>
      </trkpt>
      <trkpt lat="47.27333" lon="-1.55969">
        <ele>20</ele>
        <time>2019-10-17T12:19:12.000Z</time>
      </trkpt>
      <trkpt lat="47.27332" lon="-1.55966">
        <ele>20</ele>
        <time>2019-10-17T12:19:13.000Z</time>
      </trkpt>
      <trkpt lat="47.27332" lon="-1.55964">
        <ele>20</ele>
        <time>2019-10-17T12:19:14.000Z</time>
      </trkpt>
      <trkpt lat="47.27331" lon="-1.55961">
        <ele>21</ele>
        <time>2019-10-17T12:19:15.000Z</time>
      </trkpt>
      <trkpt lat="47.27331" lon="-1.55959">
        <ele>21</ele>
        <time>2019-10-17T12:19:16.000Z</time>
      </trkpt>
      <trkpt lat="47.2733" lon="-1.55957">
        <ele>21</ele>
        <time>2019-10-17T12:19:17.000Z</time>
      </trkpt>
      <trkpt lat="47.2733" lon="-1.55956">
        <ele>21</ele>
        <time>2019-10-17T12:19:18.000Z</time>
      </trkpt>
      <trkpt lat="47.27329" lon="-1.55954">
        <ele>22</ele>
        <time>2019-10-17T12:19:19.000Z</time>
      </trkpt>
      <trkpt lat="47.27328" lon="-1.55952">
        <ele>22</ele>
        <time>2019-10-17T12:19:20.000Z</time>
      </trkpt>
      <trkpt lat="47.27328" lon="-1.55949">
        <ele>22</ele>
        <time>2019-10-17T12:19:21.000Z</time>
      </trkpt>
      <trkpt lat="47.27328" lon="-1.55947">
        <ele>23</ele>
        <time>2019-10-17T12:19:22.000Z</time>
      </trkpt>
      <trkpt lat="47.27328" lon="-1.55944">
        <ele>23</ele>
        <time>2019-10-17T12:19:23.000Z</time>
      </trkpt>
      <trkpt lat="47.27328" lon="-1.55941">
        <ele>23</ele>
        <time>2019-10-17T12:19:24.000Z</time>
      </trkpt>
      <trkpt lat="47.27328" lon="-1.55939">
        <ele>24</ele>
        <time>2019-10-17T12:19:25.000Z</time>
      </trkpt>
      <trkpt lat="47.27326" lon="-1.55937">
        <ele>24</ele>
        <time>2019-10-17T12:19:26.000Z</time>
      </trkpt>
      <trkpt lat="47.27324" lon="-1.55935">
        <ele>25</ele>
        <time>2019-10-17T12:19:27.000Z</time>
      </trkpt>
      <trkpt lat="47.27323" lon="-1.55933">
        <ele>25</ele>
        <time>2019-10-17T12:19:28.000Z</time>
      </trkpt>
      <trkpt lat="47.2732" lon="-1.55931">
        <ele>25</ele>
        <time>2019-10-17T12:19:29.000Z</time>
      </trkpt>
      <trkpt lat="47.27318" lon="-1.5593">
        <ele>26</ele>
        <time>2019-10-17T12:19:30.000Z</time>
      </trkpt>
      <trkpt lat="47.27314" lon="-1.55928">
        <ele>26</ele>
        <time>2019-10-17T12:19:31.000Z</time>
      </trkpt>
      <trkpt lat="47.27311" lon="-1.55926">
        <ele>27</ele>
        <time>2019-10-17T12:19:32.000Z</time>
      </trkpt>
      <trkpt lat="47.27308" lon="-1.55924">
        <ele>27</ele>
        <time>2019-10-17T12:19:33.000Z</time>
      </trkpt>
      <trkpt lat="47.27305" lon="-1.55922">
        <ele>27</ele>
        <time>2019-10-17T12:19:34.000Z</time>
      </trkpt>
      <trkpt lat="47.27303" lon="-1.55919">
        <ele>27</ele>
        <time>2019-10-17T12:19:35.000Z</time>
      </trkpt>
      <trkpt lat="47.27302" lon="-1.55916">
        <ele>27</ele>
        <time>2019-10-17T12:19:36.000Z</time>
      </trkpt>
      <trkpt lat="47.27301" lon="-1.55914">
        <ele>28</ele>
        <time>2019-10-17T12:19:37.000Z</time>
      </trkpt>
      <trkpt lat="47.27301" lon="-1.55912">
        <ele>28</ele>
        <time>2019-10-17T12:19:38.000Z</time>
      </trkpt>
      <trkpt lat="47.273" lon="-1.5591">
        <ele>28</ele>
        <time>2019-10-17T12:19:39.000Z</time>
      </trkpt>
      <trkpt lat="47.27298" lon="-1.55907">
        <ele>28</ele>
        <time>2019-10-17T12:19:40.000Z</time>
      </trkpt>
      <trkpt lat="47.27296" lon="-1.55905">
        <ele>28</ele>
        <time>2019-10-17T12:19:41.000Z</time>
      </trkpt>
      <trkpt lat="47.27293" lon="-1.55903">
        <ele>28</ele>
        <time>2019-10-17T12:19:42.000Z</time>
      </trkpt>
      <trkpt lat="47.27291" lon="-1.55901">
        <ele>28</ele>
        <time>2019-10-17T12:19:43.000Z</time>
      </trkpt>
      <trkpt lat="47.27289" lon="-1.55899">
        <ele>29</ele>
        <time>2019-10-17T12:19:44.000Z</time>
      </trkpt>
      <trkpt lat="47.27286" lon="-1.55897">
        <ele>29</ele>
        <time>2019-10-17T12:19:45.000Z</time>
      </trkpt>
      <trkpt lat="47.27284" lon="-1.55894">
        <ele>28</ele>
        <time>2019-10-17T12:19:46.000Z</time>
      </trkpt>
      <trkpt lat="47.27282" lon="-1.55892">
        <ele>28</ele>
        <time>2019-10-17T12:19:47.000Z</time>
      </trkpt>
      <trkpt lat="47.27279" lon="-1.5589">
        <ele>28</ele>
        <time>2019-10-17T12:19:48.000Z</time>
      </trkpt>
      <trkpt lat="47.27277" lon="-1.55887">
        <ele>28</ele>
        <time>2019-10-17T12:19:49.000Z</time>
      </trkpt>
      <trkpt lat="47.27275" lon="-1.55884">
        <ele>28</ele>
        <time>2019-10-17T12:19:50.000Z</time>
      </trkpt>
      <trkpt lat="47.27273" lon="-1.55882">
        <ele>28</ele>
        <time>2019-10-17T12:19:51.000Z</time>
      </trkpt>
      <trkpt lat="47.27271" lon="-1.55879">
        <ele>28</ele>
        <time>2019-10-17T12:19:52.000Z</time>
      </trkpt>
      <trkpt lat="47.27268" lon="-1.55877">
        <ele>28</ele>
        <time>2019-10-17T12:19:53.000Z</time>
      </trkpt>
      <trkpt lat="47.27266" lon="-1.55874">
        <ele>28</ele>
        <time>2019-10-17T12:19:54.000Z</time>
      </trkpt>
      <trkpt lat="47.27264" lon="-1.55871">
        <ele>28</ele>
        <time>2019-10-17T12:19:55.000Z</time>
      </trkpt>
      <trkpt lat="47.27263" lon="-1.55868">
        <ele>28</ele>
        <time>2019-10-17T12:19:56.000Z</time>
      </trkpt>
      <trkpt lat="47.27262" lon="-1.55865">
        <ele>28</ele>
        <time>2019-10-17T12:19:57.000Z</time>
      </trkpt>
      <trkpt lat="47.27261" lon="-1.55863">
        <ele>28</ele>
        <time>2019-10-17T12:19:58.000Z</time>
      </trkpt>
      <trkpt lat="47.27259" lon="-1.55861">
        <ele>28</ele>
        <time>2019-10-17T12:19:59.000Z</time>
      </trkpt>
      <trkpt lat="47.27257" lon="-1.55859">
        <ele>28</ele>
        <time>2019-10-17T12:20:00.000Z</time>
      </trkpt>
      <trkpt lat="47.27255" lon="-1.55857">
        <ele>28</ele>
        <time>2019-10-17T12:20:01.000Z</time>
      </trkpt>
      <trkpt lat="47.27254" lon="-1.55855">
        <ele>28</ele>
        <time>2019-10-17T12:20:02.000Z</time>
      </trkpt>
      <trkpt lat="47.27253" lon="-1.55854">
        <ele>28</ele>
        <time>2019-10-17T12:20:03.000Z</time>
      </trkpt>
      <trkpt lat="47.27252" lon="-1.55853">
        <ele>28</ele>
        <time>2019-10-17T12:20:04.000Z</time>
      </trkpt>
      <trkpt lat="47.27251" lon="-1.55852">
        <ele>27</ele>
        <time>2019-10-17T12:20:05.000Z</time>
      </trkpt>
      <trkpt lat="47.2725" lon="-1.55852">
        <ele>27</ele>
        <time>2019-10-17T12:20:06.000Z</time>
      </trkpt>
      <trkpt lat="47.2725" lon="-1.55851">
        <ele>27</ele>
        <time>2019-10-17T12:20:07.000Z</time>
      </trkpt>
      <trkpt lat="47.27239" lon="-1.55839">
        <ele>28</ele>
        <time>2019-10-17T12:20:08.000Z</time>
      </trkpt>
      <trkpt lat="47.27237" lon="-1.5584">
        <ele>28</ele>
        <time>2019-10-17T12:20:09.000Z</time>
      </trkpt>
      <trkpt lat="47.27234" lon="-1.55841">
        <ele>28</ele>
        <time>2019-10-17T12:20:10.000Z</time>
      </trkpt>
      <trkpt lat="47.27231" lon="-1.55842">
        <ele>28</ele>
        <time>2019-10-17T12:20:11.000Z</time>
      </trkpt>
      <trkpt lat="47.27228" lon="-1.55843">
        <ele>28</ele>
        <time>2019-10-17T12:20:12.000Z</time>
      </trkpt>
      <trkpt lat="47.27225" lon="-1.55844">
        <ele>28</ele>
        <time>2019-10-17T12:20:13.000Z</time>
      </trkpt>
      <trkpt lat="47.27222" lon="-1.55845">
        <ele>28</ele>
        <time>2019-10-17T12:20:14.000Z</time>
      </trkpt>
      <trkpt lat="47.27219" lon="-1.55846">
        <ele>29</ele>
        <time>2019-10-17T12:20:15.000Z</time>
      </trkpt>
      <trkpt lat="47.27217" lon="-1.55849">
        <ele>29</ele>
        <time>2019-10-17T12:20:16.000Z</time>
      </trkpt>
      <trkpt lat="47.27214" lon="-1.55851">
        <ele>29</ele>
        <time>2019-10-17T12:20:17.000Z</time>
      </trkpt>
      <trkpt lat="47.27211" lon="-1.55854">
        <ele>29</ele>
        <time>2019-10-17T12:20:18.000Z</time>
      </trkpt>
      <trkpt lat="47.27209" lon="-1.55856">
        <ele>29</ele>
        <time>2019-10-17T12:20:19.000Z</time>
      </trkpt>
      <trkpt lat="47.27207" lon="-1.5586">
        <ele>28</ele>
        <time>2019-10-17T12:20:20.000Z</time>
      </trkpt>
      <trkpt lat="47.27207" lon="-1.55863">
        <ele>28</ele>
        <time>2019-10-17T12:20:21.000Z</time>
      </trkpt>
      <trkpt lat="47.27206" lon="-1.55867">
        <ele>28</ele>
        <time>2019-10-17T12:20:22.000Z</time>
      </trkpt>
      <trkpt lat="47.27207" lon="-1.55871">
        <ele>28</ele>
        <time>2019-10-17T12:20:23.000Z</time>
      </trkpt>
      <trkpt lat="47.27207" lon="-1.55875">
        <ele>28</ele>
        <time>2019-10-17T12:20:24.000Z</time>
      </trkpt>
      <trkpt lat="47.27207" lon="-1.55879">
        <ele>28</ele>
        <time>2019-10-17T12:20:25.000Z</time>
      </trkpt>
      <trkpt lat="47.27207" lon="-1.55882">
        <ele>27</ele>
        <time>2019-10-17T12:20:26.000Z</time>
      </trkpt>
      <trkpt lat="47.27208" lon="-1.55886">
        <ele>27</ele>
        <time>2019-10-17T12:20:27.000Z</time>
      </trkpt>
      <trkpt lat="47.27209" lon="-1.5589">
        <ele>27</ele>
        <time>2019-10-17T12:20:28.000Z</time>
      </trkpt>
      <trkpt lat="47.2721" lon="-1.55895">
        <ele>27</ele>
        <time>2019-10-17T12:20:29.000Z</time>
      </trkpt>
      <trkpt lat="47.27211" lon="-1.559">
        <ele>27</ele>
        <time>2019-10-17T12:20:30.000Z</time>
      </trkpt>
      <trkpt lat="47.27212" lon="-1.55904">
        <ele>27</ele>
        <time>2019-10-17T12:20:31.000Z</time>
      </trkpt>
      <trkpt lat="47.27211" lon="-1.55908">
        <ele>26</ele>
        <time>2019-10-17T12:20:32.000Z</time>
      </trkpt>
      <trkpt lat="47.27209" lon="-1.5591">
        <ele>26</ele>
        <time>2019-10-17T12:20:33.000Z</time>
      </trkpt>
      <trkpt lat="47.27207" lon="-1.55912">
        <ele>26</ele>
        <time>2019-10-17T12:20:34.000Z</time>
      </trkpt>
      <trkpt lat="47.27205" lon="-1.55914">
        <ele>26</ele>
        <time>2019-10-17T12:20:35.000Z</time>
      </trkpt>
      <trkpt lat="47.27203" lon="-1.55917">
        <ele>25</ele>
        <time>2019-10-17T12:20:36.000Z</time>
      </trkpt>
      <trkpt lat="47.272" lon="-1.55919">
        <ele>25</ele>
        <time>2019-10-17T12:20:37.000Z</time>
      </trkpt>
      <trkpt lat="47.27198" lon="-1.55919">
        <ele>25</ele>
        <time>2019-10-17T12:20:38.000Z</time>
      </trkpt>
      <trkpt lat="47.27195" lon="-1.55919">
        <ele>25</ele>
        <time>2019-10-17T12:20:39.000Z</time>
      </trkpt>
      <trkpt lat="47.27191" lon="-1.55919">
        <ele>25</ele>
        <time>2019-10-17T12:20:40.000Z</time>
      </trkpt>
      <trkpt lat="47.27188" lon="-1.55919">
        <ele>24</ele>
        <time>2019-10-17T12:20:41.000Z</time>
      </trkpt>
      <trkpt lat="47.27184" lon="-1.5592">
        <ele>24</ele>
        <time>2019-10-17T12:20:42.000Z</time>
      </trkpt>
      <trkpt lat="47.27181" lon="-1.55923">
        <ele>24</ele>
        <time>2019-10-17T12:20:43.000Z</time>
      </trkpt>
      <trkpt lat="47.27177" lon="-1.55926">
        <ele>24</ele>
        <time>2019-10-17T12:20:44.000Z</time>
      </trkpt>
      <trkpt lat="47.27174" lon="-1.55928">
        <ele>23</ele>
        <time>2019-10-17T12:20:45.000Z</time>
      </trkpt>
      <trkpt lat="47.2717" lon="-1.55928">
        <ele>23</ele>
        <time>2019-10-17T12:20:46.000Z</time>
      </trkpt>
      <trkpt lat="47.27168" lon="-1.55926">
        <ele>23</ele>
        <time>2019-10-17T12:20:47.000Z</time>
      </trkpt>
      <trkpt lat="47.27168" lon="-1.55925">
        <ele>22</ele>
        <time>2019-10-17T12:20:48.000Z</time>
      </trkpt>
      <trkpt lat="47.27168" lon="-1.55922">
        <ele>22</ele>
        <time>2019-10-17T12:20:49.000Z</time>
      </trkpt>
      <trkpt lat="47.27167" lon="-1.5592">
        <ele>22</ele>
        <time>2019-10-17T12:20:50.000Z</time>
      </trkpt>
      <trkpt lat="47.27167" lon="-1.55917">
        <ele>22</ele>
        <time>2019-10-17T12:20:51.000Z</time>
      </trkpt>
      <trkpt lat="47.27165" lon="-1.55914">
        <ele>22</ele>
        <time>2019-10-17T12:20:52.000Z</time>
      </trkpt>
      <trkpt lat="47.27162" lon="-1.55911">
        <ele>21</ele>
        <time>2019-10-17T12:20:53.000Z</time>
      </trkpt>
      <trkpt lat="47.2716" lon="-1.55907">
        <ele>21</ele>
        <time>2019-10-17T12:20:54.000Z</time>
      </trkpt>
      <trkpt lat="47.27157" lon="-1.55903">
        <ele>21</ele>
        <time>2019-10-17T12:20:55.000Z</time>
      </trkpt>
      <trkpt lat="47.27154" lon="-1.55899">
        <ele>21</ele>
        <time>2019-10-17T12:20:56.000Z</time>
      </trkpt>
      <trkpt lat="47.27151" lon="-1.55895">
        <ele>20</ele>
        <time>2019-10-17T12:20:57.000Z</time>
      </trkpt>
      <trkpt lat="47.27148" lon="-1.55892">
        <ele>20</ele>
        <time>2019-10-17T12:20:58.000Z</time>
      </trkpt>
      <trkpt lat="47.27145" lon="-1.5589">
        <ele>20</ele>
        <time>2019-10-17T12:20:59.000Z</time>
      </trkpt>
      <trkpt lat="47.2714" lon="-1.55888">
        <ele>19</ele>
        <time>2019-10-17T12:21:00.000Z</time>
      </trkpt>
      <trkpt lat="47.27135" lon="-1.55886">
        <ele>19</ele>
        <time>2019-10-17T12:21:01.000Z</time>
      </trkpt>
      <trkpt lat="47.2713" lon="-1.55882">
        <ele>19</ele>
        <time>2019-10-17T12:21:02.000Z</time>
      </trkpt>
      <trkpt lat="47.27126" lon="-1.55875">
        <ele>18</ele>
        <time>2019-10-17T12:21:03.000Z</time>
      </trkpt>
      <trkpt lat="47.27122" lon="-1.55869">
        <ele>18</ele>
        <time>2019-10-17T12:21:04.000Z</time>
      </trkpt>
      <trkpt lat="47.2712" lon="-1.55863">
        <ele>17</ele>
        <time>2019-10-17T12:21:05.000Z</time>
      </trkpt>
      <trkpt lat="47.27117" lon="-1.55856">
        <ele>17</ele>
        <time>2019-10-17T12:21:06.000Z</time>
      </trkpt>
      <trkpt lat="47.27115" lon="-1.55848">
        <ele>17</ele>
        <time>2019-10-17T12:21:07.000Z</time>
      </trkpt>
      <trkpt lat="47.27115" lon="-1.55841">
        <ele>16</ele>
        <time>2019-10-17T12:21:08.000Z</time>
      </trkpt>
      <trkpt lat="47.27114" lon="-1.55835">
        <ele>16</ele>
        <time>2019-10-17T12:21:09.000Z</time>
      </trkpt>
      <trkpt lat="47.27114" lon="-1.5583">
        <ele>15</ele>
        <time>2019-10-17T12:21:10.000Z</time>
      </trkpt>
      <trkpt lat="47.27115" lon="-1.55826">
        <ele>15</ele>
        <time>2019-10-17T12:21:11.000Z</time>
      </trkpt>
      <trkpt lat="47.27116" lon="-1.55821">
        <ele>15</ele>
        <time>2019-10-17T12:21:12.000Z</time>
      </trkpt>
      <trkpt lat="47.27115" lon="-1.55817">
        <ele>14</ele>
        <time>2019-10-17T12:21:13.000Z</time>
      </trkpt>
      <trkpt lat="47.27115" lon="-1.55813">
        <ele>14</ele>
        <time>2019-10-17T12:21:14.000Z</time>
      </trkpt>
      <trkpt lat="47.27114" lon="-1.5581">
        <ele>14</ele>
        <time>2019-10-17T12:21:15.000Z</time>
      </trkpt>
      <trkpt lat="47.27111" lon="-1.55809">
        <ele>13</ele>
        <time>2019-10-17T12:21:16.000Z</time>
      </trkpt>
      <trkpt lat="47.27109" lon="-1.55809">
        <ele>13</ele>
        <time>2019-10-17T12:21:17.000Z</time>
      </trkpt>
      <trkpt lat="47.27108" lon="-1.55807">
        <ele>13</ele>
        <time>2019-10-17T12:21:18.000Z</time>
      </trkpt>
      <trkpt lat="47.27106" lon="-1.55806">
        <ele>13</ele>
        <time>2019-10-17T12:21:19.000Z</time>
      </trkpt>
      <trkpt lat="47.27104" lon="-1.55805">
        <ele>13</ele>
        <time>2019-10-17T12:21:20.000Z</time>
      </trkpt>
      <trkpt lat="47.27103" lon="-1.55804">
        <ele>12</ele>
        <time>2019-10-17T12:21:21.000Z</time>
      </trkpt>
      <trkpt lat="47.27101" lon="-1.55803">
        <ele>12</ele>
        <time>2019-10-17T12:21:22.000Z</time>
      </trkpt>
      <trkpt lat="47.271" lon="-1.55801">
        <ele>12</ele>
        <time>2019-10-17T12:21:23.000Z</time>
      </trkpt>
      <trkpt lat="47.27098" lon="-1.55798">
        <ele>12</ele>
        <time>2019-10-17T12:21:24.000Z</time>
      </trkpt>
      <trkpt lat="47.27095" lon="-1.55795">
        <ele>11</ele>
        <time>2019-10-17T12:21:25.000Z</time>
      </trkpt>
      <trkpt lat="47.27093" lon="-1.5579">
        <ele>11</ele>
        <time>2019-10-17T12:21:26.000Z</time>
      </trkpt>
      <trkpt lat="47.2709" lon="-1.55784">
        <ele>11</ele>
        <time>2019-10-17T12:21:27.000Z</time>
      </trkpt>
      <trkpt lat="47.27087" lon="-1.5578">
        <ele>11</ele>
        <time>2019-10-17T12:21:28.000Z</time>
      </trkpt>
      <trkpt lat="47.27085" lon="-1.55776">
        <ele>11</ele>
        <time>2019-10-17T12:21:29.000Z</time>
      </trkpt>
      <trkpt lat="47.27084" lon="-1.55773">
        <ele>11</ele>
        <time>2019-10-17T12:21:30.000Z</time>
      </trkpt>
      <trkpt lat="47.27084" lon="-1.55771">
        <ele>10</ele>
        <time>2019-10-17T12:21:31.000Z</time>
      </trkpt>
      <trkpt lat="47.27084" lon="-1.55769">
        <ele>10</ele>
        <time>2019-10-17T12:21:32.000Z</time>
      </trkpt>
      <trkpt lat="47.27083" lon="-1.55768">
        <ele>10</ele>
        <time>2019-10-17T12:21:33.000Z</time>
      </trkpt>
      <trkpt lat="47.27083" lon="-1.55768">
        <ele>10</ele>
        <time>2019-10-17T12:21:34.000Z</time>
      </trkpt>
      <trkpt lat="47.27081" lon="-1.55761">
        <ele>10</ele>
        <time>2019-10-17T12:21:35.000Z</time>
      </trkpt>
      <trkpt lat="47.27081" lon="-1.55761">
        <ele>10</ele>
        <time>2019-10-17T12:21:36.000Z</time>
      </trkpt>
      <trkpt lat="47.27076" lon="-1.55753">
        <ele>11</ele>
        <time>2019-10-17T12:21:37.000Z</time>
      </trkpt>
      <trkpt lat="47.27075" lon="-1.55751">
        <ele>12</ele>
        <time>2019-10-17T12:21:38.000Z</time>
      </trkpt>
      <trkpt lat="47.27074" lon="-1.55749">
        <ele>12</ele>
        <time>2019-10-17T12:21:39.000Z</time>
      </trkpt>
      <trkpt lat="47.27075" lon="-1.55747">
        <ele>11</ele>
        <time>2019-10-17T12:21:40.000Z</time>
      </trkpt>
      <trkpt lat="47.27074" lon="-1.55745">
        <ele>11</ele>
        <time>2019-10-17T12:21:41.000Z</time>
      </trkpt>
      <trkpt lat="47.27073" lon="-1.55743">
        <ele>11</ele>
        <time>2019-10-17T12:21:42.000Z</time>
      </trkpt>
      <trkpt lat="47.27071" lon="-1.55741">
        <ele>11</ele>
        <time>2019-10-17T12:21:43.000Z</time>
      </trkpt>
      <trkpt lat="47.27071" lon="-1.55738">
        <ele>11</ele>
        <time>2019-10-17T12:21:44.000Z</time>
      </trkpt>
      <trkpt lat="47.27071" lon="-1.55736">
        <ele>11</ele>
        <time>2019-10-17T12:21:45.000Z</time>
      </trkpt>
      <trkpt lat="47.27071" lon="-1.55732">
        <ele>11</ele>
        <time>2019-10-17T12:21:46.000Z</time>
      </trkpt>
      <trkpt lat="47.27072" lon="-1.55729">
        <ele>11</ele>
        <time>2019-10-17T12:21:47.000Z</time>
      </trkpt>
      <trkpt lat="47.27073" lon="-1.55725">
        <ele>11</ele>
        <time>2019-10-17T12:21:48.000Z</time>
      </trkpt>
      <trkpt lat="47.27074" lon="-1.55721">
        <ele>11</ele>
        <time>2019-10-17T12:21:49.000Z</time>
      </trkpt>
      <trkpt lat="47.27075" lon="-1.55718">
        <ele>11</ele>
        <time>2019-10-17T12:21:50.000Z</time>
      </trkpt>
      <trkpt lat="47.27077" lon="-1.55714">
        <ele>11</ele>
        <time>2019-10-17T12:21:51.000Z</time>
      </trkpt>
      <trkpt lat="47.27078" lon="-1.55711">
        <ele>11</ele>
        <time>2019-10-17T12:21:52.000Z</time>
      </trkpt>
      <trkpt lat="47.27079" lon="-1.55707">
        <ele>11</ele>
        <time>2019-10-17T12:21:53.000Z</time>
      </trkpt>
      <trkpt lat="47.2708" lon="-1.55703">
        <ele>12</ele>
        <time>2019-10-17T12:21:54.000Z</time>
      </trkpt>
      <trkpt lat="47.27081" lon="-1.55699">
        <ele>12</ele>
        <time>2019-10-17T12:21:55.000Z</time>
      </trkpt>
      <trkpt lat="47.27082" lon="-1.55695">
        <ele>12</ele>
        <time>2019-10-17T12:21:56.000Z</time>
      </trkpt>
      <trkpt lat="47.27082" lon="-1.55691">
        <ele>12</ele>
        <time>2019-10-17T12:21:57.000Z</time>
      </trkpt>
      <trkpt lat="47.27082" lon="-1.55687">
        <ele>12</ele>
        <time>2019-10-17T12:21:58.000Z</time>
      </trkpt>
      <trkpt lat="47.27083" lon="-1.55683">
        <ele>12</ele>
        <time>2019-10-17T12:21:59.000Z</time>
      </trkpt>
      <trkpt lat="47.27084" lon="-1.55679">
        <ele>13</ele>
        <time>2019-10-17T12:22:00.000Z</time>
      </trkpt>
      <trkpt lat="47.27086" lon="-1.55676">
        <ele>13</ele>
        <time>2019-10-17T12:22:01.000Z</time>
      </trkpt>
      <trkpt lat="47.27087" lon="-1.55673">
        <ele>13</ele>
        <time>2019-10-17T12:22:02.000Z</time>
      </trkpt>
      <trkpt lat="47.27087" lon="-1.5567">
        <ele>13</ele>
        <time>2019-10-17T12:22:03.000Z</time>
      </trkpt>
      <trkpt lat="47.27086" lon="-1.55668">
        <ele>13</ele>
        <time>2019-10-17T12:22:04.000Z</time>
      </trkpt>
      <trkpt lat="47.27085" lon="-1.55666">
        <ele>13</ele>
        <time>2019-10-17T12:22:05.000Z</time>
      </trkpt>
      <trkpt lat="47.27084" lon="-1.55665">
        <ele>14</ele>
        <time>2019-10-17T12:22:06.000Z</time>
      </trkpt>
      <trkpt lat="47.27083" lon="-1.55663">
        <ele>13</ele>
        <time>2019-10-17T12:22:07.000Z</time>
      </trkpt>
      <trkpt lat="47.27082" lon="-1.55661">
        <ele>13</ele>
        <time>2019-10-17T12:22:08.000Z</time>
      </trkpt>
      <trkpt lat="47.27082" lon="-1.55658">
        <ele>13</ele>
        <time>2019-10-17T12:22:09.000Z</time>
      </trkpt>
      <trkpt lat="47.27081" lon="-1.55656">
        <ele>14</ele>
        <time>2019-10-17T12:22:10.000Z</time>
      </trkpt>
      <trkpt lat="47.27081" lon="-1.55653">
        <ele>14</ele>
        <time>2019-10-17T12:22:11.000Z</time>
      </trkpt>
      <trkpt lat="47.27081" lon="-1.5565">
        <ele>14</ele>
        <time>2019-10-17T12:22:12.000Z</time>
      </trkpt>
      <trkpt lat="47.2708" lon="-1.55648">
        <ele>14</ele>
        <time>2019-10-17T12:22:13.000Z</time>
      </trkpt>
      <trkpt lat="47.27079" lon="-1.55645">
        <ele>14</ele>
        <time>2019-10-17T12:22:14.000Z</time>
      </trkpt>
      <trkpt lat="47.27079" lon="-1.55641">
        <ele>14</ele>
        <time>2019-10-17T12:22:15.000Z</time>
      </trkpt>
      <trkpt lat="47.27079" lon="-1.55638">
        <ele>14</ele>
        <time>2019-10-17T12:22:16.000Z</time>
      </trkpt>
      <trkpt lat="47.27079" lon="-1.55635">
        <ele>14</ele>
        <time>2019-10-17T12:22:17.000Z</time>
      </trkpt>
      <trkpt lat="47.27079" lon="-1.55632">
        <ele>14</ele>
        <time>2019-10-17T12:22:18.000Z</time>
      </trkpt>
      <trkpt lat="47.27079" lon="-1.55629">
        <ele>14</ele>
        <time>2019-10-17T12:22:19.000Z</time>
      </trkpt>
      <trkpt lat="47.27077" lon="-1.55626">
        <ele>14</ele>
        <time>2019-10-17T12:22:20.000Z</time>
      </trkpt>
      <trkpt lat="47.27076" lon="-1.55624">
        <ele>14</ele>
        <time>2019-10-17T12:22:21.000Z</time>
      </trkpt>
      <trkpt lat="47.27076" lon="-1.55622">
        <ele>14</ele>
        <time>2019-10-17T12:22:22.000Z</time>
      </trkpt>
      <trkpt lat="47.27075" lon="-1.55619">
        <ele>14</ele>
        <time>2019-10-17T12:22:23.000Z</time>
      </trkpt>
      <trkpt lat="47.27074" lon="-1.55616">
        <ele>14</ele>
        <time>2019-10-17T12:22:24.000Z</time>
      </trkpt>
      <trkpt lat="47.27074" lon="-1.55613">
        <ele>14</ele>
        <time>2019-10-17T12:22:25.000Z</time>
      </trkpt>
      <trkpt lat="47.27071" lon="-1.55611">
        <ele>14</ele>
        <time>2019-10-17T12:22:26.000Z</time>
      </trkpt>
      <trkpt lat="47.27068" lon="-1.55609">
        <ele>14</ele>
        <time>2019-10-17T12:22:27.000Z</time>
      </trkpt>
      <trkpt lat="47.27065" lon="-1.55608">
        <ele>14</ele>
        <time>2019-10-17T12:22:28.000Z</time>
      </trkpt>
      <trkpt lat="47.27061" lon="-1.55609">
        <ele>14</ele>
        <time>2019-10-17T12:22:29.000Z</time>
      </trkpt>
      <trkpt lat="47.27057" lon="-1.55609">
        <ele>14</ele>
        <time>2019-10-17T12:22:30.000Z</time>
      </trkpt>
      <trkpt lat="47.27054" lon="-1.5561">
        <ele>14</ele>
        <time>2019-10-17T12:22:31.000Z</time>
      </trkpt>
      <trkpt lat="47.27051" lon="-1.55611">
        <ele>14</ele>
        <time>2019-10-17T12:22:32.000Z</time>
      </trkpt>
      <trkpt lat="47.27048" lon="-1.55613">
        <ele>14</ele>
        <time>2019-10-17T12:22:33.000Z</time>
      </trkpt>
      <trkpt lat="47.27045" lon="-1.55614">
        <ele>14</ele>
        <time>2019-10-17T12:22:34.000Z</time>
      </trkpt>
      <trkpt lat="47.27041" lon="-1.55617">
        <ele>14</ele>
        <time>2019-10-17T12:22:35.000Z</time>
      </trkpt>
      <trkpt lat="47.27038" lon="-1.5562">
        <ele>14</ele>
        <time>2019-10-17T12:22:36.000Z</time>
      </trkpt>
      <trkpt lat="47.27036" lon="-1.55624">
        <ele>14</ele>
        <time>2019-10-17T12:22:37.000Z</time>
      </trkpt>
      <trkpt lat="47.27033" lon="-1.55629">
        <ele>14</ele>
        <time>2019-10-17T12:22:38.000Z</time>
      </trkpt>
      <trkpt lat="47.27032" lon="-1.55633">
        <ele>14</ele>
        <time>2019-10-17T12:22:39.000Z</time>
      </trkpt>
      <trkpt lat="47.27031" lon="-1.55637">
        <ele>14</ele>
        <time>2019-10-17T12:22:40.000Z</time>
      </trkpt>
      <trkpt lat="47.2703" lon="-1.55641">
        <ele>14</ele>
        <time>2019-10-17T12:22:41.000Z</time>
      </trkpt>
      <trkpt lat="47.27028" lon="-1.55645">
        <ele>14</ele>
        <time>2019-10-17T12:22:42.000Z</time>
      </trkpt>
      <trkpt lat="47.27026" lon="-1.55648">
        <ele>14</ele>
        <time>2019-10-17T12:22:43.000Z</time>
      </trkpt>
      <trkpt lat="47.27024" lon="-1.5565">
        <ele>14</ele>
        <time>2019-10-17T12:22:44.000Z</time>
      </trkpt>
      <trkpt lat="47.27023" lon="-1.55652">
        <ele>14</ele>
        <time>2019-10-17T12:22:45.000Z</time>
      </trkpt>
      <trkpt lat="47.27022" lon="-1.55652">
        <ele>14</ele>
        <time>2019-10-17T12:22:46.000Z</time>
      </trkpt>
      <trkpt lat="47.27021" lon="-1.55653">
        <ele>14</ele>
        <time>2019-10-17T12:22:47.000Z</time>
      </trkpt>
      <trkpt lat="47.27021" lon="-1.55653">
        <ele>14</ele>
        <time>2019-10-17T12:22:48.000Z</time>
      </trkpt>
      <trkpt lat="47.2702" lon="-1.55654">
        <ele>14</ele>
        <time>2019-10-17T12:22:49.000Z</time>
      </trkpt>
      <trkpt lat="47.27017" lon="-1.55663">
        <ele>15</ele>
        <time>2019-10-17T12:22:50.000Z</time>
      </trkpt>
      <trkpt lat="47.27016" lon="-1.55665">
        <ele>15</ele>
        <time>2019-10-17T12:22:51.000Z</time>
      </trkpt>
      <trkpt lat="47.27015" lon="-1.55668">
        <ele>15</ele>
        <time>2019-10-17T12:22:52.000Z</time>
      </trkpt>
      <trkpt lat="47.27015" lon="-1.55671">
        <ele>15</ele>
        <time>2019-10-17T12:22:53.000Z</time>
      </trkpt>
      <trkpt lat="47.27015" lon="-1.55674">
        <ele>15</ele>
        <time>2019-10-17T12:22:54.000Z</time>
      </trkpt>
      <trkpt lat="47.27016" lon="-1.55677">
        <ele>15</ele>
        <time>2019-10-17T12:22:55.000Z</time>
      </trkpt>
      <trkpt lat="47.27016" lon="-1.5568">
        <ele>15</ele>
        <time>2019-10-17T12:22:56.000Z</time>
      </trkpt>
      <trkpt lat="47.27016" lon="-1.55684">
        <ele>15</ele>
        <time>2019-10-17T12:22:57.000Z</time>
      </trkpt>
      <trkpt lat="47.27016" lon="-1.55688">
        <ele>15</ele>
        <time>2019-10-17T12:22:58.000Z</time>
      </trkpt>
      <trkpt lat="47.27015" lon="-1.55692">
        <ele>15</ele>
        <time>2019-10-17T12:22:59.000Z</time>
      </trkpt>
      <trkpt lat="47.27015" lon="-1.55696">
        <ele>15</ele>
        <time>2019-10-17T12:23:00.000Z</time>
      </trkpt>
      <trkpt lat="47.27015" lon="-1.55701">
        <ele>15</ele>
        <time>2019-10-17T12:23:01.000Z</time>
      </trkpt>
      <trkpt lat="47.27014" lon="-1.55706">
        <ele>15</ele>
        <time>2019-10-17T12:23:02.000Z</time>
      </trkpt>
      <trkpt lat="47.27012" lon="-1.55712">
        <ele>15</ele>
        <time>2019-10-17T12:23:03.000Z</time>
      </trkpt>
      <trkpt lat="47.27009" lon="-1.55719">
        <ele>15</ele>
        <time>2019-10-17T12:23:04.000Z</time>
      </trkpt>
      <trkpt lat="47.27006" lon="-1.55727">
        <ele>15</ele>
        <time>2019-10-17T12:23:05.000Z</time>
      </trkpt>
      <trkpt lat="47.27003" lon="-1.55734">
        <ele>15</ele>
        <time>2019-10-17T12:23:06.000Z</time>
      </trkpt>
      <trkpt lat="47.27" lon="-1.5574">
        <ele>15</ele>
        <time>2019-10-17T12:23:07.000Z</time>
      </trkpt>
      <trkpt lat="47.26997" lon="-1.55746">
        <ele>15</ele>
        <time>2019-10-17T12:23:08.000Z</time>
      </trkpt>
      <trkpt lat="47.26995" lon="-1.55751">
        <ele>15</ele>
        <time>2019-10-17T12:23:09.000Z</time>
      </trkpt>
      <trkpt lat="47.26993" lon="-1.55754">
        <ele>15</ele>
        <time>2019-10-17T12:23:10.000Z</time>
      </trkpt>
      <trkpt lat="47.26991" lon="-1.55758">
        <ele>15</ele>
        <time>2019-10-17T12:23:11.000Z</time>
      </trkpt>
      <trkpt lat="47.26988" lon="-1.55761">
        <ele>15</ele>
        <time>2019-10-17T12:23:12.000Z</time>
      </trkpt>
      <trkpt lat="47.26985" lon="-1.55764">
        <ele>15</ele>
        <time>2019-10-17T12:23:13.000Z</time>
      </trkpt>
      <trkpt lat="47.26983" lon="-1.55767">
        <ele>15</ele>
        <time>2019-10-17T12:23:14.000Z</time>
      </trkpt>
      <trkpt lat="47.2698" lon="-1.55769">
        <ele>15</ele>
        <time>2019-10-17T12:23:15.000Z</time>
      </trkpt>
      <trkpt lat="47.26976" lon="-1.55772">
        <ele>15</ele>
        <time>2019-10-17T12:23:16.000Z</time>
      </trkpt>
      <trkpt lat="47.26972" lon="-1.55774">
        <ele>15</ele>
        <time>2019-10-17T12:23:17.000Z</time>
      </trkpt>
      <trkpt lat="47.26969" lon="-1.55774">
        <ele>14</ele>
        <time>2019-10-17T12:23:18.000Z</time>
      </trkpt>
      <trkpt lat="47.26966" lon="-1.55774">
        <ele>14</ele>
        <time>2019-10-17T12:23:19.000Z</time>
      </trkpt>
      <trkpt lat="47.26961" lon="-1.55773">
        <ele>14</ele>
        <time>2019-10-17T12:23:20.000Z</time>
      </trkpt>
      <trkpt lat="47.26957" lon="-1.55772">
        <ele>14</ele>
        <time>2019-10-17T12:23:21.000Z</time>
      </trkpt>
      <trkpt lat="47.26953" lon="-1.55771">
        <ele>14</ele>
        <time>2019-10-17T12:23:22.000Z</time>
      </trkpt>
      <trkpt lat="47.26949" lon="-1.55769">
        <ele>13</ele>
        <time>2019-10-17T12:23:23.000Z</time>
      </trkpt>
      <trkpt lat="47.26944" lon="-1.55768">
        <ele>13</ele>
        <time>2019-10-17T12:23:24.000Z</time>
      </trkpt>
      <trkpt lat="47.2694" lon="-1.55765">
        <ele>13</ele>
        <time>2019-10-17T12:23:25.000Z</time>
      </trkpt>
      <trkpt lat="47.26937" lon="-1.55764">
        <ele>12</ele>
        <time>2019-10-17T12:23:26.000Z</time>
      </trkpt>
      <trkpt lat="47.26934" lon="-1.55762">
        <ele>12</ele>
        <time>2019-10-17T12:23:27.000Z</time>
      </trkpt>
      <trkpt lat="47.26931" lon="-1.55761">
        <ele>12</ele>
        <time>2019-10-17T12:23:28.000Z</time>
      </trkpt>
      <trkpt lat="47.26929" lon="-1.5576">
        <ele>12</ele>
        <time>2019-10-17T12:23:29.000Z</time>
      </trkpt>
      <trkpt lat="47.26927" lon="-1.55759">
        <ele>11</ele>
        <time>2019-10-17T12:23:30.000Z</time>
      </trkpt>
      <trkpt lat="47.26925" lon="-1.55758">
        <ele>11</ele>
        <time>2019-10-17T12:23:31.000Z</time>
      </trkpt>
      <trkpt lat="47.26923" lon="-1.55755">
        <ele>11</ele>
        <time>2019-10-17T12:23:32.000Z</time>
      </trkpt>
      <trkpt lat="47.26921" lon="-1.55752">
        <ele>11</ele>
        <time>2019-10-17T12:23:33.000Z</time>
      </trkpt>
      <trkpt lat="47.26918" lon="-1.5575">
        <ele>11</ele>
        <time>2019-10-17T12:23:34.000Z</time>
      </trkpt>
      <trkpt lat="47.26916" lon="-1.55749">
        <ele>11</ele>
        <time>2019-10-17T12:23:35.000Z</time>
      </trkpt>
      <trkpt lat="47.26913" lon="-1.55747">
        <ele>10</ele>
        <time>2019-10-17T12:23:36.000Z</time>
      </trkpt>
      <trkpt lat="47.26911" lon="-1.55745">
        <ele>10</ele>
        <time>2019-10-17T12:23:37.000Z</time>
      </trkpt>
      <trkpt lat="47.2691" lon="-1.55742">
        <ele>10</ele>
        <time>2019-10-17T12:23:38.000Z</time>
      </trkpt>
      <trkpt lat="47.26909" lon="-1.5574">
        <ele>10</ele>
        <time>2019-10-17T12:23:39.000Z</time>
      </trkpt>
      <trkpt lat="47.26909" lon="-1.55738">
        <ele>10</ele>
        <time>2019-10-17T12:23:40.000Z</time>
      </trkpt>
      <trkpt lat="47.2691" lon="-1.55736">
        <ele>10</ele>
        <time>2019-10-17T12:23:41.000Z</time>
      </trkpt>
      <trkpt lat="47.2691" lon="-1.55733">
        <ele>10</ele>
        <time>2019-10-17T12:23:42.000Z</time>
      </trkpt>
      <trkpt lat="47.26911" lon="-1.55731">
        <ele>10</ele>
        <time>2019-10-17T12:23:43.000Z</time>
      </trkpt>
      <trkpt lat="47.26911" lon="-1.55728">
        <ele>10</ele>
        <time>2019-10-17T12:23:44.000Z</time>
      </trkpt>
      <trkpt lat="47.26911" lon="-1.55726">
        <ele>10</ele>
        <time>2019-10-17T12:23:45.000Z</time>
      </trkpt>
      <trkpt lat="47.26911" lon="-1.55723">
        <ele>10</ele>
        <time>2019-10-17T12:23:46.000Z</time>
      </trkpt>
      <trkpt lat="47.26912" lon="-1.55721">
        <ele>10</ele>
        <time>2019-10-17T12:23:47.000Z</time>
      </trkpt>
      <trkpt lat="47.26912" lon="-1.55718">
        <ele>11</ele>
        <time>2019-10-17T12:23:48.000Z</time>
      </trkpt>
      <trkpt lat="47.26913" lon="-1.55715">
        <ele>11</ele>
        <time>2019-10-17T12:23:49.000Z</time>
      </trkpt>
      <trkpt lat="47.26913" lon="-1.55712">
        <ele>11</ele>
        <time>2019-10-17T12:23:50.000Z</time>
      </trkpt>
      <trkpt lat="47.26913" lon="-1.55708">
        <ele>11</ele>
        <time>2019-10-17T12:23:51.000Z</time>
      </trkpt>
      <trkpt lat="47.26913" lon="-1.55705">
        <ele>11</ele>
        <time>2019-10-17T12:23:52.000Z</time>
      </trkpt>
      <trkpt lat="47.26912" lon="-1.55702">
        <ele>12</ele>
        <time>2019-10-17T12:23:53.000Z</time>
      </trkpt>
      <trkpt lat="47.26911" lon="-1.55699">
        <ele>12</ele>
        <time>2019-10-17T12:23:54.000Z</time>
      </trkpt>
      <trkpt lat="47.2691" lon="-1.55697">
        <ele>12</ele>
        <time>2019-10-17T12:23:55.000Z</time>
      </trkpt>
      <trkpt lat="47.26908" lon="-1.55694">
        <ele>13</ele>
        <time>2019-10-17T12:23:56.000Z</time>
      </trkpt>
      <trkpt lat="47.26907" lon="-1.55692">
        <ele>13</ele>
        <time>2019-10-17T12:23:57.000Z</time>
      </trkpt>
      <trkpt lat="47.26906" lon="-1.55689">
        <ele>13</ele>
        <time>2019-10-17T12:23:58.000Z</time>
      </trkpt>
      <trkpt lat="47.26905" lon="-1.55687">
        <ele>13</ele>
        <time>2019-10-17T12:23:59.000Z</time>
      </trkpt>
      <trkpt lat="47.26904" lon="-1.55686">
        <ele>14</ele>
        <time>2019-10-17T12:24:00.000Z</time>
      </trkpt>
      <trkpt lat="47.26902" lon="-1.55683">
        <ele>14</ele>
        <time>2019-10-17T12:24:01.000Z</time>
      </trkpt>
      <trkpt lat="47.26901" lon="-1.55682">
        <ele>14</ele>
        <time>2019-10-17T12:24:02.000Z</time>
      </trkpt>
      <trkpt lat="47.26899" lon="-1.5568">
        <ele>14</ele>
        <time>2019-10-17T12:24:03.000Z</time>
      </trkpt>
      <trkpt lat="47.26898" lon="-1.55677">
        <ele>15</ele>
        <time>2019-10-17T12:24:04.000Z</time>
      </trkpt>
      <trkpt lat="47.26896" lon="-1.55675">
        <ele>15</ele>
        <time>2019-10-17T12:24:05.000Z</time>
      </trkpt>
      <trkpt lat="47.26895" lon="-1.55672">
        <ele>15</ele>
        <time>2019-10-17T12:24:06.000Z</time>
      </trkpt>
      <trkpt lat="47.26894" lon="-1.55669">
        <ele>15</ele>
        <time>2019-10-17T12:24:07.000Z</time>
      </trkpt>
      <trkpt lat="47.26894" lon="-1.55665">
        <ele>16</ele>
        <time>2019-10-17T12:24:08.000Z</time>
      </trkpt>
      <trkpt lat="47.26893" lon="-1.55661">
        <ele>16</ele>
        <time>2019-10-17T12:24:09.000Z</time>
      </trkpt>
      <trkpt lat="47.26893" lon="-1.55659">
        <ele>16</ele>
        <time>2019-10-17T12:24:10.000Z</time>
      </trkpt>
      <trkpt lat="47.26893" lon="-1.55658">
        <ele>16</ele>
        <time>2019-10-17T12:24:11.000Z</time>
      </trkpt>
      <trkpt lat="47.26892" lon="-1.55657">
        <ele>16</ele>
        <time>2019-10-17T12:24:12.000Z</time>
      </trkpt>
      <trkpt lat="47.26891" lon="-1.55656">
        <ele>16</ele>
        <time>2019-10-17T12:24:13.000Z</time>
      </trkpt>
      <trkpt lat="47.26891" lon="-1.55655">
        <ele>16</ele>
        <time>2019-10-17T12:24:14.000Z</time>
      </trkpt>
      <trkpt lat="47.2689" lon="-1.55654">
        <ele>16</ele>
        <time>2019-10-17T12:24:15.000Z</time>
      </trkpt>
      <trkpt lat="47.26889" lon="-1.55654">
        <ele>16</ele>
        <time>2019-10-17T12:24:16.000Z</time>
      </trkpt>
      <trkpt lat="47.26888" lon="-1.55653">
        <ele>16</ele>
        <time>2019-10-17T12:24:17.000Z</time>
      </trkpt>
      <trkpt lat="47.26888" lon="-1.55653">
        <ele>15</ele>
        <time>2019-10-17T12:24:18.000Z</time>
      </trkpt>
      <trkpt lat="47.26887" lon="-1.55652">
        <ele>15</ele>
        <time>2019-10-17T12:24:19.000Z</time>
      </trkpt>
      <trkpt lat="47.26887" lon="-1.55652">
        <ele>14</ele>
        <time>2019-10-17T12:24:20.000Z</time>
      </trkpt>
      <trkpt lat="47.26888" lon="-1.55652">
        <ele>14</ele>
        <time>2019-10-17T12:24:21.000Z</time>
      </trkpt>
      <trkpt lat="47.26889" lon="-1.55652">
        <ele>14</ele>
        <time>2019-10-17T12:24:22.000Z</time>
      </trkpt>
      <trkpt lat="47.2689" lon="-1.55652">
        <ele>14</ele>
        <time>2019-10-17T12:24:23.000Z</time>
      </trkpt>
      <trkpt lat="47.26891" lon="-1.55652">
        <ele>14</ele>
        <time>2019-10-17T12:24:24.000Z</time>
      </trkpt>
      <trkpt lat="47.26893" lon="-1.55653">
        <ele>14</ele>
        <time>2019-10-17T12:24:25.000Z</time>
      </trkpt>
      <trkpt lat="47.26894" lon="-1.55653">
        <ele>14</ele>
        <time>2019-10-17T12:24:26.000Z</time>
      </trkpt>
      <trkpt lat="47.26895" lon="-1.55654">
        <ele>14</ele>
        <time>2019-10-17T12:24:27.000Z</time>
      </trkpt>
      <trkpt lat="47.26896" lon="-1.55654">
        <ele>14</ele>
        <time>2019-10-17T12:24:28.000Z</time>
      </trkpt>
      <trkpt lat="47.26898" lon="-1.55653">
        <ele>14</ele>
        <time>2019-10-17T12:24:29.000Z</time>
      </trkpt>
      <trkpt lat="47.26899" lon="-1.55653">
        <ele>14</ele>
        <time>2019-10-17T12:24:30.000Z</time>
      </trkpt>
      <trkpt lat="47.269" lon="-1.55653">
        <ele>15</ele>
        <time>2019-10-17T12:24:31.000Z</time>
      </trkpt>
      <trkpt lat="47.26902" lon="-1.55652">
        <ele>15</ele>
        <time>2019-10-17T12:24:32.000Z</time>
      </trkpt>
      <trkpt lat="47.26904" lon="-1.55651">
        <ele>15</ele>
        <time>2019-10-17T12:24:33.000Z</time>
      </trkpt>
      <trkpt lat="47.26906" lon="-1.55651">
        <ele>15</ele>
        <time>2019-10-17T12:24:34.000Z</time>
      </trkpt>
      <trkpt lat="47.26908" lon="-1.5565">
        <ele>15</ele>
        <time>2019-10-17T12:24:35.000Z</time>
      </trkpt>
      <trkpt lat="47.26911" lon="-1.55649">
        <ele>15</ele>
        <time>2019-10-17T12:24:36.000Z</time>
      </trkpt>
      <trkpt lat="47.26913" lon="-1.55648">
        <ele>15</ele>
        <time>2019-10-17T12:24:37.000Z</time>
      </trkpt>
      <trkpt lat="47.26916" lon="-1.55646">
        <ele>15</ele>
        <time>2019-10-17T12:24:38.000Z</time>
      </trkpt>
      <trkpt lat="47.26918" lon="-1.55646">
        <ele>15</ele>
        <time>2019-10-17T12:24:39.000Z</time>
      </trkpt>
      <trkpt lat="47.26921" lon="-1.55646">
        <ele>15</ele>
        <time>2019-10-17T12:24:40.000Z</time>
      </trkpt>
      <trkpt lat="47.26924" lon="-1.55645">
        <ele>15</ele>
        <time>2019-10-17T12:24:41.000Z</time>
      </trkpt>
      <trkpt lat="47.26926" lon="-1.55645">
        <ele>15</ele>
        <time>2019-10-17T12:24:42.000Z</time>
      </trkpt>
      <trkpt lat="47.26929" lon="-1.55644">
        <ele>15</ele>
        <time>2019-10-17T12:24:43.000Z</time>
      </trkpt>
      <trkpt lat="47.26931" lon="-1.55643">
        <ele>15</ele>
        <time>2019-10-17T12:24:44.000Z</time>
      </trkpt>
      <trkpt lat="47.26933" lon="-1.55642">
        <ele>16</ele>
        <time>2019-10-17T12:24:45.000Z</time>
      </trkpt>
      <trkpt lat="47.26936" lon="-1.55641">
        <ele>16</ele>
        <time>2019-10-17T12:24:46.000Z</time>
      </trkpt>
      <trkpt lat="47.26938" lon="-1.55641">
        <ele>16</ele>
        <time>2019-10-17T12:24:47.000Z</time>
      </trkpt>
      <trkpt lat="47.26939" lon="-1.5564">
        <ele>16</ele>
        <time>2019-10-17T12:24:48.000Z</time>
      </trkpt>
      <trkpt lat="47.26942" lon="-1.5564">
        <ele>16</ele>
        <time>2019-10-17T12:24:49.000Z</time>
      </trkpt>
      <trkpt lat="47.26944" lon="-1.55638">
        <ele>16</ele>
        <time>2019-10-17T12:24:50.000Z</time>
      </trkpt>
      <trkpt lat="47.26945" lon="-1.55638">
        <ele>16</ele>
        <time>2019-10-17T12:24:51.000Z</time>
      </trkpt>
      <trkpt lat="47.26947" lon="-1.55637">
        <ele>16</ele>
        <time>2019-10-17T12:24:52.000Z</time>
      </trkpt>
      <trkpt lat="47.26949" lon="-1.55637">
        <ele>16</ele>
        <time>2019-10-17T12:24:53.000Z</time>
      </trkpt>
      <trkpt lat="47.2695" lon="-1.55636">
        <ele>16</ele>
        <time>2019-10-17T12:24:54.000Z</time>
      </trkpt>
      <trkpt lat="47.26951" lon="-1.55635">
        <ele>16</ele>
        <time>2019-10-17T12:24:55.000Z</time>
      </trkpt>
      <trkpt lat="47.26952" lon="-1.55635">
        <ele>16</ele>
        <time>2019-10-17T12:24:56.000Z</time>
      </trkpt>
      <trkpt lat="47.26953" lon="-1.55635">
        <ele>16</ele>
        <time>2019-10-17T12:24:57.000Z</time>
      </trkpt>
      <trkpt lat="47.26954" lon="-1.55634">
        <ele>16</ele>
        <time>2019-10-17T12:24:58.000Z</time>
      </trkpt>
      <trkpt lat="47.26955" lon="-1.55635">
        <ele>16</ele>
        <time>2019-10-17T12:24:59.000Z</time>
      </trkpt>
      <trkpt lat="47.26955" lon="-1.55635">
        <ele>15</ele>
        <time>2019-10-17T12:25:00.000Z</time>
      </trkpt>
      <trkpt lat="47.26956" lon="-1.55635">
        <ele>15</ele>
        <time>2019-10-17T12:25:01.000Z</time>
      </trkpt>
      <trkpt lat="47.26957" lon="-1.55634">
        <ele>15</ele>
        <time>2019-10-17T12:25:02.000Z</time>
      </trkpt>
      <trkpt lat="47.26958" lon="-1.55634">
        <ele>15</ele>
        <time>2019-10-17T12:25:03.000Z</time>
      </trkpt>
      <trkpt lat="47.2696" lon="-1.55634">
        <ele>15</ele>
        <time>2019-10-17T12:25:04.000Z</time>
      </trkpt>
      <trkpt lat="47.26962" lon="-1.55633">
        <ele>15</ele>
        <time>2019-10-17T12:25:05.000Z</time>
      </trkpt>
      <trkpt lat="47.26965" lon="-1.55633">
        <ele>15</ele>
        <time>2019-10-17T12:25:06.000Z</time>
      </trkpt>
      <trkpt lat="47.26968" lon="-1.55633">
        <ele>15</ele>
        <time>2019-10-17T12:25:07.000Z</time>
      </trkpt>
      <trkpt lat="47.26971" lon="-1.55633">
        <ele>15</ele>
        <time>2019-10-17T12:25:08.000Z</time>
      </trkpt>
      <trkpt lat="47.26975" lon="-1.55631">
        <ele>15</ele>
        <time>2019-10-17T12:25:09.000Z</time>
      </trkpt>
      <trkpt lat="47.26978" lon="-1.5563">
        <ele>15</ele>
        <time>2019-10-17T12:25:10.000Z</time>
      </trkpt>
      <trkpt lat="47.26982" lon="-1.55628">
        <ele>15</ele>
        <time>2019-10-17T12:25:11.000Z</time>
      </trkpt>
      <trkpt lat="47.26985" lon="-1.55627">
        <ele>15</ele>
        <time>2019-10-17T12:25:12.000Z</time>
      </trkpt>
      <trkpt lat="47.26988" lon="-1.55626">
        <ele>15</ele>
        <time>2019-10-17T12:25:13.000Z</time>
      </trkpt>
      <trkpt lat="47.26992" lon="-1.55626">
        <ele>15</ele>
        <time>2019-10-17T12:25:14.000Z</time>
      </trkpt>
      <trkpt lat="47.26996" lon="-1.55627">
        <ele>15</ele>
        <time>2019-10-17T12:25:15.000Z</time>
      </trkpt>
      <trkpt lat="47.27" lon="-1.55626">
        <ele>15</ele>
        <time>2019-10-17T12:25:16.000Z</time>
      </trkpt>
      <trkpt lat="47.27002" lon="-1.55623">
        <ele>15</ele>
        <time>2019-10-17T12:25:17.000Z</time>
      </trkpt>
      <trkpt lat="47.27005" lon="-1.55619">
        <ele>15</ele>
        <time>2019-10-17T12:25:18.000Z</time>
      </trkpt>
      <trkpt lat="47.27007" lon="-1.55614">
        <ele>15</ele>
        <time>2019-10-17T12:25:19.000Z</time>
      </trkpt>
      <trkpt lat="47.2701" lon="-1.5561">
        <ele>15</ele>
        <time>2019-10-17T12:25:20.000Z</time>
      </trkpt>
      <trkpt lat="47.27014" lon="-1.55607">
        <ele>15</ele>
        <time>2019-10-17T12:25:21.000Z</time>
      </trkpt>
      <trkpt lat="47.27018" lon="-1.55605">
        <ele>15</ele>
        <time>2019-10-17T12:25:22.000Z</time>
      </trkpt>
      <trkpt lat="47.27022" lon="-1.55602">
        <ele>15</ele>
        <time>2019-10-17T12:25:23.000Z</time>
      </trkpt>
      <trkpt lat="47.27026" lon="-1.55598">
        <ele>15</ele>
        <time>2019-10-17T12:25:24.000Z</time>
      </trkpt>
      <trkpt lat="47.27029" lon="-1.55593">
        <ele>14</ele>
        <time>2019-10-17T12:25:25.000Z</time>
      </trkpt>
      <trkpt lat="47.27031" lon="-1.55589">
        <ele>14</ele>
        <time>2019-10-17T12:25:26.000Z</time>
      </trkpt>
      <trkpt lat="47.27034" lon="-1.55584">
        <ele>14</ele>
        <time>2019-10-17T12:25:27.000Z</time>
      </trkpt>
      <trkpt lat="47.27037" lon="-1.5558">
        <ele>14</ele>
        <time>2019-10-17T12:25:28.000Z</time>
      </trkpt>
      <trkpt lat="47.27039" lon="-1.55576">
        <ele>14</ele>
        <time>2019-10-17T12:25:29.000Z</time>
      </trkpt>
      <trkpt lat="47.2704" lon="-1.55573">
        <ele>14</ele>
        <time>2019-10-17T12:25:30.000Z</time>
      </trkpt>
      <trkpt lat="47.27042" lon="-1.5557">
        <ele>14</ele>
        <time>2019-10-17T12:25:31.000Z</time>
      </trkpt>
      <trkpt lat="47.27043" lon="-1.55569">
        <ele>14</ele>
        <time>2019-10-17T12:25:32.000Z</time>
      </trkpt>
      <trkpt lat="47.27045" lon="-1.5557">
        <ele>14</ele>
        <time>2019-10-17T12:25:33.000Z</time>
      </trkpt>
      <trkpt lat="47.27045" lon="-1.5557">
        <ele>14</ele>
        <time>2019-10-17T12:25:34.000Z</time>
      </trkpt>
      <trkpt lat="47.27045" lon="-1.5557">
        <ele>14</ele>
        <time>2019-10-17T12:25:35.000Z</time>
      </trkpt>
      <trkpt lat="47.27049" lon="-1.55558">
        <ele>21</ele>
        <time>2019-10-17T12:25:36.000Z</time>
      </trkpt>
      <trkpt lat="47.2705" lon="-1.55556">
        <ele>21</ele>
        <time>2019-10-17T12:25:37.000Z</time>
      </trkpt>
      <trkpt lat="47.27052" lon="-1.55553">
        <ele>21</ele>
        <time>2019-10-17T12:25:38.000Z</time>
      </trkpt>
      <trkpt lat="47.27053" lon="-1.55549">
        <ele>21</ele>
        <time>2019-10-17T12:25:39.000Z</time>
      </trkpt>
      <trkpt lat="47.27054" lon="-1.55546">
        <ele>21</ele>
        <time>2019-10-17T12:25:40.000Z</time>
      </trkpt>
      <trkpt lat="47.27055" lon="-1.55543">
        <ele>21</ele>
        <time>2019-10-17T12:25:41.000Z</time>
      </trkpt>
      <trkpt lat="47.27056" lon="-1.5554">
        <ele>21</ele>
        <time>2019-10-17T12:25:42.000Z</time>
      </trkpt>
      <trkpt lat="47.27058" lon="-1.55538">
        <ele>20</ele>
        <time>2019-10-17T12:25:43.000Z</time>
      </trkpt>
      <trkpt lat="47.2706" lon="-1.55538">
        <ele>20</ele>
        <time>2019-10-17T12:25:44.000Z</time>
      </trkpt>
      <trkpt lat="47.27063" lon="-1.55539">
        <ele>20</ele>
        <time>2019-10-17T12:25:45.000Z</time>
      </trkpt>
      <trkpt lat="47.27066" lon="-1.5554">
        <ele>20</ele>
        <time>2019-10-17T12:25:46.000Z</time>
      </trkpt>
      <trkpt lat="47.27068" lon="-1.55542">
        <ele>20</ele>
        <time>2019-10-17T12:25:47.000Z</time>
      </trkpt>
      <trkpt lat="47.27071" lon="-1.55544">
        <ele>20</ele>
        <time>2019-10-17T12:25:48.000Z</time>
      </trkpt>
      <trkpt lat="47.27074" lon="-1.55545">
        <ele>20</ele>
        <time>2019-10-17T12:25:49.000Z</time>
      </trkpt>
      <trkpt lat="47.27077" lon="-1.55548">
        <ele>19</ele>
        <time>2019-10-17T12:25:50.000Z</time>
      </trkpt>
      <trkpt lat="47.2708" lon="-1.55551">
        <ele>19</ele>
        <time>2019-10-17T12:25:51.000Z</time>
      </trkpt>
      <trkpt lat="47.27083" lon="-1.55554">
        <ele>19</ele>
        <time>2019-10-17T12:25:52.000Z</time>
      </trkpt>
      <trkpt lat="47.27086" lon="-1.55556">
        <ele>19</ele>
        <time>2019-10-17T12:25:53.000Z</time>
      </trkpt>
      <trkpt lat="47.27088" lon="-1.55558">
        <ele>19</ele>
        <time>2019-10-17T12:25:54.000Z</time>
      </trkpt>
      <trkpt lat="47.2709" lon="-1.55559">
        <ele>19</ele>
        <time>2019-10-17T12:25:55.000Z</time>
      </trkpt>
      <trkpt lat="47.27092" lon="-1.55561">
        <ele>19</ele>
        <time>2019-10-17T12:25:56.000Z</time>
      </trkpt>
      <trkpt lat="47.27094" lon="-1.55563">
        <ele>19</ele>
        <time>2019-10-17T12:25:57.000Z</time>
      </trkpt>
      <trkpt lat="47.27095" lon="-1.55564">
        <ele>18</ele>
        <time>2019-10-17T12:25:58.000Z</time>
      </trkpt>
      <trkpt lat="47.27096" lon="-1.55566">
        <ele>18</ele>
        <time>2019-10-17T12:25:59.000Z</time>
      </trkpt>
      <trkpt lat="47.27097" lon="-1.55569">
        <ele>18</ele>
        <time>2019-10-17T12:26:00.000Z</time>
      </trkpt>
      <trkpt lat="47.27098" lon="-1.55572">
        <ele>18</ele>
        <time>2019-10-17T12:26:01.000Z</time>
      </trkpt>
      <trkpt lat="47.27099" lon="-1.55576">
        <ele>18</ele>
        <time>2019-10-17T12:26:02.000Z</time>
      </trkpt>
      <trkpt lat="47.271" lon="-1.55578">
        <ele>18</ele>
        <time>2019-10-17T12:26:03.000Z</time>
      </trkpt>
      <trkpt lat="47.27102" lon="-1.55581">
        <ele>18</ele>
        <time>2019-10-17T12:26:04.000Z</time>
      </trkpt>
      <trkpt lat="47.27104" lon="-1.55582">
        <ele>18</ele>
        <time>2019-10-17T12:26:05.000Z</time>
      </trkpt>
      <trkpt lat="47.27107" lon="-1.55584">
        <ele>18</ele>
        <time>2019-10-17T12:26:06.000Z</time>
      </trkpt>
      <trkpt lat="47.27109" lon="-1.55584">
        <ele>18</ele>
        <time>2019-10-17T12:26:07.000Z</time>
      </trkpt>
      <trkpt lat="47.27111" lon="-1.55583">
        <ele>18</ele>
        <time>2019-10-17T12:26:08.000Z</time>
      </trkpt>
      <trkpt lat="47.27113" lon="-1.55582">
        <ele>17</ele>
        <time>2019-10-17T12:26:09.000Z</time>
      </trkpt>
      <trkpt lat="47.27114" lon="-1.55582">
        <ele>17</ele>
        <time>2019-10-17T12:26:10.000Z</time>
      </trkpt>
      <trkpt lat="47.27116" lon="-1.55582">
        <ele>17</ele>
        <time>2019-10-17T12:26:11.000Z</time>
      </trkpt>
      <trkpt lat="47.27118" lon="-1.5558">
        <ele>17</ele>
        <time>2019-10-17T12:26:12.000Z</time>
      </trkpt>
      <trkpt lat="47.2712" lon="-1.55578">
        <ele>17</ele>
        <time>2019-10-17T12:26:13.000Z</time>
      </trkpt>
      <trkpt lat="47.27121" lon="-1.55576">
        <ele>17</ele>
        <time>2019-10-17T12:26:14.000Z</time>
      </trkpt>
      <trkpt lat="47.27123" lon="-1.55573">
        <ele>17</ele>
        <time>2019-10-17T12:26:15.000Z</time>
      </trkpt>
      <trkpt lat="47.27126" lon="-1.55571">
        <ele>17</ele>
        <time>2019-10-17T12:26:16.000Z</time>
      </trkpt>
      <trkpt lat="47.27129" lon="-1.55569">
        <ele>17</ele>
        <time>2019-10-17T12:26:17.000Z</time>
      </trkpt>
      <trkpt lat="47.27132" lon="-1.55567">
        <ele>17</ele>
        <time>2019-10-17T12:26:18.000Z</time>
      </trkpt>
      <trkpt lat="47.27135" lon="-1.55566">
        <ele>17</ele>
        <time>2019-10-17T12:26:19.000Z</time>
      </trkpt>
      <trkpt lat="47.27137" lon="-1.55565">
        <ele>17</ele>
        <time>2019-10-17T12:26:20.000Z</time>
      </trkpt>
      <trkpt lat="47.2714" lon="-1.55563">
        <ele>17</ele>
        <time>2019-10-17T12:26:21.000Z</time>
      </trkpt>
      <trkpt lat="47.27142" lon="-1.5556">
        <ele>17</ele>
        <time>2019-10-17T12:26:22.000Z</time>
      </trkpt>
      <trkpt lat="47.27144" lon="-1.55556">
        <ele>17</ele>
        <time>2019-10-17T12:26:23.000Z</time>
      </trkpt>
      <trkpt lat="47.27146" lon="-1.55553">
        <ele>17</ele>
        <time>2019-10-17T12:26:24.000Z</time>
      </trkpt>
      <trkpt lat="47.27148" lon="-1.55548">
        <ele>17</ele>
        <time>2019-10-17T12:26:25.000Z</time>
      </trkpt>
      <trkpt lat="47.2715" lon="-1.55544">
        <ele>16</ele>
        <time>2019-10-17T12:26:26.000Z</time>
      </trkpt>
      <trkpt lat="47.27153" lon="-1.55539">
        <ele>16</ele>
        <time>2019-10-17T12:26:27.000Z</time>
      </trkpt>
      <trkpt lat="47.27156" lon="-1.55534">
        <ele>16</ele>
        <time>2019-10-17T12:26:28.000Z</time>
      </trkpt>
      <trkpt lat="47.27158" lon="-1.5553">
        <ele>16</ele>
        <time>2019-10-17T12:26:29.000Z</time>
      </trkpt>
      <trkpt lat="47.2716" lon="-1.55526">
        <ele>16</ele>
        <time>2019-10-17T12:26:30.000Z</time>
      </trkpt>
      <trkpt lat="47.27161" lon="-1.55521">
        <ele>16</ele>
        <time>2019-10-17T12:26:31.000Z</time>
      </trkpt>
      <trkpt lat="47.27163" lon="-1.55517">
        <ele>16</ele>
        <time>2019-10-17T12:26:32.000Z</time>
      </trkpt>
      <trkpt lat="47.27164" lon="-1.55514">
        <ele>17</ele>
        <time>2019-10-17T12:26:33.000Z</time>
      </trkpt>
      <trkpt lat="47.27166" lon="-1.55511">
        <ele>17</ele>
        <time>2019-10-17T12:26:34.000Z</time>
      </trkpt>
      <trkpt lat="47.27168" lon="-1.55508">
        <ele>17</ele>
        <time>2019-10-17T12:26:35.000Z</time>
      </trkpt>
      <trkpt lat="47.27169" lon="-1.55505">
        <ele>17</ele>
        <time>2019-10-17T12:26:36.000Z</time>
      </trkpt>
      <trkpt lat="47.2717" lon="-1.55503">
        <ele>17</ele>
        <time>2019-10-17T12:26:37.000Z</time>
      </trkpt>
      <trkpt lat="47.27171" lon="-1.555">
        <ele>17</ele>
        <time>2019-10-17T12:26:38.000Z</time>
      </trkpt>
      <trkpt lat="47.27172" lon="-1.55496">
        <ele>17</ele>
        <time>2019-10-17T12:26:39.000Z</time>
      </trkpt>
      <trkpt lat="47.27173" lon="-1.55493">
        <ele>18</ele>
        <time>2019-10-17T12:26:40.000Z</time>
      </trkpt>
      <trkpt lat="47.27175" lon="-1.5549">
        <ele>18</ele>
        <time>2019-10-17T12:26:41.000Z</time>
      </trkpt>
      <trkpt lat="47.27176" lon="-1.55487">
        <ele>18</ele>
        <time>2019-10-17T12:26:42.000Z</time>
      </trkpt>
      <trkpt lat="47.27176" lon="-1.55486">
        <ele>18</ele>
        <time>2019-10-17T12:26:43.000Z</time>
      </trkpt>
      <trkpt lat="47.27177" lon="-1.55484">
        <ele>18</ele>
        <time>2019-10-17T12:26:44.000Z</time>
      </trkpt>
      <trkpt lat="47.27177" lon="-1.55481">
        <ele>18</ele>
        <time>2019-10-17T12:26:45.000Z</time>
      </trkpt>
      <trkpt lat="47.27177" lon="-1.55477">
        <ele>18</ele>
        <time>2019-10-17T12:26:46.000Z</time>
      </trkpt>
      <trkpt lat="47.27178" lon="-1.55474">
        <ele>18</ele>
        <time>2019-10-17T12:26:47.000Z</time>
      </trkpt>
      <trkpt lat="47.27179" lon="-1.55472">
        <ele>18</ele>
        <time>2019-10-17T12:26:48.000Z</time>
      </trkpt>
      <trkpt lat="47.2718" lon="-1.55469">
        <ele>18</ele>
        <time>2019-10-17T12:26:49.000Z</time>
      </trkpt>
      <trkpt lat="47.2718" lon="-1.55467">
        <ele>19</ele>
        <time>2019-10-17T12:26:50.000Z</time>
      </trkpt>
      <trkpt lat="47.27181" lon="-1.55464">
        <ele>19</ele>
        <time>2019-10-17T12:26:51.000Z</time>
      </trkpt>
      <trkpt lat="47.27182" lon="-1.55461">
        <ele>19</ele>
        <time>2019-10-17T12:26:52.000Z</time>
      </trkpt>
      <trkpt lat="47.27184" lon="-1.55458">
        <ele>19</ele>
        <time>2019-10-17T12:26:53.000Z</time>
      </trkpt>
      <trkpt lat="47.27185" lon="-1.55455">
        <ele>19</ele>
        <time>2019-10-17T12:26:54.000Z</time>
      </trkpt>
      <trkpt lat="47.27187" lon="-1.55451">
        <ele>19</ele>
        <time>2019-10-17T12:26:55.000Z</time>
      </trkpt>
      <trkpt lat="47.27189" lon="-1.55449">
        <ele>19</ele>
        <time>2019-10-17T12:26:56.000Z</time>
      </trkpt>
      <trkpt lat="47.27191" lon="-1.55447">
        <ele>19</ele>
        <time>2019-10-17T12:26:57.000Z</time>
      </trkpt>
      <trkpt lat="47.27193" lon="-1.55445">
        <ele>19</ele>
        <time>2019-10-17T12:26:58.000Z</time>
      </trkpt>
      <trkpt lat="47.27195" lon="-1.55444">
        <ele>19</ele>
        <time>2019-10-17T12:26:59.000Z</time>
      </trkpt>
      <trkpt lat="47.27197" lon="-1.55442">
        <ele>19</ele>
        <time>2019-10-17T12:27:00.000Z</time>
      </trkpt>
      <trkpt lat="47.27199" lon="-1.55438">
        <ele>19</ele>
        <time>2019-10-17T12:27:01.000Z</time>
      </trkpt>
      <trkpt lat="47.27201" lon="-1.55435">
        <ele>19</ele>
        <time>2019-10-17T12:27:02.000Z</time>
      </trkpt>
      <trkpt lat="47.27204" lon="-1.55432">
        <ele>19</ele>
        <time>2019-10-17T12:27:03.000Z</time>
      </trkpt>
      <trkpt lat="47.27206" lon="-1.5543">
        <ele>19</ele>
        <time>2019-10-17T12:27:04.000Z</time>
      </trkpt>
      <trkpt lat="47.27209" lon="-1.55426">
        <ele>19</ele>
        <time>2019-10-17T12:27:05.000Z</time>
      </trkpt>
      <trkpt lat="47.27211" lon="-1.55423">
        <ele>19</ele>
        <time>2019-10-17T12:27:06.000Z</time>
      </trkpt>
      <trkpt lat="47.27213" lon="-1.55419">
        <ele>19</ele>
        <time>2019-10-17T12:27:07.000Z</time>
      </trkpt>
      <trkpt lat="47.27215" lon="-1.55417">
        <ele>19</ele>
        <time>2019-10-17T12:27:08.000Z</time>
      </trkpt>
      <trkpt lat="47.27217" lon="-1.55413">
        <ele>19</ele>
        <time>2019-10-17T12:27:09.000Z</time>
      </trkpt>
      <trkpt lat="47.27219" lon="-1.5541">
        <ele>20</ele>
        <time>2019-10-17T12:27:10.000Z</time>
      </trkpt>
      <trkpt lat="47.27221" lon="-1.55408">
        <ele>20</ele>
        <time>2019-10-17T12:27:11.000Z</time>
      </trkpt>
      <trkpt lat="47.27223" lon="-1.55406">
        <ele>20</ele>
        <time>2019-10-17T12:27:12.000Z</time>
      </trkpt>
      <trkpt lat="47.27225" lon="-1.55403">
        <ele>20</ele>
        <time>2019-10-17T12:27:13.000Z</time>
      </trkpt>
      <trkpt lat="47.27227" lon="-1.55402">
        <ele>20</ele>
        <time>2019-10-17T12:27:14.000Z</time>
      </trkpt>
      <trkpt lat="47.27228" lon="-1.55401">
        <ele>20</ele>
        <time>2019-10-17T12:27:15.000Z</time>
      </trkpt>
      <trkpt lat="47.2723" lon="-1.55399">
        <ele>21</ele>
        <time>2019-10-17T12:27:16.000Z</time>
      </trkpt>
      <trkpt lat="47.27231" lon="-1.55396">
        <ele>21</ele>
        <time>2019-10-17T12:27:17.000Z</time>
      </trkpt>
      <trkpt lat="47.27232" lon="-1.55394">
        <ele>21</ele>
        <time>2019-10-17T12:27:18.000Z</time>
      </trkpt>
      <trkpt lat="47.27234" lon="-1.55392">
        <ele>21</ele>
        <time>2019-10-17T12:27:19.000Z</time>
      </trkpt>
      <trkpt lat="47.27236" lon="-1.55389">
        <ele>22</ele>
        <time>2019-10-17T12:27:20.000Z</time>
      </trkpt>
      <trkpt lat="47.27238" lon="-1.55386">
        <ele>22</ele>
        <time>2019-10-17T12:27:21.000Z</time>
      </trkpt>
      <trkpt lat="47.2724" lon="-1.55383">
        <ele>22</ele>
        <time>2019-10-17T12:27:22.000Z</time>
      </trkpt>
      <trkpt lat="47.27242" lon="-1.5538">
        <ele>22</ele>
        <time>2019-10-17T12:27:23.000Z</time>
      </trkpt>
      <trkpt lat="47.27244" lon="-1.55377">
        <ele>23</ele>
        <time>2019-10-17T12:27:24.000Z</time>
      </trkpt>
      <trkpt lat="47.27246" lon="-1.55373">
        <ele>23</ele>
        <time>2019-10-17T12:27:25.000Z</time>
      </trkpt>
      <trkpt lat="47.27249" lon="-1.55369">
        <ele>23</ele>
        <time>2019-10-17T12:27:26.000Z</time>
      </trkpt>
      <trkpt lat="47.27251" lon="-1.55366">
        <ele>23</ele>
        <time>2019-10-17T12:27:27.000Z</time>
      </trkpt>
      <trkpt lat="47.27252" lon="-1.55363">
        <ele>24</ele>
        <time>2019-10-17T12:27:28.000Z</time>
      </trkpt>
      <trkpt lat="47.27254" lon="-1.55359">
        <ele>24</ele>
        <time>2019-10-17T12:27:29.000Z</time>
      </trkpt>
      <trkpt lat="47.27255" lon="-1.55355">
        <ele>24</ele>
        <time>2019-10-17T12:27:30.000Z</time>
      </trkpt>
      <trkpt lat="47.27257" lon="-1.55351">
        <ele>24</ele>
        <time>2019-10-17T12:27:31.000Z</time>
      </trkpt>
      <trkpt lat="47.27259" lon="-1.55348">
        <ele>24</ele>
        <time>2019-10-17T12:27:32.000Z</time>
      </trkpt>
      <trkpt lat="47.2726" lon="-1.55346">
        <ele>24</ele>
        <time>2019-10-17T12:27:33.000Z</time>
      </trkpt>
      <trkpt lat="47.27262" lon="-1.55343">
        <ele>24</ele>
        <time>2019-10-17T12:27:34.000Z</time>
      </trkpt>
      <trkpt lat="47.27263" lon="-1.5534">
        <ele>25</ele>
        <time>2019-10-17T12:27:35.000Z</time>
      </trkpt>
      <trkpt lat="47.27263" lon="-1.55337">
        <ele>25</ele>
        <time>2019-10-17T12:27:36.000Z</time>
      </trkpt>
      <trkpt lat="47.27265" lon="-1.55334">
        <ele>25</ele>
        <time>2019-10-17T12:27:37.000Z</time>
      </trkpt>
      <trkpt lat="47.27266" lon="-1.55331">
        <ele>25</ele>
        <time>2019-10-17T12:27:38.000Z</time>
      </trkpt>
      <trkpt lat="47.27268" lon="-1.5533">
        <ele>25</ele>
        <time>2019-10-17T12:27:39.000Z</time>
      </trkpt>
      <trkpt lat="47.27269" lon="-1.5533">
        <ele>25</ele>
        <time>2019-10-17T12:27:40.000Z</time>
      </trkpt>
      <trkpt lat="47.27271" lon="-1.55329">
        <ele>25</ele>
        <time>2019-10-17T12:27:41.000Z</time>
      </trkpt>
      <trkpt lat="47.27272" lon="-1.55328">
        <ele>26</ele>
        <time>2019-10-17T12:27:42.000Z</time>
      </trkpt>
      <trkpt lat="47.27273" lon="-1.55326">
        <ele>26</ele>
        <time>2019-10-17T12:27:43.000Z</time>
      </trkpt>
      <trkpt lat="47.27274" lon="-1.55323">
        <ele>26</ele>
        <time>2019-10-17T12:27:44.000Z</time>
      </trkpt>
      <trkpt lat="47.27276" lon="-1.55319">
        <ele>26</ele>
        <time>2019-10-17T12:27:45.000Z</time>
      </trkpt>
      <trkpt lat="47.27278" lon="-1.55315">
        <ele>26</ele>
        <time>2019-10-17T12:27:46.000Z</time>
      </trkpt>
      <trkpt lat="47.27279" lon="-1.55312">
        <ele>26</ele>
        <time>2019-10-17T12:27:47.000Z</time>
      </trkpt>
      <trkpt lat="47.27281" lon="-1.55309">
        <ele>27</ele>
        <time>2019-10-17T12:27:48.000Z</time>
      </trkpt>
      <trkpt lat="47.27283" lon="-1.55305">
        <ele>27</ele>
        <time>2019-10-17T12:27:49.000Z</time>
      </trkpt>
      <trkpt lat="47.27285" lon="-1.55301">
        <ele>27</ele>
        <time>2019-10-17T12:27:50.000Z</time>
      </trkpt>
      <trkpt lat="47.27287" lon="-1.55297">
        <ele>27</ele>
        <time>2019-10-17T12:27:51.000Z</time>
      </trkpt>
      <trkpt lat="47.27288" lon="-1.55294">
        <ele>27</ele>
        <time>2019-10-17T12:27:52.000Z</time>
      </trkpt>
      <trkpt lat="47.2729" lon="-1.5529">
        <ele>27</ele>
        <time>2019-10-17T12:27:53.000Z</time>
      </trkpt>
      <trkpt lat="47.27293" lon="-1.55287">
        <ele>28</ele>
        <time>2019-10-17T12:27:54.000Z</time>
      </trkpt>
      <trkpt lat="47.27295" lon="-1.55283">
        <ele>28</ele>
        <time>2019-10-17T12:27:55.000Z</time>
      </trkpt>
      <trkpt lat="47.27297" lon="-1.55279">
        <ele>28</ele>
        <time>2019-10-17T12:27:56.000Z</time>
      </trkpt>
      <trkpt lat="47.27299" lon="-1.55275">
        <ele>28</ele>
        <time>2019-10-17T12:27:57.000Z</time>
      </trkpt>
      <trkpt lat="47.27302" lon="-1.55271">
        <ele>28</ele>
        <time>2019-10-17T12:27:58.000Z</time>
      </trkpt>
      <trkpt lat="47.27304" lon="-1.55266">
        <ele>28</ele>
        <time>2019-10-17T12:27:59.000Z</time>
      </trkpt>
      <trkpt lat="47.27307" lon="-1.55262">
        <ele>28</ele>
        <time>2019-10-17T12:28:00.000Z</time>
      </trkpt>
      <trkpt lat="47.27309" lon="-1.55257">
        <ele>28</ele>
        <time>2019-10-17T12:28:01.000Z</time>
      </trkpt>
      <trkpt lat="47.2731" lon="-1.55253">
        <ele>28</ele>
        <time>2019-10-17T12:28:02.000Z</time>
      </trkpt>
      <trkpt lat="47.27312" lon="-1.55249">
        <ele>28</ele>
        <time>2019-10-17T12:28:03.000Z</time>
      </trkpt>
      <trkpt lat="47.27314" lon="-1.55244">
        <ele>28</ele>
        <time>2019-10-17T12:28:04.000Z</time>
      </trkpt>
      <trkpt lat="47.27315" lon="-1.55239">
        <ele>29</ele>
        <time>2019-10-17T12:28:05.000Z</time>
      </trkpt>
      <trkpt lat="47.27317" lon="-1.55234">
        <ele>29</ele>
        <time>2019-10-17T12:28:06.000Z</time>
      </trkpt>
      <trkpt lat="47.27318" lon="-1.5523">
        <ele>29</ele>
        <time>2019-10-17T12:28:07.000Z</time>
      </trkpt>
      <trkpt lat="47.2732" lon="-1.55227">
        <ele>29</ele>
        <time>2019-10-17T12:28:08.000Z</time>
      </trkpt>
      <trkpt lat="47.27323" lon="-1.55225">
        <ele>29</ele>
        <time>2019-10-17T12:28:09.000Z</time>
      </trkpt>
      <trkpt lat="47.27327" lon="-1.55223">
        <ele>29</ele>
        <time>2019-10-17T12:28:10.000Z</time>
      </trkpt>
      <trkpt lat="47.27331" lon="-1.5522">
        <ele>29</ele>
        <time>2019-10-17T12:28:11.000Z</time>
      </trkpt>
      <trkpt lat="47.27334" lon="-1.55216">
        <ele>29</ele>
        <time>2019-10-17T12:28:12.000Z</time>
      </trkpt>
      <trkpt lat="47.27337" lon="-1.55213">
        <ele>29</ele>
        <time>2019-10-17T12:28:13.000Z</time>
      </trkpt>
      <trkpt lat="47.2734" lon="-1.55208">
        <ele>30</ele>
        <time>2019-10-17T12:28:14.000Z</time>
      </trkpt>
      <trkpt lat="47.27343" lon="-1.55204">
        <ele>30</ele>
        <time>2019-10-17T12:28:15.000Z</time>
      </trkpt>
      <trkpt lat="47.27345" lon="-1.55199">
        <ele>30</ele>
        <time>2019-10-17T12:28:16.000Z</time>
      </trkpt>
      <trkpt lat="47.27347" lon="-1.55195">
        <ele>30</ele>
        <time>2019-10-17T12:28:17.000Z</time>
      </trkpt>
      <trkpt lat="47.27349" lon="-1.55191">
        <ele>30</ele>
        <time>2019-10-17T12:28:18.000Z</time>
      </trkpt>
      <trkpt lat="47.27351" lon="-1.55188">
        <ele>30</ele>
        <time>2019-10-17T12:28:19.000Z</time>
      </trkpt>
      <trkpt lat="47.27352" lon="-1.55184">
        <ele>31</ele>
        <time>2019-10-17T12:28:20.000Z</time>
      </trkpt>
      <trkpt lat="47.27353" lon="-1.55178">
        <ele>31</ele>
        <time>2019-10-17T12:28:21.000Z</time>
      </trkpt>
      <trkpt lat="47.27354" lon="-1.55173">
        <ele>31</ele>
        <time>2019-10-17T12:28:22.000Z</time>
      </trkpt>
      <trkpt lat="47.27355" lon="-1.55167">
        <ele>31</ele>
        <time>2019-10-17T12:28:23.000Z</time>
      </trkpt>
      <trkpt lat="47.27357" lon="-1.55162">
        <ele>31</ele>
        <time>2019-10-17T12:28:24.000Z</time>
      </trkpt>
      <trkpt lat="47.27359" lon="-1.55157">
        <ele>31</ele>
        <time>2019-10-17T12:28:25.000Z</time>
      </trkpt>
      <trkpt lat="47.27361" lon="-1.55153">
        <ele>32</ele>
        <time>2019-10-17T12:28:26.000Z</time>
      </trkpt>
      <trkpt lat="47.27362" lon="-1.55149">
        <ele>32</ele>
        <time>2019-10-17T12:28:27.000Z</time>
      </trkpt>
      <trkpt lat="47.27363" lon="-1.55145">
        <ele>32</ele>
        <time>2019-10-17T12:28:28.000Z</time>
      </trkpt>
      <trkpt lat="47.27364" lon="-1.5514">
        <ele>32</ele>
        <time>2019-10-17T12:28:29.000Z</time>
      </trkpt>
      <trkpt lat="47.27366" lon="-1.55135">
        <ele>32</ele>
        <time>2019-10-17T12:28:30.000Z</time>
      </trkpt>
      <trkpt lat="47.27368" lon="-1.5513">
        <ele>32</ele>
        <time>2019-10-17T12:28:31.000Z</time>
      </trkpt>
      <trkpt lat="47.2737" lon="-1.55126">
        <ele>33</ele>
        <time>2019-10-17T12:28:32.000Z</time>
      </trkpt>
      <trkpt lat="47.27373" lon="-1.55123">
        <ele>33</ele>
        <time>2019-10-17T12:28:33.000Z</time>
      </trkpt>
      <trkpt lat="47.27375" lon="-1.5512">
        <ele>33</ele>
        <time>2019-10-17T12:28:34.000Z</time>
      </trkpt>
      <trkpt lat="47.27377" lon="-1.55118">
        <ele>33</ele>
        <time>2019-10-17T12:28:35.000Z</time>
      </trkpt>
      <trkpt lat="47.27379" lon="-1.55115">
        <ele>34</ele>
        <time>2019-10-17T12:28:36.000Z</time>
      </trkpt>
      <trkpt lat="47.27382" lon="-1.55113">
        <ele>34</ele>
        <time>2019-10-17T12:28:37.000Z</time>
      </trkpt>
      <trkpt lat="47.27386" lon="-1.5511">
        <ele>34</ele>
        <time>2019-10-17T12:28:38.000Z</time>
      </trkpt>
      <trkpt lat="47.27389" lon="-1.55106">
        <ele>34</ele>
        <time>2019-10-17T12:28:39.000Z</time>
      </trkpt>
      <trkpt lat="47.27393" lon="-1.55101">
        <ele>34</ele>
        <time>2019-10-17T12:28:40.000Z</time>
      </trkpt>
      <trkpt lat="47.27397" lon="-1.55096">
        <ele>34</ele>
        <time>2019-10-17T12:28:41.000Z</time>
      </trkpt>
      <trkpt lat="47.27402" lon="-1.5509">
        <ele>34</ele>
        <time>2019-10-17T12:28:42.000Z</time>
      </trkpt>
      <trkpt lat="47.27406" lon="-1.55084">
        <ele>34</ele>
        <time>2019-10-17T12:28:43.000Z</time>
      </trkpt>
      <trkpt lat="47.2741" lon="-1.55077">
        <ele>34</ele>
        <time>2019-10-17T12:28:44.000Z</time>
      </trkpt>
      <trkpt lat="47.27413" lon="-1.55069">
        <ele>34</ele>
        <time>2019-10-17T12:28:45.000Z</time>
      </trkpt>
      <trkpt lat="47.27415" lon="-1.55062">
        <ele>34</ele>
        <time>2019-10-17T12:28:46.000Z</time>
      </trkpt>
      <trkpt lat="47.27417" lon="-1.55055">
        <ele>33</ele>
        <time>2019-10-17T12:28:47.000Z</time>
      </trkpt>
      <trkpt lat="47.2742" lon="-1.55048">
        <ele>33</ele>
        <time>2019-10-17T12:28:48.000Z</time>
      </trkpt>
      <trkpt lat="47.27422" lon="-1.5504">
        <ele>33</ele>
        <time>2019-10-17T12:28:49.000Z</time>
      </trkpt>
      <trkpt lat="47.27424" lon="-1.55034">
        <ele>33</ele>
        <time>2019-10-17T12:28:50.000Z</time>
      </trkpt>
      <trkpt lat="47.27426" lon="-1.55029">
        <ele>33</ele>
        <time>2019-10-17T12:28:51.000Z</time>
      </trkpt>
      <trkpt lat="47.27428" lon="-1.55023">
        <ele>33</ele>
        <time>2019-10-17T12:28:52.000Z</time>
      </trkpt>
      <trkpt lat="47.27429" lon="-1.55016">
        <ele>33</ele>
        <time>2019-10-17T12:28:53.000Z</time>
      </trkpt>
      <trkpt lat="47.2743" lon="-1.55009">
        <ele>33</ele>
        <time>2019-10-17T12:28:54.000Z</time>
      </trkpt>
      <trkpt lat="47.27432" lon="-1.55002">
        <ele>33</ele>
        <time>2019-10-17T12:28:55.000Z</time>
      </trkpt>
      <trkpt lat="47.27433" lon="-1.54994">
        <ele>34</ele>
        <time>2019-10-17T12:28:56.000Z</time>
      </trkpt>
      <trkpt lat="47.27435" lon="-1.54987">
        <ele>34</ele>
        <time>2019-10-17T12:28:57.000Z</time>
      </trkpt>
      <trkpt lat="47.27437" lon="-1.54981">
        <ele>34</ele>
        <time>2019-10-17T12:28:58.000Z</time>
      </trkpt>
      <trkpt lat="47.27438" lon="-1.54975">
        <ele>34</ele>
        <time>2019-10-17T12:28:59.000Z</time>
      </trkpt>
      <trkpt lat="47.27439" lon="-1.54969">
        <ele>34</ele>
        <time>2019-10-17T12:29:00.000Z</time>
      </trkpt>
      <trkpt lat="47.27441" lon="-1.54963">
        <ele>34</ele>
        <time>2019-10-17T12:29:01.000Z</time>
      </trkpt>
      <trkpt lat="47.27442" lon="-1.54957">
        <ele>34</ele>
        <time>2019-10-17T12:29:02.000Z</time>
      </trkpt>
      <trkpt lat="47.27444" lon="-1.54951">
        <ele>35</ele>
        <time>2019-10-17T12:29:03.000Z</time>
      </trkpt>
      <trkpt lat="47.27446" lon="-1.54944">
        <ele>35</ele>
        <time>2019-10-17T12:29:04.000Z</time>
      </trkpt>
      <trkpt lat="47.27448" lon="-1.54939">
        <ele>35</ele>
        <time>2019-10-17T12:29:05.000Z</time>
      </trkpt>
      <trkpt lat="47.27451" lon="-1.54934">
        <ele>35</ele>
        <time>2019-10-17T12:29:06.000Z</time>
      </trkpt>
      <trkpt lat="47.27452" lon="-1.54929">
        <ele>35</ele>
        <time>2019-10-17T12:29:07.000Z</time>
      </trkpt>
      <trkpt lat="47.27454" lon="-1.54924">
        <ele>36</ele>
        <time>2019-10-17T12:29:08.000Z</time>
      </trkpt>
      <trkpt lat="47.27456" lon="-1.54918">
        <ele>36</ele>
        <time>2019-10-17T12:29:09.000Z</time>
      </trkpt>
      <trkpt lat="47.27457" lon="-1.54911">
        <ele>36</ele>
        <time>2019-10-17T12:29:10.000Z</time>
      </trkpt>
      <trkpt lat="47.27458" lon="-1.54904">
        <ele>36</ele>
        <time>2019-10-17T12:29:11.000Z</time>
      </trkpt>
      <trkpt lat="47.27459" lon="-1.54897">
        <ele>36</ele>
        <time>2019-10-17T12:29:12.000Z</time>
      </trkpt>
      <trkpt lat="47.27461" lon="-1.5489">
        <ele>37</ele>
        <time>2019-10-17T12:29:13.000Z</time>
      </trkpt>
      <trkpt lat="47.27462" lon="-1.54884">
        <ele>37</ele>
        <time>2019-10-17T12:29:14.000Z</time>
      </trkpt>
      <trkpt lat="47.27462" lon="-1.54877">
        <ele>38</ele>
        <time>2019-10-17T12:29:15.000Z</time>
      </trkpt>
      <trkpt lat="47.27462" lon="-1.54869">
        <ele>38</ele>
        <time>2019-10-17T12:29:16.000Z</time>
      </trkpt>
      <trkpt lat="47.27462" lon="-1.54861">
        <ele>38</ele>
        <time>2019-10-17T12:29:17.000Z</time>
      </trkpt>
      <trkpt lat="47.27461" lon="-1.54853">
        <ele>39</ele>
        <time>2019-10-17T12:29:18.000Z</time>
      </trkpt>
      <trkpt lat="47.27461" lon="-1.54846">
        <ele>39</ele>
        <time>2019-10-17T12:29:19.000Z</time>
      </trkpt>
      <trkpt lat="47.2746" lon="-1.54839">
        <ele>40</ele>
        <time>2019-10-17T12:29:20.000Z</time>
      </trkpt>
      <trkpt lat="47.2746" lon="-1.54833">
        <ele>40</ele>
        <time>2019-10-17T12:29:21.000Z</time>
      </trkpt>
      <trkpt lat="47.2746" lon="-1.54826">
        <ele>41</ele>
        <time>2019-10-17T12:29:22.000Z</time>
      </trkpt>
      <trkpt lat="47.2746" lon="-1.5482">
        <ele>41</ele>
        <time>2019-10-17T12:29:23.000Z</time>
      </trkpt>
      <trkpt lat="47.2746" lon="-1.54813">
        <ele>42</ele>
        <time>2019-10-17T12:29:24.000Z</time>
      </trkpt>
      <trkpt lat="47.2746" lon="-1.54806">
        <ele>42</ele>
        <time>2019-10-17T12:29:25.000Z</time>
      </trkpt>
      <trkpt lat="47.27459" lon="-1.548">
        <ele>42</ele>
        <time>2019-10-17T12:29:26.000Z</time>
      </trkpt>
      <trkpt lat="47.27459" lon="-1.54793">
        <ele>43</ele>
        <time>2019-10-17T12:29:27.000Z</time>
      </trkpt>
      <trkpt lat="47.27457" lon="-1.54786">
        <ele>43</ele>
        <time>2019-10-17T12:29:28.000Z</time>
      </trkpt>
      <trkpt lat="47.27455" lon="-1.54779">
        <ele>43</ele>
        <time>2019-10-17T12:29:29.000Z</time>
      </trkpt>
      <trkpt lat="47.27452" lon="-1.54773">
        <ele>43</ele>
        <time>2019-10-17T12:29:30.000Z</time>
      </trkpt>
      <trkpt lat="47.27449" lon="-1.54767">
        <ele>43</ele>
        <time>2019-10-17T12:29:31.000Z</time>
      </trkpt>
      <trkpt lat="47.27447" lon="-1.54761">
        <ele>43</ele>
        <time>2019-10-17T12:29:32.000Z</time>
      </trkpt>
      <trkpt lat="47.27444" lon="-1.54754">
        <ele>43</ele>
        <time>2019-10-17T12:29:33.000Z</time>
      </trkpt>
      <trkpt lat="47.27441" lon="-1.54747">
        <ele>43</ele>
        <time>2019-10-17T12:29:34.000Z</time>
      </trkpt>
      <trkpt lat="47.27439" lon="-1.54739">
        <ele>42</ele>
        <time>2019-10-17T12:29:35.000Z</time>
      </trkpt>
      <trkpt lat="47.27437" lon="-1.54731">
        <ele>42</ele>
        <time>2019-10-17T12:29:36.000Z</time>
      </trkpt>
      <trkpt lat="47.27435" lon="-1.54723">
        <ele>41</ele>
        <time>2019-10-17T12:29:37.000Z</time>
      </trkpt>
      <trkpt lat="47.27435" lon="-1.54715">
        <ele>41</ele>
        <time>2019-10-17T12:29:38.000Z</time>
      </trkpt>
      <trkpt lat="47.27436" lon="-1.54708">
        <ele>40</ele>
        <time>2019-10-17T12:29:39.000Z</time>
      </trkpt>
      <trkpt lat="47.27437" lon="-1.54702">
        <ele>40</ele>
        <time>2019-10-17T12:29:40.000Z</time>
      </trkpt>
      <trkpt lat="47.27439" lon="-1.54695">
        <ele>40</ele>
        <time>2019-10-17T12:29:41.000Z</time>
      </trkpt>
      <trkpt lat="47.27441" lon="-1.5469">
        <ele>40</ele>
        <time>2019-10-17T12:29:42.000Z</time>
      </trkpt>
      <trkpt lat="47.27442" lon="-1.54684">
        <ele>39</ele>
        <time>2019-10-17T12:29:43.000Z</time>
      </trkpt>
      <trkpt lat="47.27443" lon="-1.54679">
        <ele>39</ele>
        <time>2019-10-17T12:29:44.000Z</time>
      </trkpt>
      <trkpt lat="47.27444" lon="-1.54674">
        <ele>39</ele>
        <time>2019-10-17T12:29:45.000Z</time>
      </trkpt>
      <trkpt lat="47.27446" lon="-1.54668">
        <ele>38</ele>
        <time>2019-10-17T12:29:46.000Z</time>
      </trkpt>
      <trkpt lat="47.27447" lon="-1.54662">
        <ele>38</ele>
        <time>2019-10-17T12:29:47.000Z</time>
      </trkpt>
      <trkpt lat="47.27449" lon="-1.54656">
        <ele>38</ele>
        <time>2019-10-17T12:29:48.000Z</time>
      </trkpt>
      <trkpt lat="47.27451" lon="-1.54649">
        <ele>37</ele>
        <time>2019-10-17T12:29:49.000Z</time>
      </trkpt>
      <trkpt lat="47.27453" lon="-1.54643">
        <ele>37</ele>
        <time>2019-10-17T12:29:50.000Z</time>
      </trkpt>
      <trkpt lat="47.27456" lon="-1.54637">
        <ele>37</ele>
        <time>2019-10-17T12:29:51.000Z</time>
      </trkpt>
      <trkpt lat="47.27459" lon="-1.54632">
        <ele>36</ele>
        <time>2019-10-17T12:29:52.000Z</time>
      </trkpt>
      <trkpt lat="47.27463" lon="-1.54627">
        <ele>36</ele>
        <time>2019-10-17T12:29:53.000Z</time>
      </trkpt>
      <trkpt lat="47.27466" lon="-1.54621">
        <ele>36</ele>
        <time>2019-10-17T12:29:54.000Z</time>
      </trkpt>
      <trkpt lat="47.2747" lon="-1.54616">
        <ele>35</ele>
        <time>2019-10-17T12:29:55.000Z</time>
      </trkpt>
      <trkpt lat="47.27473" lon="-1.5461">
        <ele>35</ele>
        <time>2019-10-17T12:29:56.000Z</time>
      </trkpt>
      <trkpt lat="47.27477" lon="-1.54605">
        <ele>35</ele>
        <time>2019-10-17T12:29:57.000Z</time>
      </trkpt>
      <trkpt lat="47.27481" lon="-1.546">
        <ele>35</ele>
        <time>2019-10-17T12:29:58.000Z</time>
      </trkpt>
      <trkpt lat="47.27485" lon="-1.54595">
        <ele>34</ele>
        <time>2019-10-17T12:29:59.000Z</time>
      </trkpt>
      <trkpt lat="47.27489" lon="-1.5459">
        <ele>34</ele>
        <time>2019-10-17T12:30:00.000Z</time>
      </trkpt>
      <trkpt lat="47.27494" lon="-1.54586">
        <ele>34</ele>
        <time>2019-10-17T12:30:01.000Z</time>
      </trkpt>
      <trkpt lat="47.27499" lon="-1.54583">
        <ele>34</ele>
        <time>2019-10-17T12:30:02.000Z</time>
      </trkpt>
      <trkpt lat="47.27503" lon="-1.54579">
        <ele>33</ele>
        <time>2019-10-17T12:30:03.000Z</time>
      </trkpt>
      <trkpt lat="47.27508" lon="-1.54575">
        <ele>33</ele>
        <time>2019-10-17T12:30:04.000Z</time>
      </trkpt>
      <trkpt lat="47.27513" lon="-1.5457">
        <ele>33</ele>
        <time>2019-10-17T12:30:05.000Z</time>
      </trkpt>
      <trkpt lat="47.27517" lon="-1.54564">
        <ele>33</ele>
        <time>2019-10-17T12:30:06.000Z</time>
      </trkpt>
      <trkpt lat="47.27521" lon="-1.54557">
        <ele>33</ele>
        <time>2019-10-17T12:30:07.000Z</time>
      </trkpt>
      <trkpt lat="47.27525" lon="-1.54551">
        <ele>33</ele>
        <time>2019-10-17T12:30:08.000Z</time>
      </trkpt>
      <trkpt lat="47.27529" lon="-1.54545">
        <ele>32</ele>
        <time>2019-10-17T12:30:09.000Z</time>
      </trkpt>
      <trkpt lat="47.27532" lon="-1.54538">
        <ele>32</ele>
        <time>2019-10-17T12:30:10.000Z</time>
      </trkpt>
      <trkpt lat="47.27534" lon="-1.54531">
        <ele>32</ele>
        <time>2019-10-17T12:30:11.000Z</time>
      </trkpt>
      <trkpt lat="47.27536" lon="-1.54523">
        <ele>31</ele>
        <time>2019-10-17T12:30:12.000Z</time>
      </trkpt>
      <trkpt lat="47.27538" lon="-1.54515">
        <ele>31</ele>
        <time>2019-10-17T12:30:13.000Z</time>
      </trkpt>
      <trkpt lat="47.27539" lon="-1.54506">
        <ele>31</ele>
        <time>2019-10-17T12:30:14.000Z</time>
      </trkpt>
      <trkpt lat="47.27539" lon="-1.54497">
        <ele>30</ele>
        <time>2019-10-17T12:30:15.000Z</time>
      </trkpt>
      <trkpt lat="47.27538" lon="-1.54488">
        <ele>30</ele>
        <time>2019-10-17T12:30:16.000Z</time>
      </trkpt>
      <trkpt lat="47.27537" lon="-1.54479">
        <ele>30</ele>
        <time>2019-10-17T12:30:17.000Z</time>
      </trkpt>
      <trkpt lat="47.27536" lon="-1.54469">
        <ele>29</ele>
        <time>2019-10-17T12:30:18.000Z</time>
      </trkpt>
      <trkpt lat="47.27534" lon="-1.5446">
        <ele>29</ele>
        <time>2019-10-17T12:30:19.000Z</time>
      </trkpt>
      <trkpt lat="47.27532" lon="-1.54451">
        <ele>29</ele>
        <time>2019-10-17T12:30:20.000Z</time>
      </trkpt>
      <trkpt lat="47.2753" lon="-1.54442">
        <ele>29</ele>
        <time>2019-10-17T12:30:21.000Z</time>
      </trkpt>
      <trkpt lat="47.27528" lon="-1.54434">
        <ele>29</ele>
        <time>2019-10-17T12:30:22.000Z</time>
      </trkpt>
      <trkpt lat="47.27527" lon="-1.54426">
        <ele>28</ele>
        <time>2019-10-17T12:30:23.000Z</time>
      </trkpt>
      <trkpt lat="47.27526" lon="-1.54418">
        <ele>28</ele>
        <time>2019-10-17T12:30:24.000Z</time>
      </trkpt>
      <trkpt lat="47.27525" lon="-1.54411">
        <ele>28</ele>
        <time>2019-10-17T12:30:25.000Z</time>
      </trkpt>
      <trkpt lat="47.27524" lon="-1.54403">
        <ele>28</ele>
        <time>2019-10-17T12:30:26.000Z</time>
      </trkpt>
      <trkpt lat="47.27523" lon="-1.54396">
        <ele>28</ele>
        <time>2019-10-17T12:30:27.000Z</time>
      </trkpt>
      <trkpt lat="47.27522" lon="-1.5439">
        <ele>29</ele>
        <time>2019-10-17T12:30:28.000Z</time>
      </trkpt>
      <trkpt lat="47.27522" lon="-1.54383">
        <ele>29</ele>
        <time>2019-10-17T12:30:29.000Z</time>
      </trkpt>
      <trkpt lat="47.27522" lon="-1.54375">
        <ele>29</ele>
        <time>2019-10-17T12:30:30.000Z</time>
      </trkpt>
      <trkpt lat="47.27522" lon="-1.54368">
        <ele>29</ele>
        <time>2019-10-17T12:30:31.000Z</time>
      </trkpt>
      <trkpt lat="47.27521" lon="-1.54361">
        <ele>29</ele>
        <time>2019-10-17T12:30:32.000Z</time>
      </trkpt>
      <trkpt lat="47.2752" lon="-1.54353">
        <ele>29</ele>
        <time>2019-10-17T12:30:33.000Z</time>
      </trkpt>
      <trkpt lat="47.27519" lon="-1.54347">
        <ele>29</ele>
        <time>2019-10-17T12:30:34.000Z</time>
      </trkpt>
      <trkpt lat="47.27518" lon="-1.54339">
        <ele>29</ele>
        <time>2019-10-17T12:30:35.000Z</time>
      </trkpt>
      <trkpt lat="47.27515" lon="-1.54331">
        <ele>29</ele>
        <time>2019-10-17T12:30:36.000Z</time>
      </trkpt>
      <trkpt lat="47.27512" lon="-1.54322">
        <ele>29</ele>
        <time>2019-10-17T12:30:37.000Z</time>
      </trkpt>
      <trkpt lat="47.27508" lon="-1.54312">
        <ele>29</ele>
        <time>2019-10-17T12:30:38.000Z</time>
      </trkpt>
      <trkpt lat="47.27505" lon="-1.54302">
        <ele>29</ele>
        <time>2019-10-17T12:30:39.000Z</time>
      </trkpt>
      <trkpt lat="47.27501" lon="-1.54293">
        <ele>28</ele>
        <time>2019-10-17T12:30:40.000Z</time>
      </trkpt>
      <trkpt lat="47.27498" lon="-1.54283">
        <ele>28</ele>
        <time>2019-10-17T12:30:41.000Z</time>
      </trkpt>
      <trkpt lat="47.27494" lon="-1.54272">
        <ele>28</ele>
        <time>2019-10-17T12:30:42.000Z</time>
      </trkpt>
      <trkpt lat="47.27491" lon="-1.54262">
        <ele>28</ele>
        <time>2019-10-17T12:30:43.000Z</time>
      </trkpt>
      <trkpt lat="47.27487" lon="-1.54252">
        <ele>28</ele>
        <time>2019-10-17T12:30:44.000Z</time>
      </trkpt>
      <trkpt lat="47.27484" lon="-1.54243">
        <ele>27</ele>
        <time>2019-10-17T12:30:45.000Z</time>
      </trkpt>
      <trkpt lat="47.27481" lon="-1.54234">
        <ele>27</ele>
        <time>2019-10-17T12:30:46.000Z</time>
      </trkpt>
      <trkpt lat="47.27478" lon="-1.54225">
        <ele>27</ele>
        <time>2019-10-17T12:30:47.000Z</time>
      </trkpt>
      <trkpt lat="47.27475" lon="-1.54216">
        <ele>27</ele>
        <time>2019-10-17T12:30:48.000Z</time>
      </trkpt>
      <trkpt lat="47.27472" lon="-1.54207">
        <ele>26</ele>
        <time>2019-10-17T12:30:49.000Z</time>
      </trkpt>
      <trkpt lat="47.27469" lon="-1.54197">
        <ele>26</ele>
        <time>2019-10-17T12:30:50.000Z</time>
      </trkpt>
      <trkpt lat="47.27466" lon="-1.54187">
        <ele>26</ele>
        <time>2019-10-17T12:30:51.000Z</time>
      </trkpt>
      <trkpt lat="47.27463" lon="-1.54179">
        <ele>25</ele>
        <time>2019-10-17T12:30:52.000Z</time>
      </trkpt>
      <trkpt lat="47.27461" lon="-1.5417">
        <ele>25</ele>
        <time>2019-10-17T12:30:53.000Z</time>
      </trkpt>
      <trkpt lat="47.27458" lon="-1.54163">
        <ele>25</ele>
        <time>2019-10-17T12:30:54.000Z</time>
      </trkpt>
      <trkpt lat="47.27456" lon="-1.54156">
        <ele>25</ele>
        <time>2019-10-17T12:30:55.000Z</time>
      </trkpt>
      <trkpt lat="47.27454" lon="-1.54149">
        <ele>25</ele>
        <time>2019-10-17T12:30:56.000Z</time>
      </trkpt>
      <trkpt lat="47.27452" lon="-1.54143">
        <ele>25</ele>
        <time>2019-10-17T12:30:57.000Z</time>
      </trkpt>
      <trkpt lat="47.2745" lon="-1.54138">
        <ele>25</ele>
        <time>2019-10-17T12:30:58.000Z</time>
      </trkpt>
      <trkpt lat="47.27448" lon="-1.54132">
        <ele>24</ele>
        <time>2019-10-17T12:30:59.000Z</time>
      </trkpt>
      <trkpt lat="47.27447" lon="-1.54126">
        <ele>24</ele>
        <time>2019-10-17T12:31:00.000Z</time>
      </trkpt>
      <trkpt lat="47.27445" lon="-1.5412">
        <ele>24</ele>
        <time>2019-10-17T12:31:01.000Z</time>
      </trkpt>
      <trkpt lat="47.27444" lon="-1.54115">
        <ele>24</ele>
        <time>2019-10-17T12:31:02.000Z</time>
      </trkpt>
      <trkpt lat="47.27442" lon="-1.5411">
        <ele>24</ele>
        <time>2019-10-17T12:31:03.000Z</time>
      </trkpt>
      <trkpt lat="47.2744" lon="-1.54104">
        <ele>24</ele>
        <time>2019-10-17T12:31:04.000Z</time>
      </trkpt>
      <trkpt lat="47.27438" lon="-1.54097">
        <ele>24</ele>
        <time>2019-10-17T12:31:05.000Z</time>
      </trkpt>
      <trkpt lat="47.27436" lon="-1.54091">
        <ele>24</ele>
        <time>2019-10-17T12:31:06.000Z</time>
      </trkpt>
      <trkpt lat="47.27434" lon="-1.54085">
        <ele>24</ele>
        <time>2019-10-17T12:31:07.000Z</time>
      </trkpt>
      <trkpt lat="47.27431" lon="-1.54078">
        <ele>24</ele>
        <time>2019-10-17T12:31:08.000Z</time>
      </trkpt>
      <trkpt lat="47.27429" lon="-1.54072">
        <ele>24</ele>
        <time>2019-10-17T12:31:09.000Z</time>
      </trkpt>
      <trkpt lat="47.27426" lon="-1.54064">
        <ele>24</ele>
        <time>2019-10-17T12:31:10.000Z</time>
      </trkpt>
      <trkpt lat="47.27423" lon="-1.54057">
        <ele>24</ele>
        <time>2019-10-17T12:31:11.000Z</time>
      </trkpt>
      <trkpt lat="47.2742" lon="-1.54049">
        <ele>24</ele>
        <time>2019-10-17T12:31:12.000Z</time>
      </trkpt>
      <trkpt lat="47.27415" lon="-1.54042">
        <ele>24</ele>
        <time>2019-10-17T12:31:13.000Z</time>
      </trkpt>
      <trkpt lat="47.27411" lon="-1.54034">
        <ele>24</ele>
        <time>2019-10-17T12:31:14.000Z</time>
      </trkpt>
      <trkpt lat="47.27407" lon="-1.54026">
        <ele>24</ele>
        <time>2019-10-17T12:31:15.000Z</time>
      </trkpt>
      <trkpt lat="47.27402" lon="-1.54017">
        <ele>23</ele>
        <time>2019-10-17T12:31:16.000Z</time>
      </trkpt>
      <trkpt lat="47.27397" lon="-1.54009">
        <ele>23</ele>
        <time>2019-10-17T12:31:17.000Z</time>
      </trkpt>
      <trkpt lat="47.27392" lon="-1.54">
        <ele>22</ele>
        <time>2019-10-17T12:31:18.000Z</time>
      </trkpt>
      <trkpt lat="47.27388" lon="-1.53992">
        <ele>22</ele>
        <time>2019-10-17T12:31:19.000Z</time>
      </trkpt>
      <trkpt lat="47.27384" lon="-1.53985">
        <ele>22</ele>
        <time>2019-10-17T12:31:20.000Z</time>
      </trkpt>
      <trkpt lat="47.2738" lon="-1.53977">
        <ele>21</ele>
        <time>2019-10-17T12:31:21.000Z</time>
      </trkpt>
      <trkpt lat="47.27375" lon="-1.53969">
        <ele>21</ele>
        <time>2019-10-17T12:31:22.000Z</time>
      </trkpt>
      <trkpt lat="47.27371" lon="-1.5396">
        <ele>21</ele>
        <time>2019-10-17T12:31:23.000Z</time>
      </trkpt>
      <trkpt lat="47.27366" lon="-1.53951">
        <ele>20</ele>
        <time>2019-10-17T12:31:24.000Z</time>
      </trkpt>
      <trkpt lat="47.27362" lon="-1.53942">
        <ele>20</ele>
        <time>2019-10-17T12:31:25.000Z</time>
      </trkpt>
      <trkpt lat="47.27358" lon="-1.53933">
        <ele>20</ele>
        <time>2019-10-17T12:31:26.000Z</time>
      </trkpt>
      <trkpt lat="47.27354" lon="-1.53924">
        <ele>20</ele>
        <time>2019-10-17T12:31:27.000Z</time>
      </trkpt>
      <trkpt lat="47.2735" lon="-1.53915">
        <ele>19</ele>
        <time>2019-10-17T12:31:28.000Z</time>
      </trkpt>
      <trkpt lat="47.27346" lon="-1.53907">
        <ele>19</ele>
        <time>2019-10-17T12:31:29.000Z</time>
      </trkpt>
      <trkpt lat="47.27342" lon="-1.53899">
        <ele>19</ele>
        <time>2019-10-17T12:31:30.000Z</time>
      </trkpt>
      <trkpt lat="47.27338" lon="-1.53891">
        <ele>19</ele>
        <time>2019-10-17T12:31:31.000Z</time>
      </trkpt>
      <trkpt lat="47.27335" lon="-1.53882">
        <ele>19</ele>
        <time>2019-10-17T12:31:32.000Z</time>
      </trkpt>
      <trkpt lat="47.27332" lon="-1.53874">
        <ele>18</ele>
        <time>2019-10-17T12:31:33.000Z</time>
      </trkpt>
      <trkpt lat="47.27329" lon="-1.53866">
        <ele>18</ele>
        <time>2019-10-17T12:31:34.000Z</time>
      </trkpt>
      <trkpt lat="47.27326" lon="-1.53858">
        <ele>18</ele>
        <time>2019-10-17T12:31:35.000Z</time>
      </trkpt>
      <trkpt lat="47.27324" lon="-1.53849">
        <ele>18</ele>
        <time>2019-10-17T12:31:36.000Z</time>
      </trkpt>
      <trkpt lat="47.27321" lon="-1.53842">
        <ele>18</ele>
        <time>2019-10-17T12:31:37.000Z</time>
      </trkpt>
      <trkpt lat="47.27318" lon="-1.53834">
        <ele>18</ele>
        <time>2019-10-17T12:31:38.000Z</time>
      </trkpt>
      <trkpt lat="47.27315" lon="-1.53826">
        <ele>18</ele>
        <time>2019-10-17T12:31:39.000Z</time>
      </trkpt>
      <trkpt lat="47.27313" lon="-1.53818">
        <ele>18</ele>
        <time>2019-10-17T12:31:40.000Z</time>
      </trkpt>
      <trkpt lat="47.2731" lon="-1.5381">
        <ele>18</ele>
        <time>2019-10-17T12:31:41.000Z</time>
      </trkpt>
      <trkpt lat="47.27306" lon="-1.53803">
        <ele>17</ele>
        <time>2019-10-17T12:31:42.000Z</time>
      </trkpt>
      <trkpt lat="47.27302" lon="-1.53796">
        <ele>17</ele>
        <time>2019-10-17T12:31:43.000Z</time>
      </trkpt>
      <trkpt lat="47.27297" lon="-1.53789">
        <ele>17</ele>
        <time>2019-10-17T12:31:44.000Z</time>
      </trkpt>
      <trkpt lat="47.27293" lon="-1.53782">
        <ele>16</ele>
        <time>2019-10-17T12:31:45.000Z</time>
      </trkpt>
      <trkpt lat="47.27288" lon="-1.53775">
        <ele>16</ele>
        <time>2019-10-17T12:31:46.000Z</time>
      </trkpt>
      <trkpt lat="47.27284" lon="-1.53768">
        <ele>16</ele>
        <time>2019-10-17T12:31:47.000Z</time>
      </trkpt>
      <trkpt lat="47.2728" lon="-1.5376">
        <ele>15</ele>
        <time>2019-10-17T12:31:48.000Z</time>
      </trkpt>
      <trkpt lat="47.27275" lon="-1.53753">
        <ele>15</ele>
        <time>2019-10-17T12:31:49.000Z</time>
      </trkpt>
      <trkpt lat="47.27271" lon="-1.53745">
        <ele>15</ele>
        <time>2019-10-17T12:31:50.000Z</time>
      </trkpt>
      <trkpt lat="47.27267" lon="-1.53738">
        <ele>15</ele>
        <time>2019-10-17T12:31:51.000Z</time>
      </trkpt>
      <trkpt lat="47.27263" lon="-1.53731">
        <ele>15</ele>
        <time>2019-10-17T12:31:52.000Z</time>
      </trkpt>
      <trkpt lat="47.2726" lon="-1.53723">
        <ele>15</ele>
        <time>2019-10-17T12:31:53.000Z</time>
      </trkpt>
      <trkpt lat="47.27257" lon="-1.53716">
        <ele>15</ele>
        <time>2019-10-17T12:31:54.000Z</time>
      </trkpt>
      <trkpt lat="47.27254" lon="-1.53708">
        <ele>15</ele>
        <time>2019-10-17T12:31:55.000Z</time>
      </trkpt>
      <trkpt lat="47.2725" lon="-1.537">
        <ele>15</ele>
        <time>2019-10-17T12:31:56.000Z</time>
      </trkpt>
      <trkpt lat="47.27247" lon="-1.53693">
        <ele>15</ele>
        <time>2019-10-17T12:31:57.000Z</time>
      </trkpt>
      <trkpt lat="47.27242" lon="-1.53685">
        <ele>15</ele>
        <time>2019-10-17T12:31:58.000Z</time>
      </trkpt>
      <trkpt lat="47.27237" lon="-1.53681">
        <ele>15</ele>
        <time>2019-10-17T12:31:59.000Z</time>
      </trkpt>
      <trkpt lat="47.27231" lon="-1.53681">
        <ele>15</ele>
        <time>2019-10-17T12:32:00.000Z</time>
      </trkpt>
      <trkpt lat="47.27225" lon="-1.53683">
        <ele>15</ele>
        <time>2019-10-17T12:32:01.000Z</time>
      </trkpt>
      <trkpt lat="47.2722" lon="-1.53686">
        <ele>15</ele>
        <time>2019-10-17T12:32:02.000Z</time>
      </trkpt>
      <trkpt lat="47.27215" lon="-1.53689">
        <ele>15</ele>
        <time>2019-10-17T12:32:03.000Z</time>
      </trkpt>
      <trkpt lat="47.27211" lon="-1.53691">
        <ele>15</ele>
        <time>2019-10-17T12:32:04.000Z</time>
      </trkpt>
      <trkpt lat="47.27206" lon="-1.53694">
        <ele>15</ele>
        <time>2019-10-17T12:32:05.000Z</time>
      </trkpt>
      <trkpt lat="47.27201" lon="-1.53698">
        <ele>15</ele>
        <time>2019-10-17T12:32:06.000Z</time>
      </trkpt>
      <trkpt lat="47.27195" lon="-1.53703">
        <ele>15</ele>
        <time>2019-10-17T12:32:07.000Z</time>
      </trkpt>
      <trkpt lat="47.2719" lon="-1.53707">
        <ele>15</ele>
        <time>2019-10-17T12:32:08.000Z</time>
      </trkpt>
      <trkpt lat="47.27184" lon="-1.53712">
        <ele>14</ele>
        <time>2019-10-17T12:32:09.000Z</time>
      </trkpt>
      <trkpt lat="47.27179" lon="-1.53717">
        <ele>14</ele>
        <time>2019-10-17T12:32:10.000Z</time>
      </trkpt>
      <trkpt lat="47.27173" lon="-1.53722">
        <ele>14</ele>
        <time>2019-10-17T12:32:11.000Z</time>
      </trkpt>
      <trkpt lat="47.27168" lon="-1.53726">
        <ele>14</ele>
        <time>2019-10-17T12:32:12.000Z</time>
      </trkpt>
      <trkpt lat="47.27162" lon="-1.53731">
        <ele>14</ele>
        <time>2019-10-17T12:32:13.000Z</time>
      </trkpt>
      <trkpt lat="47.27157" lon="-1.53736">
        <ele>13</ele>
        <time>2019-10-17T12:32:14.000Z</time>
      </trkpt>
      <trkpt lat="47.27151" lon="-1.53741">
        <ele>13</ele>
        <time>2019-10-17T12:32:15.000Z</time>
      </trkpt>
      <trkpt lat="47.27146" lon="-1.53746">
        <ele>13</ele>
        <time>2019-10-17T12:32:16.000Z</time>
      </trkpt>
      <trkpt lat="47.27141" lon="-1.5375">
        <ele>13</ele>
        <time>2019-10-17T12:32:17.000Z</time>
      </trkpt>
      <trkpt lat="47.27136" lon="-1.53755">
        <ele>13</ele>
        <time>2019-10-17T12:32:18.000Z</time>
      </trkpt>
      <trkpt lat="47.27131" lon="-1.5376">
        <ele>12</ele>
        <time>2019-10-17T12:32:19.000Z</time>
      </trkpt>
      <trkpt lat="47.27127" lon="-1.53765">
        <ele>12</ele>
        <time>2019-10-17T12:32:20.000Z</time>
      </trkpt>
      <trkpt lat="47.27123" lon="-1.5377">
        <ele>12</ele>
        <time>2019-10-17T12:32:21.000Z</time>
      </trkpt>
      <trkpt lat="47.27119" lon="-1.53774">
        <ele>12</ele>
        <time>2019-10-17T12:32:22.000Z</time>
      </trkpt>
      <trkpt lat="47.27116" lon="-1.53778">
        <ele>12</ele>
        <time>2019-10-17T12:32:23.000Z</time>
      </trkpt>
      <trkpt lat="47.27112" lon="-1.53782">
        <ele>12</ele>
        <time>2019-10-17T12:32:24.000Z</time>
      </trkpt>
      <trkpt lat="47.27108" lon="-1.53786">
        <ele>12</ele>
        <time>2019-10-17T12:32:25.000Z</time>
      </trkpt>
      <trkpt lat="47.27103" lon="-1.5379">
        <ele>12</ele>
        <time>2019-10-17T12:32:26.000Z</time>
      </trkpt>
      <trkpt lat="47.271" lon="-1.53794">
        <ele>12</ele>
        <time>2019-10-17T12:32:27.000Z</time>
      </trkpt>
      <trkpt lat="47.27095" lon="-1.53798">
        <ele>13</ele>
        <time>2019-10-17T12:32:28.000Z</time>
      </trkpt>
      <trkpt lat="47.2709" lon="-1.53802">
        <ele>13</ele>
        <time>2019-10-17T12:32:29.000Z</time>
      </trkpt>
      <trkpt lat="47.27085" lon="-1.53806">
        <ele>13</ele>
        <time>2019-10-17T12:32:30.000Z</time>
      </trkpt>
      <trkpt lat="47.2708" lon="-1.5381">
        <ele>13</ele>
        <time>2019-10-17T12:32:31.000Z</time>
      </trkpt>
      <trkpt lat="47.27075" lon="-1.53814">
        <ele>13</ele>
        <time>2019-10-17T12:32:32.000Z</time>
      </trkpt>
      <trkpt lat="47.27071" lon="-1.53819">
        <ele>14</ele>
        <time>2019-10-17T12:32:33.000Z</time>
      </trkpt>
      <trkpt lat="47.27066" lon="-1.53824">
        <ele>14</ele>
        <time>2019-10-17T12:32:34.000Z</time>
      </trkpt>
      <trkpt lat="47.2706" lon="-1.53829">
        <ele>14</ele>
        <time>2019-10-17T12:32:35.000Z</time>
      </trkpt>
      <trkpt lat="47.27055" lon="-1.53834">
        <ele>14</ele>
        <time>2019-10-17T12:32:36.000Z</time>
      </trkpt>
      <trkpt lat="47.2705" lon="-1.53841">
        <ele>14</ele>
        <time>2019-10-17T12:32:37.000Z</time>
      </trkpt>
      <trkpt lat="47.27046" lon="-1.53848">
        <ele>14</ele>
        <time>2019-10-17T12:32:38.000Z</time>
      </trkpt>
      <trkpt lat="47.27041" lon="-1.53856">
        <ele>14</ele>
        <time>2019-10-17T12:32:39.000Z</time>
      </trkpt>
      <trkpt lat="47.27036" lon="-1.53863">
        <ele>14</ele>
        <time>2019-10-17T12:32:40.000Z</time>
      </trkpt>
      <trkpt lat="47.2703" lon="-1.53872">
        <ele>14</ele>
        <time>2019-10-17T12:32:41.000Z</time>
      </trkpt>
      <trkpt lat="47.27024" lon="-1.5388">
        <ele>14</ele>
        <time>2019-10-17T12:32:42.000Z</time>
      </trkpt>
      <trkpt lat="47.27018" lon="-1.53889">
        <ele>14</ele>
        <time>2019-10-17T12:32:43.000Z</time>
      </trkpt>
      <trkpt lat="47.27013" lon="-1.53897">
        <ele>14</ele>
        <time>2019-10-17T12:32:44.000Z</time>
      </trkpt>
      <trkpt lat="47.27008" lon="-1.53905">
        <ele>14</ele>
        <time>2019-10-17T12:32:45.000Z</time>
      </trkpt>
      <trkpt lat="47.27005" lon="-1.53913">
        <ele>14</ele>
        <time>2019-10-17T12:32:46.000Z</time>
      </trkpt>
      <trkpt lat="47.27002" lon="-1.53919">
        <ele>14</ele>
        <time>2019-10-17T12:32:47.000Z</time>
      </trkpt>
      <trkpt lat="47.26999" lon="-1.53924">
        <ele>14</ele>
        <time>2019-10-17T12:32:48.000Z</time>
      </trkpt>
      <trkpt lat="47.26998" lon="-1.5393">
        <ele>14</ele>
        <time>2019-10-17T12:32:49.000Z</time>
      </trkpt>
      <trkpt lat="47.26997" lon="-1.53935">
        <ele>14</ele>
        <time>2019-10-17T12:32:50.000Z</time>
      </trkpt>
      <trkpt lat="47.26996" lon="-1.53941">
        <ele>14</ele>
        <time>2019-10-17T12:32:51.000Z</time>
      </trkpt>
      <trkpt lat="47.26996" lon="-1.53946">
        <ele>14</ele>
        <time>2019-10-17T12:32:52.000Z</time>
      </trkpt>
      <trkpt lat="47.26996" lon="-1.5395">
        <ele>14</ele>
        <time>2019-10-17T12:32:53.000Z</time>
      </trkpt>
      <trkpt lat="47.26995" lon="-1.53955">
        <ele>14</ele>
        <time>2019-10-17T12:32:54.000Z</time>
      </trkpt>
      <trkpt lat="47.26995" lon="-1.5396">
        <ele>14</ele>
        <time>2019-10-17T12:32:55.000Z</time>
      </trkpt>
      <trkpt lat="47.26995" lon="-1.53966">
        <ele>14</ele>
        <time>2019-10-17T12:32:56.000Z</time>
      </trkpt>
      <trkpt lat="47.26995" lon="-1.53971">
        <ele>14</ele>
        <time>2019-10-17T12:32:57.000Z</time>
      </trkpt>
      <trkpt lat="47.26995" lon="-1.53976">
        <ele>14</ele>
        <time>2019-10-17T12:32:58.000Z</time>
      </trkpt>
      <trkpt lat="47.26994" lon="-1.53981">
        <ele>14</ele>
        <time>2019-10-17T12:32:59.000Z</time>
      </trkpt>
      <trkpt lat="47.26994" lon="-1.53985">
        <ele>14</ele>
        <time>2019-10-17T12:33:00.000Z</time>
      </trkpt>
      <trkpt lat="47.26993" lon="-1.53989">
        <ele>14</ele>
        <time>2019-10-17T12:33:01.000Z</time>
      </trkpt>
      <trkpt lat="47.26993" lon="-1.53994">
        <ele>14</ele>
        <time>2019-10-17T12:33:02.000Z</time>
      </trkpt>
      <trkpt lat="47.26992" lon="-1.53999">
        <ele>14</ele>
        <time>2019-10-17T12:33:03.000Z</time>
      </trkpt>
      <trkpt lat="47.26992" lon="-1.54005">
        <ele>14</ele>
        <time>2019-10-17T12:33:04.000Z</time>
      </trkpt>
      <trkpt lat="47.26991" lon="-1.5401">
        <ele>14</ele>
        <time>2019-10-17T12:33:05.000Z</time>
      </trkpt>
      <trkpt lat="47.26991" lon="-1.54016">
        <ele>14</ele>
        <time>2019-10-17T12:33:06.000Z</time>
      </trkpt>
      <trkpt lat="47.26991" lon="-1.54022">
        <ele>14</ele>
        <time>2019-10-17T12:33:07.000Z</time>
      </trkpt>
      <trkpt lat="47.26991" lon="-1.54027">
        <ele>14</ele>
        <time>2019-10-17T12:33:08.000Z</time>
      </trkpt>
      <trkpt lat="47.26991" lon="-1.54032">
        <ele>14</ele>
        <time>2019-10-17T12:33:09.000Z</time>
      </trkpt>
      <trkpt lat="47.2699" lon="-1.54037">
        <ele>14</ele>
        <time>2019-10-17T12:33:10.000Z</time>
      </trkpt>
      <trkpt lat="47.2699" lon="-1.54043">
        <ele>14</ele>
        <time>2019-10-17T12:33:11.000Z</time>
      </trkpt>
      <trkpt lat="47.26989" lon="-1.54048">
        <ele>14</ele>
        <time>2019-10-17T12:33:12.000Z</time>
      </trkpt>
      <trkpt lat="47.26989" lon="-1.54053">
        <ele>14</ele>
        <time>2019-10-17T12:33:13.000Z</time>
      </trkpt>
      <trkpt lat="47.26989" lon="-1.54057">
        <ele>14</ele>
        <time>2019-10-17T12:33:14.000Z</time>
      </trkpt>
      <trkpt lat="47.26989" lon="-1.54061">
        <ele>14</ele>
        <time>2019-10-17T12:33:15.000Z</time>
      </trkpt>
      <trkpt lat="47.2699" lon="-1.54066">
        <ele>14</ele>
        <time>2019-10-17T12:33:16.000Z</time>
      </trkpt>
      <trkpt lat="47.2699" lon="-1.54072">
        <ele>14</ele>
        <time>2019-10-17T12:33:17.000Z</time>
      </trkpt>
      <trkpt lat="47.2699" lon="-1.54078">
        <ele>14</ele>
        <time>2019-10-17T12:33:18.000Z</time>
      </trkpt>
      <trkpt lat="47.26991" lon="-1.54084">
        <ele>14</ele>
        <time>2019-10-17T12:33:19.000Z</time>
      </trkpt>
      <trkpt lat="47.26991" lon="-1.54091">
        <ele>14</ele>
        <time>2019-10-17T12:33:20.000Z</time>
      </trkpt>
      <trkpt lat="47.26991" lon="-1.54097">
        <ele>14</ele>
        <time>2019-10-17T12:33:21.000Z</time>
      </trkpt>
      <trkpt lat="47.26991" lon="-1.54103">
        <ele>14</ele>
        <time>2019-10-17T12:33:22.000Z</time>
      </trkpt>
      <trkpt lat="47.2699" lon="-1.54109">
        <ele>14</ele>
        <time>2019-10-17T12:33:23.000Z</time>
      </trkpt>
      <trkpt lat="47.26989" lon="-1.54113">
        <ele>14</ele>
        <time>2019-10-17T12:33:24.000Z</time>
      </trkpt>
      <trkpt lat="47.26988" lon="-1.54117">
        <ele>14</ele>
        <time>2019-10-17T12:33:25.000Z</time>
      </trkpt>
      <trkpt lat="47.26988" lon="-1.54121">
        <ele>14</ele>
        <time>2019-10-17T12:33:26.000Z</time>
      </trkpt>
      <trkpt lat="47.26987" lon="-1.54125">
        <ele>14</ele>
        <time>2019-10-17T12:33:27.000Z</time>
      </trkpt>
      <trkpt lat="47.26987" lon="-1.54129">
        <ele>14</ele>
        <time>2019-10-17T12:33:28.000Z</time>
      </trkpt>
      <trkpt lat="47.26987" lon="-1.54132">
        <ele>14</ele>
        <time>2019-10-17T12:33:29.000Z</time>
      </trkpt>
      <trkpt lat="47.26987" lon="-1.54134">
        <ele>15</ele>
        <time>2019-10-17T12:33:30.000Z</time>
      </trkpt>
      <trkpt lat="47.26988" lon="-1.54138">
        <ele>15</ele>
        <time>2019-10-17T12:33:31.000Z</time>
      </trkpt>
      <trkpt lat="47.26989" lon="-1.54143">
        <ele>15</ele>
        <time>2019-10-17T12:33:32.000Z</time>
      </trkpt>
      <trkpt lat="47.26989" lon="-1.54146">
        <ele>15</ele>
        <time>2019-10-17T12:33:33.000Z</time>
      </trkpt>
      <trkpt lat="47.2699" lon="-1.54148">
        <ele>15</ele>
        <time>2019-10-17T12:33:34.000Z</time>
      </trkpt>
      <trkpt lat="47.26992" lon="-1.54148">
        <ele>14</ele>
        <time>2019-10-17T12:33:35.000Z</time>
      </trkpt>
      <trkpt lat="47.26995" lon="-1.54146">
        <ele>14</ele>
        <time>2019-10-17T12:33:36.000Z</time>
      </trkpt>
      <trkpt lat="47.26998" lon="-1.54145">
        <ele>14</ele>
        <time>2019-10-17T12:33:37.000Z</time>
      </trkpt>
      <trkpt lat="47.27001" lon="-1.54144">
        <ele>14</ele>
        <time>2019-10-17T12:33:38.000Z</time>
      </trkpt>
      <trkpt lat="47.27003" lon="-1.54143">
        <ele>13</ele>
        <time>2019-10-17T12:33:39.000Z</time>
      </trkpt>
      <trkpt lat="47.27006" lon="-1.54143">
        <ele>13</ele>
        <time>2019-10-17T12:33:40.000Z</time>
      </trkpt>
      <trkpt lat="47.27008" lon="-1.54143">
        <ele>13</ele>
        <time>2019-10-17T12:33:41.000Z</time>
      </trkpt>
      <trkpt lat="47.27011" lon="-1.54141">
        <ele>13</ele>
        <time>2019-10-17T12:33:42.000Z</time>
      </trkpt>
      <trkpt lat="47.27013" lon="-1.5414">
        <ele>13</ele>
        <time>2019-10-17T12:33:43.000Z</time>
      </trkpt>
      <trkpt lat="47.27015" lon="-1.54139">
        <ele>13</ele>
        <time>2019-10-17T12:33:44.000Z</time>
      </trkpt>
      <trkpt lat="47.27017" lon="-1.54139">
        <ele>13</ele>
        <time>2019-10-17T12:33:45.000Z</time>
      </trkpt>
      <trkpt lat="47.27019" lon="-1.54138">
        <ele>13</ele>
        <time>2019-10-17T12:33:46.000Z</time>
      </trkpt>
      <trkpt lat="47.27021" lon="-1.54138">
        <ele>13</ele>
        <time>2019-10-17T12:33:47.000Z</time>
      </trkpt>
      <trkpt lat="47.27024" lon="-1.54137">
        <ele>13</ele>
        <time>2019-10-17T12:33:48.000Z</time>
      </trkpt>
      <trkpt lat="47.27026" lon="-1.54136">
        <ele>13</ele>
        <time>2019-10-17T12:33:49.000Z</time>
      </trkpt>
      <trkpt lat="47.27028" lon="-1.54135">
        <ele>13</ele>
        <time>2019-10-17T12:33:50.000Z</time>
      </trkpt>
      <trkpt lat="47.2703" lon="-1.54134">
        <ele>13</ele>
        <time>2019-10-17T12:33:51.000Z</time>
      </trkpt>
      <trkpt lat="47.27032" lon="-1.54133">
        <ele>13</ele>
        <time>2019-10-17T12:33:52.000Z</time>
      </trkpt>
      <trkpt lat="47.27034" lon="-1.54133">
        <ele>13</ele>
        <time>2019-10-17T12:33:53.000Z</time>
      </trkpt>
      <trkpt lat="47.27035" lon="-1.54133">
        <ele>13</ele>
        <time>2019-10-17T12:33:54.000Z</time>
      </trkpt>
      <trkpt lat="47.27037" lon="-1.54133">
        <ele>13</ele>
        <time>2019-10-17T12:33:55.000Z</time>
      </trkpt>
      <trkpt lat="47.27038" lon="-1.54134">
        <ele>13</ele>
        <time>2019-10-17T12:33:56.000Z</time>
      </trkpt>
      <trkpt lat="47.2704" lon="-1.54134">
        <ele>13</ele>
        <time>2019-10-17T12:33:57.000Z</time>
      </trkpt>
      <trkpt lat="47.27042" lon="-1.54136">
        <ele>13</ele>
        <time>2019-10-17T12:33:58.000Z</time>
      </trkpt>
      <trkpt lat="47.27043" lon="-1.54137">
        <ele>13</ele>
        <time>2019-10-17T12:33:59.000Z</time>
      </trkpt>
      <trkpt lat="47.27044" lon="-1.54138">
        <ele>13</ele>
        <time>2019-10-17T12:34:00.000Z</time>
      </trkpt>
      <trkpt lat="47.27045" lon="-1.54139">
        <ele>13</ele>
        <time>2019-10-17T12:34:01.000Z</time>
      </trkpt>
      <trkpt lat="47.27047" lon="-1.54139">
        <ele>13</ele>
        <time>2019-10-17T12:34:02.000Z</time>
      </trkpt>
      <trkpt lat="47.27049" lon="-1.54139">
        <ele>13</ele>
        <time>2019-10-17T12:34:03.000Z</time>
      </trkpt>
      <trkpt lat="47.2705" lon="-1.5414">
        <ele>13</ele>
        <time>2019-10-17T12:34:04.000Z</time>
      </trkpt>
      <trkpt lat="47.27051" lon="-1.54139">
        <ele>13</ele>
        <time>2019-10-17T12:34:05.000Z</time>
      </trkpt>
      <trkpt lat="47.27053" lon="-1.5414">
        <ele>13</ele>
        <time>2019-10-17T12:34:06.000Z</time>
      </trkpt>
      <trkpt lat="47.27056" lon="-1.54141">
        <ele>13</ele>
        <time>2019-10-17T12:34:07.000Z</time>
      </trkpt>
      <trkpt lat="47.27058" lon="-1.5414">
        <ele>14</ele>
        <time>2019-10-17T12:34:08.000Z</time>
      </trkpt>
      <trkpt lat="47.27061" lon="-1.5414">
        <ele>14</ele>
        <time>2019-10-17T12:34:09.000Z</time>
      </trkpt>
      <trkpt lat="47.27064" lon="-1.54139">
        <ele>14</ele>
        <time>2019-10-17T12:34:10.000Z</time>
      </trkpt>
      <trkpt lat="47.27067" lon="-1.54138">
        <ele>14</ele>
        <time>2019-10-17T12:34:11.000Z</time>
      </trkpt>
      <trkpt lat="47.2707" lon="-1.54137">
        <ele>14</ele>
        <time>2019-10-17T12:34:12.000Z</time>
      </trkpt>
      <trkpt lat="47.27073" lon="-1.54135">
        <ele>14</ele>
        <time>2019-10-17T12:34:13.000Z</time>
      </trkpt>
      <trkpt lat="47.27075" lon="-1.54134">
        <ele>14</ele>
        <time>2019-10-17T12:34:14.000Z</time>
      </trkpt>
      <trkpt lat="47.27077" lon="-1.54133">
        <ele>15</ele>
        <time>2019-10-17T12:34:15.000Z</time>
      </trkpt>
      <trkpt lat="47.2708" lon="-1.54133">
        <ele>15</ele>
        <time>2019-10-17T12:34:16.000Z</time>
      </trkpt>
      <trkpt lat="47.27083" lon="-1.54133">
        <ele>15</ele>
        <time>2019-10-17T12:34:17.000Z</time>
      </trkpt>
      <trkpt lat="47.27086" lon="-1.54134">
        <ele>15</ele>
        <time>2019-10-17T12:34:18.000Z</time>
      </trkpt>
      <trkpt lat="47.27088" lon="-1.54135">
        <ele>15</ele>
        <time>2019-10-17T12:34:19.000Z</time>
      </trkpt>
      <trkpt lat="47.2709" lon="-1.54137">
        <ele>15</ele>
        <time>2019-10-17T12:34:20.000Z</time>
      </trkpt>
      <trkpt lat="47.27091" lon="-1.5414">
        <ele>15</ele>
        <time>2019-10-17T12:34:21.000Z</time>
      </trkpt>
      <trkpt lat="47.27093" lon="-1.54143">
        <ele>15</ele>
        <time>2019-10-17T12:34:22.000Z</time>
      </trkpt>
      <trkpt lat="47.27095" lon="-1.54147">
        <ele>15</ele>
        <time>2019-10-17T12:34:23.000Z</time>
      </trkpt>
      <trkpt lat="47.27097" lon="-1.54151">
        <ele>15</ele>
        <time>2019-10-17T12:34:24.000Z</time>
      </trkpt>
      <trkpt lat="47.27099" lon="-1.54155">
        <ele>15</ele>
        <time>2019-10-17T12:34:25.000Z</time>
      </trkpt>
      <trkpt lat="47.271" lon="-1.54157">
        <ele>15</ele>
        <time>2019-10-17T12:34:26.000Z</time>
      </trkpt>
      <trkpt lat="47.27102" lon="-1.5416">
        <ele>15</ele>
        <time>2019-10-17T12:34:27.000Z</time>
      </trkpt>
      <trkpt lat="47.27105" lon="-1.54163">
        <ele>15</ele>
        <time>2019-10-17T12:34:28.000Z</time>
      </trkpt>
      <trkpt lat="47.27108" lon="-1.54164">
        <ele>16</ele>
        <time>2019-10-17T12:34:29.000Z</time>
      </trkpt>
      <trkpt lat="47.27111" lon="-1.54166">
        <ele>16</ele>
        <time>2019-10-17T12:34:30.000Z</time>
      </trkpt>
      <trkpt lat="47.27114" lon="-1.54166">
        <ele>16</ele>
        <time>2019-10-17T12:34:31.000Z</time>
      </trkpt>
      <trkpt lat="47.27117" lon="-1.54167">
        <ele>16</ele>
        <time>2019-10-17T12:34:32.000Z</time>
      </trkpt>
      <trkpt lat="47.2712" lon="-1.54168">
        <ele>16</ele>
        <time>2019-10-17T12:34:33.000Z</time>
      </trkpt>
      <trkpt lat="47.27122" lon="-1.54171">
        <ele>16</ele>
        <time>2019-10-17T12:34:34.000Z</time>
      </trkpt>
      <trkpt lat="47.27124" lon="-1.54173">
        <ele>16</ele>
        <time>2019-10-17T12:34:35.000Z</time>
      </trkpt>
      <trkpt lat="47.27126" lon="-1.54176">
        <ele>16</ele>
        <time>2019-10-17T12:34:36.000Z</time>
      </trkpt>
      <trkpt lat="47.27128" lon="-1.54179">
        <ele>16</ele>
        <time>2019-10-17T12:34:37.000Z</time>
      </trkpt>
      <trkpt lat="47.27129" lon="-1.54182">
        <ele>16</ele>
        <time>2019-10-17T12:34:38.000Z</time>
      </trkpt>
      <trkpt lat="47.2713" lon="-1.54184">
        <ele>16</ele>
        <time>2019-10-17T12:34:39.000Z</time>
      </trkpt>
      <trkpt lat="47.2713" lon="-1.54186">
        <ele>16</ele>
        <time>2019-10-17T12:34:40.000Z</time>
      </trkpt>
      <trkpt lat="47.27129" lon="-1.54187">
        <ele>17</ele>
        <time>2019-10-17T12:34:41.000Z</time>
      </trkpt>
      <trkpt lat="47.27127" lon="-1.54188">
        <ele>17</ele>
        <time>2019-10-17T12:34:42.000Z</time>
      </trkpt>
      <trkpt lat="47.27125" lon="-1.54189">
        <ele>17</ele>
        <time>2019-10-17T12:34:43.000Z</time>
      </trkpt>
      <trkpt lat="47.27122" lon="-1.54191">
        <ele>17</ele>
        <time>2019-10-17T12:34:44.000Z</time>
      </trkpt>
      <trkpt lat="47.27119" lon="-1.54192">
        <ele>17</ele>
        <time>2019-10-17T12:34:45.000Z</time>
      </trkpt>
      <trkpt lat="47.27116" lon="-1.54194">
        <ele>17</ele>
        <time>2019-10-17T12:34:46.000Z</time>
      </trkpt>
      <trkpt lat="47.27113" lon="-1.54195">
        <ele>17</ele>
        <time>2019-10-17T12:34:47.000Z</time>
      </trkpt>
      <trkpt lat="47.2711" lon="-1.54197">
        <ele>17</ele>
        <time>2019-10-17T12:34:48.000Z</time>
      </trkpt>
      <trkpt lat="47.27106" lon="-1.54198">
        <ele>17</ele>
        <time>2019-10-17T12:34:49.000Z</time>
      </trkpt>
      <trkpt lat="47.27102" lon="-1.54199">
        <ele>17</ele>
        <time>2019-10-17T12:34:50.000Z</time>
      </trkpt>
      <trkpt lat="47.27098" lon="-1.542">
        <ele>17</ele>
        <time>2019-10-17T12:34:51.000Z</time>
      </trkpt>
      <trkpt lat="47.27094" lon="-1.54201">
        <ele>17</ele>
        <time>2019-10-17T12:34:52.000Z</time>
      </trkpt>
      <trkpt lat="47.2709" lon="-1.54202">
        <ele>17</ele>
        <time>2019-10-17T12:34:53.000Z</time>
      </trkpt>
      <trkpt lat="47.27086" lon="-1.54202">
        <ele>17</ele>
        <time>2019-10-17T12:34:54.000Z</time>
      </trkpt>
      <trkpt lat="47.27082" lon="-1.54202">
        <ele>17</ele>
        <time>2019-10-17T12:34:55.000Z</time>
      </trkpt>
      <trkpt lat="47.27079" lon="-1.54201">
        <ele>17</ele>
        <time>2019-10-17T12:34:56.000Z</time>
      </trkpt>
      <trkpt lat="47.27076" lon="-1.542">
        <ele>16</ele>
        <time>2019-10-17T12:34:57.000Z</time>
      </trkpt>
      <trkpt lat="47.27074" lon="-1.54199">
        <ele>16</ele>
        <time>2019-10-17T12:34:58.000Z</time>
      </trkpt>
      <trkpt lat="47.27071" lon="-1.54198">
        <ele>16</ele>
        <time>2019-10-17T12:34:59.000Z</time>
      </trkpt>
      <trkpt lat="47.2707" lon="-1.54197">
        <ele>16</ele>
        <time>2019-10-17T12:35:00.000Z</time>
      </trkpt>
      <trkpt lat="47.27069" lon="-1.54195">
        <ele>16</ele>
        <time>2019-10-17T12:35:01.000Z</time>
      </trkpt>
      <trkpt lat="47.27068" lon="-1.54195">
        <ele>16</ele>
        <time>2019-10-17T12:35:02.000Z</time>
      </trkpt>
      <trkpt lat="47.27065" lon="-1.54195">
        <ele>16</ele>
        <time>2019-10-17T12:35:03.000Z</time>
      </trkpt>
      <trkpt lat="47.27063" lon="-1.54194">
        <ele>16</ele>
        <time>2019-10-17T12:35:04.000Z</time>
      </trkpt>
      <trkpt lat="47.27061" lon="-1.54193">
        <ele>16</ele>
        <time>2019-10-17T12:35:05.000Z</time>
      </trkpt>
      <trkpt lat="47.2706" lon="-1.5419">
        <ele>16</ele>
        <time>2019-10-17T12:35:06.000Z</time>
      </trkpt>
      <trkpt lat="47.27059" lon="-1.54186">
        <ele>16</ele>
        <time>2019-10-17T12:35:07.000Z</time>
      </trkpt>
      <trkpt lat="47.27058" lon="-1.54185">
        <ele>16</ele>
        <time>2019-10-17T12:35:08.000Z</time>
      </trkpt>
      <trkpt lat="47.27056" lon="-1.54185">
        <ele>16</ele>
        <time>2019-10-17T12:35:09.000Z</time>
      </trkpt>
      <trkpt lat="47.27053" lon="-1.54185">
        <ele>16</ele>
        <time>2019-10-17T12:35:10.000Z</time>
      </trkpt>
      <trkpt lat="47.2705" lon="-1.54187">
        <ele>16</ele>
        <time>2019-10-17T12:35:11.000Z</time>
      </trkpt>
      <trkpt lat="47.27047" lon="-1.54188">
        <ele>16</ele>
        <time>2019-10-17T12:35:12.000Z</time>
      </trkpt>
      <trkpt lat="47.27045" lon="-1.54188">
        <ele>16</ele>
        <time>2019-10-17T12:35:13.000Z</time>
      </trkpt>
      <trkpt lat="47.27042" lon="-1.54189">
        <ele>16</ele>
        <time>2019-10-17T12:35:14.000Z</time>
      </trkpt>
      <trkpt lat="47.27038" lon="-1.54189">
        <ele>16</ele>
        <time>2019-10-17T12:35:15.000Z</time>
      </trkpt>
      <trkpt lat="47.27035" lon="-1.5419">
        <ele>16</ele>
        <time>2019-10-17T12:35:16.000Z</time>
      </trkpt>
      <trkpt lat="47.27031" lon="-1.54191">
        <ele>17</ele>
        <time>2019-10-17T12:35:17.000Z</time>
      </trkpt>
      <trkpt lat="47.27028" lon="-1.54193">
        <ele>17</ele>
        <time>2019-10-17T12:35:18.000Z</time>
      </trkpt>
      <trkpt lat="47.27025" lon="-1.54196">
        <ele>17</ele>
        <time>2019-10-17T12:35:19.000Z</time>
      </trkpt>
      <trkpt lat="47.27022" lon="-1.54199">
        <ele>18</ele>
        <time>2019-10-17T12:35:20.000Z</time>
      </trkpt>
      <trkpt lat="47.27019" lon="-1.54202">
        <ele>18</ele>
        <time>2019-10-17T12:35:21.000Z</time>
      </trkpt>
      <trkpt lat="47.27017" lon="-1.54207">
        <ele>18</ele>
        <time>2019-10-17T12:35:22.000Z</time>
      </trkpt>
      <trkpt lat="47.27014" lon="-1.54211">
        <ele>18</ele>
        <time>2019-10-17T12:35:23.000Z</time>
      </trkpt>
      <trkpt lat="47.2701" lon="-1.54215">
        <ele>18</ele>
        <time>2019-10-17T12:35:24.000Z</time>
      </trkpt>
      <trkpt lat="47.27007" lon="-1.54219">
        <ele>18</ele>
        <time>2019-10-17T12:35:25.000Z</time>
      </trkpt>
      <trkpt lat="47.27003" lon="-1.54222">
        <ele>18</ele>
        <time>2019-10-17T12:35:26.000Z</time>
      </trkpt>
      <trkpt lat="47.26998" lon="-1.54225">
        <ele>18</ele>
        <time>2019-10-17T12:35:27.000Z</time>
      </trkpt>
      <trkpt lat="47.26995" lon="-1.54227">
        <ele>17</ele>
        <time>2019-10-17T12:35:28.000Z</time>
      </trkpt>
      <trkpt lat="47.26991" lon="-1.54228">
        <ele>17</ele>
        <time>2019-10-17T12:35:29.000Z</time>
      </trkpt>
      <trkpt lat="47.26988" lon="-1.54228">
        <ele>17</ele>
        <time>2019-10-17T12:35:30.000Z</time>
      </trkpt>
      <trkpt lat="47.26986" lon="-1.54229">
        <ele>17</ele>
        <time>2019-10-17T12:35:31.000Z</time>
      </trkpt>
      <trkpt lat="47.26983" lon="-1.54228">
        <ele>17</ele>
        <time>2019-10-17T12:35:32.000Z</time>
      </trkpt>
      <trkpt lat="47.2698" lon="-1.54228">
        <ele>17</ele>
        <time>2019-10-17T12:35:33.000Z</time>
      </trkpt>
      <trkpt lat="47.26976" lon="-1.54229">
        <ele>17</ele>
        <time>2019-10-17T12:35:34.000Z</time>
      </trkpt>
      <trkpt lat="47.26973" lon="-1.54232">
        <ele>17</ele>
        <time>2019-10-17T12:35:35.000Z</time>
      </trkpt>
      <trkpt lat="47.2697" lon="-1.54235">
        <ele>17</ele>
        <time>2019-10-17T12:35:36.000Z</time>
      </trkpt>
      <trkpt lat="47.26966" lon="-1.54236">
        <ele>17</ele>
        <time>2019-10-17T12:35:37.000Z</time>
      </trkpt>
      <trkpt lat="47.26963" lon="-1.54237">
        <ele>17</ele>
        <time>2019-10-17T12:35:38.000Z</time>
      </trkpt>
      <trkpt lat="47.2696" lon="-1.54236">
        <ele>17</ele>
        <time>2019-10-17T12:35:39.000Z</time>
      </trkpt>
      <trkpt lat="47.26958" lon="-1.54235">
        <ele>17</ele>
        <time>2019-10-17T12:35:40.000Z</time>
      </trkpt>
      <trkpt lat="47.26957" lon="-1.54234">
        <ele>17</ele>
        <time>2019-10-17T12:35:41.000Z</time>
      </trkpt>
      <trkpt lat="47.26954" lon="-1.54234">
        <ele>17</ele>
        <time>2019-10-17T12:35:42.000Z</time>
      </trkpt>
      <trkpt lat="47.26951" lon="-1.54234">
        <ele>17</ele>
        <time>2019-10-17T12:35:43.000Z</time>
      </trkpt>
      <trkpt lat="47.26948" lon="-1.54235">
        <ele>17</ele>
        <time>2019-10-17T12:35:44.000Z</time>
      </trkpt>
      <trkpt lat="47.26945" lon="-1.54235">
        <ele>17</ele>
        <time>2019-10-17T12:35:45.000Z</time>
      </trkpt>
      <trkpt lat="47.26942" lon="-1.54235">
        <ele>17</ele>
        <time>2019-10-17T12:35:46.000Z</time>
      </trkpt>
      <trkpt lat="47.26939" lon="-1.54235">
        <ele>17</ele>
        <time>2019-10-17T12:35:47.000Z</time>
      </trkpt>
      <trkpt lat="47.26935" lon="-1.54236">
        <ele>17</ele>
        <time>2019-10-17T12:35:48.000Z</time>
      </trkpt>
      <trkpt lat="47.26931" lon="-1.54237">
        <ele>17</ele>
        <time>2019-10-17T12:35:49.000Z</time>
      </trkpt>
      <trkpt lat="47.26927" lon="-1.54237">
        <ele>17</ele>
        <time>2019-10-17T12:35:50.000Z</time>
      </trkpt>
      <trkpt lat="47.26923" lon="-1.54238">
        <ele>18</ele>
        <time>2019-10-17T12:35:51.000Z</time>
      </trkpt>
      <trkpt lat="47.26919" lon="-1.5424">
        <ele>18</ele>
        <time>2019-10-17T12:35:52.000Z</time>
      </trkpt>
      <trkpt lat="47.26915" lon="-1.54241">
        <ele>18</ele>
        <time>2019-10-17T12:35:53.000Z</time>
      </trkpt>
      <trkpt lat="47.26912" lon="-1.54243">
        <ele>19</ele>
        <time>2019-10-17T12:35:54.000Z</time>
      </trkpt>
      <trkpt lat="47.26908" lon="-1.54246">
        <ele>19</ele>
        <time>2019-10-17T12:35:55.000Z</time>
      </trkpt>
      <trkpt lat="47.26906" lon="-1.5425">
        <ele>19</ele>
        <time>2019-10-17T12:35:56.000Z</time>
      </trkpt>
      <trkpt lat="47.26905" lon="-1.54254">
        <ele>19</ele>
        <time>2019-10-17T12:35:57.000Z</time>
      </trkpt>
      <trkpt lat="47.26903" lon="-1.54258">
        <ele>19</ele>
        <time>2019-10-17T12:35:58.000Z</time>
      </trkpt>
      <trkpt lat="47.26901" lon="-1.54261">
        <ele>19</ele>
        <time>2019-10-17T12:35:59.000Z</time>
      </trkpt>
      <trkpt lat="47.26898" lon="-1.54262">
        <ele>19</ele>
        <time>2019-10-17T12:36:00.000Z</time>
      </trkpt>
      <trkpt lat="47.26894" lon="-1.54262">
        <ele>19</ele>
        <time>2019-10-17T12:36:01.000Z</time>
      </trkpt>
      <trkpt lat="47.26891" lon="-1.54264">
        <ele>19</ele>
        <time>2019-10-17T12:36:02.000Z</time>
      </trkpt>
      <trkpt lat="47.26889" lon="-1.54267">
        <ele>19</ele>
        <time>2019-10-17T12:36:03.000Z</time>
      </trkpt>
      <trkpt lat="47.26886" lon="-1.54268">
        <ele>20</ele>
        <time>2019-10-17T12:36:04.000Z</time>
      </trkpt>
      <trkpt lat="47.26884" lon="-1.54268">
        <ele>20</ele>
        <time>2019-10-17T12:36:05.000Z</time>
      </trkpt>
      <trkpt lat="47.26882" lon="-1.54268">
        <ele>20</ele>
        <time>2019-10-17T12:36:06.000Z</time>
      </trkpt>
      <trkpt lat="47.26882" lon="-1.54268">
        <ele>19</ele>
        <time>2019-10-17T12:36:07.000Z</time>
      </trkpt>
      <trkpt lat="47.26882" lon="-1.54268">
        <ele>19</ele>
        <time>2019-10-17T12:36:08.000Z</time>
      </trkpt>
      <trkpt lat="47.26882" lon="-1.54269">
        <ele>19</ele>
        <time>2019-10-17T12:36:09.000Z</time>
      </trkpt>
      <trkpt lat="47.26875" lon="-1.54273">
        <ele>19</ele>
        <time>2019-10-17T12:36:10.000Z</time>
      </trkpt>
      <trkpt lat="47.26873" lon="-1.54276">
        <ele>19</ele>
        <time>2019-10-17T12:36:11.000Z</time>
      </trkpt>
      <trkpt lat="47.26869" lon="-1.54278">
        <ele>19</ele>
        <time>2019-10-17T12:36:12.000Z</time>
      </trkpt>
      <trkpt lat="47.26866" lon="-1.5428">
        <ele>19</ele>
        <time>2019-10-17T12:36:13.000Z</time>
      </trkpt>
      <trkpt lat="47.26863" lon="-1.54282">
        <ele>19</ele>
        <time>2019-10-17T12:36:14.000Z</time>
      </trkpt>
      <trkpt lat="47.2686" lon="-1.54283">
        <ele>19</ele>
        <time>2019-10-17T12:36:15.000Z</time>
      </trkpt>
      <trkpt lat="47.26857" lon="-1.54286">
        <ele>19</ele>
        <time>2019-10-17T12:36:16.000Z</time>
      </trkpt>
      <trkpt lat="47.26854" lon="-1.54289">
        <ele>19</ele>
        <time>2019-10-17T12:36:17.000Z</time>
      </trkpt>
      <trkpt lat="47.26851" lon="-1.54292">
        <ele>19</ele>
        <time>2019-10-17T12:36:18.000Z</time>
      </trkpt>
      <trkpt lat="47.26848" lon="-1.54293">
        <ele>19</ele>
        <time>2019-10-17T12:36:19.000Z</time>
      </trkpt>
      <trkpt lat="47.26845" lon="-1.54293">
        <ele>19</ele>
        <time>2019-10-17T12:36:20.000Z</time>
      </trkpt>
      <trkpt lat="47.26842" lon="-1.54292">
        <ele>19</ele>
        <time>2019-10-17T12:36:21.000Z</time>
      </trkpt>
      <trkpt lat="47.26838" lon="-1.54292">
        <ele>19</ele>
        <time>2019-10-17T12:36:22.000Z</time>
      </trkpt>
      <trkpt lat="47.26835" lon="-1.5429">
        <ele>19</ele>
        <time>2019-10-17T12:36:23.000Z</time>
      </trkpt>
      <trkpt lat="47.26831" lon="-1.54289">
        <ele>19</ele>
        <time>2019-10-17T12:36:24.000Z</time>
      </trkpt>
      <trkpt lat="47.26827" lon="-1.54287">
        <ele>19</ele>
        <time>2019-10-17T12:36:25.000Z</time>
      </trkpt>
      <trkpt lat="47.26824" lon="-1.54285">
        <ele>19</ele>
        <time>2019-10-17T12:36:26.000Z</time>
      </trkpt>
      <trkpt lat="47.26821" lon="-1.54283">
        <ele>19</ele>
        <time>2019-10-17T12:36:27.000Z</time>
      </trkpt>
      <trkpt lat="47.26818" lon="-1.54281">
        <ele>19</ele>
        <time>2019-10-17T12:36:28.000Z</time>
      </trkpt>
      <trkpt lat="47.26816" lon="-1.5428">
        <ele>19</ele>
        <time>2019-10-17T12:36:29.000Z</time>
      </trkpt>
      <trkpt lat="47.26813" lon="-1.54279">
        <ele>19</ele>
        <time>2019-10-17T12:36:30.000Z</time>
      </trkpt>
      <trkpt lat="47.26811" lon="-1.54278">
        <ele>19</ele>
        <time>2019-10-17T12:36:31.000Z</time>
      </trkpt>
      <trkpt lat="47.26811" lon="-1.54276">
        <ele>19</ele>
        <time>2019-10-17T12:36:32.000Z</time>
      </trkpt>
      <trkpt lat="47.26813" lon="-1.54275">
        <ele>19</ele>
        <time>2019-10-17T12:36:33.000Z</time>
      </trkpt>
      <trkpt lat="47.26814" lon="-1.54272">
        <ele>19</ele>
        <time>2019-10-17T12:36:34.000Z</time>
      </trkpt>
      <trkpt lat="47.26816" lon="-1.54268">
        <ele>19</ele>
        <time>2019-10-17T12:36:35.000Z</time>
      </trkpt>
      <trkpt lat="47.26817" lon="-1.54264">
        <ele>19</ele>
        <time>2019-10-17T12:36:36.000Z</time>
      </trkpt>
      <trkpt lat="47.26818" lon="-1.54262">
        <ele>20</ele>
        <time>2019-10-17T12:36:37.000Z</time>
      </trkpt>
      <trkpt lat="47.26817" lon="-1.5426">
        <ele>20</ele>
        <time>2019-10-17T12:36:38.000Z</time>
      </trkpt>
      <trkpt lat="47.26815" lon="-1.54258">
        <ele>20</ele>
        <time>2019-10-17T12:36:39.000Z</time>
      </trkpt>
      <trkpt lat="47.26813" lon="-1.54257">
        <ele>20</ele>
        <time>2019-10-17T12:36:40.000Z</time>
      </trkpt>
      <trkpt lat="47.26811" lon="-1.54255">
        <ele>21</ele>
        <time>2019-10-17T12:36:41.000Z</time>
      </trkpt>
      <trkpt lat="47.26809" lon="-1.54253">
        <ele>21</ele>
        <time>2019-10-17T12:36:42.000Z</time>
      </trkpt>
      <trkpt lat="47.26808" lon="-1.5425">
        <ele>21</ele>
        <time>2019-10-17T12:36:43.000Z</time>
      </trkpt>
      <trkpt lat="47.26807" lon="-1.54248">
        <ele>21</ele>
        <time>2019-10-17T12:36:44.000Z</time>
      </trkpt>
      <trkpt lat="47.26806" lon="-1.54245">
        <ele>21</ele>
        <time>2019-10-17T12:36:45.000Z</time>
      </trkpt>
      <trkpt lat="47.26804" lon="-1.5424">
        <ele>21</ele>
        <time>2019-10-17T12:36:46.000Z</time>
      </trkpt>
      <trkpt lat="47.26803" lon="-1.54237">
        <ele>21</ele>
        <time>2019-10-17T12:36:47.000Z</time>
      </trkpt>
      <trkpt lat="47.268" lon="-1.54235">
        <ele>22</ele>
        <time>2019-10-17T12:36:48.000Z</time>
      </trkpt>
      <trkpt lat="47.26798" lon="-1.54234">
        <ele>22</ele>
        <time>2019-10-17T12:36:49.000Z</time>
      </trkpt>
      <trkpt lat="47.26794" lon="-1.54233">
        <ele>22</ele>
        <time>2019-10-17T12:36:50.000Z</time>
      </trkpt>
      <trkpt lat="47.2679" lon="-1.54231">
        <ele>22</ele>
        <time>2019-10-17T12:36:51.000Z</time>
      </trkpt>
      <trkpt lat="47.26786" lon="-1.5423">
        <ele>22</ele>
        <time>2019-10-17T12:36:52.000Z</time>
      </trkpt>
      <trkpt lat="47.26782" lon="-1.54229">
        <ele>22</ele>
        <time>2019-10-17T12:36:53.000Z</time>
      </trkpt>
      <trkpt lat="47.26778" lon="-1.54228">
        <ele>22</ele>
        <time>2019-10-17T12:36:54.000Z</time>
      </trkpt>
      <trkpt lat="47.26775" lon="-1.54226">
        <ele>21</ele>
        <time>2019-10-17T12:36:55.000Z</time>
      </trkpt>
      <trkpt lat="47.26772" lon="-1.54223">
        <ele>21</ele>
        <time>2019-10-17T12:36:56.000Z</time>
      </trkpt>
      <trkpt lat="47.2677" lon="-1.54222">
        <ele>21</ele>
        <time>2019-10-17T12:36:57.000Z</time>
      </trkpt>
      <trkpt lat="47.26768" lon="-1.54221">
        <ele>21</ele>
        <time>2019-10-17T12:36:58.000Z</time>
      </trkpt>
      <trkpt lat="47.26765" lon="-1.5422">
        <ele>21</ele>
        <time>2019-10-17T12:36:59.000Z</time>
      </trkpt>
      <trkpt lat="47.26761" lon="-1.54221">
        <ele>21</ele>
        <time>2019-10-17T12:37:00.000Z</time>
      </trkpt>
      <trkpt lat="47.26758" lon="-1.5422">
        <ele>21</ele>
        <time>2019-10-17T12:37:01.000Z</time>
      </trkpt>
      <trkpt lat="47.26754" lon="-1.54219">
        <ele>21</ele>
        <time>2019-10-17T12:37:02.000Z</time>
      </trkpt>
      <trkpt lat="47.2675" lon="-1.54218">
        <ele>21</ele>
        <time>2019-10-17T12:37:03.000Z</time>
      </trkpt>
      <trkpt lat="47.26746" lon="-1.54217">
        <ele>21</ele>
        <time>2019-10-17T12:37:04.000Z</time>
      </trkpt>
      <trkpt lat="47.26742" lon="-1.54215">
        <ele>21</ele>
        <time>2019-10-17T12:37:05.000Z</time>
      </trkpt>
      <trkpt lat="47.26739" lon="-1.54212">
        <ele>21</ele>
        <time>2019-10-17T12:37:06.000Z</time>
      </trkpt>
      <trkpt lat="47.26735" lon="-1.54211">
        <ele>21</ele>
        <time>2019-10-17T12:37:07.000Z</time>
      </trkpt>
      <trkpt lat="47.26731" lon="-1.5421">
        <ele>21</ele>
        <time>2019-10-17T12:37:08.000Z</time>
      </trkpt>
      <trkpt lat="47.26728" lon="-1.5421">
        <ele>20</ele>
        <time>2019-10-17T12:37:09.000Z</time>
      </trkpt>
      <trkpt lat="47.26724" lon="-1.5421">
        <ele>21</ele>
        <time>2019-10-17T12:37:10.000Z</time>
      </trkpt>
      <trkpt lat="47.26721" lon="-1.5421">
        <ele>21</ele>
        <time>2019-10-17T12:37:11.000Z</time>
      </trkpt>
      <trkpt lat="47.26717" lon="-1.5421">
        <ele>21</ele>
        <time>2019-10-17T12:37:12.000Z</time>
      </trkpt>
      <trkpt lat="47.26712" lon="-1.54209">
        <ele>21</ele>
        <time>2019-10-17T12:37:13.000Z</time>
      </trkpt>
      <trkpt lat="47.26707" lon="-1.54209">
        <ele>21</ele>
        <time>2019-10-17T12:37:14.000Z</time>
      </trkpt>
      <trkpt lat="47.26702" lon="-1.54209">
        <ele>21</ele>
        <time>2019-10-17T12:37:15.000Z</time>
      </trkpt>
      <trkpt lat="47.26697" lon="-1.54209">
        <ele>21</ele>
        <time>2019-10-17T12:37:16.000Z</time>
      </trkpt>
      <trkpt lat="47.26692" lon="-1.54208">
        <ele>21</ele>
        <time>2019-10-17T12:37:17.000Z</time>
      </trkpt>
      <trkpt lat="47.26687" lon="-1.54207">
        <ele>22</ele>
        <time>2019-10-17T12:37:18.000Z</time>
      </trkpt>
      <trkpt lat="47.26683" lon="-1.54206">
        <ele>22</ele>
        <time>2019-10-17T12:37:19.000Z</time>
      </trkpt>
      <trkpt lat="47.26679" lon="-1.54206">
        <ele>22</ele>
        <time>2019-10-17T12:37:20.000Z</time>
      </trkpt>
      <trkpt lat="47.26674" lon="-1.54205">
        <ele>22</ele>
        <time>2019-10-17T12:37:21.000Z</time>
      </trkpt>
      <trkpt lat="47.2667" lon="-1.54203">
        <ele>22</ele>
        <time>2019-10-17T12:37:22.000Z</time>
      </trkpt>
      <trkpt lat="47.26667" lon="-1.54201">
        <ele>22</ele>
        <time>2019-10-17T12:37:23.000Z</time>
      </trkpt>
      <trkpt lat="47.26666" lon="-1.54199">
        <ele>22</ele>
        <time>2019-10-17T12:37:24.000Z</time>
      </trkpt>
      <trkpt lat="47.26665" lon="-1.54197">
        <ele>22</ele>
        <time>2019-10-17T12:37:25.000Z</time>
      </trkpt>
      <trkpt lat="47.26666" lon="-1.54195">
        <ele>22</ele>
        <time>2019-10-17T12:37:26.000Z</time>
      </trkpt>
      <trkpt lat="47.26668" lon="-1.54193">
        <ele>22</ele>
        <time>2019-10-17T12:37:27.000Z</time>
      </trkpt>
      <trkpt lat="47.2667" lon="-1.54191">
        <ele>21</ele>
        <time>2019-10-17T12:37:28.000Z</time>
      </trkpt>
      <trkpt lat="47.26672" lon="-1.54191">
        <ele>21</ele>
        <time>2019-10-17T12:37:29.000Z</time>
      </trkpt>
      <trkpt lat="47.26672" lon="-1.54191">
        <ele>21</ele>
        <time>2019-10-17T12:37:30.000Z</time>
      </trkpt>
      <trkpt lat="47.26672" lon="-1.54191">
        <ele>21</ele>
        <time>2019-10-17T12:37:31.000Z</time>
      </trkpt>
      <trkpt lat="47.26672" lon="-1.54191">
        <ele>21</ele>
        <time>2019-10-17T12:37:32.000Z</time>
      </trkpt>
      <trkpt lat="47.26672" lon="-1.5419">
        <ele>21</ele>
        <time>2019-10-17T12:37:33.000Z</time>
      </trkpt>
      <trkpt lat="47.26675" lon="-1.54194">
        <ele>21</ele>
        <time>2019-10-17T12:37:34.000Z</time>
      </trkpt>
      <trkpt lat="47.26676" lon="-1.54195">
        <ele>21</ele>
        <time>2019-10-17T12:37:35.000Z</time>
      </trkpt>
      <trkpt lat="47.26677" lon="-1.54195">
        <ele>21</ele>
        <time>2019-10-17T12:37:36.000Z</time>
      </trkpt>
      <trkpt lat="47.26679" lon="-1.54195">
        <ele>21</ele>
        <time>2019-10-17T12:37:37.000Z</time>
      </trkpt>
      <trkpt lat="47.2668" lon="-1.54195">
        <ele>21</ele>
        <time>2019-10-17T12:37:38.000Z</time>
      </trkpt>
      <trkpt lat="47.26682" lon="-1.54196">
        <ele>21</ele>
        <time>2019-10-17T12:37:39.000Z</time>
      </trkpt>
      <trkpt lat="47.26683" lon="-1.54197">
        <ele>20</ele>
        <time>2019-10-17T12:37:40.000Z</time>
      </trkpt>
      <trkpt lat="47.26684" lon="-1.54197">
        <ele>20</ele>
        <time>2019-10-17T12:37:41.000Z</time>
      </trkpt>
      <trkpt lat="47.26685" lon="-1.54198">
        <ele>20</ele>
        <time>2019-10-17T12:37:42.000Z</time>
      </trkpt>
      <trkpt lat="47.26686" lon="-1.54199">
        <ele>20</ele>
        <time>2019-10-17T12:37:43.000Z</time>
      </trkpt>
      <trkpt lat="47.26686" lon="-1.54197">
        <ele>20</ele>
        <time>2019-10-17T12:37:44.000Z</time>
      </trkpt>
      <trkpt lat="47.26686" lon="-1.54197">
        <ele>20</ele>
        <time>2019-10-17T12:37:45.000Z</time>
      </trkpt>
      <trkpt lat="47.26689" lon="-1.54188">
        <ele>22</ele>
        <time>2019-10-17T12:37:48.000Z</time>
      </trkpt>
      <trkpt lat="47.26684" lon="-1.54182">
        <ele>25</ele>
        <time>2019-10-17T12:37:50.000Z</time>
      </trkpt>
      <trkpt lat="47.26681" lon="-1.54186">
        <ele>18</ele>
        <time>2019-10-17T12:37:51.000Z</time>
      </trkpt>
      <trkpt lat="47.26681" lon="-1.54186">
        <ele>17</ele>
        <time>2019-10-17T12:37:52.000Z</time>
      </trkpt>
      <trkpt lat="47.26682" lon="-1.54185">
        <ele>16</ele>
        <time>2019-10-17T12:37:53.000Z</time>
      </trkpt>
      <trkpt lat="47.26683" lon="-1.54183">
        <ele>15</ele>
        <time>2019-10-17T12:37:54.000Z</time>
      </trkpt>
      <trkpt lat="47.26685" lon="-1.54181">
        <ele>15</ele>
        <time>2019-10-17T12:37:55.000Z</time>
      </trkpt>
      <trkpt lat="47.26686" lon="-1.54179">
        <ele>14</ele>
        <time>2019-10-17T12:37:56.000Z</time>
      </trkpt>
      <trkpt lat="47.26687" lon="-1.54177">
        <ele>14</ele>
        <time>2019-10-17T12:37:57.000Z</time>
      </trkpt>
      <trkpt lat="47.26689" lon="-1.54176">
        <ele>14</ele>
        <time>2019-10-17T12:37:58.000Z</time>
      </trkpt>
      <trkpt lat="47.26689" lon="-1.54174">
        <ele>14</ele>
        <time>2019-10-17T12:37:59.000Z</time>
      </trkpt>
      <trkpt lat="47.26691" lon="-1.54172">
        <ele>14</ele>
        <time>2019-10-17T12:38:00.000Z</time>
      </trkpt>
      <trkpt lat="47.26692" lon="-1.5417">
        <ele>14</ele>
        <time>2019-10-17T12:38:01.000Z</time>
      </trkpt>
      <trkpt lat="47.26693" lon="-1.54167">
        <ele>14</ele>
        <time>2019-10-17T12:38:02.000Z</time>
      </trkpt>
      <trkpt lat="47.26694" lon="-1.54165">
        <ele>14</ele>
        <time>2019-10-17T12:38:03.000Z</time>
      </trkpt>
      <trkpt lat="47.26694" lon="-1.54162">
        <ele>14</ele>
        <time>2019-10-17T12:38:04.000Z</time>
      </trkpt>
      <trkpt lat="47.26693" lon="-1.5416">
        <ele>14</ele>
        <time>2019-10-17T12:38:05.000Z</time>
      </trkpt>
      <trkpt lat="47.26692" lon="-1.54156">
        <ele>14</ele>
        <time>2019-10-17T12:38:06.000Z</time>
      </trkpt>
      <trkpt lat="47.26692" lon="-1.54152">
        <ele>14</ele>
        <time>2019-10-17T12:38:07.000Z</time>
      </trkpt>
      <trkpt lat="47.26691" lon="-1.54148">
        <ele>14</ele>
        <time>2019-10-17T12:38:08.000Z</time>
      </trkpt>
      <trkpt lat="47.26691" lon="-1.54143">
        <ele>14</ele>
        <time>2019-10-17T12:38:09.000Z</time>
      </trkpt>
      <trkpt lat="47.26691" lon="-1.54139">
        <ele>14</ele>
        <time>2019-10-17T12:38:10.000Z</time>
      </trkpt>
      <trkpt lat="47.26691" lon="-1.54136">
        <ele>14</ele>
        <time>2019-10-17T12:38:11.000Z</time>
      </trkpt>
      <trkpt lat="47.2669" lon="-1.54133">
        <ele>14</ele>
        <time>2019-10-17T12:38:12.000Z</time>
      </trkpt>
      <trkpt lat="47.26689" lon="-1.54132">
        <ele>14</ele>
        <time>2019-10-17T12:38:13.000Z</time>
      </trkpt>
      <trkpt lat="47.26688" lon="-1.5413">
        <ele>14</ele>
        <time>2019-10-17T12:38:14.000Z</time>
      </trkpt>
      <trkpt lat="47.26687" lon="-1.54128">
        <ele>14</ele>
        <time>2019-10-17T12:38:15.000Z</time>
      </trkpt>
      <trkpt lat="47.26686" lon="-1.54125">
        <ele>14</ele>
        <time>2019-10-17T12:38:16.000Z</time>
      </trkpt>
      <trkpt lat="47.26684" lon="-1.54122">
        <ele>14</ele>
        <time>2019-10-17T12:38:17.000Z</time>
      </trkpt>
      <trkpt lat="47.26681" lon="-1.54119">
        <ele>14</ele>
        <time>2019-10-17T12:38:18.000Z</time>
      </trkpt>
      <trkpt lat="47.26678" lon="-1.54116">
        <ele>14</ele>
        <time>2019-10-17T12:38:19.000Z</time>
      </trkpt>
      <trkpt lat="47.26676" lon="-1.54111">
        <ele>14</ele>
        <time>2019-10-17T12:38:20.000Z</time>
      </trkpt>
      <trkpt lat="47.26675" lon="-1.54105">
        <ele>14</ele>
        <time>2019-10-17T12:38:21.000Z</time>
      </trkpt>
      <trkpt lat="47.26674" lon="-1.54099">
        <ele>14</ele>
        <time>2019-10-17T12:38:22.000Z</time>
      </trkpt>
      <trkpt lat="47.26671" lon="-1.54094">
        <ele>14</ele>
        <time>2019-10-17T12:38:23.000Z</time>
      </trkpt>
      <trkpt lat="47.26669" lon="-1.54089">
        <ele>14</ele>
        <time>2019-10-17T12:38:24.000Z</time>
      </trkpt>
      <trkpt lat="47.26667" lon="-1.54083">
        <ele>13</ele>
        <time>2019-10-17T12:38:25.000Z</time>
      </trkpt>
      <trkpt lat="47.26665" lon="-1.54076">
        <ele>13</ele>
        <time>2019-10-17T12:38:26.000Z</time>
      </trkpt>
      <trkpt lat="47.26662" lon="-1.54071">
        <ele>13</ele>
        <time>2019-10-17T12:38:27.000Z</time>
      </trkpt>
      <trkpt lat="47.26659" lon="-1.54064">
        <ele>13</ele>
        <time>2019-10-17T12:38:28.000Z</time>
      </trkpt>
      <trkpt lat="47.26655" lon="-1.54059">
        <ele>13</ele>
        <time>2019-10-17T12:38:29.000Z</time>
      </trkpt>
      <trkpt lat="47.26653" lon="-1.54053">
        <ele>13</ele>
        <time>2019-10-17T12:38:30.000Z</time>
      </trkpt>
      <trkpt lat="47.2665" lon="-1.54048">
        <ele>13</ele>
        <time>2019-10-17T12:38:31.000Z</time>
      </trkpt>
      <trkpt lat="47.26647" lon="-1.54043">
        <ele>13</ele>
        <time>2019-10-17T12:38:32.000Z</time>
      </trkpt>
      <trkpt lat="47.26642" lon="-1.54039">
        <ele>13</ele>
        <time>2019-10-17T12:38:33.000Z</time>
      </trkpt>
      <trkpt lat="47.26638" lon="-1.54034">
        <ele>13</ele>
        <time>2019-10-17T12:38:34.000Z</time>
      </trkpt>
      <trkpt lat="47.26634" lon="-1.5403">
        <ele>12</ele>
        <time>2019-10-17T12:38:35.000Z</time>
      </trkpt>
      <trkpt lat="47.26632" lon="-1.54025">
        <ele>12</ele>
        <time>2019-10-17T12:38:36.000Z</time>
      </trkpt>
      <trkpt lat="47.26632" lon="-1.54021">
        <ele>12</ele>
        <time>2019-10-17T12:38:37.000Z</time>
      </trkpt>
      <trkpt lat="47.26631" lon="-1.54016">
        <ele>12</ele>
        <time>2019-10-17T12:38:38.000Z</time>
      </trkpt>
      <trkpt lat="47.26631" lon="-1.54012">
        <ele>12</ele>
        <time>2019-10-17T12:38:39.000Z</time>
      </trkpt>
      <trkpt lat="47.2663" lon="-1.54008">
        <ele>12</ele>
        <time>2019-10-17T12:38:40.000Z</time>
      </trkpt>
      <trkpt lat="47.2663" lon="-1.54004">
        <ele>12</ele>
        <time>2019-10-17T12:38:41.000Z</time>
      </trkpt>
      <trkpt lat="47.2663" lon="-1.54">
        <ele>12</ele>
        <time>2019-10-17T12:38:42.000Z</time>
      </trkpt>
      <trkpt lat="47.2663" lon="-1.53998">
        <ele>12</ele>
        <time>2019-10-17T12:38:43.000Z</time>
      </trkpt>
      <trkpt lat="47.2663" lon="-1.53995">
        <ele>12</ele>
        <time>2019-10-17T12:38:44.000Z</time>
      </trkpt>
      <trkpt lat="47.2663" lon="-1.53992">
        <ele>12</ele>
        <time>2019-10-17T12:38:45.000Z</time>
      </trkpt>
      <trkpt lat="47.26629" lon="-1.53989">
        <ele>12</ele>
        <time>2019-10-17T12:38:46.000Z</time>
      </trkpt>
      <trkpt lat="47.26629" lon="-1.53985">
        <ele>12</ele>
        <time>2019-10-17T12:38:47.000Z</time>
      </trkpt>
      <trkpt lat="47.26628" lon="-1.53982">
        <ele>12</ele>
        <time>2019-10-17T12:38:48.000Z</time>
      </trkpt>
      <trkpt lat="47.26628" lon="-1.53978">
        <ele>12</ele>
        <time>2019-10-17T12:38:49.000Z</time>
      </trkpt>
      <trkpt lat="47.26629" lon="-1.53974">
        <ele>12</ele>
        <time>2019-10-17T12:38:50.000Z</time>
      </trkpt>
      <trkpt lat="47.26629" lon="-1.53969">
        <ele>12</ele>
        <time>2019-10-17T12:38:51.000Z</time>
      </trkpt>
      <trkpt lat="47.2663" lon="-1.53966">
        <ele>12</ele>
        <time>2019-10-17T12:38:52.000Z</time>
      </trkpt>
      <trkpt lat="47.2663" lon="-1.53961">
        <ele>12</ele>
        <time>2019-10-17T12:38:53.000Z</time>
      </trkpt>
      <trkpt lat="47.2663" lon="-1.53957">
        <ele>12</ele>
        <time>2019-10-17T12:38:54.000Z</time>
      </trkpt>
      <trkpt lat="47.2663" lon="-1.53953">
        <ele>12</ele>
        <time>2019-10-17T12:38:55.000Z</time>
      </trkpt>
      <trkpt lat="47.2663" lon="-1.53949">
        <ele>12</ele>
        <time>2019-10-17T12:38:56.000Z</time>
      </trkpt>
      <trkpt lat="47.2663" lon="-1.53947">
        <ele>12</ele>
        <time>2019-10-17T12:38:57.000Z</time>
      </trkpt>
      <trkpt lat="47.26631" lon="-1.53943">
        <ele>12</ele>
        <time>2019-10-17T12:38:58.000Z</time>
      </trkpt>
      <trkpt lat="47.26632" lon="-1.53939">
        <ele>12</ele>
        <time>2019-10-17T12:38:59.000Z</time>
      </trkpt>
      <trkpt lat="47.26633" lon="-1.53936">
        <ele>12</ele>
        <time>2019-10-17T12:39:00.000Z</time>
      </trkpt>
      <trkpt lat="47.26635" lon="-1.53935">
        <ele>12</ele>
        <time>2019-10-17T12:39:01.000Z</time>
      </trkpt>
      <trkpt lat="47.26636" lon="-1.53934">
        <ele>12</ele>
        <time>2019-10-17T12:39:02.000Z</time>
      </trkpt>
      <trkpt lat="47.26638" lon="-1.53932">
        <ele>12</ele>
        <time>2019-10-17T12:39:03.000Z</time>
      </trkpt>
      <trkpt lat="47.26639" lon="-1.5393">
        <ele>12</ele>
        <time>2019-10-17T12:39:04.000Z</time>
      </trkpt>
      <trkpt lat="47.26642" lon="-1.53928">
        <ele>12</ele>
        <time>2019-10-17T12:39:05.000Z</time>
      </trkpt>
      <trkpt lat="47.26645" lon="-1.53928">
        <ele>12</ele>
        <time>2019-10-17T12:39:06.000Z</time>
      </trkpt>
      <trkpt lat="47.26649" lon="-1.53927">
        <ele>12</ele>
        <time>2019-10-17T12:39:07.000Z</time>
      </trkpt>
      <trkpt lat="47.26652" lon="-1.53925">
        <ele>12</ele>
        <time>2019-10-17T12:39:08.000Z</time>
      </trkpt>
      <trkpt lat="47.26657" lon="-1.53923">
        <ele>12</ele>
        <time>2019-10-17T12:39:09.000Z</time>
      </trkpt>
      <trkpt lat="47.26661" lon="-1.53922">
        <ele>12</ele>
        <time>2019-10-17T12:39:10.000Z</time>
      </trkpt>
      <trkpt lat="47.26665" lon="-1.53921">
        <ele>12</ele>
        <time>2019-10-17T12:39:11.000Z</time>
      </trkpt>
      <trkpt lat="47.26668" lon="-1.53921">
        <ele>12</ele>
        <time>2019-10-17T12:39:12.000Z</time>
      </trkpt>
      <trkpt lat="47.26672" lon="-1.53922">
        <ele>12</ele>
        <time>2019-10-17T12:39:13.000Z</time>
      </trkpt>
      <trkpt lat="47.26677" lon="-1.53922">
        <ele>12</ele>
        <time>2019-10-17T12:39:14.000Z</time>
      </trkpt>
      <trkpt lat="47.26682" lon="-1.53922">
        <ele>11</ele>
        <time>2019-10-17T12:39:15.000Z</time>
      </trkpt>
      <trkpt lat="47.26688" lon="-1.53921">
        <ele>11</ele>
        <time>2019-10-17T12:39:16.000Z</time>
      </trkpt>
      <trkpt lat="47.26694" lon="-1.53919">
        <ele>11</ele>
        <time>2019-10-17T12:39:17.000Z</time>
      </trkpt>
      <trkpt lat="47.26699" lon="-1.53918">
        <ele>11</ele>
        <time>2019-10-17T12:39:18.000Z</time>
      </trkpt>
      <trkpt lat="47.26704" lon="-1.53918">
        <ele>11</ele>
        <time>2019-10-17T12:39:19.000Z</time>
      </trkpt>
      <trkpt lat="47.26709" lon="-1.53918">
        <ele>10</ele>
        <time>2019-10-17T12:39:20.000Z</time>
      </trkpt>
      <trkpt lat="47.26712" lon="-1.53918">
        <ele>10</ele>
        <time>2019-10-17T12:39:21.000Z</time>
      </trkpt>
      <trkpt lat="47.26716" lon="-1.53918">
        <ele>10</ele>
        <time>2019-10-17T12:39:22.000Z</time>
      </trkpt>
      <trkpt lat="47.26719" lon="-1.53917">
        <ele>10</ele>
        <time>2019-10-17T12:39:23.000Z</time>
      </trkpt>
      <trkpt lat="47.26722" lon="-1.53917">
        <ele>10</ele>
        <time>2019-10-17T12:39:24.000Z</time>
      </trkpt>
      <trkpt lat="47.26726" lon="-1.53916">
        <ele>10</ele>
        <time>2019-10-17T12:39:25.000Z</time>
      </trkpt>
      <trkpt lat="47.2673" lon="-1.53914">
        <ele>9</ele>
        <time>2019-10-17T12:39:26.000Z</time>
      </trkpt>
      <trkpt lat="47.26734" lon="-1.53912">
        <ele>9</ele>
        <time>2019-10-17T12:39:27.000Z</time>
      </trkpt>
      <trkpt lat="47.26736" lon="-1.5391">
        <ele>9</ele>
        <time>2019-10-17T12:39:28.000Z</time>
      </trkpt>
      <trkpt lat="47.26738" lon="-1.5391">
        <ele>9</ele>
        <time>2019-10-17T12:39:29.000Z</time>
      </trkpt>
      <trkpt lat="47.2674" lon="-1.5391">
        <ele>9</ele>
        <time>2019-10-17T12:39:30.000Z</time>
      </trkpt>
      <trkpt lat="47.26742" lon="-1.53909">
        <ele>9</ele>
        <time>2019-10-17T12:39:31.000Z</time>
      </trkpt>
      <trkpt lat="47.26744" lon="-1.53909">
        <ele>9</ele>
        <time>2019-10-17T12:39:32.000Z</time>
      </trkpt>
      <trkpt lat="47.26746" lon="-1.53908">
        <ele>9</ele>
        <time>2019-10-17T12:39:33.000Z</time>
      </trkpt>
      <trkpt lat="47.26747" lon="-1.53908">
        <ele>9</ele>
        <time>2019-10-17T12:39:34.000Z</time>
      </trkpt>
      <trkpt lat="47.26749" lon="-1.53908">
        <ele>9</ele>
        <time>2019-10-17T12:39:35.000Z</time>
      </trkpt>
      <trkpt lat="47.2675" lon="-1.53907">
        <ele>9</ele>
        <time>2019-10-17T12:39:36.000Z</time>
      </trkpt>
      <trkpt lat="47.26751" lon="-1.53906">
        <ele>9</ele>
        <time>2019-10-17T12:39:37.000Z</time>
      </trkpt>
      <trkpt lat="47.26752" lon="-1.53904">
        <ele>9</ele>
        <time>2019-10-17T12:39:38.000Z</time>
      </trkpt>
      <trkpt lat="47.26754" lon="-1.53902">
        <ele>8</ele>
        <time>2019-10-17T12:39:39.000Z</time>
      </trkpt>
      <trkpt lat="47.26756" lon="-1.53901">
        <ele>8</ele>
        <time>2019-10-17T12:39:40.000Z</time>
      </trkpt>
      <trkpt lat="47.26758" lon="-1.539">
        <ele>8</ele>
        <time>2019-10-17T12:39:41.000Z</time>
      </trkpt>
      <trkpt lat="47.2676" lon="-1.53899">
        <ele>8</ele>
        <time>2019-10-17T12:39:42.000Z</time>
      </trkpt>
      <trkpt lat="47.26762" lon="-1.53898">
        <ele>8</ele>
        <time>2019-10-17T12:39:43.000Z</time>
      </trkpt>
      <trkpt lat="47.26764" lon="-1.53897">
        <ele>8</ele>
        <time>2019-10-17T12:39:44.000Z</time>
      </trkpt>
      <trkpt lat="47.26766" lon="-1.53895">
        <ele>8</ele>
        <time>2019-10-17T12:39:45.000Z</time>
      </trkpt>
      <trkpt lat="47.26769" lon="-1.53893">
        <ele>8</ele>
        <time>2019-10-17T12:39:46.000Z</time>
      </trkpt>
      <trkpt lat="47.26771" lon="-1.5389">
        <ele>8</ele>
        <time>2019-10-17T12:39:47.000Z</time>
      </trkpt>
      <trkpt lat="47.26774" lon="-1.53888">
        <ele>7</ele>
        <time>2019-10-17T12:39:48.000Z</time>
      </trkpt>
      <trkpt lat="47.26777" lon="-1.53887">
        <ele>7</ele>
        <time>2019-10-17T12:39:49.000Z</time>
      </trkpt>
      <trkpt lat="47.2678" lon="-1.53885">
        <ele>7</ele>
        <time>2019-10-17T12:39:50.000Z</time>
      </trkpt>
      <trkpt lat="47.26783" lon="-1.53883">
        <ele>7</ele>
        <time>2019-10-17T12:39:51.000Z</time>
      </trkpt>
      <trkpt lat="47.26785" lon="-1.53881">
        <ele>7</ele>
        <time>2019-10-17T12:39:52.000Z</time>
      </trkpt>
      <trkpt lat="47.26787" lon="-1.5388">
        <ele>7</ele>
        <time>2019-10-17T12:39:53.000Z</time>
      </trkpt>
      <trkpt lat="47.26788" lon="-1.53879">
        <ele>7</ele>
        <time>2019-10-17T12:39:54.000Z</time>
      </trkpt>
      <trkpt lat="47.2679" lon="-1.5388">
        <ele>7</ele>
        <time>2019-10-17T12:39:55.000Z</time>
      </trkpt>
      <trkpt lat="47.26791" lon="-1.53881">
        <ele>7</ele>
        <time>2019-10-17T12:39:56.000Z</time>
      </trkpt>
      <trkpt lat="47.26793" lon="-1.53881">
        <ele>6</ele>
        <time>2019-10-17T12:39:57.000Z</time>
      </trkpt>
      <trkpt lat="47.26794" lon="-1.53882">
        <ele>6</ele>
        <time>2019-10-17T12:39:58.000Z</time>
      </trkpt>
      <trkpt lat="47.26796" lon="-1.53881">
        <ele>6</ele>
        <time>2019-10-17T12:39:59.000Z</time>
      </trkpt>
      <trkpt lat="47.26797" lon="-1.53881">
        <ele>6</ele>
        <time>2019-10-17T12:40:00.000Z</time>
      </trkpt>
      <trkpt lat="47.26798" lon="-1.53882">
        <ele>6</ele>
        <time>2019-10-17T12:40:01.000Z</time>
      </trkpt>
      <trkpt lat="47.26799" lon="-1.53883">
        <ele>6</ele>
        <time>2019-10-17T12:40:02.000Z</time>
      </trkpt>
      <trkpt lat="47.268" lon="-1.53884">
        <ele>6</ele>
        <time>2019-10-17T12:40:03.000Z</time>
      </trkpt>
      <trkpt lat="47.26801" lon="-1.53886">
        <ele>6</ele>
        <time>2019-10-17T12:40:04.000Z</time>
      </trkpt>
      <trkpt lat="47.26801" lon="-1.53888">
        <ele>6</ele>
        <time>2019-10-17T12:40:05.000Z</time>
      </trkpt>
      <trkpt lat="47.26801" lon="-1.5389">
        <ele>5</ele>
        <time>2019-10-17T12:40:06.000Z</time>
      </trkpt>
      <trkpt lat="47.26802" lon="-1.53893">
        <ele>5</ele>
        <time>2019-10-17T12:40:07.000Z</time>
      </trkpt>
      <trkpt lat="47.26802" lon="-1.53894">
        <ele>5</ele>
        <time>2019-10-17T12:40:08.000Z</time>
      </trkpt>
      <trkpt lat="47.26803" lon="-1.53896">
        <ele>5</ele>
        <time>2019-10-17T12:40:09.000Z</time>
      </trkpt>
      <trkpt lat="47.26804" lon="-1.53899">
        <ele>5</ele>
        <time>2019-10-17T12:40:10.000Z</time>
      </trkpt>
      <trkpt lat="47.26805" lon="-1.53902">
        <ele>5</ele>
        <time>2019-10-17T12:40:11.000Z</time>
      </trkpt>
      <trkpt lat="47.26805" lon="-1.53904">
        <ele>5</ele>
        <time>2019-10-17T12:40:12.000Z</time>
      </trkpt>
      <trkpt lat="47.26806" lon="-1.53907">
        <ele>5</ele>
        <time>2019-10-17T12:40:13.000Z</time>
      </trkpt>
      <trkpt lat="47.26807" lon="-1.53909">
        <ele>5</ele>
        <time>2019-10-17T12:40:14.000Z</time>
      </trkpt>
      <trkpt lat="47.26808" lon="-1.53912">
        <ele>5</ele>
        <time>2019-10-17T12:40:15.000Z</time>
      </trkpt>
      <trkpt lat="47.26808" lon="-1.53914">
        <ele>5</ele>
        <time>2019-10-17T12:40:16.000Z</time>
      </trkpt>
      <trkpt lat="47.26809" lon="-1.53917">
        <ele>5</ele>
        <time>2019-10-17T12:40:17.000Z</time>
      </trkpt>
      <trkpt lat="47.2681" lon="-1.53919">
        <ele>5</ele>
        <time>2019-10-17T12:40:18.000Z</time>
      </trkpt>
      <trkpt lat="47.26811" lon="-1.5392">
        <ele>5</ele>
        <time>2019-10-17T12:40:19.000Z</time>
      </trkpt>
      <trkpt lat="47.26811" lon="-1.53921">
        <ele>6</ele>
        <time>2019-10-17T12:40:20.000Z</time>
      </trkpt>
      <trkpt lat="47.26812" lon="-1.53923">
        <ele>6</ele>
        <time>2019-10-17T12:40:21.000Z</time>
      </trkpt>
      <trkpt lat="47.26813" lon="-1.53924">
        <ele>6</ele>
        <time>2019-10-17T12:40:22.000Z</time>
      </trkpt>
      <trkpt lat="47.26813" lon="-1.53923">
        <ele>6</ele>
        <time>2019-10-17T12:40:23.000Z</time>
      </trkpt>
      <trkpt lat="47.26814" lon="-1.53922">
        <ele>6</ele>
        <time>2019-10-17T12:40:24.000Z</time>
      </trkpt>
      <trkpt lat="47.26815" lon="-1.5392">
        <ele>6</ele>
        <time>2019-10-17T12:40:25.000Z</time>
      </trkpt>
      <trkpt lat="47.26817" lon="-1.53919">
        <ele>6</ele>
        <time>2019-10-17T12:40:26.000Z</time>
      </trkpt>
      <trkpt lat="47.26819" lon="-1.53917">
        <ele>7</ele>
        <time>2019-10-17T12:40:27.000Z</time>
      </trkpt>
      <trkpt lat="47.26821" lon="-1.53914">
        <ele>7</ele>
        <time>2019-10-17T12:40:28.000Z</time>
      </trkpt>
      <trkpt lat="47.26823" lon="-1.53913">
        <ele>7</ele>
        <time>2019-10-17T12:40:29.000Z</time>
      </trkpt>
      <trkpt lat="47.26826" lon="-1.53913">
        <ele>7</ele>
        <time>2019-10-17T12:40:30.000Z</time>
      </trkpt>
      <trkpt lat="47.26828" lon="-1.53911">
        <ele>7</ele>
        <time>2019-10-17T12:40:31.000Z</time>
      </trkpt>
      <trkpt lat="47.26829" lon="-1.53911">
        <ele>7</ele>
        <time>2019-10-17T12:40:32.000Z</time>
      </trkpt>
      <trkpt lat="47.26831" lon="-1.53912">
        <ele>7</ele>
        <time>2019-10-17T12:40:33.000Z</time>
      </trkpt>
      <trkpt lat="47.26834" lon="-1.53914">
        <ele>7</ele>
        <time>2019-10-17T12:40:34.000Z</time>
      </trkpt>
      <trkpt lat="47.26836" lon="-1.53916">
        <ele>7</ele>
        <time>2019-10-17T12:40:35.000Z</time>
      </trkpt>
      <trkpt lat="47.26839" lon="-1.53918">
        <ele>7</ele>
        <time>2019-10-17T12:40:36.000Z</time>
      </trkpt>
      <trkpt lat="47.2684" lon="-1.5392">
        <ele>7</ele>
        <time>2019-10-17T12:40:37.000Z</time>
      </trkpt>
      <trkpt lat="47.26841" lon="-1.53923">
        <ele>7</ele>
        <time>2019-10-17T12:40:38.000Z</time>
      </trkpt>
      <trkpt lat="47.26842" lon="-1.53926">
        <ele>7</ele>
        <time>2019-10-17T12:40:39.000Z</time>
      </trkpt>
      <trkpt lat="47.26843" lon="-1.53929">
        <ele>7</ele>
        <time>2019-10-17T12:40:40.000Z</time>
      </trkpt>
      <trkpt lat="47.26843" lon="-1.53933">
        <ele>7</ele>
        <time>2019-10-17T12:40:41.000Z</time>
      </trkpt>
      <trkpt lat="47.26844" lon="-1.53936">
        <ele>7</ele>
        <time>2019-10-17T12:40:42.000Z</time>
      </trkpt>
      <trkpt lat="47.26844" lon="-1.53939">
        <ele>7</ele>
        <time>2019-10-17T12:40:43.000Z</time>
      </trkpt>
      <trkpt lat="47.26845" lon="-1.53942">
        <ele>7</ele>
        <time>2019-10-17T12:40:44.000Z</time>
      </trkpt>
      <trkpt lat="47.26846" lon="-1.53946">
        <ele>7</ele>
        <time>2019-10-17T12:40:45.000Z</time>
      </trkpt>
      <trkpt lat="47.26847" lon="-1.53951">
        <ele>8</ele>
        <time>2019-10-17T12:40:46.000Z</time>
      </trkpt>
      <trkpt lat="47.26848" lon="-1.53955">
        <ele>8</ele>
        <time>2019-10-17T12:40:47.000Z</time>
      </trkpt>
      <trkpt lat="47.2685" lon="-1.53959">
        <ele>8</ele>
        <time>2019-10-17T12:40:48.000Z</time>
      </trkpt>
      <trkpt lat="47.26851" lon="-1.53963">
        <ele>8</ele>
        <time>2019-10-17T12:40:49.000Z</time>
      </trkpt>
      <trkpt lat="47.26852" lon="-1.53967">
        <ele>8</ele>
        <time>2019-10-17T12:40:50.000Z</time>
      </trkpt>
      <trkpt lat="47.26853" lon="-1.53969">
        <ele>8</ele>
        <time>2019-10-17T12:40:51.000Z</time>
      </trkpt>
      <trkpt lat="47.26854" lon="-1.53972">
        <ele>8</ele>
        <time>2019-10-17T12:40:52.000Z</time>
      </trkpt>
      <trkpt lat="47.26855" lon="-1.53974">
        <ele>9</ele>
        <time>2019-10-17T12:40:53.000Z</time>
      </trkpt>
      <trkpt lat="47.26855" lon="-1.53974">
        <ele>9</ele>
        <time>2019-10-17T12:40:54.000Z</time>
      </trkpt>
      <trkpt lat="47.26856" lon="-1.53973">
        <ele>9</ele>
        <time>2019-10-17T12:40:55.000Z</time>
      </trkpt>
      <trkpt lat="47.26857" lon="-1.53973">
        <ele>9</ele>
        <time>2019-10-17T12:40:56.000Z</time>
      </trkpt>
      <trkpt lat="47.26859" lon="-1.53971">
        <ele>9</ele>
        <time>2019-10-17T12:40:57.000Z</time>
      </trkpt>
      <trkpt lat="47.26861" lon="-1.5397">
        <ele>9</ele>
        <time>2019-10-17T12:40:58.000Z</time>
      </trkpt>
      <trkpt lat="47.26863" lon="-1.53969">
        <ele>9</ele>
        <time>2019-10-17T12:40:59.000Z</time>
      </trkpt>
      <trkpt lat="47.26864" lon="-1.53968">
        <ele>9</ele>
        <time>2019-10-17T12:41:00.000Z</time>
      </trkpt>
      <trkpt lat="47.26866" lon="-1.53967">
        <ele>10</ele>
        <time>2019-10-17T12:41:01.000Z</time>
      </trkpt>
      <trkpt lat="47.26867" lon="-1.53966">
        <ele>10</ele>
        <time>2019-10-17T12:41:02.000Z</time>
      </trkpt>
      <trkpt lat="47.26868" lon="-1.53967">
        <ele>10</ele>
        <time>2019-10-17T12:41:03.000Z</time>
      </trkpt>
      <trkpt lat="47.26869" lon="-1.53968">
        <ele>10</ele>
        <time>2019-10-17T12:41:04.000Z</time>
      </trkpt>
      <trkpt lat="47.26869" lon="-1.53968">
        <ele>10</ele>
        <time>2019-10-17T12:41:05.000Z</time>
      </trkpt>
      <trkpt lat="47.2687" lon="-1.53967">
        <ele>10</ele>
        <time>2019-10-17T12:41:06.000Z</time>
      </trkpt>
      <trkpt lat="47.26871" lon="-1.53966">
        <ele>10</ele>
        <time>2019-10-17T12:41:07.000Z</time>
      </trkpt>
      <trkpt lat="47.26873" lon="-1.53965">
        <ele>10</ele>
        <time>2019-10-17T12:41:08.000Z</time>
      </trkpt>
      <trkpt lat="47.26875" lon="-1.53964">
        <ele>10</ele>
        <time>2019-10-17T12:41:09.000Z</time>
      </trkpt>
      <trkpt lat="47.26876" lon="-1.53964">
        <ele>10</ele>
        <time>2019-10-17T12:41:10.000Z</time>
      </trkpt>
      <trkpt lat="47.26878" lon="-1.53963">
        <ele>10</ele>
        <time>2019-10-17T12:41:11.000Z</time>
      </trkpt>
      <trkpt lat="47.26879" lon="-1.53963">
        <ele>10</ele>
        <time>2019-10-17T12:41:12.000Z</time>
      </trkpt>
      <trkpt lat="47.26881" lon="-1.53962">
        <ele>10</ele>
        <time>2019-10-17T12:41:13.000Z</time>
      </trkpt>
      <trkpt lat="47.26882" lon="-1.53962">
        <ele>10</ele>
        <time>2019-10-17T12:41:14.000Z</time>
      </trkpt>
      <trkpt lat="47.26883" lon="-1.53961">
        <ele>10</ele>
        <time>2019-10-17T12:41:15.000Z</time>
      </trkpt>
      <trkpt lat="47.26884" lon="-1.5396">
        <ele>10</ele>
        <time>2019-10-17T12:41:16.000Z</time>
      </trkpt>
      <trkpt lat="47.26885" lon="-1.53959">
        <ele>10</ele>
        <time>2019-10-17T12:41:17.000Z</time>
      </trkpt>
      <trkpt lat="47.26887" lon="-1.53958">
        <ele>10</ele>
        <time>2019-10-17T12:41:18.000Z</time>
      </trkpt>
      <trkpt lat="47.26887" lon="-1.53957">
        <ele>10</ele>
        <time>2019-10-17T12:41:19.000Z</time>
      </trkpt>
      <trkpt lat="47.26888" lon="-1.53957">
        <ele>10</ele>
        <time>2019-10-17T12:41:20.000Z</time>
      </trkpt>
      <trkpt lat="47.26889" lon="-1.53957">
        <ele>10</ele>
        <time>2019-10-17T12:41:21.000Z</time>
      </trkpt>
      <trkpt lat="47.26889" lon="-1.53957">
        <ele>10</ele>
        <time>2019-10-17T12:41:22.000Z</time>
      </trkpt>
      <trkpt lat="47.2689" lon="-1.53957">
        <ele>10</ele>
        <time>2019-10-17T12:41:23.000Z</time>
      </trkpt>
      <trkpt lat="47.26894" lon="-1.53951">
        <ele>11</ele>
        <time>2019-10-17T12:41:24.000Z</time>
      </trkpt>
      <trkpt lat="47.26895" lon="-1.53949">
        <ele>11</ele>
        <time>2019-10-17T12:41:25.000Z</time>
      </trkpt>
      <trkpt lat="47.26896" lon="-1.53946">
        <ele>11</ele>
        <time>2019-10-17T12:41:26.000Z</time>
      </trkpt>
      <trkpt lat="47.26897" lon="-1.53943">
        <ele>11</ele>
        <time>2019-10-17T12:41:27.000Z</time>
      </trkpt>
      <trkpt lat="47.26898" lon="-1.5394">
        <ele>11</ele>
        <time>2019-10-17T12:41:28.000Z</time>
      </trkpt>
      <trkpt lat="47.269" lon="-1.53936">
        <ele>11</ele>
        <time>2019-10-17T12:41:29.000Z</time>
      </trkpt>
      <trkpt lat="47.26902" lon="-1.53933">
        <ele>11</ele>
        <time>2019-10-17T12:41:30.000Z</time>
      </trkpt>
      <trkpt lat="47.26903" lon="-1.5393">
        <ele>11</ele>
        <time>2019-10-17T12:41:31.000Z</time>
      </trkpt>
      <trkpt lat="47.26904" lon="-1.53927">
        <ele>11</ele>
        <time>2019-10-17T12:41:32.000Z</time>
      </trkpt>
      <trkpt lat="47.26904" lon="-1.53924">
        <ele>10</ele>
        <time>2019-10-17T12:41:33.000Z</time>
      </trkpt>
      <trkpt lat="47.26906" lon="-1.53922">
        <ele>10</ele>
        <time>2019-10-17T12:41:34.000Z</time>
      </trkpt>
      <trkpt lat="47.26907" lon="-1.5392">
        <ele>10</ele>
        <time>2019-10-17T12:41:35.000Z</time>
      </trkpt>
      <trkpt lat="47.26909" lon="-1.53917">
        <ele>10</ele>
        <time>2019-10-17T12:41:36.000Z</time>
      </trkpt>
      <trkpt lat="47.2691" lon="-1.53914">
        <ele>10</ele>
        <time>2019-10-17T12:41:37.000Z</time>
      </trkpt>
      <trkpt lat="47.26912" lon="-1.53912">
        <ele>10</ele>
        <time>2019-10-17T12:41:38.000Z</time>
      </trkpt>
      <trkpt lat="47.26914" lon="-1.53908">
        <ele>10</ele>
        <time>2019-10-17T12:41:39.000Z</time>
      </trkpt>
      <trkpt lat="47.26915" lon="-1.53904">
        <ele>9</ele>
        <time>2019-10-17T12:41:40.000Z</time>
      </trkpt>
      <trkpt lat="47.26917" lon="-1.53901">
        <ele>9</ele>
        <time>2019-10-17T12:41:41.000Z</time>
      </trkpt>
      <trkpt lat="47.26919" lon="-1.539">
        <ele>9</ele>
        <time>2019-10-17T12:41:42.000Z</time>
      </trkpt>
      <trkpt lat="47.26921" lon="-1.53899">
        <ele>9</ele>
        <time>2019-10-17T12:41:43.000Z</time>
      </trkpt>
      <trkpt lat="47.26922" lon="-1.53898">
        <ele>8</ele>
        <time>2019-10-17T12:41:44.000Z</time>
      </trkpt>
      <trkpt lat="47.26924" lon="-1.53896">
        <ele>8</ele>
        <time>2019-10-17T12:41:45.000Z</time>
      </trkpt>
      <trkpt lat="47.26924" lon="-1.53896">
        <ele>8</ele>
        <time>2019-10-17T12:41:46.000Z</time>
      </trkpt>
      <trkpt lat="47.26925" lon="-1.53895">
        <ele>8</ele>
        <time>2019-10-17T12:41:47.000Z</time>
      </trkpt>
      <trkpt lat="47.26926" lon="-1.53894">
        <ele>7</ele>
        <time>2019-10-17T12:41:48.000Z</time>
      </trkpt>
      <trkpt lat="47.26927" lon="-1.53893">
        <ele>7</ele>
        <time>2019-10-17T12:41:49.000Z</time>
      </trkpt>
      <trkpt lat="47.2693" lon="-1.53892">
        <ele>7</ele>
        <time>2019-10-17T12:41:50.000Z</time>
      </trkpt>
      <trkpt lat="47.26932" lon="-1.5389">
        <ele>7</ele>
        <time>2019-10-17T12:41:51.000Z</time>
      </trkpt>
      <trkpt lat="47.26934" lon="-1.53888">
        <ele>7</ele>
        <time>2019-10-17T12:41:52.000Z</time>
      </trkpt>
      <trkpt lat="47.26936" lon="-1.53886">
        <ele>7</ele>
        <time>2019-10-17T12:41:53.000Z</time>
      </trkpt>
      <trkpt lat="47.26939" lon="-1.53883">
        <ele>7</ele>
        <time>2019-10-17T12:41:54.000Z</time>
      </trkpt>
      <trkpt lat="47.26942" lon="-1.53882">
        <ele>7</ele>
        <time>2019-10-17T12:41:55.000Z</time>
      </trkpt>
      <trkpt lat="47.26944" lon="-1.5388">
        <ele>7</ele>
        <time>2019-10-17T12:41:56.000Z</time>
      </trkpt>
      <trkpt lat="47.26947" lon="-1.53879">
        <ele>7</ele>
        <time>2019-10-17T12:41:57.000Z</time>
      </trkpt>
      <trkpt lat="47.2695" lon="-1.53878">
        <ele>7</ele>
        <time>2019-10-17T12:41:58.000Z</time>
      </trkpt>
      <trkpt lat="47.26952" lon="-1.53877">
        <ele>7</ele>
        <time>2019-10-17T12:41:59.000Z</time>
      </trkpt>
      <trkpt lat="47.26953" lon="-1.53878">
        <ele>7</ele>
        <time>2019-10-17T12:42:00.000Z</time>
      </trkpt>
      <trkpt lat="47.26955" lon="-1.5388">
        <ele>7</ele>
        <time>2019-10-17T12:42:01.000Z</time>
      </trkpt>
      <trkpt lat="47.26956" lon="-1.53882">
        <ele>7</ele>
        <time>2019-10-17T12:42:02.000Z</time>
      </trkpt>
      <trkpt lat="47.26958" lon="-1.53884">
        <ele>6</ele>
        <time>2019-10-17T12:42:03.000Z</time>
      </trkpt>
      <trkpt lat="47.2696" lon="-1.53887">
        <ele>6</ele>
        <time>2019-10-17T12:42:04.000Z</time>
      </trkpt>
      <trkpt lat="47.26961" lon="-1.53889">
        <ele>6</ele>
        <time>2019-10-17T12:42:05.000Z</time>
      </trkpt>
      <trkpt lat="47.26963" lon="-1.53891">
        <ele>6</ele>
        <time>2019-10-17T12:42:06.000Z</time>
      </trkpt>
      <trkpt lat="47.26964" lon="-1.53893">
        <ele>6</ele>
        <time>2019-10-17T12:42:07.000Z</time>
      </trkpt>
      <trkpt lat="47.26965" lon="-1.53895">
        <ele>6</ele>
        <time>2019-10-17T12:42:08.000Z</time>
      </trkpt>
      <trkpt lat="47.26966" lon="-1.53898">
        <ele>6</ele>
        <time>2019-10-17T12:42:09.000Z</time>
      </trkpt>
      <trkpt lat="47.26967" lon="-1.53901">
        <ele>6</ele>
        <time>2019-10-17T12:42:10.000Z</time>
      </trkpt>
      <trkpt lat="47.26968" lon="-1.53903">
        <ele>6</ele>
        <time>2019-10-17T12:42:11.000Z</time>
      </trkpt>
      <trkpt lat="47.26968" lon="-1.53906">
        <ele>6</ele>
        <time>2019-10-17T12:42:12.000Z</time>
      </trkpt>
      <trkpt lat="47.26969" lon="-1.53908">
        <ele>6</ele>
        <time>2019-10-17T12:42:13.000Z</time>
      </trkpt>
      <trkpt lat="47.2697" lon="-1.5391">
        <ele>6</ele>
        <time>2019-10-17T12:42:14.000Z</time>
      </trkpt>
      <trkpt lat="47.26971" lon="-1.53912">
        <ele>6</ele>
        <time>2019-10-17T12:42:15.000Z</time>
      </trkpt>
      <trkpt lat="47.26972" lon="-1.53915">
        <ele>6</ele>
        <time>2019-10-17T12:42:16.000Z</time>
      </trkpt>
      <trkpt lat="47.26973" lon="-1.53918">
        <ele>6</ele>
        <time>2019-10-17T12:42:17.000Z</time>
      </trkpt>
      <trkpt lat="47.26974" lon="-1.5392">
        <ele>6</ele>
        <time>2019-10-17T12:42:18.000Z</time>
      </trkpt>
      <trkpt lat="47.26975" lon="-1.53922">
        <ele>6</ele>
        <time>2019-10-17T12:42:19.000Z</time>
      </trkpt>
      <trkpt lat="47.26977" lon="-1.53922">
        <ele>6</ele>
        <time>2019-10-17T12:42:20.000Z</time>
      </trkpt>
      <trkpt lat="47.26979" lon="-1.53921">
        <ele>6</ele>
        <time>2019-10-17T12:42:21.000Z</time>
      </trkpt>
      <trkpt lat="47.26982" lon="-1.53919">
        <ele>6</ele>
        <time>2019-10-17T12:42:22.000Z</time>
      </trkpt>
      <trkpt lat="47.26984" lon="-1.53917">
        <ele>6</ele>
        <time>2019-10-17T12:42:23.000Z</time>
      </trkpt>
      <trkpt lat="47.26986" lon="-1.53915">
        <ele>6</ele>
        <time>2019-10-17T12:42:24.000Z</time>
      </trkpt>
      <trkpt lat="47.26988" lon="-1.53912">
        <ele>6</ele>
        <time>2019-10-17T12:42:25.000Z</time>
      </trkpt>
      <trkpt lat="47.2699" lon="-1.53911">
        <ele>6</ele>
        <time>2019-10-17T12:42:26.000Z</time>
      </trkpt>
      <trkpt lat="47.26993" lon="-1.53907">
        <ele>6</ele>
        <time>2019-10-17T12:42:27.000Z</time>
      </trkpt>
      <trkpt lat="47.26995" lon="-1.53904">
        <ele>6</ele>
        <time>2019-10-17T12:42:28.000Z</time>
      </trkpt>
      <trkpt lat="47.26997" lon="-1.53901">
        <ele>6</ele>
        <time>2019-10-17T12:42:29.000Z</time>
      </trkpt>
      <trkpt lat="47.26999" lon="-1.53898">
        <ele>6</ele>
        <time>2019-10-17T12:42:30.000Z</time>
      </trkpt>
      <trkpt lat="47.27002" lon="-1.53895">
        <ele>6</ele>
        <time>2019-10-17T12:42:31.000Z</time>
      </trkpt>
      <trkpt lat="47.27004" lon="-1.53892">
        <ele>7</ele>
        <time>2019-10-17T12:42:32.000Z</time>
      </trkpt>
      <trkpt lat="47.27006" lon="-1.53887">
        <ele>7</ele>
        <time>2019-10-17T12:42:33.000Z</time>
      </trkpt>
      <trkpt lat="47.27007" lon="-1.53882">
        <ele>7</ele>
        <time>2019-10-17T12:42:34.000Z</time>
      </trkpt>
      <trkpt lat="47.27007" lon="-1.53877">
        <ele>6</ele>
        <time>2019-10-17T12:42:35.000Z</time>
      </trkpt>
      <trkpt lat="47.27007" lon="-1.53871">
        <ele>6</ele>
        <time>2019-10-17T12:42:36.000Z</time>
      </trkpt>
      <trkpt lat="47.27008" lon="-1.53865">
        <ele>6</ele>
        <time>2019-10-17T12:42:37.000Z</time>
      </trkpt>
      <trkpt lat="47.27008" lon="-1.53859">
        <ele>6</ele>
        <time>2019-10-17T12:42:38.000Z</time>
      </trkpt>
      <trkpt lat="47.2701" lon="-1.53854">
        <ele>6</ele>
        <time>2019-10-17T12:42:39.000Z</time>
      </trkpt>
      <trkpt lat="47.27011" lon="-1.53848">
        <ele>5</ele>
        <time>2019-10-17T12:42:40.000Z</time>
      </trkpt>
      <trkpt lat="47.27013" lon="-1.53842">
        <ele>5</ele>
        <time>2019-10-17T12:42:41.000Z</time>
      </trkpt>
      <trkpt lat="47.27014" lon="-1.53838">
        <ele>5</ele>
        <time>2019-10-17T12:42:42.000Z</time>
      </trkpt>
      <trkpt lat="47.27015" lon="-1.53833">
        <ele>4</ele>
        <time>2019-10-17T12:42:43.000Z</time>
      </trkpt>
      <trkpt lat="47.27017" lon="-1.53827">
        <ele>4</ele>
        <time>2019-10-17T12:42:44.000Z</time>
      </trkpt>
      <trkpt lat="47.27018" lon="-1.53821">
        <ele>4</ele>
        <time>2019-10-17T12:42:45.000Z</time>
      </trkpt>
      <trkpt lat="47.2702" lon="-1.53815">
        <ele>4</ele>
        <time>2019-10-17T12:42:46.000Z</time>
      </trkpt>
      <trkpt lat="47.27021" lon="-1.53809">
        <ele>3</ele>
        <time>2019-10-17T12:42:47.000Z</time>
      </trkpt>
      <trkpt lat="47.27021" lon="-1.53802">
        <ele>3</ele>
        <time>2019-10-17T12:42:48.000Z</time>
      </trkpt>
      <trkpt lat="47.2702" lon="-1.53795">
        <ele>3</ele>
        <time>2019-10-17T12:42:49.000Z</time>
      </trkpt>
      <trkpt lat="47.27019" lon="-1.53787">
        <ele>3</ele>
        <time>2019-10-17T12:42:50.000Z</time>
      </trkpt>
      <trkpt lat="47.27018" lon="-1.53779">
        <ele>2</ele>
        <time>2019-10-17T12:42:51.000Z</time>
      </trkpt>
      <trkpt lat="47.27018" lon="-1.53772">
        <ele>2</ele>
        <time>2019-10-17T12:42:52.000Z</time>
      </trkpt>
      <trkpt lat="47.27019" lon="-1.53765">
        <ele>2</ele>
        <time>2019-10-17T12:42:53.000Z</time>
      </trkpt>
      <trkpt lat="47.27019" lon="-1.53759">
        <ele>2</ele>
        <time>2019-10-17T12:42:54.000Z</time>
      </trkpt>
      <trkpt lat="47.27021" lon="-1.53752">
        <ele>1</ele>
        <time>2019-10-17T12:42:55.000Z</time>
      </trkpt>
      <trkpt lat="47.27023" lon="-1.53745">
        <ele>1</ele>
        <time>2019-10-17T12:42:56.000Z</time>
      </trkpt>
      <trkpt lat="47.27024" lon="-1.53738">
        <ele>1</ele>
        <time>2019-10-17T12:42:57.000Z</time>
      </trkpt>
      <trkpt lat="47.27026" lon="-1.5373">
        <ele>1</ele>
        <time>2019-10-17T12:42:58.000Z</time>
      </trkpt>
      <trkpt lat="47.27027" lon="-1.53723">
        <ele>6.9</ele>
        <time>2019-10-17T12:42:59.000Z</time>
      </trkpt>
      <trkpt lat="47.27028" lon="-1.53715">
        <ele>6.7</ele>
        <time>2019-10-17T12:43:00.000Z</time>
      </trkpt>
      <trkpt lat="47.27029" lon="-1.53708">
        <ele>6.5</ele>
        <time>2019-10-17T12:43:01.000Z</time>
      </trkpt>
      <trkpt lat="47.2703" lon="-1.537">
        <ele>6.3</ele>
        <time>2019-10-17T12:43:02.000Z</time>
      </trkpt>
      <trkpt lat="47.27031" lon="-1.53693">
        <ele>6.2</ele>
        <time>2019-10-17T12:43:03.000Z</time>
      </trkpt>
      <trkpt lat="47.27033" lon="-1.53687">
        <ele>6.1</ele>
        <time>2019-10-17T12:43:04.000Z</time>
      </trkpt>
      <trkpt lat="47.27035" lon="-1.53681">
        <ele>6</ele>
        <time>2019-10-17T12:43:05.000Z</time>
      </trkpt>
      <trkpt lat="47.27038" lon="-1.53674">
        <ele>6</ele>
        <time>2019-10-17T12:43:06.000Z</time>
      </trkpt>
      <trkpt lat="47.27041" lon="-1.53669">
        <ele>6</ele>
        <time>2019-10-17T12:43:07.000Z</time>
      </trkpt>
      <trkpt lat="47.27044" lon="-1.53664">
        <ele>6</ele>
        <time>2019-10-17T12:43:08.000Z</time>
      </trkpt>
      <trkpt lat="47.27046" lon="-1.53659">
        <ele>5.9</ele>
        <time>2019-10-17T12:43:09.000Z</time>
      </trkpt>
      <trkpt lat="47.27049" lon="-1.53655">
        <ele>5.8</ele>
        <time>2019-10-17T12:43:10.000Z</time>
      </trkpt>
      <trkpt lat="47.27053" lon="-1.53651">
        <ele>5.7</ele>
        <time>2019-10-17T12:43:11.000Z</time>
      </trkpt>
      <trkpt lat="47.27056" lon="-1.53647">
        <ele>5.6</ele>
        <time>2019-10-17T12:43:12.000Z</time>
      </trkpt>
      <trkpt lat="47.2706" lon="-1.53645">
        <ele>5.5</ele>
        <time>2019-10-17T12:43:13.000Z</time>
      </trkpt>
      <trkpt lat="47.27063" lon="-1.53642">
        <ele>5.5</ele>
        <time>2019-10-17T12:43:14.000Z</time>
      </trkpt>
      <trkpt lat="47.27067" lon="-1.53641">
        <ele>5.5</ele>
        <time>2019-10-17T12:43:15.000Z</time>
      </trkpt>
      <trkpt lat="47.27071" lon="-1.53639">
        <ele>5.6</ele>
        <time>2019-10-17T12:43:16.000Z</time>
      </trkpt>
      <trkpt lat="47.27075" lon="-1.53638">
        <ele>5.7</ele>
        <time>2019-10-17T12:43:17.000Z</time>
      </trkpt>
      <trkpt lat="47.27079" lon="-1.53636">
        <ele>5.7</ele>
        <time>2019-10-17T12:43:18.000Z</time>
      </trkpt>
      <trkpt lat="47.27082" lon="-1.53633">
        <ele>5.8</ele>
        <time>2019-10-17T12:43:19.000Z</time>
      </trkpt>
      <trkpt lat="47.27085" lon="-1.53631">
        <ele>5.9</ele>
        <time>2019-10-17T12:43:20.000Z</time>
      </trkpt>
      <trkpt lat="47.27088" lon="-1.53628">
        <ele>6</ele>
        <time>2019-10-17T12:43:21.000Z</time>
      </trkpt>
      <trkpt lat="47.27091" lon="-1.53626">
        <ele>6.2</ele>
        <time>2019-10-17T12:43:22.000Z</time>
      </trkpt>
      <trkpt lat="47.27094" lon="-1.53624">
        <ele>6.4</ele>
        <time>2019-10-17T12:43:23.000Z</time>
      </trkpt>
      <trkpt lat="47.27096" lon="-1.53623">
        <ele>6.6</ele>
        <time>2019-10-17T12:43:24.000Z</time>
      </trkpt>
      <trkpt lat="47.27099" lon="-1.53624">
        <ele>6.9</ele>
        <time>2019-10-17T12:43:25.000Z</time>
      </trkpt>
      <trkpt lat="47.27102" lon="-1.53626">
        <ele>7.1</ele>
        <time>2019-10-17T12:43:26.000Z</time>
      </trkpt>
      <trkpt lat="47.27104" lon="-1.53628">
        <ele>7.4</ele>
        <time>2019-10-17T12:43:27.000Z</time>
      </trkpt>
      <trkpt lat="47.27106" lon="-1.53631">
        <ele>7.6</ele>
        <time>2019-10-17T12:43:28.000Z</time>
      </trkpt>
      <trkpt lat="47.27108" lon="-1.53634">
        <ele>7.8</ele>
        <time>2019-10-17T12:43:29.000Z</time>
      </trkpt>
      <trkpt lat="47.27111" lon="-1.53636">
        <ele>8</ele>
        <time>2019-10-17T12:43:30.000Z</time>
      </trkpt>
      <trkpt lat="47.27113" lon="-1.53639">
        <ele>8.2</ele>
        <time>2019-10-17T12:43:31.000Z</time>
      </trkpt>
      <trkpt lat="47.27115" lon="-1.53642">
        <ele>8.4</ele>
        <time>2019-10-17T12:43:32.000Z</time>
      </trkpt>
      <trkpt lat="47.27116" lon="-1.53644">
        <ele>8.5</ele>
        <time>2019-10-17T12:43:33.000Z</time>
      </trkpt>
      <trkpt lat="47.27118" lon="-1.53645">
        <ele>8.7</ele>
        <time>2019-10-17T12:43:34.000Z</time>
      </trkpt>
      <trkpt lat="47.2712" lon="-1.53647">
        <ele>8.9</ele>
        <time>2019-10-17T12:43:35.000Z</time>
      </trkpt>
      <trkpt lat="47.27121" lon="-1.53648">
        <ele>9.1</ele>
        <time>2019-10-17T12:43:36.000Z</time>
      </trkpt>
      <trkpt lat="47.27123" lon="-1.53648">
        <ele>9.2</ele>
        <time>2019-10-17T12:43:37.000Z</time>
      </trkpt>
      <trkpt lat="47.27124" lon="-1.53649">
        <ele>9.3</ele>
        <time>2019-10-17T12:43:38.000Z</time>
      </trkpt>
      <trkpt lat="47.27126" lon="-1.5365">
        <ele>9.4</ele>
        <time>2019-10-17T12:43:39.000Z</time>
      </trkpt>
      <trkpt lat="47.27128" lon="-1.5365">
        <ele>9.6</ele>
        <time>2019-10-17T12:43:40.000Z</time>
      </trkpt>
      <trkpt lat="47.2713" lon="-1.5365">
        <ele>9.8</ele>
        <time>2019-10-17T12:43:41.000Z</time>
      </trkpt>
      <trkpt lat="47.27133" lon="-1.53651">
        <ele>10</ele>
        <time>2019-10-17T12:43:42.000Z</time>
      </trkpt>
      <trkpt lat="47.27136" lon="-1.53652">
        <ele>10.2</ele>
        <time>2019-10-17T12:43:43.000Z</time>
      </trkpt>
      <trkpt lat="47.27138" lon="-1.53653">
        <ele>10.5</ele>
        <time>2019-10-17T12:43:44.000Z</time>
      </trkpt>
      <trkpt lat="47.2714" lon="-1.53655">
        <ele>10.7</ele>
        <time>2019-10-17T12:43:45.000Z</time>
      </trkpt>
      <trkpt lat="47.27143" lon="-1.53656">
        <ele>10.9</ele>
        <time>2019-10-17T12:43:46.000Z</time>
      </trkpt>
      <trkpt lat="47.27145" lon="-1.53656">
        <ele>11.1</ele>
        <time>2019-10-17T12:43:47.000Z</time>
      </trkpt>
      <trkpt lat="47.27148" lon="-1.53657">
        <ele>11.3</ele>
        <time>2019-10-17T12:43:48.000Z</time>
      </trkpt>
      <trkpt lat="47.27151" lon="-1.53659">
        <ele>11.6</ele>
        <time>2019-10-17T12:43:49.000Z</time>
      </trkpt>
      <trkpt lat="47.27153" lon="-1.53661">
        <ele>11.8</ele>
        <time>2019-10-17T12:43:50.000Z</time>
      </trkpt>
      <trkpt lat="47.27156" lon="-1.53662">
        <ele>12</ele>
        <time>2019-10-17T12:43:51.000Z</time>
      </trkpt>
      <trkpt lat="47.27159" lon="-1.53664">
        <ele>12.3</ele>
        <time>2019-10-17T12:43:52.000Z</time>
      </trkpt>
      <trkpt lat="47.27163" lon="-1.53666">
        <ele>12.7</ele>
        <time>2019-10-17T12:43:53.000Z</time>
      </trkpt>
      <trkpt lat="47.27168" lon="-1.53668">
        <ele>13</ele>
        <time>2019-10-17T12:43:54.000Z</time>
      </trkpt>
      <trkpt lat="47.27172" lon="-1.5367">
        <ele>13.2</ele>
        <time>2019-10-17T12:43:55.000Z</time>
      </trkpt>
      <trkpt lat="47.27175" lon="-1.53672">
        <ele>13.4</ele>
        <time>2019-10-17T12:43:56.000Z</time>
      </trkpt>
      <trkpt lat="47.27178" lon="-1.53674">
        <ele>1</ele>
        <time>2019-10-17T12:43:57.000Z</time>
      </trkpt>
      <trkpt lat="47.27181" lon="-1.53675">
        <ele>1</ele>
        <time>2019-10-17T12:43:58.000Z</time>
      </trkpt>
      <trkpt lat="47.27184" lon="-1.53676">
        <ele>1</ele>
        <time>2019-10-17T12:43:59.000Z</time>
      </trkpt>
      <trkpt lat="47.27186" lon="-1.53676">
        <ele>2</ele>
        <time>2019-10-17T12:44:00.000Z</time>
      </trkpt>
      <trkpt lat="47.27189" lon="-1.53678">
        <ele>2</ele>
        <time>2019-10-17T12:44:01.000Z</time>
      </trkpt>
      <trkpt lat="47.27191" lon="-1.53679">
        <ele>2</ele>
        <time>2019-10-17T12:44:02.000Z</time>
      </trkpt>
      <trkpt lat="47.27193" lon="-1.5368">
        <ele>2</ele>
        <time>2019-10-17T12:44:03.000Z</time>
      </trkpt>
      <trkpt lat="47.27194" lon="-1.5368">
        <ele>3</ele>
        <time>2019-10-17T12:44:04.000Z</time>
      </trkpt>
      <trkpt lat="47.27195" lon="-1.53681">
        <ele>3</ele>
        <time>2019-10-17T12:44:05.000Z</time>
      </trkpt>
      <trkpt lat="47.27196" lon="-1.53682">
        <ele>3</ele>
        <time>2019-10-17T12:44:06.000Z</time>
      </trkpt>
      <trkpt lat="47.27198" lon="-1.53684">
        <ele>3</ele>
        <time>2019-10-17T12:44:07.000Z</time>
      </trkpt>
      <trkpt lat="47.27199" lon="-1.53684">
        <ele>3</ele>
        <time>2019-10-17T12:44:08.000Z</time>
      </trkpt>
      <trkpt lat="47.27201" lon="-1.53685">
        <ele>4</ele>
        <time>2019-10-17T12:44:09.000Z</time>
      </trkpt>
      <trkpt lat="47.27202" lon="-1.53685">
        <ele>4</ele>
        <time>2019-10-17T12:44:10.000Z</time>
      </trkpt>
      <trkpt lat="47.27203" lon="-1.53686">
        <ele>4</ele>
        <time>2019-10-17T12:44:11.000Z</time>
      </trkpt>
      <trkpt lat="47.27204" lon="-1.53686">
        <ele>5</ele>
        <time>2019-10-17T12:44:12.000Z</time>
      </trkpt>
      <trkpt lat="47.27206" lon="-1.53686">
        <ele>5</ele>
        <time>2019-10-17T12:44:13.000Z</time>
      </trkpt>
      <trkpt lat="47.27207" lon="-1.53685">
        <ele>5</ele>
        <time>2019-10-17T12:44:14.000Z</time>
      </trkpt>
      <trkpt lat="47.2721" lon="-1.53685">
        <ele>5</ele>
        <time>2019-10-17T12:44:15.000Z</time>
      </trkpt>
      <trkpt lat="47.27212" lon="-1.53684">
        <ele>6</ele>
        <time>2019-10-17T12:44:16.000Z</time>
      </trkpt>
      <trkpt lat="47.27215" lon="-1.53683">
        <ele>6</ele>
        <time>2019-10-17T12:44:17.000Z</time>
      </trkpt>
      <trkpt lat="47.27218" lon="-1.53682">
        <ele>6</ele>
        <time>2019-10-17T12:44:18.000Z</time>
      </trkpt>
      <trkpt lat="47.27221" lon="-1.53683">
        <ele>7</ele>
        <time>2019-10-17T12:44:19.000Z</time>
      </trkpt>
      <trkpt lat="47.27225" lon="-1.53685">
        <ele>7</ele>
        <time>2019-10-17T12:44:20.000Z</time>
      </trkpt>
      <trkpt lat="47.27228" lon="-1.53688">
        <ele>7</ele>
        <time>2019-10-17T12:44:21.000Z</time>
      </trkpt>
      <trkpt lat="47.2723" lon="-1.53692">
        <ele>7</ele>
        <time>2019-10-17T12:44:22.000Z</time>
      </trkpt>
      <trkpt lat="47.27233" lon="-1.53696">
        <ele>8</ele>
        <time>2019-10-17T12:44:23.000Z</time>
      </trkpt>
      <trkpt lat="47.27236" lon="-1.53701">
        <ele>8</ele>
        <time>2019-10-17T12:44:24.000Z</time>
      </trkpt>
      <trkpt lat="47.27239" lon="-1.53706">
        <ele>8</ele>
        <time>2019-10-17T12:44:25.000Z</time>
      </trkpt>
      <trkpt lat="47.27242" lon="-1.53711">
        <ele>8</ele>
        <time>2019-10-17T12:44:26.000Z</time>
      </trkpt>
      <trkpt lat="47.27245" lon="-1.53715">
        <ele>8</ele>
        <time>2019-10-17T12:44:27.000Z</time>
      </trkpt>
      <trkpt lat="47.27247" lon="-1.5372">
        <ele>9</ele>
        <time>2019-10-17T12:44:28.000Z</time>
      </trkpt>
      <trkpt lat="47.27248" lon="-1.53724">
        <ele>9</ele>
        <time>2019-10-17T12:44:29.000Z</time>
      </trkpt>
      <trkpt lat="47.2725" lon="-1.53729">
        <ele>9</ele>
        <time>2019-10-17T12:44:30.000Z</time>
      </trkpt>
      <trkpt lat="47.27253" lon="-1.53734">
        <ele>9</ele>
        <time>2019-10-17T12:44:31.000Z</time>
      </trkpt>
      <trkpt lat="47.27256" lon="-1.53738">
        <ele>9</ele>
        <time>2019-10-17T12:44:32.000Z</time>
      </trkpt>
      <trkpt lat="47.27258" lon="-1.53743">
        <ele>9</ele>
        <time>2019-10-17T12:44:33.000Z</time>
      </trkpt>
      <trkpt lat="47.2726" lon="-1.53748">
        <ele>10</ele>
        <time>2019-10-17T12:44:34.000Z</time>
      </trkpt>
      <trkpt lat="47.27263" lon="-1.53753">
        <ele>10</ele>
        <time>2019-10-17T12:44:35.000Z</time>
      </trkpt>
      <trkpt lat="47.27267" lon="-1.53759">
        <ele>10</ele>
        <time>2019-10-17T12:44:36.000Z</time>
      </trkpt>
      <trkpt lat="47.27271" lon="-1.53765">
        <ele>10</ele>
        <time>2019-10-17T12:44:37.000Z</time>
      </trkpt>
      <trkpt lat="47.27275" lon="-1.5377">
        <ele>10</ele>
        <time>2019-10-17T12:44:38.000Z</time>
      </trkpt>
      <trkpt lat="47.27278" lon="-1.53776">
        <ele>10</ele>
        <time>2019-10-17T12:44:39.000Z</time>
      </trkpt>
      <trkpt lat="47.27282" lon="-1.53781">
        <ele>11</ele>
        <time>2019-10-17T12:44:40.000Z</time>
      </trkpt>
      <trkpt lat="47.27286" lon="-1.53786">
        <ele>11</ele>
        <time>2019-10-17T12:44:41.000Z</time>
      </trkpt>
      <trkpt lat="47.27291" lon="-1.53787">
        <ele>11</ele>
        <time>2019-10-17T12:44:42.000Z</time>
      </trkpt>
      <trkpt lat="47.27295" lon="-1.53785">
        <ele>11</ele>
        <time>2019-10-17T12:44:43.000Z</time>
      </trkpt>
      <trkpt lat="47.273" lon="-1.53783">
        <ele>11</ele>
        <time>2019-10-17T12:44:44.000Z</time>
      </trkpt>
      <trkpt lat="47.27304" lon="-1.5378">
        <ele>12</ele>
        <time>2019-10-17T12:44:45.000Z</time>
      </trkpt>
      <trkpt lat="47.27308" lon="-1.53778">
        <ele>12</ele>
        <time>2019-10-17T12:44:46.000Z</time>
      </trkpt>
      <trkpt lat="47.27312" lon="-1.53776">
        <ele>12</ele>
        <time>2019-10-17T12:44:47.000Z</time>
      </trkpt>
      <trkpt lat="47.27315" lon="-1.53774">
        <ele>12</ele>
        <time>2019-10-17T12:44:48.000Z</time>
      </trkpt>
      <trkpt lat="47.27318" lon="-1.53772">
        <ele>12</ele>
        <time>2019-10-17T12:44:49.000Z</time>
      </trkpt>
      <trkpt lat="47.27321" lon="-1.53769">
        <ele>12</ele>
        <time>2019-10-17T12:44:50.000Z</time>
      </trkpt>
      <trkpt lat="47.27323" lon="-1.53766">
        <ele>12</ele>
        <time>2019-10-17T12:44:51.000Z</time>
      </trkpt>
      <trkpt lat="47.27326" lon="-1.53763">
        <ele>13</ele>
        <time>2019-10-17T12:44:52.000Z</time>
      </trkpt>
      <trkpt lat="47.27329" lon="-1.5376">
        <ele>13</ele>
        <time>2019-10-17T12:44:53.000Z</time>
      </trkpt>
      <trkpt lat="47.27334" lon="-1.53757">
        <ele>13</ele>
        <time>2019-10-17T12:44:54.000Z</time>
      </trkpt>
      <trkpt lat="47.27339" lon="-1.53755">
        <ele>13</ele>
        <time>2019-10-17T12:44:55.000Z</time>
      </trkpt>
      <trkpt lat="47.27344" lon="-1.53752">
        <ele>13</ele>
        <time>2019-10-17T12:44:56.000Z</time>
      </trkpt>
      <trkpt lat="47.27349" lon="-1.5375">
        <ele>13</ele>
        <time>2019-10-17T12:44:57.000Z</time>
      </trkpt>
      <trkpt lat="47.27353" lon="-1.53747">
        <ele>14</ele>
        <time>2019-10-17T12:44:58.000Z</time>
      </trkpt>
      <trkpt lat="47.27359" lon="-1.53745">
        <ele>14</ele>
        <time>2019-10-17T12:44:59.000Z</time>
      </trkpt>
      <trkpt lat="47.27363" lon="-1.53743">
        <ele>14</ele>
        <time>2019-10-17T12:45:00.000Z</time>
      </trkpt>
      <trkpt lat="47.27367" lon="-1.53741">
        <ele>14</ele>
        <time>2019-10-17T12:45:01.000Z</time>
      </trkpt>
      <trkpt lat="47.27371" lon="-1.53739">
        <ele>14</ele>
        <time>2019-10-17T12:45:02.000Z</time>
      </trkpt>
      <trkpt lat="47.27375" lon="-1.53737">
        <ele>15</ele>
        <time>2019-10-17T12:45:03.000Z</time>
      </trkpt>
      <trkpt lat="47.27379" lon="-1.53735">
        <ele>15</ele>
        <time>2019-10-17T12:45:04.000Z</time>
      </trkpt>
      <trkpt lat="47.27383" lon="-1.53733">
        <ele>15</ele>
        <time>2019-10-17T12:45:05.000Z</time>
      </trkpt>
      <trkpt lat="47.27387" lon="-1.5373">
        <ele>15</ele>
        <time>2019-10-17T12:45:06.000Z</time>
      </trkpt>
      <trkpt lat="47.27391" lon="-1.53728">
        <ele>15</ele>
        <time>2019-10-17T12:45:07.000Z</time>
      </trkpt>
      <trkpt lat="47.27394" lon="-1.53726">
        <ele>16</ele>
        <time>2019-10-17T12:45:08.000Z</time>
      </trkpt>
      <trkpt lat="47.27398" lon="-1.53724">
        <ele>16</ele>
        <time>2019-10-17T12:45:09.000Z</time>
      </trkpt>
      <trkpt lat="47.27401" lon="-1.53721">
        <ele>16</ele>
        <time>2019-10-17T12:45:10.000Z</time>
      </trkpt>
      <trkpt lat="47.27405" lon="-1.53718">
        <ele>16</ele>
        <time>2019-10-17T12:45:11.000Z</time>
      </trkpt>
      <trkpt lat="47.27408" lon="-1.53715">
        <ele>16</ele>
        <time>2019-10-17T12:45:12.000Z</time>
      </trkpt>
      <trkpt lat="47.27411" lon="-1.53712">
        <ele>17</ele>
        <time>2019-10-17T12:45:13.000Z</time>
      </trkpt>
      <trkpt lat="47.27415" lon="-1.53709">
        <ele>17</ele>
        <time>2019-10-17T12:45:14.000Z</time>
      </trkpt>
      <trkpt lat="47.27419" lon="-1.53706">
        <ele>17</ele>
        <time>2019-10-17T12:45:15.000Z</time>
      </trkpt>
      <trkpt lat="47.27422" lon="-1.53704">
        <ele>17</ele>
        <time>2019-10-17T12:45:16.000Z</time>
      </trkpt>
      <trkpt lat="47.27426" lon="-1.53701">
        <ele>17</ele>
        <time>2019-10-17T12:45:17.000Z</time>
      </trkpt>
      <trkpt lat="47.2743" lon="-1.53699">
        <ele>17</ele>
        <time>2019-10-17T12:45:18.000Z</time>
      </trkpt>
      <trkpt lat="47.27434" lon="-1.53696">
        <ele>17</ele>
        <time>2019-10-17T12:45:19.000Z</time>
      </trkpt>
      <trkpt lat="47.27438" lon="-1.53692">
        <ele>17</ele>
        <time>2019-10-17T12:45:20.000Z</time>
      </trkpt>
      <trkpt lat="47.27441" lon="-1.53688">
        <ele>17</ele>
        <time>2019-10-17T12:45:21.000Z</time>
      </trkpt>
      <trkpt lat="47.27445" lon="-1.53683">
        <ele>17</ele>
        <time>2019-10-17T12:45:22.000Z</time>
      </trkpt>
      <trkpt lat="47.27449" lon="-1.53678">
        <ele>17</ele>
        <time>2019-10-17T12:45:23.000Z</time>
      </trkpt>
      <trkpt lat="47.27452" lon="-1.53672">
        <ele>17</ele>
        <time>2019-10-17T12:45:24.000Z</time>
      </trkpt>
      <trkpt lat="47.27454" lon="-1.53667">
        <ele>17</ele>
        <time>2019-10-17T12:45:25.000Z</time>
      </trkpt>
      <trkpt lat="47.27456" lon="-1.53662">
        <ele>17</ele>
        <time>2019-10-17T12:45:26.000Z</time>
      </trkpt>
      <trkpt lat="47.27457" lon="-1.53656">
        <ele>17</ele>
        <time>2019-10-17T12:45:27.000Z</time>
      </trkpt>
      <trkpt lat="47.27458" lon="-1.53652">
        <ele>17</ele>
        <time>2019-10-17T12:45:28.000Z</time>
      </trkpt>
      <trkpt lat="47.27459" lon="-1.53647">
        <ele>17</ele>
        <time>2019-10-17T12:45:29.000Z</time>
      </trkpt>
      <trkpt lat="47.27459" lon="-1.53643">
        <ele>17</ele>
        <time>2019-10-17T12:45:30.000Z</time>
      </trkpt>
      <trkpt lat="47.2746" lon="-1.53638">
        <ele>17</ele>
        <time>2019-10-17T12:45:31.000Z</time>
      </trkpt>
      <trkpt lat="47.2746" lon="-1.53633">
        <ele>17</ele>
        <time>2019-10-17T12:45:32.000Z</time>
      </trkpt>
      <trkpt lat="47.27461" lon="-1.53627">
        <ele>17</ele>
        <time>2019-10-17T12:45:33.000Z</time>
      </trkpt>
      <trkpt lat="47.27461" lon="-1.5362">
        <ele>17</ele>
        <time>2019-10-17T12:45:34.000Z</time>
      </trkpt>
      <trkpt lat="47.27462" lon="-1.53611">
        <ele>17</ele>
        <time>2019-10-17T12:45:35.000Z</time>
      </trkpt>
      <trkpt lat="47.27463" lon="-1.53602">
        <ele>17</ele>
        <time>2019-10-17T12:45:36.000Z</time>
      </trkpt>
      <trkpt lat="47.27464" lon="-1.53593">
        <ele>16</ele>
        <time>2019-10-17T12:45:37.000Z</time>
      </trkpt>
      <trkpt lat="47.27465" lon="-1.53584">
        <ele>16</ele>
        <time>2019-10-17T12:45:38.000Z</time>
      </trkpt>
      <trkpt lat="47.27465" lon="-1.53574">
        <ele>16</ele>
        <time>2019-10-17T12:45:39.000Z</time>
      </trkpt>
      <trkpt lat="47.27466" lon="-1.53564">
        <ele>16</ele>
        <time>2019-10-17T12:45:40.000Z</time>
      </trkpt>
      <trkpt lat="47.27467" lon="-1.53556">
        <ele>16</ele>
        <time>2019-10-17T12:45:41.000Z</time>
      </trkpt>
      <trkpt lat="47.27468" lon="-1.53548">
        <ele>16</ele>
        <time>2019-10-17T12:45:42.000Z</time>
      </trkpt>
      <trkpt lat="47.27469" lon="-1.53541">
        <ele>16</ele>
        <time>2019-10-17T12:45:43.000Z</time>
      </trkpt>
      <trkpt lat="47.27468" lon="-1.53535">
        <ele>16</ele>
        <time>2019-10-17T12:45:44.000Z</time>
      </trkpt>
      <trkpt lat="47.27466" lon="-1.53531">
        <ele>16</ele>
        <time>2019-10-17T12:45:45.000Z</time>
      </trkpt>
      <trkpt lat="47.27465" lon="-1.53528">
        <ele>16</ele>
        <time>2019-10-17T12:45:46.000Z</time>
      </trkpt>
      <trkpt lat="47.27463" lon="-1.53525">
        <ele>16</ele>
        <time>2019-10-17T12:45:47.000Z</time>
      </trkpt>
      <trkpt lat="47.27461" lon="-1.53523">
        <ele>16</ele>
        <time>2019-10-17T12:45:48.000Z</time>
      </trkpt>
      <trkpt lat="47.2746" lon="-1.53521">
        <ele>16</ele>
        <time>2019-10-17T12:45:49.000Z</time>
      </trkpt>
      <trkpt lat="47.27459" lon="-1.53518">
        <ele>16</ele>
        <time>2019-10-17T12:45:50.000Z</time>
      </trkpt>
      <trkpt lat="47.27459" lon="-1.53515">
        <ele>15</ele>
        <time>2019-10-17T12:45:51.000Z</time>
      </trkpt>
      <trkpt lat="47.2746" lon="-1.53512">
        <ele>15</ele>
        <time>2019-10-17T12:45:52.000Z</time>
      </trkpt>
      <trkpt lat="47.27461" lon="-1.53508">
        <ele>15</ele>
        <time>2019-10-17T12:45:53.000Z</time>
      </trkpt>
      <trkpt lat="47.27462" lon="-1.53506">
        <ele>15</ele>
        <time>2019-10-17T12:45:54.000Z</time>
      </trkpt>
      <trkpt lat="47.27461" lon="-1.53505">
        <ele>15</ele>
        <time>2019-10-17T12:45:55.000Z</time>
      </trkpt>
      <trkpt lat="47.27459" lon="-1.53503">
        <ele>15</ele>
        <time>2019-10-17T12:45:56.000Z</time>
      </trkpt>
      <trkpt lat="47.27457" lon="-1.53499">
        <ele>15</ele>
        <time>2019-10-17T12:45:57.000Z</time>
      </trkpt>
      <trkpt lat="47.27455" lon="-1.53493">
        <ele>15</ele>
        <time>2019-10-17T12:45:58.000Z</time>
      </trkpt>
      <trkpt lat="47.27453" lon="-1.53489">
        <ele>14</ele>
        <time>2019-10-17T12:45:59.000Z</time>
      </trkpt>
      <trkpt lat="47.27451" lon="-1.53486">
        <ele>14</ele>
        <time>2019-10-17T12:46:00.000Z</time>
      </trkpt>
      <trkpt lat="47.27449" lon="-1.53483">
        <ele>14</ele>
        <time>2019-10-17T12:46:01.000Z</time>
      </trkpt>
      <trkpt lat="47.27446" lon="-1.5348">
        <ele>14</ele>
        <time>2019-10-17T12:46:02.000Z</time>
      </trkpt>
      <trkpt lat="47.27442" lon="-1.53477">
        <ele>14</ele>
        <time>2019-10-17T12:46:03.000Z</time>
      </trkpt>
      <trkpt lat="47.27438" lon="-1.53475">
        <ele>14</ele>
        <time>2019-10-17T12:46:04.000Z</time>
      </trkpt>
      <trkpt lat="47.27434" lon="-1.53472">
        <ele>14</ele>
        <time>2019-10-17T12:46:05.000Z</time>
      </trkpt>
      <trkpt lat="47.27431" lon="-1.53469">
        <ele>14</ele>
        <time>2019-10-17T12:46:06.000Z</time>
      </trkpt>
      <trkpt lat="47.27428" lon="-1.53465">
        <ele>14</ele>
        <time>2019-10-17T12:46:07.000Z</time>
      </trkpt>
      <trkpt lat="47.27426" lon="-1.53461">
        <ele>14</ele>
        <time>2019-10-17T12:46:08.000Z</time>
      </trkpt>
      <trkpt lat="47.27425" lon="-1.53457">
        <ele>14</ele>
        <time>2019-10-17T12:46:09.000Z</time>
      </trkpt>
      <trkpt lat="47.27425" lon="-1.53451">
        <ele>14</ele>
        <time>2019-10-17T12:46:10.000Z</time>
      </trkpt>
      <trkpt lat="47.27425" lon="-1.53443">
        <ele>13</ele>
        <time>2019-10-17T12:46:11.000Z</time>
      </trkpt>
      <trkpt lat="47.27426" lon="-1.53434">
        <ele>13</ele>
        <time>2019-10-17T12:46:12.000Z</time>
      </trkpt>
      <trkpt lat="47.27427" lon="-1.53425">
        <ele>13</ele>
        <time>2019-10-17T12:46:13.000Z</time>
      </trkpt>
      <trkpt lat="47.27427" lon="-1.53416">
        <ele>13</ele>
        <time>2019-10-17T12:46:14.000Z</time>
      </trkpt>
      <trkpt lat="47.27427" lon="-1.53408">
        <ele>13</ele>
        <time>2019-10-17T12:46:15.000Z</time>
      </trkpt>
      <trkpt lat="47.27428" lon="-1.534">
        <ele>13</ele>
        <time>2019-10-17T12:46:16.000Z</time>
      </trkpt>
      <trkpt lat="47.27429" lon="-1.53393">
        <ele>13</ele>
        <time>2019-10-17T12:46:17.000Z</time>
      </trkpt>
      <trkpt lat="47.27429" lon="-1.53384">
        <ele>13</ele>
        <time>2019-10-17T12:46:18.000Z</time>
      </trkpt>
      <trkpt lat="47.2743" lon="-1.53374">
        <ele>13</ele>
        <time>2019-10-17T12:46:19.000Z</time>
      </trkpt>
      <trkpt lat="47.27432" lon="-1.53364">
        <ele>13</ele>
        <time>2019-10-17T12:46:20.000Z</time>
      </trkpt>
      <trkpt lat="47.27433" lon="-1.53354">
        <ele>13</ele>
        <time>2019-10-17T12:46:21.000Z</time>
      </trkpt>
      <trkpt lat="47.27435" lon="-1.53343">
        <ele>12</ele>
        <time>2019-10-17T12:46:22.000Z</time>
      </trkpt>
      <trkpt lat="47.27436" lon="-1.53332">
        <ele>12</ele>
        <time>2019-10-17T12:46:23.000Z</time>
      </trkpt>
      <trkpt lat="47.27437" lon="-1.53321">
        <ele>12</ele>
        <time>2019-10-17T12:46:24.000Z</time>
      </trkpt>
      <trkpt lat="47.27436" lon="-1.53312">
        <ele>12</ele>
        <time>2019-10-17T12:46:25.000Z</time>
      </trkpt>
      <trkpt lat="47.27435" lon="-1.53303">
        <ele>12</ele>
        <time>2019-10-17T12:46:26.000Z</time>
      </trkpt>
      <trkpt lat="47.27433" lon="-1.53294">
        <ele>12</ele>
        <time>2019-10-17T12:46:27.000Z</time>
      </trkpt>
      <trkpt lat="47.2743" lon="-1.53286">
        <ele>12</ele>
        <time>2019-10-17T12:46:28.000Z</time>
      </trkpt>
      <trkpt lat="47.27428" lon="-1.5328">
        <ele>12</ele>
        <time>2019-10-17T12:46:29.000Z</time>
      </trkpt>
      <trkpt lat="47.27426" lon="-1.53273">
        <ele>12</ele>
        <time>2019-10-17T12:46:30.000Z</time>
      </trkpt>
      <trkpt lat="47.27422" lon="-1.53267">
        <ele>12</ele>
        <time>2019-10-17T12:46:31.000Z</time>
      </trkpt>
      <trkpt lat="47.27419" lon="-1.53261">
        <ele>12</ele>
        <time>2019-10-17T12:46:32.000Z</time>
      </trkpt>
      <trkpt lat="47.27416" lon="-1.53254">
        <ele>12</ele>
        <time>2019-10-17T12:46:33.000Z</time>
      </trkpt>
      <trkpt lat="47.27414" lon="-1.53248">
        <ele>12</ele>
        <time>2019-10-17T12:46:34.000Z</time>
      </trkpt>
      <trkpt lat="47.27411" lon="-1.53243">
        <ele>12</ele>
        <time>2019-10-17T12:46:35.000Z</time>
      </trkpt>
      <trkpt lat="47.2741" lon="-1.53237">
        <ele>12</ele>
        <time>2019-10-17T12:46:36.000Z</time>
      </trkpt>
      <trkpt lat="47.2741" lon="-1.53232">
        <ele>12</ele>
        <time>2019-10-17T12:46:37.000Z</time>
      </trkpt>
      <trkpt lat="47.2741" lon="-1.53225">
        <ele>12</ele>
        <time>2019-10-17T12:46:38.000Z</time>
      </trkpt>
      <trkpt lat="47.2741" lon="-1.53219">
        <ele>11</ele>
        <time>2019-10-17T12:46:39.000Z</time>
      </trkpt>
      <trkpt lat="47.27411" lon="-1.53214">
        <ele>11</ele>
        <time>2019-10-17T12:46:40.000Z</time>
      </trkpt>
      <trkpt lat="47.27413" lon="-1.5321">
        <ele>11</ele>
        <time>2019-10-17T12:46:41.000Z</time>
      </trkpt>
      <trkpt lat="47.27416" lon="-1.53205">
        <ele>11</ele>
        <time>2019-10-17T12:46:42.000Z</time>
      </trkpt>
      <trkpt lat="47.27418" lon="-1.53202">
        <ele>11</ele>
        <time>2019-10-17T12:46:43.000Z</time>
      </trkpt>
      <trkpt lat="47.27421" lon="-1.53198">
        <ele>11</ele>
        <time>2019-10-17T12:46:44.000Z</time>
      </trkpt>
      <trkpt lat="47.27424" lon="-1.53194">
        <ele>10</ele>
        <time>2019-10-17T12:46:45.000Z</time>
      </trkpt>
      <trkpt lat="47.27426" lon="-1.53189">
        <ele>10</ele>
        <time>2019-10-17T12:46:46.000Z</time>
      </trkpt>
      <trkpt lat="47.27428" lon="-1.53184">
        <ele>10</ele>
        <time>2019-10-17T12:46:47.000Z</time>
      </trkpt>
      <trkpt lat="47.2743" lon="-1.53178">
        <ele>10</ele>
        <time>2019-10-17T12:46:48.000Z</time>
      </trkpt>
      <trkpt lat="47.27432" lon="-1.53172">
        <ele>10</ele>
        <time>2019-10-17T12:46:49.000Z</time>
      </trkpt>
      <trkpt lat="47.27435" lon="-1.53166">
        <ele>10</ele>
        <time>2019-10-17T12:46:50.000Z</time>
      </trkpt>
      <trkpt lat="47.27438" lon="-1.5316">
        <ele>9</ele>
        <time>2019-10-17T12:46:51.000Z</time>
      </trkpt>
      <trkpt lat="47.2744" lon="-1.53153">
        <ele>9</ele>
        <time>2019-10-17T12:46:52.000Z</time>
      </trkpt>
      <trkpt lat="47.27443" lon="-1.53146">
        <ele>9</ele>
        <time>2019-10-17T12:46:53.000Z</time>
      </trkpt>
      <trkpt lat="47.27446" lon="-1.5314">
        <ele>9</ele>
        <time>2019-10-17T12:46:54.000Z</time>
      </trkpt>
      <trkpt lat="47.27449" lon="-1.53136">
        <ele>9</ele>
        <time>2019-10-17T12:46:55.000Z</time>
      </trkpt>
      <trkpt lat="47.27453" lon="-1.53131">
        <ele>9</ele>
        <time>2019-10-17T12:46:56.000Z</time>
      </trkpt>
      <trkpt lat="47.27458" lon="-1.53128">
        <ele>9</ele>
        <time>2019-10-17T12:46:57.000Z</time>
      </trkpt>
      <trkpt lat="47.27461" lon="-1.53125">
        <ele>8</ele>
        <time>2019-10-17T12:46:58.000Z</time>
      </trkpt>
      <trkpt lat="47.27465" lon="-1.53122">
        <ele>8</ele>
        <time>2019-10-17T12:46:59.000Z</time>
      </trkpt>
      <trkpt lat="47.27468" lon="-1.53119">
        <ele>8</ele>
        <time>2019-10-17T12:47:00.000Z</time>
      </trkpt>
      <trkpt lat="47.27471" lon="-1.53116">
        <ele>8</ele>
        <time>2019-10-17T12:47:01.000Z</time>
      </trkpt>
      <trkpt lat="47.27474" lon="-1.53114">
        <ele>8</ele>
        <time>2019-10-17T12:47:02.000Z</time>
      </trkpt>
      <trkpt lat="47.27477" lon="-1.53111">
        <ele>8</ele>
        <time>2019-10-17T12:47:03.000Z</time>
      </trkpt>
      <trkpt lat="47.2748" lon="-1.53108">
        <ele>8</ele>
        <time>2019-10-17T12:47:04.000Z</time>
      </trkpt>
      <trkpt lat="47.27483" lon="-1.53105">
        <ele>8</ele>
        <time>2019-10-17T12:47:05.000Z</time>
      </trkpt>
      <trkpt lat="47.27487" lon="-1.53103">
        <ele>8</ele>
        <time>2019-10-17T12:47:06.000Z</time>
      </trkpt>
      <trkpt lat="47.27491" lon="-1.53101">
        <ele>8</ele>
        <time>2019-10-17T12:47:07.000Z</time>
      </trkpt>
      <trkpt lat="47.27495" lon="-1.53098">
        <ele>8</ele>
        <time>2019-10-17T12:47:08.000Z</time>
      </trkpt>
      <trkpt lat="47.27498" lon="-1.53094">
        <ele>8</ele>
        <time>2019-10-17T12:47:09.000Z</time>
      </trkpt>
      <trkpt lat="47.27501" lon="-1.53091">
        <ele>8</ele>
        <time>2019-10-17T12:47:10.000Z</time>
      </trkpt>
      <trkpt lat="47.27504" lon="-1.53088">
        <ele>7</ele>
        <time>2019-10-17T12:47:11.000Z</time>
      </trkpt>
      <trkpt lat="47.27508" lon="-1.53085">
        <ele>7</ele>
        <time>2019-10-17T12:47:12.000Z</time>
      </trkpt>
      <trkpt lat="47.27512" lon="-1.53083">
        <ele>7</ele>
        <time>2019-10-17T12:47:13.000Z</time>
      </trkpt>
      <trkpt lat="47.27514" lon="-1.53081">
        <ele>7</ele>
        <time>2019-10-17T12:47:14.000Z</time>
      </trkpt>
      <trkpt lat="47.27516" lon="-1.5308">
        <ele>7</ele>
        <time>2019-10-17T12:47:15.000Z</time>
      </trkpt>
      <trkpt lat="47.27519" lon="-1.53078">
        <ele>8</ele>
        <time>2019-10-17T12:47:16.000Z</time>
      </trkpt>
      <trkpt lat="47.27522" lon="-1.53076">
        <ele>8</ele>
        <time>2019-10-17T12:47:17.000Z</time>
      </trkpt>
      <trkpt lat="47.27527" lon="-1.53074">
        <ele>8</ele>
        <time>2019-10-17T12:47:18.000Z</time>
      </trkpt>
      <trkpt lat="47.27532" lon="-1.53071">
        <ele>8</ele>
        <time>2019-10-17T12:47:19.000Z</time>
      </trkpt>
      <trkpt lat="47.27537" lon="-1.53068">
        <ele>8</ele>
        <time>2019-10-17T12:47:20.000Z</time>
      </trkpt>
      <trkpt lat="47.27541" lon="-1.53066">
        <ele>8</ele>
        <time>2019-10-17T12:47:21.000Z</time>
      </trkpt>
      <trkpt lat="47.27545" lon="-1.53064">
        <ele>8</ele>
        <time>2019-10-17T12:47:22.000Z</time>
      </trkpt>
      <trkpt lat="47.27549" lon="-1.53062">
        <ele>7</ele>
        <time>2019-10-17T12:47:23.000Z</time>
      </trkpt>
      <trkpt lat="47.27552" lon="-1.53061">
        <ele>7</ele>
        <time>2019-10-17T12:47:24.000Z</time>
      </trkpt>
      <trkpt lat="47.27556" lon="-1.5306">
        <ele>7</ele>
        <time>2019-10-17T12:47:25.000Z</time>
      </trkpt>
      <trkpt lat="47.27559" lon="-1.53059">
        <ele>7</ele>
        <time>2019-10-17T12:47:26.000Z</time>
      </trkpt>
      <trkpt lat="47.27563" lon="-1.53061">
        <ele>7</ele>
        <time>2019-10-17T12:47:27.000Z</time>
      </trkpt>
      <trkpt lat="47.27566" lon="-1.53063">
        <ele>7</ele>
        <time>2019-10-17T12:47:28.000Z</time>
      </trkpt>
      <trkpt lat="47.27569" lon="-1.53066">
        <ele>7</ele>
        <time>2019-10-17T12:47:29.000Z</time>
      </trkpt>
      <trkpt lat="47.27571" lon="-1.53069">
        <ele>7</ele>
        <time>2019-10-17T12:47:30.000Z</time>
      </trkpt>
      <trkpt lat="47.27573" lon="-1.53072">
        <ele>7</ele>
        <time>2019-10-17T12:47:31.000Z</time>
      </trkpt>
      <trkpt lat="47.27575" lon="-1.53077">
        <ele>7</ele>
        <time>2019-10-17T12:47:32.000Z</time>
      </trkpt>
      <trkpt lat="47.27578" lon="-1.53081">
        <ele>7</ele>
        <time>2019-10-17T12:47:33.000Z</time>
      </trkpt>
      <trkpt lat="47.27579" lon="-1.53087">
        <ele>6</ele>
        <time>2019-10-17T12:47:34.000Z</time>
      </trkpt>
      <trkpt lat="47.27581" lon="-1.53093">
        <ele>6</ele>
        <time>2019-10-17T12:47:35.000Z</time>
      </trkpt>
      <trkpt lat="47.27582" lon="-1.53098">
        <ele>6</ele>
        <time>2019-10-17T12:47:36.000Z</time>
      </trkpt>
      <trkpt lat="47.27584" lon="-1.53103">
        <ele>6</ele>
        <time>2019-10-17T12:47:37.000Z</time>
      </trkpt>
      <trkpt lat="47.27585" lon="-1.53108">
        <ele>6</ele>
        <time>2019-10-17T12:47:38.000Z</time>
      </trkpt>
      <trkpt lat="47.27586" lon="-1.53115">
        <ele>6</ele>
        <time>2019-10-17T12:47:39.000Z</time>
      </trkpt>
      <trkpt lat="47.27587" lon="-1.53122">
        <ele>6</ele>
        <time>2019-10-17T12:47:40.000Z</time>
      </trkpt>
      <trkpt lat="47.27589" lon="-1.53129">
        <ele>6</ele>
        <time>2019-10-17T12:47:41.000Z</time>
      </trkpt>
      <trkpt lat="47.27591" lon="-1.53136">
        <ele>6</ele>
        <time>2019-10-17T12:47:42.000Z</time>
      </trkpt>
      <trkpt lat="47.27592" lon="-1.53142">
        <ele>6</ele>
        <time>2019-10-17T12:47:43.000Z</time>
      </trkpt>
      <trkpt lat="47.27594" lon="-1.53148">
        <ele>6</ele>
        <time>2019-10-17T12:47:44.000Z</time>
      </trkpt>
      <trkpt lat="47.27595" lon="-1.53155">
        <ele>6</ele>
        <time>2019-10-17T12:47:45.000Z</time>
      </trkpt>
      <trkpt lat="47.27596" lon="-1.53161">
        <ele>6</ele>
        <time>2019-10-17T12:47:46.000Z</time>
      </trkpt>
      <trkpt lat="47.27598" lon="-1.53167">
        <ele>6</ele>
        <time>2019-10-17T12:47:47.000Z</time>
      </trkpt>
      <trkpt lat="47.276" lon="-1.53173">
        <ele>6</ele>
        <time>2019-10-17T12:47:48.000Z</time>
      </trkpt>
      <trkpt lat="47.276" lon="-1.53178">
        <ele>6</ele>
        <time>2019-10-17T12:47:49.000Z</time>
      </trkpt>
      <trkpt lat="47.27602" lon="-1.53185">
        <ele>6</ele>
        <time>2019-10-17T12:47:50.000Z</time>
      </trkpt>
      <trkpt lat="47.27603" lon="-1.53192">
        <ele>7</ele>
        <time>2019-10-17T12:47:51.000Z</time>
      </trkpt>
      <trkpt lat="47.27605" lon="-1.53198">
        <ele>7</ele>
        <time>2019-10-17T12:47:52.000Z</time>
      </trkpt>
      <trkpt lat="47.27606" lon="-1.53203">
        <ele>7</ele>
        <time>2019-10-17T12:47:53.000Z</time>
      </trkpt>
      <trkpt lat="47.27607" lon="-1.53208">
        <ele>7</ele>
        <time>2019-10-17T12:47:54.000Z</time>
      </trkpt>
      <trkpt lat="47.27608" lon="-1.53213">
        <ele>7</ele>
        <time>2019-10-17T12:47:55.000Z</time>
      </trkpt>
      <trkpt lat="47.27609" lon="-1.53218">
        <ele>7</ele>
        <time>2019-10-17T12:47:56.000Z</time>
      </trkpt>
      <trkpt lat="47.2761" lon="-1.53223">
        <ele>7</ele>
        <time>2019-10-17T12:47:57.000Z</time>
      </trkpt>
      <trkpt lat="47.27611" lon="-1.53228">
        <ele>7</ele>
        <time>2019-10-17T12:47:58.000Z</time>
      </trkpt>
      <trkpt lat="47.27611" lon="-1.53233">
        <ele>7</ele>
        <time>2019-10-17T12:47:59.000Z</time>
      </trkpt>
      <trkpt lat="47.27609" lon="-1.53238">
        <ele>8</ele>
        <time>2019-10-17T12:48:00.000Z</time>
      </trkpt>
      <trkpt lat="47.27608" lon="-1.53244">
        <ele>8</ele>
        <time>2019-10-17T12:48:01.000Z</time>
      </trkpt>
      <trkpt lat="47.27607" lon="-1.53249">
        <ele>8</ele>
        <time>2019-10-17T12:48:02.000Z</time>
      </trkpt>
      <trkpt lat="47.27607" lon="-1.53253">
        <ele>8</ele>
        <time>2019-10-17T12:48:03.000Z</time>
      </trkpt>
      <trkpt lat="47.27607" lon="-1.53257">
        <ele>9</ele>
        <time>2019-10-17T12:48:04.000Z</time>
      </trkpt>
      <trkpt lat="47.27606" lon="-1.53262">
        <ele>9</ele>
        <time>2019-10-17T12:48:05.000Z</time>
      </trkpt>
      <trkpt lat="47.27605" lon="-1.53266">
        <ele>9</ele>
        <time>2019-10-17T12:48:06.000Z</time>
      </trkpt>
      <trkpt lat="47.27604" lon="-1.53271">
        <ele>9</ele>
        <time>2019-10-17T12:48:07.000Z</time>
      </trkpt>
      <trkpt lat="47.27604" lon="-1.53277">
        <ele>9</ele>
        <time>2019-10-17T12:48:08.000Z</time>
      </trkpt>
      <trkpt lat="47.27603" lon="-1.53282">
        <ele>10</ele>
        <time>2019-10-17T12:48:09.000Z</time>
      </trkpt>
      <trkpt lat="47.27603" lon="-1.53287">
        <ele>10</ele>
        <time>2019-10-17T12:48:10.000Z</time>
      </trkpt>
      <trkpt lat="47.27603" lon="-1.53293">
        <ele>10</ele>
        <time>2019-10-17T12:48:11.000Z</time>
      </trkpt>
      <trkpt lat="47.27603" lon="-1.53299">
        <ele>10</ele>
        <time>2019-10-17T12:48:12.000Z</time>
      </trkpt>
      <trkpt lat="47.27603" lon="-1.53304">
        <ele>10</ele>
        <time>2019-10-17T12:48:13.000Z</time>
      </trkpt>
      <trkpt lat="47.27605" lon="-1.5331">
        <ele>11</ele>
        <time>2019-10-17T12:48:14.000Z</time>
      </trkpt>
      <trkpt lat="47.27605" lon="-1.53316">
        <ele>11</ele>
        <time>2019-10-17T12:48:15.000Z</time>
      </trkpt>
      <trkpt lat="47.27606" lon="-1.53321">
        <ele>11</ele>
        <time>2019-10-17T12:48:16.000Z</time>
      </trkpt>
      <trkpt lat="47.27607" lon="-1.53327">
        <ele>11</ele>
        <time>2019-10-17T12:48:17.000Z</time>
      </trkpt>
      <trkpt lat="47.27608" lon="-1.53333">
        <ele>11</ele>
        <time>2019-10-17T12:48:18.000Z</time>
      </trkpt>
      <trkpt lat="47.2761" lon="-1.5334">
        <ele>11</ele>
        <time>2019-10-17T12:48:19.000Z</time>
      </trkpt>
      <trkpt lat="47.27611" lon="-1.53347">
        <ele>12</ele>
        <time>2019-10-17T12:48:20.000Z</time>
      </trkpt>
      <trkpt lat="47.27612" lon="-1.53353">
        <ele>12</ele>
        <time>2019-10-17T12:48:21.000Z</time>
      </trkpt>
      <trkpt lat="47.27613" lon="-1.5336">
        <ele>12</ele>
        <time>2019-10-17T12:48:22.000Z</time>
      </trkpt>
      <trkpt lat="47.27614" lon="-1.53366">
        <ele>12</ele>
        <time>2019-10-17T12:48:23.000Z</time>
      </trkpt>
      <trkpt lat="47.27613" lon="-1.53372">
        <ele>12</ele>
        <time>2019-10-17T12:48:24.000Z</time>
      </trkpt>
      <trkpt lat="47.27613" lon="-1.53378">
        <ele>12</ele>
        <time>2019-10-17T12:48:25.000Z</time>
      </trkpt>
      <trkpt lat="47.27612" lon="-1.53383">
        <ele>12</ele>
        <time>2019-10-17T12:48:26.000Z</time>
      </trkpt>
      <trkpt lat="47.2761" lon="-1.53389">
        <ele>12</ele>
        <time>2019-10-17T12:48:27.000Z</time>
      </trkpt>
      <trkpt lat="47.2761" lon="-1.53389">
        <ele>12</ele>
        <time>2019-10-17T12:48:29.000Z</time>
      </trkpt>
      <trkpt lat="47.2761" lon="-1.53389">
        <ele>13</ele>
        <time>2019-10-17T12:48:30.000Z</time>
      </trkpt>
      <trkpt lat="47.27606" lon="-1.53412">
        <ele>13</ele>
        <time>2019-10-17T12:48:31.000Z</time>
      </trkpt>
      <trkpt lat="47.27605" lon="-1.53418">
        <ele>13</ele>
        <time>2019-10-17T12:48:32.000Z</time>
      </trkpt>
      <trkpt lat="47.27605" lon="-1.53422">
        <ele>13</ele>
        <time>2019-10-17T12:48:33.000Z</time>
      </trkpt>
      <trkpt lat="47.27605" lon="-1.53428">
        <ele>13</ele>
        <time>2019-10-17T12:48:34.000Z</time>
      </trkpt>
      <trkpt lat="47.27605" lon="-1.53433">
        <ele>14</ele>
        <time>2019-10-17T12:48:35.000Z</time>
      </trkpt>
      <trkpt lat="47.27605" lon="-1.53438">
        <ele>14</ele>
        <time>2019-10-17T12:48:36.000Z</time>
      </trkpt>
      <trkpt lat="47.27606" lon="-1.53443">
        <ele>14</ele>
        <time>2019-10-17T12:48:37.000Z</time>
      </trkpt>
      <trkpt lat="47.27608" lon="-1.53449">
        <ele>14</ele>
        <time>2019-10-17T12:48:38.000Z</time>
      </trkpt>
      <trkpt lat="47.27609" lon="-1.53457">
        <ele>14</ele>
        <time>2019-10-17T12:48:39.000Z</time>
      </trkpt>
      <trkpt lat="47.27612" lon="-1.53465">
        <ele>15</ele>
        <time>2019-10-17T12:48:40.000Z</time>
      </trkpt>
      <trkpt lat="47.27615" lon="-1.53473">
        <ele>15</ele>
        <time>2019-10-17T12:48:41.000Z</time>
      </trkpt>
      <trkpt lat="47.27618" lon="-1.5348">
        <ele>15</ele>
        <time>2019-10-17T12:48:42.000Z</time>
      </trkpt>
      <trkpt lat="47.27622" lon="-1.53487">
        <ele>15</ele>
        <time>2019-10-17T12:48:43.000Z</time>
      </trkpt>
      <trkpt lat="47.27624" lon="-1.53493">
        <ele>16</ele>
        <time>2019-10-17T12:48:44.000Z</time>
      </trkpt>
      <trkpt lat="47.27627" lon="-1.53499">
        <ele>17</ele>
        <time>2019-10-17T12:48:45.000Z</time>
      </trkpt>
      <trkpt lat="47.2763" lon="-1.53506">
        <ele>17</ele>
        <time>2019-10-17T12:48:46.000Z</time>
      </trkpt>
      <trkpt lat="47.27632" lon="-1.53512">
        <ele>17</ele>
        <time>2019-10-17T12:48:47.000Z</time>
      </trkpt>
      <trkpt lat="47.27634" lon="-1.53519">
        <ele>18</ele>
        <time>2019-10-17T12:48:48.000Z</time>
      </trkpt>
      <trkpt lat="47.27635" lon="-1.53525">
        <ele>18</ele>
        <time>2019-10-17T12:48:49.000Z</time>
      </trkpt>
      <trkpt lat="47.27634" lon="-1.5353">
        <ele>19</ele>
        <time>2019-10-17T12:48:50.000Z</time>
      </trkpt>
      <trkpt lat="47.27634" lon="-1.53535">
        <ele>19</ele>
        <time>2019-10-17T12:48:51.000Z</time>
      </trkpt>
      <trkpt lat="47.27633" lon="-1.53539">
        <ele>19</ele>
        <time>2019-10-17T12:48:52.000Z</time>
      </trkpt>
      <trkpt lat="47.27631" lon="-1.53543">
        <ele>19</ele>
        <time>2019-10-17T12:48:53.000Z</time>
      </trkpt>
      <trkpt lat="47.27629" lon="-1.53547">
        <ele>18</ele>
        <time>2019-10-17T12:48:54.000Z</time>
      </trkpt>
      <trkpt lat="47.27626" lon="-1.5355">
        <ele>18</ele>
        <time>2019-10-17T12:48:55.000Z</time>
      </trkpt>
      <trkpt lat="47.27624" lon="-1.53554">
        <ele>18</ele>
        <time>2019-10-17T12:48:56.000Z</time>
      </trkpt>
      <trkpt lat="47.27621" lon="-1.53559">
        <ele>18</ele>
        <time>2019-10-17T12:48:57.000Z</time>
      </trkpt>
      <trkpt lat="47.27618" lon="-1.53562">
        <ele>17</ele>
        <time>2019-10-17T12:48:58.000Z</time>
      </trkpt>
      <trkpt lat="47.27615" lon="-1.53565">
        <ele>18</ele>
        <time>2019-10-17T12:48:59.000Z</time>
      </trkpt>
      <trkpt lat="47.27611" lon="-1.53568">
        <ele>18</ele>
        <time>2019-10-17T12:49:00.000Z</time>
      </trkpt>
      <trkpt lat="47.27607" lon="-1.5357">
        <ele>17</ele>
        <time>2019-10-17T12:49:01.000Z</time>
      </trkpt>
      <trkpt lat="47.27603" lon="-1.53573">
        <ele>17</ele>
        <time>2019-10-17T12:49:02.000Z</time>
      </trkpt>
      <trkpt lat="47.276" lon="-1.53577">
        <ele>17</ele>
        <time>2019-10-17T12:49:03.000Z</time>
      </trkpt>
      <trkpt lat="47.27597" lon="-1.53581">
        <ele>17</ele>
        <time>2019-10-17T12:49:04.000Z</time>
      </trkpt>
      <trkpt lat="47.27593" lon="-1.53584">
        <ele>17</ele>
        <time>2019-10-17T12:49:05.000Z</time>
      </trkpt>
      <trkpt lat="47.2759" lon="-1.53588">
        <ele>17</ele>
        <time>2019-10-17T12:49:06.000Z</time>
      </trkpt>
      <trkpt lat="47.27586" lon="-1.53592">
        <ele>17</ele>
        <time>2019-10-17T12:49:07.000Z</time>
      </trkpt>
      <trkpt lat="47.27582" lon="-1.53596">
        <ele>17</ele>
        <time>2019-10-17T12:49:08.000Z</time>
      </trkpt>
      <trkpt lat="47.27578" lon="-1.53599">
        <ele>17</ele>
        <time>2019-10-17T12:49:09.000Z</time>
      </trkpt>
      <trkpt lat="47.27574" lon="-1.53602">
        <ele>17</ele>
        <time>2019-10-17T12:49:10.000Z</time>
      </trkpt>
      <trkpt lat="47.2757" lon="-1.53604">
        <ele>17</ele>
        <time>2019-10-17T12:49:11.000Z</time>
      </trkpt>
      <trkpt lat="47.27566" lon="-1.53607">
        <ele>17</ele>
        <time>2019-10-17T12:49:12.000Z</time>
      </trkpt>
      <trkpt lat="47.27562" lon="-1.5361">
        <ele>17</ele>
        <time>2019-10-17T12:49:13.000Z</time>
      </trkpt>
      <trkpt lat="47.27558" lon="-1.53612">
        <ele>17</ele>
        <time>2019-10-17T12:49:14.000Z</time>
      </trkpt>
      <trkpt lat="47.27555" lon="-1.53615">
        <ele>17</ele>
        <time>2019-10-17T12:49:15.000Z</time>
      </trkpt>
      <trkpt lat="47.27552" lon="-1.53619">
        <ele>18</ele>
        <time>2019-10-17T12:49:16.000Z</time>
      </trkpt>
      <trkpt lat="47.27549" lon="-1.53624">
        <ele>18</ele>
        <time>2019-10-17T12:49:17.000Z</time>
      </trkpt>
      <trkpt lat="47.27548" lon="-1.53628">
        <ele>18</ele>
        <time>2019-10-17T12:49:18.000Z</time>
      </trkpt>
      <trkpt lat="47.27548" lon="-1.53632">
        <ele>18</ele>
        <time>2019-10-17T12:49:19.000Z</time>
      </trkpt>
      <trkpt lat="47.27548" lon="-1.53636">
        <ele>18</ele>
        <time>2019-10-17T12:49:20.000Z</time>
      </trkpt>
      <trkpt lat="47.2755" lon="-1.53638">
        <ele>18</ele>
        <time>2019-10-17T12:49:21.000Z</time>
      </trkpt>
      <trkpt lat="47.27553" lon="-1.53639">
        <ele>18</ele>
        <time>2019-10-17T12:49:22.000Z</time>
      </trkpt>
      <trkpt lat="47.27555" lon="-1.53638">
        <ele>19</ele>
        <time>2019-10-17T12:49:23.000Z</time>
      </trkpt>
      <trkpt lat="47.27556" lon="-1.53636">
        <ele>19</ele>
        <time>2019-10-17T12:49:24.000Z</time>
      </trkpt>
      <trkpt lat="47.27557" lon="-1.53635">
        <ele>19</ele>
        <time>2019-10-17T12:49:25.000Z</time>
      </trkpt>
      <trkpt lat="47.27559" lon="-1.53633">
        <ele>19</ele>
        <time>2019-10-17T12:49:26.000Z</time>
      </trkpt>
      <trkpt lat="47.2756" lon="-1.53632">
        <ele>19</ele>
        <time>2019-10-17T12:49:27.000Z</time>
      </trkpt>
      <trkpt lat="47.2756" lon="-1.53632">
        <ele>19</ele>
        <time>2019-10-17T12:49:28.000Z</time>
      </trkpt>
      <trkpt lat="47.27561" lon="-1.53633">
        <ele>19</ele>
        <time>2019-10-17T12:49:29.000Z</time>
      </trkpt>
      <trkpt lat="47.27562" lon="-1.53633">
        <ele>19</ele>
        <time>2019-10-17T12:49:30.000Z</time>
      </trkpt>
      <trkpt lat="47.27563" lon="-1.53634">
        <ele>19</ele>
        <time>2019-10-17T12:49:31.000Z</time>
      </trkpt>
      <trkpt lat="47.27564" lon="-1.53635">
        <ele>19</ele>
        <time>2019-10-17T12:49:32.000Z</time>
      </trkpt>
      <trkpt lat="47.27585" lon="-1.53622">
        <ele>17</ele>
        <time>2019-10-17T12:49:33.000Z</time>
      </trkpt>
      <trkpt lat="47.27587" lon="-1.5362">
        <ele>17</ele>
        <time>2019-10-17T12:49:34.000Z</time>
      </trkpt>
      <trkpt lat="47.27589" lon="-1.53617">
        <ele>17</ele>
        <time>2019-10-17T12:49:35.000Z</time>
      </trkpt>
      <trkpt lat="47.27592" lon="-1.53614">
        <ele>17</ele>
        <time>2019-10-17T12:49:36.000Z</time>
      </trkpt>
      <trkpt lat="47.27594" lon="-1.5361">
        <ele>17</ele>
        <time>2019-10-17T12:49:37.000Z</time>
      </trkpt>
      <trkpt lat="47.27597" lon="-1.53607">
        <ele>17</ele>
        <time>2019-10-17T12:49:38.000Z</time>
      </trkpt>
      <trkpt lat="47.27599" lon="-1.53604">
        <ele>16</ele>
        <time>2019-10-17T12:49:39.000Z</time>
      </trkpt>
      <trkpt lat="47.27601" lon="-1.53601">
        <ele>16</ele>
        <time>2019-10-17T12:49:40.000Z</time>
      </trkpt>
      <trkpt lat="47.27605" lon="-1.53599">
        <ele>16</ele>
        <time>2019-10-17T12:49:41.000Z</time>
      </trkpt>
      <trkpt lat="47.2761" lon="-1.53598">
        <ele>16</ele>
        <time>2019-10-17T12:49:42.000Z</time>
      </trkpt>
      <trkpt lat="47.27614" lon="-1.53596">
        <ele>16</ele>
        <time>2019-10-17T12:49:43.000Z</time>
      </trkpt>
      <trkpt lat="47.27619" lon="-1.53593">
        <ele>16</ele>
        <time>2019-10-17T12:49:44.000Z</time>
      </trkpt>
      <trkpt lat="47.27623" lon="-1.53591">
        <ele>16</ele>
        <time>2019-10-17T12:49:45.000Z</time>
      </trkpt>
      <trkpt lat="47.27626" lon="-1.53589">
        <ele>16</ele>
        <time>2019-10-17T12:49:46.000Z</time>
      </trkpt>
      <trkpt lat="47.27629" lon="-1.53586">
        <ele>16</ele>
        <time>2019-10-17T12:49:47.000Z</time>
      </trkpt>
      <trkpt lat="47.27632" lon="-1.53583">
        <ele>15</ele>
        <time>2019-10-17T12:49:48.000Z</time>
      </trkpt>
      <trkpt lat="47.27634" lon="-1.5358">
        <ele>15</ele>
        <time>2019-10-17T12:49:49.000Z</time>
      </trkpt>
      <trkpt lat="47.27636" lon="-1.53577">
        <ele>15</ele>
        <time>2019-10-17T12:49:50.000Z</time>
      </trkpt>
      <trkpt lat="47.2764" lon="-1.53574">
        <ele>15</ele>
        <time>2019-10-17T12:49:51.000Z</time>
      </trkpt>
      <trkpt lat="47.27643" lon="-1.5357">
        <ele>15</ele>
        <time>2019-10-17T12:49:52.000Z</time>
      </trkpt>
      <trkpt lat="47.27647" lon="-1.53566">
        <ele>15</ele>
        <time>2019-10-17T12:49:53.000Z</time>
      </trkpt>
      <trkpt lat="47.27651" lon="-1.53563">
        <ele>14</ele>
        <time>2019-10-17T12:49:54.000Z</time>
      </trkpt>
      <trkpt lat="47.27655" lon="-1.5356">
        <ele>14</ele>
        <time>2019-10-17T12:49:55.000Z</time>
      </trkpt>
      <trkpt lat="47.27658" lon="-1.53557">
        <ele>14</ele>
        <time>2019-10-17T12:49:56.000Z</time>
      </trkpt>
      <trkpt lat="47.27661" lon="-1.53554">
        <ele>14</ele>
        <time>2019-10-17T12:49:57.000Z</time>
      </trkpt>
      <trkpt lat="47.27664" lon="-1.53551">
        <ele>14</ele>
        <time>2019-10-17T12:49:58.000Z</time>
      </trkpt>
      <trkpt lat="47.27666" lon="-1.53549">
        <ele>13</ele>
        <time>2019-10-17T12:49:59.000Z</time>
      </trkpt>
      <trkpt lat="47.27668" lon="-1.53547">
        <ele>13</ele>
        <time>2019-10-17T12:50:00.000Z</time>
      </trkpt>
      <trkpt lat="47.2767" lon="-1.53547">
        <ele>13</ele>
        <time>2019-10-17T12:50:01.000Z</time>
      </trkpt>
      <trkpt lat="47.27672" lon="-1.53545">
        <ele>13</ele>
        <time>2019-10-17T12:50:02.000Z</time>
      </trkpt>
      <trkpt lat="47.27674" lon="-1.53543">
        <ele>13</ele>
        <time>2019-10-17T12:50:03.000Z</time>
      </trkpt>
      <trkpt lat="47.27676" lon="-1.5354">
        <ele>13</ele>
        <time>2019-10-17T12:50:04.000Z</time>
      </trkpt>
      <trkpt lat="47.27678" lon="-1.53537">
        <ele>12</ele>
        <time>2019-10-17T12:50:05.000Z</time>
      </trkpt>
      <trkpt lat="47.27681" lon="-1.53533">
        <ele>12</ele>
        <time>2019-10-17T12:50:06.000Z</time>
      </trkpt>
      <trkpt lat="47.27684" lon="-1.5353">
        <ele>12</ele>
        <time>2019-10-17T12:50:07.000Z</time>
      </trkpt>
      <trkpt lat="47.27687" lon="-1.53527">
        <ele>12</ele>
        <time>2019-10-17T12:50:08.000Z</time>
      </trkpt>
      <trkpt lat="47.27691" lon="-1.53523">
        <ele>11</ele>
        <time>2019-10-17T12:50:09.000Z</time>
      </trkpt>
      <trkpt lat="47.27695" lon="-1.5352">
        <ele>11</ele>
        <time>2019-10-17T12:50:10.000Z</time>
      </trkpt>
      <trkpt lat="47.27699" lon="-1.53516">
        <ele>11</ele>
        <time>2019-10-17T12:50:11.000Z</time>
      </trkpt>
      <trkpt lat="47.27703" lon="-1.53512">
        <ele>11</ele>
        <time>2019-10-17T12:50:12.000Z</time>
      </trkpt>
      <trkpt lat="47.27706" lon="-1.53509">
        <ele>11</ele>
        <time>2019-10-17T12:50:13.000Z</time>
      </trkpt>
      <trkpt lat="47.27708" lon="-1.53506">
        <ele>11</ele>
        <time>2019-10-17T12:50:14.000Z</time>
      </trkpt>
      <trkpt lat="47.27711" lon="-1.53503">
        <ele>11</ele>
        <time>2019-10-17T12:50:15.000Z</time>
      </trkpt>
      <trkpt lat="47.27713" lon="-1.535">
        <ele>10</ele>
        <time>2019-10-17T12:50:16.000Z</time>
      </trkpt>
      <trkpt lat="47.27716" lon="-1.53497">
        <ele>10</ele>
        <time>2019-10-17T12:50:17.000Z</time>
      </trkpt>
      <trkpt lat="47.27719" lon="-1.53493">
        <ele>10</ele>
        <time>2019-10-17T12:50:18.000Z</time>
      </trkpt>
      <trkpt lat="47.27721" lon="-1.53489">
        <ele>10</ele>
        <time>2019-10-17T12:50:19.000Z</time>
      </trkpt>
      <trkpt lat="47.27723" lon="-1.53486">
        <ele>10</ele>
        <time>2019-10-17T12:50:20.000Z</time>
      </trkpt>
      <trkpt lat="47.27725" lon="-1.53483">
        <ele>10</ele>
        <time>2019-10-17T12:50:21.000Z</time>
      </trkpt>
      <trkpt lat="47.27728" lon="-1.53479">
        <ele>10</ele>
        <time>2019-10-17T12:50:22.000Z</time>
      </trkpt>
      <trkpt lat="47.2773" lon="-1.53476">
        <ele>10</ele>
        <time>2019-10-17T12:50:23.000Z</time>
      </trkpt>
      <trkpt lat="47.27732" lon="-1.53473">
        <ele>9</ele>
        <time>2019-10-17T12:50:24.000Z</time>
      </trkpt>
      <trkpt lat="47.27734" lon="-1.53469">
        <ele>9</ele>
        <time>2019-10-17T12:50:25.000Z</time>
      </trkpt>
      <trkpt lat="47.27736" lon="-1.53466">
        <ele>9</ele>
        <time>2019-10-17T12:50:26.000Z</time>
      </trkpt>
      <trkpt lat="47.27739" lon="-1.53462">
        <ele>9</ele>
        <time>2019-10-17T12:50:27.000Z</time>
      </trkpt>
      <trkpt lat="47.2774" lon="-1.53458">
        <ele>9</ele>
        <time>2019-10-17T12:50:28.000Z</time>
      </trkpt>
      <trkpt lat="47.27742" lon="-1.53455">
        <ele>9</ele>
        <time>2019-10-17T12:50:29.000Z</time>
      </trkpt>
      <trkpt lat="47.27744" lon="-1.53451">
        <ele>9</ele>
        <time>2019-10-17T12:50:30.000Z</time>
      </trkpt>
      <trkpt lat="47.27745" lon="-1.53449">
        <ele>9</ele>
        <time>2019-10-17T12:50:31.000Z</time>
      </trkpt>
      <trkpt lat="47.27745" lon="-1.53448">
        <ele>9</ele>
        <time>2019-10-17T12:50:32.000Z</time>
      </trkpt>
      <trkpt lat="47.27746" lon="-1.53447">
        <ele>8</ele>
        <time>2019-10-17T12:50:33.000Z</time>
      </trkpt>
      <trkpt lat="47.27747" lon="-1.53446">
        <ele>8</ele>
        <time>2019-10-17T12:50:34.000Z</time>
      </trkpt>
      <trkpt lat="47.27748" lon="-1.53445">
        <ele>8</ele>
        <time>2019-10-17T12:50:35.000Z</time>
      </trkpt>
      <trkpt lat="47.2775" lon="-1.53444">
        <ele>8</ele>
        <time>2019-10-17T12:50:36.000Z</time>
      </trkpt>
      <trkpt lat="47.27752" lon="-1.53443">
        <ele>8</ele>
        <time>2019-10-17T12:50:37.000Z</time>
      </trkpt>
      <trkpt lat="47.27754" lon="-1.53442">
        <ele>8</ele>
        <time>2019-10-17T12:50:38.000Z</time>
      </trkpt>
      <trkpt lat="47.27755" lon="-1.53441">
        <ele>8</ele>
        <time>2019-10-17T12:50:39.000Z</time>
      </trkpt>
      <trkpt lat="47.27756" lon="-1.53439">
        <ele>8</ele>
        <time>2019-10-17T12:50:40.000Z</time>
      </trkpt>
      <trkpt lat="47.27757" lon="-1.53437">
        <ele>7</ele>
        <time>2019-10-17T12:50:41.000Z</time>
      </trkpt>
      <trkpt lat="47.27758" lon="-1.53436">
        <ele>7</ele>
        <time>2019-10-17T12:50:42.000Z</time>
      </trkpt>
      <trkpt lat="47.27759" lon="-1.53435">
        <ele>7</ele>
        <time>2019-10-17T12:50:43.000Z</time>
      </trkpt>
      <trkpt lat="47.27759" lon="-1.53435">
        <ele>7</ele>
        <time>2019-10-17T12:50:44.000Z</time>
      </trkpt>
      <trkpt lat="47.2776" lon="-1.53434">
        <ele>7</ele>
        <time>2019-10-17T12:50:45.000Z</time>
      </trkpt>
      <trkpt lat="47.2776" lon="-1.53434">
        <ele>7</ele>
        <time>2019-10-17T12:50:46.000Z</time>
      </trkpt>
      <trkpt lat="47.27768" lon="-1.53431">
        <ele>6</ele>
        <time>2019-10-17T12:50:47.000Z</time>
      </trkpt>
      <trkpt lat="47.27769" lon="-1.5343">
        <ele>6</ele>
        <time>2019-10-17T12:50:48.000Z</time>
      </trkpt>
      <trkpt lat="47.27769" lon="-1.53429">
        <ele>6</ele>
        <time>2019-10-17T12:50:49.000Z</time>
      </trkpt>
      <trkpt lat="47.2777" lon="-1.53428">
        <ele>6</ele>
        <time>2019-10-17T12:50:50.000Z</time>
      </trkpt>
      <trkpt lat="47.27771" lon="-1.53427">
        <ele>6</ele>
        <time>2019-10-17T12:50:51.000Z</time>
      </trkpt>
      <trkpt lat="47.27772" lon="-1.53426">
        <ele>6</ele>
        <time>2019-10-17T12:50:52.000Z</time>
      </trkpt>
      <trkpt lat="47.27774" lon="-1.53426">
        <ele>6</ele>
        <time>2019-10-17T12:50:53.000Z</time>
      </trkpt>
      <trkpt lat="47.27777" lon="-1.53426">
        <ele>6</ele>
        <time>2019-10-17T12:50:54.000Z</time>
      </trkpt>
      <trkpt lat="47.27779" lon="-1.53427">
        <ele>6</ele>
        <time>2019-10-17T12:50:55.000Z</time>
      </trkpt>
      <trkpt lat="47.27782" lon="-1.5343">
        <ele>6</ele>
        <time>2019-10-17T12:50:56.000Z</time>
      </trkpt>
      <trkpt lat="47.27784" lon="-1.53434">
        <ele>6</ele>
        <time>2019-10-17T12:50:57.000Z</time>
      </trkpt>
      <trkpt lat="47.27786" lon="-1.53438">
        <ele>7</ele>
        <time>2019-10-17T12:50:58.000Z</time>
      </trkpt>
      <trkpt lat="47.27788" lon="-1.53442">
        <ele>7</ele>
        <time>2019-10-17T12:50:59.000Z</time>
      </trkpt>
      <trkpt lat="47.27789" lon="-1.53447">
        <ele>7</ele>
        <time>2019-10-17T12:51:00.000Z</time>
      </trkpt>
      <trkpt lat="47.27791" lon="-1.53451">
        <ele>7</ele>
        <time>2019-10-17T12:51:01.000Z</time>
      </trkpt>
      <trkpt lat="47.27793" lon="-1.53456">
        <ele>7</ele>
        <time>2019-10-17T12:51:02.000Z</time>
      </trkpt>
      <trkpt lat="47.27794" lon="-1.5346">
        <ele>7</ele>
        <time>2019-10-17T12:51:03.000Z</time>
      </trkpt>
      <trkpt lat="47.27796" lon="-1.53465">
        <ele>7</ele>
        <time>2019-10-17T12:51:04.000Z</time>
      </trkpt>
      <trkpt lat="47.27797" lon="-1.5347">
        <ele>7</ele>
        <time>2019-10-17T12:51:05.000Z</time>
      </trkpt>
      <trkpt lat="47.27798" lon="-1.53475">
        <ele>7</ele>
        <time>2019-10-17T12:51:06.000Z</time>
      </trkpt>
      <trkpt lat="47.27799" lon="-1.5348">
        <ele>8</ele>
        <time>2019-10-17T12:51:07.000Z</time>
      </trkpt>
      <trkpt lat="47.27799" lon="-1.5348">
        <ele>8</ele>
        <time>2019-10-17T12:51:09.000Z</time>
      </trkpt>
      <trkpt lat="47.27799" lon="-1.5348">
        <ele>8</ele>
        <time>2019-10-17T12:51:10.000Z</time>
      </trkpt>
      <trkpt lat="47.27803" lon="-1.53501">
        <ele>8</ele>
        <time>2019-10-17T12:51:11.000Z</time>
      </trkpt>
      <trkpt lat="47.27803" lon="-1.53506">
        <ele>8</ele>
        <time>2019-10-17T12:51:12.000Z</time>
      </trkpt>
      <trkpt lat="47.27804" lon="-1.5351">
        <ele>8</ele>
        <time>2019-10-17T12:51:13.000Z</time>
      </trkpt>
      <trkpt lat="47.27804" lon="-1.53515">
        <ele>8</ele>
        <time>2019-10-17T12:51:14.000Z</time>
      </trkpt>
      <trkpt lat="47.27802" lon="-1.53519">
        <ele>8</ele>
        <time>2019-10-17T12:51:15.000Z</time>
      </trkpt>
      <trkpt lat="47.27801" lon="-1.53523">
        <ele>8</ele>
        <time>2019-10-17T12:51:16.000Z</time>
      </trkpt>
      <trkpt lat="47.27801" lon="-1.53528">
        <ele>8</ele>
        <time>2019-10-17T12:51:17.000Z</time>
      </trkpt>
      <trkpt lat="47.278" lon="-1.53533">
        <ele>8</ele>
        <time>2019-10-17T12:51:18.000Z</time>
      </trkpt>
      <trkpt lat="47.27799" lon="-1.53538">
        <ele>8</ele>
        <time>2019-10-17T12:51:19.000Z</time>
      </trkpt>
      <trkpt lat="47.278" lon="-1.53544">
        <ele>8</ele>
        <time>2019-10-17T12:51:20.000Z</time>
      </trkpt>
      <trkpt lat="47.27801" lon="-1.5355">
        <ele>8</ele>
        <time>2019-10-17T12:51:21.000Z</time>
      </trkpt>
      <trkpt lat="47.27802" lon="-1.53557">
        <ele>8</ele>
        <time>2019-10-17T12:51:22.000Z</time>
      </trkpt>
      <trkpt lat="47.27804" lon="-1.53564">
        <ele>8</ele>
        <time>2019-10-17T12:51:23.000Z</time>
      </trkpt>
      <trkpt lat="47.27805" lon="-1.5357">
        <ele>8</ele>
        <time>2019-10-17T12:51:24.000Z</time>
      </trkpt>
      <trkpt lat="47.27805" lon="-1.53576">
        <ele>8</ele>
        <time>2019-10-17T12:51:25.000Z</time>
      </trkpt>
      <trkpt lat="47.27806" lon="-1.53583">
        <ele>8</ele>
        <time>2019-10-17T12:51:26.000Z</time>
      </trkpt>
      <trkpt lat="47.27807" lon="-1.53589">
        <ele>8</ele>
        <time>2019-10-17T12:51:27.000Z</time>
      </trkpt>
      <trkpt lat="47.27809" lon="-1.53595">
        <ele>8</ele>
        <time>2019-10-17T12:51:28.000Z</time>
      </trkpt>
      <trkpt lat="47.2781" lon="-1.53602">
        <ele>7</ele>
        <time>2019-10-17T12:51:29.000Z</time>
      </trkpt>
      <trkpt lat="47.27811" lon="-1.53608">
        <ele>7</ele>
        <time>2019-10-17T12:51:30.000Z</time>
      </trkpt>
      <trkpt lat="47.27811" lon="-1.53608">
        <ele>7</ele>
        <time>2019-10-17T12:51:32.000Z</time>
      </trkpt>
      <trkpt lat="47.27811" lon="-1.53608">
        <ele>7</ele>
        <time>2019-10-17T12:51:33.000Z</time>
      </trkpt>
      <trkpt lat="47.27815" lon="-1.53638">
        <ele>7</ele>
        <time>2019-10-17T12:51:34.000Z</time>
      </trkpt>
      <trkpt lat="47.27815" lon="-1.53646">
        <ele>7</ele>
        <time>2019-10-17T12:51:35.000Z</time>
      </trkpt>
      <trkpt lat="47.27815" lon="-1.53654">
        <ele>8</ele>
        <time>2019-10-17T12:51:36.000Z</time>
      </trkpt>
      <trkpt lat="47.27814" lon="-1.53662">
        <ele>8</ele>
        <time>2019-10-17T12:51:37.000Z</time>
      </trkpt>
      <trkpt lat="47.27812" lon="-1.53669">
        <ele>8</ele>
        <time>2019-10-17T12:51:38.000Z</time>
      </trkpt>
      <trkpt lat="47.27811" lon="-1.53676">
        <ele>9</ele>
        <time>2019-10-17T12:51:39.000Z</time>
      </trkpt>
      <trkpt lat="47.2781" lon="-1.53684">
        <ele>9</ele>
        <time>2019-10-17T12:51:40.000Z</time>
      </trkpt>
      <trkpt lat="47.27811" lon="-1.53692">
        <ele>9</ele>
        <time>2019-10-17T12:51:41.000Z</time>
      </trkpt>
      <trkpt lat="47.27812" lon="-1.537">
        <ele>9</ele>
        <time>2019-10-17T12:51:42.000Z</time>
      </trkpt>
      <trkpt lat="47.27812" lon="-1.53707">
        <ele>10</ele>
        <time>2019-10-17T12:51:43.000Z</time>
      </trkpt>
      <trkpt lat="47.27813" lon="-1.53713">
        <ele>10</ele>
        <time>2019-10-17T12:51:44.000Z</time>
      </trkpt>
      <trkpt lat="47.27813" lon="-1.53719">
        <ele>10</ele>
        <time>2019-10-17T12:51:45.000Z</time>
      </trkpt>
      <trkpt lat="47.27813" lon="-1.53725">
        <ele>10</ele>
        <time>2019-10-17T12:51:46.000Z</time>
      </trkpt>
      <trkpt lat="47.27811" lon="-1.53732">
        <ele>10</ele>
        <time>2019-10-17T12:51:47.000Z</time>
      </trkpt>
      <trkpt lat="47.27809" lon="-1.5374">
        <ele>11</ele>
        <time>2019-10-17T12:51:48.000Z</time>
      </trkpt>
      <trkpt lat="47.27805" lon="-1.53749">
        <ele>11</ele>
        <time>2019-10-17T12:51:49.000Z</time>
      </trkpt>
      <trkpt lat="47.27803" lon="-1.53758">
        <ele>11</ele>
        <time>2019-10-17T12:51:50.000Z</time>
      </trkpt>
      <trkpt lat="47.27802" lon="-1.53768">
        <ele>11</ele>
        <time>2019-10-17T12:51:51.000Z</time>
      </trkpt>
      <trkpt lat="47.27801" lon="-1.53776">
        <ele>11</ele>
        <time>2019-10-17T12:51:52.000Z</time>
      </trkpt>
      <trkpt lat="47.27799" lon="-1.53782">
        <ele>12</ele>
        <time>2019-10-17T12:51:53.000Z</time>
      </trkpt>
      <trkpt lat="47.27798" lon="-1.53787">
        <ele>12</ele>
        <time>2019-10-17T12:51:54.000Z</time>
      </trkpt>
      <trkpt lat="47.27796" lon="-1.53793">
        <ele>12</ele>
        <time>2019-10-17T12:51:55.000Z</time>
      </trkpt>
      <trkpt lat="47.27795" lon="-1.53798">
        <ele>13</ele>
        <time>2019-10-17T12:51:56.000Z</time>
      </trkpt>
      <trkpt lat="47.27793" lon="-1.53804">
        <ele>13</ele>
        <time>2019-10-17T12:51:57.000Z</time>
      </trkpt>
      <trkpt lat="47.27792" lon="-1.53809">
        <ele>13</ele>
        <time>2019-10-17T12:51:58.000Z</time>
      </trkpt>
      <trkpt lat="47.27791" lon="-1.53815">
        <ele>13</ele>
        <time>2019-10-17T12:51:59.000Z</time>
      </trkpt>
      <trkpt lat="47.2779" lon="-1.53819">
        <ele>13</ele>
        <time>2019-10-17T12:52:00.000Z</time>
      </trkpt>
      <trkpt lat="47.2779" lon="-1.53823">
        <ele>13</ele>
        <time>2019-10-17T12:52:01.000Z</time>
      </trkpt>
      <trkpt lat="47.27789" lon="-1.53826">
        <ele>13</ele>
        <time>2019-10-17T12:52:02.000Z</time>
      </trkpt>
      <trkpt lat="47.27788" lon="-1.53831">
        <ele>13</ele>
        <time>2019-10-17T12:52:03.000Z</time>
      </trkpt>
      <trkpt lat="47.27787" lon="-1.53835">
        <ele>13</ele>
        <time>2019-10-17T12:52:04.000Z</time>
      </trkpt>
      <trkpt lat="47.27785" lon="-1.53839">
        <ele>13</ele>
        <time>2019-10-17T12:52:05.000Z</time>
      </trkpt>
      <trkpt lat="47.27784" lon="-1.53843">
        <ele>13</ele>
        <time>2019-10-17T12:52:06.000Z</time>
      </trkpt>
      <trkpt lat="47.27782" lon="-1.53848">
        <ele>13</ele>
        <time>2019-10-17T12:52:07.000Z</time>
      </trkpt>
      <trkpt lat="47.27781" lon="-1.53854">
        <ele>13</ele>
        <time>2019-10-17T12:52:08.000Z</time>
      </trkpt>
      <trkpt lat="47.2778" lon="-1.53859">
        <ele>14</ele>
        <time>2019-10-17T12:52:09.000Z</time>
      </trkpt>
      <trkpt lat="47.27779" lon="-1.53863">
        <ele>14</ele>
        <time>2019-10-17T12:52:10.000Z</time>
      </trkpt>
      <trkpt lat="47.27777" lon="-1.53869">
        <ele>14</ele>
        <time>2019-10-17T12:52:11.000Z</time>
      </trkpt>
      <trkpt lat="47.27776" lon="-1.53874">
        <ele>14</ele>
        <time>2019-10-17T12:52:12.000Z</time>
      </trkpt>
      <trkpt lat="47.27776" lon="-1.53879">
        <ele>14</ele>
        <time>2019-10-17T12:52:13.000Z</time>
      </trkpt>
      <trkpt lat="47.27776" lon="-1.53885">
        <ele>14</ele>
        <time>2019-10-17T12:52:14.000Z</time>
      </trkpt>
      <trkpt lat="47.27776" lon="-1.53892">
        <ele>14</ele>
        <time>2019-10-17T12:52:15.000Z</time>
      </trkpt>
      <trkpt lat="47.27776" lon="-1.53899">
        <ele>14</ele>
        <time>2019-10-17T12:52:16.000Z</time>
      </trkpt>
      <trkpt lat="47.27777" lon="-1.53907">
        <ele>14</ele>
        <time>2019-10-17T12:52:17.000Z</time>
      </trkpt>
      <trkpt lat="47.27777" lon="-1.53913">
        <ele>14</ele>
        <time>2019-10-17T12:52:18.000Z</time>
      </trkpt>
      <trkpt lat="47.27778" lon="-1.53919">
        <ele>15</ele>
        <time>2019-10-17T12:52:19.000Z</time>
      </trkpt>
      <trkpt lat="47.27778" lon="-1.53925">
        <ele>15</ele>
        <time>2019-10-17T12:52:20.000Z</time>
      </trkpt>
      <trkpt lat="47.27778" lon="-1.53932">
        <ele>15</ele>
        <time>2019-10-17T12:52:21.000Z</time>
      </trkpt>
      <trkpt lat="47.27778" lon="-1.53939">
        <ele>15</ele>
        <time>2019-10-17T12:52:22.000Z</time>
      </trkpt>
      <trkpt lat="47.27777" lon="-1.53945">
        <ele>15</ele>
        <time>2019-10-17T12:52:23.000Z</time>
      </trkpt>
      <trkpt lat="47.27777" lon="-1.53951">
        <ele>15</ele>
        <time>2019-10-17T12:52:24.000Z</time>
      </trkpt>
      <trkpt lat="47.27778" lon="-1.53958">
        <ele>15</ele>
        <time>2019-10-17T12:52:25.000Z</time>
      </trkpt>
      <trkpt lat="47.2778" lon="-1.53965">
        <ele>15</ele>
        <time>2019-10-17T12:52:26.000Z</time>
      </trkpt>
      <trkpt lat="47.27783" lon="-1.53972">
        <ele>15</ele>
        <time>2019-10-17T12:52:27.000Z</time>
      </trkpt>
      <trkpt lat="47.27785" lon="-1.53978">
        <ele>15</ele>
        <time>2019-10-17T12:52:28.000Z</time>
      </trkpt>
      <trkpt lat="47.27787" lon="-1.53983">
        <ele>15</ele>
        <time>2019-10-17T12:52:29.000Z</time>
      </trkpt>
      <trkpt lat="47.27789" lon="-1.53988">
        <ele>15</ele>
        <time>2019-10-17T12:52:30.000Z</time>
      </trkpt>
      <trkpt lat="47.27791" lon="-1.53994">
        <ele>16</ele>
        <time>2019-10-17T12:52:31.000Z</time>
      </trkpt>
      <trkpt lat="47.27792" lon="-1.54">
        <ele>16</ele>
        <time>2019-10-17T12:52:32.000Z</time>
      </trkpt>
      <trkpt lat="47.27793" lon="-1.54005">
        <ele>16</ele>
        <time>2019-10-17T12:52:33.000Z</time>
      </trkpt>
      <trkpt lat="47.27792" lon="-1.5401">
        <ele>16</ele>
        <time>2019-10-17T12:52:34.000Z</time>
      </trkpt>
      <trkpt lat="47.27791" lon="-1.54016">
        <ele>16</ele>
        <time>2019-10-17T12:52:35.000Z</time>
      </trkpt>
      <trkpt lat="47.27791" lon="-1.54022">
        <ele>16</ele>
        <time>2019-10-17T12:52:36.000Z</time>
      </trkpt>
      <trkpt lat="47.27792" lon="-1.54029">
        <ele>16</ele>
        <time>2019-10-17T12:52:37.000Z</time>
      </trkpt>
      <trkpt lat="47.27791" lon="-1.54036">
        <ele>16</ele>
        <time>2019-10-17T12:52:38.000Z</time>
      </trkpt>
      <trkpt lat="47.2779" lon="-1.54044">
        <ele>16</ele>
        <time>2019-10-17T12:52:39.000Z</time>
      </trkpt>
      <trkpt lat="47.2779" lon="-1.54044">
        <ele>16</ele>
        <time>2019-10-17T12:52:41.000Z</time>
      </trkpt>
      <trkpt lat="47.2779" lon="-1.54044">
        <ele>16</ele>
        <time>2019-10-17T12:52:42.000Z</time>
      </trkpt>
      <trkpt lat="47.27785" lon="-1.54071">
        <ele>16</ele>
        <time>2019-10-17T12:52:43.000Z</time>
      </trkpt>
      <trkpt lat="47.27783" lon="-1.54078">
        <ele>15</ele>
        <time>2019-10-17T12:52:44.000Z</time>
      </trkpt>
      <trkpt lat="47.27783" lon="-1.54085">
        <ele>15</ele>
        <time>2019-10-17T12:52:45.000Z</time>
      </trkpt>
      <trkpt lat="47.27783" lon="-1.54093">
        <ele>15</ele>
        <time>2019-10-17T12:52:46.000Z</time>
      </trkpt>
      <trkpt lat="47.27784" lon="-1.54101">
        <ele>15</ele>
        <time>2019-10-17T12:52:47.000Z</time>
      </trkpt>
      <trkpt lat="47.27783" lon="-1.54109">
        <ele>15</ele>
        <time>2019-10-17T12:52:48.000Z</time>
      </trkpt>
      <trkpt lat="47.27782" lon="-1.54116">
        <ele>14</ele>
        <time>2019-10-17T12:52:49.000Z</time>
      </trkpt>
      <trkpt lat="47.27781" lon="-1.54123">
        <ele>14</ele>
        <time>2019-10-17T12:52:50.000Z</time>
      </trkpt>
      <trkpt lat="47.2778" lon="-1.54131">
        <ele>14</ele>
        <time>2019-10-17T12:52:51.000Z</time>
      </trkpt>
      <trkpt lat="47.27779" lon="-1.54138">
        <ele>14</ele>
        <time>2019-10-17T12:52:52.000Z</time>
      </trkpt>
      <trkpt lat="47.27777" lon="-1.54145">
        <ele>14</ele>
        <time>2019-10-17T12:52:53.000Z</time>
      </trkpt>
      <trkpt lat="47.27776" lon="-1.54152">
        <ele>15</ele>
        <time>2019-10-17T12:52:54.000Z</time>
      </trkpt>
      <trkpt lat="47.27775" lon="-1.54158">
        <ele>15</ele>
        <time>2019-10-17T12:52:55.000Z</time>
      </trkpt>
      <trkpt lat="47.27773" lon="-1.54164">
        <ele>15</ele>
        <time>2019-10-17T12:52:56.000Z</time>
      </trkpt>
      <trkpt lat="47.27773" lon="-1.54168">
        <ele>14</ele>
        <time>2019-10-17T12:52:57.000Z</time>
      </trkpt>
      <trkpt lat="47.27774" lon="-1.54171">
        <ele>15</ele>
        <time>2019-10-17T12:52:58.000Z</time>
      </trkpt>
      <trkpt lat="47.27777" lon="-1.54175">
        <ele>15</ele>
        <time>2019-10-17T12:52:59.000Z</time>
      </trkpt>
      <trkpt lat="47.27781" lon="-1.54179">
        <ele>14</ele>
        <time>2019-10-17T12:53:00.000Z</time>
      </trkpt>
      <trkpt lat="47.27784" lon="-1.54182">
        <ele>14</ele>
        <time>2019-10-17T12:53:01.000Z</time>
      </trkpt>
      <trkpt lat="47.27787" lon="-1.54184">
        <ele>14</ele>
        <time>2019-10-17T12:53:02.000Z</time>
      </trkpt>
      <trkpt lat="47.2779" lon="-1.54185">
        <ele>14</ele>
        <time>2019-10-17T12:53:03.000Z</time>
      </trkpt>
      <trkpt lat="47.27792" lon="-1.54186">
        <ele>14</ele>
        <time>2019-10-17T12:53:04.000Z</time>
      </trkpt>
      <trkpt lat="47.27795" lon="-1.54187">
        <ele>15</ele>
        <time>2019-10-17T12:53:05.000Z</time>
      </trkpt>
      <trkpt lat="47.27799" lon="-1.54188">
        <ele>15</ele>
        <time>2019-10-17T12:53:06.000Z</time>
      </trkpt>
      <trkpt lat="47.27802" lon="-1.54188">
        <ele>15</ele>
        <time>2019-10-17T12:53:07.000Z</time>
      </trkpt>
      <trkpt lat="47.27804" lon="-1.54189">
        <ele>16</ele>
        <time>2019-10-17T12:53:08.000Z</time>
      </trkpt>
      <trkpt lat="47.27807" lon="-1.54189">
        <ele>16</ele>
        <time>2019-10-17T12:53:09.000Z</time>
      </trkpt>
      <trkpt lat="47.27809" lon="-1.5419">
        <ele>16</ele>
        <time>2019-10-17T12:53:10.000Z</time>
      </trkpt>
      <trkpt lat="47.27812" lon="-1.54192">
        <ele>17</ele>
        <time>2019-10-17T12:53:11.000Z</time>
      </trkpt>
      <trkpt lat="47.27815" lon="-1.54195">
        <ele>17</ele>
        <time>2019-10-17T12:53:12.000Z</time>
      </trkpt>
      <trkpt lat="47.27819" lon="-1.54199">
        <ele>17</ele>
        <time>2019-10-17T12:53:13.000Z</time>
      </trkpt>
      <trkpt lat="47.27823" lon="-1.54203">
        <ele>18</ele>
        <time>2019-10-17T12:53:14.000Z</time>
      </trkpt>
      <trkpt lat="47.27826" lon="-1.54208">
        <ele>18</ele>
        <time>2019-10-17T12:53:15.000Z</time>
      </trkpt>
      <trkpt lat="47.2783" lon="-1.54213">
        <ele>18</ele>
        <time>2019-10-17T12:53:16.000Z</time>
      </trkpt>
      <trkpt lat="47.27833" lon="-1.54218">
        <ele>18</ele>
        <time>2019-10-17T12:53:17.000Z</time>
      </trkpt>
      <trkpt lat="47.27836" lon="-1.54224">
        <ele>19</ele>
        <time>2019-10-17T12:53:18.000Z</time>
      </trkpt>
      <trkpt lat="47.27839" lon="-1.54231">
        <ele>19</ele>
        <time>2019-10-17T12:53:19.000Z</time>
      </trkpt>
      <trkpt lat="47.27842" lon="-1.54237">
        <ele>19</ele>
        <time>2019-10-17T12:53:20.000Z</time>
      </trkpt>
      <trkpt lat="47.27844" lon="-1.54244">
        <ele>19</ele>
        <time>2019-10-17T12:53:21.000Z</time>
      </trkpt>
      <trkpt lat="47.27848" lon="-1.54252">
        <ele>19</ele>
        <time>2019-10-17T12:53:22.000Z</time>
      </trkpt>
      <trkpt lat="47.27852" lon="-1.54259">
        <ele>19</ele>
        <time>2019-10-17T12:53:23.000Z</time>
      </trkpt>
      <trkpt lat="47.27856" lon="-1.54267">
        <ele>19</ele>
        <time>2019-10-17T12:53:24.000Z</time>
      </trkpt>
      <trkpt lat="47.2786" lon="-1.54276">
        <ele>19</ele>
        <time>2019-10-17T12:53:25.000Z</time>
      </trkpt>
      <trkpt lat="47.27864" lon="-1.54284">
        <ele>19</ele>
        <time>2019-10-17T12:53:26.000Z</time>
      </trkpt>
      <trkpt lat="47.27867" lon="-1.54292">
        <ele>18</ele>
        <time>2019-10-17T12:53:27.000Z</time>
      </trkpt>
      <trkpt lat="47.2787" lon="-1.54301">
        <ele>18</ele>
        <time>2019-10-17T12:53:28.000Z</time>
      </trkpt>
      <trkpt lat="47.27874" lon="-1.54308">
        <ele>18</ele>
        <time>2019-10-17T12:53:29.000Z</time>
      </trkpt>
      <trkpt lat="47.27877" lon="-1.54316">
        <ele>18</ele>
        <time>2019-10-17T12:53:30.000Z</time>
      </trkpt>
      <trkpt lat="47.2788" lon="-1.54324">
        <ele>18</ele>
        <time>2019-10-17T12:53:31.000Z</time>
      </trkpt>
      <trkpt lat="47.27883" lon="-1.54332">
        <ele>18</ele>
        <time>2019-10-17T12:53:32.000Z</time>
      </trkpt>
      <trkpt lat="47.27886" lon="-1.54341">
        <ele>18</ele>
        <time>2019-10-17T12:53:33.000Z</time>
      </trkpt>
      <trkpt lat="47.27889" lon="-1.54349">
        <ele>18</ele>
        <time>2019-10-17T12:53:34.000Z</time>
      </trkpt>
      <trkpt lat="47.27892" lon="-1.54357">
        <ele>18</ele>
        <time>2019-10-17T12:53:35.000Z</time>
      </trkpt>
      <trkpt lat="47.27895" lon="-1.54365">
        <ele>18</ele>
        <time>2019-10-17T12:53:36.000Z</time>
      </trkpt>
      <trkpt lat="47.27897" lon="-1.54372">
        <ele>17</ele>
        <time>2019-10-17T12:53:37.000Z</time>
      </trkpt>
      <trkpt lat="47.279" lon="-1.5438">
        <ele>17</ele>
        <time>2019-10-17T12:53:38.000Z</time>
      </trkpt>
      <trkpt lat="47.27902" lon="-1.54388">
        <ele>17</ele>
        <time>2019-10-17T12:53:39.000Z</time>
      </trkpt>
      <trkpt lat="47.27904" lon="-1.54396">
        <ele>17</ele>
        <time>2019-10-17T12:53:40.000Z</time>
      </trkpt>
      <trkpt lat="47.27905" lon="-1.54403">
        <ele>17</ele>
        <time>2019-10-17T12:53:41.000Z</time>
      </trkpt>
      <trkpt lat="47.27907" lon="-1.5441">
        <ele>17</ele>
        <time>2019-10-17T12:53:42.000Z</time>
      </trkpt>
      <trkpt lat="47.27909" lon="-1.54418">
        <ele>17</ele>
        <time>2019-10-17T12:53:43.000Z</time>
      </trkpt>
      <trkpt lat="47.27911" lon="-1.54426">
        <ele>17</ele>
        <time>2019-10-17T12:53:44.000Z</time>
      </trkpt>
      <trkpt lat="47.27913" lon="-1.54434">
        <ele>18</ele>
        <time>2019-10-17T12:53:45.000Z</time>
      </trkpt>
      <trkpt lat="47.27915" lon="-1.54441">
        <ele>18</ele>
        <time>2019-10-17T12:53:46.000Z</time>
      </trkpt>
      <trkpt lat="47.27917" lon="-1.54449">
        <ele>18</ele>
        <time>2019-10-17T12:53:47.000Z</time>
      </trkpt>
      <trkpt lat="47.27919" lon="-1.54456">
        <ele>18</ele>
        <time>2019-10-17T12:53:48.000Z</time>
      </trkpt>
      <trkpt lat="47.27921" lon="-1.54463">
        <ele>18</ele>
        <time>2019-10-17T12:53:49.000Z</time>
      </trkpt>
      <trkpt lat="47.27923" lon="-1.54469">
        <ele>18</ele>
        <time>2019-10-17T12:53:50.000Z</time>
      </trkpt>
      <trkpt lat="47.27925" lon="-1.54475">
        <ele>18</ele>
        <time>2019-10-17T12:53:51.000Z</time>
      </trkpt>
      <trkpt lat="47.27926" lon="-1.5448">
        <ele>18</ele>
        <time>2019-10-17T12:53:52.000Z</time>
      </trkpt>
      <trkpt lat="47.27928" lon="-1.54485">
        <ele>18</ele>
        <time>2019-10-17T12:53:53.000Z</time>
      </trkpt>
      <trkpt lat="47.2793" lon="-1.5449">
        <ele>18</ele>
        <time>2019-10-17T12:53:54.000Z</time>
      </trkpt>
      <trkpt lat="47.27932" lon="-1.54495">
        <ele>18</ele>
        <time>2019-10-17T12:53:55.000Z</time>
      </trkpt>
      <trkpt lat="47.27932" lon="-1.54499">
        <ele>19</ele>
        <time>2019-10-17T12:53:56.000Z</time>
      </trkpt>
      <trkpt lat="47.27933" lon="-1.54502">
        <ele>19</ele>
        <time>2019-10-17T12:53:57.000Z</time>
      </trkpt>
      <trkpt lat="47.27933" lon="-1.54506">
        <ele>19</ele>
        <time>2019-10-17T12:53:58.000Z</time>
      </trkpt>
      <trkpt lat="47.27932" lon="-1.5451">
        <ele>19</ele>
        <time>2019-10-17T12:53:59.000Z</time>
      </trkpt>
      <trkpt lat="47.27931" lon="-1.54512">
        <ele>20</ele>
        <time>2019-10-17T12:54:00.000Z</time>
      </trkpt>
      <trkpt lat="47.27931" lon="-1.54515">
        <ele>20</ele>
        <time>2019-10-17T12:54:01.000Z</time>
      </trkpt>
      <trkpt lat="47.27933" lon="-1.54518">
        <ele>20</ele>
        <time>2019-10-17T12:54:02.000Z</time>
      </trkpt>
      <trkpt lat="47.27934" lon="-1.54521">
        <ele>20</ele>
        <time>2019-10-17T12:54:03.000Z</time>
      </trkpt>
      <trkpt lat="47.27935" lon="-1.54525">
        <ele>21</ele>
        <time>2019-10-17T12:54:04.000Z</time>
      </trkpt>
      <trkpt lat="47.27938" lon="-1.5453">
        <ele>21</ele>
        <time>2019-10-17T12:54:05.000Z</time>
      </trkpt>
      <trkpt lat="47.27943" lon="-1.54537">
        <ele>21</ele>
        <time>2019-10-17T12:54:06.000Z</time>
      </trkpt>
      <trkpt lat="47.27948" lon="-1.54544">
        <ele>22</ele>
        <time>2019-10-17T12:54:07.000Z</time>
      </trkpt>
      <trkpt lat="47.27954" lon="-1.54551">
        <ele>22</ele>
        <time>2019-10-17T12:54:08.000Z</time>
      </trkpt>
      <trkpt lat="47.27958" lon="-1.54558">
        <ele>22</ele>
        <time>2019-10-17T12:54:09.000Z</time>
      </trkpt>
      <trkpt lat="47.27963" lon="-1.54564">
        <ele>22</ele>
        <time>2019-10-17T12:54:10.000Z</time>
      </trkpt>
      <trkpt lat="47.27966" lon="-1.54568">
        <ele>22</ele>
        <time>2019-10-17T12:54:11.000Z</time>
      </trkpt>
      <trkpt lat="47.27969" lon="-1.54573">
        <ele>22</ele>
        <time>2019-10-17T12:54:12.000Z</time>
      </trkpt>
      <trkpt lat="47.27972" lon="-1.54578">
        <ele>22</ele>
        <time>2019-10-17T12:54:13.000Z</time>
      </trkpt>
      <trkpt lat="47.27973" lon="-1.54582">
        <ele>22</ele>
        <time>2019-10-17T12:54:14.000Z</time>
      </trkpt>
      <trkpt lat="47.27974" lon="-1.54586">
        <ele>23</ele>
        <time>2019-10-17T12:54:15.000Z</time>
      </trkpt>
      <trkpt lat="47.27975" lon="-1.54591">
        <ele>23</ele>
        <time>2019-10-17T12:54:16.000Z</time>
      </trkpt>
      <trkpt lat="47.27977" lon="-1.54595">
        <ele>23</ele>
        <time>2019-10-17T12:54:17.000Z</time>
      </trkpt>
      <trkpt lat="47.2798" lon="-1.54599">
        <ele>23</ele>
        <time>2019-10-17T12:54:18.000Z</time>
      </trkpt>
      <trkpt lat="47.27982" lon="-1.54603">
        <ele>23</ele>
        <time>2019-10-17T12:54:19.000Z</time>
      </trkpt>
      <trkpt lat="47.27983" lon="-1.54606">
        <ele>23</ele>
        <time>2019-10-17T12:54:20.000Z</time>
      </trkpt>
      <trkpt lat="47.27985" lon="-1.54607">
        <ele>23</ele>
        <time>2019-10-17T12:54:21.000Z</time>
      </trkpt>
      <trkpt lat="47.27988" lon="-1.54605">
        <ele>23</ele>
        <time>2019-10-17T12:54:22.000Z</time>
      </trkpt>
      <trkpt lat="47.27991" lon="-1.54603">
        <ele>23</ele>
        <time>2019-10-17T12:54:23.000Z</time>
      </trkpt>
      <trkpt lat="47.27994" lon="-1.546">
        <ele>23</ele>
        <time>2019-10-17T12:54:24.000Z</time>
      </trkpt>
      <trkpt lat="47.27997" lon="-1.54597">
        <ele>23</ele>
        <time>2019-10-17T12:54:25.000Z</time>
      </trkpt>
      <trkpt lat="47.28001" lon="-1.54594">
        <ele>23</ele>
        <time>2019-10-17T12:54:26.000Z</time>
      </trkpt>
      <trkpt lat="47.28005" lon="-1.54591">
        <ele>23</ele>
        <time>2019-10-17T12:54:27.000Z</time>
      </trkpt>
      <trkpt lat="47.28009" lon="-1.54588">
        <ele>23</ele>
        <time>2019-10-17T12:54:28.000Z</time>
      </trkpt>
      <trkpt lat="47.28014" lon="-1.54585">
        <ele>23</ele>
        <time>2019-10-17T12:54:29.000Z</time>
      </trkpt>
      <trkpt lat="47.28019" lon="-1.54583">
        <ele>23</ele>
        <time>2019-10-17T12:54:30.000Z</time>
      </trkpt>
      <trkpt lat="47.28024" lon="-1.54581">
        <ele>23</ele>
        <time>2019-10-17T12:54:31.000Z</time>
      </trkpt>
      <trkpt lat="47.28028" lon="-1.54578">
        <ele>23</ele>
        <time>2019-10-17T12:54:32.000Z</time>
      </trkpt>
      <trkpt lat="47.28033" lon="-1.54574">
        <ele>23</ele>
        <time>2019-10-17T12:54:33.000Z</time>
      </trkpt>
      <trkpt lat="47.28037" lon="-1.5457">
        <ele>23</ele>
        <time>2019-10-17T12:54:34.000Z</time>
      </trkpt>
      <trkpt lat="47.28042" lon="-1.54566">
        <ele>23</ele>
        <time>2019-10-17T12:54:35.000Z</time>
      </trkpt>
      <trkpt lat="47.28047" lon="-1.54562">
        <ele>23</ele>
        <time>2019-10-17T12:54:36.000Z</time>
      </trkpt>
      <trkpt lat="47.28051" lon="-1.54558">
        <ele>22</ele>
        <time>2019-10-17T12:54:37.000Z</time>
      </trkpt>
      <trkpt lat="47.28055" lon="-1.54555">
        <ele>22</ele>
        <time>2019-10-17T12:54:38.000Z</time>
      </trkpt>
      <trkpt lat="47.28055" lon="-1.54555">
        <ele>22</ele>
        <time>2019-10-17T12:54:40.000Z</time>
      </trkpt>
      <trkpt lat="47.28055" lon="-1.54555">
        <ele>22</ele>
        <time>2019-10-17T12:54:41.000Z</time>
      </trkpt>
      <trkpt lat="47.28068" lon="-1.5454">
        <ele>22</ele>
        <time>2019-10-17T12:54:42.000Z</time>
      </trkpt>
      <trkpt lat="47.28072" lon="-1.54537">
        <ele>22</ele>
        <time>2019-10-17T12:54:43.000Z</time>
      </trkpt>
      <trkpt lat="47.28075" lon="-1.54534">
        <ele>22</ele>
        <time>2019-10-17T12:54:44.000Z</time>
      </trkpt>
      <trkpt lat="47.28079" lon="-1.54532">
        <ele>22</ele>
        <time>2019-10-17T12:54:45.000Z</time>
      </trkpt>
      <trkpt lat="47.28084" lon="-1.5453">
        <ele>22</ele>
        <time>2019-10-17T12:54:46.000Z</time>
      </trkpt>
      <trkpt lat="47.2809" lon="-1.54528">
        <ele>22</ele>
        <time>2019-10-17T12:54:47.000Z</time>
      </trkpt>
      <trkpt lat="47.28096" lon="-1.54526">
        <ele>23</ele>
        <time>2019-10-17T12:54:48.000Z</time>
      </trkpt>
      <trkpt lat="47.28103" lon="-1.54524">
        <ele>23</ele>
        <time>2019-10-17T12:54:49.000Z</time>
      </trkpt>
      <trkpt lat="47.28103" lon="-1.54524">
        <ele>23</ele>
        <time>2019-10-17T12:54:51.000Z</time>
      </trkpt>
      <trkpt lat="47.28103" lon="-1.54524">
        <ele>23</ele>
        <time>2019-10-17T12:54:52.000Z</time>
      </trkpt>
      <trkpt lat="47.28132" lon="-1.5452">
        <ele>23</ele>
        <time>2019-10-17T12:54:53.000Z</time>
      </trkpt>
      <trkpt lat="47.28139" lon="-1.54518">
        <ele>23</ele>
        <time>2019-10-17T12:54:54.000Z</time>
      </trkpt>
      <trkpt lat="47.28145" lon="-1.54516">
        <ele>23</ele>
        <time>2019-10-17T12:54:55.000Z</time>
      </trkpt>
      <trkpt lat="47.28145" lon="-1.54516">
        <ele>23</ele>
        <time>2019-10-17T12:54:57.000Z</time>
      </trkpt>
      <trkpt lat="47.28145" lon="-1.54516">
        <ele>23</ele>
        <time>2019-10-17T12:54:58.000Z</time>
      </trkpt>
      <trkpt lat="47.28171" lon="-1.5451">
        <ele>23</ele>
        <time>2019-10-17T12:54:59.000Z</time>
      </trkpt>
      <trkpt lat="47.28177" lon="-1.5451">
        <ele>23</ele>
        <time>2019-10-17T12:55:00.000Z</time>
      </trkpt>
      <trkpt lat="47.28182" lon="-1.54508">
        <ele>24</ele>
        <time>2019-10-17T12:55:01.000Z</time>
      </trkpt>
      <trkpt lat="47.28188" lon="-1.54506">
        <ele>24</ele>
        <time>2019-10-17T12:55:02.000Z</time>
      </trkpt>
      <trkpt lat="47.28193" lon="-1.54503">
        <ele>25</ele>
        <time>2019-10-17T12:55:03.000Z</time>
      </trkpt>
      <trkpt lat="47.28197" lon="-1.54501">
        <ele>26</ele>
        <time>2019-10-17T12:55:04.000Z</time>
      </trkpt>
      <trkpt lat="47.28202" lon="-1.545">
        <ele>27</ele>
        <time>2019-10-17T12:55:05.000Z</time>
      </trkpt>
      <trkpt lat="47.28207" lon="-1.54498">
        <ele>28</ele>
        <time>2019-10-17T12:55:06.000Z</time>
      </trkpt>
      <trkpt lat="47.28211" lon="-1.54496">
        <ele>29</ele>
        <time>2019-10-17T12:55:07.000Z</time>
      </trkpt>
      <trkpt lat="47.28217" lon="-1.54494">
        <ele>30</ele>
        <time>2019-10-17T12:55:08.000Z</time>
      </trkpt>
      <trkpt lat="47.28222" lon="-1.54491">
        <ele>30</ele>
        <time>2019-10-17T12:55:09.000Z</time>
      </trkpt>
      <trkpt lat="47.28228" lon="-1.54489">
        <ele>31</ele>
        <time>2019-10-17T12:55:10.000Z</time>
      </trkpt>
      <trkpt lat="47.28233" lon="-1.54488">
        <ele>32</ele>
        <time>2019-10-17T12:55:11.000Z</time>
      </trkpt>
      <trkpt lat="47.28239" lon="-1.54488">
        <ele>32</ele>
        <time>2019-10-17T12:55:12.000Z</time>
      </trkpt>
      <trkpt lat="47.28244" lon="-1.54489">
        <ele>33</ele>
        <time>2019-10-17T12:55:13.000Z</time>
      </trkpt>
      <trkpt lat="47.28249" lon="-1.54492">
        <ele>33</ele>
        <time>2019-10-17T12:55:14.000Z</time>
      </trkpt>
      <trkpt lat="47.28254" lon="-1.54495">
        <ele>34</ele>
        <time>2019-10-17T12:55:15.000Z</time>
      </trkpt>
      <trkpt lat="47.28259" lon="-1.54497">
        <ele>34</ele>
        <time>2019-10-17T12:55:16.000Z</time>
      </trkpt>
      <trkpt lat="47.28265" lon="-1.545">
        <ele>34</ele>
        <time>2019-10-17T12:55:17.000Z</time>
      </trkpt>
      <trkpt lat="47.2827" lon="-1.54502">
        <ele>34</ele>
        <time>2019-10-17T12:55:18.000Z</time>
      </trkpt>
      <trkpt lat="47.28275" lon="-1.54505">
        <ele>35</ele>
        <time>2019-10-17T12:55:19.000Z</time>
      </trkpt>
      <trkpt lat="47.28279" lon="-1.54507">
        <ele>35</ele>
        <time>2019-10-17T12:55:20.000Z</time>
      </trkpt>
      <trkpt lat="47.28283" lon="-1.54509">
        <ele>35</ele>
        <time>2019-10-17T12:55:21.000Z</time>
      </trkpt>
      <trkpt lat="47.28287" lon="-1.54511">
        <ele>34</ele>
        <time>2019-10-17T12:55:22.000Z</time>
      </trkpt>
      <trkpt lat="47.28291" lon="-1.54513">
        <ele>34</ele>
        <time>2019-10-17T12:55:23.000Z</time>
      </trkpt>
      <trkpt lat="47.28296" lon="-1.54514">
        <ele>34</ele>
        <time>2019-10-17T12:55:24.000Z</time>
      </trkpt>
      <trkpt lat="47.28301" lon="-1.54514">
        <ele>33</ele>
        <time>2019-10-17T12:55:25.000Z</time>
      </trkpt>
      <trkpt lat="47.28306" lon="-1.54512">
        <ele>33</ele>
        <time>2019-10-17T12:55:26.000Z</time>
      </trkpt>
      <trkpt lat="47.2831" lon="-1.54509">
        <ele>32</ele>
        <time>2019-10-17T12:55:27.000Z</time>
      </trkpt>
      <trkpt lat="47.28314" lon="-1.54507">
        <ele>31</ele>
        <time>2019-10-17T12:55:28.000Z</time>
      </trkpt>
      <trkpt lat="47.28317" lon="-1.54504">
        <ele>30</ele>
        <time>2019-10-17T12:55:29.000Z</time>
      </trkpt>
      <trkpt lat="47.2832" lon="-1.54502">
        <ele>29</ele>
        <time>2019-10-17T12:55:30.000Z</time>
      </trkpt>
      <trkpt lat="47.28322" lon="-1.545">
        <ele>28</ele>
        <time>2019-10-17T12:55:31.000Z</time>
      </trkpt>
      <trkpt lat="47.28324" lon="-1.54498">
        <ele>27</ele>
        <time>2019-10-17T12:55:32.000Z</time>
      </trkpt>
      <trkpt lat="47.28326" lon="-1.54498">
        <ele>26</ele>
        <time>2019-10-17T12:55:33.000Z</time>
      </trkpt>
      <trkpt lat="47.28327" lon="-1.54498">
        <ele>24</ele>
        <time>2019-10-17T12:55:34.000Z</time>
      </trkpt>
      <trkpt lat="47.28328" lon="-1.54499">
        <ele>23</ele>
        <time>2019-10-17T12:55:35.000Z</time>
      </trkpt>
      <trkpt lat="47.28329" lon="-1.545">
        <ele>23</ele>
        <time>2019-10-17T12:55:36.000Z</time>
      </trkpt>
      <trkpt lat="47.2833" lon="-1.54501">
        <ele>22</ele>
        <time>2019-10-17T12:55:37.000Z</time>
      </trkpt>
      <trkpt lat="47.2833" lon="-1.54501">
        <ele>20</ele>
        <time>2019-10-17T12:55:39.000Z</time>
      </trkpt>
      <trkpt lat="47.2833" lon="-1.54501">
        <ele>19</ele>
        <time>2019-10-17T12:55:40.000Z</time>
      </trkpt>
      <trkpt lat="47.28339" lon="-1.54494">
        <ele>19</ele>
        <time>2019-10-17T12:55:41.000Z</time>
      </trkpt>
      <trkpt lat="47.28341" lon="-1.54491">
        <ele>18</ele>
        <time>2019-10-17T12:55:42.000Z</time>
      </trkpt>
      <trkpt lat="47.28344" lon="-1.54488">
        <ele>17</ele>
        <time>2019-10-17T12:55:43.000Z</time>
      </trkpt>
      <trkpt lat="47.28346" lon="-1.54486">
        <ele>16</ele>
        <time>2019-10-17T12:55:44.000Z</time>
      </trkpt>
      <trkpt lat="47.28348" lon="-1.54485">
        <ele>15</ele>
        <time>2019-10-17T12:55:45.000Z</time>
      </trkpt>
      <trkpt lat="47.28348" lon="-1.54485">
        <ele>13</ele>
        <time>2019-10-17T12:55:47.000Z</time>
      </trkpt>
      <trkpt lat="47.28348" lon="-1.54485">
        <ele>12</ele>
        <time>2019-10-17T12:55:48.000Z</time>
      </trkpt>
      <trkpt lat="47.28359" lon="-1.54477">
        <ele>11</ele>
        <time>2019-10-17T12:55:49.000Z</time>
      </trkpt>
      <trkpt lat="47.28363" lon="-1.54474">
        <ele>10</ele>
        <time>2019-10-17T12:55:50.000Z</time>
      </trkpt>
      <trkpt lat="47.28367" lon="-1.54471">
        <ele>9</ele>
        <time>2019-10-17T12:55:51.000Z</time>
      </trkpt>
      <trkpt lat="47.2837" lon="-1.54469">
        <ele>7</ele>
        <time>2019-10-17T12:55:52.000Z</time>
      </trkpt>
      <trkpt lat="47.28373" lon="-1.54466">
        <ele>6</ele>
        <time>2019-10-17T12:55:53.000Z</time>
      </trkpt>
      <trkpt lat="47.28377" lon="-1.54464">
        <ele>5</ele>
        <time>2019-10-17T12:55:54.000Z</time>
      </trkpt>
      <trkpt lat="47.28381" lon="-1.54462">
        <ele>3</ele>
        <time>2019-10-17T12:55:55.000Z</time>
      </trkpt>
      <trkpt lat="47.28386" lon="-1.54459">
        <ele>2</ele>
        <time>2019-10-17T12:55:56.000Z</time>
      </trkpt>
      <trkpt lat="47.2839" lon="-1.54456">
        <ele>24</ele>
        <time>2019-10-17T12:55:57.000Z</time>
      </trkpt>
      <trkpt lat="47.28393" lon="-1.54453">
        <ele>-1</ele>
        <time>2019-10-17T12:55:58.000Z</time>
      </trkpt>
      <trkpt lat="47.28396" lon="-1.54451">
        <ele>-3</ele>
        <time>2019-10-17T12:55:59.000Z</time>
      </trkpt>
      <trkpt lat="47.28396" lon="-1.54451">
        <ele>-59</ele>
        <time>2019-10-17T12:56:35.000Z</time>
      </trkpt>
      <trkpt lat="47.28396" lon="-1.54451">
        <ele>-58</ele>
        <time>2019-10-17T12:56:36.000Z</time>
      </trkpt>
      <trkpt lat="47.28456" lon="-1.54316">
        <ele>-57</ele>
        <time>2019-10-17T12:56:37.000Z</time>
      </trkpt>
      <trkpt lat="47.28449" lon="-1.54305">
        <ele>-56</ele>
        <time>2019-10-17T12:56:38.000Z</time>
      </trkpt>
      <trkpt lat="47.28442" lon="-1.54295">
        <ele>-54</ele>
        <time>2019-10-17T12:56:39.000Z</time>
      </trkpt>
      <trkpt lat="47.28435" lon="-1.54285">
        <ele>-53</ele>
        <time>2019-10-17T12:56:40.000Z</time>
      </trkpt>
      <trkpt lat="47.28426" lon="-1.54274">
        <ele>-51</ele>
        <time>2019-10-17T12:56:41.000Z</time>
      </trkpt>
      <trkpt lat="47.28417" lon="-1.54264">
        <ele>-49</ele>
        <time>2019-10-17T12:56:42.000Z</time>
      </trkpt>
      <trkpt lat="47.28407" lon="-1.54253">
        <ele>-47</ele>
        <time>2019-10-17T12:56:43.000Z</time>
      </trkpt>
      <trkpt lat="47.28396" lon="-1.54242">
        <ele>-45</ele>
        <time>2019-10-17T12:56:44.000Z</time>
      </trkpt>
      <trkpt lat="47.28385" lon="-1.54232">
        <ele>-43</ele>
        <time>2019-10-17T12:56:45.000Z</time>
      </trkpt>
      <trkpt lat="47.28373" lon="-1.54222">
        <ele>-40</ele>
        <time>2019-10-17T12:56:46.000Z</time>
      </trkpt>
      <trkpt lat="47.28361" lon="-1.54212">
        <ele>-37</ele>
        <time>2019-10-17T12:56:47.000Z</time>
      </trkpt>
      <trkpt lat="47.28349" lon="-1.54202">
        <ele>-33</ele>
        <time>2019-10-17T12:56:48.000Z</time>
      </trkpt>
      <trkpt lat="47.28339" lon="-1.54193">
        <ele>-30</ele>
        <time>2019-10-17T12:56:49.000Z</time>
      </trkpt>
      <trkpt lat="47.28329" lon="-1.54183">
        <ele>-26</ele>
        <time>2019-10-17T12:56:50.000Z</time>
      </trkpt>
      <trkpt lat="47.28321" lon="-1.54175">
        <ele>-23</ele>
        <time>2019-10-17T12:56:51.000Z</time>
      </trkpt>
      <trkpt lat="47.28315" lon="-1.54168">
        <ele>-20</ele>
        <time>2019-10-17T12:56:52.000Z</time>
      </trkpt>
      <trkpt lat="47.28311" lon="-1.54161">
        <ele>-16</ele>
        <time>2019-10-17T12:56:53.000Z</time>
      </trkpt>
      <trkpt lat="47.28308" lon="-1.54155">
        <ele>-13</ele>
        <time>2019-10-17T12:56:54.000Z</time>
      </trkpt>
      <trkpt lat="47.28308" lon="-1.54155">
        <ele>-7</ele>
        <time>2019-10-17T12:56:56.000Z</time>
      </trkpt>
      <trkpt lat="47.28308" lon="-1.54155">
        <ele>-5</ele>
        <time>2019-10-17T12:56:57.000Z</time>
      </trkpt>
      <trkpt lat="47.283" lon="-1.54127">
        <ele>-2</ele>
        <time>2019-10-17T12:56:58.000Z</time>
      </trkpt>
      <trkpt lat="47.28298" lon="-1.54118">
        <ele>27</ele>
        <time>2019-10-17T12:56:59.000Z</time>
      </trkpt>
      <trkpt lat="47.28297" lon="-1.5411">
        <ele>2</ele>
        <time>2019-10-17T12:57:00.000Z</time>
      </trkpt>
      <trkpt lat="47.28297" lon="-1.54103">
        <ele>5</ele>
        <time>2019-10-17T12:57:01.000Z</time>
      </trkpt>
      <trkpt lat="47.28296" lon="-1.54096">
        <ele>8</ele>
        <time>2019-10-17T12:57:02.000Z</time>
      </trkpt>
      <trkpt lat="47.28296" lon="-1.54089">
        <ele>10</ele>
        <time>2019-10-17T12:57:03.000Z</time>
      </trkpt>
      <trkpt lat="47.28296" lon="-1.54083">
        <ele>12</ele>
        <time>2019-10-17T12:57:04.000Z</time>
      </trkpt>
      <trkpt lat="47.28296" lon="-1.54077">
        <ele>14</ele>
        <time>2019-10-17T12:57:05.000Z</time>
      </trkpt>
      <trkpt lat="47.28297" lon="-1.54071">
        <ele>16</ele>
        <time>2019-10-17T12:57:06.000Z</time>
      </trkpt>
      <trkpt lat="47.28297" lon="-1.54064">
        <ele>18</ele>
        <time>2019-10-17T12:57:07.000Z</time>
      </trkpt>
      <trkpt lat="47.28297" lon="-1.54057">
        <ele>20</ele>
        <time>2019-10-17T12:57:08.000Z</time>
      </trkpt>
      <trkpt lat="47.283" lon="-1.54052">
        <ele>21</ele>
        <time>2019-10-17T12:57:09.000Z</time>
      </trkpt>
      <trkpt lat="47.28305" lon="-1.54048">
        <ele>22</ele>
        <time>2019-10-17T12:57:10.000Z</time>
      </trkpt>
      <trkpt lat="47.28312" lon="-1.54045">
        <ele>22</ele>
        <time>2019-10-17T12:57:11.000Z</time>
      </trkpt>
      <trkpt lat="47.28318" lon="-1.54042">
        <ele>23</ele>
        <time>2019-10-17T12:57:12.000Z</time>
      </trkpt>
      <trkpt lat="47.28326" lon="-1.54039">
        <ele>24</ele>
        <time>2019-10-17T12:57:13.000Z</time>
      </trkpt>
      <trkpt lat="47.28333" lon="-1.54035">
        <ele>24</ele>
        <time>2019-10-17T12:57:14.000Z</time>
      </trkpt>
      <trkpt lat="47.2834" lon="-1.54032">
        <ele>24</ele>
        <time>2019-10-17T12:57:15.000Z</time>
      </trkpt>
      <trkpt lat="47.28347" lon="-1.54029">
        <ele>23</ele>
        <time>2019-10-17T12:57:16.000Z</time>
      </trkpt>
      <trkpt lat="47.28354" lon="-1.54026">
        <ele>23</ele>
        <time>2019-10-17T12:57:17.000Z</time>
      </trkpt>
      <trkpt lat="47.28361" lon="-1.54022">
        <ele>23</ele>
        <time>2019-10-17T12:57:18.000Z</time>
      </trkpt>
      <trkpt lat="47.28368" lon="-1.54019">
        <ele>23</ele>
        <time>2019-10-17T12:57:19.000Z</time>
      </trkpt>
      <trkpt lat="47.28375" lon="-1.54016">
        <ele>23</ele>
        <time>2019-10-17T12:57:20.000Z</time>
      </trkpt>
      <trkpt lat="47.28381" lon="-1.54013">
        <ele>23</ele>
        <time>2019-10-17T12:57:21.000Z</time>
      </trkpt>
      <trkpt lat="47.28387" lon="-1.5401">
        <ele>23</ele>
        <time>2019-10-17T12:57:22.000Z</time>
      </trkpt>
      <trkpt lat="47.28393" lon="-1.54007">
        <ele>23</ele>
        <time>2019-10-17T12:57:23.000Z</time>
      </trkpt>
      <trkpt lat="47.28398" lon="-1.54004">
        <ele>23</ele>
        <time>2019-10-17T12:57:24.000Z</time>
      </trkpt>
      <trkpt lat="47.28403" lon="-1.54001">
        <ele>23</ele>
        <time>2019-10-17T12:57:25.000Z</time>
      </trkpt>
      <trkpt lat="47.28407" lon="-1.53997">
        <ele>22</ele>
        <time>2019-10-17T12:57:26.000Z</time>
      </trkpt>
      <trkpt lat="47.2841" lon="-1.53992">
        <ele>22</ele>
        <time>2019-10-17T12:57:27.000Z</time>
      </trkpt>
      <trkpt lat="47.2841" lon="-1.53992">
        <ele>21</ele>
        <time>2019-10-17T12:57:30.000Z</time>
      </trkpt>
      <trkpt lat="47.2841" lon="-1.53992">
        <ele>20</ele>
        <time>2019-10-17T12:57:32.000Z</time>
      </trkpt>
      <trkpt lat="47.2841" lon="-1.53992">
        <ele>20</ele>
        <time>2019-10-17T12:57:33.000Z</time>
      </trkpt>
      <trkpt lat="47.28418" lon="-1.53948">
        <ele>19</ele>
        <time>2019-10-17T12:57:34.000Z</time>
      </trkpt>
      <trkpt lat="47.28419" lon="-1.53941">
        <ele>18</ele>
        <time>2019-10-17T12:57:35.000Z</time>
      </trkpt>
      <trkpt lat="47.28419" lon="-1.53933">
        <ele>18</ele>
        <time>2019-10-17T12:57:36.000Z</time>
      </trkpt>
      <trkpt lat="47.2842" lon="-1.53924">
        <ele>17</ele>
        <time>2019-10-17T12:57:37.000Z</time>
      </trkpt>
      <trkpt lat="47.28421" lon="-1.53916">
        <ele>17</ele>
        <time>2019-10-17T12:57:38.000Z</time>
      </trkpt>
      <trkpt lat="47.28422" lon="-1.53908">
        <ele>16</ele>
        <time>2019-10-17T12:57:39.000Z</time>
      </trkpt>
      <trkpt lat="47.28425" lon="-1.539">
        <ele>16</ele>
        <time>2019-10-17T12:57:40.000Z</time>
      </trkpt>
      <trkpt lat="47.28429" lon="-1.53893">
        <ele>15</ele>
        <time>2019-10-17T12:57:41.000Z</time>
      </trkpt>
      <trkpt lat="47.28433" lon="-1.53886">
        <ele>15</ele>
        <time>2019-10-17T12:57:42.000Z</time>
      </trkpt>
      <trkpt lat="47.28437" lon="-1.53879">
        <ele>14</ele>
        <time>2019-10-17T12:57:43.000Z</time>
      </trkpt>
      <trkpt lat="47.28442" lon="-1.53873">
        <ele>13</ele>
        <time>2019-10-17T12:57:44.000Z</time>
      </trkpt>
      <trkpt lat="47.28447" lon="-1.53867">
        <ele>13</ele>
        <time>2019-10-17T12:57:45.000Z</time>
      </trkpt>
      <trkpt lat="47.28452" lon="-1.53862">
        <ele>12</ele>
        <time>2019-10-17T12:57:46.000Z</time>
      </trkpt>
      <trkpt lat="47.28459" lon="-1.53856">
        <ele>11</ele>
        <time>2019-10-17T12:57:47.000Z</time>
      </trkpt>
      <trkpt lat="47.28466" lon="-1.53851">
        <ele>11</ele>
        <time>2019-10-17T12:57:48.000Z</time>
      </trkpt>
      <trkpt lat="47.28473" lon="-1.53846">
        <ele>10</ele>
        <time>2019-10-17T12:57:49.000Z</time>
      </trkpt>
      <trkpt lat="47.28481" lon="-1.53841">
        <ele>9</ele>
        <time>2019-10-17T12:57:50.000Z</time>
      </trkpt>
      <trkpt lat="47.28489" lon="-1.53836">
        <ele>8</ele>
        <time>2019-10-17T12:57:51.000Z</time>
      </trkpt>
      <trkpt lat="47.28497" lon="-1.5383">
        <ele>7</ele>
        <time>2019-10-17T12:57:52.000Z</time>
      </trkpt>
      <trkpt lat="47.28506" lon="-1.53825">
        <ele>5</ele>
        <time>2019-10-17T12:57:53.000Z</time>
      </trkpt>
      <trkpt lat="47.28514" lon="-1.53818">
        <ele>4</ele>
        <time>2019-10-17T12:57:54.000Z</time>
      </trkpt>
      <trkpt lat="47.28523" lon="-1.53813">
        <ele>2</ele>
        <time>2019-10-17T12:57:55.000Z</time>
      </trkpt>
      <trkpt lat="47.28533" lon="-1.53807">
        <ele>1</ele>
        <time>2019-10-17T12:57:56.000Z</time>
      </trkpt>
      <trkpt lat="47.28542" lon="-1.53801">
        <ele>22.4</ele>
        <time>2019-10-17T12:57:57.000Z</time>
      </trkpt>
      <trkpt lat="47.28551" lon="-1.53795">
        <ele>-2</ele>
        <time>2019-10-17T12:57:58.000Z</time>
      </trkpt>
      <trkpt lat="47.28558" lon="-1.53788">
        <ele>-3</ele>
        <time>2019-10-17T12:57:59.000Z</time>
      </trkpt>
      <trkpt lat="47.28565" lon="-1.53781">
        <ele>-4</ele>
        <time>2019-10-17T12:58:00.000Z</time>
      </trkpt>
      <trkpt lat="47.28572" lon="-1.53775">
        <ele>-6</ele>
        <time>2019-10-17T12:58:01.000Z</time>
      </trkpt>
      <trkpt lat="47.28577" lon="-1.53768">
        <ele>-7</ele>
        <time>2019-10-17T12:58:02.000Z</time>
      </trkpt>
      <trkpt lat="47.28581" lon="-1.53762">
        <ele>-8</ele>
        <time>2019-10-17T12:58:03.000Z</time>
      </trkpt>
      <trkpt lat="47.28581" lon="-1.53762">
        <ele>-10</ele>
        <time>2019-10-17T12:58:05.000Z</time>
      </trkpt>
      <trkpt lat="47.28581" lon="-1.53762">
        <ele>-14</ele>
        <time>2019-10-17T12:58:10.000Z</time>
      </trkpt>
      <trkpt lat="47.28581" lon="-1.53762">
        <ele>-14</ele>
        <time>2019-10-17T12:58:11.000Z</time>
      </trkpt>
      <trkpt lat="47.28595" lon="-1.53735">
        <ele>-15</ele>
        <time>2019-10-17T12:58:12.000Z</time>
      </trkpt>
      <trkpt lat="47.28595" lon="-1.53735">
        <ele>-21</ele>
        <time>2019-10-17T12:58:21.000Z</time>
      </trkpt>
      <trkpt lat="47.28595" lon="-1.53735">
        <ele>-21</ele>
        <time>2019-10-17T12:58:22.000Z</time>
      </trkpt>
      <trkpt lat="47.28569" lon="-1.53685">
        <ele>-22</ele>
        <time>2019-10-17T12:58:23.000Z</time>
      </trkpt>
      <trkpt lat="47.28572" lon="-1.53674">
        <ele>-22</ele>
        <time>2019-10-17T12:58:24.000Z</time>
      </trkpt>
      <trkpt lat="47.28574" lon="-1.53662">
        <ele>-23</ele>
        <time>2019-10-17T12:58:25.000Z</time>
      </trkpt>
      <trkpt lat="47.28575" lon="-1.53651">
        <ele>-22</ele>
        <time>2019-10-17T12:58:26.000Z</time>
      </trkpt>
      <trkpt lat="47.28575" lon="-1.5364">
        <ele>-22</ele>
        <time>2019-10-17T12:58:27.000Z</time>
      </trkpt>
      <trkpt lat="47.28576" lon="-1.53629">
        <ele>-21</ele>
        <time>2019-10-17T12:58:28.000Z</time>
      </trkpt>
      <trkpt lat="47.28576" lon="-1.5362">
        <ele>-21</ele>
        <time>2019-10-17T12:58:29.000Z</time>
      </trkpt>
      <trkpt lat="47.28578" lon="-1.53612">
        <ele>-20</ele>
        <time>2019-10-17T12:58:30.000Z</time>
      </trkpt>
      <trkpt lat="47.28579" lon="-1.53605">
        <ele>-19</ele>
        <time>2019-10-17T12:58:31.000Z</time>
      </trkpt>
      <trkpt lat="47.28581" lon="-1.53598">
        <ele>-18</ele>
        <time>2019-10-17T12:58:32.000Z</time>
      </trkpt>
      <trkpt lat="47.28582" lon="-1.53591">
        <ele>-17</ele>
        <time>2019-10-17T12:58:33.000Z</time>
      </trkpt>
      <trkpt lat="47.28584" lon="-1.53582">
        <ele>-16</ele>
        <time>2019-10-17T12:58:34.000Z</time>
      </trkpt>
      <trkpt lat="47.28586" lon="-1.53573">
        <ele>-15</ele>
        <time>2019-10-17T12:58:35.000Z</time>
      </trkpt>
      <trkpt lat="47.28588" lon="-1.53563">
        <ele>-14</ele>
        <time>2019-10-17T12:58:36.000Z</time>
      </trkpt>
      <trkpt lat="47.28589" lon="-1.53553">
        <ele>-13</ele>
        <time>2019-10-17T12:58:37.000Z</time>
      </trkpt>
      <trkpt lat="47.28592" lon="-1.53542">
        <ele>-12</ele>
        <time>2019-10-17T12:58:38.000Z</time>
      </trkpt>
      <trkpt lat="47.28595" lon="-1.53532">
        <ele>-11</ele>
        <time>2019-10-17T12:58:39.000Z</time>
      </trkpt>
      <trkpt lat="47.28598" lon="-1.53522">
        <ele>-11</ele>
        <time>2019-10-17T12:58:40.000Z</time>
      </trkpt>
      <trkpt lat="47.28601" lon="-1.53512">
        <ele>-10</ele>
        <time>2019-10-17T12:58:41.000Z</time>
      </trkpt>
      <trkpt lat="47.28604" lon="-1.53503">
        <ele>-9</ele>
        <time>2019-10-17T12:58:42.000Z</time>
      </trkpt>
      <trkpt lat="47.28606" lon="-1.53494">
        <ele>-8</ele>
        <time>2019-10-17T12:58:43.000Z</time>
      </trkpt>
      <trkpt lat="47.2861" lon="-1.53487">
        <ele>-8</ele>
        <time>2019-10-17T12:58:44.000Z</time>
      </trkpt>
      <trkpt lat="47.2861" lon="-1.53487">
        <ele>-6</ele>
        <time>2019-10-17T12:58:46.000Z</time>
      </trkpt>
      <trkpt lat="47.2861" lon="-1.53487">
        <ele>-5</ele>
        <time>2019-10-17T12:58:47.000Z</time>
      </trkpt>
      <trkpt lat="47.28626" lon="-1.53468">
        <ele>-5</ele>
        <time>2019-10-17T12:58:48.000Z</time>
      </trkpt>
      <trkpt lat="47.2863" lon="-1.53466">
        <ele>-4</ele>
        <time>2019-10-17T12:58:49.000Z</time>
      </trkpt>
      <trkpt lat="47.28636" lon="-1.53464">
        <ele>-4</ele>
        <time>2019-10-17T12:58:50.000Z</time>
      </trkpt>
      <trkpt lat="47.28642" lon="-1.53462">
        <ele>-3</ele>
        <time>2019-10-17T12:58:51.000Z</time>
      </trkpt>
      <trkpt lat="47.28648" lon="-1.53462">
        <ele>-3</ele>
        <time>2019-10-17T12:58:52.000Z</time>
      </trkpt>
      <trkpt lat="47.28655" lon="-1.53462">
        <ele>-2</ele>
        <time>2019-10-17T12:58:53.000Z</time>
      </trkpt>
      <trkpt lat="47.28655" lon="-1.53462">
        <ele>4</ele>
        <time>2019-10-17T12:59:06.000Z</time>
      </trkpt>
      <trkpt lat="47.28655" lon="-1.53462">
        <ele>4</ele>
        <time>2019-10-17T12:59:07.000Z</time>
      </trkpt>
      <trkpt lat="47.28655" lon="-1.53462">
        <ele>8</ele>
        <time>2019-10-17T12:59:23.000Z</time>
      </trkpt>
      <trkpt lat="47.28655" lon="-1.53462">
        <ele>8</ele>
        <time>2019-10-17T12:59:24.000Z</time>
      </trkpt>
      <trkpt lat="47.28821" lon="-1.53355">
        <ele>8</ele>
        <time>2019-10-17T12:59:25.000Z</time>
      </trkpt>
      <trkpt lat="47.28822" lon="-1.53351">
        <ele>8</ele>
        <time>2019-10-17T12:59:26.000Z</time>
      </trkpt>
      <trkpt lat="47.28823" lon="-1.53351">
        <ele>7</ele>
        <time>2019-10-17T12:59:27.000Z</time>
      </trkpt>
      <trkpt lat="47.28826" lon="-1.53351">
        <ele>6</ele>
        <time>2019-10-17T12:59:28.000Z</time>
      </trkpt>
      <trkpt lat="47.2883" lon="-1.53352">
        <ele>5</ele>
        <time>2019-10-17T12:59:29.000Z</time>
      </trkpt>
      <trkpt lat="47.28836" lon="-1.53351">
        <ele>4</ele>
        <time>2019-10-17T12:59:30.000Z</time>
      </trkpt>
      <trkpt lat="47.28841" lon="-1.53347">
        <ele>4</ele>
        <time>2019-10-17T12:59:31.000Z</time>
      </trkpt>
      <trkpt lat="47.28846" lon="-1.53343">
        <ele>3</ele>
        <time>2019-10-17T12:59:32.000Z</time>
      </trkpt>
      <trkpt lat="47.28851" lon="-1.53338">
        <ele>2</ele>
        <time>2019-10-17T12:59:33.000Z</time>
      </trkpt>
      <trkpt lat="47.28856" lon="-1.53334">
        <ele>1</ele>
        <time>2019-10-17T12:59:34.000Z</time>
      </trkpt>
      <trkpt lat="47.2886" lon="-1.53328">
        <ele>4.8</ele>
        <time>2019-10-17T12:59:35.000Z</time>
      </trkpt>
      <trkpt lat="47.28865" lon="-1.53324">
        <ele>-1</ele>
        <time>2019-10-17T12:59:36.000Z</time>
      </trkpt>
      <trkpt lat="47.28869" lon="-1.53321">
        <ele>-2</ele>
        <time>2019-10-17T12:59:37.000Z</time>
      </trkpt>
      <trkpt lat="47.28874" lon="-1.53321">
        <ele>-3</ele>
        <time>2019-10-17T12:59:38.000Z</time>
      </trkpt>
      <trkpt lat="47.28878" lon="-1.53322">
        <ele>-4</ele>
        <time>2019-10-17T12:59:39.000Z</time>
      </trkpt>
      <trkpt lat="47.28884" lon="-1.53324">
        <ele>-5</ele>
        <time>2019-10-17T12:59:40.000Z</time>
      </trkpt>
      <trkpt lat="47.28888" lon="-1.53325">
        <ele>-5</ele>
        <time>2019-10-17T12:59:41.000Z</time>
      </trkpt>
      <trkpt lat="47.28892" lon="-1.53328">
        <ele>-5</ele>
        <time>2019-10-17T12:59:42.000Z</time>
      </trkpt>
      <trkpt lat="47.28896" lon="-1.5333">
        <ele>-5</ele>
        <time>2019-10-17T12:59:43.000Z</time>
      </trkpt>
      <trkpt lat="47.28898" lon="-1.53331">
        <ele>-5</ele>
        <time>2019-10-17T12:59:44.000Z</time>
      </trkpt>
      <trkpt lat="47.28899" lon="-1.53332">
        <ele>-5</ele>
        <time>2019-10-17T12:59:45.000Z</time>
      </trkpt>
      <trkpt lat="47.28901" lon="-1.53332">
        <ele>-5</ele>
        <time>2019-10-17T12:59:46.000Z</time>
      </trkpt>
      <trkpt lat="47.28901" lon="-1.53334">
        <ele>-5</ele>
        <time>2019-10-17T12:59:47.000Z</time>
      </trkpt>
      <trkpt lat="47.28902" lon="-1.53335">
        <ele>-4</ele>
        <time>2019-10-17T12:59:48.000Z</time>
      </trkpt>
      <trkpt lat="47.28902" lon="-1.53337">
        <ele>-4</ele>
        <time>2019-10-17T12:59:49.000Z</time>
      </trkpt>
      <trkpt lat="47.28902" lon="-1.53339">
        <ele>-3</ele>
        <time>2019-10-17T12:59:50.000Z</time>
      </trkpt>
      <trkpt lat="47.28903" lon="-1.53341">
        <ele>-2</ele>
        <time>2019-10-17T12:59:51.000Z</time>
      </trkpt>
      <trkpt lat="47.28906" lon="-1.53343">
        <ele>-2</ele>
        <time>2019-10-17T12:59:52.000Z</time>
      </trkpt>
      <trkpt lat="47.28908" lon="-1.53345">
        <ele>-2</ele>
        <time>2019-10-17T12:59:53.000Z</time>
      </trkpt>
      <trkpt lat="47.28911" lon="-1.53347">
        <ele>-2</ele>
        <time>2019-10-17T12:59:54.000Z</time>
      </trkpt>
      <trkpt lat="47.28916" lon="-1.53351">
        <ele>-2</ele>
        <time>2019-10-17T12:59:55.000Z</time>
      </trkpt>
      <trkpt lat="47.28923" lon="-1.53355">
        <ele>-3</ele>
        <time>2019-10-17T12:59:56.000Z</time>
      </trkpt>
      <trkpt lat="47.28929" lon="-1.53359">
        <ele>-3</ele>
        <time>2019-10-17T12:59:57.000Z</time>
      </trkpt>
      <trkpt lat="47.28936" lon="-1.53363">
        <ele>-3</ele>
        <time>2019-10-17T12:59:58.000Z</time>
      </trkpt>
      <trkpt lat="47.28942" lon="-1.53367">
        <ele>-4</ele>
        <time>2019-10-17T12:59:59.000Z</time>
      </trkpt>
      <trkpt lat="47.28948" lon="-1.53371">
        <ele>-4</ele>
        <time>2019-10-17T13:00:00.000Z</time>
      </trkpt>
      <trkpt lat="47.28955" lon="-1.53375">
        <ele>-4</ele>
        <time>2019-10-17T13:00:01.000Z</time>
      </trkpt>
      <trkpt lat="47.2896" lon="-1.53379">
        <ele>-3</ele>
        <time>2019-10-17T13:00:02.000Z</time>
      </trkpt>
      <trkpt lat="47.28965" lon="-1.53383">
        <ele>-3</ele>
        <time>2019-10-17T13:00:03.000Z</time>
      </trkpt>
      <trkpt lat="47.28969" lon="-1.53386">
        <ele>-3</ele>
        <time>2019-10-17T13:00:04.000Z</time>
      </trkpt>
      <trkpt lat="47.28975" lon="-1.5339">
        <ele>-3</ele>
        <time>2019-10-17T13:00:05.000Z</time>
      </trkpt>
      <trkpt lat="47.2898" lon="-1.53394">
        <ele>-3</ele>
        <time>2019-10-17T13:00:06.000Z</time>
      </trkpt>
      <trkpt lat="47.28985" lon="-1.53399">
        <ele>-2</ele>
        <time>2019-10-17T13:00:07.000Z</time>
      </trkpt>
      <trkpt lat="47.2899" lon="-1.53403">
        <ele>-2</ele>
        <time>2019-10-17T13:00:08.000Z</time>
      </trkpt>
      <trkpt lat="47.28995" lon="-1.53408">
        <ele>-2</ele>
        <time>2019-10-17T13:00:09.000Z</time>
      </trkpt>
      <trkpt lat="47.29001" lon="-1.53412">
        <ele>-1</ele>
        <time>2019-10-17T13:00:10.000Z</time>
      </trkpt>
      <trkpt lat="47.29006" lon="-1.53416">
        <ele>-1</ele>
        <time>2019-10-17T13:00:11.000Z</time>
      </trkpt>
      <trkpt lat="47.29011" lon="-1.53419">
        <ele>-1</ele>
        <time>2019-10-17T13:00:12.000Z</time>
      </trkpt>
      <trkpt lat="47.29016" lon="-1.53421">
        <ele>6</ele>
        <time>2019-10-17T13:00:13.000Z</time>
      </trkpt>
      <trkpt lat="47.29021" lon="-1.53424">
        <ele>6.1</ele>
        <time>2019-10-17T13:00:14.000Z</time>
      </trkpt>
      <trkpt lat="47.29026" lon="-1.53427">
        <ele>6.2</ele>
        <time>2019-10-17T13:00:15.000Z</time>
      </trkpt>
      <trkpt lat="47.29031" lon="-1.5343">
        <ele>6.2</ele>
        <time>2019-10-17T13:00:16.000Z</time>
      </trkpt>
      <trkpt lat="47.29037" lon="-1.53431">
        <ele>5.9</ele>
        <time>2019-10-17T13:00:17.000Z</time>
      </trkpt>
      <trkpt lat="47.29041" lon="-1.53433">
        <ele>5.7</ele>
        <time>2019-10-17T13:00:18.000Z</time>
      </trkpt>
      <trkpt lat="47.29046" lon="-1.53436">
        <ele>5.5</ele>
        <time>2019-10-17T13:00:19.000Z</time>
      </trkpt>
      <trkpt lat="47.2905" lon="-1.5344">
        <ele>5.4</ele>
        <time>2019-10-17T13:00:20.000Z</time>
      </trkpt>
      <trkpt lat="47.29055" lon="-1.53444">
        <ele>5.1</ele>
        <time>2019-10-17T13:00:21.000Z</time>
      </trkpt>
      <trkpt lat="47.29059" lon="-1.53449">
        <ele>4.9</ele>
        <time>2019-10-17T13:00:22.000Z</time>
      </trkpt>
      <trkpt lat="47.29064" lon="-1.53453">
        <ele>4.8</ele>
        <time>2019-10-17T13:00:23.000Z</time>
      </trkpt>
      <trkpt lat="47.29068" lon="-1.53458">
        <ele>4.8</ele>
        <time>2019-10-17T13:00:24.000Z</time>
      </trkpt>
      <trkpt lat="47.29072" lon="-1.53462">
        <ele>4.8</ele>
        <time>2019-10-17T13:00:25.000Z</time>
      </trkpt>
      <trkpt lat="47.29076" lon="-1.53466">
        <ele>4.8</ele>
        <time>2019-10-17T13:00:26.000Z</time>
      </trkpt>
      <trkpt lat="47.2908" lon="-1.53471">
        <ele>1</ele>
        <time>2019-10-17T13:00:27.000Z</time>
      </trkpt>
      <trkpt lat="47.29085" lon="-1.53475">
        <ele>1</ele>
        <time>2019-10-17T13:00:28.000Z</time>
      </trkpt>
      <trkpt lat="47.29089" lon="-1.53478">
        <ele>1</ele>
        <time>2019-10-17T13:00:29.000Z</time>
      </trkpt>
      <trkpt lat="47.29093" lon="-1.53482">
        <ele>1</ele>
        <time>2019-10-17T13:00:30.000Z</time>
      </trkpt>
      <trkpt lat="47.29097" lon="-1.53486">
        <ele>1</ele>
        <time>2019-10-17T13:00:31.000Z</time>
      </trkpt>
      <trkpt lat="47.29101" lon="-1.53491">
        <ele>1</ele>
        <time>2019-10-17T13:00:32.000Z</time>
      </trkpt>
      <trkpt lat="47.29105" lon="-1.53495">
        <ele>2</ele>
        <time>2019-10-17T13:00:33.000Z</time>
      </trkpt>
      <trkpt lat="47.29108" lon="-1.53499">
        <ele>2</ele>
        <time>2019-10-17T13:00:34.000Z</time>
      </trkpt>
      <trkpt lat="47.29111" lon="-1.53503">
        <ele>2</ele>
        <time>2019-10-17T13:00:35.000Z</time>
      </trkpt>
      <trkpt lat="47.29114" lon="-1.53506">
        <ele>2</ele>
        <time>2019-10-17T13:00:36.000Z</time>
      </trkpt>
      <trkpt lat="47.29118" lon="-1.5351">
        <ele>2</ele>
        <time>2019-10-17T13:00:37.000Z</time>
      </trkpt>
      <trkpt lat="47.29118" lon="-1.5351">
        <ele>4</ele>
        <time>2019-10-17T13:00:53.000Z</time>
      </trkpt>
      <trkpt lat="47.29118" lon="-1.5351">
        <ele>4</ele>
        <time>2019-10-17T13:00:54.000Z</time>
      </trkpt>
      <trkpt lat="47.29168" lon="-1.53571">
        <ele>5</ele>
        <time>2019-10-17T13:00:55.000Z</time>
      </trkpt>
      <trkpt lat="47.29168" lon="-1.53575">
        <ele>6</ele>
        <time>2019-10-17T13:00:56.000Z</time>
      </trkpt>
      <trkpt lat="47.29168" lon="-1.53575">
        <ele>9</ele>
        <time>2019-10-17T13:00:59.000Z</time>
      </trkpt>
      <trkpt lat="47.29168" lon="-1.53575">
        <ele>10</ele>
        <time>2019-10-17T13:01:00.000Z</time>
      </trkpt>
      <trkpt lat="47.2917" lon="-1.5359">
        <ele>10</ele>
        <time>2019-10-17T13:01:01.000Z</time>
      </trkpt>
      <trkpt lat="47.29171" lon="-1.53593">
        <ele>11</ele>
        <time>2019-10-17T13:01:02.000Z</time>
      </trkpt>
      <trkpt lat="47.29174" lon="-1.53597">
        <ele>12</ele>
        <time>2019-10-17T13:01:03.000Z</time>
      </trkpt>
      <trkpt lat="47.29177" lon="-1.53601">
        <ele>13</ele>
        <time>2019-10-17T13:01:04.000Z</time>
      </trkpt>
      <trkpt lat="47.29179" lon="-1.53605">
        <ele>14</ele>
        <time>2019-10-17T13:01:05.000Z</time>
      </trkpt>
      <trkpt lat="47.29182" lon="-1.53609">
        <ele>15</ele>
        <time>2019-10-17T13:01:06.000Z</time>
      </trkpt>
      <trkpt lat="47.29185" lon="-1.53613">
        <ele>16</ele>
        <time>2019-10-17T13:01:07.000Z</time>
      </trkpt>
      <trkpt lat="47.29188" lon="-1.53617">
        <ele>17</ele>
        <time>2019-10-17T13:01:08.000Z</time>
      </trkpt>
      <trkpt lat="47.29192" lon="-1.53621">
        <ele>17</ele>
        <time>2019-10-17T13:01:09.000Z</time>
      </trkpt>
      <trkpt lat="47.29196" lon="-1.53626">
        <ele>18</ele>
        <time>2019-10-17T13:01:10.000Z</time>
      </trkpt>
      <trkpt lat="47.29201" lon="-1.5363">
        <ele>18</ele>
        <time>2019-10-17T13:01:11.000Z</time>
      </trkpt>
      <trkpt lat="47.29206" lon="-1.53635">
        <ele>18</ele>
        <time>2019-10-17T13:01:12.000Z</time>
      </trkpt>
      <trkpt lat="47.29211" lon="-1.5364">
        <ele>18</ele>
        <time>2019-10-17T13:01:13.000Z</time>
      </trkpt>
      <trkpt lat="47.29217" lon="-1.53645">
        <ele>18</ele>
        <time>2019-10-17T13:01:14.000Z</time>
      </trkpt>
      <trkpt lat="47.29222" lon="-1.53649">
        <ele>18</ele>
        <time>2019-10-17T13:01:15.000Z</time>
      </trkpt>
      <trkpt lat="47.29227" lon="-1.53653">
        <ele>19</ele>
        <time>2019-10-17T13:01:16.000Z</time>
      </trkpt>
      <trkpt lat="47.29232" lon="-1.53657">
        <ele>19</ele>
        <time>2019-10-17T13:01:17.000Z</time>
      </trkpt>
      <trkpt lat="47.29236" lon="-1.53661">
        <ele>18</ele>
        <time>2019-10-17T13:01:18.000Z</time>
      </trkpt>
      <trkpt lat="47.2924" lon="-1.53664">
        <ele>19</ele>
        <time>2019-10-17T13:01:19.000Z</time>
      </trkpt>
      <trkpt lat="47.29243" lon="-1.53667">
        <ele>19</ele>
        <time>2019-10-17T13:01:20.000Z</time>
      </trkpt>
      <trkpt lat="47.29246" lon="-1.53669">
        <ele>19</ele>
        <time>2019-10-17T13:01:21.000Z</time>
      </trkpt>
      <trkpt lat="47.29247" lon="-1.53671">
        <ele>19</ele>
        <time>2019-10-17T13:01:22.000Z</time>
      </trkpt>
      <trkpt lat="47.29248" lon="-1.53671">
        <ele>19</ele>
        <time>2019-10-17T13:01:23.000Z</time>
      </trkpt>
      <trkpt lat="47.29248" lon="-1.53671">
        <ele>19</ele>
        <time>2019-10-17T13:01:24.000Z</time>
      </trkpt>
      <trkpt lat="47.29249" lon="-1.53671">
        <ele>19</ele>
        <time>2019-10-17T13:01:25.000Z</time>
      </trkpt>
      <trkpt lat="47.2925" lon="-1.53672">
        <ele>18</ele>
        <time>2019-10-17T13:01:26.000Z</time>
      </trkpt>
      <trkpt lat="47.29252" lon="-1.53672">
        <ele>17</ele>
        <time>2019-10-17T13:01:27.000Z</time>
      </trkpt>
      <trkpt lat="47.29253" lon="-1.53673">
        <ele>15</ele>
        <time>2019-10-17T13:01:28.000Z</time>
      </trkpt>
      <trkpt lat="47.29254" lon="-1.53673">
        <ele>14</ele>
        <time>2019-10-17T13:01:29.000Z</time>
      </trkpt>
      <trkpt lat="47.29255" lon="-1.53674">
        <ele>14</ele>
        <time>2019-10-17T13:01:30.000Z</time>
      </trkpt>
      <trkpt lat="47.29255" lon="-1.53675">
        <ele>13</ele>
        <time>2019-10-17T13:01:31.000Z</time>
      </trkpt>
      <trkpt lat="47.29256" lon="-1.53677">
        <ele>12</ele>
        <time>2019-10-17T13:01:32.000Z</time>
      </trkpt>
      <trkpt lat="47.29255" lon="-1.53679">
        <ele>11</ele>
        <time>2019-10-17T13:01:33.000Z</time>
      </trkpt>
      <trkpt lat="47.29255" lon="-1.53681">
        <ele>11</ele>
        <time>2019-10-17T13:01:34.000Z</time>
      </trkpt>
      <trkpt lat="47.29255" lon="-1.53683">
        <ele>10</ele>
        <time>2019-10-17T13:01:35.000Z</time>
      </trkpt>
      <trkpt lat="47.29255" lon="-1.53686">
        <ele>10</ele>
        <time>2019-10-17T13:01:36.000Z</time>
      </trkpt>
      <trkpt lat="47.29254" lon="-1.5369">
        <ele>9</ele>
        <time>2019-10-17T13:01:37.000Z</time>
      </trkpt>
      <trkpt lat="47.29254" lon="-1.53693">
        <ele>9</ele>
        <time>2019-10-17T13:01:38.000Z</time>
      </trkpt>
      <trkpt lat="47.29254" lon="-1.53696">
        <ele>8</ele>
        <time>2019-10-17T13:01:39.000Z</time>
      </trkpt>
      <trkpt lat="47.29254" lon="-1.53698">
        <ele>8</ele>
        <time>2019-10-17T13:01:40.000Z</time>
      </trkpt>
      <trkpt lat="47.29253" lon="-1.53701">
        <ele>8</ele>
        <time>2019-10-17T13:01:41.000Z</time>
      </trkpt>
      <trkpt lat="47.29253" lon="-1.53704">
        <ele>7</ele>
        <time>2019-10-17T13:01:42.000Z</time>
      </trkpt>
      <trkpt lat="47.29252" lon="-1.53707">
        <ele>7</ele>
        <time>2019-10-17T13:01:43.000Z</time>
      </trkpt>
      <trkpt lat="47.2925" lon="-1.5371">
        <ele>6</ele>
        <time>2019-10-17T13:01:44.000Z</time>
      </trkpt>
      <trkpt lat="47.2925" lon="-1.53713">
        <ele>6</ele>
        <time>2019-10-17T13:01:45.000Z</time>
      </trkpt>
      <trkpt lat="47.29249" lon="-1.53716">
        <ele>6</ele>
        <time>2019-10-17T13:01:46.000Z</time>
      </trkpt>
      <trkpt lat="47.29248" lon="-1.53718">
        <ele>5</ele>
        <time>2019-10-17T13:01:47.000Z</time>
      </trkpt>
      <trkpt lat="47.29246" lon="-1.53722">
        <ele>5</ele>
        <time>2019-10-17T13:01:48.000Z</time>
      </trkpt>
      <trkpt lat="47.29245" lon="-1.53725">
        <ele>5</ele>
        <time>2019-10-17T13:01:49.000Z</time>
      </trkpt>
      <trkpt lat="47.29243" lon="-1.53728">
        <ele>4</ele>
        <time>2019-10-17T13:01:50.000Z</time>
      </trkpt>
      <trkpt lat="47.29241" lon="-1.5373">
        <ele>4</ele>
        <time>2019-10-17T13:01:51.000Z</time>
      </trkpt>
      <trkpt lat="47.29241" lon="-1.53732">
        <ele>4</ele>
        <time>2019-10-17T13:01:52.000Z</time>
      </trkpt>
      <trkpt lat="47.2924" lon="-1.53734">
        <ele>4</ele>
        <time>2019-10-17T13:01:53.000Z</time>
      </trkpt>
      <trkpt lat="47.29238" lon="-1.53735">
        <ele>3</ele>
        <time>2019-10-17T13:01:54.000Z</time>
      </trkpt>
      <trkpt lat="47.29237" lon="-1.53737">
        <ele>3</ele>
        <time>2019-10-17T13:01:55.000Z</time>
      </trkpt>
      <trkpt lat="47.29236" lon="-1.53739">
        <ele>3</ele>
        <time>2019-10-17T13:01:56.000Z</time>
      </trkpt>
      <trkpt lat="47.29235" lon="-1.53741">
        <ele>3</ele>
        <time>2019-10-17T13:01:57.000Z</time>
      </trkpt>
      <trkpt lat="47.29233" lon="-1.53744">
        <ele>3</ele>
        <time>2019-10-17T13:01:58.000Z</time>
      </trkpt>
      <trkpt lat="47.29232" lon="-1.53747">
        <ele>3</ele>
        <time>2019-10-17T13:01:59.000Z</time>
      </trkpt>
      <trkpt lat="47.29231" lon="-1.53749">
        <ele>3</ele>
        <time>2019-10-17T13:02:00.000Z</time>
      </trkpt>
      <trkpt lat="47.29229" lon="-1.5375">
        <ele>3</ele>
        <time>2019-10-17T13:02:01.000Z</time>
      </trkpt>
      <trkpt lat="47.29228" lon="-1.53749">
        <ele>2</ele>
        <time>2019-10-17T13:02:02.000Z</time>
      </trkpt>
      <trkpt lat="47.29226" lon="-1.53748">
        <ele>2</ele>
        <time>2019-10-17T13:02:03.000Z</time>
      </trkpt>
      <trkpt lat="47.29224" lon="-1.53747">
        <ele>2</ele>
        <time>2019-10-17T13:02:04.000Z</time>
      </trkpt>
      <trkpt lat="47.29222" lon="-1.53746">
        <ele>2</ele>
        <time>2019-10-17T13:02:05.000Z</time>
      </trkpt>
      <trkpt lat="47.2922" lon="-1.53745">
        <ele>2</ele>
        <time>2019-10-17T13:02:06.000Z</time>
      </trkpt>
      <trkpt lat="47.29217" lon="-1.53743">
        <ele>1</ele>
        <time>2019-10-17T13:02:07.000Z</time>
      </trkpt>
      <trkpt lat="47.29215" lon="-1.53742">
        <ele>1</ele>
        <time>2019-10-17T13:02:08.000Z</time>
      </trkpt>
      <trkpt lat="47.29213" lon="-1.5374">
        <ele>1</ele>
        <time>2019-10-17T13:02:09.000Z</time>
      </trkpt>
      <trkpt lat="47.2921" lon="-1.53737">
        <ele>14.2</ele>
        <time>2019-10-17T13:02:10.000Z</time>
      </trkpt>
      <trkpt lat="47.29207" lon="-1.53737">
        <ele>14.4</ele>
        <time>2019-10-17T13:02:11.000Z</time>
      </trkpt>
      <trkpt lat="47.29203" lon="-1.53738">
        <ele>14.7</ele>
        <time>2019-10-17T13:02:12.000Z</time>
      </trkpt>
      <trkpt lat="47.292" lon="-1.53741">
        <ele>15</ele>
        <time>2019-10-17T13:02:13.000Z</time>
      </trkpt>
      <trkpt lat="47.29196" lon="-1.53744">
        <ele>15.5</ele>
        <time>2019-10-17T13:02:14.000Z</time>
      </trkpt>
      <trkpt lat="47.29193" lon="-1.53747">
        <ele>15.9</ele>
        <time>2019-10-17T13:02:15.000Z</time>
      </trkpt>
      <trkpt lat="47.29191" lon="-1.5375">
        <ele>16.1</ele>
        <time>2019-10-17T13:02:16.000Z</time>
      </trkpt>
      <trkpt lat="47.29189" lon="-1.53752">
        <ele>16.3</ele>
        <time>2019-10-17T13:02:17.000Z</time>
      </trkpt>
      <trkpt lat="47.29188" lon="-1.53755">
        <ele>16.4</ele>
        <time>2019-10-17T13:02:18.000Z</time>
      </trkpt>
      <trkpt lat="47.29186" lon="-1.53757">
        <ele>16.5</ele>
        <time>2019-10-17T13:02:19.000Z</time>
      </trkpt>
      <trkpt lat="47.29184" lon="-1.53759">
        <ele>16.7</ele>
        <time>2019-10-17T13:02:20.000Z</time>
      </trkpt>
      <trkpt lat="47.29184" lon="-1.53759">
        <ele>-1</ele>
        <time>2019-10-17T13:02:22.000Z</time>
      </trkpt>
      <trkpt lat="47.29184" lon="-1.53759">
        <ele>-1</ele>
        <time>2019-10-17T13:02:23.000Z</time>
      </trkpt>
      <trkpt lat="47.29174" lon="-1.5377">
        <ele>-1</ele>
        <time>2019-10-17T13:02:24.000Z</time>
      </trkpt>
      <trkpt lat="47.29172" lon="-1.53773">
        <ele>-1</ele>
        <time>2019-10-17T13:02:25.000Z</time>
      </trkpt>
      <trkpt lat="47.29172" lon="-1.53777">
        <ele>-1</ele>
        <time>2019-10-17T13:02:26.000Z</time>
      </trkpt>
      <trkpt lat="47.29172" lon="-1.53781">
        <ele>-1</ele>
        <time>2019-10-17T13:02:27.000Z</time>
      </trkpt>
      <trkpt lat="47.29173" lon="-1.53785">
        <ele>-1</ele>
        <time>2019-10-17T13:02:28.000Z</time>
      </trkpt>
      <trkpt lat="47.29174" lon="-1.53789">
        <ele>-1</ele>
        <time>2019-10-17T13:02:29.000Z</time>
      </trkpt>
      <trkpt lat="47.29176" lon="-1.53794">
        <ele>-1</ele>
        <time>2019-10-17T13:02:30.000Z</time>
      </trkpt>
      <trkpt lat="47.29178" lon="-1.53799">
        <ele>17.6</ele>
        <time>2019-10-17T13:02:31.000Z</time>
      </trkpt>
      <trkpt lat="47.2918" lon="-1.53804">
        <ele>17.5</ele>
        <time>2019-10-17T13:02:32.000Z</time>
      </trkpt>
      <trkpt lat="47.29181" lon="-1.5381">
        <ele>17.5</ele>
        <time>2019-10-17T13:02:33.000Z</time>
      </trkpt>
      <trkpt lat="47.2918" lon="-1.53816">
        <ele>17.5</ele>
        <time>2019-10-17T13:02:34.000Z</time>
      </trkpt>
      <trkpt lat="47.29178" lon="-1.53821">
        <ele>17.6</ele>
        <time>2019-10-17T13:02:35.000Z</time>
      </trkpt>
      <trkpt lat="47.29176" lon="-1.53827">
        <ele>1</ele>
        <time>2019-10-17T13:02:36.000Z</time>
      </trkpt>
      <trkpt lat="47.29173" lon="-1.53832">
        <ele>2</ele>
        <time>2019-10-17T13:02:37.000Z</time>
      </trkpt>
      <trkpt lat="47.29171" lon="-1.53838">
        <ele>2</ele>
        <time>2019-10-17T13:02:38.000Z</time>
      </trkpt>
      <trkpt lat="47.29168" lon="-1.53843">
        <ele>3</ele>
        <time>2019-10-17T13:02:39.000Z</time>
      </trkpt>
      <trkpt lat="47.29165" lon="-1.53849">
        <ele>3</ele>
        <time>2019-10-17T13:02:40.000Z</time>
      </trkpt>
      <trkpt lat="47.29162" lon="-1.53856">
        <ele>4</ele>
        <time>2019-10-17T13:02:41.000Z</time>
      </trkpt>
      <trkpt lat="47.2916" lon="-1.53862">
        <ele>4</ele>
        <time>2019-10-17T13:02:42.000Z</time>
      </trkpt>
      <trkpt lat="47.29157" lon="-1.53867">
        <ele>5</ele>
        <time>2019-10-17T13:02:43.000Z</time>
      </trkpt>
      <trkpt lat="47.29154" lon="-1.53873">
        <ele>5</ele>
        <time>2019-10-17T13:02:44.000Z</time>
      </trkpt>
      <trkpt lat="47.29151" lon="-1.53879">
        <ele>5</ele>
        <time>2019-10-17T13:02:45.000Z</time>
      </trkpt>
      <trkpt lat="47.29147" lon="-1.53884">
        <ele>5</ele>
        <time>2019-10-17T13:02:46.000Z</time>
      </trkpt>
      <trkpt lat="47.29144" lon="-1.5389">
        <ele>6</ele>
        <time>2019-10-17T13:02:47.000Z</time>
      </trkpt>
      <trkpt lat="47.29142" lon="-1.53895">
        <ele>6</ele>
        <time>2019-10-17T13:02:48.000Z</time>
      </trkpt>
      <trkpt lat="47.29139" lon="-1.53901">
        <ele>6</ele>
        <time>2019-10-17T13:02:49.000Z</time>
      </trkpt>
      <trkpt lat="47.29136" lon="-1.53907">
        <ele>6</ele>
        <time>2019-10-17T13:02:50.000Z</time>
      </trkpt>
      <trkpt lat="47.29133" lon="-1.53912">
        <ele>6</ele>
        <time>2019-10-17T13:02:51.000Z</time>
      </trkpt>
      <trkpt lat="47.2913" lon="-1.53918">
        <ele>6</ele>
        <time>2019-10-17T13:02:52.000Z</time>
      </trkpt>
      <trkpt lat="47.29127" lon="-1.53923">
        <ele>7</ele>
        <time>2019-10-17T13:02:53.000Z</time>
      </trkpt>
      <trkpt lat="47.29124" lon="-1.53929">
        <ele>7</ele>
        <time>2019-10-17T13:02:54.000Z</time>
      </trkpt>
      <trkpt lat="47.29121" lon="-1.53935">
        <ele>7</ele>
        <time>2019-10-17T13:02:55.000Z</time>
      </trkpt>
      <trkpt lat="47.29118" lon="-1.53941">
        <ele>7</ele>
        <time>2019-10-17T13:02:56.000Z</time>
      </trkpt>
      <trkpt lat="47.29114" lon="-1.53947">
        <ele>7</ele>
        <time>2019-10-17T13:02:57.000Z</time>
      </trkpt>
      <trkpt lat="47.29111" lon="-1.53952">
        <ele>7</ele>
        <time>2019-10-17T13:02:58.000Z</time>
      </trkpt>
      <trkpt lat="47.29107" lon="-1.53958">
        <ele>8</ele>
        <time>2019-10-17T13:02:59.000Z</time>
      </trkpt>
      <trkpt lat="47.29104" lon="-1.53963">
        <ele>8</ele>
        <time>2019-10-17T13:03:00.000Z</time>
      </trkpt>
      <trkpt lat="47.29101" lon="-1.53968">
        <ele>8</ele>
        <time>2019-10-17T13:03:01.000Z</time>
      </trkpt>
      <trkpt lat="47.29098" lon="-1.53973">
        <ele>8</ele>
        <time>2019-10-17T13:03:02.000Z</time>
      </trkpt>
      <trkpt lat="47.29095" lon="-1.53978">
        <ele>8</ele>
        <time>2019-10-17T13:03:03.000Z</time>
      </trkpt>
      <trkpt lat="47.29093" lon="-1.53983">
        <ele>8</ele>
        <time>2019-10-17T13:03:04.000Z</time>
      </trkpt>
      <trkpt lat="47.29093" lon="-1.53989">
        <ele>9</ele>
        <time>2019-10-17T13:03:05.000Z</time>
      </trkpt>
      <trkpt lat="47.29093" lon="-1.53995">
        <ele>9</ele>
        <time>2019-10-17T13:03:06.000Z</time>
      </trkpt>
      <trkpt lat="47.29094" lon="-1.54001">
        <ele>9</ele>
        <time>2019-10-17T13:03:07.000Z</time>
      </trkpt>
      <trkpt lat="47.29097" lon="-1.54007">
        <ele>9</ele>
        <time>2019-10-17T13:03:08.000Z</time>
      </trkpt>
      <trkpt lat="47.291" lon="-1.54014">
        <ele>9</ele>
        <time>2019-10-17T13:03:09.000Z</time>
      </trkpt>
      <trkpt lat="47.29104" lon="-1.5402">
        <ele>9</ele>
        <time>2019-10-17T13:03:10.000Z</time>
      </trkpt>
      <trkpt lat="47.29107" lon="-1.54028">
        <ele>9</ele>
        <time>2019-10-17T13:03:11.000Z</time>
      </trkpt>
      <trkpt lat="47.2911" lon="-1.54035">
        <ele>9</ele>
        <time>2019-10-17T13:03:12.000Z</time>
      </trkpt>
      <trkpt lat="47.29113" lon="-1.54042">
        <ele>9</ele>
        <time>2019-10-17T13:03:13.000Z</time>
      </trkpt>
      <trkpt lat="47.29115" lon="-1.5405">
        <ele>9</ele>
        <time>2019-10-17T13:03:14.000Z</time>
      </trkpt>
      <trkpt lat="47.29118" lon="-1.54058">
        <ele>9</ele>
        <time>2019-10-17T13:03:15.000Z</time>
      </trkpt>
      <trkpt lat="47.29122" lon="-1.54065">
        <ele>9</ele>
        <time>2019-10-17T13:03:16.000Z</time>
      </trkpt>
      <trkpt lat="47.29126" lon="-1.54071">
        <ele>9</ele>
        <time>2019-10-17T13:03:17.000Z</time>
      </trkpt>
      <trkpt lat="47.2913" lon="-1.54075">
        <ele>9</ele>
        <time>2019-10-17T13:03:18.000Z</time>
      </trkpt>
      <trkpt lat="47.29135" lon="-1.54075">
        <ele>9</ele>
        <time>2019-10-17T13:03:19.000Z</time>
      </trkpt>
      <trkpt lat="47.29139" lon="-1.54073">
        <ele>9</ele>
        <time>2019-10-17T13:03:20.000Z</time>
      </trkpt>
      <trkpt lat="47.29144" lon="-1.54069">
        <ele>9</ele>
        <time>2019-10-17T13:03:21.000Z</time>
      </trkpt>
      <trkpt lat="47.29148" lon="-1.54067">
        <ele>9</ele>
        <time>2019-10-17T13:03:22.000Z</time>
      </trkpt>
      <trkpt lat="47.29153" lon="-1.54063">
        <ele>8</ele>
        <time>2019-10-17T13:03:23.000Z</time>
      </trkpt>
      <trkpt lat="47.29158" lon="-1.54061">
        <ele>8</ele>
        <time>2019-10-17T13:03:24.000Z</time>
      </trkpt>
      <trkpt lat="47.29163" lon="-1.54058">
        <ele>8</ele>
        <time>2019-10-17T13:03:25.000Z</time>
      </trkpt>
      <trkpt lat="47.29167" lon="-1.54056">
        <ele>8</ele>
        <time>2019-10-17T13:03:26.000Z</time>
      </trkpt>
      <trkpt lat="47.29172" lon="-1.54054">
        <ele>7</ele>
        <time>2019-10-17T13:03:27.000Z</time>
      </trkpt>
      <trkpt lat="47.29177" lon="-1.54052">
        <ele>7</ele>
        <time>2019-10-17T13:03:28.000Z</time>
      </trkpt>
      <trkpt lat="47.2918" lon="-1.5405">
        <ele>7</ele>
        <time>2019-10-17T13:03:29.000Z</time>
      </trkpt>
      <trkpt lat="47.29184" lon="-1.54048">
        <ele>7</ele>
        <time>2019-10-17T13:03:30.000Z</time>
      </trkpt>
      <trkpt lat="47.29188" lon="-1.54045">
        <ele>7</ele>
        <time>2019-10-17T13:03:31.000Z</time>
      </trkpt>
      <trkpt lat="47.29191" lon="-1.54041">
        <ele>6</ele>
        <time>2019-10-17T13:03:32.000Z</time>
      </trkpt>
      <trkpt lat="47.29195" lon="-1.54037">
        <ele>6</ele>
        <time>2019-10-17T13:03:33.000Z</time>
      </trkpt>
      <trkpt lat="47.29199" lon="-1.54033">
        <ele>6</ele>
        <time>2019-10-17T13:03:34.000Z</time>
      </trkpt>
      <trkpt lat="47.29204" lon="-1.5403">
        <ele>6</ele>
        <time>2019-10-17T13:03:35.000Z</time>
      </trkpt>
      <trkpt lat="47.29208" lon="-1.54026">
        <ele>6</ele>
        <time>2019-10-17T13:03:36.000Z</time>
      </trkpt>
      <trkpt lat="47.29213" lon="-1.54023">
        <ele>6</ele>
        <time>2019-10-17T13:03:37.000Z</time>
      </trkpt>
      <trkpt lat="47.29217" lon="-1.5402">
        <ele>6</ele>
        <time>2019-10-17T13:03:38.000Z</time>
      </trkpt>
      <trkpt lat="47.29221" lon="-1.54017">
        <ele>6</ele>
        <time>2019-10-17T13:03:39.000Z</time>
      </trkpt>
      <trkpt lat="47.29225" lon="-1.54015">
        <ele>5</ele>
        <time>2019-10-17T13:03:40.000Z</time>
      </trkpt>
      <trkpt lat="47.29229" lon="-1.54013">
        <ele>5</ele>
        <time>2019-10-17T13:03:41.000Z</time>
      </trkpt>
      <trkpt lat="47.29233" lon="-1.5401">
        <ele>5</ele>
        <time>2019-10-17T13:03:42.000Z</time>
      </trkpt>
      <trkpt lat="47.29237" lon="-1.54007">
        <ele>5</ele>
        <time>2019-10-17T13:03:43.000Z</time>
      </trkpt>
      <trkpt lat="47.29241" lon="-1.54003">
        <ele>5</ele>
        <time>2019-10-17T13:03:44.000Z</time>
      </trkpt>
      <trkpt lat="47.29244" lon="-1.54001">
        <ele>5</ele>
        <time>2019-10-17T13:03:45.000Z</time>
      </trkpt>
      <trkpt lat="47.29247" lon="-1.53997">
        <ele>5</ele>
        <time>2019-10-17T13:03:46.000Z</time>
      </trkpt>
      <trkpt lat="47.29251" lon="-1.53994">
        <ele>5</ele>
        <time>2019-10-17T13:03:47.000Z</time>
      </trkpt>
      <trkpt lat="47.29255" lon="-1.53991">
        <ele>5</ele>
        <time>2019-10-17T13:03:48.000Z</time>
      </trkpt>
      <trkpt lat="47.29258" lon="-1.53988">
        <ele>5</ele>
        <time>2019-10-17T13:03:49.000Z</time>
      </trkpt>
      <trkpt lat="47.29261" lon="-1.53985">
        <ele>5</ele>
        <time>2019-10-17T13:03:50.000Z</time>
      </trkpt>
      <trkpt lat="47.29264" lon="-1.53982">
        <ele>5</ele>
        <time>2019-10-17T13:03:51.000Z</time>
      </trkpt>
      <trkpt lat="47.29267" lon="-1.53978">
        <ele>5</ele>
        <time>2019-10-17T13:03:52.000Z</time>
      </trkpt>
      <trkpt lat="47.29271" lon="-1.53974">
        <ele>5</ele>
        <time>2019-10-17T13:03:53.000Z</time>
      </trkpt>
      <trkpt lat="47.29276" lon="-1.5397">
        <ele>5</ele>
        <time>2019-10-17T13:03:54.000Z</time>
      </trkpt>
      <trkpt lat="47.29281" lon="-1.53967">
        <ele>5</ele>
        <time>2019-10-17T13:03:55.000Z</time>
      </trkpt>
      <trkpt lat="47.29286" lon="-1.53964">
        <ele>5</ele>
        <time>2019-10-17T13:03:56.000Z</time>
      </trkpt>
      <trkpt lat="47.29291" lon="-1.53961">
        <ele>5</ele>
        <time>2019-10-17T13:03:57.000Z</time>
      </trkpt>
      <trkpt lat="47.29295" lon="-1.53958">
        <ele>5</ele>
        <time>2019-10-17T13:03:58.000Z</time>
      </trkpt>
      <trkpt lat="47.29298" lon="-1.53955">
        <ele>5</ele>
        <time>2019-10-17T13:03:59.000Z</time>
      </trkpt>
      <trkpt lat="47.29301" lon="-1.53952">
        <ele>5</ele>
        <time>2019-10-17T13:04:00.000Z</time>
      </trkpt>
      <trkpt lat="47.29304" lon="-1.53948">
        <ele>5</ele>
        <time>2019-10-17T13:04:01.000Z</time>
      </trkpt>
      <trkpt lat="47.29307" lon="-1.53945">
        <ele>5</ele>
        <time>2019-10-17T13:04:02.000Z</time>
      </trkpt>
      <trkpt lat="47.2931" lon="-1.53942">
        <ele>5</ele>
        <time>2019-10-17T13:04:03.000Z</time>
      </trkpt>
      <trkpt lat="47.29312" lon="-1.53941">
        <ele>6</ele>
        <time>2019-10-17T13:04:04.000Z</time>
      </trkpt>
      <trkpt lat="47.29314" lon="-1.53942">
        <ele>6</ele>
        <time>2019-10-17T13:04:05.000Z</time>
      </trkpt>
      <trkpt lat="47.29316" lon="-1.53943">
        <ele>6</ele>
        <time>2019-10-17T13:04:06.000Z</time>
      </trkpt>
      <trkpt lat="47.29317" lon="-1.53946">
        <ele>6</ele>
        <time>2019-10-17T13:04:07.000Z</time>
      </trkpt>
      <trkpt lat="47.29319" lon="-1.53949">
        <ele>6</ele>
        <time>2019-10-17T13:04:08.000Z</time>
      </trkpt>
      <trkpt lat="47.29323" lon="-1.53952">
        <ele>6</ele>
        <time>2019-10-17T13:04:09.000Z</time>
      </trkpt>
      <trkpt lat="47.29323" lon="-1.53952">
        <ele>7</ele>
        <time>2019-10-17T13:04:11.000Z</time>
      </trkpt>
      <trkpt lat="47.29323" lon="-1.53952">
        <ele>7</ele>
        <time>2019-10-17T13:04:18.000Z</time>
      </trkpt>
      <trkpt lat="47.29323" lon="-1.53952">
        <ele>7</ele>
        <time>2019-10-17T13:04:19.000Z</time>
      </trkpt>
      <trkpt lat="47.29362" lon="-1.53963">
        <ele>7</ele>
        <time>2019-10-17T13:04:20.000Z</time>
      </trkpt>
      <trkpt lat="47.29364" lon="-1.53969">
        <ele>7</ele>
        <time>2019-10-17T13:04:21.000Z</time>
      </trkpt>
      <trkpt lat="47.29365" lon="-1.53974">
        <ele>6</ele>
        <time>2019-10-17T13:04:22.000Z</time>
      </trkpt>
      <trkpt lat="47.29365" lon="-1.53974">
        <ele>4</ele>
        <time>2019-10-17T13:04:25.000Z</time>
      </trkpt>
      <trkpt lat="47.29365" lon="-1.53974">
        <ele>4</ele>
        <time>2019-10-17T13:04:26.000Z</time>
      </trkpt>
      <trkpt lat="47.29365" lon="-1.53974">
        <ele>1</ele>
        <time>2019-10-17T13:04:31.000Z</time>
      </trkpt>
      <trkpt lat="47.29365" lon="-1.53974">
        <ele>6</ele>
        <time>2019-10-17T13:04:35.000Z</time>
      </trkpt>
      <trkpt lat="47.29365" lon="-1.53974">
        <ele>-5</ele>
        <time>2019-10-17T13:04:40.000Z</time>
      </trkpt>
      <trkpt lat="47.29365" lon="-1.53974">
        <ele>-5</ele>
        <time>2019-10-17T13:04:41.000Z</time>
      </trkpt>
      <trkpt lat="47.29431" lon="-1.53973">
        <ele>-5</ele>
        <time>2019-10-17T13:04:42.000Z</time>
      </trkpt>
      <trkpt lat="47.29431" lon="-1.53968">
        <ele>-5</ele>
        <time>2019-10-17T13:04:43.000Z</time>
      </trkpt>
      <trkpt lat="47.29431" lon="-1.53964">
        <ele>-4</ele>
        <time>2019-10-17T13:04:44.000Z</time>
      </trkpt>
      <trkpt lat="47.29431" lon="-1.53958">
        <ele>-4</ele>
        <time>2019-10-17T13:04:45.000Z</time>
      </trkpt>
      <trkpt lat="47.29431" lon="-1.53951">
        <ele>-4</ele>
        <time>2019-10-17T13:04:46.000Z</time>
      </trkpt>
      <trkpt lat="47.29431" lon="-1.53944">
        <ele>-4</ele>
        <time>2019-10-17T13:04:47.000Z</time>
      </trkpt>
      <trkpt lat="47.2943" lon="-1.53937">
        <ele>-4</ele>
        <time>2019-10-17T13:04:48.000Z</time>
      </trkpt>
      <trkpt lat="47.2943" lon="-1.5393">
        <ele>-3</ele>
        <time>2019-10-17T13:04:49.000Z</time>
      </trkpt>
      <trkpt lat="47.2943" lon="-1.53923">
        <ele>-3</ele>
        <time>2019-10-17T13:04:50.000Z</time>
      </trkpt>
      <trkpt lat="47.2943" lon="-1.53916">
        <ele>-3</ele>
        <time>2019-10-17T13:04:51.000Z</time>
      </trkpt>
      <trkpt lat="47.29429" lon="-1.53907">
        <ele>-2</ele>
        <time>2019-10-17T13:04:52.000Z</time>
      </trkpt>
      <trkpt lat="47.29428" lon="-1.53898">
        <ele>-2</ele>
        <time>2019-10-17T13:04:53.000Z</time>
      </trkpt>
      <trkpt lat="47.29427" lon="-1.53889">
        <ele>-1</ele>
        <time>2019-10-17T13:04:54.000Z</time>
      </trkpt>
      <trkpt lat="47.29426" lon="-1.53883">
        <ele>-1</ele>
        <time>2019-10-17T13:04:55.000Z</time>
      </trkpt>
      <trkpt lat="47.29425" lon="-1.53879">
        <ele>8.1</ele>
        <time>2019-10-17T13:04:56.000Z</time>
      </trkpt>
      <trkpt lat="47.29424" lon="-1.53875">
        <ele>1</ele>
        <time>2019-10-17T13:04:57.000Z</time>
      </trkpt>
      <trkpt lat="47.29423" lon="-1.53871">
        <ele>3</ele>
        <time>2019-10-17T13:04:58.000Z</time>
      </trkpt>
      <trkpt lat="47.29423" lon="-1.53866">
        <ele>4</ele>
        <time>2019-10-17T13:04:59.000Z</time>
      </trkpt>
      <trkpt lat="47.29422" lon="-1.53863">
        <ele>6</ele>
        <time>2019-10-17T13:05:00.000Z</time>
      </trkpt>
      <trkpt lat="47.29422" lon="-1.53859">
        <ele>7</ele>
        <time>2019-10-17T13:05:01.000Z</time>
      </trkpt>
      <trkpt lat="47.29423" lon="-1.53854">
        <ele>7</ele>
        <time>2019-10-17T13:05:02.000Z</time>
      </trkpt>
      <trkpt lat="47.29423" lon="-1.53848">
        <ele>8</ele>
        <time>2019-10-17T13:05:03.000Z</time>
      </trkpt>
      <trkpt lat="47.29423" lon="-1.53842">
        <ele>8</ele>
        <time>2019-10-17T13:05:04.000Z</time>
      </trkpt>
      <trkpt lat="47.29423" lon="-1.53837">
        <ele>9</ele>
        <time>2019-10-17T13:05:05.000Z</time>
      </trkpt>
      <trkpt lat="47.29424" lon="-1.53832">
        <ele>10</ele>
        <time>2019-10-17T13:05:06.000Z</time>
      </trkpt>
      <trkpt lat="47.29424" lon="-1.53826">
        <ele>10</ele>
        <time>2019-10-17T13:05:07.000Z</time>
      </trkpt>
      <trkpt lat="47.29425" lon="-1.53819">
        <ele>11</ele>
        <time>2019-10-17T13:05:08.000Z</time>
      </trkpt>
      <trkpt lat="47.29425" lon="-1.5381">
        <ele>11</ele>
        <time>2019-10-17T13:05:09.000Z</time>
      </trkpt>
      <trkpt lat="47.29426" lon="-1.53802">
        <ele>11</ele>
        <time>2019-10-17T13:05:10.000Z</time>
      </trkpt>
      <trkpt lat="47.29427" lon="-1.53794">
        <ele>11</ele>
        <time>2019-10-17T13:05:11.000Z</time>
      </trkpt>
      <trkpt lat="47.29428" lon="-1.53785">
        <ele>11</ele>
        <time>2019-10-17T13:05:12.000Z</time>
      </trkpt>
      <trkpt lat="47.2943" lon="-1.53776">
        <ele>11</ele>
        <time>2019-10-17T13:05:13.000Z</time>
      </trkpt>
      <trkpt lat="47.29431" lon="-1.53768">
        <ele>11</ele>
        <time>2019-10-17T13:05:14.000Z</time>
      </trkpt>
      <trkpt lat="47.29431" lon="-1.5376">
        <ele>10</ele>
        <time>2019-10-17T13:05:15.000Z</time>
      </trkpt>
      <trkpt lat="47.29432" lon="-1.53752">
        <ele>10</ele>
        <time>2019-10-17T13:05:16.000Z</time>
      </trkpt>
      <trkpt lat="47.29433" lon="-1.53745">
        <ele>10</ele>
        <time>2019-10-17T13:05:17.000Z</time>
      </trkpt>
      <trkpt lat="47.29434" lon="-1.53738">
        <ele>10</ele>
        <time>2019-10-17T13:05:18.000Z</time>
      </trkpt>
      <trkpt lat="47.29436" lon="-1.53732">
        <ele>10</ele>
        <time>2019-10-17T13:05:19.000Z</time>
      </trkpt>
      <trkpt lat="47.29438" lon="-1.53728">
        <ele>10</ele>
        <time>2019-10-17T13:05:20.000Z</time>
      </trkpt>
      <trkpt lat="47.2944" lon="-1.53723">
        <ele>10</ele>
        <time>2019-10-17T13:05:21.000Z</time>
      </trkpt>
      <trkpt lat="47.29442" lon="-1.53718">
        <ele>10</ele>
        <time>2019-10-17T13:05:22.000Z</time>
      </trkpt>
      <trkpt lat="47.29444" lon="-1.53713">
        <ele>10</ele>
        <time>2019-10-17T13:05:23.000Z</time>
      </trkpt>
      <trkpt lat="47.29446" lon="-1.53708">
        <ele>10</ele>
        <time>2019-10-17T13:05:24.000Z</time>
      </trkpt>
      <trkpt lat="47.2945" lon="-1.53703">
        <ele>10</ele>
        <time>2019-10-17T13:05:25.000Z</time>
      </trkpt>
      <trkpt lat="47.29454" lon="-1.537">
        <ele>10</ele>
        <time>2019-10-17T13:05:26.000Z</time>
      </trkpt>
      <trkpt lat="47.29454" lon="-1.537">
        <ele>10</ele>
        <time>2019-10-17T13:05:29.000Z</time>
      </trkpt>
      <trkpt lat="47.29454" lon="-1.537">
        <ele>10</ele>
        <time>2019-10-17T13:05:30.000Z</time>
      </trkpt>
      <trkpt lat="47.29476" lon="-1.53688">
        <ele>10</ele>
        <time>2019-10-17T13:05:31.000Z</time>
      </trkpt>
      <trkpt lat="47.2948" lon="-1.53686">
        <ele>10</ele>
        <time>2019-10-17T13:05:32.000Z</time>
      </trkpt>
      <trkpt lat="47.29482" lon="-1.53683">
        <ele>10</ele>
        <time>2019-10-17T13:05:33.000Z</time>
      </trkpt>
      <trkpt lat="47.29486" lon="-1.5368">
        <ele>9</ele>
        <time>2019-10-17T13:05:34.000Z</time>
      </trkpt>
      <trkpt lat="47.29491" lon="-1.53678">
        <ele>9</ele>
        <time>2019-10-17T13:05:35.000Z</time>
      </trkpt>
      <trkpt lat="47.29497" lon="-1.53676">
        <ele>9</ele>
        <time>2019-10-17T13:05:36.000Z</time>
      </trkpt>
      <trkpt lat="47.29503" lon="-1.53674">
        <ele>8</ele>
        <time>2019-10-17T13:05:37.000Z</time>
      </trkpt>
      <trkpt lat="47.2951" lon="-1.53671">
        <ele>7</ele>
        <time>2019-10-17T13:05:38.000Z</time>
      </trkpt>
      <trkpt lat="47.29517" lon="-1.53667">
        <ele>7</ele>
        <time>2019-10-17T13:05:39.000Z</time>
      </trkpt>
      <trkpt lat="47.29523" lon="-1.53663">
        <ele>6</ele>
        <time>2019-10-17T13:05:40.000Z</time>
      </trkpt>
      <trkpt lat="47.29529" lon="-1.53658">
        <ele>6</ele>
        <time>2019-10-17T13:05:41.000Z</time>
      </trkpt>
      <trkpt lat="47.29536" lon="-1.53653">
        <ele>6</ele>
        <time>2019-10-17T13:05:42.000Z</time>
      </trkpt>
      <trkpt lat="47.29541" lon="-1.53649">
        <ele>6</ele>
        <time>2019-10-17T13:05:43.000Z</time>
      </trkpt>
      <trkpt lat="47.29547" lon="-1.53644">
        <ele>6</ele>
        <time>2019-10-17T13:05:44.000Z</time>
      </trkpt>
      <trkpt lat="47.29552" lon="-1.53637">
        <ele>5</ele>
        <time>2019-10-17T13:05:45.000Z</time>
      </trkpt>
      <trkpt lat="47.29556" lon="-1.53631">
        <ele>5</ele>
        <time>2019-10-17T13:05:46.000Z</time>
      </trkpt>
      <trkpt lat="47.29561" lon="-1.53626">
        <ele>4</ele>
        <time>2019-10-17T13:05:47.000Z</time>
      </trkpt>
      <trkpt lat="47.29565" lon="-1.5362">
        <ele>3</ele>
        <time>2019-10-17T13:05:48.000Z</time>
      </trkpt>
      <trkpt lat="47.2957" lon="-1.53613">
        <ele>2</ele>
        <time>2019-10-17T13:05:49.000Z</time>
      </trkpt>
      <trkpt lat="47.29574" lon="-1.53607">
        <ele>1</ele>
        <time>2019-10-17T13:05:50.000Z</time>
      </trkpt>
      <trkpt lat="47.29578" lon="-1.53601">
        <ele>5.9</ele>
        <time>2019-10-17T13:05:51.000Z</time>
      </trkpt>
      <trkpt lat="47.29583" lon="-1.53594">
        <ele>5.7</ele>
        <time>2019-10-17T13:05:52.000Z</time>
      </trkpt>
      <trkpt lat="47.29587" lon="-1.53586">
        <ele>-2</ele>
        <time>2019-10-17T13:05:53.000Z</time>
      </trkpt>
      <trkpt lat="47.29592" lon="-1.53578">
        <ele>-3</ele>
        <time>2019-10-17T13:05:54.000Z</time>
      </trkpt>
      <trkpt lat="47.29595" lon="-1.5357">
        <ele>-5</ele>
        <time>2019-10-17T13:05:55.000Z</time>
      </trkpt>
      <trkpt lat="47.29599" lon="-1.53563">
        <ele>-7</ele>
        <time>2019-10-17T13:05:56.000Z</time>
      </trkpt>
      <trkpt lat="47.29603" lon="-1.53555">
        <ele>-9</ele>
        <time>2019-10-17T13:05:57.000Z</time>
      </trkpt>
      <trkpt lat="47.29605" lon="-1.53548">
        <ele>-10</ele>
        <time>2019-10-17T13:05:58.000Z</time>
      </trkpt>
      <trkpt lat="47.29607" lon="-1.53541">
        <ele>-11</ele>
        <time>2019-10-17T13:05:59.000Z</time>
      </trkpt>
      <trkpt lat="47.29608" lon="-1.53533">
        <ele>-11</ele>
        <time>2019-10-17T13:06:00.000Z</time>
      </trkpt>
      <trkpt lat="47.2961" lon="-1.53525">
        <ele>-11</ele>
        <time>2019-10-17T13:06:01.000Z</time>
      </trkpt>
      <trkpt lat="47.29612" lon="-1.53518">
        <ele>-11</ele>
        <time>2019-10-17T13:06:02.000Z</time>
      </trkpt>
      <trkpt lat="47.29615" lon="-1.53511">
        <ele>-11</ele>
        <time>2019-10-17T13:06:03.000Z</time>
      </trkpt>
      <trkpt lat="47.29618" lon="-1.53504">
        <ele>-11</ele>
        <time>2019-10-17T13:06:04.000Z</time>
      </trkpt>
      <trkpt lat="47.29621" lon="-1.53498">
        <ele>-11</ele>
        <time>2019-10-17T13:06:05.000Z</time>
      </trkpt>
      <trkpt lat="47.29624" lon="-1.53491">
        <ele>-11</ele>
        <time>2019-10-17T13:06:06.000Z</time>
      </trkpt>
      <trkpt lat="47.29627" lon="-1.53484">
        <ele>-11</ele>
        <time>2019-10-17T13:06:07.000Z</time>
      </trkpt>
      <trkpt lat="47.29631" lon="-1.53477">
        <ele>-11</ele>
        <time>2019-10-17T13:06:08.000Z</time>
      </trkpt>
      <trkpt lat="47.29634" lon="-1.53472">
        <ele>-11</ele>
        <time>2019-10-17T13:06:09.000Z</time>
      </trkpt>
      <trkpt lat="47.29634" lon="-1.53472">
        <ele>-12</ele>
        <time>2019-10-17T13:06:11.000Z</time>
      </trkpt>
      <trkpt lat="47.29634" lon="-1.53472">
        <ele>-12</ele>
        <time>2019-10-17T13:06:12.000Z</time>
      </trkpt>
      <trkpt lat="47.29634" lon="-1.53472">
        <ele>-13</ele>
        <time>2019-10-17T13:06:15.000Z</time>
      </trkpt>
      <trkpt lat="47.29634" lon="-1.53472">
        <ele>-13</ele>
        <time>2019-10-17T13:06:16.000Z</time>
      </trkpt>
      <trkpt lat="47.29671" lon="-1.53425">
        <ele>-13</ele>
        <time>2019-10-17T13:06:17.000Z</time>
      </trkpt>
      <trkpt lat="47.29676" lon="-1.5342">
        <ele>-13</ele>
        <time>2019-10-17T13:06:18.000Z</time>
      </trkpt>
      <trkpt lat="47.2968" lon="-1.53414">
        <ele>-13</ele>
        <time>2019-10-17T13:06:19.000Z</time>
      </trkpt>
      <trkpt lat="47.29685" lon="-1.5341">
        <ele>-13</ele>
        <time>2019-10-17T13:06:20.000Z</time>
      </trkpt>
      <trkpt lat="47.2969" lon="-1.53405">
        <ele>-13</ele>
        <time>2019-10-17T13:06:21.000Z</time>
      </trkpt>
      <trkpt lat="47.29695" lon="-1.53402">
        <ele>-13</ele>
        <time>2019-10-17T13:06:22.000Z</time>
      </trkpt>
      <trkpt lat="47.29699" lon="-1.53398">
        <ele>-12</ele>
        <time>2019-10-17T13:06:23.000Z</time>
      </trkpt>
      <trkpt lat="47.29703" lon="-1.53395">
        <ele>-12</ele>
        <time>2019-10-17T13:06:24.000Z</time>
      </trkpt>
      <trkpt lat="47.29709" lon="-1.53392">
        <ele>-12</ele>
        <time>2019-10-17T13:06:25.000Z</time>
      </trkpt>
      <trkpt lat="47.29709" lon="-1.53392">
        <ele>-11</ele>
        <time>2019-10-17T13:06:27.000Z</time>
      </trkpt>
      <trkpt lat="47.29709" lon="-1.53392">
        <ele>-11</ele>
        <time>2019-10-17T13:06:28.000Z</time>
      </trkpt>
      <trkpt lat="47.29727" lon="-1.5338">
        <ele>-10</ele>
        <time>2019-10-17T13:06:29.000Z</time>
      </trkpt>
      <trkpt lat="47.29731" lon="-1.53376">
        <ele>-10</ele>
        <time>2019-10-17T13:06:30.000Z</time>
      </trkpt>
      <trkpt lat="47.29735" lon="-1.53374">
        <ele>-9</ele>
        <time>2019-10-17T13:06:31.000Z</time>
      </trkpt>
      <trkpt lat="47.2974" lon="-1.53371">
        <ele>-8</ele>
        <time>2019-10-17T13:06:32.000Z</time>
      </trkpt>
      <trkpt lat="47.2974" lon="-1.53371">
        <ele>-6</ele>
        <time>2019-10-17T13:06:34.000Z</time>
      </trkpt>
      <trkpt lat="47.2974" lon="-1.53371">
        <ele>-5</ele>
        <time>2019-10-17T13:06:35.000Z</time>
      </trkpt>
      <trkpt lat="47.29759" lon="-1.53361">
        <ele>-4</ele>
        <time>2019-10-17T13:06:36.000Z</time>
      </trkpt>
      <trkpt lat="47.29765" lon="-1.53359">
        <ele>-3</ele>
        <time>2019-10-17T13:06:37.000Z</time>
      </trkpt>
      <trkpt lat="47.2977" lon="-1.53358">
        <ele>-2</ele>
        <time>2019-10-17T13:06:38.000Z</time>
      </trkpt>
      <trkpt lat="47.29774" lon="-1.53359">
        <ele>-1</ele>
        <time>2019-10-17T13:06:39.000Z</time>
      </trkpt>
      <trkpt lat="47.29778" lon="-1.53362">
        <ele>5</ele>
        <time>2019-10-17T13:06:40.000Z</time>
      </trkpt>
      <trkpt lat="47.29782" lon="-1.53366">
        <ele>5.3</ele>
        <time>2019-10-17T13:06:41.000Z</time>
      </trkpt>
      <trkpt lat="47.29786" lon="-1.53372">
        <ele>5.7</ele>
        <time>2019-10-17T13:06:42.000Z</time>
      </trkpt>
      <trkpt lat="47.2979" lon="-1.53376">
        <ele>6</ele>
        <time>2019-10-17T13:06:43.000Z</time>
      </trkpt>
      <trkpt lat="47.29794" lon="-1.53379">
        <ele>1</ele>
        <time>2019-10-17T13:06:44.000Z</time>
      </trkpt>
      <trkpt lat="47.29798" lon="-1.5338">
        <ele>1</ele>
        <time>2019-10-17T13:06:45.000Z</time>
      </trkpt>
      <trkpt lat="47.29801" lon="-1.53378">
        <ele>2</ele>
        <time>2019-10-17T13:06:46.000Z</time>
      </trkpt>
      <trkpt lat="47.29802" lon="-1.53375">
        <ele>2</ele>
        <time>2019-10-17T13:06:47.000Z</time>
      </trkpt>
      <trkpt lat="47.29802" lon="-1.5337">
        <ele>2</ele>
        <time>2019-10-17T13:06:48.000Z</time>
      </trkpt>
      <trkpt lat="47.29803" lon="-1.53365">
        <ele>2</ele>
        <time>2019-10-17T13:06:49.000Z</time>
      </trkpt>
      <trkpt lat="47.29805" lon="-1.5336">
        <ele>2</ele>
        <time>2019-10-17T13:06:50.000Z</time>
      </trkpt>
      <trkpt lat="47.29807" lon="-1.53354">
        <ele>1</ele>
        <time>2019-10-17T13:06:51.000Z</time>
      </trkpt>
      <trkpt lat="47.29809" lon="-1.53349">
        <ele>1</ele>
        <time>2019-10-17T13:06:52.000Z</time>
      </trkpt>
      <trkpt lat="47.29812" lon="-1.53346">
        <ele>1</ele>
        <time>2019-10-17T13:06:53.000Z</time>
      </trkpt>
      <trkpt lat="47.29815" lon="-1.53342">
        <ele>1</ele>
        <time>2019-10-17T13:06:54.000Z</time>
      </trkpt>
      <trkpt lat="47.29818" lon="-1.53338">
        <ele>1</ele>
        <time>2019-10-17T13:06:55.000Z</time>
      </trkpt>
      <trkpt lat="47.29823" lon="-1.53334">
        <ele>1</ele>
        <time>2019-10-17T13:06:56.000Z</time>
      </trkpt>
      <trkpt lat="47.29828" lon="-1.53329">
        <ele>5</ele>
        <time>2019-10-17T13:06:57.000Z</time>
      </trkpt>
      <trkpt lat="47.29828" lon="-1.53329">
        <ele>5</ele>
        <time>2019-10-17T13:06:59.000Z</time>
      </trkpt>
      <trkpt lat="47.29828" lon="-1.53329">
        <ele>5</ele>
        <time>2019-10-17T13:07:00.000Z</time>
      </trkpt>
      <trkpt lat="47.2985" lon="-1.53311">
        <ele>5</ele>
        <time>2019-10-17T13:07:01.000Z</time>
      </trkpt>
      <trkpt lat="47.29856" lon="-1.53306">
        <ele>5</ele>
        <time>2019-10-17T13:07:02.000Z</time>
      </trkpt>
      <trkpt lat="47.29861" lon="-1.53302">
        <ele>4.9</ele>
        <time>2019-10-17T13:07:03.000Z</time>
      </trkpt>
      <trkpt lat="47.29861" lon="-1.53302">
        <ele>4.9</ele>
        <time>2019-10-17T13:07:06.000Z</time>
      </trkpt>
      <trkpt lat="47.29861" lon="-1.53302">
        <ele>4.9</ele>
        <time>2019-10-17T13:07:07.000Z</time>
      </trkpt>
      <trkpt lat="47.29889" lon="-1.53301">
        <ele>5</ele>
        <time>2019-10-17T13:07:08.000Z</time>
      </trkpt>
      <trkpt lat="47.29893" lon="-1.53307">
        <ele>5</ele>
        <time>2019-10-17T13:07:09.000Z</time>
      </trkpt>
      <trkpt lat="47.29897" lon="-1.53313">
        <ele>5</ele>
        <time>2019-10-17T13:07:10.000Z</time>
      </trkpt>
      <trkpt lat="47.29901" lon="-1.53318">
        <ele>5</ele>
        <time>2019-10-17T13:07:11.000Z</time>
      </trkpt>
      <trkpt lat="47.29905" lon="-1.53321">
        <ele>5</ele>
        <time>2019-10-17T13:07:12.000Z</time>
      </trkpt>
      <trkpt lat="47.29909" lon="-1.53319">
        <ele>5</ele>
        <time>2019-10-17T13:07:13.000Z</time>
      </trkpt>
      <trkpt lat="47.29913" lon="-1.53317">
        <ele>5</ele>
        <time>2019-10-17T13:07:14.000Z</time>
      </trkpt>
      <trkpt lat="47.29917" lon="-1.53315">
        <ele>5</ele>
        <time>2019-10-17T13:07:15.000Z</time>
      </trkpt>
      <trkpt lat="47.29921" lon="-1.53313">
        <ele>1</ele>
        <time>2019-10-17T13:07:16.000Z</time>
      </trkpt>
      <trkpt lat="47.29925" lon="-1.53311">
        <ele>1</ele>
        <time>2019-10-17T13:07:17.000Z</time>
      </trkpt>
      <trkpt lat="47.29928" lon="-1.53307">
        <ele>1</ele>
        <time>2019-10-17T13:07:18.000Z</time>
      </trkpt>
      <trkpt lat="47.29932" lon="-1.53304">
        <ele>2</ele>
        <time>2019-10-17T13:07:19.000Z</time>
      </trkpt>
      <trkpt lat="47.29934" lon="-1.53301">
        <ele>2</ele>
        <time>2019-10-17T13:07:20.000Z</time>
      </trkpt>
      <trkpt lat="47.29937" lon="-1.53295">
        <ele>3</ele>
        <time>2019-10-17T13:07:21.000Z</time>
      </trkpt>
      <trkpt lat="47.29938" lon="-1.53289">
        <ele>3</ele>
        <time>2019-10-17T13:07:22.000Z</time>
      </trkpt>
      <trkpt lat="47.29938" lon="-1.53283">
        <ele>3</ele>
        <time>2019-10-17T13:07:23.000Z</time>
      </trkpt>
      <trkpt lat="47.29938" lon="-1.53277">
        <ele>4</ele>
        <time>2019-10-17T13:07:24.000Z</time>
      </trkpt>
      <trkpt lat="47.29939" lon="-1.53271">
        <ele>4</ele>
        <time>2019-10-17T13:07:25.000Z</time>
      </trkpt>
      <trkpt lat="47.2994" lon="-1.53265">
        <ele>5</ele>
        <time>2019-10-17T13:07:26.000Z</time>
      </trkpt>
      <trkpt lat="47.2994" lon="-1.53258">
        <ele>5</ele>
        <time>2019-10-17T13:07:27.000Z</time>
      </trkpt>
      <trkpt lat="47.29942" lon="-1.53252">
        <ele>5</ele>
        <time>2019-10-17T13:07:28.000Z</time>
      </trkpt>
      <trkpt lat="47.29943" lon="-1.53247">
        <ele>5</ele>
        <time>2019-10-17T13:07:29.000Z</time>
      </trkpt>
      <trkpt lat="47.29944" lon="-1.5324">
        <ele>5</ele>
        <time>2019-10-17T13:07:30.000Z</time>
      </trkpt>
      <trkpt lat="47.29947" lon="-1.53234">
        <ele>5</ele>
        <time>2019-10-17T13:07:31.000Z</time>
      </trkpt>
      <trkpt lat="47.29947" lon="-1.53234">
        <ele>6</ele>
        <time>2019-10-17T13:07:33.000Z</time>
      </trkpt>
      <trkpt lat="47.29947" lon="-1.53234">
        <ele>8</ele>
        <time>2019-10-17T13:07:34.000Z</time>
      </trkpt>
      <trkpt lat="47.29958" lon="-1.53213">
        <ele>8</ele>
        <time>2019-10-17T13:07:35.000Z</time>
      </trkpt>
      <trkpt lat="47.29961" lon="-1.53209">
        <ele>10</ele>
        <time>2019-10-17T13:07:36.000Z</time>
      </trkpt>
      <trkpt lat="47.29964" lon="-1.53205">
        <ele>11</ele>
        <time>2019-10-17T13:07:37.000Z</time>
      </trkpt>
      <trkpt lat="47.29967" lon="-1.53202">
        <ele>12</ele>
        <time>2019-10-17T13:07:38.000Z</time>
      </trkpt>
      <trkpt lat="47.29971" lon="-1.53199">
        <ele>13</ele>
        <time>2019-10-17T13:07:39.000Z</time>
      </trkpt>
      <trkpt lat="47.29975" lon="-1.53196">
        <ele>13</ele>
        <time>2019-10-17T13:07:40.000Z</time>
      </trkpt>
      <trkpt lat="47.2998" lon="-1.53195">
        <ele>14</ele>
        <time>2019-10-17T13:07:41.000Z</time>
      </trkpt>
      <trkpt lat="47.2998" lon="-1.53195">
        <ele>13</ele>
        <time>2019-10-17T13:07:44.000Z</time>
      </trkpt>
      <trkpt lat="47.2998" lon="-1.53195">
        <ele>13</ele>
        <time>2019-10-17T13:07:45.000Z</time>
      </trkpt>
      <trkpt lat="47.30007" lon="-1.53188">
        <ele>13</ele>
        <time>2019-10-17T13:07:46.000Z</time>
      </trkpt>
      <trkpt lat="47.30012" lon="-1.53188">
        <ele>12</ele>
        <time>2019-10-17T13:07:47.000Z</time>
      </trkpt>
      <trkpt lat="47.30017" lon="-1.53189">
        <ele>11</ele>
        <time>2019-10-17T13:07:48.000Z</time>
      </trkpt>
      <trkpt lat="47.30023" lon="-1.53188">
        <ele>10</ele>
        <time>2019-10-17T13:07:49.000Z</time>
      </trkpt>
      <trkpt lat="47.30027" lon="-1.53188">
        <ele>9</ele>
        <time>2019-10-17T13:07:50.000Z</time>
      </trkpt>
      <trkpt lat="47.30033" lon="-1.53187">
        <ele>8</ele>
        <time>2019-10-17T13:07:51.000Z</time>
      </trkpt>
      <trkpt lat="47.30038" lon="-1.53187">
        <ele>6</ele>
        <time>2019-10-17T13:07:52.000Z</time>
      </trkpt>
      <trkpt lat="47.30044" lon="-1.53187">
        <ele>6</ele>
        <time>2019-10-17T13:07:53.000Z</time>
      </trkpt>
      <trkpt lat="47.3005" lon="-1.53187">
        <ele>5</ele>
        <time>2019-10-17T13:07:54.000Z</time>
      </trkpt>
      <trkpt lat="47.30057" lon="-1.53188">
        <ele>5</ele>
        <time>2019-10-17T13:07:55.000Z</time>
      </trkpt>
      <trkpt lat="47.30063" lon="-1.53188">
        <ele>4</ele>
        <time>2019-10-17T13:07:56.000Z</time>
      </trkpt>
      <trkpt lat="47.30069" lon="-1.53189">
        <ele>4</ele>
        <time>2019-10-17T13:07:57.000Z</time>
      </trkpt>
      <trkpt lat="47.30075" lon="-1.5319">
        <ele>3</ele>
        <time>2019-10-17T13:07:58.000Z</time>
      </trkpt>
      <trkpt lat="47.30081" lon="-1.5319">
        <ele>3</ele>
        <time>2019-10-17T13:07:59.000Z</time>
      </trkpt>
      <trkpt lat="47.30087" lon="-1.53191">
        <ele>3</ele>
        <time>2019-10-17T13:08:00.000Z</time>
      </trkpt>
      <trkpt lat="47.30094" lon="-1.53193">
        <ele>2</ele>
        <time>2019-10-17T13:08:01.000Z</time>
      </trkpt>
      <trkpt lat="47.30101" lon="-1.53195">
        <ele>2</ele>
        <time>2019-10-17T13:08:02.000Z</time>
      </trkpt>
      <trkpt lat="47.30108" lon="-1.53197">
        <ele>2</ele>
        <time>2019-10-17T13:08:03.000Z</time>
      </trkpt>
      <trkpt lat="47.30115" lon="-1.53199">
        <ele>1</ele>
        <time>2019-10-17T13:08:04.000Z</time>
      </trkpt>
      <trkpt lat="47.30121" lon="-1.53201">
        <ele>1</ele>
        <time>2019-10-17T13:08:05.000Z</time>
      </trkpt>
      <trkpt lat="47.30127" lon="-1.53203">
        <ele>5.7</ele>
        <time>2019-10-17T13:08:06.000Z</time>
      </trkpt>
      <trkpt lat="47.30133" lon="-1.53205">
        <ele>5.6</ele>
        <time>2019-10-17T13:08:07.000Z</time>
      </trkpt>
      <trkpt lat="47.30139" lon="-1.53206">
        <ele>5.4</ele>
        <time>2019-10-17T13:08:08.000Z</time>
      </trkpt>
      <trkpt lat="47.30145" lon="-1.53208">
        <ele>5.5</ele>
        <time>2019-10-17T13:08:09.000Z</time>
      </trkpt>
      <trkpt lat="47.30151" lon="-1.5321">
        <ele>5.5</ele>
        <time>2019-10-17T13:08:10.000Z</time>
      </trkpt>
      <trkpt lat="47.30156" lon="-1.53211">
        <ele>5.6</ele>
        <time>2019-10-17T13:08:11.000Z</time>
      </trkpt>
      <trkpt lat="47.30161" lon="-1.53212">
        <ele>-1</ele>
        <time>2019-10-17T13:08:12.000Z</time>
      </trkpt>
      <trkpt lat="47.30167" lon="-1.53213">
        <ele>-1</ele>
        <time>2019-10-17T13:08:13.000Z</time>
      </trkpt>
      <trkpt lat="47.30167" lon="-1.53213">
        <ele>-2</ele>
        <time>2019-10-17T13:08:16.000Z</time>
      </trkpt>
      <trkpt lat="47.30167" lon="-1.53213">
        <ele>-2</ele>
        <time>2019-10-17T13:08:17.000Z</time>
      </trkpt>
      <trkpt lat="47.30193" lon="-1.53219">
        <ele>-2</ele>
        <time>2019-10-17T13:08:18.000Z</time>
      </trkpt>
      <trkpt lat="47.30198" lon="-1.53221">
        <ele>-2</ele>
        <time>2019-10-17T13:08:19.000Z</time>
      </trkpt>
      <trkpt lat="47.30204" lon="-1.53222">
        <ele>-2</ele>
        <time>2019-10-17T13:08:20.000Z</time>
      </trkpt>
      <trkpt lat="47.3021" lon="-1.53223">
        <ele>-3</ele>
        <time>2019-10-17T13:08:21.000Z</time>
      </trkpt>
      <trkpt lat="47.30216" lon="-1.53224">
        <ele>-4</ele>
        <time>2019-10-17T13:08:22.000Z</time>
      </trkpt>
      <trkpt lat="47.3022" lon="-1.53224">
        <ele>-4</ele>
        <time>2019-10-17T13:08:23.000Z</time>
      </trkpt>
      <trkpt lat="47.30224" lon="-1.53225">
        <ele>-5</ele>
        <time>2019-10-17T13:08:24.000Z</time>
      </trkpt>
      <trkpt lat="47.30229" lon="-1.53226">
        <ele>-6</ele>
        <time>2019-10-17T13:08:25.000Z</time>
      </trkpt>
      <trkpt lat="47.30235" lon="-1.53227">
        <ele>-7</ele>
        <time>2019-10-17T13:08:26.000Z</time>
      </trkpt>
      <trkpt lat="47.30239" lon="-1.53228">
        <ele>-8</ele>
        <time>2019-10-17T13:08:27.000Z</time>
      </trkpt>
      <trkpt lat="47.30243" lon="-1.53229">
        <ele>-8</ele>
        <time>2019-10-17T13:08:28.000Z</time>
      </trkpt>
      <trkpt lat="47.30247" lon="-1.53231">
        <ele>-8</ele>
        <time>2019-10-17T13:08:29.000Z</time>
      </trkpt>
      <trkpt lat="47.3025" lon="-1.53233">
        <ele>-8</ele>
        <time>2019-10-17T13:08:30.000Z</time>
      </trkpt>
      <trkpt lat="47.30253" lon="-1.53237">
        <ele>-8</ele>
        <time>2019-10-17T13:08:31.000Z</time>
      </trkpt>
      <trkpt lat="47.30256" lon="-1.53242">
        <ele>-8</ele>
        <time>2019-10-17T13:08:32.000Z</time>
      </trkpt>
      <trkpt lat="47.30259" lon="-1.53248">
        <ele>-8</ele>
        <time>2019-10-17T13:08:33.000Z</time>
      </trkpt>
      <trkpt lat="47.30261" lon="-1.53254">
        <ele>-7</ele>
        <time>2019-10-17T13:08:34.000Z</time>
      </trkpt>
      <trkpt lat="47.30263" lon="-1.53259">
        <ele>-7</ele>
        <time>2019-10-17T13:08:35.000Z</time>
      </trkpt>
      <trkpt lat="47.30266" lon="-1.53266">
        <ele>-8</ele>
        <time>2019-10-17T13:08:36.000Z</time>
      </trkpt>
      <trkpt lat="47.30268" lon="-1.53273">
        <ele>-8</ele>
        <time>2019-10-17T13:08:37.000Z</time>
      </trkpt>
      <trkpt lat="47.3027" lon="-1.5328">
        <ele>-8</ele>
        <time>2019-10-17T13:08:38.000Z</time>
      </trkpt>
      <trkpt lat="47.30271" lon="-1.53285">
        <ele>-8</ele>
        <time>2019-10-17T13:08:39.000Z</time>
      </trkpt>
      <trkpt lat="47.30272" lon="-1.53289">
        <ele>-7</ele>
        <time>2019-10-17T13:08:40.000Z</time>
      </trkpt>
      <trkpt lat="47.30274" lon="-1.53291">
        <ele>-7</ele>
        <time>2019-10-17T13:08:41.000Z</time>
      </trkpt>
      <trkpt lat="47.30276" lon="-1.53292">
        <ele>-7</ele>
        <time>2019-10-17T13:08:42.000Z</time>
      </trkpt>
      <trkpt lat="47.30279" lon="-1.53292">
        <ele>-6</ele>
        <time>2019-10-17T13:08:43.000Z</time>
      </trkpt>
      <trkpt lat="47.30281" lon="-1.53293">
        <ele>-5</ele>
        <time>2019-10-17T13:08:44.000Z</time>
      </trkpt>
      <trkpt lat="47.30284" lon="-1.53295">
        <ele>-4</ele>
        <time>2019-10-17T13:08:45.000Z</time>
      </trkpt>
      <trkpt lat="47.30288" lon="-1.53299">
        <ele>-3</ele>
        <time>2019-10-17T13:08:46.000Z</time>
      </trkpt>
      <trkpt lat="47.30292" lon="-1.53305">
        <ele>-3</ele>
        <time>2019-10-17T13:08:47.000Z</time>
      </trkpt>
      <trkpt lat="47.30298" lon="-1.53311">
        <ele>-3</ele>
        <time>2019-10-17T13:08:48.000Z</time>
      </trkpt>
      <trkpt lat="47.30304" lon="-1.53317">
        <ele>-3</ele>
        <time>2019-10-17T13:08:49.000Z</time>
      </trkpt>
      <trkpt lat="47.30311" lon="-1.53324">
        <ele>-3</ele>
        <time>2019-10-17T13:08:50.000Z</time>
      </trkpt>
      <trkpt lat="47.30317" lon="-1.53332">
        <ele>-3</ele>
        <time>2019-10-17T13:08:51.000Z</time>
      </trkpt>
      <trkpt lat="47.30322" lon="-1.53339">
        <ele>-3</ele>
        <time>2019-10-17T13:08:52.000Z</time>
      </trkpt>
      <trkpt lat="47.30327" lon="-1.53345">
        <ele>-3</ele>
        <time>2019-10-17T13:08:53.000Z</time>
      </trkpt>
      <trkpt lat="47.30332" lon="-1.53352">
        <ele>-3</ele>
        <time>2019-10-17T13:08:54.000Z</time>
      </trkpt>
      <trkpt lat="47.30337" lon="-1.53359">
        <ele>-3</ele>
        <time>2019-10-17T13:08:55.000Z</time>
      </trkpt>
      <trkpt lat="47.30341" lon="-1.53365">
        <ele>-4</ele>
        <time>2019-10-17T13:08:56.000Z</time>
      </trkpt>
      <trkpt lat="47.30345" lon="-1.53372">
        <ele>-4</ele>
        <time>2019-10-17T13:08:57.000Z</time>
      </trkpt>
      <trkpt lat="47.30348" lon="-1.53378">
        <ele>-4</ele>
        <time>2019-10-17T13:08:58.000Z</time>
      </trkpt>
      <trkpt lat="47.30351" lon="-1.53385">
        <ele>-4</ele>
        <time>2019-10-17T13:08:59.000Z</time>
      </trkpt>
      <trkpt lat="47.30355" lon="-1.53392">
        <ele>-4</ele>
        <time>2019-10-17T13:09:00.000Z</time>
      </trkpt>
      <trkpt lat="47.30359" lon="-1.534">
        <ele>-4</ele>
        <time>2019-10-17T13:09:01.000Z</time>
      </trkpt>
      <trkpt lat="47.30363" lon="-1.53408">
        <ele>-5</ele>
        <time>2019-10-17T13:09:02.000Z</time>
      </trkpt>
      <trkpt lat="47.30365" lon="-1.53417">
        <ele>-5</ele>
        <time>2019-10-17T13:09:03.000Z</time>
      </trkpt>
      <trkpt lat="47.30368" lon="-1.53425">
        <ele>-5</ele>
        <time>2019-10-17T13:09:04.000Z</time>
      </trkpt>
      <trkpt lat="47.3037" lon="-1.53435">
        <ele>-6</ele>
        <time>2019-10-17T13:09:05.000Z</time>
      </trkpt>
      <trkpt lat="47.30373" lon="-1.53443">
        <ele>-6</ele>
        <time>2019-10-17T13:09:06.000Z</time>
      </trkpt>
      <trkpt lat="47.30375" lon="-1.53451">
        <ele>-6</ele>
        <time>2019-10-17T13:09:07.000Z</time>
      </trkpt>
      <trkpt lat="47.30377" lon="-1.53457">
        <ele>-7</ele>
        <time>2019-10-17T13:09:08.000Z</time>
      </trkpt>
      <trkpt lat="47.30379" lon="-1.53462">
        <ele>-7</ele>
        <time>2019-10-17T13:09:09.000Z</time>
      </trkpt>
      <trkpt lat="47.30381" lon="-1.53466">
        <ele>-7</ele>
        <time>2019-10-17T13:09:10.000Z</time>
      </trkpt>
      <trkpt lat="47.30383" lon="-1.53471">
        <ele>-7</ele>
        <time>2019-10-17T13:09:11.000Z</time>
      </trkpt>
      <trkpt lat="47.30386" lon="-1.53475">
        <ele>-7</ele>
        <time>2019-10-17T13:09:12.000Z</time>
      </trkpt>
      <trkpt lat="47.30388" lon="-1.53479">
        <ele>-8</ele>
        <time>2019-10-17T13:09:13.000Z</time>
      </trkpt>
      <trkpt lat="47.3039" lon="-1.53482">
        <ele>-8</ele>
        <time>2019-10-17T13:09:14.000Z</time>
      </trkpt>
      <trkpt lat="47.30392" lon="-1.53484">
        <ele>-8</ele>
        <time>2019-10-17T13:09:15.000Z</time>
      </trkpt>
      <trkpt lat="47.30394" lon="-1.53485">
        <ele>-9</ele>
        <time>2019-10-17T13:09:16.000Z</time>
      </trkpt>
      <trkpt lat="47.30396" lon="-1.53486">
        <ele>-9</ele>
        <time>2019-10-17T13:09:17.000Z</time>
      </trkpt>
      <trkpt lat="47.30398" lon="-1.53488">
        <ele>-9</ele>
        <time>2019-10-17T13:09:18.000Z</time>
      </trkpt>
      <trkpt lat="47.304" lon="-1.53489">
        <ele>-9</ele>
        <time>2019-10-17T13:09:19.000Z</time>
      </trkpt>
      <trkpt lat="47.30402" lon="-1.53489">
        <ele>-10</ele>
        <time>2019-10-17T13:09:20.000Z</time>
      </trkpt>
      <trkpt lat="47.30403" lon="-1.5349">
        <ele>-10</ele>
        <time>2019-10-17T13:09:21.000Z</time>
      </trkpt>
      <trkpt lat="47.30405" lon="-1.53489">
        <ele>-10</ele>
        <time>2019-10-17T13:09:22.000Z</time>
      </trkpt>
      <trkpt lat="47.30407" lon="-1.53486">
        <ele>-11</ele>
        <time>2019-10-17T13:09:23.000Z</time>
      </trkpt>
      <trkpt lat="47.30409" lon="-1.53483">
        <ele>-11</ele>
        <time>2019-10-17T13:09:24.000Z</time>
      </trkpt>
      <trkpt lat="47.30411" lon="-1.5348">
        <ele>-11</ele>
        <time>2019-10-17T13:09:25.000Z</time>
      </trkpt>
      <trkpt lat="47.30414" lon="-1.53477">
        <ele>-12</ele>
        <time>2019-10-17T13:09:26.000Z</time>
      </trkpt>
      <trkpt lat="47.30417" lon="-1.53475">
        <ele>-12</ele>
        <time>2019-10-17T13:09:27.000Z</time>
      </trkpt>
      <trkpt lat="47.30421" lon="-1.53472">
        <ele>-13</ele>
        <time>2019-10-17T13:09:28.000Z</time>
      </trkpt>
      <trkpt lat="47.30425" lon="-1.5347">
        <ele>-14</ele>
        <time>2019-10-17T13:09:29.000Z</time>
      </trkpt>
      <trkpt lat="47.30431" lon="-1.53468">
        <ele>-14</ele>
        <time>2019-10-17T13:09:30.000Z</time>
      </trkpt>
      <trkpt lat="47.30438" lon="-1.53467">
        <ele>-15</ele>
        <time>2019-10-17T13:09:31.000Z</time>
      </trkpt>
      <trkpt lat="47.30445" lon="-1.53467">
        <ele>-15</ele>
        <time>2019-10-17T13:09:32.000Z</time>
      </trkpt>
      <trkpt lat="47.30452" lon="-1.53466">
        <ele>-16</ele>
        <time>2019-10-17T13:09:33.000Z</time>
      </trkpt>
      <trkpt lat="47.30459" lon="-1.53465">
        <ele>-16</ele>
        <time>2019-10-17T13:09:34.000Z</time>
      </trkpt>
      <trkpt lat="47.30466" lon="-1.53465">
        <ele>-17</ele>
        <time>2019-10-17T13:09:35.000Z</time>
      </trkpt>
      <trkpt lat="47.30474" lon="-1.53465">
        <ele>-17</ele>
        <time>2019-10-17T13:09:36.000Z</time>
      </trkpt>
      <trkpt lat="47.30482" lon="-1.53465">
        <ele>-17</ele>
        <time>2019-10-17T13:09:37.000Z</time>
      </trkpt>
      <trkpt lat="47.30489" lon="-1.53466">
        <ele>-18</ele>
        <time>2019-10-17T13:09:38.000Z</time>
      </trkpt>
      <trkpt lat="47.30496" lon="-1.53465">
        <ele>-18</ele>
        <time>2019-10-17T13:09:39.000Z</time>
      </trkpt>
      <trkpt lat="47.30503" lon="-1.53464">
        <ele>-18</ele>
        <time>2019-10-17T13:09:40.000Z</time>
      </trkpt>
      <trkpt lat="47.30509" lon="-1.53463">
        <ele>-18</ele>
        <time>2019-10-17T13:09:41.000Z</time>
      </trkpt>
      <trkpt lat="47.30516" lon="-1.53463">
        <ele>-18</ele>
        <time>2019-10-17T13:09:42.000Z</time>
      </trkpt>
      <trkpt lat="47.30521" lon="-1.53462">
        <ele>-18</ele>
        <time>2019-10-17T13:09:43.000Z</time>
      </trkpt>
      <trkpt lat="47.30527" lon="-1.53463">
        <ele>-18</ele>
        <time>2019-10-17T13:09:44.000Z</time>
      </trkpt>
      <trkpt lat="47.30534" lon="-1.53465">
        <ele>-18</ele>
        <time>2019-10-17T13:09:45.000Z</time>
      </trkpt>
      <trkpt lat="47.3054" lon="-1.53468">
        <ele>-18</ele>
        <time>2019-10-17T13:09:46.000Z</time>
      </trkpt>
      <trkpt lat="47.30546" lon="-1.53472">
        <ele>-18</ele>
        <time>2019-10-17T13:09:47.000Z</time>
      </trkpt>
      <trkpt lat="47.30553" lon="-1.53476">
        <ele>-18</ele>
        <time>2019-10-17T13:09:48.000Z</time>
      </trkpt>
      <trkpt lat="47.30558" lon="-1.53481">
        <ele>-18</ele>
        <time>2019-10-17T13:09:49.000Z</time>
      </trkpt>
      <trkpt lat="47.30563" lon="-1.53484">
        <ele>-18</ele>
        <time>2019-10-17T13:09:50.000Z</time>
      </trkpt>
      <trkpt lat="47.30568" lon="-1.53488">
        <ele>-17</ele>
        <time>2019-10-17T13:09:51.000Z</time>
      </trkpt>
      <trkpt lat="47.30572" lon="-1.5349">
        <ele>-17</ele>
        <time>2019-10-17T13:09:52.000Z</time>
      </trkpt>
      <trkpt lat="47.30577" lon="-1.5349">
        <ele>-17</ele>
        <time>2019-10-17T13:09:53.000Z</time>
      </trkpt>
      <trkpt lat="47.30583" lon="-1.53488">
        <ele>-17</ele>
        <time>2019-10-17T13:09:54.000Z</time>
      </trkpt>
      <trkpt lat="47.30589" lon="-1.53486">
        <ele>-17</ele>
        <time>2019-10-17T13:09:55.000Z</time>
      </trkpt>
      <trkpt lat="47.30595" lon="-1.53483">
        <ele>-17</ele>
        <time>2019-10-17T13:09:56.000Z</time>
      </trkpt>
      <trkpt lat="47.30601" lon="-1.5348">
        <ele>-17</ele>
        <time>2019-10-17T13:09:57.000Z</time>
      </trkpt>
      <trkpt lat="47.30607" lon="-1.53477">
        <ele>-17</ele>
        <time>2019-10-17T13:09:58.000Z</time>
      </trkpt>
      <trkpt lat="47.30613" lon="-1.53474">
        <ele>-17</ele>
        <time>2019-10-17T13:09:59.000Z</time>
      </trkpt>
      <trkpt lat="47.30616" lon="-1.53471">
        <ele>-17</ele>
        <time>2019-10-17T13:10:00.000Z</time>
      </trkpt>
      <trkpt lat="47.30618" lon="-1.53467">
        <ele>-17</ele>
        <time>2019-10-17T13:10:01.000Z</time>
      </trkpt>
      <trkpt lat="47.3062" lon="-1.53462">
        <ele>-17</ele>
        <time>2019-10-17T13:10:02.000Z</time>
      </trkpt>
      <trkpt lat="47.30622" lon="-1.53458">
        <ele>-17</ele>
        <time>2019-10-17T13:10:03.000Z</time>
      </trkpt>
      <trkpt lat="47.30624" lon="-1.53454">
        <ele>-16</ele>
        <time>2019-10-17T13:10:04.000Z</time>
      </trkpt>
      <trkpt lat="47.30625" lon="-1.53451">
        <ele>-16</ele>
        <time>2019-10-17T13:10:05.000Z</time>
      </trkpt>
      <trkpt lat="47.30628" lon="-1.53447">
        <ele>-16</ele>
        <time>2019-10-17T13:10:06.000Z</time>
      </trkpt>
      <trkpt lat="47.3063" lon="-1.53445">
        <ele>-16</ele>
        <time>2019-10-17T13:10:07.000Z</time>
      </trkpt>
      <trkpt lat="47.3063" lon="-1.53445">
        <ele>-16</ele>
        <time>2019-10-17T13:10:09.000Z</time>
      </trkpt>
      <trkpt lat="47.3063" lon="-1.53445">
        <ele>-16</ele>
        <time>2019-10-17T13:10:10.000Z</time>
      </trkpt>
      <trkpt lat="47.30644" lon="-1.53438">
        <ele>-15</ele>
        <time>2019-10-17T13:10:11.000Z</time>
      </trkpt>
      <trkpt lat="47.30648" lon="-1.53437">
        <ele>-15</ele>
        <time>2019-10-17T13:10:12.000Z</time>
      </trkpt>
      <trkpt lat="47.30653" lon="-1.53435">
        <ele>-15</ele>
        <time>2019-10-17T13:10:13.000Z</time>
      </trkpt>
      <trkpt lat="47.30657" lon="-1.53433">
        <ele>-15</ele>
        <time>2019-10-17T13:10:14.000Z</time>
      </trkpt>
      <trkpt lat="47.30661" lon="-1.53432">
        <ele>-15</ele>
        <time>2019-10-17T13:10:15.000Z</time>
      </trkpt>
      <trkpt lat="47.30666" lon="-1.53431">
        <ele>-15</ele>
        <time>2019-10-17T13:10:16.000Z</time>
      </trkpt>
      <trkpt lat="47.30671" lon="-1.5343">
        <ele>-15</ele>
        <time>2019-10-17T13:10:17.000Z</time>
      </trkpt>
      <trkpt lat="47.30677" lon="-1.53429">
        <ele>-15</ele>
        <time>2019-10-17T13:10:18.000Z</time>
      </trkpt>
      <trkpt lat="47.30682" lon="-1.53428">
        <ele>-15</ele>
        <time>2019-10-17T13:10:19.000Z</time>
      </trkpt>
      <trkpt lat="47.30688" lon="-1.53427">
        <ele>-15</ele>
        <time>2019-10-17T13:10:20.000Z</time>
      </trkpt>
      <trkpt lat="47.30693" lon="-1.53425">
        <ele>-14</ele>
        <time>2019-10-17T13:10:21.000Z</time>
      </trkpt>
      <trkpt lat="47.30699" lon="-1.53424">
        <ele>-14</ele>
        <time>2019-10-17T13:10:22.000Z</time>
      </trkpt>
      <trkpt lat="47.30703" lon="-1.53423">
        <ele>-14</ele>
        <time>2019-10-17T13:10:23.000Z</time>
      </trkpt>
      <trkpt lat="47.30709" lon="-1.53422">
        <ele>-14</ele>
        <time>2019-10-17T13:10:24.000Z</time>
      </trkpt>
      <trkpt lat="47.30713" lon="-1.53421">
        <ele>-14</ele>
        <time>2019-10-17T13:10:25.000Z</time>
      </trkpt>
      <trkpt lat="47.30718" lon="-1.53419">
        <ele>-14</ele>
        <time>2019-10-17T13:10:26.000Z</time>
      </trkpt>
      <trkpt lat="47.30723" lon="-1.53418">
        <ele>-14</ele>
        <time>2019-10-17T13:10:27.000Z</time>
      </trkpt>
      <trkpt lat="47.30729" lon="-1.53415">
        <ele>-14</ele>
        <time>2019-10-17T13:10:28.000Z</time>
      </trkpt>
      <trkpt lat="47.30735" lon="-1.53411">
        <ele>-13</ele>
        <time>2019-10-17T13:10:29.000Z</time>
      </trkpt>
      <trkpt lat="47.30741" lon="-1.53408">
        <ele>-13</ele>
        <time>2019-10-17T13:10:30.000Z</time>
      </trkpt>
      <trkpt lat="47.30747" lon="-1.53404">
        <ele>-12</ele>
        <time>2019-10-17T13:10:31.000Z</time>
      </trkpt>
      <trkpt lat="47.30752" lon="-1.534">
        <ele>-11</ele>
        <time>2019-10-17T13:10:32.000Z</time>
      </trkpt>
      <trkpt lat="47.30757" lon="-1.53398">
        <ele>-10</ele>
        <time>2019-10-17T13:10:33.000Z</time>
      </trkpt>
      <trkpt lat="47.30762" lon="-1.53394">
        <ele>-9</ele>
        <time>2019-10-17T13:10:34.000Z</time>
      </trkpt>
      <trkpt lat="47.30767" lon="-1.53392">
        <ele>-8</ele>
        <time>2019-10-17T13:10:35.000Z</time>
      </trkpt>
      <trkpt lat="47.30771" lon="-1.53392">
        <ele>-7</ele>
        <time>2019-10-17T13:10:36.000Z</time>
      </trkpt>
      <trkpt lat="47.30775" lon="-1.53392">
        <ele>-6</ele>
        <time>2019-10-17T13:10:37.000Z</time>
      </trkpt>
      <trkpt lat="47.30778" lon="-1.53389">
        <ele>-6</ele>
        <time>2019-10-17T13:10:38.000Z</time>
      </trkpt>
      <trkpt lat="47.3078" lon="-1.53384">
        <ele>-5</ele>
        <time>2019-10-17T13:10:39.000Z</time>
      </trkpt>
      <trkpt lat="47.30781" lon="-1.53378">
        <ele>-5</ele>
        <time>2019-10-17T13:10:40.000Z</time>
      </trkpt>
      <trkpt lat="47.30781" lon="-1.53372">
        <ele>-5</ele>
        <time>2019-10-17T13:10:41.000Z</time>
      </trkpt>
      <trkpt lat="47.3078" lon="-1.53366">
        <ele>-5</ele>
        <time>2019-10-17T13:10:42.000Z</time>
      </trkpt>
      <trkpt lat="47.3078" lon="-1.53362">
        <ele>-5</ele>
        <time>2019-10-17T13:10:43.000Z</time>
      </trkpt>
      <trkpt lat="47.3078" lon="-1.53359">
        <ele>-5</ele>
        <time>2019-10-17T13:10:44.000Z</time>
      </trkpt>
      <trkpt lat="47.30781" lon="-1.53358">
        <ele>-5</ele>
        <time>2019-10-17T13:10:45.000Z</time>
      </trkpt>
      <trkpt lat="47.30782" lon="-1.53357">
        <ele>-5</ele>
        <time>2019-10-17T13:10:46.000Z</time>
      </trkpt>
      <trkpt lat="47.30782" lon="-1.53357">
        <ele>-5</ele>
        <time>2019-10-17T13:10:47.000Z</time>
      </trkpt>
      <trkpt lat="47.30782" lon="-1.53356">
        <ele>-5</ele>
        <time>2019-10-17T13:10:48.000Z</time>
      </trkpt>
      <trkpt lat="47.30782" lon="-1.53354">
        <ele>-5</ele>
        <time>2019-10-17T13:10:49.000Z</time>
      </trkpt>
      <trkpt lat="47.30784" lon="-1.53353">
        <ele>-5</ele>
        <time>2019-10-17T13:10:50.000Z</time>
      </trkpt>
      <trkpt lat="47.30786" lon="-1.53353">
        <ele>-5</ele>
        <time>2019-10-17T13:10:51.000Z</time>
      </trkpt>
      <trkpt lat="47.30788" lon="-1.53352">
        <ele>-5</ele>
        <time>2019-10-17T13:10:52.000Z</time>
      </trkpt>
      <trkpt lat="47.30788" lon="-1.53352">
        <ele>-5</ele>
        <time>2019-10-17T13:10:54.000Z</time>
      </trkpt>
      <trkpt lat="47.30788" lon="-1.53352">
        <ele>-4</ele>
        <time>2019-10-17T13:10:55.000Z</time>
      </trkpt>
      <trkpt lat="47.30799" lon="-1.53342">
        <ele>-4</ele>
        <time>2019-10-17T13:10:56.000Z</time>
      </trkpt>
      <trkpt lat="47.30803" lon="-1.53339">
        <ele>-4</ele>
        <time>2019-10-17T13:10:57.000Z</time>
      </trkpt>
      <trkpt lat="47.30806" lon="-1.53336">
        <ele>-4</ele>
        <time>2019-10-17T13:10:58.000Z</time>
      </trkpt>
      <trkpt lat="47.3081" lon="-1.53333">
        <ele>-3</ele>
        <time>2019-10-17T13:10:59.000Z</time>
      </trkpt>
      <trkpt lat="47.30813" lon="-1.5333">
        <ele>-3</ele>
        <time>2019-10-17T13:11:00.000Z</time>
      </trkpt>
      <trkpt lat="47.30816" lon="-1.53327">
        <ele>-2</ele>
        <time>2019-10-17T13:11:01.000Z</time>
      </trkpt>
      <trkpt lat="47.30818" lon="-1.53323">
        <ele>-2</ele>
        <time>2019-10-17T13:11:02.000Z</time>
      </trkpt>
      <trkpt lat="47.30821" lon="-1.5332">
        <ele>-1</ele>
        <time>2019-10-17T13:11:03.000Z</time>
      </trkpt>
      <trkpt lat="47.30825" lon="-1.53317">
        <ele>4.7</ele>
        <time>2019-10-17T13:11:04.000Z</time>
      </trkpt>
      <trkpt lat="47.30829" lon="-1.53316">
        <ele>4.7</ele>
        <time>2019-10-17T13:11:05.000Z</time>
      </trkpt>
      <trkpt lat="47.30833" lon="-1.53316">
        <ele>1</ele>
        <time>2019-10-17T13:11:06.000Z</time>
      </trkpt>
      <trkpt lat="47.30837" lon="-1.53317">
        <ele>1</ele>
        <time>2019-10-17T13:11:07.000Z</time>
      </trkpt>
      <trkpt lat="47.3084" lon="-1.53318">
        <ele>1</ele>
        <time>2019-10-17T13:11:08.000Z</time>
      </trkpt>
      <trkpt lat="47.30844" lon="-1.53319">
        <ele>2</ele>
        <time>2019-10-17T13:11:09.000Z</time>
      </trkpt>
      <trkpt lat="47.30848" lon="-1.53319">
        <ele>2</ele>
        <time>2019-10-17T13:11:10.000Z</time>
      </trkpt>
      <trkpt lat="47.30852" lon="-1.53317">
        <ele>2</ele>
        <time>2019-10-17T13:11:11.000Z</time>
      </trkpt>
      <trkpt lat="47.30856" lon="-1.53316">
        <ele>2</ele>
        <time>2019-10-17T13:11:12.000Z</time>
      </trkpt>
      <trkpt lat="47.30861" lon="-1.53314">
        <ele>2</ele>
        <time>2019-10-17T13:11:13.000Z</time>
      </trkpt>
      <trkpt lat="47.30865" lon="-1.53312">
        <ele>2</ele>
        <time>2019-10-17T13:11:14.000Z</time>
      </trkpt>
      <trkpt lat="47.3087" lon="-1.53311">
        <ele>3</ele>
        <time>2019-10-17T13:11:15.000Z</time>
      </trkpt>
      <trkpt lat="47.30875" lon="-1.5331">
        <ele>3</ele>
        <time>2019-10-17T13:11:16.000Z</time>
      </trkpt>
      <trkpt lat="47.30879" lon="-1.53309">
        <ele>3</ele>
        <time>2019-10-17T13:11:17.000Z</time>
      </trkpt>
      <trkpt lat="47.30883" lon="-1.53308">
        <ele>3</ele>
        <time>2019-10-17T13:11:18.000Z</time>
      </trkpt>
      <trkpt lat="47.30887" lon="-1.53309">
        <ele>3</ele>
        <time>2019-10-17T13:11:19.000Z</time>
      </trkpt>
      <trkpt lat="47.30892" lon="-1.53311">
        <ele>3</ele>
        <time>2019-10-17T13:11:20.000Z</time>
      </trkpt>
      <trkpt lat="47.30897" lon="-1.53314">
        <ele>3</ele>
        <time>2019-10-17T13:11:21.000Z</time>
      </trkpt>
      <trkpt lat="47.30901" lon="-1.53319">
        <ele>3</ele>
        <time>2019-10-17T13:11:22.000Z</time>
      </trkpt>
      <trkpt lat="47.30904" lon="-1.53324">
        <ele>2</ele>
        <time>2019-10-17T13:11:23.000Z</time>
      </trkpt>
      <trkpt lat="47.30908" lon="-1.5333">
        <ele>2</ele>
        <time>2019-10-17T13:11:24.000Z</time>
      </trkpt>
      <trkpt lat="47.30912" lon="-1.53336">
        <ele>2</ele>
        <time>2019-10-17T13:11:25.000Z</time>
      </trkpt>
      <trkpt lat="47.30915" lon="-1.5334">
        <ele>2</ele>
        <time>2019-10-17T13:11:26.000Z</time>
      </trkpt>
      <trkpt lat="47.30919" lon="-1.53346">
        <ele>1</ele>
        <time>2019-10-17T13:11:27.000Z</time>
      </trkpt>
      <trkpt lat="47.30923" lon="-1.53351">
        <ele>1</ele>
        <time>2019-10-17T13:11:28.000Z</time>
      </trkpt>
      <trkpt lat="47.30926" lon="-1.53357">
        <ele>1</ele>
        <time>2019-10-17T13:11:29.000Z</time>
      </trkpt>
      <trkpt lat="47.3093" lon="-1.53362">
        <ele>1</ele>
        <time>2019-10-17T13:11:30.000Z</time>
      </trkpt>
      <trkpt lat="47.30934" lon="-1.53367">
        <ele>5.7</ele>
        <time>2019-10-17T13:11:31.000Z</time>
      </trkpt>
      <trkpt lat="47.30938" lon="-1.53372">
        <ele>5.7</ele>
        <time>2019-10-17T13:11:32.000Z</time>
      </trkpt>
      <trkpt lat="47.30942" lon="-1.53378">
        <ele>5.7</ele>
        <time>2019-10-17T13:11:33.000Z</time>
      </trkpt>
      <trkpt lat="47.30945" lon="-1.53384">
        <ele>5.8</ele>
        <time>2019-10-17T13:11:34.000Z</time>
      </trkpt>
      <trkpt lat="47.30949" lon="-1.5339">
        <ele>5.9</ele>
        <time>2019-10-17T13:11:35.000Z</time>
      </trkpt>
      <trkpt lat="47.30952" lon="-1.53396">
        <ele>5.9</ele>
        <time>2019-10-17T13:11:36.000Z</time>
      </trkpt>
      <trkpt lat="47.30955" lon="-1.53401">
        <ele>5.9</ele>
        <time>2019-10-17T13:11:37.000Z</time>
      </trkpt>
      <trkpt lat="47.30959" lon="-1.53407">
        <ele>5.8</ele>
        <time>2019-10-17T13:11:38.000Z</time>
      </trkpt>
      <trkpt lat="47.30964" lon="-1.53412">
        <ele>5.6</ele>
        <time>2019-10-17T13:11:39.000Z</time>
      </trkpt>
      <trkpt lat="47.30968" lon="-1.53419">
        <ele>5.4</ele>
        <time>2019-10-17T13:11:40.000Z</time>
      </trkpt>
      <trkpt lat="47.30972" lon="-1.53425">
        <ele>5.3</ele>
        <time>2019-10-17T13:11:41.000Z</time>
      </trkpt>
      <trkpt lat="47.30975" lon="-1.53429">
        <ele>5.4</ele>
        <time>2019-10-17T13:11:42.000Z</time>
      </trkpt>
      <trkpt lat="47.30979" lon="-1.53433">
        <ele>5.5</ele>
        <time>2019-10-17T13:11:43.000Z</time>
      </trkpt>
      <trkpt lat="47.30984" lon="-1.53438">
        <ele>5.4</ele>
        <time>2019-10-17T13:11:44.000Z</time>
      </trkpt>
      <trkpt lat="47.30989" lon="-1.53443">
        <ele>5.4</ele>
        <time>2019-10-17T13:11:45.000Z</time>
      </trkpt>
      <trkpt lat="47.30994" lon="-1.53447">
        <ele>5.4</ele>
        <time>2019-10-17T13:11:46.000Z</time>
      </trkpt>
      <trkpt lat="47.30999" lon="-1.53452">
        <ele>1</ele>
        <time>2019-10-17T13:11:47.000Z</time>
      </trkpt>
      <trkpt lat="47.31004" lon="-1.53456">
        <ele>1</ele>
        <time>2019-10-17T13:11:48.000Z</time>
      </trkpt>
      <trkpt lat="47.31009" lon="-1.53459">
        <ele>1</ele>
        <time>2019-10-17T13:11:49.000Z</time>
      </trkpt>
      <trkpt lat="47.31014" lon="-1.53462">
        <ele>1</ele>
        <time>2019-10-17T13:11:50.000Z</time>
      </trkpt>
      <trkpt lat="47.31019" lon="-1.53464">
        <ele>1</ele>
        <time>2019-10-17T13:11:51.000Z</time>
      </trkpt>
      <trkpt lat="47.31024" lon="-1.53465">
        <ele>2</ele>
        <time>2019-10-17T13:11:52.000Z</time>
      </trkpt>
      <trkpt lat="47.31029" lon="-1.53466">
        <ele>2</ele>
        <time>2019-10-17T13:11:53.000Z</time>
      </trkpt>
      <trkpt lat="47.31034" lon="-1.53466">
        <ele>2</ele>
        <time>2019-10-17T13:11:54.000Z</time>
      </trkpt>
      <trkpt lat="47.3104" lon="-1.53467">
        <ele>2</ele>
        <time>2019-10-17T13:11:55.000Z</time>
      </trkpt>
      <trkpt lat="47.31045" lon="-1.53468">
        <ele>3</ele>
        <time>2019-10-17T13:11:56.000Z</time>
      </trkpt>
      <trkpt lat="47.3105" lon="-1.5347">
        <ele>3</ele>
        <time>2019-10-17T13:11:57.000Z</time>
      </trkpt>
      <trkpt lat="47.31055" lon="-1.53474">
        <ele>3</ele>
        <time>2019-10-17T13:11:58.000Z</time>
      </trkpt>
      <trkpt lat="47.31059" lon="-1.53478">
        <ele>3</ele>
        <time>2019-10-17T13:11:59.000Z</time>
      </trkpt>
      <trkpt lat="47.31064" lon="-1.53481">
        <ele>3</ele>
        <time>2019-10-17T13:12:00.000Z</time>
      </trkpt>
      <trkpt lat="47.31069" lon="-1.53483">
        <ele>3</ele>
        <time>2019-10-17T13:12:01.000Z</time>
      </trkpt>
      <trkpt lat="47.31073" lon="-1.53484">
        <ele>3</ele>
        <time>2019-10-17T13:12:02.000Z</time>
      </trkpt>
      <trkpt lat="47.31076" lon="-1.53484">
        <ele>3</ele>
        <time>2019-10-17T13:12:03.000Z</time>
      </trkpt>
      <trkpt lat="47.31081" lon="-1.53485">
        <ele>3</ele>
        <time>2019-10-17T13:12:04.000Z</time>
      </trkpt>
      <trkpt lat="47.31086" lon="-1.53487">
        <ele>3</ele>
        <time>2019-10-17T13:12:05.000Z</time>
      </trkpt>
      <trkpt lat="47.31091" lon="-1.5349">
        <ele>3</ele>
        <time>2019-10-17T13:12:06.000Z</time>
      </trkpt>
      <trkpt lat="47.31096" lon="-1.53493">
        <ele>4</ele>
        <time>2019-10-17T13:12:07.000Z</time>
      </trkpt>
      <trkpt lat="47.31102" lon="-1.53496">
        <ele>4</ele>
        <time>2019-10-17T13:12:08.000Z</time>
      </trkpt>
      <trkpt lat="47.31107" lon="-1.53499">
        <ele>4</ele>
        <time>2019-10-17T13:12:09.000Z</time>
      </trkpt>
      <trkpt lat="47.31112" lon="-1.53503">
        <ele>4</ele>
        <time>2019-10-17T13:12:10.000Z</time>
      </trkpt>
      <trkpt lat="47.31117" lon="-1.53506">
        <ele>4</ele>
        <time>2019-10-17T13:12:11.000Z</time>
      </trkpt>
      <trkpt lat="47.31121" lon="-1.53509">
        <ele>3</ele>
        <time>2019-10-17T13:12:12.000Z</time>
      </trkpt>
      <trkpt lat="47.31126" lon="-1.53512">
        <ele>3</ele>
        <time>2019-10-17T13:12:13.000Z</time>
      </trkpt>
      <trkpt lat="47.3113" lon="-1.53515">
        <ele>3</ele>
        <time>2019-10-17T13:12:14.000Z</time>
      </trkpt>
      <trkpt lat="47.31134" lon="-1.53518">
        <ele>3</ele>
        <time>2019-10-17T13:12:15.000Z</time>
      </trkpt>
      <trkpt lat="47.31138" lon="-1.53521">
        <ele>3</ele>
        <time>2019-10-17T13:12:16.000Z</time>
      </trkpt>
      <trkpt lat="47.31143" lon="-1.53524">
        <ele>4</ele>
        <time>2019-10-17T13:12:17.000Z</time>
      </trkpt>
      <trkpt lat="47.31148" lon="-1.53527">
        <ele>4</ele>
        <time>2019-10-17T13:12:18.000Z</time>
      </trkpt>
      <trkpt lat="47.31153" lon="-1.5353">
        <ele>4</ele>
        <time>2019-10-17T13:12:19.000Z</time>
      </trkpt>
      <trkpt lat="47.31156" lon="-1.53533">
        <ele>4</ele>
        <time>2019-10-17T13:12:20.000Z</time>
      </trkpt>
      <trkpt lat="47.3116" lon="-1.53534">
        <ele>4</ele>
        <time>2019-10-17T13:12:21.000Z</time>
      </trkpt>
      <trkpt lat="47.31163" lon="-1.53536">
        <ele>4</ele>
        <time>2019-10-17T13:12:22.000Z</time>
      </trkpt>
      <trkpt lat="47.31167" lon="-1.53538">
        <ele>4</ele>
        <time>2019-10-17T13:12:23.000Z</time>
      </trkpt>
      <trkpt lat="47.31171" lon="-1.5354">
        <ele>3</ele>
        <time>2019-10-17T13:12:24.000Z</time>
      </trkpt>
      <trkpt lat="47.31176" lon="-1.53541">
        <ele>3</ele>
        <time>2019-10-17T13:12:25.000Z</time>
      </trkpt>
      <trkpt lat="47.31181" lon="-1.53543">
        <ele>3</ele>
        <time>2019-10-17T13:12:26.000Z</time>
      </trkpt>
      <trkpt lat="47.31186" lon="-1.53546">
        <ele>3</ele>
        <time>2019-10-17T13:12:27.000Z</time>
      </trkpt>
      <trkpt lat="47.3119" lon="-1.53547">
        <ele>3</ele>
        <time>2019-10-17T13:12:28.000Z</time>
      </trkpt>
      <trkpt lat="47.31195" lon="-1.53549">
        <ele>2</ele>
        <time>2019-10-17T13:12:29.000Z</time>
      </trkpt>
      <trkpt lat="47.312" lon="-1.53551">
        <ele>2</ele>
        <time>2019-10-17T13:12:30.000Z</time>
      </trkpt>
      <trkpt lat="47.31205" lon="-1.53553">
        <ele>2</ele>
        <time>2019-10-17T13:12:31.000Z</time>
      </trkpt>
      <trkpt lat="47.3121" lon="-1.53556">
        <ele>2</ele>
        <time>2019-10-17T13:12:32.000Z</time>
      </trkpt>
      <trkpt lat="47.31215" lon="-1.53559">
        <ele>2</ele>
        <time>2019-10-17T13:12:33.000Z</time>
      </trkpt>
      <trkpt lat="47.3122" lon="-1.53561">
        <ele>2</ele>
        <time>2019-10-17T13:12:34.000Z</time>
      </trkpt>
      <trkpt lat="47.31224" lon="-1.53564">
        <ele>2</ele>
        <time>2019-10-17T13:12:35.000Z</time>
      </trkpt>
      <trkpt lat="47.31227" lon="-1.53566">
        <ele>2</ele>
        <time>2019-10-17T13:12:36.000Z</time>
      </trkpt>
      <trkpt lat="47.31231" lon="-1.53569">
        <ele>1</ele>
        <time>2019-10-17T13:12:37.000Z</time>
      </trkpt>
      <trkpt lat="47.31235" lon="-1.53572">
        <ele>1</ele>
        <time>2019-10-17T13:12:38.000Z</time>
      </trkpt>
      <trkpt lat="47.31239" lon="-1.53575">
        <ele>1</ele>
        <time>2019-10-17T13:12:39.000Z</time>
      </trkpt>
      <trkpt lat="47.31242" lon="-1.53578">
        <ele>1</ele>
        <time>2019-10-17T13:12:40.000Z</time>
      </trkpt>
      <trkpt lat="47.31245" lon="-1.53581">
        <ele>1</ele>
        <time>2019-10-17T13:12:41.000Z</time>
      </trkpt>
      <trkpt lat="47.31249" lon="-1.53585">
        <ele>1</ele>
        <time>2019-10-17T13:12:42.000Z</time>
      </trkpt>
      <trkpt lat="47.31252" lon="-1.53589">
        <ele>1</ele>
        <time>2019-10-17T13:12:43.000Z</time>
      </trkpt>
      <trkpt lat="47.31255" lon="-1.53593">
        <ele>1</ele>
        <time>2019-10-17T13:12:44.000Z</time>
      </trkpt>
      <trkpt lat="47.31258" lon="-1.53598">
        <ele>1</ele>
        <time>2019-10-17T13:12:45.000Z</time>
      </trkpt>
      <trkpt lat="47.31261" lon="-1.53604">
        <ele>1</ele>
        <time>2019-10-17T13:12:46.000Z</time>
      </trkpt>
      <trkpt lat="47.31263" lon="-1.53609">
        <ele>5.5</ele>
        <time>2019-10-17T13:12:47.000Z</time>
      </trkpt>
      <trkpt lat="47.31265" lon="-1.53613">
        <ele>5.5</ele>
        <time>2019-10-17T13:12:48.000Z</time>
      </trkpt>
      <trkpt lat="47.31266" lon="-1.53616">
        <ele>5.5</ele>
        <time>2019-10-17T13:12:49.000Z</time>
      </trkpt>
      <trkpt lat="47.31266" lon="-1.5362">
        <ele>5.6</ele>
        <time>2019-10-17T13:12:50.000Z</time>
      </trkpt>
      <trkpt lat="47.31267" lon="-1.53626">
        <ele>5.7</ele>
        <time>2019-10-17T13:12:51.000Z</time>
      </trkpt>
      <trkpt lat="47.31269" lon="-1.53631">
        <ele>5.8</ele>
        <time>2019-10-17T13:12:52.000Z</time>
      </trkpt>
      <trkpt lat="47.3127" lon="-1.53637">
        <ele>6</ele>
        <time>2019-10-17T13:12:53.000Z</time>
      </trkpt>
      <trkpt lat="47.31272" lon="-1.53643">
        <ele>5.9</ele>
        <time>2019-10-17T13:12:54.000Z</time>
      </trkpt>
      <trkpt lat="47.31274" lon="-1.53648">
        <ele>5.8</ele>
        <time>2019-10-17T13:12:55.000Z</time>
      </trkpt>
      <trkpt lat="47.31277" lon="-1.53654">
        <ele>5.5</ele>
        <time>2019-10-17T13:12:56.000Z</time>
      </trkpt>
      <trkpt lat="47.31281" lon="-1.5366">
        <ele>5.2</ele>
        <time>2019-10-17T13:12:57.000Z</time>
      </trkpt>
      <trkpt lat="47.31285" lon="-1.53666">
        <ele>5</ele>
        <time>2019-10-17T13:12:58.000Z</time>
      </trkpt>
      <trkpt lat="47.31288" lon="-1.53673">
        <ele>5</ele>
        <time>2019-10-17T13:12:59.000Z</time>
      </trkpt>
      <trkpt lat="47.31293" lon="-1.53679">
        <ele>5</ele>
        <time>2019-10-17T13:13:00.000Z</time>
      </trkpt>
      <trkpt lat="47.31297" lon="-1.53685">
        <ele>5</ele>
        <time>2019-10-17T13:13:01.000Z</time>
      </trkpt>
      <trkpt lat="47.31301" lon="-1.5369">
        <ele>5</ele>
        <time>2019-10-17T13:13:02.000Z</time>
      </trkpt>
      <trkpt lat="47.31304" lon="-1.53696">
        <ele>5</ele>
        <time>2019-10-17T13:13:03.000Z</time>
      </trkpt>
      <trkpt lat="47.31306" lon="-1.53701">
        <ele>5</ele>
        <time>2019-10-17T13:13:04.000Z</time>
      </trkpt>
      <trkpt lat="47.31309" lon="-1.53706">
        <ele>-1</ele>
        <time>2019-10-17T13:13:05.000Z</time>
      </trkpt>
      <trkpt lat="47.31312" lon="-1.5371">
        <ele>-1</ele>
        <time>2019-10-17T13:13:06.000Z</time>
      </trkpt>
      <trkpt lat="47.31314" lon="-1.53711">
        <ele>-1</ele>
        <time>2019-10-17T13:13:07.000Z</time>
      </trkpt>
      <trkpt lat="47.31318" lon="-1.53712">
        <ele>-1</ele>
        <time>2019-10-17T13:13:08.000Z</time>
      </trkpt>
      <trkpt lat="47.31322" lon="-1.53712">
        <ele>-1</ele>
        <time>2019-10-17T13:13:09.000Z</time>
      </trkpt>
      <trkpt lat="47.31326" lon="-1.5371">
        <ele>-1</ele>
        <time>2019-10-17T13:13:10.000Z</time>
      </trkpt>
      <trkpt lat="47.3133" lon="-1.53708">
        <ele>-2</ele>
        <time>2019-10-17T13:13:11.000Z</time>
      </trkpt>
      <trkpt lat="47.31334" lon="-1.53706">
        <ele>-2</ele>
        <time>2019-10-17T13:13:12.000Z</time>
      </trkpt>
      <trkpt lat="47.31338" lon="-1.53704">
        <ele>-2</ele>
        <time>2019-10-17T13:13:13.000Z</time>
      </trkpt>
      <trkpt lat="47.31343" lon="-1.53703">
        <ele>-2</ele>
        <time>2019-10-17T13:13:14.000Z</time>
      </trkpt>
      <trkpt lat="47.31348" lon="-1.53701">
        <ele>-3</ele>
        <time>2019-10-17T13:13:15.000Z</time>
      </trkpt>
      <trkpt lat="47.31353" lon="-1.53701">
        <ele>-3</ele>
        <time>2019-10-17T13:13:16.000Z</time>
      </trkpt>
      <trkpt lat="47.31358" lon="-1.53701">
        <ele>-3</ele>
        <time>2019-10-17T13:13:17.000Z</time>
      </trkpt>
      <trkpt lat="47.31363" lon="-1.53704">
        <ele>-3</ele>
        <time>2019-10-17T13:13:18.000Z</time>
      </trkpt>
      <trkpt lat="47.31367" lon="-1.53708">
        <ele>-3</ele>
        <time>2019-10-17T13:13:19.000Z</time>
      </trkpt>
      <trkpt lat="47.31372" lon="-1.53712">
        <ele>-3</ele>
        <time>2019-10-17T13:13:20.000Z</time>
      </trkpt>
      <trkpt lat="47.31376" lon="-1.53716">
        <ele>-3</ele>
        <time>2019-10-17T13:13:21.000Z</time>
      </trkpt>
      <trkpt lat="47.3138" lon="-1.5372">
        <ele>-3</ele>
        <time>2019-10-17T13:13:22.000Z</time>
      </trkpt>
      <trkpt lat="47.31384" lon="-1.53725">
        <ele>-3</ele>
        <time>2019-10-17T13:13:23.000Z</time>
      </trkpt>
      <trkpt lat="47.31388" lon="-1.53731">
        <ele>-4</ele>
        <time>2019-10-17T13:13:24.000Z</time>
      </trkpt>
      <trkpt lat="47.31392" lon="-1.53737">
        <ele>-4</ele>
        <time>2019-10-17T13:13:25.000Z</time>
      </trkpt>
      <trkpt lat="47.31395" lon="-1.53743">
        <ele>-4</ele>
        <time>2019-10-17T13:13:26.000Z</time>
      </trkpt>
      <trkpt lat="47.31396" lon="-1.53749">
        <ele>-4</ele>
        <time>2019-10-17T13:13:27.000Z</time>
      </trkpt>
      <trkpt lat="47.31395" lon="-1.53752">
        <ele>-4</ele>
        <time>2019-10-17T13:13:28.000Z</time>
      </trkpt>
      <trkpt lat="47.31391" lon="-1.53754">
        <ele>-4</ele>
        <time>2019-10-17T13:13:29.000Z</time>
      </trkpt>
      <trkpt lat="47.31387" lon="-1.53755">
        <ele>-4</ele>
        <time>2019-10-17T13:13:30.000Z</time>
      </trkpt>
      <trkpt lat="47.31383" lon="-1.53756">
        <ele>-4</ele>
        <time>2019-10-17T13:13:31.000Z</time>
      </trkpt>
      <trkpt lat="47.31379" lon="-1.53759">
        <ele>-4</ele>
        <time>2019-10-17T13:13:32.000Z</time>
      </trkpt>
      <trkpt lat="47.31374" lon="-1.53761">
        <ele>-3</ele>
        <time>2019-10-17T13:13:33.000Z</time>
      </trkpt>
      <trkpt lat="47.31369" lon="-1.53763">
        <ele>-3</ele>
        <time>2019-10-17T13:13:34.000Z</time>
      </trkpt>
      <trkpt lat="47.31364" lon="-1.53765">
        <ele>-2</ele>
        <time>2019-10-17T13:13:35.000Z</time>
      </trkpt>
      <trkpt lat="47.31359" lon="-1.53767">
        <ele>-2</ele>
        <time>2019-10-17T13:13:36.000Z</time>
      </trkpt>
      <trkpt lat="47.31353" lon="-1.5377">
        <ele>-2</ele>
        <time>2019-10-17T13:13:37.000Z</time>
      </trkpt>
      <trkpt lat="47.31348" lon="-1.53772">
        <ele>-1</ele>
        <time>2019-10-17T13:13:38.000Z</time>
      </trkpt>
      <trkpt lat="47.31343" lon="-1.53775">
        <ele>-1</ele>
        <time>2019-10-17T13:13:39.000Z</time>
      </trkpt>
      <trkpt lat="47.31338" lon="-1.53777">
        <ele>-1</ele>
        <time>2019-10-17T13:13:40.000Z</time>
      </trkpt>
      <trkpt lat="47.31333" lon="-1.53779">
        <ele>7.1</ele>
        <time>2019-10-17T13:13:41.000Z</time>
      </trkpt>
      <trkpt lat="47.31329" lon="-1.53781">
        <ele>7.2</ele>
        <time>2019-10-17T13:13:42.000Z</time>
      </trkpt>
      <trkpt lat="47.31325" lon="-1.53783">
        <ele>7.3</ele>
        <time>2019-10-17T13:13:43.000Z</time>
      </trkpt>
      <trkpt lat="47.3132" lon="-1.53785">
        <ele>7.4</ele>
        <time>2019-10-17T13:13:44.000Z</time>
      </trkpt>
      <trkpt lat="47.31315" lon="-1.53788">
        <ele>7.5</ele>
        <time>2019-10-17T13:13:45.000Z</time>
      </trkpt>
      <trkpt lat="47.31311" lon="-1.5379">
        <ele>7.5</ele>
        <time>2019-10-17T13:13:46.000Z</time>
      </trkpt>
      <trkpt lat="47.31306" lon="-1.53793">
        <ele>7.6</ele>
        <time>2019-10-17T13:13:47.000Z</time>
      </trkpt>
      <trkpt lat="47.31302" lon="-1.53796">
        <ele>7.5</ele>
        <time>2019-10-17T13:13:48.000Z</time>
      </trkpt>
      <trkpt lat="47.31297" lon="-1.53798">
        <ele>7.5</ele>
        <time>2019-10-17T13:13:49.000Z</time>
      </trkpt>
      <trkpt lat="47.31294" lon="-1.538">
        <ele>7.5</ele>
        <time>2019-10-17T13:13:50.000Z</time>
      </trkpt>
      <trkpt lat="47.31292" lon="-1.53802">
        <ele>7.4</ele>
        <time>2019-10-17T13:13:51.000Z</time>
      </trkpt>
      <trkpt lat="47.31291" lon="-1.53802">
        <ele>7.4</ele>
        <time>2019-10-17T13:13:52.000Z</time>
      </trkpt>
      <trkpt lat="47.3129" lon="-1.53803">
        <ele>7.4</ele>
        <time>2019-10-17T13:13:53.000Z</time>
      </trkpt>
      <trkpt lat="47.31289" lon="-1.53804">
        <ele>7.4</ele>
        <time>2019-10-17T13:13:54.000Z</time>
      </trkpt>
      <trkpt lat="47.31288" lon="-1.53805">
        <ele>7.4</ele>
        <time>2019-10-17T13:13:55.000Z</time>
      </trkpt>
      <trkpt lat="47.31286" lon="-1.53807">
        <ele>7.5</ele>
        <time>2019-10-17T13:13:56.000Z</time>
      </trkpt>
      <trkpt lat="47.31283" lon="-1.53809">
        <ele>7.8</ele>
        <time>2019-10-17T13:13:57.000Z</time>
      </trkpt>
      <trkpt lat="47.3128" lon="-1.5381">
        <ele>7.9</ele>
        <time>2019-10-17T13:13:58.000Z</time>
      </trkpt>
      <trkpt lat="47.31277" lon="-1.53811">
        <ele>8</ele>
        <time>2019-10-17T13:13:59.000Z</time>
      </trkpt>
      <trkpt lat="47.31273" lon="-1.53812">
        <ele>8.1</ele>
        <time>2019-10-17T13:14:00.000Z</time>
      </trkpt>
      <trkpt lat="47.3127" lon="-1.53813">
        <ele>8.3</ele>
        <time>2019-10-17T13:14:01.000Z</time>
      </trkpt>
      <trkpt lat="47.31267" lon="-1.53815">
        <ele>8.6</ele>
        <time>2019-10-17T13:14:02.000Z</time>
      </trkpt>
      <trkpt lat="47.31263" lon="-1.53818">
        <ele>8.8</ele>
        <time>2019-10-17T13:14:03.000Z</time>
      </trkpt>
      <trkpt lat="47.31259" lon="-1.5382">
        <ele>-1</ele>
        <time>2019-10-17T13:14:04.000Z</time>
      </trkpt>
      <trkpt lat="47.31255" lon="-1.53822">
        <ele>-1</ele>
        <time>2019-10-17T13:14:05.000Z</time>
      </trkpt>
      <trkpt lat="47.31251" lon="-1.53824">
        <ele>-1</ele>
        <time>2019-10-17T13:14:06.000Z</time>
      </trkpt>
      <trkpt lat="47.31247" lon="-1.53825">
        <ele>-1</ele>
        <time>2019-10-17T13:14:07.000Z</time>
      </trkpt>
      <trkpt lat="47.31244" lon="-1.53826">
        <ele>-1</ele>
        <time>2019-10-17T13:14:08.000Z</time>
      </trkpt>
      <trkpt lat="47.31241" lon="-1.53827">
        <ele>-1</ele>
        <time>2019-10-17T13:14:09.000Z</time>
      </trkpt>
      <trkpt lat="47.31238" lon="-1.53827">
        <ele>-1</ele>
        <time>2019-10-17T13:14:10.000Z</time>
      </trkpt>
      <trkpt lat="47.31236" lon="-1.53827">
        <ele>-1</ele>
        <time>2019-10-17T13:14:11.000Z</time>
      </trkpt>
      <trkpt lat="47.31234" lon="-1.53827">
        <ele>-1</ele>
        <time>2019-10-17T13:14:12.000Z</time>
      </trkpt>
      <trkpt lat="47.31234" lon="-1.53827">
        <ele>-1</ele>
        <time>2019-10-17T13:14:17.000Z</time>
      </trkpt>
      <trkpt lat="47.31234" lon="-1.53827">
        <ele>-1</ele>
        <time>2019-10-17T13:14:18.000Z</time>
      </trkpt>
      <trkpt lat="47.3123" lon="-1.53834">
        <ele>-1</ele>
        <time>2019-10-17T13:14:19.000Z</time>
      </trkpt>
      <trkpt lat="47.31232" lon="-1.53838">
        <ele>-1</ele>
        <time>2019-10-17T13:14:20.000Z</time>
      </trkpt>
      <trkpt lat="47.31233" lon="-1.53843">
        <ele>-1</ele>
        <time>2019-10-17T13:14:21.000Z</time>
      </trkpt>
      <trkpt lat="47.31235" lon="-1.53848">
        <ele>-2</ele>
        <time>2019-10-17T13:14:22.000Z</time>
      </trkpt>
      <trkpt lat="47.31236" lon="-1.53852">
        <ele>-2</ele>
        <time>2019-10-17T13:14:23.000Z</time>
      </trkpt>
      <trkpt lat="47.31237" lon="-1.53855">
        <ele>-2</ele>
        <time>2019-10-17T13:14:24.000Z</time>
      </trkpt>
      <trkpt lat="47.31237" lon="-1.53859">
        <ele>-2</ele>
        <time>2019-10-17T13:14:25.000Z</time>
      </trkpt>
      <trkpt lat="47.31238" lon="-1.53863">
        <ele>-2</ele>
        <time>2019-10-17T13:14:26.000Z</time>
      </trkpt>
      <trkpt lat="47.31239" lon="-1.5387">
        <ele>-3</ele>
        <time>2019-10-17T13:14:27.000Z</time>
      </trkpt>
      <trkpt lat="47.31242" lon="-1.53876">
        <ele>-3</ele>
        <time>2019-10-17T13:14:28.000Z</time>
      </trkpt>
      <trkpt lat="47.31245" lon="-1.53883">
        <ele>-4</ele>
        <time>2019-10-17T13:14:29.000Z</time>
      </trkpt>
      <trkpt lat="47.31248" lon="-1.53887">
        <ele>-5</ele>
        <time>2019-10-17T13:14:30.000Z</time>
      </trkpt>
      <trkpt lat="47.3125" lon="-1.53891">
        <ele>-6</ele>
        <time>2019-10-17T13:14:31.000Z</time>
      </trkpt>
      <trkpt lat="47.31252" lon="-1.53894">
        <ele>-7</ele>
        <time>2019-10-17T13:14:32.000Z</time>
      </trkpt>
      <trkpt lat="47.31253" lon="-1.53895">
        <ele>-8</ele>
        <time>2019-10-17T13:14:33.000Z</time>
      </trkpt>
      <trkpt lat="47.31254" lon="-1.53897">
        <ele>-9</ele>
        <time>2019-10-17T13:14:34.000Z</time>
      </trkpt>
      <trkpt lat="47.31254" lon="-1.53898">
        <ele>-9</ele>
        <time>2019-10-17T13:14:35.000Z</time>
      </trkpt>
      <trkpt lat="47.31255" lon="-1.53898">
        <ele>-10</ele>
        <time>2019-10-17T13:14:36.000Z</time>
      </trkpt>
      <trkpt lat="47.31255" lon="-1.53899">
        <ele>-10</ele>
        <time>2019-10-17T13:14:37.000Z</time>
      </trkpt>
      <trkpt lat="47.31255" lon="-1.53899">
        <ele>-10</ele>
        <time>2019-10-17T13:14:38.000Z</time>
      </trkpt>
      <trkpt lat="47.31254" lon="-1.53899">
        <ele>-10</ele>
        <time>2019-10-17T13:14:39.000Z</time>
      </trkpt>
      <trkpt lat="47.31253" lon="-1.53898">
        <ele>-10</ele>
        <time>2019-10-17T13:14:40.000Z</time>
      </trkpt>
      <trkpt lat="47.31252" lon="-1.53897">
        <ele>-10</ele>
        <time>2019-10-17T13:14:41.000Z</time>
      </trkpt>
      <trkpt lat="47.31249" lon="-1.53897">
        <ele>-9</ele>
        <time>2019-10-17T13:14:42.000Z</time>
      </trkpt>
      <trkpt lat="47.31247" lon="-1.53897">
        <ele>-9</ele>
        <time>2019-10-17T13:14:43.000Z</time>
      </trkpt>
      <trkpt lat="47.31244" lon="-1.53897">
        <ele>-9</ele>
        <time>2019-10-17T13:14:44.000Z</time>
      </trkpt>
      <trkpt lat="47.31242" lon="-1.53897">
        <ele>-9</ele>
        <time>2019-10-17T13:14:45.000Z</time>
      </trkpt>
      <trkpt lat="47.31239" lon="-1.53898">
        <ele>-9</ele>
        <time>2019-10-17T13:14:46.000Z</time>
      </trkpt>
      <trkpt lat="47.31236" lon="-1.539">
        <ele>-9</ele>
        <time>2019-10-17T13:14:47.000Z</time>
      </trkpt>
      <trkpt lat="47.31234" lon="-1.53901">
        <ele>-9</ele>
        <time>2019-10-17T13:14:48.000Z</time>
      </trkpt>
      <trkpt lat="47.31231" lon="-1.53902">
        <ele>-9</ele>
        <time>2019-10-17T13:14:49.000Z</time>
      </trkpt>
      <trkpt lat="47.31228" lon="-1.53904">
        <ele>-9</ele>
        <time>2019-10-17T13:14:50.000Z</time>
      </trkpt>
      <trkpt lat="47.31225" lon="-1.53905">
        <ele>-9</ele>
        <time>2019-10-17T13:14:51.000Z</time>
      </trkpt>
      <trkpt lat="47.31222" lon="-1.53906">
        <ele>-8</ele>
        <time>2019-10-17T13:14:52.000Z</time>
      </trkpt>
      <trkpt lat="47.31219" lon="-1.53907">
        <ele>-8</ele>
        <time>2019-10-17T13:14:53.000Z</time>
      </trkpt>
      <trkpt lat="47.31216" lon="-1.53909">
        <ele>-8</ele>
        <time>2019-10-17T13:14:54.000Z</time>
      </trkpt>
      <trkpt lat="47.31213" lon="-1.53911">
        <ele>-8</ele>
        <time>2019-10-17T13:14:55.000Z</time>
      </trkpt>
      <trkpt lat="47.31211" lon="-1.53913">
        <ele>-8</ele>
        <time>2019-10-17T13:14:56.000Z</time>
      </trkpt>
      <trkpt lat="47.31209" lon="-1.53914">
        <ele>-8</ele>
        <time>2019-10-17T13:14:57.000Z</time>
      </trkpt>
      <trkpt lat="47.31207" lon="-1.53916">
        <ele>-8</ele>
        <time>2019-10-17T13:14:58.000Z</time>
      </trkpt>
      <trkpt lat="47.31205" lon="-1.53918">
        <ele>-8</ele>
        <time>2019-10-17T13:14:59.000Z</time>
      </trkpt>
      <trkpt lat="47.31202" lon="-1.53919">
        <ele>-8</ele>
        <time>2019-10-17T13:15:00.000Z</time>
      </trkpt>
      <trkpt lat="47.31199" lon="-1.53921">
        <ele>-8</ele>
        <time>2019-10-17T13:15:01.000Z</time>
      </trkpt>
      <trkpt lat="47.31195" lon="-1.53923">
        <ele>-8</ele>
        <time>2019-10-17T13:15:02.000Z</time>
      </trkpt>
      <trkpt lat="47.31191" lon="-1.53925">
        <ele>-8</ele>
        <time>2019-10-17T13:15:03.000Z</time>
      </trkpt>
      <trkpt lat="47.31187" lon="-1.53927">
        <ele>-8</ele>
        <time>2019-10-17T13:15:04.000Z</time>
      </trkpt>
      <trkpt lat="47.31183" lon="-1.53929">
        <ele>-8</ele>
        <time>2019-10-17T13:15:05.000Z</time>
      </trkpt>
      <trkpt lat="47.31179" lon="-1.53932">
        <ele>-8</ele>
        <time>2019-10-17T13:15:06.000Z</time>
      </trkpt>
      <trkpt lat="47.31176" lon="-1.53935">
        <ele>-8</ele>
        <time>2019-10-17T13:15:07.000Z</time>
      </trkpt>
      <trkpt lat="47.31172" lon="-1.53939">
        <ele>-8</ele>
        <time>2019-10-17T13:15:08.000Z</time>
      </trkpt>
      <trkpt lat="47.31168" lon="-1.53944">
        <ele>-8</ele>
        <time>2019-10-17T13:15:09.000Z</time>
      </trkpt>
      <trkpt lat="47.31165" lon="-1.53949">
        <ele>-8</ele>
        <time>2019-10-17T13:15:10.000Z</time>
      </trkpt>
      <trkpt lat="47.31163" lon="-1.53955">
        <ele>-8</ele>
        <time>2019-10-17T13:15:11.000Z</time>
      </trkpt>
      <trkpt lat="47.3116" lon="-1.5396">
        <ele>-7</ele>
        <time>2019-10-17T13:15:12.000Z</time>
      </trkpt>
      <trkpt lat="47.31158" lon="-1.53967">
        <ele>-7</ele>
        <time>2019-10-17T13:15:13.000Z</time>
      </trkpt>
      <trkpt lat="47.31157" lon="-1.53973">
        <ele>-7</ele>
        <time>2019-10-17T13:15:14.000Z</time>
      </trkpt>
      <trkpt lat="47.31156" lon="-1.5398">
        <ele>-7</ele>
        <time>2019-10-17T13:15:15.000Z</time>
      </trkpt>
      <trkpt lat="47.31155" lon="-1.53988">
        <ele>-7</ele>
        <time>2019-10-17T13:15:16.000Z</time>
      </trkpt>
      <trkpt lat="47.31155" lon="-1.53995">
        <ele>-8</ele>
        <time>2019-10-17T13:15:17.000Z</time>
      </trkpt>
      <trkpt lat="47.31155" lon="-1.54">
        <ele>-8</ele>
        <time>2019-10-17T13:15:18.000Z</time>
      </trkpt>
      <trkpt lat="47.31156" lon="-1.54004">
        <ele>-8</ele>
        <time>2019-10-17T13:15:19.000Z</time>
      </trkpt>
      <trkpt lat="47.31156" lon="-1.54007">
        <ele>-8</ele>
        <time>2019-10-17T13:15:20.000Z</time>
      </trkpt>
      <trkpt lat="47.31157" lon="-1.5401">
        <ele>-8</ele>
        <time>2019-10-17T13:15:21.000Z</time>
      </trkpt>
      <trkpt lat="47.31157" lon="-1.54011">
        <ele>-8</ele>
        <time>2019-10-17T13:15:22.000Z</time>
      </trkpt>
      <trkpt lat="47.31157" lon="-1.54012">
        <ele>-8</ele>
        <time>2019-10-17T13:15:23.000Z</time>
      </trkpt>
      <trkpt lat="47.31157" lon="-1.54012">
        <ele>-8</ele>
        <time>2019-10-17T13:15:24.000Z</time>
      </trkpt>
      <trkpt lat="47.31157" lon="-1.54012">
        <ele>-8</ele>
        <time>2019-10-17T13:15:25.000Z</time>
      </trkpt>
      <trkpt lat="47.31151" lon="-1.54016">
        <ele>-6</ele>
        <time>2019-10-17T13:15:26.000Z</time>
      </trkpt>
      <trkpt lat="47.3115" lon="-1.54019">
        <ele>-6</ele>
        <time>2019-10-17T13:15:27.000Z</time>
      </trkpt>
      <trkpt lat="47.31149" lon="-1.54023">
        <ele>-6</ele>
        <time>2019-10-17T13:15:28.000Z</time>
      </trkpt>
      <trkpt lat="47.31149" lon="-1.54027">
        <ele>-6</ele>
        <time>2019-10-17T13:15:29.000Z</time>
      </trkpt>
      <trkpt lat="47.31148" lon="-1.54033">
        <ele>-6</ele>
        <time>2019-10-17T13:15:30.000Z</time>
      </trkpt>
      <trkpt lat="47.31147" lon="-1.54039">
        <ele>-6</ele>
        <time>2019-10-17T13:15:31.000Z</time>
      </trkpt>
      <trkpt lat="47.31147" lon="-1.54045">
        <ele>-6</ele>
        <time>2019-10-17T13:15:32.000Z</time>
      </trkpt>
      <trkpt lat="47.31148" lon="-1.54051">
        <ele>-5</ele>
        <time>2019-10-17T13:15:33.000Z</time>
      </trkpt>
      <trkpt lat="47.3115" lon="-1.54056">
        <ele>-5</ele>
        <time>2019-10-17T13:15:34.000Z</time>
      </trkpt>
      <trkpt lat="47.31153" lon="-1.54061">
        <ele>-5</ele>
        <time>2019-10-17T13:15:35.000Z</time>
      </trkpt>
      <trkpt lat="47.31157" lon="-1.54066">
        <ele>-5</ele>
        <time>2019-10-17T13:15:36.000Z</time>
      </trkpt>
      <trkpt lat="47.31162" lon="-1.54071">
        <ele>-5</ele>
        <time>2019-10-17T13:15:37.000Z</time>
      </trkpt>
      <trkpt lat="47.31167" lon="-1.54076">
        <ele>-5</ele>
        <time>2019-10-17T13:15:38.000Z</time>
      </trkpt>
      <trkpt lat="47.31172" lon="-1.54082">
        <ele>-5</ele>
        <time>2019-10-17T13:15:39.000Z</time>
      </trkpt>
      <trkpt lat="47.31176" lon="-1.54089">
        <ele>-5</ele>
        <time>2019-10-17T13:15:40.000Z</time>
      </trkpt>
      <trkpt lat="47.3118" lon="-1.54097">
        <ele>-5</ele>
        <time>2019-10-17T13:15:41.000Z</time>
      </trkpt>
      <trkpt lat="47.31183" lon="-1.54106">
        <ele>-5</ele>
        <time>2019-10-17T13:15:42.000Z</time>
      </trkpt>
      <trkpt lat="47.31185" lon="-1.54116">
        <ele>-5</ele>
        <time>2019-10-17T13:15:43.000Z</time>
      </trkpt>
      <trkpt lat="47.31186" lon="-1.54126">
        <ele>-5</ele>
        <time>2019-10-17T13:15:44.000Z</time>
      </trkpt>
      <trkpt lat="47.31186" lon="-1.54135">
        <ele>-5</ele>
        <time>2019-10-17T13:15:45.000Z</time>
      </trkpt>
      <trkpt lat="47.31185" lon="-1.54144">
        <ele>-5</ele>
        <time>2019-10-17T13:15:46.000Z</time>
      </trkpt>
      <trkpt lat="47.31185" lon="-1.54153">
        <ele>-5</ele>
        <time>2019-10-17T13:15:47.000Z</time>
      </trkpt>
      <trkpt lat="47.31185" lon="-1.54161">
        <ele>-4</ele>
        <time>2019-10-17T13:15:48.000Z</time>
      </trkpt>
      <trkpt lat="47.31185" lon="-1.54169">
        <ele>-4</ele>
        <time>2019-10-17T13:15:49.000Z</time>
      </trkpt>
      <trkpt lat="47.31187" lon="-1.54176">
        <ele>-4</ele>
        <time>2019-10-17T13:15:50.000Z</time>
      </trkpt>
      <trkpt lat="47.31188" lon="-1.54183">
        <ele>-4</ele>
        <time>2019-10-17T13:15:51.000Z</time>
      </trkpt>
      <trkpt lat="47.3119" lon="-1.5419">
        <ele>-4</ele>
        <time>2019-10-17T13:15:52.000Z</time>
      </trkpt>
      <trkpt lat="47.31193" lon="-1.54197">
        <ele>-4</ele>
        <time>2019-10-17T13:15:53.000Z</time>
      </trkpt>
      <trkpt lat="47.31197" lon="-1.54204">
        <ele>-4</ele>
        <time>2019-10-17T13:15:54.000Z</time>
      </trkpt>
      <trkpt lat="47.31201" lon="-1.54211">
        <ele>-4</ele>
        <time>2019-10-17T13:15:55.000Z</time>
      </trkpt>
      <trkpt lat="47.31205" lon="-1.54216">
        <ele>-4</ele>
        <time>2019-10-17T13:15:56.000Z</time>
      </trkpt>
      <trkpt lat="47.31209" lon="-1.54219">
        <ele>-4</ele>
        <time>2019-10-17T13:15:57.000Z</time>
      </trkpt>
      <trkpt lat="47.31213" lon="-1.54222">
        <ele>-4</ele>
        <time>2019-10-17T13:15:58.000Z</time>
      </trkpt>
      <trkpt lat="47.31217" lon="-1.54225">
        <ele>-4</ele>
        <time>2019-10-17T13:15:59.000Z</time>
      </trkpt>
      <trkpt lat="47.31221" lon="-1.54228">
        <ele>-4</ele>
        <time>2019-10-17T13:16:00.000Z</time>
      </trkpt>
      <trkpt lat="47.31225" lon="-1.5423">
        <ele>-4</ele>
        <time>2019-10-17T13:16:01.000Z</time>
      </trkpt>
      <trkpt lat="47.31228" lon="-1.54234">
        <ele>-3</ele>
        <time>2019-10-17T13:16:02.000Z</time>
      </trkpt>
      <trkpt lat="47.3123" lon="-1.54239">
        <ele>-3</ele>
        <time>2019-10-17T13:16:03.000Z</time>
      </trkpt>
      <trkpt lat="47.31232" lon="-1.54244">
        <ele>-3</ele>
        <time>2019-10-17T13:16:04.000Z</time>
      </trkpt>
      <trkpt lat="47.31233" lon="-1.5425">
        <ele>-3</ele>
        <time>2019-10-17T13:16:05.000Z</time>
      </trkpt>
      <trkpt lat="47.31234" lon="-1.54256">
        <ele>-3</ele>
        <time>2019-10-17T13:16:06.000Z</time>
      </trkpt>
      <trkpt lat="47.31235" lon="-1.54263">
        <ele>-3</ele>
        <time>2019-10-17T13:16:07.000Z</time>
      </trkpt>
      <trkpt lat="47.31235" lon="-1.54269">
        <ele>-3</ele>
        <time>2019-10-17T13:16:08.000Z</time>
      </trkpt>
      <trkpt lat="47.31236" lon="-1.54276">
        <ele>-3</ele>
        <time>2019-10-17T13:16:09.000Z</time>
      </trkpt>
      <trkpt lat="47.31237" lon="-1.54282">
        <ele>-3</ele>
        <time>2019-10-17T13:16:10.000Z</time>
      </trkpt>
      <trkpt lat="47.31239" lon="-1.54289">
        <ele>-3</ele>
        <time>2019-10-17T13:16:11.000Z</time>
      </trkpt>
      <trkpt lat="47.3124" lon="-1.54295">
        <ele>-3</ele>
        <time>2019-10-17T13:16:12.000Z</time>
      </trkpt>
      <trkpt lat="47.3124" lon="-1.54302">
        <ele>-3</ele>
        <time>2019-10-17T13:16:13.000Z</time>
      </trkpt>
      <trkpt lat="47.31239" lon="-1.54308">
        <ele>-3</ele>
        <time>2019-10-17T13:16:14.000Z</time>
      </trkpt>
      <trkpt lat="47.31236" lon="-1.54313">
        <ele>-3</ele>
        <time>2019-10-17T13:16:15.000Z</time>
      </trkpt>
      <trkpt lat="47.31233" lon="-1.54316">
        <ele>-3</ele>
        <time>2019-10-17T13:16:16.000Z</time>
      </trkpt>
      <trkpt lat="47.3123" lon="-1.5432">
        <ele>-3</ele>
        <time>2019-10-17T13:16:17.000Z</time>
      </trkpt>
      <trkpt lat="47.31226" lon="-1.54323">
        <ele>-2</ele>
        <time>2019-10-17T13:16:18.000Z</time>
      </trkpt>
      <trkpt lat="47.31223" lon="-1.54327">
        <ele>-2</ele>
        <time>2019-10-17T13:16:19.000Z</time>
      </trkpt>
      <trkpt lat="47.31219" lon="-1.5433">
        <ele>-2</ele>
        <time>2019-10-17T13:16:20.000Z</time>
      </trkpt>
      <trkpt lat="47.31215" lon="-1.54333">
        <ele>-2</ele>
        <time>2019-10-17T13:16:21.000Z</time>
      </trkpt>
      <trkpt lat="47.3121" lon="-1.54335">
        <ele>-1</ele>
        <time>2019-10-17T13:16:22.000Z</time>
      </trkpt>
      <trkpt lat="47.31205" lon="-1.54335">
        <ele>-1</ele>
        <time>2019-10-17T13:16:23.000Z</time>
      </trkpt>
      <trkpt lat="47.31199" lon="-1.54333">
        <ele>8</ele>
        <time>2019-10-17T13:16:24.000Z</time>
      </trkpt>
      <trkpt lat="47.31194" lon="-1.5433">
        <ele>8.1</ele>
        <time>2019-10-17T13:16:25.000Z</time>
      </trkpt>
      <trkpt lat="47.31188" lon="-1.54325">
        <ele>8.2</ele>
        <time>2019-10-17T13:16:26.000Z</time>
      </trkpt>
      <trkpt lat="47.31183" lon="-1.54321">
        <ele>8.3</ele>
        <time>2019-10-17T13:16:27.000Z</time>
      </trkpt>
      <trkpt lat="47.31178" lon="-1.54318">
        <ele>8.2</ele>
        <time>2019-10-17T13:16:28.000Z</time>
      </trkpt>
      <trkpt lat="47.31173" lon="-1.54316">
        <ele>1</ele>
        <time>2019-10-17T13:16:29.000Z</time>
      </trkpt>
      <trkpt lat="47.31168" lon="-1.54314">
        <ele>1</ele>
        <time>2019-10-17T13:16:30.000Z</time>
      </trkpt>
      <trkpt lat="47.31162" lon="-1.54313">
        <ele>1</ele>
        <time>2019-10-17T13:16:31.000Z</time>
      </trkpt>
      <trkpt lat="47.31157" lon="-1.54312">
        <ele>2</ele>
        <time>2019-10-17T13:16:32.000Z</time>
      </trkpt>
      <trkpt lat="47.31152" lon="-1.54311">
        <ele>2</ele>
        <time>2019-10-17T13:16:33.000Z</time>
      </trkpt>
      <trkpt lat="47.31146" lon="-1.5431">
        <ele>3</ele>
        <time>2019-10-17T13:16:34.000Z</time>
      </trkpt>
      <trkpt lat="47.31141" lon="-1.54309">
        <ele>3</ele>
        <time>2019-10-17T13:16:35.000Z</time>
      </trkpt>
      <trkpt lat="47.31136" lon="-1.54307">
        <ele>4</ele>
        <time>2019-10-17T13:16:36.000Z</time>
      </trkpt>
      <trkpt lat="47.31131" lon="-1.54306">
        <ele>4</ele>
        <time>2019-10-17T13:16:37.000Z</time>
      </trkpt>
      <trkpt lat="47.31126" lon="-1.54304">
        <ele>5</ele>
        <time>2019-10-17T13:16:38.000Z</time>
      </trkpt>
      <trkpt lat="47.31122" lon="-1.54303">
        <ele>6</ele>
        <time>2019-10-17T13:16:39.000Z</time>
      </trkpt>
      <trkpt lat="47.31118" lon="-1.54304">
        <ele>6</ele>
        <time>2019-10-17T13:16:40.000Z</time>
      </trkpt>
      <trkpt lat="47.31114" lon="-1.54304">
        <ele>7</ele>
        <time>2019-10-17T13:16:41.000Z</time>
      </trkpt>
      <trkpt lat="47.31111" lon="-1.54306">
        <ele>7</ele>
        <time>2019-10-17T13:16:42.000Z</time>
      </trkpt>
      <trkpt lat="47.31108" lon="-1.54305">
        <ele>8</ele>
        <time>2019-10-17T13:16:43.000Z</time>
      </trkpt>
      <trkpt lat="47.31106" lon="-1.54303">
        <ele>9</ele>
        <time>2019-10-17T13:16:44.000Z</time>
      </trkpt>
      <trkpt lat="47.31106" lon="-1.54301">
        <ele>9</ele>
        <time>2019-10-17T13:16:45.000Z</time>
      </trkpt>
      <trkpt lat="47.31106" lon="-1.543">
        <ele>10</ele>
        <time>2019-10-17T13:16:46.000Z</time>
      </trkpt>
      <trkpt lat="47.31108" lon="-1.54299">
        <ele>10</ele>
        <time>2019-10-17T13:16:47.000Z</time>
      </trkpt>
      <trkpt lat="47.31111" lon="-1.54299">
        <ele>11</ele>
        <time>2019-10-17T13:16:48.000Z</time>
      </trkpt>
      <trkpt lat="47.31114" lon="-1.54298">
        <ele>11</ele>
        <time>2019-10-17T13:16:49.000Z</time>
      </trkpt>
      <trkpt lat="47.31119" lon="-1.54298">
        <ele>11</ele>
        <time>2019-10-17T13:16:50.000Z</time>
      </trkpt>
      <trkpt lat="47.31124" lon="-1.54298">
        <ele>11</ele>
        <time>2019-10-17T13:16:51.000Z</time>
      </trkpt>
      <trkpt lat="47.31129" lon="-1.54298">
        <ele>11</ele>
        <time>2019-10-17T13:16:52.000Z</time>
      </trkpt>
      <trkpt lat="47.31134" lon="-1.54299">
        <ele>12</ele>
        <time>2019-10-17T13:16:53.000Z</time>
      </trkpt>
      <trkpt lat="47.31139" lon="-1.543">
        <ele>12</ele>
        <time>2019-10-17T13:16:54.000Z</time>
      </trkpt>
      <trkpt lat="47.31144" lon="-1.543">
        <ele>12</ele>
        <time>2019-10-17T13:16:55.000Z</time>
      </trkpt>
      <trkpt lat="47.31148" lon="-1.54302">
        <ele>12</ele>
        <time>2019-10-17T13:16:56.000Z</time>
      </trkpt>
      <trkpt lat="47.31149" lon="-1.54304">
        <ele>12</ele>
        <time>2019-10-17T13:16:57.000Z</time>
      </trkpt>
      <trkpt lat="47.31149" lon="-1.54307">
        <ele>11</ele>
        <time>2019-10-17T13:16:58.000Z</time>
      </trkpt>
      <trkpt lat="47.31149" lon="-1.54308">
        <ele>11</ele>
        <time>2019-10-17T13:16:59.000Z</time>
      </trkpt>
      <trkpt lat="47.31147" lon="-1.54308">
        <ele>11</ele>
        <time>2019-10-17T13:17:00.000Z</time>
      </trkpt>
      <trkpt lat="47.31145" lon="-1.54306">
        <ele>11</ele>
        <time>2019-10-17T13:17:01.000Z</time>
      </trkpt>
      <trkpt lat="47.31143" lon="-1.54307">
        <ele>11</ele>
        <time>2019-10-17T13:17:02.000Z</time>
      </trkpt>
      <trkpt lat="47.31141" lon="-1.54308">
        <ele>11</ele>
        <time>2019-10-17T13:17:03.000Z</time>
      </trkpt>
      <trkpt lat="47.3114" lon="-1.54309">
        <ele>10</ele>
        <time>2019-10-17T13:17:04.000Z</time>
      </trkpt>
      <trkpt lat="47.31139" lon="-1.54309">
        <ele>10</ele>
        <time>2019-10-17T13:17:05.000Z</time>
      </trkpt>
      <trkpt lat="47.31138" lon="-1.5431">
        <ele>10</ele>
        <time>2019-10-17T13:17:06.000Z</time>
      </trkpt>
      <trkpt lat="47.31136" lon="-1.54309">
        <ele>11</ele>
        <time>2019-10-17T13:17:07.000Z</time>
      </trkpt>
      <trkpt lat="47.31134" lon="-1.54309">
        <ele>11</ele>
        <time>2019-10-17T13:17:08.000Z</time>
      </trkpt>
      <trkpt lat="47.31133" lon="-1.54311">
        <ele>11</ele>
        <time>2019-10-17T13:17:09.000Z</time>
      </trkpt>
      <trkpt lat="47.31132" lon="-1.54314">
        <ele>11</ele>
        <time>2019-10-17T13:17:10.000Z</time>
      </trkpt>
      <trkpt lat="47.31132" lon="-1.54317">
        <ele>11</ele>
        <time>2019-10-17T13:17:11.000Z</time>
      </trkpt>
      <trkpt lat="47.31131" lon="-1.54321">
        <ele>11</ele>
        <time>2019-10-17T13:17:12.000Z</time>
      </trkpt>
      <trkpt lat="47.31131" lon="-1.54325">
        <ele>11</ele>
        <time>2019-10-17T13:17:13.000Z</time>
      </trkpt>
      <trkpt lat="47.31129" lon="-1.54328">
        <ele>11</ele>
        <time>2019-10-17T13:17:14.000Z</time>
      </trkpt>
      <trkpt lat="47.31128" lon="-1.54332">
        <ele>11</ele>
        <time>2019-10-17T13:17:15.000Z</time>
      </trkpt>
      <trkpt lat="47.31127" lon="-1.54334">
        <ele>11</ele>
        <time>2019-10-17T13:17:16.000Z</time>
      </trkpt>
      <trkpt lat="47.31125" lon="-1.54337">
        <ele>11</ele>
        <time>2019-10-17T13:17:17.000Z</time>
      </trkpt>
      <trkpt lat="47.31124" lon="-1.54341">
        <ele>11</ele>
        <time>2019-10-17T13:17:18.000Z</time>
      </trkpt>
      <trkpt lat="47.31124" lon="-1.54345">
        <ele>11</ele>
        <time>2019-10-17T13:17:19.000Z</time>
      </trkpt>
      <trkpt lat="47.31125" lon="-1.5435">
        <ele>11</ele>
        <time>2019-10-17T13:17:20.000Z</time>
      </trkpt>
      <trkpt lat="47.31126" lon="-1.54355">
        <ele>11</ele>
        <time>2019-10-17T13:17:21.000Z</time>
      </trkpt>
      <trkpt lat="47.31128" lon="-1.5436">
        <ele>11</ele>
        <time>2019-10-17T13:17:22.000Z</time>
      </trkpt>
      <trkpt lat="47.31129" lon="-1.54364">
        <ele>11</ele>
        <time>2019-10-17T13:17:23.000Z</time>
      </trkpt>
      <trkpt lat="47.31129" lon="-1.54369">
        <ele>10</ele>
        <time>2019-10-17T13:17:24.000Z</time>
      </trkpt>
      <trkpt lat="47.3113" lon="-1.54373">
        <ele>10</ele>
        <time>2019-10-17T13:17:25.000Z</time>
      </trkpt>
      <trkpt lat="47.3113" lon="-1.54376">
        <ele>10</ele>
        <time>2019-10-17T13:17:26.000Z</time>
      </trkpt>
      <trkpt lat="47.31131" lon="-1.54378">
        <ele>10</ele>
        <time>2019-10-17T13:17:27.000Z</time>
      </trkpt>
      <trkpt lat="47.31131" lon="-1.5438">
        <ele>10</ele>
        <time>2019-10-17T13:17:28.000Z</time>
      </trkpt>
      <trkpt lat="47.31131" lon="-1.54382">
        <ele>10</ele>
        <time>2019-10-17T13:17:29.000Z</time>
      </trkpt>
      <trkpt lat="47.31131" lon="-1.54385">
        <ele>9</ele>
        <time>2019-10-17T13:17:30.000Z</time>
      </trkpt>
      <trkpt lat="47.31131" lon="-1.54387">
        <ele>9</ele>
        <time>2019-10-17T13:17:31.000Z</time>
      </trkpt>
      <trkpt lat="47.31132" lon="-1.5439">
        <ele>9</ele>
        <time>2019-10-17T13:17:32.000Z</time>
      </trkpt>
      <trkpt lat="47.31132" lon="-1.54393">
        <ele>8</ele>
        <time>2019-10-17T13:17:33.000Z</time>
      </trkpt>
      <trkpt lat="47.31134" lon="-1.54397">
        <ele>8</ele>
        <time>2019-10-17T13:17:34.000Z</time>
      </trkpt>
      <trkpt lat="47.31136" lon="-1.54401">
        <ele>8</ele>
        <time>2019-10-17T13:17:35.000Z</time>
      </trkpt>
      <trkpt lat="47.31138" lon="-1.54404">
        <ele>8</ele>
        <time>2019-10-17T13:17:36.000Z</time>
      </trkpt>
      <trkpt lat="47.3114" lon="-1.54408">
        <ele>7</ele>
        <time>2019-10-17T13:17:37.000Z</time>
      </trkpt>
      <trkpt lat="47.31142" lon="-1.5441">
        <ele>7</ele>
        <time>2019-10-17T13:17:38.000Z</time>
      </trkpt>
      <trkpt lat="47.31144" lon="-1.54414">
        <ele>7</ele>
        <time>2019-10-17T13:17:39.000Z</time>
      </trkpt>
      <trkpt lat="47.31145" lon="-1.54417">
        <ele>7</ele>
        <time>2019-10-17T13:17:40.000Z</time>
      </trkpt>
      <trkpt lat="47.31145" lon="-1.5442">
        <ele>6</ele>
        <time>2019-10-17T13:17:41.000Z</time>
      </trkpt>
      <trkpt lat="47.31145" lon="-1.54424">
        <ele>6</ele>
        <time>2019-10-17T13:17:42.000Z</time>
      </trkpt>
      <trkpt lat="47.31147" lon="-1.54427">
        <ele>6</ele>
        <time>2019-10-17T13:17:43.000Z</time>
      </trkpt>
      <trkpt lat="47.31149" lon="-1.54431">
        <ele>5</ele>
        <time>2019-10-17T13:17:44.000Z</time>
      </trkpt>
      <trkpt lat="47.31151" lon="-1.54435">
        <ele>5</ele>
        <time>2019-10-17T13:17:45.000Z</time>
      </trkpt>
      <trkpt lat="47.31154" lon="-1.5444">
        <ele>5</ele>
        <time>2019-10-17T13:17:46.000Z</time>
      </trkpt>
      <trkpt lat="47.31157" lon="-1.54446">
        <ele>5</ele>
        <time>2019-10-17T13:17:47.000Z</time>
      </trkpt>
      <trkpt lat="47.31158" lon="-1.54451">
        <ele>4</ele>
        <time>2019-10-17T13:17:48.000Z</time>
      </trkpt>
      <trkpt lat="47.31158" lon="-1.54455">
        <ele>4</ele>
        <time>2019-10-17T13:17:49.000Z</time>
      </trkpt>
      <trkpt lat="47.31158" lon="-1.5446">
        <ele>4</ele>
        <time>2019-10-17T13:17:50.000Z</time>
      </trkpt>
      <trkpt lat="47.31158" lon="-1.54464">
        <ele>4</ele>
        <time>2019-10-17T13:17:51.000Z</time>
      </trkpt>
      <trkpt lat="47.31156" lon="-1.54469">
        <ele>4</ele>
        <time>2019-10-17T13:17:52.000Z</time>
      </trkpt>
      <trkpt lat="47.31155" lon="-1.54473">
        <ele>3</ele>
        <time>2019-10-17T13:17:53.000Z</time>
      </trkpt>
      <trkpt lat="47.31154" lon="-1.54479">
        <ele>3</ele>
        <time>2019-10-17T13:17:54.000Z</time>
      </trkpt>
      <trkpt lat="47.31153" lon="-1.54486">
        <ele>3</ele>
        <time>2019-10-17T13:17:55.000Z</time>
      </trkpt>
      <trkpt lat="47.31153" lon="-1.54491">
        <ele>3</ele>
        <time>2019-10-17T13:17:56.000Z</time>
      </trkpt>
      <trkpt lat="47.31153" lon="-1.54495">
        <ele>3</ele>
        <time>2019-10-17T13:17:57.000Z</time>
      </trkpt>
      <trkpt lat="47.31154" lon="-1.54499">
        <ele>3</ele>
        <time>2019-10-17T13:17:58.000Z</time>
      </trkpt>
      <trkpt lat="47.31153" lon="-1.54503">
        <ele>3</ele>
        <time>2019-10-17T13:17:59.000Z</time>
      </trkpt>
      <trkpt lat="47.31153" lon="-1.54506">
        <ele>3</ele>
        <time>2019-10-17T13:18:00.000Z</time>
      </trkpt>
      <trkpt lat="47.31152" lon="-1.54509">
        <ele>3</ele>
        <time>2019-10-17T13:18:01.000Z</time>
      </trkpt>
      <trkpt lat="47.31152" lon="-1.54512">
        <ele>3</ele>
        <time>2019-10-17T13:18:02.000Z</time>
      </trkpt>
      <trkpt lat="47.31151" lon="-1.54516">
        <ele>3</ele>
        <time>2019-10-17T13:18:03.000Z</time>
      </trkpt>
      <trkpt lat="47.3115" lon="-1.54521">
        <ele>3</ele>
        <time>2019-10-17T13:18:04.000Z</time>
      </trkpt>
      <trkpt lat="47.3115" lon="-1.54526">
        <ele>3</ele>
        <time>2019-10-17T13:18:05.000Z</time>
      </trkpt>
      <trkpt lat="47.31149" lon="-1.54532">
        <ele>3</ele>
        <time>2019-10-17T13:18:06.000Z</time>
      </trkpt>
      <trkpt lat="47.31148" lon="-1.54538">
        <ele>2</ele>
        <time>2019-10-17T13:18:07.000Z</time>
      </trkpt>
      <trkpt lat="47.31147" lon="-1.54544">
        <ele>2</ele>
        <time>2019-10-17T13:18:08.000Z</time>
      </trkpt>
      <trkpt lat="47.31146" lon="-1.54549">
        <ele>2</ele>
        <time>2019-10-17T13:18:09.000Z</time>
      </trkpt>
      <trkpt lat="47.31145" lon="-1.54554">
        <ele>2</ele>
        <time>2019-10-17T13:18:10.000Z</time>
      </trkpt>
      <trkpt lat="47.31143" lon="-1.54558">
        <ele>2</ele>
        <time>2019-10-17T13:18:11.000Z</time>
      </trkpt>
      <trkpt lat="47.31142" lon="-1.54563">
        <ele>2</ele>
        <time>2019-10-17T13:18:12.000Z</time>
      </trkpt>
      <trkpt lat="47.3114" lon="-1.54567">
        <ele>2</ele>
        <time>2019-10-17T13:18:13.000Z</time>
      </trkpt>
      <trkpt lat="47.31138" lon="-1.54572">
        <ele>3</ele>
        <time>2019-10-17T13:18:14.000Z</time>
      </trkpt>
      <trkpt lat="47.31136" lon="-1.54577">
        <ele>3</ele>
        <time>2019-10-17T13:18:15.000Z</time>
      </trkpt>
      <trkpt lat="47.31133" lon="-1.5458">
        <ele>3</ele>
        <time>2019-10-17T13:18:16.000Z</time>
      </trkpt>
      <trkpt lat="47.31131" lon="-1.54585">
        <ele>3</ele>
        <time>2019-10-17T13:18:17.000Z</time>
      </trkpt>
      <trkpt lat="47.31129" lon="-1.54591">
        <ele>3</ele>
        <time>2019-10-17T13:18:18.000Z</time>
      </trkpt>
      <trkpt lat="47.31128" lon="-1.54597">
        <ele>3</ele>
        <time>2019-10-17T13:18:19.000Z</time>
      </trkpt>
      <trkpt lat="47.31125" lon="-1.54602">
        <ele>3</ele>
        <time>2019-10-17T13:18:20.000Z</time>
      </trkpt>
      <trkpt lat="47.31122" lon="-1.54607">
        <ele>3</ele>
        <time>2019-10-17T13:18:21.000Z</time>
      </trkpt>
      <trkpt lat="47.31118" lon="-1.5461">
        <ele>3</ele>
        <time>2019-10-17T13:18:22.000Z</time>
      </trkpt>
      <trkpt lat="47.31115" lon="-1.54612">
        <ele>3</ele>
        <time>2019-10-17T13:18:23.000Z</time>
      </trkpt>
      <trkpt lat="47.31113" lon="-1.54616">
        <ele>4</ele>
        <time>2019-10-17T13:18:24.000Z</time>
      </trkpt>
      <trkpt lat="47.3111" lon="-1.54619">
        <ele>4</ele>
        <time>2019-10-17T13:18:25.000Z</time>
      </trkpt>
      <trkpt lat="47.31108" lon="-1.54623">
        <ele>4</ele>
        <time>2019-10-17T13:18:26.000Z</time>
      </trkpt>
      <trkpt lat="47.31106" lon="-1.54625">
        <ele>5</ele>
        <time>2019-10-17T13:18:27.000Z</time>
      </trkpt>
      <trkpt lat="47.31103" lon="-1.54626">
        <ele>5</ele>
        <time>2019-10-17T13:18:28.000Z</time>
      </trkpt>
      <trkpt lat="47.31099" lon="-1.54626">
        <ele>5</ele>
        <time>2019-10-17T13:18:29.000Z</time>
      </trkpt>
      <trkpt lat="47.31094" lon="-1.54627">
        <ele>6</ele>
        <time>2019-10-17T13:18:30.000Z</time>
      </trkpt>
      <trkpt lat="47.3109" lon="-1.54627">
        <ele>6</ele>
        <time>2019-10-17T13:18:31.000Z</time>
      </trkpt>
      <trkpt lat="47.31086" lon="-1.54629">
        <ele>6</ele>
        <time>2019-10-17T13:18:32.000Z</time>
      </trkpt>
      <trkpt lat="47.31083" lon="-1.5463">
        <ele>7</ele>
        <time>2019-10-17T13:18:33.000Z</time>
      </trkpt>
      <trkpt lat="47.3108" lon="-1.54631">
        <ele>8</ele>
        <time>2019-10-17T13:18:34.000Z</time>
      </trkpt>
      <trkpt lat="47.31077" lon="-1.54632">
        <ele>8</ele>
        <time>2019-10-17T13:18:35.000Z</time>
      </trkpt>
      <trkpt lat="47.31075" lon="-1.54632">
        <ele>9</ele>
        <time>2019-10-17T13:18:36.000Z</time>
      </trkpt>
      <trkpt lat="47.31073" lon="-1.54633">
        <ele>10</ele>
        <time>2019-10-17T13:18:37.000Z</time>
      </trkpt>
      <trkpt lat="47.31071" lon="-1.54634">
        <ele>10</ele>
        <time>2019-10-17T13:18:38.000Z</time>
      </trkpt>
      <trkpt lat="47.31068" lon="-1.54636">
        <ele>10</ele>
        <time>2019-10-17T13:18:39.000Z</time>
      </trkpt>
      <trkpt lat="47.31065" lon="-1.5464">
        <ele>11</ele>
        <time>2019-10-17T13:18:40.000Z</time>
      </trkpt>
      <trkpt lat="47.31062" lon="-1.54644">
        <ele>11</ele>
        <time>2019-10-17T13:18:41.000Z</time>
      </trkpt>
      <trkpt lat="47.3106" lon="-1.54649">
        <ele>11</ele>
        <time>2019-10-17T13:18:42.000Z</time>
      </trkpt>
      <trkpt lat="47.31057" lon="-1.54655">
        <ele>11</ele>
        <time>2019-10-17T13:18:43.000Z</time>
      </trkpt>
      <trkpt lat="47.31054" lon="-1.5466">
        <ele>12</ele>
        <time>2019-10-17T13:18:44.000Z</time>
      </trkpt>
      <trkpt lat="47.31052" lon="-1.54666">
        <ele>12</ele>
        <time>2019-10-17T13:18:45.000Z</time>
      </trkpt>
      <trkpt lat="47.3105" lon="-1.54673">
        <ele>12</ele>
        <time>2019-10-17T13:18:46.000Z</time>
      </trkpt>
      <trkpt lat="47.31048" lon="-1.54679">
        <ele>12</ele>
        <time>2019-10-17T13:18:47.000Z</time>
      </trkpt>
      <trkpt lat="47.31046" lon="-1.54686">
        <ele>12</ele>
        <time>2019-10-17T13:18:48.000Z</time>
      </trkpt>
      <trkpt lat="47.31045" lon="-1.54693">
        <ele>12</ele>
        <time>2019-10-17T13:18:49.000Z</time>
      </trkpt>
      <trkpt lat="47.31043" lon="-1.547">
        <ele>12</ele>
        <time>2019-10-17T13:18:50.000Z</time>
      </trkpt>
      <trkpt lat="47.31041" lon="-1.54706">
        <ele>11</ele>
        <time>2019-10-17T13:18:51.000Z</time>
      </trkpt>
      <trkpt lat="47.31039" lon="-1.54712">
        <ele>11</ele>
        <time>2019-10-17T13:18:52.000Z</time>
      </trkpt>
      <trkpt lat="47.31036" lon="-1.54718">
        <ele>11</ele>
        <time>2019-10-17T13:18:53.000Z</time>
      </trkpt>
      <trkpt lat="47.31034" lon="-1.54724">
        <ele>11</ele>
        <time>2019-10-17T13:18:54.000Z</time>
      </trkpt>
      <trkpt lat="47.31032" lon="-1.54729">
        <ele>11</ele>
        <time>2019-10-17T13:18:55.000Z</time>
      </trkpt>
      <trkpt lat="47.31029" lon="-1.54734">
        <ele>11</ele>
        <time>2019-10-17T13:18:56.000Z</time>
      </trkpt>
      <trkpt lat="47.31027" lon="-1.54736">
        <ele>11</ele>
        <time>2019-10-17T13:18:57.000Z</time>
      </trkpt>
      <trkpt lat="47.31024" lon="-1.54737">
        <ele>11</ele>
        <time>2019-10-17T13:18:58.000Z</time>
      </trkpt>
      <trkpt lat="47.3102" lon="-1.54738">
        <ele>11</ele>
        <time>2019-10-17T13:18:59.000Z</time>
      </trkpt>
      <trkpt lat="47.31017" lon="-1.5474">
        <ele>12</ele>
        <time>2019-10-17T13:19:00.000Z</time>
      </trkpt>
      <trkpt lat="47.31014" lon="-1.54742">
        <ele>12</ele>
        <time>2019-10-17T13:19:01.000Z</time>
      </trkpt>
      <trkpt lat="47.3101" lon="-1.54745">
        <ele>12</ele>
        <time>2019-10-17T13:19:02.000Z</time>
      </trkpt>
      <trkpt lat="47.31007" lon="-1.54748">
        <ele>12</ele>
        <time>2019-10-17T13:19:03.000Z</time>
      </trkpt>
      <trkpt lat="47.31003" lon="-1.5475">
        <ele>12</ele>
        <time>2019-10-17T13:19:04.000Z</time>
      </trkpt>
      <trkpt lat="47.31" lon="-1.54754">
        <ele>12</ele>
        <time>2019-10-17T13:19:05.000Z</time>
      </trkpt>
      <trkpt lat="47.30997" lon="-1.54758">
        <ele>12</ele>
        <time>2019-10-17T13:19:06.000Z</time>
      </trkpt>
      <trkpt lat="47.30995" lon="-1.54763">
        <ele>12</ele>
        <time>2019-10-17T13:19:07.000Z</time>
      </trkpt>
      <trkpt lat="47.30993" lon="-1.54767">
        <ele>12</ele>
        <time>2019-10-17T13:19:08.000Z</time>
      </trkpt>
      <trkpt lat="47.3099" lon="-1.54771">
        <ele>12</ele>
        <time>2019-10-17T13:19:09.000Z</time>
      </trkpt>
      <trkpt lat="47.30988" lon="-1.54774">
        <ele>12</ele>
        <time>2019-10-17T13:19:10.000Z</time>
      </trkpt>
      <trkpt lat="47.30985" lon="-1.54777">
        <ele>12</ele>
        <time>2019-10-17T13:19:11.000Z</time>
      </trkpt>
      <trkpt lat="47.30983" lon="-1.54779">
        <ele>12</ele>
        <time>2019-10-17T13:19:12.000Z</time>
      </trkpt>
      <trkpt lat="47.3098" lon="-1.54782">
        <ele>12</ele>
        <time>2019-10-17T13:19:13.000Z</time>
      </trkpt>
      <trkpt lat="47.30977" lon="-1.54783">
        <ele>12</ele>
        <time>2019-10-17T13:19:14.000Z</time>
      </trkpt>
      <trkpt lat="47.30975" lon="-1.54784">
        <ele>12</ele>
        <time>2019-10-17T13:19:15.000Z</time>
      </trkpt>
      <trkpt lat="47.30973" lon="-1.54785">
        <ele>12</ele>
        <time>2019-10-17T13:19:16.000Z</time>
      </trkpt>
      <trkpt lat="47.30971" lon="-1.54787">
        <ele>12</ele>
        <time>2019-10-17T13:19:17.000Z</time>
      </trkpt>
      <trkpt lat="47.30971" lon="-1.54788">
        <ele>12</ele>
        <time>2019-10-17T13:19:18.000Z</time>
      </trkpt>
      <trkpt lat="47.30972" lon="-1.54789">
        <ele>12</ele>
        <time>2019-10-17T13:19:19.000Z</time>
      </trkpt>
      <trkpt lat="47.30973" lon="-1.54789">
        <ele>11</ele>
        <time>2019-10-17T13:19:20.000Z</time>
      </trkpt>
      <trkpt lat="47.30974" lon="-1.54789">
        <ele>11</ele>
        <time>2019-10-17T13:19:21.000Z</time>
      </trkpt>
      <trkpt lat="47.30976" lon="-1.54789">
        <ele>11</ele>
        <time>2019-10-17T13:19:22.000Z</time>
      </trkpt>
      <trkpt lat="47.30978" lon="-1.54787">
        <ele>11</ele>
        <time>2019-10-17T13:19:23.000Z</time>
      </trkpt>
      <trkpt lat="47.30981" lon="-1.54786">
        <ele>11</ele>
        <time>2019-10-17T13:19:24.000Z</time>
      </trkpt>
      <trkpt lat="47.30984" lon="-1.54784">
        <ele>11</ele>
        <time>2019-10-17T13:19:25.000Z</time>
      </trkpt>
      <trkpt lat="47.30987" lon="-1.54782">
        <ele>10</ele>
        <time>2019-10-17T13:19:26.000Z</time>
      </trkpt>
      <trkpt lat="47.3099" lon="-1.54779">
        <ele>10</ele>
        <time>2019-10-17T13:19:27.000Z</time>
      </trkpt>
      <trkpt lat="47.30993" lon="-1.54775">
        <ele>10</ele>
        <time>2019-10-17T13:19:28.000Z</time>
      </trkpt>
      <trkpt lat="47.30995" lon="-1.5477">
        <ele>10</ele>
        <time>2019-10-17T13:19:29.000Z</time>
      </trkpt>
      <trkpt lat="47.30998" lon="-1.54766">
        <ele>10</ele>
        <time>2019-10-17T13:19:30.000Z</time>
      </trkpt>
      <trkpt lat="47.31" lon="-1.54763">
        <ele>10</ele>
        <time>2019-10-17T13:19:31.000Z</time>
      </trkpt>
      <trkpt lat="47.31002" lon="-1.54764">
        <ele>10</ele>
        <time>2019-10-17T13:19:32.000Z</time>
      </trkpt>
      <trkpt lat="47.31004" lon="-1.54767">
        <ele>9</ele>
        <time>2019-10-17T13:19:33.000Z</time>
      </trkpt>
      <trkpt lat="47.31007" lon="-1.54771">
        <ele>9</ele>
        <time>2019-10-17T13:19:34.000Z</time>
      </trkpt>
      <trkpt lat="47.31009" lon="-1.54775">
        <ele>9</ele>
        <time>2019-10-17T13:19:35.000Z</time>
      </trkpt>
      <trkpt lat="47.31012" lon="-1.54779">
        <ele>9</ele>
        <time>2019-10-17T13:19:36.000Z</time>
      </trkpt>
      <trkpt lat="47.31015" lon="-1.54784">
        <ele>9</ele>
        <time>2019-10-17T13:19:37.000Z</time>
      </trkpt>
      <trkpt lat="47.31018" lon="-1.54789">
        <ele>9</ele>
        <time>2019-10-17T13:19:38.000Z</time>
      </trkpt>
      <trkpt lat="47.3102" lon="-1.54795">
        <ele>9</ele>
        <time>2019-10-17T13:19:39.000Z</time>
      </trkpt>
      <trkpt lat="47.31022" lon="-1.54801">
        <ele>9</ele>
        <time>2019-10-17T13:19:40.000Z</time>
      </trkpt>
      <trkpt lat="47.31024" lon="-1.54808">
        <ele>9</ele>
        <time>2019-10-17T13:19:41.000Z</time>
      </trkpt>
      <trkpt lat="47.31026" lon="-1.54814">
        <ele>9</ele>
        <time>2019-10-17T13:19:42.000Z</time>
      </trkpt>
      <trkpt lat="47.31027" lon="-1.5482">
        <ele>9</ele>
        <time>2019-10-17T13:19:43.000Z</time>
      </trkpt>
      <trkpt lat="47.31027" lon="-1.54826">
        <ele>9</ele>
        <time>2019-10-17T13:19:44.000Z</time>
      </trkpt>
      <trkpt lat="47.31028" lon="-1.54833">
        <ele>9</ele>
        <time>2019-10-17T13:19:45.000Z</time>
      </trkpt>
      <trkpt lat="47.31028" lon="-1.5484">
        <ele>9</ele>
        <time>2019-10-17T13:19:46.000Z</time>
      </trkpt>
      <trkpt lat="47.31028" lon="-1.54846">
        <ele>9</ele>
        <time>2019-10-17T13:19:47.000Z</time>
      </trkpt>
      <trkpt lat="47.31027" lon="-1.54851">
        <ele>9</ele>
        <time>2019-10-17T13:19:48.000Z</time>
      </trkpt>
      <trkpt lat="47.31025" lon="-1.54857">
        <ele>9</ele>
        <time>2019-10-17T13:19:49.000Z</time>
      </trkpt>
      <trkpt lat="47.31024" lon="-1.54863">
        <ele>9</ele>
        <time>2019-10-17T13:19:50.000Z</time>
      </trkpt>
      <trkpt lat="47.31023" lon="-1.54869">
        <ele>9</ele>
        <time>2019-10-17T13:19:51.000Z</time>
      </trkpt>
      <trkpt lat="47.31022" lon="-1.54875">
        <ele>8</ele>
        <time>2019-10-17T13:19:52.000Z</time>
      </trkpt>
      <trkpt lat="47.31021" lon="-1.54881">
        <ele>8</ele>
        <time>2019-10-17T13:19:53.000Z</time>
      </trkpt>
      <trkpt lat="47.3102" lon="-1.54888">
        <ele>8</ele>
        <time>2019-10-17T13:19:54.000Z</time>
      </trkpt>
      <trkpt lat="47.31019" lon="-1.54894">
        <ele>8</ele>
        <time>2019-10-17T13:19:55.000Z</time>
      </trkpt>
      <trkpt lat="47.31019" lon="-1.54901">
        <ele>9</ele>
        <time>2019-10-17T13:19:56.000Z</time>
      </trkpt>
      <trkpt lat="47.31019" lon="-1.54908">
        <ele>9</ele>
        <time>2019-10-17T13:19:57.000Z</time>
      </trkpt>
      <trkpt lat="47.31019" lon="-1.54915">
        <ele>9</ele>
        <time>2019-10-17T13:19:58.000Z</time>
      </trkpt>
      <trkpt lat="47.31019" lon="-1.54921">
        <ele>9</ele>
        <time>2019-10-17T13:19:59.000Z</time>
      </trkpt>
      <trkpt lat="47.31019" lon="-1.54928">
        <ele>9</ele>
        <time>2019-10-17T13:20:00.000Z</time>
      </trkpt>
      <trkpt lat="47.31019" lon="-1.54934">
        <ele>9</ele>
        <time>2019-10-17T13:20:01.000Z</time>
      </trkpt>
      <trkpt lat="47.3102" lon="-1.54941">
        <ele>10</ele>
        <time>2019-10-17T13:20:02.000Z</time>
      </trkpt>
      <trkpt lat="47.3102" lon="-1.54947">
        <ele>10</ele>
        <time>2019-10-17T13:20:03.000Z</time>
      </trkpt>
      <trkpt lat="47.3102" lon="-1.54953">
        <ele>10</ele>
        <time>2019-10-17T13:20:04.000Z</time>
      </trkpt>
      <trkpt lat="47.3102" lon="-1.5496">
        <ele>10</ele>
        <time>2019-10-17T13:20:05.000Z</time>
      </trkpt>
      <trkpt lat="47.3102" lon="-1.54966">
        <ele>10</ele>
        <time>2019-10-17T13:20:06.000Z</time>
      </trkpt>
      <trkpt lat="47.31019" lon="-1.54971">
        <ele>10</ele>
        <time>2019-10-17T13:20:07.000Z</time>
      </trkpt>
      <trkpt lat="47.31019" lon="-1.54975">
        <ele>11</ele>
        <time>2019-10-17T13:20:08.000Z</time>
      </trkpt>
      <trkpt lat="47.31018" lon="-1.54978">
        <ele>11</ele>
        <time>2019-10-17T13:20:09.000Z</time>
      </trkpt>
      <trkpt lat="47.31016" lon="-1.54978">
        <ele>11</ele>
        <time>2019-10-17T13:20:10.000Z</time>
      </trkpt>
      <trkpt lat="47.31015" lon="-1.54977">
        <ele>11</ele>
        <time>2019-10-17T13:20:11.000Z</time>
      </trkpt>
      <trkpt lat="47.31012" lon="-1.54977">
        <ele>10</ele>
        <time>2019-10-17T13:20:12.000Z</time>
      </trkpt>
      <trkpt lat="47.31008" lon="-1.54977">
        <ele>10</ele>
        <time>2019-10-17T13:20:13.000Z</time>
      </trkpt>
      <trkpt lat="47.31004" lon="-1.54977">
        <ele>10</ele>
        <time>2019-10-17T13:20:14.000Z</time>
      </trkpt>
      <trkpt lat="47.31" lon="-1.54978">
        <ele>10</ele>
        <time>2019-10-17T13:20:15.000Z</time>
      </trkpt>
      <trkpt lat="47.30995" lon="-1.54978">
        <ele>9</ele>
        <time>2019-10-17T13:20:16.000Z</time>
      </trkpt>
      <trkpt lat="47.3099" lon="-1.54979">
        <ele>9</ele>
        <time>2019-10-17T13:20:17.000Z</time>
      </trkpt>
      <trkpt lat="47.30985" lon="-1.5498">
        <ele>9</ele>
        <time>2019-10-17T13:20:18.000Z</time>
      </trkpt>
      <trkpt lat="47.3098" lon="-1.5498">
        <ele>9</ele>
        <time>2019-10-17T13:20:19.000Z</time>
      </trkpt>
      <trkpt lat="47.30975" lon="-1.54981">
        <ele>9</ele>
        <time>2019-10-17T13:20:20.000Z</time>
      </trkpt>
      <trkpt lat="47.3097" lon="-1.54982">
        <ele>8</ele>
        <time>2019-10-17T13:20:21.000Z</time>
      </trkpt>
      <trkpt lat="47.30966" lon="-1.54984">
        <ele>8</ele>
        <time>2019-10-17T13:20:22.000Z</time>
      </trkpt>
      <trkpt lat="47.30961" lon="-1.54984">
        <ele>8</ele>
        <time>2019-10-17T13:20:23.000Z</time>
      </trkpt>
      <trkpt lat="47.30957" lon="-1.54985">
        <ele>8</ele>
        <time>2019-10-17T13:20:24.000Z</time>
      </trkpt>
      <trkpt lat="47.30953" lon="-1.54986">
        <ele>8</ele>
        <time>2019-10-17T13:20:25.000Z</time>
      </trkpt>
      <trkpt lat="47.30949" lon="-1.54986">
        <ele>7</ele>
        <time>2019-10-17T13:20:26.000Z</time>
      </trkpt>
      <trkpt lat="47.30945" lon="-1.54986">
        <ele>7</ele>
        <time>2019-10-17T13:20:27.000Z</time>
      </trkpt>
      <trkpt lat="47.30941" lon="-1.54987">
        <ele>7</ele>
        <time>2019-10-17T13:20:28.000Z</time>
      </trkpt>
      <trkpt lat="47.30938" lon="-1.54988">
        <ele>7</ele>
        <time>2019-10-17T13:20:29.000Z</time>
      </trkpt>
      <trkpt lat="47.30934" lon="-1.54989">
        <ele>7</ele>
        <time>2019-10-17T13:20:30.000Z</time>
      </trkpt>
      <trkpt lat="47.3093" lon="-1.54991">
        <ele>7</ele>
        <time>2019-10-17T13:20:31.000Z</time>
      </trkpt>
      <trkpt lat="47.30927" lon="-1.54992">
        <ele>7</ele>
        <time>2019-10-17T13:20:32.000Z</time>
      </trkpt>
      <trkpt lat="47.30924" lon="-1.54992">
        <ele>6</ele>
        <time>2019-10-17T13:20:33.000Z</time>
      </trkpt>
      <trkpt lat="47.30922" lon="-1.54991">
        <ele>6</ele>
        <time>2019-10-17T13:20:34.000Z</time>
      </trkpt>
      <trkpt lat="47.3092" lon="-1.54991">
        <ele>6</ele>
        <time>2019-10-17T13:20:35.000Z</time>
      </trkpt>
      <trkpt lat="47.30917" lon="-1.54991">
        <ele>6</ele>
        <time>2019-10-17T13:20:36.000Z</time>
      </trkpt>
      <trkpt lat="47.30914" lon="-1.5499">
        <ele>6</ele>
        <time>2019-10-17T13:20:37.000Z</time>
      </trkpt>
      <trkpt lat="47.3091" lon="-1.54991">
        <ele>6</ele>
        <time>2019-10-17T13:20:38.000Z</time>
      </trkpt>
      <trkpt lat="47.30906" lon="-1.54993">
        <ele>6</ele>
        <time>2019-10-17T13:20:39.000Z</time>
      </trkpt>
      <trkpt lat="47.30902" lon="-1.54994">
        <ele>6</ele>
        <time>2019-10-17T13:20:40.000Z</time>
      </trkpt>
      <trkpt lat="47.30898" lon="-1.54995">
        <ele>6</ele>
        <time>2019-10-17T13:20:41.000Z</time>
      </trkpt>
      <trkpt lat="47.30895" lon="-1.54997">
        <ele>6</ele>
        <time>2019-10-17T13:20:42.000Z</time>
      </trkpt>
      <trkpt lat="47.30891" lon="-1.54998">
        <ele>6</ele>
        <time>2019-10-17T13:20:43.000Z</time>
      </trkpt>
      <trkpt lat="47.30887" lon="-1.54999">
        <ele>6</ele>
        <time>2019-10-17T13:20:44.000Z</time>
      </trkpt>
      <trkpt lat="47.30884" lon="-1.55001">
        <ele>6</ele>
        <time>2019-10-17T13:20:45.000Z</time>
      </trkpt>
      <trkpt lat="47.3088" lon="-1.55003">
        <ele>6</ele>
        <time>2019-10-17T13:20:46.000Z</time>
      </trkpt>
      <trkpt lat="47.30878" lon="-1.55003">
        <ele>6</ele>
        <time>2019-10-17T13:20:47.000Z</time>
      </trkpt>
      <trkpt lat="47.30876" lon="-1.55004">
        <ele>6</ele>
        <time>2019-10-17T13:20:48.000Z</time>
      </trkpt>
      <trkpt lat="47.30874" lon="-1.55004">
        <ele>6</ele>
        <time>2019-10-17T13:20:49.000Z</time>
      </trkpt>
      <trkpt lat="47.30872" lon="-1.55006">
        <ele>6</ele>
        <time>2019-10-17T13:20:50.000Z</time>
      </trkpt>
      <trkpt lat="47.30871" lon="-1.5501">
        <ele>6</ele>
        <time>2019-10-17T13:20:51.000Z</time>
      </trkpt>
      <trkpt lat="47.3087" lon="-1.55013">
        <ele>6</ele>
        <time>2019-10-17T13:20:52.000Z</time>
      </trkpt>
      <trkpt lat="47.30869" lon="-1.55017">
        <ele>6</ele>
        <time>2019-10-17T13:20:53.000Z</time>
      </trkpt>
      <trkpt lat="47.30869" lon="-1.55021">
        <ele>6</ele>
        <time>2019-10-17T13:20:54.000Z</time>
      </trkpt>
      <trkpt lat="47.30869" lon="-1.55027">
        <ele>6</ele>
        <time>2019-10-17T13:20:55.000Z</time>
      </trkpt>
      <trkpt lat="47.30868" lon="-1.55032">
        <ele>6</ele>
        <time>2019-10-17T13:20:56.000Z</time>
      </trkpt>
      <trkpt lat="47.30867" lon="-1.55038">
        <ele>6</ele>
        <time>2019-10-17T13:20:57.000Z</time>
      </trkpt>
      <trkpt lat="47.30867" lon="-1.55044">
        <ele>6</ele>
        <time>2019-10-17T13:20:58.000Z</time>
      </trkpt>
      <trkpt lat="47.30867" lon="-1.5505">
        <ele>7</ele>
        <time>2019-10-17T13:20:59.000Z</time>
      </trkpt>
      <trkpt lat="47.30867" lon="-1.55057">
        <ele>7</ele>
        <time>2019-10-17T13:21:00.000Z</time>
      </trkpt>
      <trkpt lat="47.30867" lon="-1.55063">
        <ele>7</ele>
        <time>2019-10-17T13:21:01.000Z</time>
      </trkpt>
      <trkpt lat="47.30867" lon="-1.5507">
        <ele>7</ele>
        <time>2019-10-17T13:21:02.000Z</time>
      </trkpt>
      <trkpt lat="47.30867" lon="-1.55076">
        <ele>8</ele>
        <time>2019-10-17T13:21:03.000Z</time>
      </trkpt>
      <trkpt lat="47.30868" lon="-1.55083">
        <ele>8</ele>
        <time>2019-10-17T13:21:04.000Z</time>
      </trkpt>
      <trkpt lat="47.30868" lon="-1.55089">
        <ele>8</ele>
        <time>2019-10-17T13:21:05.000Z</time>
      </trkpt>
      <trkpt lat="47.30869" lon="-1.55096">
        <ele>8</ele>
        <time>2019-10-17T13:21:06.000Z</time>
      </trkpt>
      <trkpt lat="47.30869" lon="-1.55103">
        <ele>8</ele>
        <time>2019-10-17T13:21:07.000Z</time>
      </trkpt>
      <trkpt lat="47.3087" lon="-1.5511">
        <ele>9</ele>
        <time>2019-10-17T13:21:08.000Z</time>
      </trkpt>
      <trkpt lat="47.3087" lon="-1.55116">
        <ele>9</ele>
        <time>2019-10-17T13:21:09.000Z</time>
      </trkpt>
      <trkpt lat="47.30871" lon="-1.55122">
        <ele>9</ele>
        <time>2019-10-17T13:21:10.000Z</time>
      </trkpt>
      <trkpt lat="47.30872" lon="-1.55129">
        <ele>9</ele>
        <time>2019-10-17T13:21:11.000Z</time>
      </trkpt>
      <trkpt lat="47.30873" lon="-1.55136">
        <ele>9</ele>
        <time>2019-10-17T13:21:12.000Z</time>
      </trkpt>
      <trkpt lat="47.30875" lon="-1.55143">
        <ele>9</ele>
        <time>2019-10-17T13:21:13.000Z</time>
      </trkpt>
      <trkpt lat="47.30876" lon="-1.55149">
        <ele>9</ele>
        <time>2019-10-17T13:21:14.000Z</time>
      </trkpt>
      <trkpt lat="47.30877" lon="-1.55155">
        <ele>9</ele>
        <time>2019-10-17T13:21:15.000Z</time>
      </trkpt>
      <trkpt lat="47.30877" lon="-1.5516">
        <ele>9</ele>
        <time>2019-10-17T13:21:16.000Z</time>
      </trkpt>
      <trkpt lat="47.30877" lon="-1.55165">
        <ele>9</ele>
        <time>2019-10-17T13:21:17.000Z</time>
      </trkpt>
      <trkpt lat="47.30877" lon="-1.5517">
        <ele>10</ele>
        <time>2019-10-17T13:21:18.000Z</time>
      </trkpt>
      <trkpt lat="47.30878" lon="-1.55176">
        <ele>10</ele>
        <time>2019-10-17T13:21:19.000Z</time>
      </trkpt>
      <trkpt lat="47.30878" lon="-1.55182">
        <ele>10</ele>
        <time>2019-10-17T13:21:20.000Z</time>
      </trkpt>
      <trkpt lat="47.30878" lon="-1.55187">
        <ele>10</ele>
        <time>2019-10-17T13:21:21.000Z</time>
      </trkpt>
      <trkpt lat="47.30878" lon="-1.55193">
        <ele>10</ele>
        <time>2019-10-17T13:21:22.000Z</time>
      </trkpt>
      <trkpt lat="47.30878" lon="-1.55198">
        <ele>10</ele>
        <time>2019-10-17T13:21:23.000Z</time>
      </trkpt>
      <trkpt lat="47.30877" lon="-1.55204">
        <ele>11</ele>
        <time>2019-10-17T13:21:24.000Z</time>
      </trkpt>
      <trkpt lat="47.30876" lon="-1.5521">
        <ele>11</ele>
        <time>2019-10-17T13:21:25.000Z</time>
      </trkpt>
      <trkpt lat="47.30876" lon="-1.5521">
        <ele>11</ele>
        <time>2019-10-17T13:21:27.000Z</time>
      </trkpt>
      <trkpt lat="47.30876" lon="-1.5521">
        <ele>11</ele>
        <time>2019-10-17T13:21:28.000Z</time>
      </trkpt>
      <trkpt lat="47.30877" lon="-1.55233">
        <ele>11</ele>
        <time>2019-10-17T13:21:29.000Z</time>
      </trkpt>
      <trkpt lat="47.30877" lon="-1.55233">
        <ele>11</ele>
        <time>2019-10-17T13:21:32.000Z</time>
      </trkpt>
      <trkpt lat="47.30877" lon="-1.55233">
        <ele>11</ele>
        <time>2019-10-17T13:21:33.000Z</time>
      </trkpt>
      <trkpt lat="47.30877" lon="-1.55233">
        <ele>11</ele>
        <time>2019-10-17T13:21:35.000Z</time>
      </trkpt>
      <trkpt lat="47.30877" lon="-1.55233">
        <ele>10</ele>
        <time>2019-10-17T13:21:37.000Z</time>
      </trkpt>
      <trkpt lat="47.30877" lon="-1.55233">
        <ele>10</ele>
        <time>2019-10-17T13:21:38.000Z</time>
      </trkpt>
      <trkpt lat="47.30888" lon="-1.55298">
        <ele>11</ele>
        <time>2019-10-17T13:21:39.000Z</time>
      </trkpt>
      <trkpt lat="47.30887" lon="-1.55299">
        <ele>11</ele>
        <time>2019-10-17T13:21:40.000Z</time>
      </trkpt>
      <trkpt lat="47.30886" lon="-1.55299">
        <ele>11</ele>
        <time>2019-10-17T13:21:41.000Z</time>
      </trkpt>
      <trkpt lat="47.30885" lon="-1.55298">
        <ele>12</ele>
        <time>2019-10-17T13:21:42.000Z</time>
      </trkpt>
      <trkpt lat="47.30884" lon="-1.55298">
        <ele>12</ele>
        <time>2019-10-17T13:21:43.000Z</time>
      </trkpt>
      <trkpt lat="47.30883" lon="-1.55297">
        <ele>13</ele>
        <time>2019-10-17T13:21:44.000Z</time>
      </trkpt>
      <trkpt lat="47.30871" lon="-1.55292">
        <ele>20</ele>
        <time>2019-10-17T13:21:51.000Z</time>
      </trkpt>
      <trkpt lat="47.30869" lon="-1.55283">
        <ele>21</ele>
        <time>2019-10-17T13:21:52.000Z</time>
      </trkpt>
      <trkpt lat="47.30867" lon="-1.55281">
        <ele>22</ele>
        <time>2019-10-17T13:21:53.000Z</time>
      </trkpt>
      <trkpt lat="47.30863" lon="-1.5528">
        <ele>23</ele>
        <time>2019-10-17T13:21:54.000Z</time>
      </trkpt>
      <trkpt lat="47.30859" lon="-1.55278">
        <ele>25</ele>
        <time>2019-10-17T13:21:55.000Z</time>
      </trkpt>
      <trkpt lat="47.30855" lon="-1.55277">
        <ele>27</ele>
        <time>2019-10-17T13:21:56.000Z</time>
      </trkpt>
      <trkpt lat="47.3085" lon="-1.55276">
        <ele>28</ele>
        <time>2019-10-17T13:21:57.000Z</time>
      </trkpt>
      <trkpt lat="47.30845" lon="-1.55275">
        <ele>30</ele>
        <time>2019-10-17T13:21:58.000Z</time>
      </trkpt>
      <trkpt lat="47.3084" lon="-1.55274">
        <ele>32</ele>
        <time>2019-10-17T13:21:59.000Z</time>
      </trkpt>
      <trkpt lat="47.30835" lon="-1.55273">
        <ele>33</ele>
        <time>2019-10-17T13:22:00.000Z</time>
      </trkpt>
      <trkpt lat="47.3083" lon="-1.55273">
        <ele>34</ele>
        <time>2019-10-17T13:22:01.000Z</time>
      </trkpt>
      <trkpt lat="47.30826" lon="-1.55272">
        <ele>35</ele>
        <time>2019-10-17T13:22:02.000Z</time>
      </trkpt>
      <trkpt lat="47.30821" lon="-1.55271">
        <ele>36</ele>
        <time>2019-10-17T13:22:03.000Z</time>
      </trkpt>
      <trkpt lat="47.30817" lon="-1.55271">
        <ele>36</ele>
        <time>2019-10-17T13:22:04.000Z</time>
      </trkpt>
      <trkpt lat="47.30812" lon="-1.5527">
        <ele>36</ele>
        <time>2019-10-17T13:22:05.000Z</time>
      </trkpt>
      <trkpt lat="47.30808" lon="-1.55269">
        <ele>37</ele>
        <time>2019-10-17T13:22:06.000Z</time>
      </trkpt>
      <trkpt lat="47.30803" lon="-1.55268">
        <ele>37</ele>
        <time>2019-10-17T13:22:07.000Z</time>
      </trkpt>
      <trkpt lat="47.30799" lon="-1.55267">
        <ele>37</ele>
        <time>2019-10-17T13:22:08.000Z</time>
      </trkpt>
      <trkpt lat="47.30794" lon="-1.55266">
        <ele>38</ele>
        <time>2019-10-17T13:22:09.000Z</time>
      </trkpt>
      <trkpt lat="47.30789" lon="-1.55265">
        <ele>38</ele>
        <time>2019-10-17T13:22:10.000Z</time>
      </trkpt>
      <trkpt lat="47.30784" lon="-1.55264">
        <ele>39</ele>
        <time>2019-10-17T13:22:11.000Z</time>
      </trkpt>
      <trkpt lat="47.30779" lon="-1.55263">
        <ele>39</ele>
        <time>2019-10-17T13:22:12.000Z</time>
      </trkpt>
      <trkpt lat="47.30775" lon="-1.55262">
        <ele>40</ele>
        <time>2019-10-17T13:22:13.000Z</time>
      </trkpt>
      <trkpt lat="47.3077" lon="-1.5526">
        <ele>40</ele>
        <time>2019-10-17T13:22:14.000Z</time>
      </trkpt>
      <trkpt lat="47.30765" lon="-1.5526">
        <ele>40</ele>
        <time>2019-10-17T13:22:15.000Z</time>
      </trkpt>
      <trkpt lat="47.3076" lon="-1.55258">
        <ele>40</ele>
        <time>2019-10-17T13:22:16.000Z</time>
      </trkpt>
      <trkpt lat="47.30755" lon="-1.55257">
        <ele>40</ele>
        <time>2019-10-17T13:22:17.000Z</time>
      </trkpt>
      <trkpt lat="47.30752" lon="-1.55257">
        <ele>40</ele>
        <time>2019-10-17T13:22:18.000Z</time>
      </trkpt>
      <trkpt lat="47.3075" lon="-1.55258">
        <ele>39</ele>
        <time>2019-10-17T13:22:19.000Z</time>
      </trkpt>
      <trkpt lat="47.3075" lon="-1.55259">
        <ele>38</ele>
        <time>2019-10-17T13:22:20.000Z</time>
      </trkpt>
      <trkpt lat="47.3075" lon="-1.55261">
        <ele>37</ele>
        <time>2019-10-17T13:22:21.000Z</time>
      </trkpt>
      <trkpt lat="47.3075" lon="-1.55261">
        <ele>35</ele>
        <time>2019-10-17T13:22:23.000Z</time>
      </trkpt>
      <trkpt lat="47.3075" lon="-1.55261">
        <ele>35</ele>
        <time>2019-10-17T13:22:24.000Z</time>
      </trkpt>
      <trkpt lat="47.30751" lon="-1.55278">
        <ele>34</ele>
        <time>2019-10-17T13:22:25.000Z</time>
      </trkpt>
      <trkpt lat="47.3075" lon="-1.55285">
        <ele>33</ele>
        <time>2019-10-17T13:22:26.000Z</time>
      </trkpt>
      <trkpt lat="47.30749" lon="-1.55292">
        <ele>32</ele>
        <time>2019-10-17T13:22:27.000Z</time>
      </trkpt>
      <trkpt lat="47.30749" lon="-1.55292">
        <ele>30</ele>
        <time>2019-10-17T13:22:30.000Z</time>
      </trkpt>
      <trkpt lat="47.30749" lon="-1.55292">
        <ele>30</ele>
        <time>2019-10-17T13:22:31.000Z</time>
      </trkpt>
      <trkpt lat="47.30743" lon="-1.55327">
        <ele>29</ele>
        <time>2019-10-17T13:22:32.000Z</time>
      </trkpt>
      <trkpt lat="47.30741" lon="-1.55334">
        <ele>29</ele>
        <time>2019-10-17T13:22:33.000Z</time>
      </trkpt>
      <trkpt lat="47.30739" lon="-1.55342">
        <ele>28</ele>
        <time>2019-10-17T13:22:34.000Z</time>
      </trkpt>
      <trkpt lat="47.30738" lon="-1.55349">
        <ele>28</ele>
        <time>2019-10-17T13:22:35.000Z</time>
      </trkpt>
      <trkpt lat="47.30738" lon="-1.55349">
        <ele>27</ele>
        <time>2019-10-17T13:22:37.000Z</time>
      </trkpt>
      <trkpt lat="47.30738" lon="-1.55349">
        <ele>27</ele>
        <time>2019-10-17T13:22:38.000Z</time>
      </trkpt>
      <trkpt lat="47.30734" lon="-1.5538">
        <ele>27</ele>
        <time>2019-10-17T13:22:39.000Z</time>
      </trkpt>
      <trkpt lat="47.30733" lon="-1.55388">
        <ele>27</ele>
        <time>2019-10-17T13:22:40.000Z</time>
      </trkpt>
      <trkpt lat="47.30733" lon="-1.55396">
        <ele>26</ele>
        <time>2019-10-17T13:22:41.000Z</time>
      </trkpt>
      <trkpt lat="47.30732" lon="-1.55404">
        <ele>26</ele>
        <time>2019-10-17T13:22:42.000Z</time>
      </trkpt>
      <trkpt lat="47.30731" lon="-1.55411">
        <ele>26</ele>
        <time>2019-10-17T13:22:43.000Z</time>
      </trkpt>
      <trkpt lat="47.30731" lon="-1.55419">
        <ele>26</ele>
        <time>2019-10-17T13:22:44.000Z</time>
      </trkpt>
      <trkpt lat="47.30731" lon="-1.55427">
        <ele>25</ele>
        <time>2019-10-17T13:22:45.000Z</time>
      </trkpt>
      <trkpt lat="47.30731" lon="-1.55434">
        <ele>25</ele>
        <time>2019-10-17T13:22:46.000Z</time>
      </trkpt>
      <trkpt lat="47.30731" lon="-1.55441">
        <ele>24</ele>
        <time>2019-10-17T13:22:47.000Z</time>
      </trkpt>
      <trkpt lat="47.30731" lon="-1.55441">
        <ele>23</ele>
        <time>2019-10-17T13:22:49.000Z</time>
      </trkpt>
      <trkpt lat="47.30731" lon="-1.55441">
        <ele>22</ele>
        <time>2019-10-17T13:22:50.000Z</time>
      </trkpt>
      <trkpt lat="47.30735" lon="-1.55455">
        <ele>21</ele>
        <time>2019-10-17T13:22:51.000Z</time>
      </trkpt>
      <trkpt lat="47.30736" lon="-1.55455">
        <ele>21</ele>
        <time>2019-10-17T13:22:52.000Z</time>
      </trkpt>
      <trkpt lat="47.30736" lon="-1.55455">
        <ele>20</ele>
        <time>2019-10-17T13:22:53.000Z</time>
      </trkpt>
      <trkpt lat="47.30736" lon="-1.55456">
        <ele>20</ele>
        <time>2019-10-17T13:22:54.000Z</time>
      </trkpt>
      <trkpt lat="47.30736" lon="-1.55455">
        <ele>20</ele>
        <time>2019-10-17T13:22:55.000Z</time>
      </trkpt>
      <trkpt lat="47.30735" lon="-1.55454">
        <ele>20</ele>
        <time>2019-10-17T13:22:56.000Z</time>
      </trkpt>
      <trkpt lat="47.30734" lon="-1.55452">
        <ele>21</ele>
        <time>2019-10-17T13:22:57.000Z</time>
      </trkpt>
      <trkpt lat="47.30733" lon="-1.55449">
        <ele>21</ele>
        <time>2019-10-17T13:22:58.000Z</time>
      </trkpt>
      <trkpt lat="47.30733" lon="-1.55445">
        <ele>21</ele>
        <time>2019-10-17T13:22:59.000Z</time>
      </trkpt>
      <trkpt lat="47.30734" lon="-1.5544">
        <ele>21</ele>
        <time>2019-10-17T13:23:00.000Z</time>
      </trkpt>
      <trkpt lat="47.30734" lon="-1.55435">
        <ele>20</ele>
        <time>2019-10-17T13:23:01.000Z</time>
      </trkpt>
      <trkpt lat="47.30735" lon="-1.5543">
        <ele>20</ele>
        <time>2019-10-17T13:23:02.000Z</time>
      </trkpt>
      <trkpt lat="47.30736" lon="-1.55424">
        <ele>20</ele>
        <time>2019-10-17T13:23:03.000Z</time>
      </trkpt>
      <trkpt lat="47.30737" lon="-1.55418">
        <ele>20</ele>
        <time>2019-10-17T13:23:04.000Z</time>
      </trkpt>
      <trkpt lat="47.30739" lon="-1.55413">
        <ele>20</ele>
        <time>2019-10-17T13:23:05.000Z</time>
      </trkpt>
      <trkpt lat="47.3074" lon="-1.5541">
        <ele>19</ele>
        <time>2019-10-17T13:23:06.000Z</time>
      </trkpt>
      <trkpt lat="47.30741" lon="-1.55409">
        <ele>19</ele>
        <time>2019-10-17T13:23:07.000Z</time>
      </trkpt>
      <trkpt lat="47.30742" lon="-1.55408">
        <ele>19</ele>
        <time>2019-10-17T13:23:08.000Z</time>
      </trkpt>
      <trkpt lat="47.30745" lon="-1.55408">
        <ele>19</ele>
        <time>2019-10-17T13:23:09.000Z</time>
      </trkpt>
      <trkpt lat="47.30748" lon="-1.5541">
        <ele>19</ele>
        <time>2019-10-17T13:23:10.000Z</time>
      </trkpt>
      <trkpt lat="47.30751" lon="-1.55412">
        <ele>19</ele>
        <time>2019-10-17T13:23:11.000Z</time>
      </trkpt>
      <trkpt lat="47.30754" lon="-1.55415">
        <ele>19</ele>
        <time>2019-10-17T13:23:12.000Z</time>
      </trkpt>
      <trkpt lat="47.30756" lon="-1.55419">
        <ele>19</ele>
        <time>2019-10-17T13:23:13.000Z</time>
      </trkpt>
      <trkpt lat="47.30758" lon="-1.55423">
        <ele>19</ele>
        <time>2019-10-17T13:23:14.000Z</time>
      </trkpt>
      <trkpt lat="47.30759" lon="-1.55428">
        <ele>19</ele>
        <time>2019-10-17T13:23:15.000Z</time>
      </trkpt>
      <trkpt lat="47.30759" lon="-1.55428">
        <ele>20</ele>
        <time>2019-10-17T13:23:18.000Z</time>
      </trkpt>
      <trkpt lat="47.30759" lon="-1.55428">
        <ele>19</ele>
        <time>2019-10-17T13:23:19.000Z</time>
      </trkpt>
      <trkpt lat="47.30764" lon="-1.55454">
        <ele>19</ele>
        <time>2019-10-17T13:23:20.000Z</time>
      </trkpt>
      <trkpt lat="47.30766" lon="-1.55459">
        <ele>19</ele>
        <time>2019-10-17T13:23:21.000Z</time>
      </trkpt>
      <trkpt lat="47.30766" lon="-1.55465">
        <ele>19</ele>
        <time>2019-10-17T13:23:22.000Z</time>
      </trkpt>
      <trkpt lat="47.30767" lon="-1.55472">
        <ele>19</ele>
        <time>2019-10-17T13:23:23.000Z</time>
      </trkpt>
      <trkpt lat="47.30768" lon="-1.55479">
        <ele>18</ele>
        <time>2019-10-17T13:23:24.000Z</time>
      </trkpt>
      <trkpt lat="47.30768" lon="-1.55487">
        <ele>17</ele>
        <time>2019-10-17T13:23:25.000Z</time>
      </trkpt>
      <trkpt lat="47.30768" lon="-1.55495">
        <ele>16</ele>
        <time>2019-10-17T13:23:26.000Z</time>
      </trkpt>
      <trkpt lat="47.30769" lon="-1.55502">
        <ele>15</ele>
        <time>2019-10-17T13:23:27.000Z</time>
      </trkpt>
      <trkpt lat="47.30768" lon="-1.5551">
        <ele>14</ele>
        <time>2019-10-17T13:23:28.000Z</time>
      </trkpt>
      <trkpt lat="47.30768" lon="-1.55517">
        <ele>13</ele>
        <time>2019-10-17T13:23:29.000Z</time>
      </trkpt>
      <trkpt lat="47.30769" lon="-1.55524">
        <ele>12</ele>
        <time>2019-10-17T13:23:30.000Z</time>
      </trkpt>
      <trkpt lat="47.30769" lon="-1.55531">
        <ele>11</ele>
        <time>2019-10-17T13:23:31.000Z</time>
      </trkpt>
      <trkpt lat="47.3077" lon="-1.55537">
        <ele>10</ele>
        <time>2019-10-17T13:23:32.000Z</time>
      </trkpt>
      <trkpt lat="47.30771" lon="-1.55542">
        <ele>10</ele>
        <time>2019-10-17T13:23:33.000Z</time>
      </trkpt>
      <trkpt lat="47.30771" lon="-1.55548">
        <ele>10</ele>
        <time>2019-10-17T13:23:34.000Z</time>
      </trkpt>
      <trkpt lat="47.30772" lon="-1.55554">
        <ele>10</ele>
        <time>2019-10-17T13:23:35.000Z</time>
      </trkpt>
      <trkpt lat="47.30773" lon="-1.5556">
        <ele>10</ele>
        <time>2019-10-17T13:23:36.000Z</time>
      </trkpt>
      <trkpt lat="47.30773" lon="-1.55567">
        <ele>10</ele>
        <time>2019-10-17T13:23:37.000Z</time>
      </trkpt>
      <trkpt lat="47.30774" lon="-1.55575">
        <ele>10</ele>
        <time>2019-10-17T13:23:38.000Z</time>
      </trkpt>
      <trkpt lat="47.30774" lon="-1.55582">
        <ele>11</ele>
        <time>2019-10-17T13:23:39.000Z</time>
      </trkpt>
      <trkpt lat="47.30774" lon="-1.5559">
        <ele>11</ele>
        <time>2019-10-17T13:23:40.000Z</time>
      </trkpt>
      <trkpt lat="47.30774" lon="-1.55598">
        <ele>12</ele>
        <time>2019-10-17T13:23:41.000Z</time>
      </trkpt>
      <trkpt lat="47.30775" lon="-1.55606">
        <ele>13</ele>
        <time>2019-10-17T13:23:42.000Z</time>
      </trkpt>
      <trkpt lat="47.30775" lon="-1.55615">
        <ele>14</ele>
        <time>2019-10-17T13:23:43.000Z</time>
      </trkpt>
      <trkpt lat="47.30774" lon="-1.55622">
        <ele>15</ele>
        <time>2019-10-17T13:23:44.000Z</time>
      </trkpt>
      <trkpt lat="47.30774" lon="-1.5563">
        <ele>16</ele>
        <time>2019-10-17T13:23:45.000Z</time>
      </trkpt>
      <trkpt lat="47.30774" lon="-1.55638">
        <ele>17</ele>
        <time>2019-10-17T13:23:46.000Z</time>
      </trkpt>
      <trkpt lat="47.30772" lon="-1.55646">
        <ele>19</ele>
        <time>2019-10-17T13:23:47.000Z</time>
      </trkpt>
      <trkpt lat="47.30772" lon="-1.55654">
        <ele>21</ele>
        <time>2019-10-17T13:23:48.000Z</time>
      </trkpt>
      <trkpt lat="47.30772" lon="-1.55663">
        <ele>21</ele>
        <time>2019-10-17T13:23:49.000Z</time>
      </trkpt>
      <trkpt lat="47.30772" lon="-1.55671">
        <ele>22</ele>
        <time>2019-10-17T13:23:50.000Z</time>
      </trkpt>
      <trkpt lat="47.30771" lon="-1.5568">
        <ele>22</ele>
        <time>2019-10-17T13:23:51.000Z</time>
      </trkpt>
      <trkpt lat="47.30771" lon="-1.55688">
        <ele>23</ele>
        <time>2019-10-17T13:23:52.000Z</time>
      </trkpt>
      <trkpt lat="47.30771" lon="-1.55696">
        <ele>23</ele>
        <time>2019-10-17T13:23:53.000Z</time>
      </trkpt>
      <trkpt lat="47.3077" lon="-1.55704">
        <ele>23</ele>
        <time>2019-10-17T13:23:54.000Z</time>
      </trkpt>
      <trkpt lat="47.30769" lon="-1.55711">
        <ele>23</ele>
        <time>2019-10-17T13:23:55.000Z</time>
      </trkpt>
      <trkpt lat="47.30769" lon="-1.55718">
        <ele>23</ele>
        <time>2019-10-17T13:23:56.000Z</time>
      </trkpt>
      <trkpt lat="47.30768" lon="-1.55726">
        <ele>23</ele>
        <time>2019-10-17T13:23:57.000Z</time>
      </trkpt>
      <trkpt lat="47.30768" lon="-1.55733">
        <ele>23</ele>
        <time>2019-10-17T13:23:58.000Z</time>
      </trkpt>
      <trkpt lat="47.30768" lon="-1.55741">
        <ele>23</ele>
        <time>2019-10-17T13:23:59.000Z</time>
      </trkpt>
      <trkpt lat="47.30767" lon="-1.55749">
        <ele>23</ele>
        <time>2019-10-17T13:24:00.000Z</time>
      </trkpt>
      <trkpt lat="47.30767" lon="-1.55757">
        <ele>24</ele>
        <time>2019-10-17T13:24:01.000Z</time>
      </trkpt>
      <trkpt lat="47.30766" lon="-1.55765">
        <ele>24</ele>
        <time>2019-10-17T13:24:02.000Z</time>
      </trkpt>
      <trkpt lat="47.30765" lon="-1.55771">
        <ele>24</ele>
        <time>2019-10-17T13:24:03.000Z</time>
      </trkpt>
      <trkpt lat="47.30765" lon="-1.55778">
        <ele>24</ele>
        <time>2019-10-17T13:24:04.000Z</time>
      </trkpt>
      <trkpt lat="47.30764" lon="-1.55784">
        <ele>24</ele>
        <time>2019-10-17T13:24:05.000Z</time>
      </trkpt>
      <trkpt lat="47.30764" lon="-1.55791">
        <ele>24</ele>
        <time>2019-10-17T13:24:06.000Z</time>
      </trkpt>
      <trkpt lat="47.30764" lon="-1.55797">
        <ele>24</ele>
        <time>2019-10-17T13:24:07.000Z</time>
      </trkpt>
      <trkpt lat="47.30764" lon="-1.55803">
        <ele>24</ele>
        <time>2019-10-17T13:24:08.000Z</time>
      </trkpt>
      <trkpt lat="47.30764" lon="-1.55809">
        <ele>24</ele>
        <time>2019-10-17T13:24:09.000Z</time>
      </trkpt>
      <trkpt lat="47.30765" lon="-1.55814">
        <ele>24</ele>
        <time>2019-10-17T13:24:10.000Z</time>
      </trkpt>
      <trkpt lat="47.30766" lon="-1.55818">
        <ele>24</ele>
        <time>2019-10-17T13:24:11.000Z</time>
      </trkpt>
      <trkpt lat="47.30768" lon="-1.55819">
        <ele>24</ele>
        <time>2019-10-17T13:24:12.000Z</time>
      </trkpt>
      <trkpt lat="47.30771" lon="-1.55819">
        <ele>25</ele>
        <time>2019-10-17T13:24:13.000Z</time>
      </trkpt>
      <trkpt lat="47.30773" lon="-1.55819">
        <ele>25</ele>
        <time>2019-10-17T13:24:14.000Z</time>
      </trkpt>
      <trkpt lat="47.30775" lon="-1.55817">
        <ele>25</ele>
        <time>2019-10-17T13:24:15.000Z</time>
      </trkpt>
      <trkpt lat="47.30777" lon="-1.55815">
        <ele>24</ele>
        <time>2019-10-17T13:24:16.000Z</time>
      </trkpt>
      <trkpt lat="47.3078" lon="-1.55814">
        <ele>24</ele>
        <time>2019-10-17T13:24:17.000Z</time>
      </trkpt>
      <trkpt lat="47.30784" lon="-1.55812">
        <ele>24</ele>
        <time>2019-10-17T13:24:18.000Z</time>
      </trkpt>
      <trkpt lat="47.30788" lon="-1.55809">
        <ele>24</ele>
        <time>2019-10-17T13:24:19.000Z</time>
      </trkpt>
      <trkpt lat="47.30791" lon="-1.55807">
        <ele>24</ele>
        <time>2019-10-17T13:24:20.000Z</time>
      </trkpt>
      <trkpt lat="47.30796" lon="-1.55805">
        <ele>25</ele>
        <time>2019-10-17T13:24:21.000Z</time>
      </trkpt>
      <trkpt lat="47.30799" lon="-1.55803">
        <ele>25</ele>
        <time>2019-10-17T13:24:22.000Z</time>
      </trkpt>
      <trkpt lat="47.30804" lon="-1.55801">
        <ele>25</ele>
        <time>2019-10-17T13:24:23.000Z</time>
      </trkpt>
      <trkpt lat="47.30808" lon="-1.55799">
        <ele>25</ele>
        <time>2019-10-17T13:24:24.000Z</time>
      </trkpt>
      <trkpt lat="47.30812" lon="-1.55797">
        <ele>25</ele>
        <time>2019-10-17T13:24:25.000Z</time>
      </trkpt>
      <trkpt lat="47.30815" lon="-1.55793">
        <ele>26</ele>
        <time>2019-10-17T13:24:26.000Z</time>
      </trkpt>
      <trkpt lat="47.3082" lon="-1.5579">
        <ele>26</ele>
        <time>2019-10-17T13:24:27.000Z</time>
      </trkpt>
      <trkpt lat="47.30824" lon="-1.55786">
        <ele>26</ele>
        <time>2019-10-17T13:24:28.000Z</time>
      </trkpt>
      <trkpt lat="47.30828" lon="-1.55783">
        <ele>26</ele>
        <time>2019-10-17T13:24:29.000Z</time>
      </trkpt>
      <trkpt lat="47.30833" lon="-1.5578">
        <ele>26</ele>
        <time>2019-10-17T13:24:30.000Z</time>
      </trkpt>
      <trkpt lat="47.30836" lon="-1.55776">
        <ele>27</ele>
        <time>2019-10-17T13:24:31.000Z</time>
      </trkpt>
      <trkpt lat="47.3084" lon="-1.55772">
        <ele>27</ele>
        <time>2019-10-17T13:24:32.000Z</time>
      </trkpt>
      <trkpt lat="47.30844" lon="-1.55769">
        <ele>27</ele>
        <time>2019-10-17T13:24:33.000Z</time>
      </trkpt>
      <trkpt lat="47.30847" lon="-1.55766">
        <ele>27</ele>
        <time>2019-10-17T13:24:34.000Z</time>
      </trkpt>
      <trkpt lat="47.3085" lon="-1.55762">
        <ele>27</ele>
        <time>2019-10-17T13:24:35.000Z</time>
      </trkpt>
      <trkpt lat="47.30854" lon="-1.55758">
        <ele>27</ele>
        <time>2019-10-17T13:24:36.000Z</time>
      </trkpt>
      <trkpt lat="47.30858" lon="-1.55753">
        <ele>27</ele>
        <time>2019-10-17T13:24:37.000Z</time>
      </trkpt>
      <trkpt lat="47.30861" lon="-1.55747">
        <ele>27</ele>
        <time>2019-10-17T13:24:38.000Z</time>
      </trkpt>
      <trkpt lat="47.30865" lon="-1.55742">
        <ele>27</ele>
        <time>2019-10-17T13:24:39.000Z</time>
      </trkpt>
      <trkpt lat="47.30868" lon="-1.55736">
        <ele>27</ele>
        <time>2019-10-17T13:24:40.000Z</time>
      </trkpt>
      <trkpt lat="47.30872" lon="-1.55731">
        <ele>27</ele>
        <time>2019-10-17T13:24:41.000Z</time>
      </trkpt>
      <trkpt lat="47.30876" lon="-1.55726">
        <ele>28</ele>
        <time>2019-10-17T13:24:42.000Z</time>
      </trkpt>
      <trkpt lat="47.3088" lon="-1.55721">
        <ele>28</ele>
        <time>2019-10-17T13:24:43.000Z</time>
      </trkpt>
      <trkpt lat="47.30884" lon="-1.55716">
        <ele>28</ele>
        <time>2019-10-17T13:24:44.000Z</time>
      </trkpt>
      <trkpt lat="47.30888" lon="-1.55711">
        <ele>28</ele>
        <time>2019-10-17T13:24:45.000Z</time>
      </trkpt>
      <trkpt lat="47.30892" lon="-1.55706">
        <ele>28</ele>
        <time>2019-10-17T13:24:46.000Z</time>
      </trkpt>
      <trkpt lat="47.30896" lon="-1.55703">
        <ele>28</ele>
        <time>2019-10-17T13:24:47.000Z</time>
      </trkpt>
      <trkpt lat="47.30899" lon="-1.55699">
        <ele>29</ele>
        <time>2019-10-17T13:24:48.000Z</time>
      </trkpt>
      <trkpt lat="47.30903" lon="-1.55695">
        <ele>29</ele>
        <time>2019-10-17T13:24:49.000Z</time>
      </trkpt>
      <trkpt lat="47.30907" lon="-1.55692">
        <ele>29</ele>
        <time>2019-10-17T13:24:50.000Z</time>
      </trkpt>
      <trkpt lat="47.30912" lon="-1.55687">
        <ele>29</ele>
        <time>2019-10-17T13:24:51.000Z</time>
      </trkpt>
      <trkpt lat="47.30916" lon="-1.55681">
        <ele>30</ele>
        <time>2019-10-17T13:24:52.000Z</time>
      </trkpt>
      <trkpt lat="47.30921" lon="-1.55675">
        <ele>30</ele>
        <time>2019-10-17T13:24:53.000Z</time>
      </trkpt>
      <trkpt lat="47.30925" lon="-1.5567">
        <ele>30</ele>
        <time>2019-10-17T13:24:54.000Z</time>
      </trkpt>
      <trkpt lat="47.3093" lon="-1.55663">
        <ele>30</ele>
        <time>2019-10-17T13:24:55.000Z</time>
      </trkpt>
      <trkpt lat="47.30934" lon="-1.55657">
        <ele>30</ele>
        <time>2019-10-17T13:24:56.000Z</time>
      </trkpt>
      <trkpt lat="47.30939" lon="-1.55653">
        <ele>30</ele>
        <time>2019-10-17T13:24:57.000Z</time>
      </trkpt>
      <trkpt lat="47.30945" lon="-1.5565">
        <ele>30</ele>
        <time>2019-10-17T13:24:58.000Z</time>
      </trkpt>
      <trkpt lat="47.3095" lon="-1.55645">
        <ele>31</ele>
        <time>2019-10-17T13:24:59.000Z</time>
      </trkpt>
      <trkpt lat="47.30954" lon="-1.5564">
        <ele>31</ele>
        <time>2019-10-17T13:25:00.000Z</time>
      </trkpt>
      <trkpt lat="47.30958" lon="-1.55634">
        <ele>31</ele>
        <time>2019-10-17T13:25:01.000Z</time>
      </trkpt>
      <trkpt lat="47.30963" lon="-1.55629">
        <ele>31</ele>
        <time>2019-10-17T13:25:02.000Z</time>
      </trkpt>
      <trkpt lat="47.30968" lon="-1.55624">
        <ele>31</ele>
        <time>2019-10-17T13:25:03.000Z</time>
      </trkpt>
      <trkpt lat="47.30973" lon="-1.55619">
        <ele>31</ele>
        <time>2019-10-17T13:25:04.000Z</time>
      </trkpt>
      <trkpt lat="47.30978" lon="-1.55615">
        <ele>32</ele>
        <time>2019-10-17T13:25:05.000Z</time>
      </trkpt>
      <trkpt lat="47.30983" lon="-1.55612">
        <ele>32</ele>
        <time>2019-10-17T13:25:06.000Z</time>
      </trkpt>
      <trkpt lat="47.30988" lon="-1.55608">
        <ele>32</ele>
        <time>2019-10-17T13:25:07.000Z</time>
      </trkpt>
      <trkpt lat="47.30994" lon="-1.55605">
        <ele>32</ele>
        <time>2019-10-17T13:25:08.000Z</time>
      </trkpt>
      <trkpt lat="47.30998" lon="-1.55603">
        <ele>32</ele>
        <time>2019-10-17T13:25:09.000Z</time>
      </trkpt>
      <trkpt lat="47.31003" lon="-1.55601">
        <ele>32</ele>
        <time>2019-10-17T13:25:10.000Z</time>
      </trkpt>
      <trkpt lat="47.31009" lon="-1.55599">
        <ele>31</ele>
        <time>2019-10-17T13:25:11.000Z</time>
      </trkpt>
      <trkpt lat="47.31014" lon="-1.55597">
        <ele>31</ele>
        <time>2019-10-17T13:25:12.000Z</time>
      </trkpt>
      <trkpt lat="47.31019" lon="-1.55594">
        <ele>31</ele>
        <time>2019-10-17T13:25:13.000Z</time>
      </trkpt>
      <trkpt lat="47.31024" lon="-1.55592">
        <ele>31</ele>
        <time>2019-10-17T13:25:14.000Z</time>
      </trkpt>
      <trkpt lat="47.31029" lon="-1.55591">
        <ele>31</ele>
        <time>2019-10-17T13:25:15.000Z</time>
      </trkpt>
      <trkpt lat="47.31034" lon="-1.55589">
        <ele>31</ele>
        <time>2019-10-17T13:25:16.000Z</time>
      </trkpt>
      <trkpt lat="47.3104" lon="-1.55588">
        <ele>31</ele>
        <time>2019-10-17T13:25:17.000Z</time>
      </trkpt>
      <trkpt lat="47.31045" lon="-1.55586">
        <ele>31</ele>
        <time>2019-10-17T13:25:18.000Z</time>
      </trkpt>
      <trkpt lat="47.31049" lon="-1.55585">
        <ele>31</ele>
        <time>2019-10-17T13:25:19.000Z</time>
      </trkpt>
      <trkpt lat="47.31054" lon="-1.55583">
        <ele>30</ele>
        <time>2019-10-17T13:25:20.000Z</time>
      </trkpt>
      <trkpt lat="47.31059" lon="-1.55581">
        <ele>30</ele>
        <time>2019-10-17T13:25:21.000Z</time>
      </trkpt>
      <trkpt lat="47.31063" lon="-1.55579">
        <ele>30</ele>
        <time>2019-10-17T13:25:22.000Z</time>
      </trkpt>
      <trkpt lat="47.31066" lon="-1.55578">
        <ele>30</ele>
        <time>2019-10-17T13:25:23.000Z</time>
      </trkpt>
      <trkpt lat="47.3107" lon="-1.55577">
        <ele>30</ele>
        <time>2019-10-17T13:25:24.000Z</time>
      </trkpt>
      <trkpt lat="47.31073" lon="-1.55578">
        <ele>30</ele>
        <time>2019-10-17T13:25:25.000Z</time>
      </trkpt>
      <trkpt lat="47.31076" lon="-1.5558">
        <ele>30</ele>
        <time>2019-10-17T13:25:26.000Z</time>
      </trkpt>
      <trkpt lat="47.31078" lon="-1.55583">
        <ele>30</ele>
        <time>2019-10-17T13:25:27.000Z</time>
      </trkpt>
      <trkpt lat="47.31079" lon="-1.55586">
        <ele>29</ele>
        <time>2019-10-17T13:25:28.000Z</time>
      </trkpt>
      <trkpt lat="47.31082" lon="-1.55589">
        <ele>29</ele>
        <time>2019-10-17T13:25:29.000Z</time>
      </trkpt>
      <trkpt lat="47.31084" lon="-1.55592">
        <ele>29</ele>
        <time>2019-10-17T13:25:30.000Z</time>
      </trkpt>
      <trkpt lat="47.31087" lon="-1.55594">
        <ele>29</ele>
        <time>2019-10-17T13:25:31.000Z</time>
      </trkpt>
      <trkpt lat="47.3109" lon="-1.55596">
        <ele>29</ele>
        <time>2019-10-17T13:25:32.000Z</time>
      </trkpt>
      <trkpt lat="47.31092" lon="-1.55597">
        <ele>29</ele>
        <time>2019-10-17T13:25:33.000Z</time>
      </trkpt>
      <trkpt lat="47.31094" lon="-1.55597">
        <ele>29</ele>
        <time>2019-10-17T13:25:34.000Z</time>
      </trkpt>
      <trkpt lat="47.31096" lon="-1.55596">
        <ele>29</ele>
        <time>2019-10-17T13:25:35.000Z</time>
      </trkpt>
      <trkpt lat="47.31099" lon="-1.55595">
        <ele>29</ele>
        <time>2019-10-17T13:25:36.000Z</time>
      </trkpt>
      <trkpt lat="47.31103" lon="-1.55595">
        <ele>29</ele>
        <time>2019-10-17T13:25:37.000Z</time>
      </trkpt>
      <trkpt lat="47.31107" lon="-1.55595">
        <ele>28</ele>
        <time>2019-10-17T13:25:38.000Z</time>
      </trkpt>
      <trkpt lat="47.3111" lon="-1.55596">
        <ele>28</ele>
        <time>2019-10-17T13:25:39.000Z</time>
      </trkpt>
      <trkpt lat="47.31113" lon="-1.55596">
        <ele>28</ele>
        <time>2019-10-17T13:25:40.000Z</time>
      </trkpt>
      <trkpt lat="47.31115" lon="-1.55596">
        <ele>28</ele>
        <time>2019-10-17T13:25:41.000Z</time>
      </trkpt>
      <trkpt lat="47.31119" lon="-1.55596">
        <ele>28</ele>
        <time>2019-10-17T13:25:42.000Z</time>
      </trkpt>
      <trkpt lat="47.31121" lon="-1.55597">
        <ele>28</ele>
        <time>2019-10-17T13:25:43.000Z</time>
      </trkpt>
      <trkpt lat="47.31124" lon="-1.55597">
        <ele>28</ele>
        <time>2019-10-17T13:25:44.000Z</time>
      </trkpt>
      <trkpt lat="47.31127" lon="-1.55597">
        <ele>27</ele>
        <time>2019-10-17T13:25:45.000Z</time>
      </trkpt>
      <trkpt lat="47.31131" lon="-1.55595">
        <ele>27</ele>
        <time>2019-10-17T13:25:46.000Z</time>
      </trkpt>
      <trkpt lat="47.31134" lon="-1.55594">
        <ele>27</ele>
        <time>2019-10-17T13:25:47.000Z</time>
      </trkpt>
      <trkpt lat="47.31138" lon="-1.55595">
        <ele>27</ele>
        <time>2019-10-17T13:25:48.000Z</time>
      </trkpt>
      <trkpt lat="47.31141" lon="-1.55596">
        <ele>27</ele>
        <time>2019-10-17T13:25:49.000Z</time>
      </trkpt>
      <trkpt lat="47.31145" lon="-1.55596">
        <ele>27</ele>
        <time>2019-10-17T13:25:50.000Z</time>
      </trkpt>
      <trkpt lat="47.31149" lon="-1.55596">
        <ele>27</ele>
        <time>2019-10-17T13:25:51.000Z</time>
      </trkpt>
      <trkpt lat="47.31154" lon="-1.55597">
        <ele>26</ele>
        <time>2019-10-17T13:25:52.000Z</time>
      </trkpt>
      <trkpt lat="47.31157" lon="-1.55598">
        <ele>26</ele>
        <time>2019-10-17T13:25:53.000Z</time>
      </trkpt>
      <trkpt lat="47.31161" lon="-1.556">
        <ele>26</ele>
        <time>2019-10-17T13:25:54.000Z</time>
      </trkpt>
      <trkpt lat="47.31165" lon="-1.55602">
        <ele>26</ele>
        <time>2019-10-17T13:25:55.000Z</time>
      </trkpt>
      <trkpt lat="47.3117" lon="-1.55605">
        <ele>26</ele>
        <time>2019-10-17T13:25:56.000Z</time>
      </trkpt>
      <trkpt lat="47.31174" lon="-1.55607">
        <ele>26</ele>
        <time>2019-10-17T13:25:57.000Z</time>
      </trkpt>
      <trkpt lat="47.31179" lon="-1.55609">
        <ele>25</ele>
        <time>2019-10-17T13:25:58.000Z</time>
      </trkpt>
      <trkpt lat="47.31184" lon="-1.5561">
        <ele>25</ele>
        <time>2019-10-17T13:25:59.000Z</time>
      </trkpt>
      <trkpt lat="47.31188" lon="-1.55611">
        <ele>25</ele>
        <time>2019-10-17T13:26:00.000Z</time>
      </trkpt>
      <trkpt lat="47.31192" lon="-1.55611">
        <ele>25</ele>
        <time>2019-10-17T13:26:01.000Z</time>
      </trkpt>
      <trkpt lat="47.31194" lon="-1.55609">
        <ele>25</ele>
        <time>2019-10-17T13:26:02.000Z</time>
      </trkpt>
      <trkpt lat="47.31196" lon="-1.55609">
        <ele>25</ele>
        <time>2019-10-17T13:26:03.000Z</time>
      </trkpt>
      <trkpt lat="47.31197" lon="-1.55608">
        <ele>25</ele>
        <time>2019-10-17T13:26:04.000Z</time>
      </trkpt>
      <trkpt lat="47.31198" lon="-1.55605">
        <ele>25</ele>
        <time>2019-10-17T13:26:05.000Z</time>
      </trkpt>
      <trkpt lat="47.31198" lon="-1.556">
        <ele>25</ele>
        <time>2019-10-17T13:26:06.000Z</time>
      </trkpt>
      <trkpt lat="47.31198" lon="-1.55596">
        <ele>25</ele>
        <time>2019-10-17T13:26:07.000Z</time>
      </trkpt>
      <trkpt lat="47.31197" lon="-1.55592">
        <ele>25</ele>
        <time>2019-10-17T13:26:08.000Z</time>
      </trkpt>
      <trkpt lat="47.31197" lon="-1.55587">
        <ele>24</ele>
        <time>2019-10-17T13:26:09.000Z</time>
      </trkpt>
      <trkpt lat="47.31195" lon="-1.55582">
        <ele>24</ele>
        <time>2019-10-17T13:26:10.000Z</time>
      </trkpt>
      <trkpt lat="47.31194" lon="-1.55578">
        <ele>24</ele>
        <time>2019-10-17T13:26:11.000Z</time>
      </trkpt>
      <trkpt lat="47.31192" lon="-1.55574">
        <ele>24</ele>
        <time>2019-10-17T13:26:12.000Z</time>
      </trkpt>
      <trkpt lat="47.3119" lon="-1.5557">
        <ele>24</ele>
        <time>2019-10-17T13:26:13.000Z</time>
      </trkpt>
      <trkpt lat="47.31188" lon="-1.55568">
        <ele>24</ele>
        <time>2019-10-17T13:26:14.000Z</time>
      </trkpt>
      <trkpt lat="47.31186" lon="-1.55565">
        <ele>24</ele>
        <time>2019-10-17T13:26:15.000Z</time>
      </trkpt>
      <trkpt lat="47.31183" lon="-1.55563">
        <ele>24</ele>
        <time>2019-10-17T13:26:16.000Z</time>
      </trkpt>
      <trkpt lat="47.31181" lon="-1.5556">
        <ele>23</ele>
        <time>2019-10-17T13:26:17.000Z</time>
      </trkpt>
      <trkpt lat="47.31178" lon="-1.55557">
        <ele>23</ele>
        <time>2019-10-17T13:26:18.000Z</time>
      </trkpt>
      <trkpt lat="47.31175" lon="-1.55554">
        <ele>23</ele>
        <time>2019-10-17T13:26:19.000Z</time>
      </trkpt>
      <trkpt lat="47.31172" lon="-1.55551">
        <ele>23</ele>
        <time>2019-10-17T13:26:20.000Z</time>
      </trkpt>
      <trkpt lat="47.31168" lon="-1.5555">
        <ele>22</ele>
        <time>2019-10-17T13:26:21.000Z</time>
      </trkpt>
      <trkpt lat="47.31165" lon="-1.55548">
        <ele>22</ele>
        <time>2019-10-17T13:26:22.000Z</time>
      </trkpt>
      <trkpt lat="47.31161" lon="-1.55546">
        <ele>22</ele>
        <time>2019-10-17T13:26:23.000Z</time>
      </trkpt>
      <trkpt lat="47.31157" lon="-1.55544">
        <ele>22</ele>
        <time>2019-10-17T13:26:24.000Z</time>
      </trkpt>
      <trkpt lat="47.31153" lon="-1.55542">
        <ele>22</ele>
        <time>2019-10-17T13:26:25.000Z</time>
      </trkpt>
      <trkpt lat="47.31148" lon="-1.55539">
        <ele>22</ele>
        <time>2019-10-17T13:26:26.000Z</time>
      </trkpt>
      <trkpt lat="47.31143" lon="-1.55536">
        <ele>22</ele>
        <time>2019-10-17T13:26:27.000Z</time>
      </trkpt>
      <trkpt lat="47.31139" lon="-1.55534">
        <ele>22</ele>
        <time>2019-10-17T13:26:28.000Z</time>
      </trkpt>
      <trkpt lat="47.31134" lon="-1.55531">
        <ele>22</ele>
        <time>2019-10-17T13:26:29.000Z</time>
      </trkpt>
      <trkpt lat="47.3113" lon="-1.55529">
        <ele>22</ele>
        <time>2019-10-17T13:26:30.000Z</time>
      </trkpt>
      <trkpt lat="47.31126" lon="-1.55526">
        <ele>23</ele>
        <time>2019-10-17T13:26:31.000Z</time>
      </trkpt>
      <trkpt lat="47.31121" lon="-1.55524">
        <ele>23</ele>
        <time>2019-10-17T13:26:32.000Z</time>
      </trkpt>
      <trkpt lat="47.31116" lon="-1.55521">
        <ele>23</ele>
        <time>2019-10-17T13:26:33.000Z</time>
      </trkpt>
      <trkpt lat="47.31112" lon="-1.55519">
        <ele>23</ele>
        <time>2019-10-17T13:26:34.000Z</time>
      </trkpt>
      <trkpt lat="47.31109" lon="-1.55516">
        <ele>23</ele>
        <time>2019-10-17T13:26:35.000Z</time>
      </trkpt>
      <trkpt lat="47.31108" lon="-1.55513">
        <ele>22</ele>
        <time>2019-10-17T13:26:36.000Z</time>
      </trkpt>
      <trkpt lat="47.31108" lon="-1.5551">
        <ele>22</ele>
        <time>2019-10-17T13:26:37.000Z</time>
      </trkpt>
      <trkpt lat="47.31109" lon="-1.55506">
        <ele>22</ele>
        <time>2019-10-17T13:26:38.000Z</time>
      </trkpt>
      <trkpt lat="47.3111" lon="-1.55501">
        <ele>22</ele>
        <time>2019-10-17T13:26:39.000Z</time>
      </trkpt>
      <trkpt lat="47.3111" lon="-1.55496">
        <ele>22</ele>
        <time>2019-10-17T13:26:40.000Z</time>
      </trkpt>
      <trkpt lat="47.31111" lon="-1.55491">
        <ele>22</ele>
        <time>2019-10-17T13:26:41.000Z</time>
      </trkpt>
      <trkpt lat="47.31112" lon="-1.55486">
        <ele>22</ele>
        <time>2019-10-17T13:26:42.000Z</time>
      </trkpt>
      <trkpt lat="47.31112" lon="-1.55481">
        <ele>22</ele>
        <time>2019-10-17T13:26:43.000Z</time>
      </trkpt>
      <trkpt lat="47.31113" lon="-1.55475">
        <ele>22</ele>
        <time>2019-10-17T13:26:44.000Z</time>
      </trkpt>
      <trkpt lat="47.31114" lon="-1.5547">
        <ele>22</ele>
        <time>2019-10-17T13:26:45.000Z</time>
      </trkpt>
      <trkpt lat="47.31115" lon="-1.55464">
        <ele>22</ele>
        <time>2019-10-17T13:26:46.000Z</time>
      </trkpt>
      <trkpt lat="47.31117" lon="-1.55458">
        <ele>22</ele>
        <time>2019-10-17T13:26:47.000Z</time>
      </trkpt>
      <trkpt lat="47.31119" lon="-1.55454">
        <ele>21</ele>
        <time>2019-10-17T13:26:48.000Z</time>
      </trkpt>
      <trkpt lat="47.31121" lon="-1.55451">
        <ele>22</ele>
        <time>2019-10-17T13:26:49.000Z</time>
      </trkpt>
      <trkpt lat="47.31124" lon="-1.55448">
        <ele>21</ele>
        <time>2019-10-17T13:26:50.000Z</time>
      </trkpt>
      <trkpt lat="47.31126" lon="-1.55445">
        <ele>22</ele>
        <time>2019-10-17T13:26:51.000Z</time>
      </trkpt>
      <trkpt lat="47.31129" lon="-1.55442">
        <ele>22</ele>
        <time>2019-10-17T13:26:52.000Z</time>
      </trkpt>
      <trkpt lat="47.31132" lon="-1.5544">
        <ele>22</ele>
        <time>2019-10-17T13:26:53.000Z</time>
      </trkpt>
      <trkpt lat="47.31134" lon="-1.55437">
        <ele>22</ele>
        <time>2019-10-17T13:26:54.000Z</time>
      </trkpt>
      <trkpt lat="47.31137" lon="-1.55436">
        <ele>22</ele>
        <time>2019-10-17T13:26:55.000Z</time>
      </trkpt>
      <trkpt lat="47.31141" lon="-1.55436">
        <ele>22</ele>
        <time>2019-10-17T13:26:56.000Z</time>
      </trkpt>
      <trkpt lat="47.31144" lon="-1.55436">
        <ele>22</ele>
        <time>2019-10-17T13:26:57.000Z</time>
      </trkpt>
      <trkpt lat="47.31147" lon="-1.55438">
        <ele>22</ele>
        <time>2019-10-17T13:26:58.000Z</time>
      </trkpt>
      <trkpt lat="47.31151" lon="-1.5544">
        <ele>22</ele>
        <time>2019-10-17T13:26:59.000Z</time>
      </trkpt>
      <trkpt lat="47.31155" lon="-1.55441">
        <ele>22</ele>
        <time>2019-10-17T13:27:00.000Z</time>
      </trkpt>
      <trkpt lat="47.31159" lon="-1.55442">
        <ele>22</ele>
        <time>2019-10-17T13:27:01.000Z</time>
      </trkpt>
      <trkpt lat="47.31164" lon="-1.55444">
        <ele>22</ele>
        <time>2019-10-17T13:27:02.000Z</time>
      </trkpt>
      <trkpt lat="47.31168" lon="-1.55444">
        <ele>22</ele>
        <time>2019-10-17T13:27:03.000Z</time>
      </trkpt>
      <trkpt lat="47.31172" lon="-1.55443">
        <ele>22</ele>
        <time>2019-10-17T13:27:04.000Z</time>
      </trkpt>
      <trkpt lat="47.31177" lon="-1.55441">
        <ele>22</ele>
        <time>2019-10-17T13:27:05.000Z</time>
      </trkpt>
      <trkpt lat="47.3118" lon="-1.55438">
        <ele>22</ele>
        <time>2019-10-17T13:27:06.000Z</time>
      </trkpt>
      <trkpt lat="47.31182" lon="-1.55434">
        <ele>22</ele>
        <time>2019-10-17T13:27:07.000Z</time>
      </trkpt>
      <trkpt lat="47.31183" lon="-1.5543">
        <ele>22</ele>
        <time>2019-10-17T13:27:08.000Z</time>
      </trkpt>
      <trkpt lat="47.31185" lon="-1.55427">
        <ele>22</ele>
        <time>2019-10-17T13:27:09.000Z</time>
      </trkpt>
      <trkpt lat="47.31188" lon="-1.55426">
        <ele>22</ele>
        <time>2019-10-17T13:27:10.000Z</time>
      </trkpt>
      <trkpt lat="47.31191" lon="-1.55426">
        <ele>22</ele>
        <time>2019-10-17T13:27:11.000Z</time>
      </trkpt>
      <trkpt lat="47.31195" lon="-1.55425">
        <ele>22</ele>
        <time>2019-10-17T13:27:12.000Z</time>
      </trkpt>
      <trkpt lat="47.31198" lon="-1.55425">
        <ele>22</ele>
        <time>2019-10-17T13:27:13.000Z</time>
      </trkpt>
      <trkpt lat="47.31202" lon="-1.55424">
        <ele>22</ele>
        <time>2019-10-17T13:27:14.000Z</time>
      </trkpt>
      <trkpt lat="47.31206" lon="-1.55424">
        <ele>23</ele>
        <time>2019-10-17T13:27:15.000Z</time>
      </trkpt>
      <trkpt lat="47.3121" lon="-1.55423">
        <ele>23</ele>
        <time>2019-10-17T13:27:16.000Z</time>
      </trkpt>
      <trkpt lat="47.31214" lon="-1.55422">
        <ele>23</ele>
        <time>2019-10-17T13:27:17.000Z</time>
      </trkpt>
      <trkpt lat="47.31217" lon="-1.55422">
        <ele>23</ele>
        <time>2019-10-17T13:27:18.000Z</time>
      </trkpt>
      <trkpt lat="47.31221" lon="-1.55421">
        <ele>23</ele>
        <time>2019-10-17T13:27:19.000Z</time>
      </trkpt>
      <trkpt lat="47.31225" lon="-1.55421">
        <ele>23</ele>
        <time>2019-10-17T13:27:20.000Z</time>
      </trkpt>
      <trkpt lat="47.31229" lon="-1.55421">
        <ele>23</ele>
        <time>2019-10-17T13:27:21.000Z</time>
      </trkpt>
      <trkpt lat="47.31233" lon="-1.55421">
        <ele>23</ele>
        <time>2019-10-17T13:27:22.000Z</time>
      </trkpt>
      <trkpt lat="47.31238" lon="-1.55421">
        <ele>23</ele>
        <time>2019-10-17T13:27:23.000Z</time>
      </trkpt>
      <trkpt lat="47.31242" lon="-1.55421">
        <ele>23</ele>
        <time>2019-10-17T13:27:24.000Z</time>
      </trkpt>
      <trkpt lat="47.31247" lon="-1.55422">
        <ele>23</ele>
        <time>2019-10-17T13:27:25.000Z</time>
      </trkpt>
      <trkpt lat="47.31251" lon="-1.55422">
        <ele>23</ele>
        <time>2019-10-17T13:27:26.000Z</time>
      </trkpt>
      <trkpt lat="47.31256" lon="-1.55422">
        <ele>23</ele>
        <time>2019-10-17T13:27:27.000Z</time>
      </trkpt>
      <trkpt lat="47.31261" lon="-1.55422">
        <ele>23</ele>
        <time>2019-10-17T13:27:28.000Z</time>
      </trkpt>
      <trkpt lat="47.31266" lon="-1.5542">
        <ele>23</ele>
        <time>2019-10-17T13:27:29.000Z</time>
      </trkpt>
      <trkpt lat="47.31271" lon="-1.5542">
        <ele>23</ele>
        <time>2019-10-17T13:27:30.000Z</time>
      </trkpt>
      <trkpt lat="47.31277" lon="-1.5542">
        <ele>23</ele>
        <time>2019-10-17T13:27:31.000Z</time>
      </trkpt>
      <trkpt lat="47.31284" lon="-1.5542">
        <ele>23</ele>
        <time>2019-10-17T13:27:32.000Z</time>
      </trkpt>
      <trkpt lat="47.31289" lon="-1.5542">
        <ele>23</ele>
        <time>2019-10-17T13:27:33.000Z</time>
      </trkpt>
      <trkpt lat="47.31294" lon="-1.55421">
        <ele>23</ele>
        <time>2019-10-17T13:27:34.000Z</time>
      </trkpt>
      <trkpt lat="47.31299" lon="-1.55422">
        <ele>23</ele>
        <time>2019-10-17T13:27:35.000Z</time>
      </trkpt>
      <trkpt lat="47.31303" lon="-1.55423">
        <ele>22</ele>
        <time>2019-10-17T13:27:36.000Z</time>
      </trkpt>
      <trkpt lat="47.31307" lon="-1.55425">
        <ele>22</ele>
        <time>2019-10-17T13:27:37.000Z</time>
      </trkpt>
      <trkpt lat="47.31312" lon="-1.55427">
        <ele>22</ele>
        <time>2019-10-17T13:27:38.000Z</time>
      </trkpt>
      <trkpt lat="47.31316" lon="-1.5543">
        <ele>22</ele>
        <time>2019-10-17T13:27:39.000Z</time>
      </trkpt>
      <trkpt lat="47.31321" lon="-1.55434">
        <ele>22</ele>
        <time>2019-10-17T13:27:40.000Z</time>
      </trkpt>
      <trkpt lat="47.31326" lon="-1.55438">
        <ele>22</ele>
        <time>2019-10-17T13:27:41.000Z</time>
      </trkpt>
      <trkpt lat="47.31332" lon="-1.5544">
        <ele>22</ele>
        <time>2019-10-17T13:27:42.000Z</time>
      </trkpt>
      <trkpt lat="47.31338" lon="-1.55441">
        <ele>22</ele>
        <time>2019-10-17T13:27:43.000Z</time>
      </trkpt>
      <trkpt lat="47.31344" lon="-1.55441">
        <ele>22</ele>
        <time>2019-10-17T13:27:44.000Z</time>
      </trkpt>
      <trkpt lat="47.31349" lon="-1.5544">
        <ele>22</ele>
        <time>2019-10-17T13:27:45.000Z</time>
      </trkpt>
      <trkpt lat="47.31354" lon="-1.55439">
        <ele>21</ele>
        <time>2019-10-17T13:27:46.000Z</time>
      </trkpt>
      <trkpt lat="47.3136" lon="-1.55436">
        <ele>21</ele>
        <time>2019-10-17T13:27:47.000Z</time>
      </trkpt>
      <trkpt lat="47.31365" lon="-1.55435">
        <ele>21</ele>
        <time>2019-10-17T13:27:48.000Z</time>
      </trkpt>
      <trkpt lat="47.3137" lon="-1.55433">
        <ele>21</ele>
        <time>2019-10-17T13:27:49.000Z</time>
      </trkpt>
      <trkpt lat="47.31377" lon="-1.55431">
        <ele>21</ele>
        <time>2019-10-17T13:27:50.000Z</time>
      </trkpt>
      <trkpt lat="47.31383" lon="-1.55429">
        <ele>20</ele>
        <time>2019-10-17T13:27:51.000Z</time>
      </trkpt>
      <trkpt lat="47.31389" lon="-1.55427">
        <ele>20</ele>
        <time>2019-10-17T13:27:52.000Z</time>
      </trkpt>
      <trkpt lat="47.31396" lon="-1.55425">
        <ele>20</ele>
        <time>2019-10-17T13:27:53.000Z</time>
      </trkpt>
      <trkpt lat="47.31402" lon="-1.55423">
        <ele>20</ele>
        <time>2019-10-17T13:27:54.000Z</time>
      </trkpt>
      <trkpt lat="47.31409" lon="-1.55421">
        <ele>19</ele>
        <time>2019-10-17T13:27:55.000Z</time>
      </trkpt>
      <trkpt lat="47.31416" lon="-1.5542">
        <ele>19</ele>
        <time>2019-10-17T13:27:56.000Z</time>
      </trkpt>
      <trkpt lat="47.31422" lon="-1.5542">
        <ele>19</ele>
        <time>2019-10-17T13:27:57.000Z</time>
      </trkpt>
      <trkpt lat="47.31428" lon="-1.5542">
        <ele>19</ele>
        <time>2019-10-17T13:27:58.000Z</time>
      </trkpt>
      <trkpt lat="47.31433" lon="-1.55419">
        <ele>19</ele>
        <time>2019-10-17T13:27:59.000Z</time>
      </trkpt>
      <trkpt lat="47.31436" lon="-1.55417">
        <ele>19</ele>
        <time>2019-10-17T13:28:00.000Z</time>
      </trkpt>
      <trkpt lat="47.31439" lon="-1.55415">
        <ele>19</ele>
        <time>2019-10-17T13:28:01.000Z</time>
      </trkpt>
      <trkpt lat="47.3144" lon="-1.55413">
        <ele>19</ele>
        <time>2019-10-17T13:28:02.000Z</time>
      </trkpt>
      <trkpt lat="47.31441" lon="-1.55409">
        <ele>19</ele>
        <time>2019-10-17T13:28:03.000Z</time>
      </trkpt>
      <trkpt lat="47.31442" lon="-1.55407">
        <ele>19</ele>
        <time>2019-10-17T13:28:04.000Z</time>
      </trkpt>
      <trkpt lat="47.31444" lon="-1.55404">
        <ele>18</ele>
        <time>2019-10-17T13:28:05.000Z</time>
      </trkpt>
      <trkpt lat="47.31445" lon="-1.55402">
        <ele>18</ele>
        <time>2019-10-17T13:28:06.000Z</time>
      </trkpt>
      <trkpt lat="47.31447" lon="-1.554">
        <ele>18</ele>
        <time>2019-10-17T13:28:07.000Z</time>
      </trkpt>
      <trkpt lat="47.31449" lon="-1.55397">
        <ele>18</ele>
        <time>2019-10-17T13:28:08.000Z</time>
      </trkpt>
      <trkpt lat="47.31451" lon="-1.55392">
        <ele>18</ele>
        <time>2019-10-17T13:28:09.000Z</time>
      </trkpt>
      <trkpt lat="47.31452" lon="-1.55387">
        <ele>18</ele>
        <time>2019-10-17T13:28:10.000Z</time>
      </trkpt>
      <trkpt lat="47.31453" lon="-1.55383">
        <ele>18</ele>
        <time>2019-10-17T13:28:11.000Z</time>
      </trkpt>
      <trkpt lat="47.31455" lon="-1.55379">
        <ele>18</ele>
        <time>2019-10-17T13:28:12.000Z</time>
      </trkpt>
      <trkpt lat="47.31456" lon="-1.55375">
        <ele>18</ele>
        <time>2019-10-17T13:28:13.000Z</time>
      </trkpt>
      <trkpt lat="47.31457" lon="-1.55372">
        <ele>17</ele>
        <time>2019-10-17T13:28:14.000Z</time>
      </trkpt>
      <trkpt lat="47.31459" lon="-1.55369">
        <ele>17</ele>
        <time>2019-10-17T13:28:15.000Z</time>
      </trkpt>
      <trkpt lat="47.31461" lon="-1.55366">
        <ele>17</ele>
        <time>2019-10-17T13:28:16.000Z</time>
      </trkpt>
      <trkpt lat="47.31463" lon="-1.55364">
        <ele>17</ele>
        <time>2019-10-17T13:28:17.000Z</time>
      </trkpt>
      <trkpt lat="47.31466" lon="-1.55362">
        <ele>17</ele>
        <time>2019-10-17T13:28:18.000Z</time>
      </trkpt>
      <trkpt lat="47.31467" lon="-1.5536">
        <ele>17</ele>
        <time>2019-10-17T13:28:19.000Z</time>
      </trkpt>
      <trkpt lat="47.3147" lon="-1.55358">
        <ele>17</ele>
        <time>2019-10-17T13:28:20.000Z</time>
      </trkpt>
      <trkpt lat="47.31472" lon="-1.55357">
        <ele>17</ele>
        <time>2019-10-17T13:28:21.000Z</time>
      </trkpt>
      <trkpt lat="47.31474" lon="-1.55356">
        <ele>17</ele>
        <time>2019-10-17T13:28:22.000Z</time>
      </trkpt>
      <trkpt lat="47.31477" lon="-1.55356">
        <ele>18</ele>
        <time>2019-10-17T13:28:23.000Z</time>
      </trkpt>
      <trkpt lat="47.31479" lon="-1.55355">
        <ele>18</ele>
        <time>2019-10-17T13:28:24.000Z</time>
      </trkpt>
      <trkpt lat="47.31481" lon="-1.55354">
        <ele>18</ele>
        <time>2019-10-17T13:28:25.000Z</time>
      </trkpt>
      <trkpt lat="47.31483" lon="-1.55353">
        <ele>17</ele>
        <time>2019-10-17T13:28:26.000Z</time>
      </trkpt>
      <trkpt lat="47.31486" lon="-1.55353">
        <ele>17</ele>
        <time>2019-10-17T13:28:27.000Z</time>
      </trkpt>
      <trkpt lat="47.31488" lon="-1.55353">
        <ele>17</ele>
        <time>2019-10-17T13:28:28.000Z</time>
      </trkpt>
      <trkpt lat="47.3149" lon="-1.55353">
        <ele>17</ele>
        <time>2019-10-17T13:28:29.000Z</time>
      </trkpt>
      <trkpt lat="47.31492" lon="-1.55354">
        <ele>17</ele>
        <time>2019-10-17T13:28:30.000Z</time>
      </trkpt>
      <trkpt lat="47.31494" lon="-1.55354">
        <ele>17</ele>
        <time>2019-10-17T13:28:31.000Z</time>
      </trkpt>
      <trkpt lat="47.31496" lon="-1.55354">
        <ele>17</ele>
        <time>2019-10-17T13:28:32.000Z</time>
      </trkpt>
      <trkpt lat="47.31498" lon="-1.55355">
        <ele>17</ele>
        <time>2019-10-17T13:28:33.000Z</time>
      </trkpt>
      <trkpt lat="47.315" lon="-1.55355">
        <ele>17</ele>
        <time>2019-10-17T13:28:34.000Z</time>
      </trkpt>
      <trkpt lat="47.31502" lon="-1.55355">
        <ele>17</ele>
        <time>2019-10-17T13:28:35.000Z</time>
      </trkpt>
      <trkpt lat="47.31504" lon="-1.55356">
        <ele>17</ele>
        <time>2019-10-17T13:28:36.000Z</time>
      </trkpt>
      <trkpt lat="47.31506" lon="-1.55357">
        <ele>17</ele>
        <time>2019-10-17T13:28:37.000Z</time>
      </trkpt>
      <trkpt lat="47.31509" lon="-1.55358">
        <ele>17</ele>
        <time>2019-10-17T13:28:38.000Z</time>
      </trkpt>
      <trkpt lat="47.31511" lon="-1.55358">
        <ele>17</ele>
        <time>2019-10-17T13:28:39.000Z</time>
      </trkpt>
      <trkpt lat="47.31513" lon="-1.55358">
        <ele>17</ele>
        <time>2019-10-17T13:28:40.000Z</time>
      </trkpt>
      <trkpt lat="47.31515" lon="-1.55358">
        <ele>17</ele>
        <time>2019-10-17T13:28:41.000Z</time>
      </trkpt>
      <trkpt lat="47.31517" lon="-1.55357">
        <ele>17</ele>
        <time>2019-10-17T13:28:42.000Z</time>
      </trkpt>
      <trkpt lat="47.3152" lon="-1.55357">
        <ele>17</ele>
        <time>2019-10-17T13:28:43.000Z</time>
      </trkpt>
      <trkpt lat="47.31523" lon="-1.55357">
        <ele>17</ele>
        <time>2019-10-17T13:28:44.000Z</time>
      </trkpt>
      <trkpt lat="47.31526" lon="-1.55356">
        <ele>17</ele>
        <time>2019-10-17T13:28:45.000Z</time>
      </trkpt>
      <trkpt lat="47.31529" lon="-1.55356">
        <ele>17</ele>
        <time>2019-10-17T13:28:46.000Z</time>
      </trkpt>
      <trkpt lat="47.31531" lon="-1.55355">
        <ele>17</ele>
        <time>2019-10-17T13:28:47.000Z</time>
      </trkpt>
      <trkpt lat="47.31534" lon="-1.55356">
        <ele>17</ele>
        <time>2019-10-17T13:28:48.000Z</time>
      </trkpt>
      <trkpt lat="47.31536" lon="-1.55356">
        <ele>16</ele>
        <time>2019-10-17T13:28:49.000Z</time>
      </trkpt>
      <trkpt lat="47.31539" lon="-1.55356">
        <ele>16</ele>
        <time>2019-10-17T13:28:50.000Z</time>
      </trkpt>
      <trkpt lat="47.31541" lon="-1.55357">
        <ele>16</ele>
        <time>2019-10-17T13:28:51.000Z</time>
      </trkpt>
      <trkpt lat="47.31544" lon="-1.55357">
        <ele>16</ele>
        <time>2019-10-17T13:28:52.000Z</time>
      </trkpt>
      <trkpt lat="47.31546" lon="-1.55358">
        <ele>16</ele>
        <time>2019-10-17T13:28:53.000Z</time>
      </trkpt>
      <trkpt lat="47.31549" lon="-1.55358">
        <ele>16</ele>
        <time>2019-10-17T13:28:54.000Z</time>
      </trkpt>
      <trkpt lat="47.31551" lon="-1.55359">
        <ele>16</ele>
        <time>2019-10-17T13:28:55.000Z</time>
      </trkpt>
      <trkpt lat="47.31553" lon="-1.55359">
        <ele>16</ele>
        <time>2019-10-17T13:28:56.000Z</time>
      </trkpt>
      <trkpt lat="47.31555" lon="-1.55358">
        <ele>16</ele>
        <time>2019-10-17T13:28:57.000Z</time>
      </trkpt>
      <trkpt lat="47.31557" lon="-1.55358">
        <ele>16</ele>
        <time>2019-10-17T13:28:58.000Z</time>
      </trkpt>
      <trkpt lat="47.31559" lon="-1.55357">
        <ele>16</ele>
        <time>2019-10-17T13:28:59.000Z</time>
      </trkpt>
      <trkpt lat="47.31561" lon="-1.55356">
        <ele>16</ele>
        <time>2019-10-17T13:29:00.000Z</time>
      </trkpt>
      <trkpt lat="47.31563" lon="-1.55356">
        <ele>16</ele>
        <time>2019-10-17T13:29:01.000Z</time>
      </trkpt>
      <trkpt lat="47.31565" lon="-1.55355">
        <ele>17</ele>
        <time>2019-10-17T13:29:02.000Z</time>
      </trkpt>
      <trkpt lat="47.31567" lon="-1.55354">
        <ele>17</ele>
        <time>2019-10-17T13:29:03.000Z</time>
      </trkpt>
      <trkpt lat="47.31569" lon="-1.55353">
        <ele>17</ele>
        <time>2019-10-17T13:29:04.000Z</time>
      </trkpt>
      <trkpt lat="47.31571" lon="-1.55351">
        <ele>17</ele>
        <time>2019-10-17T13:29:05.000Z</time>
      </trkpt>
      <trkpt lat="47.31574" lon="-1.5535">
        <ele>17</ele>
        <time>2019-10-17T13:29:06.000Z</time>
      </trkpt>
      <trkpt lat="47.31575" lon="-1.5535">
        <ele>17</ele>
        <time>2019-10-17T13:29:07.000Z</time>
      </trkpt>
      <trkpt lat="47.31577" lon="-1.55349">
        <ele>18</ele>
        <time>2019-10-17T13:29:08.000Z</time>
      </trkpt>
      <trkpt lat="47.31579" lon="-1.55347">
        <ele>18</ele>
        <time>2019-10-17T13:29:09.000Z</time>
      </trkpt>
      <trkpt lat="47.31581" lon="-1.55346">
        <ele>18</ele>
        <time>2019-10-17T13:29:10.000Z</time>
      </trkpt>
      <trkpt lat="47.31583" lon="-1.55345">
        <ele>19</ele>
        <time>2019-10-17T13:29:11.000Z</time>
      </trkpt>
      <trkpt lat="47.31585" lon="-1.55344">
        <ele>19</ele>
        <time>2019-10-17T13:29:12.000Z</time>
      </trkpt>
      <trkpt lat="47.31587" lon="-1.55343">
        <ele>19</ele>
        <time>2019-10-17T13:29:13.000Z</time>
      </trkpt>
      <trkpt lat="47.31589" lon="-1.55342">
        <ele>20</ele>
        <time>2019-10-17T13:29:14.000Z</time>
      </trkpt>
      <trkpt lat="47.31592" lon="-1.55341">
        <ele>20</ele>
        <time>2019-10-17T13:29:15.000Z</time>
      </trkpt>
      <trkpt lat="47.31594" lon="-1.55341">
        <ele>21</ele>
        <time>2019-10-17T13:29:16.000Z</time>
      </trkpt>
      <trkpt lat="47.31596" lon="-1.55341">
        <ele>21</ele>
        <time>2019-10-17T13:29:17.000Z</time>
      </trkpt>
      <trkpt lat="47.31598" lon="-1.55341">
        <ele>21</ele>
        <time>2019-10-17T13:29:18.000Z</time>
      </trkpt>
      <trkpt lat="47.316" lon="-1.55339">
        <ele>22</ele>
        <time>2019-10-17T13:29:19.000Z</time>
      </trkpt>
      <trkpt lat="47.31602" lon="-1.55337">
        <ele>22</ele>
        <time>2019-10-17T13:29:20.000Z</time>
      </trkpt>
      <trkpt lat="47.31605" lon="-1.55335">
        <ele>22</ele>
        <time>2019-10-17T13:29:21.000Z</time>
      </trkpt>
      <trkpt lat="47.31608" lon="-1.55334">
        <ele>23</ele>
        <time>2019-10-17T13:29:22.000Z</time>
      </trkpt>
      <trkpt lat="47.31611" lon="-1.55334">
        <ele>23</ele>
        <time>2019-10-17T13:29:23.000Z</time>
      </trkpt>
      <trkpt lat="47.31613" lon="-1.55335">
        <ele>23</ele>
        <time>2019-10-17T13:29:24.000Z</time>
      </trkpt>
      <trkpt lat="47.31615" lon="-1.55337">
        <ele>24</ele>
        <time>2019-10-17T13:29:25.000Z</time>
      </trkpt>
      <trkpt lat="47.31617" lon="-1.55339">
        <ele>24</ele>
        <time>2019-10-17T13:29:26.000Z</time>
      </trkpt>
      <trkpt lat="47.31618" lon="-1.55342">
        <ele>24</ele>
        <time>2019-10-17T13:29:27.000Z</time>
      </trkpt>
      <trkpt lat="47.3162" lon="-1.55345">
        <ele>25</ele>
        <time>2019-10-17T13:29:28.000Z</time>
      </trkpt>
      <trkpt lat="47.31622" lon="-1.55349">
        <ele>25</ele>
        <time>2019-10-17T13:29:29.000Z</time>
      </trkpt>
      <trkpt lat="47.31623" lon="-1.55352">
        <ele>25</ele>
        <time>2019-10-17T13:29:30.000Z</time>
      </trkpt>
      <trkpt lat="47.31625" lon="-1.55356">
        <ele>25</ele>
        <time>2019-10-17T13:29:31.000Z</time>
      </trkpt>
      <trkpt lat="47.31627" lon="-1.5536">
        <ele>26</ele>
        <time>2019-10-17T13:29:32.000Z</time>
      </trkpt>
      <trkpt lat="47.31629" lon="-1.55364">
        <ele>26</ele>
        <time>2019-10-17T13:29:33.000Z</time>
      </trkpt>
      <trkpt lat="47.3163" lon="-1.55368">
        <ele>26</ele>
        <time>2019-10-17T13:29:34.000Z</time>
      </trkpt>
      <trkpt lat="47.31632" lon="-1.55373">
        <ele>26</ele>
        <time>2019-10-17T13:29:35.000Z</time>
      </trkpt>
      <trkpt lat="47.31634" lon="-1.55377">
        <ele>26</ele>
        <time>2019-10-17T13:29:36.000Z</time>
      </trkpt>
      <trkpt lat="47.31636" lon="-1.55381">
        <ele>27</ele>
        <time>2019-10-17T13:29:37.000Z</time>
      </trkpt>
      <trkpt lat="47.31638" lon="-1.55385">
        <ele>27</ele>
        <time>2019-10-17T13:29:38.000Z</time>
      </trkpt>
      <trkpt lat="47.3164" lon="-1.55389">
        <ele>27</ele>
        <time>2019-10-17T13:29:39.000Z</time>
      </trkpt>
      <trkpt lat="47.31642" lon="-1.55394">
        <ele>27</ele>
        <time>2019-10-17T13:29:40.000Z</time>
      </trkpt>
      <trkpt lat="47.31644" lon="-1.55398">
        <ele>27</ele>
        <time>2019-10-17T13:29:41.000Z</time>
      </trkpt>
      <trkpt lat="47.31646" lon="-1.55402">
        <ele>27</ele>
        <time>2019-10-17T13:29:42.000Z</time>
      </trkpt>
      <trkpt lat="47.31648" lon="-1.55406">
        <ele>27</ele>
        <time>2019-10-17T13:29:43.000Z</time>
      </trkpt>
      <trkpt lat="47.3165" lon="-1.55411">
        <ele>28</ele>
        <time>2019-10-17T13:29:44.000Z</time>
      </trkpt>
      <trkpt lat="47.31653" lon="-1.55415">
        <ele>28</ele>
        <time>2019-10-17T13:29:45.000Z</time>
      </trkpt>
      <trkpt lat="47.31655" lon="-1.55419">
        <ele>28</ele>
        <time>2019-10-17T13:29:46.000Z</time>
      </trkpt>
      <trkpt lat="47.31659" lon="-1.55422">
        <ele>28</ele>
        <time>2019-10-17T13:29:47.000Z</time>
      </trkpt>
      <trkpt lat="47.31663" lon="-1.55423">
        <ele>28</ele>
        <time>2019-10-17T13:29:48.000Z</time>
      </trkpt>
      <trkpt lat="47.31667" lon="-1.55424">
        <ele>28</ele>
        <time>2019-10-17T13:29:49.000Z</time>
      </trkpt>
      <trkpt lat="47.31671" lon="-1.55424">
        <ele>28</ele>
        <time>2019-10-17T13:29:50.000Z</time>
      </trkpt>
      <trkpt lat="47.31674" lon="-1.55424">
        <ele>28</ele>
        <time>2019-10-17T13:29:51.000Z</time>
      </trkpt>
      <trkpt lat="47.31678" lon="-1.55425">
        <ele>28</ele>
        <time>2019-10-17T13:29:52.000Z</time>
      </trkpt>
      <trkpt lat="47.31682" lon="-1.55427">
        <ele>29</ele>
        <time>2019-10-17T13:29:53.000Z</time>
      </trkpt>
      <trkpt lat="47.31686" lon="-1.55428">
        <ele>29</ele>
        <time>2019-10-17T13:29:54.000Z</time>
      </trkpt>
      <trkpt lat="47.31689" lon="-1.5543">
        <ele>29</ele>
        <time>2019-10-17T13:29:55.000Z</time>
      </trkpt>
      <trkpt lat="47.31693" lon="-1.55433">
        <ele>29</ele>
        <time>2019-10-17T13:29:56.000Z</time>
      </trkpt>
      <trkpt lat="47.31696" lon="-1.55437">
        <ele>29</ele>
        <time>2019-10-17T13:29:57.000Z</time>
      </trkpt>
      <trkpt lat="47.31699" lon="-1.55441">
        <ele>29</ele>
        <time>2019-10-17T13:29:58.000Z</time>
      </trkpt>
      <trkpt lat="47.31701" lon="-1.55446">
        <ele>29</ele>
        <time>2019-10-17T13:29:59.000Z</time>
      </trkpt>
      <trkpt lat="47.31704" lon="-1.5545">
        <ele>30</ele>
        <time>2019-10-17T13:30:00.000Z</time>
      </trkpt>
      <trkpt lat="47.31706" lon="-1.55455">
        <ele>30</ele>
        <time>2019-10-17T13:30:01.000Z</time>
      </trkpt>
      <trkpt lat="47.31708" lon="-1.55459">
        <ele>30</ele>
        <time>2019-10-17T13:30:02.000Z</time>
      </trkpt>
      <trkpt lat="47.31711" lon="-1.55464">
        <ele>30</ele>
        <time>2019-10-17T13:30:03.000Z</time>
      </trkpt>
      <trkpt lat="47.31713" lon="-1.55469">
        <ele>30</ele>
        <time>2019-10-17T13:30:04.000Z</time>
      </trkpt>
      <trkpt lat="47.31716" lon="-1.55474">
        <ele>30</ele>
        <time>2019-10-17T13:30:05.000Z</time>
      </trkpt>
      <trkpt lat="47.31719" lon="-1.55479">
        <ele>30</ele>
        <time>2019-10-17T13:30:06.000Z</time>
      </trkpt>
      <trkpt lat="47.31721" lon="-1.55484">
        <ele>30</ele>
        <time>2019-10-17T13:30:07.000Z</time>
      </trkpt>
      <trkpt lat="47.31724" lon="-1.55489">
        <ele>30</ele>
        <time>2019-10-17T13:30:08.000Z</time>
      </trkpt>
      <trkpt lat="47.31724" lon="-1.55489">
        <ele>30</ele>
        <time>2019-10-17T13:30:10.000Z</time>
      </trkpt>
      <trkpt lat="47.31724" lon="-1.55489">
        <ele>30</ele>
        <time>2019-10-17T13:30:12.000Z</time>
      </trkpt>
      <trkpt lat="47.31724" lon="-1.55489">
        <ele>30</ele>
        <time>2019-10-17T13:30:13.000Z</time>
      </trkpt>
      <trkpt lat="47.31745" lon="-1.55508">
        <ele>30</ele>
        <time>2019-10-17T13:30:14.000Z</time>
      </trkpt>
      <trkpt lat="47.3175" lon="-1.5551">
        <ele>30</ele>
        <time>2019-10-17T13:30:15.000Z</time>
      </trkpt>
      <trkpt lat="47.31755" lon="-1.55513">
        <ele>30</ele>
        <time>2019-10-17T13:30:16.000Z</time>
      </trkpt>
      <trkpt lat="47.31759" lon="-1.55516">
        <ele>30</ele>
        <time>2019-10-17T13:30:17.000Z</time>
      </trkpt>
      <trkpt lat="47.31763" lon="-1.55519">
        <ele>30</ele>
        <time>2019-10-17T13:30:18.000Z</time>
      </trkpt>
      <trkpt lat="47.31768" lon="-1.55522">
        <ele>30</ele>
        <time>2019-10-17T13:30:19.000Z</time>
      </trkpt>
      <trkpt lat="47.31772" lon="-1.55526">
        <ele>30</ele>
        <time>2019-10-17T13:30:20.000Z</time>
      </trkpt>
      <trkpt lat="47.31777" lon="-1.5553">
        <ele>30</ele>
        <time>2019-10-17T13:30:21.000Z</time>
      </trkpt>
      <trkpt lat="47.31782" lon="-1.55533">
        <ele>30</ele>
        <time>2019-10-17T13:30:22.000Z</time>
      </trkpt>
      <trkpt lat="47.31787" lon="-1.55537">
        <ele>30</ele>
        <time>2019-10-17T13:30:23.000Z</time>
      </trkpt>
      <trkpt lat="47.31787" lon="-1.55537">
        <ele>30</ele>
        <time>2019-10-17T13:30:25.000Z</time>
      </trkpt>
      <trkpt lat="47.31787" lon="-1.55537">
        <ele>30</ele>
        <time>2019-10-17T13:30:26.000Z</time>
      </trkpt>
      <trkpt lat="47.31806" lon="-1.55546">
        <ele>30</ele>
        <time>2019-10-17T13:30:27.000Z</time>
      </trkpt>
      <trkpt lat="47.3181" lon="-1.55548">
        <ele>30</ele>
        <time>2019-10-17T13:30:28.000Z</time>
      </trkpt>
      <trkpt lat="47.31815" lon="-1.5555">
        <ele>31</ele>
        <time>2019-10-17T13:30:29.000Z</time>
      </trkpt>
      <trkpt lat="47.3182" lon="-1.55552">
        <ele>31</ele>
        <time>2019-10-17T13:30:30.000Z</time>
      </trkpt>
      <trkpt lat="47.31825" lon="-1.55553">
        <ele>31</ele>
        <time>2019-10-17T13:30:31.000Z</time>
      </trkpt>
      <trkpt lat="47.31825" lon="-1.55553">
        <ele>32</ele>
        <time>2019-10-17T13:30:34.000Z</time>
      </trkpt>
      <trkpt lat="47.31825" lon="-1.55553">
        <ele>33</ele>
        <time>2019-10-17T13:30:35.000Z</time>
      </trkpt>
      <trkpt lat="47.31849" lon="-1.55557">
        <ele>33</ele>
        <time>2019-10-17T13:30:36.000Z</time>
      </trkpt>
      <trkpt lat="47.31854" lon="-1.55557">
        <ele>33</ele>
        <time>2019-10-17T13:30:37.000Z</time>
      </trkpt>
      <trkpt lat="47.3186" lon="-1.55557">
        <ele>34</ele>
        <time>2019-10-17T13:30:38.000Z</time>
      </trkpt>
      <trkpt lat="47.31865" lon="-1.55557">
        <ele>34</ele>
        <time>2019-10-17T13:30:39.000Z</time>
      </trkpt>
      <trkpt lat="47.31871" lon="-1.55557">
        <ele>34</ele>
        <time>2019-10-17T13:30:40.000Z</time>
      </trkpt>
      <trkpt lat="47.31877" lon="-1.55558">
        <ele>35</ele>
        <time>2019-10-17T13:30:41.000Z</time>
      </trkpt>
      <trkpt lat="47.31883" lon="-1.55558">
        <ele>35</ele>
        <time>2019-10-17T13:30:42.000Z</time>
      </trkpt>
      <trkpt lat="47.31889" lon="-1.55559">
        <ele>36</ele>
        <time>2019-10-17T13:30:43.000Z</time>
      </trkpt>
      <trkpt lat="47.31895" lon="-1.55559">
        <ele>37</ele>
        <time>2019-10-17T13:30:44.000Z</time>
      </trkpt>
      <trkpt lat="47.31895" lon="-1.55559">
        <ele>38</ele>
        <time>2019-10-17T13:30:46.000Z</time>
      </trkpt>
      <trkpt lat="47.31895" lon="-1.55559">
        <ele>39</ele>
        <time>2019-10-17T13:30:47.000Z</time>
      </trkpt>
      <trkpt lat="47.31917" lon="-1.55562">
        <ele>39</ele>
        <time>2019-10-17T13:30:48.000Z</time>
      </trkpt>
      <trkpt lat="47.31923" lon="-1.55563">
        <ele>39</ele>
        <time>2019-10-17T13:30:49.000Z</time>
      </trkpt>
      <trkpt lat="47.31929" lon="-1.55564">
        <ele>39</ele>
        <time>2019-10-17T13:30:50.000Z</time>
      </trkpt>
      <trkpt lat="47.31935" lon="-1.55564">
        <ele>39</ele>
        <time>2019-10-17T13:30:51.000Z</time>
      </trkpt>
      <trkpt lat="47.31942" lon="-1.55565">
        <ele>39</ele>
        <time>2019-10-17T13:30:52.000Z</time>
      </trkpt>
      <trkpt lat="47.31948" lon="-1.55566">
        <ele>39</ele>
        <time>2019-10-17T13:30:53.000Z</time>
      </trkpt>
      <trkpt lat="47.31954" lon="-1.55566">
        <ele>39</ele>
        <time>2019-10-17T13:30:54.000Z</time>
      </trkpt>
      <trkpt lat="47.3196" lon="-1.55567">
        <ele>39</ele>
        <time>2019-10-17T13:30:55.000Z</time>
      </trkpt>
      <trkpt lat="47.3196" lon="-1.55567">
        <ele>38</ele>
        <time>2019-10-17T13:30:57.000Z</time>
      </trkpt>
      <trkpt lat="47.3196" lon="-1.55567">
        <ele>38</ele>
        <time>2019-10-17T13:30:58.000Z</time>
      </trkpt>
      <trkpt lat="47.31983" lon="-1.55567">
        <ele>38</ele>
        <time>2019-10-17T13:30:59.000Z</time>
      </trkpt>
      <trkpt lat="47.31983" lon="-1.55567">
        <ele>38</ele>
        <time>2019-10-17T13:31:03.000Z</time>
      </trkpt>
      <trkpt lat="47.31983" lon="-1.55567">
        <ele>38</ele>
        <time>2019-10-17T13:31:04.000Z</time>
      </trkpt>
      <trkpt lat="47.3202" lon="-1.55566">
        <ele>38</ele>
        <time>2019-10-17T13:31:05.000Z</time>
      </trkpt>
      <trkpt lat="47.32026" lon="-1.55567">
        <ele>38</ele>
        <time>2019-10-17T13:31:06.000Z</time>
      </trkpt>
      <trkpt lat="47.32032" lon="-1.55568">
        <ele>37</ele>
        <time>2019-10-17T13:31:07.000Z</time>
      </trkpt>
      <trkpt lat="47.32039" lon="-1.5557">
        <ele>36</ele>
        <time>2019-10-17T13:31:08.000Z</time>
      </trkpt>
      <trkpt lat="47.32046" lon="-1.55572">
        <ele>36</ele>
        <time>2019-10-17T13:31:09.000Z</time>
      </trkpt>
      <trkpt lat="47.32053" lon="-1.55575">
        <ele>35</ele>
        <time>2019-10-17T13:31:10.000Z</time>
      </trkpt>
      <trkpt lat="47.32059" lon="-1.55577">
        <ele>35</ele>
        <time>2019-10-17T13:31:11.000Z</time>
      </trkpt>
      <trkpt lat="47.32066" lon="-1.55579">
        <ele>34</ele>
        <time>2019-10-17T13:31:12.000Z</time>
      </trkpt>
      <trkpt lat="47.32073" lon="-1.55582">
        <ele>34</ele>
        <time>2019-10-17T13:31:13.000Z</time>
      </trkpt>
      <trkpt lat="47.3208" lon="-1.55584">
        <ele>33</ele>
        <time>2019-10-17T13:31:14.000Z</time>
      </trkpt>
      <trkpt lat="47.32087" lon="-1.55586">
        <ele>33</ele>
        <time>2019-10-17T13:31:15.000Z</time>
      </trkpt>
      <trkpt lat="47.32095" lon="-1.55588">
        <ele>32</ele>
        <time>2019-10-17T13:31:16.000Z</time>
      </trkpt>
      <trkpt lat="47.32103" lon="-1.55591">
        <ele>31</ele>
        <time>2019-10-17T13:31:17.000Z</time>
      </trkpt>
      <trkpt lat="47.32111" lon="-1.55593">
        <ele>30</ele>
        <time>2019-10-17T13:31:18.000Z</time>
      </trkpt>
      <trkpt lat="47.32119" lon="-1.55595">
        <ele>29</ele>
        <time>2019-10-17T13:31:19.000Z</time>
      </trkpt>
      <trkpt lat="47.32127" lon="-1.55597">
        <ele>29</ele>
        <time>2019-10-17T13:31:20.000Z</time>
      </trkpt>
      <trkpt lat="47.32135" lon="-1.55599">
        <ele>27</ele>
        <time>2019-10-17T13:31:21.000Z</time>
      </trkpt>
      <trkpt lat="47.32144" lon="-1.556">
        <ele>26</ele>
        <time>2019-10-17T13:31:22.000Z</time>
      </trkpt>
      <trkpt lat="47.32152" lon="-1.55602">
        <ele>25</ele>
        <time>2019-10-17T13:31:23.000Z</time>
      </trkpt>
      <trkpt lat="47.32161" lon="-1.55604">
        <ele>24</ele>
        <time>2019-10-17T13:31:24.000Z</time>
      </trkpt>
      <trkpt lat="47.32169" lon="-1.55607">
        <ele>23</ele>
        <time>2019-10-17T13:31:25.000Z</time>
      </trkpt>
      <trkpt lat="47.32176" lon="-1.55608">
        <ele>21</ele>
        <time>2019-10-17T13:31:26.000Z</time>
      </trkpt>
      <trkpt lat="47.32184" lon="-1.55609">
        <ele>20</ele>
        <time>2019-10-17T13:31:27.000Z</time>
      </trkpt>
      <trkpt lat="47.32193" lon="-1.55608">
        <ele>18</ele>
        <time>2019-10-17T13:31:28.000Z</time>
      </trkpt>
      <trkpt lat="47.32193" lon="-1.55608">
        <ele>13</ele>
        <time>2019-10-17T13:31:31.000Z</time>
      </trkpt>
      <trkpt lat="47.32193" lon="-1.55608">
        <ele>11</ele>
        <time>2019-10-17T13:31:32.000Z</time>
      </trkpt>
      <trkpt lat="47.32232" lon="-1.55601">
        <ele>10</ele>
        <time>2019-10-17T13:31:33.000Z</time>
      </trkpt>
      <trkpt lat="47.32239" lon="-1.55599">
        <ele>9</ele>
        <time>2019-10-17T13:31:34.000Z</time>
      </trkpt>
      <trkpt lat="47.32245" lon="-1.55597">
        <ele>8</ele>
        <time>2019-10-17T13:31:35.000Z</time>
      </trkpt>
      <trkpt lat="47.32251" lon="-1.55598">
        <ele>7</ele>
        <time>2019-10-17T13:31:36.000Z</time>
      </trkpt>
      <trkpt lat="47.32255" lon="-1.55601">
        <ele>6</ele>
        <time>2019-10-17T13:31:37.000Z</time>
      </trkpt>
      <trkpt lat="47.32259" lon="-1.55607">
        <ele>5</ele>
        <time>2019-10-17T13:31:38.000Z</time>
      </trkpt>
      <trkpt lat="47.32262" lon="-1.55613">
        <ele>5</ele>
        <time>2019-10-17T13:31:39.000Z</time>
      </trkpt>
      <trkpt lat="47.32265" lon="-1.5562">
        <ele>5</ele>
        <time>2019-10-17T13:31:40.000Z</time>
      </trkpt>
      <trkpt lat="47.32268" lon="-1.55628">
        <ele>5</ele>
        <time>2019-10-17T13:31:41.000Z</time>
      </trkpt>
      <trkpt lat="47.32271" lon="-1.55635">
        <ele>6</ele>
        <time>2019-10-17T13:31:42.000Z</time>
      </trkpt>
      <trkpt lat="47.32274" lon="-1.55643">
        <ele>6</ele>
        <time>2019-10-17T13:31:43.000Z</time>
      </trkpt>
      <trkpt lat="47.32274" lon="-1.55643">
        <ele>7</ele>
        <time>2019-10-17T13:31:45.000Z</time>
      </trkpt>
      <trkpt lat="47.32274" lon="-1.55643">
        <ele>8</ele>
        <time>2019-10-17T13:31:49.000Z</time>
      </trkpt>
      <trkpt lat="47.32274" lon="-1.55643">
        <ele>9</ele>
        <time>2019-10-17T13:31:50.000Z</time>
      </trkpt>
      <trkpt lat="47.32305" lon="-1.55698">
        <ele>9</ele>
        <time>2019-10-17T13:31:51.000Z</time>
      </trkpt>
      <trkpt lat="47.3231" lon="-1.55705">
        <ele>9</ele>
        <time>2019-10-17T13:31:52.000Z</time>
      </trkpt>
      <trkpt lat="47.32315" lon="-1.55712">
        <ele>10</ele>
        <time>2019-10-17T13:31:53.000Z</time>
      </trkpt>
      <trkpt lat="47.32319" lon="-1.55721">
        <ele>10</ele>
        <time>2019-10-17T13:31:54.000Z</time>
      </trkpt>
      <trkpt lat="47.32319" lon="-1.55721">
        <ele>11</ele>
        <time>2019-10-17T13:31:57.000Z</time>
      </trkpt>
      <trkpt lat="47.32319" lon="-1.55721">
        <ele>12</ele>
        <time>2019-10-17T13:31:59.000Z</time>
      </trkpt>
      <trkpt lat="47.32319" lon="-1.55721">
        <ele>12</ele>
        <time>2019-10-17T13:32:00.000Z</time>
      </trkpt>
      <trkpt lat="47.32344" lon="-1.55784">
        <ele>13</ele>
        <time>2019-10-17T13:32:01.000Z</time>
      </trkpt>
      <trkpt lat="47.32348" lon="-1.55794">
        <ele>13</ele>
        <time>2019-10-17T13:32:02.000Z</time>
      </trkpt>
      <trkpt lat="47.32351" lon="-1.55804">
        <ele>13</ele>
        <time>2019-10-17T13:32:03.000Z</time>
      </trkpt>
      <trkpt lat="47.32353" lon="-1.55815">
        <ele>13</ele>
        <time>2019-10-17T13:32:04.000Z</time>
      </trkpt>
      <trkpt lat="47.32356" lon="-1.55825">
        <ele>14</ele>
        <time>2019-10-17T13:32:05.000Z</time>
      </trkpt>
      <trkpt lat="47.32359" lon="-1.55834">
        <ele>14</ele>
        <time>2019-10-17T13:32:06.000Z</time>
      </trkpt>
      <trkpt lat="47.32363" lon="-1.55844">
        <ele>14</ele>
        <time>2019-10-17T13:32:07.000Z</time>
      </trkpt>
      <trkpt lat="47.32365" lon="-1.55854">
        <ele>14</ele>
        <time>2019-10-17T13:32:08.000Z</time>
      </trkpt>
      <trkpt lat="47.32367" lon="-1.55862">
        <ele>15</ele>
        <time>2019-10-17T13:32:09.000Z</time>
      </trkpt>
      <trkpt lat="47.32368" lon="-1.55872">
        <ele>15</ele>
        <time>2019-10-17T13:32:10.000Z</time>
      </trkpt>
      <trkpt lat="47.32369" lon="-1.55881">
        <ele>15</ele>
        <time>2019-10-17T13:32:11.000Z</time>
      </trkpt>
      <trkpt lat="47.3237" lon="-1.55891">
        <ele>15</ele>
        <time>2019-10-17T13:32:12.000Z</time>
      </trkpt>
      <trkpt lat="47.3237" lon="-1.559">
        <ele>14</ele>
        <time>2019-10-17T13:32:13.000Z</time>
      </trkpt>
      <trkpt lat="47.3237" lon="-1.5591">
        <ele>14</ele>
        <time>2019-10-17T13:32:14.000Z</time>
      </trkpt>
      <trkpt lat="47.32371" lon="-1.55919">
        <ele>13</ele>
        <time>2019-10-17T13:32:15.000Z</time>
      </trkpt>
      <trkpt lat="47.32372" lon="-1.55929">
        <ele>12</ele>
        <time>2019-10-17T13:32:16.000Z</time>
      </trkpt>
      <trkpt lat="47.32372" lon="-1.55939">
        <ele>12</ele>
        <time>2019-10-17T13:32:17.000Z</time>
      </trkpt>
      <trkpt lat="47.32372" lon="-1.5595">
        <ele>11</ele>
        <time>2019-10-17T13:32:18.000Z</time>
      </trkpt>
      <trkpt lat="47.32371" lon="-1.5596">
        <ele>10</ele>
        <time>2019-10-17T13:32:19.000Z</time>
      </trkpt>
      <trkpt lat="47.32371" lon="-1.55971">
        <ele>10</ele>
        <time>2019-10-17T13:32:20.000Z</time>
      </trkpt>
      <trkpt lat="47.32371" lon="-1.55981">
        <ele>9</ele>
        <time>2019-10-17T13:32:21.000Z</time>
      </trkpt>
      <trkpt lat="47.3237" lon="-1.55993">
        <ele>9</ele>
        <time>2019-10-17T13:32:22.000Z</time>
      </trkpt>
      <trkpt lat="47.3237" lon="-1.56004">
        <ele>9</ele>
        <time>2019-10-17T13:32:23.000Z</time>
      </trkpt>
      <trkpt lat="47.32369" lon="-1.56016">
        <ele>9</ele>
        <time>2019-10-17T13:32:24.000Z</time>
      </trkpt>
      <trkpt lat="47.32369" lon="-1.56028">
        <ele>9</ele>
        <time>2019-10-17T13:32:25.000Z</time>
      </trkpt>
      <trkpt lat="47.32369" lon="-1.56039">
        <ele>9</ele>
        <time>2019-10-17T13:32:26.000Z</time>
      </trkpt>
      <trkpt lat="47.32368" lon="-1.56049">
        <ele>9</ele>
        <time>2019-10-17T13:32:27.000Z</time>
      </trkpt>
      <trkpt lat="47.32368" lon="-1.5606">
        <ele>9</ele>
        <time>2019-10-17T13:32:28.000Z</time>
      </trkpt>
      <trkpt lat="47.32368" lon="-1.5606">
        <ele>8</ele>
        <time>2019-10-17T13:32:31.000Z</time>
      </trkpt>
      <trkpt lat="47.32368" lon="-1.5606">
        <ele>8</ele>
        <time>2019-10-17T13:32:32.000Z</time>
      </trkpt>
      <trkpt lat="47.32366" lon="-1.5611">
        <ele>8</ele>
        <time>2019-10-17T13:32:33.000Z</time>
      </trkpt>
      <trkpt lat="47.32366" lon="-1.56119">
        <ele>7</ele>
        <time>2019-10-17T13:32:34.000Z</time>
      </trkpt>
      <trkpt lat="47.32365" lon="-1.56128">
        <ele>7</ele>
        <time>2019-10-17T13:32:35.000Z</time>
      </trkpt>
      <trkpt lat="47.32365" lon="-1.56137">
        <ele>7</ele>
        <time>2019-10-17T13:32:36.000Z</time>
      </trkpt>
      <trkpt lat="47.32364" lon="-1.56146">
        <ele>7</ele>
        <time>2019-10-17T13:32:37.000Z</time>
      </trkpt>
      <trkpt lat="47.32363" lon="-1.56155">
        <ele>6</ele>
        <time>2019-10-17T13:32:38.000Z</time>
      </trkpt>
      <trkpt lat="47.32363" lon="-1.56165">
        <ele>6</ele>
        <time>2019-10-17T13:32:39.000Z</time>
      </trkpt>
      <trkpt lat="47.32363" lon="-1.56174">
        <ele>6</ele>
        <time>2019-10-17T13:32:40.000Z</time>
      </trkpt>
      <trkpt lat="47.32362" lon="-1.56183">
        <ele>6</ele>
        <time>2019-10-17T13:32:41.000Z</time>
      </trkpt>
      <trkpt lat="47.3236" lon="-1.56193">
        <ele>6</ele>
        <time>2019-10-17T13:32:42.000Z</time>
      </trkpt>
      <trkpt lat="47.32357" lon="-1.56201">
        <ele>6</ele>
        <time>2019-10-17T13:32:43.000Z</time>
      </trkpt>
      <trkpt lat="47.32354" lon="-1.5621">
        <ele>6</ele>
        <time>2019-10-17T13:32:44.000Z</time>
      </trkpt>
      <trkpt lat="47.32351" lon="-1.56218">
        <ele>6</ele>
        <time>2019-10-17T13:32:45.000Z</time>
      </trkpt>
      <trkpt lat="47.32346" lon="-1.56224">
        <ele>6</ele>
        <time>2019-10-17T13:32:46.000Z</time>
      </trkpt>
      <trkpt lat="47.32341" lon="-1.5623">
        <ele>7</ele>
        <time>2019-10-17T13:32:47.000Z</time>
      </trkpt>
      <trkpt lat="47.32337" lon="-1.56235">
        <ele>7</ele>
        <time>2019-10-17T13:32:48.000Z</time>
      </trkpt>
      <trkpt lat="47.32331" lon="-1.56239">
        <ele>7</ele>
        <time>2019-10-17T13:32:49.000Z</time>
      </trkpt>
      <trkpt lat="47.32326" lon="-1.56243">
        <ele>7</ele>
        <time>2019-10-17T13:32:50.000Z</time>
      </trkpt>
      <trkpt lat="47.32321" lon="-1.56247">
        <ele>8</ele>
        <time>2019-10-17T13:32:51.000Z</time>
      </trkpt>
      <trkpt lat="47.32315" lon="-1.5625">
        <ele>8</ele>
        <time>2019-10-17T13:32:52.000Z</time>
      </trkpt>
      <trkpt lat="47.3231" lon="-1.56252">
        <ele>9</ele>
        <time>2019-10-17T13:32:53.000Z</time>
      </trkpt>
      <trkpt lat="47.32304" lon="-1.56252">
        <ele>9</ele>
        <time>2019-10-17T13:32:54.000Z</time>
      </trkpt>
      <trkpt lat="47.32298" lon="-1.56253">
        <ele>10</ele>
        <time>2019-10-17T13:32:55.000Z</time>
      </trkpt>
      <trkpt lat="47.32293" lon="-1.56254">
        <ele>11</ele>
        <time>2019-10-17T13:32:56.000Z</time>
      </trkpt>
      <trkpt lat="47.32288" lon="-1.56256">
        <ele>11</ele>
        <time>2019-10-17T13:32:57.000Z</time>
      </trkpt>
      <trkpt lat="47.32282" lon="-1.56258">
        <ele>12</ele>
        <time>2019-10-17T13:32:58.000Z</time>
      </trkpt>
      <trkpt lat="47.32277" lon="-1.5626">
        <ele>13</ele>
        <time>2019-10-17T13:32:59.000Z</time>
      </trkpt>
      <trkpt lat="47.32271" lon="-1.56263">
        <ele>14</ele>
        <time>2019-10-17T13:33:00.000Z</time>
      </trkpt>
      <trkpt lat="47.32266" lon="-1.56266">
        <ele>15</ele>
        <time>2019-10-17T13:33:01.000Z</time>
      </trkpt>
      <trkpt lat="47.32261" lon="-1.5627">
        <ele>16</ele>
        <time>2019-10-17T13:33:02.000Z</time>
      </trkpt>
      <trkpt lat="47.32256" lon="-1.56274">
        <ele>16</ele>
        <time>2019-10-17T13:33:03.000Z</time>
      </trkpt>
      <trkpt lat="47.32252" lon="-1.56277">
        <ele>16</ele>
        <time>2019-10-17T13:33:04.000Z</time>
      </trkpt>
      <trkpt lat="47.32246" lon="-1.56279">
        <ele>16</ele>
        <time>2019-10-17T13:33:05.000Z</time>
      </trkpt>
      <trkpt lat="47.32242" lon="-1.56281">
        <ele>16</ele>
        <time>2019-10-17T13:33:06.000Z</time>
      </trkpt>
      <trkpt lat="47.32237" lon="-1.56284">
        <ele>16</ele>
        <time>2019-10-17T13:33:07.000Z</time>
      </trkpt>
      <trkpt lat="47.32232" lon="-1.56285">
        <ele>16</ele>
        <time>2019-10-17T13:33:08.000Z</time>
      </trkpt>
      <trkpt lat="47.32227" lon="-1.56287">
        <ele>16</ele>
        <time>2019-10-17T13:33:09.000Z</time>
      </trkpt>
      <trkpt lat="47.32223" lon="-1.56287">
        <ele>15</ele>
        <time>2019-10-17T13:33:10.000Z</time>
      </trkpt>
      <trkpt lat="47.32218" lon="-1.56288">
        <ele>15</ele>
        <time>2019-10-17T13:33:11.000Z</time>
      </trkpt>
      <trkpt lat="47.32213" lon="-1.56289">
        <ele>15</ele>
        <time>2019-10-17T13:33:12.000Z</time>
      </trkpt>
      <trkpt lat="47.32209" lon="-1.56292">
        <ele>15</ele>
        <time>2019-10-17T13:33:13.000Z</time>
      </trkpt>
      <trkpt lat="47.32204" lon="-1.56295">
        <ele>15</ele>
        <time>2019-10-17T13:33:14.000Z</time>
      </trkpt>
      <trkpt lat="47.32199" lon="-1.56296">
        <ele>15</ele>
        <time>2019-10-17T13:33:15.000Z</time>
      </trkpt>
      <trkpt lat="47.32194" lon="-1.56296">
        <ele>15</ele>
        <time>2019-10-17T13:33:16.000Z</time>
      </trkpt>
      <trkpt lat="47.32189" lon="-1.56297">
        <ele>15</ele>
        <time>2019-10-17T13:33:17.000Z</time>
      </trkpt>
      <trkpt lat="47.32183" lon="-1.56297">
        <ele>15</ele>
        <time>2019-10-17T13:33:18.000Z</time>
      </trkpt>
      <trkpt lat="47.32178" lon="-1.56297">
        <ele>15</ele>
        <time>2019-10-17T13:33:19.000Z</time>
      </trkpt>
      <trkpt lat="47.32173" lon="-1.56297">
        <ele>16</ele>
        <time>2019-10-17T13:33:20.000Z</time>
      </trkpt>
      <trkpt lat="47.32168" lon="-1.56297">
        <ele>16</ele>
        <time>2019-10-17T13:33:21.000Z</time>
      </trkpt>
      <trkpt lat="47.32162" lon="-1.56297">
        <ele>16</ele>
        <time>2019-10-17T13:33:22.000Z</time>
      </trkpt>
      <trkpt lat="47.32157" lon="-1.56297">
        <ele>16</ele>
        <time>2019-10-17T13:33:23.000Z</time>
      </trkpt>
      <trkpt lat="47.32152" lon="-1.56298">
        <ele>16</ele>
        <time>2019-10-17T13:33:24.000Z</time>
      </trkpt>
      <trkpt lat="47.32147" lon="-1.56298">
        <ele>16</ele>
        <time>2019-10-17T13:33:25.000Z</time>
      </trkpt>
      <trkpt lat="47.32142" lon="-1.56298">
        <ele>16</ele>
        <time>2019-10-17T13:33:26.000Z</time>
      </trkpt>
      <trkpt lat="47.32137" lon="-1.56297">
        <ele>16</ele>
        <time>2019-10-17T13:33:27.000Z</time>
      </trkpt>
      <trkpt lat="47.32131" lon="-1.56297">
        <ele>16</ele>
        <time>2019-10-17T13:33:28.000Z</time>
      </trkpt>
      <trkpt lat="47.32126" lon="-1.56297">
        <ele>16</ele>
        <time>2019-10-17T13:33:29.000Z</time>
      </trkpt>
      <trkpt lat="47.32121" lon="-1.56297">
        <ele>16</ele>
        <time>2019-10-17T13:33:30.000Z</time>
      </trkpt>
      <trkpt lat="47.32116" lon="-1.56297">
        <ele>16</ele>
        <time>2019-10-17T13:33:31.000Z</time>
      </trkpt>
      <trkpt lat="47.32111" lon="-1.56297">
        <ele>16</ele>
        <time>2019-10-17T13:33:32.000Z</time>
      </trkpt>
      <trkpt lat="47.32106" lon="-1.56297">
        <ele>16</ele>
        <time>2019-10-17T13:33:33.000Z</time>
      </trkpt>
      <trkpt lat="47.32101" lon="-1.56297">
        <ele>16</ele>
        <time>2019-10-17T13:33:34.000Z</time>
      </trkpt>
      <trkpt lat="47.32097" lon="-1.56298">
        <ele>16</ele>
        <time>2019-10-17T13:33:35.000Z</time>
      </trkpt>
      <trkpt lat="47.32092" lon="-1.56298">
        <ele>16</ele>
        <time>2019-10-17T13:33:36.000Z</time>
      </trkpt>
      <trkpt lat="47.32088" lon="-1.56298">
        <ele>17</ele>
        <time>2019-10-17T13:33:37.000Z</time>
      </trkpt>
      <trkpt lat="47.32083" lon="-1.56298">
        <ele>17</ele>
        <time>2019-10-17T13:33:38.000Z</time>
      </trkpt>
      <trkpt lat="47.32079" lon="-1.56299">
        <ele>17</ele>
        <time>2019-10-17T13:33:39.000Z</time>
      </trkpt>
      <trkpt lat="47.32074" lon="-1.56299">
        <ele>17</ele>
        <time>2019-10-17T13:33:40.000Z</time>
      </trkpt>
      <trkpt lat="47.3207" lon="-1.56299">
        <ele>17</ele>
        <time>2019-10-17T13:33:41.000Z</time>
      </trkpt>
      <trkpt lat="47.32065" lon="-1.563">
        <ele>17</ele>
        <time>2019-10-17T13:33:42.000Z</time>
      </trkpt>
      <trkpt lat="47.32061" lon="-1.563">
        <ele>17</ele>
        <time>2019-10-17T13:33:43.000Z</time>
      </trkpt>
      <trkpt lat="47.32056" lon="-1.56301">
        <ele>17</ele>
        <time>2019-10-17T13:33:44.000Z</time>
      </trkpt>
      <trkpt lat="47.32052" lon="-1.56301">
        <ele>17</ele>
        <time>2019-10-17T13:33:45.000Z</time>
      </trkpt>
      <trkpt lat="47.32048" lon="-1.56302">
        <ele>17</ele>
        <time>2019-10-17T13:33:46.000Z</time>
      </trkpt>
      <trkpt lat="47.32043" lon="-1.56303">
        <ele>17</ele>
        <time>2019-10-17T13:33:47.000Z</time>
      </trkpt>
      <trkpt lat="47.32039" lon="-1.56304">
        <ele>17</ele>
        <time>2019-10-17T13:33:48.000Z</time>
      </trkpt>
      <trkpt lat="47.32035" lon="-1.56305">
        <ele>17</ele>
        <time>2019-10-17T13:33:49.000Z</time>
      </trkpt>
      <trkpt lat="47.3203" lon="-1.56306">
        <ele>17</ele>
        <time>2019-10-17T13:33:50.000Z</time>
      </trkpt>
      <trkpt lat="47.32026" lon="-1.56308">
        <ele>17</ele>
        <time>2019-10-17T13:33:51.000Z</time>
      </trkpt>
      <trkpt lat="47.32021" lon="-1.56309">
        <ele>17</ele>
        <time>2019-10-17T13:33:52.000Z</time>
      </trkpt>
      <trkpt lat="47.32017" lon="-1.5631">
        <ele>17</ele>
        <time>2019-10-17T13:33:53.000Z</time>
      </trkpt>
      <trkpt lat="47.32012" lon="-1.56311">
        <ele>17</ele>
        <time>2019-10-17T13:33:54.000Z</time>
      </trkpt>
      <trkpt lat="47.32008" lon="-1.56313">
        <ele>17</ele>
        <time>2019-10-17T13:33:55.000Z</time>
      </trkpt>
      <trkpt lat="47.32003" lon="-1.56315">
        <ele>17</ele>
        <time>2019-10-17T13:33:56.000Z</time>
      </trkpt>
      <trkpt lat="47.31998" lon="-1.56317">
        <ele>17</ele>
        <time>2019-10-17T13:33:57.000Z</time>
      </trkpt>
      <trkpt lat="47.31994" lon="-1.56319">
        <ele>16</ele>
        <time>2019-10-17T13:33:58.000Z</time>
      </trkpt>
      <trkpt lat="47.31989" lon="-1.5632">
        <ele>16</ele>
        <time>2019-10-17T13:33:59.000Z</time>
      </trkpt>
      <trkpt lat="47.31984" lon="-1.56322">
        <ele>16</ele>
        <time>2019-10-17T13:34:00.000Z</time>
      </trkpt>
      <trkpt lat="47.31979" lon="-1.56324">
        <ele>16</ele>
        <time>2019-10-17T13:34:01.000Z</time>
      </trkpt>
      <trkpt lat="47.31975" lon="-1.56326">
        <ele>16</ele>
        <time>2019-10-17T13:34:02.000Z</time>
      </trkpt>
      <trkpt lat="47.3197" lon="-1.56327">
        <ele>16</ele>
        <time>2019-10-17T13:34:03.000Z</time>
      </trkpt>
      <trkpt lat="47.31965" lon="-1.56328">
        <ele>16</ele>
        <time>2019-10-17T13:34:04.000Z</time>
      </trkpt>
      <trkpt lat="47.3196" lon="-1.5633">
        <ele>15</ele>
        <time>2019-10-17T13:34:05.000Z</time>
      </trkpt>
      <trkpt lat="47.31955" lon="-1.56332">
        <ele>15</ele>
        <time>2019-10-17T13:34:06.000Z</time>
      </trkpt>
      <trkpt lat="47.3195" lon="-1.56334">
        <ele>15</ele>
        <time>2019-10-17T13:34:07.000Z</time>
      </trkpt>
      <trkpt lat="47.31945" lon="-1.56336">
        <ele>15</ele>
        <time>2019-10-17T13:34:08.000Z</time>
      </trkpt>
      <trkpt lat="47.3194" lon="-1.56338">
        <ele>15</ele>
        <time>2019-10-17T13:34:09.000Z</time>
      </trkpt>
      <trkpt lat="47.31935" lon="-1.56339">
        <ele>15</ele>
        <time>2019-10-17T13:34:10.000Z</time>
      </trkpt>
      <trkpt lat="47.3193" lon="-1.56341">
        <ele>15</ele>
        <time>2019-10-17T13:34:11.000Z</time>
      </trkpt>
      <trkpt lat="47.31925" lon="-1.56341">
        <ele>16</ele>
        <time>2019-10-17T13:34:12.000Z</time>
      </trkpt>
      <trkpt lat="47.31919" lon="-1.56342">
        <ele>16</ele>
        <time>2019-10-17T13:34:13.000Z</time>
      </trkpt>
      <trkpt lat="47.31914" lon="-1.56343">
        <ele>16</ele>
        <time>2019-10-17T13:34:14.000Z</time>
      </trkpt>
      <trkpt lat="47.31909" lon="-1.56343">
        <ele>16</ele>
        <time>2019-10-17T13:34:15.000Z</time>
      </trkpt>
      <trkpt lat="47.31909" lon="-1.56343">
        <ele>16</ele>
        <time>2019-10-17T13:34:17.000Z</time>
      </trkpt>
      <trkpt lat="47.31909" lon="-1.56343">
        <ele>16</ele>
        <time>2019-10-17T13:34:18.000Z</time>
      </trkpt>
      <trkpt lat="47.31887" lon="-1.56344">
        <ele>16</ele>
        <time>2019-10-17T13:34:19.000Z</time>
      </trkpt>
      <trkpt lat="47.31881" lon="-1.56344">
        <ele>17</ele>
        <time>2019-10-17T13:34:20.000Z</time>
      </trkpt>
      <trkpt lat="47.31875" lon="-1.56343">
        <ele>17</ele>
        <time>2019-10-17T13:34:21.000Z</time>
      </trkpt>
      <trkpt lat="47.31869" lon="-1.56342">
        <ele>17</ele>
        <time>2019-10-17T13:34:22.000Z</time>
      </trkpt>
      <trkpt lat="47.31862" lon="-1.56342">
        <ele>18</ele>
        <time>2019-10-17T13:34:23.000Z</time>
      </trkpt>
      <trkpt lat="47.31855" lon="-1.56342">
        <ele>18</ele>
        <time>2019-10-17T13:34:24.000Z</time>
      </trkpt>
      <trkpt lat="47.31849" lon="-1.56342">
        <ele>19</ele>
        <time>2019-10-17T13:34:25.000Z</time>
      </trkpt>
      <trkpt lat="47.31842" lon="-1.56341">
        <ele>20</ele>
        <time>2019-10-17T13:34:26.000Z</time>
      </trkpt>
      <trkpt lat="47.31835" lon="-1.56341">
        <ele>21</ele>
        <time>2019-10-17T13:34:27.000Z</time>
      </trkpt>
      <trkpt lat="47.31827" lon="-1.5634">
        <ele>22</ele>
        <time>2019-10-17T13:34:28.000Z</time>
      </trkpt>
      <trkpt lat="47.31819" lon="-1.5634">
        <ele>24</ele>
        <time>2019-10-17T13:34:29.000Z</time>
      </trkpt>
      <trkpt lat="47.3181" lon="-1.56339">
        <ele>25</ele>
        <time>2019-10-17T13:34:30.000Z</time>
      </trkpt>
      <trkpt lat="47.318" lon="-1.56337">
        <ele>27</ele>
        <time>2019-10-17T13:34:31.000Z</time>
      </trkpt>
      <trkpt lat="47.3179" lon="-1.56335">
        <ele>29</ele>
        <time>2019-10-17T13:34:32.000Z</time>
      </trkpt>
      <trkpt lat="47.31779" lon="-1.56333">
        <ele>31</ele>
        <time>2019-10-17T13:34:33.000Z</time>
      </trkpt>
      <trkpt lat="47.31768" lon="-1.56331">
        <ele>34</ele>
        <time>2019-10-17T13:34:34.000Z</time>
      </trkpt>
      <trkpt lat="47.31758" lon="-1.5633">
        <ele>36</ele>
        <time>2019-10-17T13:34:35.000Z</time>
      </trkpt>
      <trkpt lat="47.31749" lon="-1.5633">
        <ele>39</ele>
        <time>2019-10-17T13:34:36.000Z</time>
      </trkpt>
      <trkpt lat="47.31741" lon="-1.5633">
        <ele>41</ele>
        <time>2019-10-17T13:34:37.000Z</time>
      </trkpt>
      <trkpt lat="47.31733" lon="-1.56331">
        <ele>43</ele>
        <time>2019-10-17T13:34:38.000Z</time>
      </trkpt>
      <trkpt lat="47.31726" lon="-1.56332">
        <ele>45</ele>
        <time>2019-10-17T13:34:39.000Z</time>
      </trkpt>
      <trkpt lat="47.3172" lon="-1.56333">
        <ele>46</ele>
        <time>2019-10-17T13:34:40.000Z</time>
      </trkpt>
      <trkpt lat="47.31713" lon="-1.56333">
        <ele>47</ele>
        <time>2019-10-17T13:34:41.000Z</time>
      </trkpt>
      <trkpt lat="47.31707" lon="-1.56333">
        <ele>48</ele>
        <time>2019-10-17T13:34:42.000Z</time>
      </trkpt>
      <trkpt lat="47.31701" lon="-1.56333">
        <ele>49</ele>
        <time>2019-10-17T13:34:43.000Z</time>
      </trkpt>
      <trkpt lat="47.31696" lon="-1.56333">
        <ele>50</ele>
        <time>2019-10-17T13:34:44.000Z</time>
      </trkpt>
      <trkpt lat="47.3169" lon="-1.56332">
        <ele>51</ele>
        <time>2019-10-17T13:34:45.000Z</time>
      </trkpt>
      <trkpt lat="47.31685" lon="-1.56332">
        <ele>52</ele>
        <time>2019-10-17T13:34:46.000Z</time>
      </trkpt>
      <trkpt lat="47.3168" lon="-1.56332">
        <ele>53</ele>
        <time>2019-10-17T13:34:47.000Z</time>
      </trkpt>
      <trkpt lat="47.31675" lon="-1.56333">
        <ele>54</ele>
        <time>2019-10-17T13:34:48.000Z</time>
      </trkpt>
      <trkpt lat="47.3167" lon="-1.56333">
        <ele>54</ele>
        <time>2019-10-17T13:34:49.000Z</time>
      </trkpt>
      <trkpt lat="47.31666" lon="-1.56334">
        <ele>55</ele>
        <time>2019-10-17T13:34:50.000Z</time>
      </trkpt>
      <trkpt lat="47.31662" lon="-1.56334">
        <ele>55</ele>
        <time>2019-10-17T13:34:51.000Z</time>
      </trkpt>
      <trkpt lat="47.31658" lon="-1.56334">
        <ele>54</ele>
        <time>2019-10-17T13:34:52.000Z</time>
      </trkpt>
      <trkpt lat="47.31655" lon="-1.56334">
        <ele>54</ele>
        <time>2019-10-17T13:34:53.000Z</time>
      </trkpt>
      <trkpt lat="47.31652" lon="-1.56334">
        <ele>53</ele>
        <time>2019-10-17T13:34:54.000Z</time>
      </trkpt>
      <trkpt lat="47.3165" lon="-1.56335">
        <ele>52</ele>
        <time>2019-10-17T13:34:55.000Z</time>
      </trkpt>
      <trkpt lat="47.31648" lon="-1.56335">
        <ele>51</ele>
        <time>2019-10-17T13:34:56.000Z</time>
      </trkpt>
      <trkpt lat="47.31645" lon="-1.56336">
        <ele>50</ele>
        <time>2019-10-17T13:34:57.000Z</time>
      </trkpt>
      <trkpt lat="47.31642" lon="-1.56337">
        <ele>49</ele>
        <time>2019-10-17T13:34:58.000Z</time>
      </trkpt>
      <trkpt lat="47.31639" lon="-1.56338">
        <ele>48</ele>
        <time>2019-10-17T13:34:59.000Z</time>
      </trkpt>
      <trkpt lat="47.31636" lon="-1.56339">
        <ele>47</ele>
        <time>2019-10-17T13:35:00.000Z</time>
      </trkpt>
      <trkpt lat="47.31633" lon="-1.5634">
        <ele>46</ele>
        <time>2019-10-17T13:35:01.000Z</time>
      </trkpt>
      <trkpt lat="47.3163" lon="-1.56341">
        <ele>45</ele>
        <time>2019-10-17T13:35:02.000Z</time>
      </trkpt>
      <trkpt lat="47.31628" lon="-1.56342">
        <ele>44</ele>
        <time>2019-10-17T13:35:03.000Z</time>
      </trkpt>
      <trkpt lat="47.31626" lon="-1.56343">
        <ele>43</ele>
        <time>2019-10-17T13:35:04.000Z</time>
      </trkpt>
      <trkpt lat="47.31623" lon="-1.56344">
        <ele>42</ele>
        <time>2019-10-17T13:35:05.000Z</time>
      </trkpt>
      <trkpt lat="47.31621" lon="-1.56345">
        <ele>41</ele>
        <time>2019-10-17T13:35:06.000Z</time>
      </trkpt>
      <trkpt lat="47.31618" lon="-1.56345">
        <ele>40</ele>
        <time>2019-10-17T13:35:07.000Z</time>
      </trkpt>
      <trkpt lat="47.31616" lon="-1.56345">
        <ele>39</ele>
        <time>2019-10-17T13:35:08.000Z</time>
      </trkpt>
      <trkpt lat="47.31614" lon="-1.56345">
        <ele>38</ele>
        <time>2019-10-17T13:35:09.000Z</time>
      </trkpt>
      <trkpt lat="47.31612" lon="-1.56345">
        <ele>37</ele>
        <time>2019-10-17T13:35:10.000Z</time>
      </trkpt>
      <trkpt lat="47.3161" lon="-1.56346">
        <ele>35</ele>
        <time>2019-10-17T13:35:11.000Z</time>
      </trkpt>
      <trkpt lat="47.31607" lon="-1.56347">
        <ele>34</ele>
        <time>2019-10-17T13:35:12.000Z</time>
      </trkpt>
      <trkpt lat="47.31604" lon="-1.56347">
        <ele>34</ele>
        <time>2019-10-17T13:35:13.000Z</time>
      </trkpt>
      <trkpt lat="47.31601" lon="-1.56347">
        <ele>33</ele>
        <time>2019-10-17T13:35:14.000Z</time>
      </trkpt>
      <trkpt lat="47.31598" lon="-1.56346">
        <ele>32</ele>
        <time>2019-10-17T13:35:15.000Z</time>
      </trkpt>
      <trkpt lat="47.31595" lon="-1.56346">
        <ele>31</ele>
        <time>2019-10-17T13:35:16.000Z</time>
      </trkpt>
      <trkpt lat="47.31592" lon="-1.56345">
        <ele>31</ele>
        <time>2019-10-17T13:35:17.000Z</time>
      </trkpt>
      <trkpt lat="47.31589" lon="-1.56344">
        <ele>30</ele>
        <time>2019-10-17T13:35:18.000Z</time>
      </trkpt>
      <trkpt lat="47.31586" lon="-1.56343">
        <ele>29</ele>
        <time>2019-10-17T13:35:19.000Z</time>
      </trkpt>
      <trkpt lat="47.31584" lon="-1.56342">
        <ele>29</ele>
        <time>2019-10-17T13:35:20.000Z</time>
      </trkpt>
      <trkpt lat="47.31581" lon="-1.56341">
        <ele>28</ele>
        <time>2019-10-17T13:35:21.000Z</time>
      </trkpt>
      <trkpt lat="47.31578" lon="-1.5634">
        <ele>28</ele>
        <time>2019-10-17T13:35:22.000Z</time>
      </trkpt>
      <trkpt lat="47.31576" lon="-1.5634">
        <ele>27</ele>
        <time>2019-10-17T13:35:23.000Z</time>
      </trkpt>
      <trkpt lat="47.31575" lon="-1.56338">
        <ele>27</ele>
        <time>2019-10-17T13:35:24.000Z</time>
      </trkpt>
      <trkpt lat="47.31572" lon="-1.56335">
        <ele>27</ele>
        <time>2019-10-17T13:35:25.000Z</time>
      </trkpt>
      <trkpt lat="47.3157" lon="-1.56334">
        <ele>26</ele>
        <time>2019-10-17T13:35:26.000Z</time>
      </trkpt>
      <trkpt lat="47.31567" lon="-1.56332">
        <ele>26</ele>
        <time>2019-10-17T13:35:27.000Z</time>
      </trkpt>
      <trkpt lat="47.31564" lon="-1.56331">
        <ele>26</ele>
        <time>2019-10-17T13:35:28.000Z</time>
      </trkpt>
      <trkpt lat="47.3156" lon="-1.5633">
        <ele>26</ele>
        <time>2019-10-17T13:35:29.000Z</time>
      </trkpt>
      <trkpt lat="47.31557" lon="-1.56329">
        <ele>26</ele>
        <time>2019-10-17T13:35:30.000Z</time>
      </trkpt>
      <trkpt lat="47.31554" lon="-1.56328">
        <ele>25</ele>
        <time>2019-10-17T13:35:31.000Z</time>
      </trkpt>
      <trkpt lat="47.31551" lon="-1.56327">
        <ele>25</ele>
        <time>2019-10-17T13:35:32.000Z</time>
      </trkpt>
      <trkpt lat="47.31547" lon="-1.56325">
        <ele>25</ele>
        <time>2019-10-17T13:35:33.000Z</time>
      </trkpt>
      <trkpt lat="47.31544" lon="-1.56323">
        <ele>25</ele>
        <time>2019-10-17T13:35:34.000Z</time>
      </trkpt>
      <trkpt lat="47.3154" lon="-1.5632">
        <ele>24</ele>
        <time>2019-10-17T13:35:35.000Z</time>
      </trkpt>
      <trkpt lat="47.31535" lon="-1.56318">
        <ele>24</ele>
        <time>2019-10-17T13:35:36.000Z</time>
      </trkpt>
      <trkpt lat="47.31532" lon="-1.56317">
        <ele>24</ele>
        <time>2019-10-17T13:35:37.000Z</time>
      </trkpt>
      <trkpt lat="47.31528" lon="-1.56315">
        <ele>24</ele>
        <time>2019-10-17T13:35:38.000Z</time>
      </trkpt>
      <trkpt lat="47.31524" lon="-1.56312">
        <ele>24</ele>
        <time>2019-10-17T13:35:39.000Z</time>
      </trkpt>
      <trkpt lat="47.3152" lon="-1.5631">
        <ele>24</ele>
        <time>2019-10-17T13:35:40.000Z</time>
      </trkpt>
      <trkpt lat="47.31516" lon="-1.56308">
        <ele>24</ele>
        <time>2019-10-17T13:35:41.000Z</time>
      </trkpt>
      <trkpt lat="47.31511" lon="-1.56307">
        <ele>24</ele>
        <time>2019-10-17T13:35:42.000Z</time>
      </trkpt>
      <trkpt lat="47.31507" lon="-1.56305">
        <ele>23</ele>
        <time>2019-10-17T13:35:43.000Z</time>
      </trkpt>
      <trkpt lat="47.31503" lon="-1.56302">
        <ele>23</ele>
        <time>2019-10-17T13:35:44.000Z</time>
      </trkpt>
      <trkpt lat="47.31499" lon="-1.56301">
        <ele>23</ele>
        <time>2019-10-17T13:35:45.000Z</time>
      </trkpt>
      <trkpt lat="47.31494" lon="-1.563">
        <ele>23</ele>
        <time>2019-10-17T13:35:46.000Z</time>
      </trkpt>
      <trkpt lat="47.31489" lon="-1.56299">
        <ele>23</ele>
        <time>2019-10-17T13:35:47.000Z</time>
      </trkpt>
      <trkpt lat="47.31485" lon="-1.56298">
        <ele>24</ele>
        <time>2019-10-17T13:35:48.000Z</time>
      </trkpt>
      <trkpt lat="47.3148" lon="-1.56298">
        <ele>24</ele>
        <time>2019-10-17T13:35:49.000Z</time>
      </trkpt>
      <trkpt lat="47.31474" lon="-1.56298">
        <ele>24</ele>
        <time>2019-10-17T13:35:50.000Z</time>
      </trkpt>
      <trkpt lat="47.3147" lon="-1.56299">
        <ele>25</ele>
        <time>2019-10-17T13:35:51.000Z</time>
      </trkpt>
      <trkpt lat="47.31466" lon="-1.56302">
        <ele>25</ele>
        <time>2019-10-17T13:35:52.000Z</time>
      </trkpt>
      <trkpt lat="47.31462" lon="-1.56306">
        <ele>25</ele>
        <time>2019-10-17T13:35:53.000Z</time>
      </trkpt>
      <trkpt lat="47.31457" lon="-1.56313">
        <ele>26</ele>
        <time>2019-10-17T13:35:54.000Z</time>
      </trkpt>
      <trkpt lat="47.31453" lon="-1.56321">
        <ele>26</ele>
        <time>2019-10-17T13:35:55.000Z</time>
      </trkpt>
      <trkpt lat="47.31449" lon="-1.56329">
        <ele>27</ele>
        <time>2019-10-17T13:35:56.000Z</time>
      </trkpt>
      <trkpt lat="47.31445" lon="-1.56336">
        <ele>27</ele>
        <time>2019-10-17T13:35:57.000Z</time>
      </trkpt>
      <trkpt lat="47.3144" lon="-1.56344">
        <ele>28</ele>
        <time>2019-10-17T13:35:58.000Z</time>
      </trkpt>
      <trkpt lat="47.31436" lon="-1.56351">
        <ele>28</ele>
        <time>2019-10-17T13:35:59.000Z</time>
      </trkpt>
      <trkpt lat="47.31431" lon="-1.56357">
        <ele>29</ele>
        <time>2019-10-17T13:36:00.000Z</time>
      </trkpt>
      <trkpt lat="47.31426" lon="-1.56363">
        <ele>29</ele>
        <time>2019-10-17T13:36:01.000Z</time>
      </trkpt>
      <trkpt lat="47.31421" lon="-1.56367">
        <ele>29</ele>
        <time>2019-10-17T13:36:02.000Z</time>
      </trkpt>
      <trkpt lat="47.31416" lon="-1.56372">
        <ele>29</ele>
        <time>2019-10-17T13:36:03.000Z</time>
      </trkpt>
      <trkpt lat="47.31412" lon="-1.56378">
        <ele>30</ele>
        <time>2019-10-17T13:36:04.000Z</time>
      </trkpt>
      <trkpt lat="47.31408" lon="-1.56383">
        <ele>30</ele>
        <time>2019-10-17T13:36:05.000Z</time>
      </trkpt>
      <trkpt lat="47.31403" lon="-1.56388">
        <ele>30</ele>
        <time>2019-10-17T13:36:06.000Z</time>
      </trkpt>
      <trkpt lat="47.31398" lon="-1.56394">
        <ele>31</ele>
        <time>2019-10-17T13:36:07.000Z</time>
      </trkpt>
      <trkpt lat="47.31394" lon="-1.564">
        <ele>31</ele>
        <time>2019-10-17T13:36:08.000Z</time>
      </trkpt>
      <trkpt lat="47.31389" lon="-1.56407">
        <ele>31</ele>
        <time>2019-10-17T13:36:09.000Z</time>
      </trkpt>
      <trkpt lat="47.31385" lon="-1.56414">
        <ele>31</ele>
        <time>2019-10-17T13:36:10.000Z</time>
      </trkpt>
      <trkpt lat="47.31381" lon="-1.56419">
        <ele>32</ele>
        <time>2019-10-17T13:36:11.000Z</time>
      </trkpt>
      <trkpt lat="47.31377" lon="-1.56424">
        <ele>32</ele>
        <time>2019-10-17T13:36:12.000Z</time>
      </trkpt>
      <trkpt lat="47.31374" lon="-1.56429">
        <ele>32</ele>
        <time>2019-10-17T13:36:13.000Z</time>
      </trkpt>
      <trkpt lat="47.31371" lon="-1.56433">
        <ele>32</ele>
        <time>2019-10-17T13:36:14.000Z</time>
      </trkpt>
      <trkpt lat="47.31368" lon="-1.56435">
        <ele>32</ele>
        <time>2019-10-17T13:36:15.000Z</time>
      </trkpt>
      <trkpt lat="47.31364" lon="-1.56435">
        <ele>32</ele>
        <time>2019-10-17T13:36:16.000Z</time>
      </trkpt>
      <trkpt lat="47.31362" lon="-1.56433">
        <ele>32</ele>
        <time>2019-10-17T13:36:17.000Z</time>
      </trkpt>
      <trkpt lat="47.3136" lon="-1.5643">
        <ele>32</ele>
        <time>2019-10-17T13:36:18.000Z</time>
      </trkpt>
      <trkpt lat="47.31358" lon="-1.56426">
        <ele>32</ele>
        <time>2019-10-17T13:36:19.000Z</time>
      </trkpt>
      <trkpt lat="47.31355" lon="-1.56421">
        <ele>32</ele>
        <time>2019-10-17T13:36:20.000Z</time>
      </trkpt>
      <trkpt lat="47.31353" lon="-1.56415">
        <ele>32</ele>
        <time>2019-10-17T13:36:21.000Z</time>
      </trkpt>
      <trkpt lat="47.3135" lon="-1.56409">
        <ele>31</ele>
        <time>2019-10-17T13:36:22.000Z</time>
      </trkpt>
      <trkpt lat="47.31347" lon="-1.56401">
        <ele>31</ele>
        <time>2019-10-17T13:36:23.000Z</time>
      </trkpt>
      <trkpt lat="47.31343" lon="-1.56393">
        <ele>30</ele>
        <time>2019-10-17T13:36:24.000Z</time>
      </trkpt>
      <trkpt lat="47.31339" lon="-1.56385">
        <ele>30</ele>
        <time>2019-10-17T13:36:25.000Z</time>
      </trkpt>
      <trkpt lat="47.31336" lon="-1.56377">
        <ele>29</ele>
        <time>2019-10-17T13:36:26.000Z</time>
      </trkpt>
      <trkpt lat="47.31333" lon="-1.5637">
        <ele>29</ele>
        <time>2019-10-17T13:36:27.000Z</time>
      </trkpt>
      <trkpt lat="47.3133" lon="-1.56364">
        <ele>29</ele>
        <time>2019-10-17T13:36:28.000Z</time>
      </trkpt>
      <trkpt lat="47.31328" lon="-1.56359">
        <ele>28</ele>
        <time>2019-10-17T13:36:29.000Z</time>
      </trkpt>
      <trkpt lat="47.31327" lon="-1.56355">
        <ele>28</ele>
        <time>2019-10-17T13:36:30.000Z</time>
      </trkpt>
      <trkpt lat="47.31324" lon="-1.5635">
        <ele>28</ele>
        <time>2019-10-17T13:36:31.000Z</time>
      </trkpt>
      <trkpt lat="47.31321" lon="-1.56344">
        <ele>28</ele>
        <time>2019-10-17T13:36:32.000Z</time>
      </trkpt>
      <trkpt lat="47.3132" lon="-1.56338">
        <ele>28</ele>
        <time>2019-10-17T13:36:33.000Z</time>
      </trkpt>
      <trkpt lat="47.31318" lon="-1.56332">
        <ele>27</ele>
        <time>2019-10-17T13:36:34.000Z</time>
      </trkpt>
      <trkpt lat="47.31317" lon="-1.56327">
        <ele>27</ele>
        <time>2019-10-17T13:36:35.000Z</time>
      </trkpt>
      <trkpt lat="47.31316" lon="-1.56322">
        <ele>27</ele>
        <time>2019-10-17T13:36:36.000Z</time>
      </trkpt>
      <trkpt lat="47.31315" lon="-1.56316">
        <ele>27</ele>
        <time>2019-10-17T13:36:37.000Z</time>
      </trkpt>
      <trkpt lat="47.31313" lon="-1.56308">
        <ele>27</ele>
        <time>2019-10-17T13:36:38.000Z</time>
      </trkpt>
      <trkpt lat="47.31311" lon="-1.56301">
        <ele>27</ele>
        <time>2019-10-17T13:36:39.000Z</time>
      </trkpt>
      <trkpt lat="47.31308" lon="-1.56294">
        <ele>27</ele>
        <time>2019-10-17T13:36:40.000Z</time>
      </trkpt>
      <trkpt lat="47.31306" lon="-1.56285">
        <ele>26</ele>
        <time>2019-10-17T13:36:41.000Z</time>
      </trkpt>
      <trkpt lat="47.31304" lon="-1.56279">
        <ele>26</ele>
        <time>2019-10-17T13:36:42.000Z</time>
      </trkpt>
      <trkpt lat="47.31301" lon="-1.56274">
        <ele>25</ele>
        <time>2019-10-17T13:36:43.000Z</time>
      </trkpt>
      <trkpt lat="47.31298" lon="-1.5627">
        <ele>25</ele>
        <time>2019-10-17T13:36:44.000Z</time>
      </trkpt>
      <trkpt lat="47.31294" lon="-1.56266">
        <ele>24</ele>
        <time>2019-10-17T13:36:45.000Z</time>
      </trkpt>
      <trkpt lat="47.31291" lon="-1.56263">
        <ele>24</ele>
        <time>2019-10-17T13:36:46.000Z</time>
      </trkpt>
      <trkpt lat="47.31288" lon="-1.56261">
        <ele>23</ele>
        <time>2019-10-17T13:36:47.000Z</time>
      </trkpt>
      <trkpt lat="47.31284" lon="-1.56257">
        <ele>23</ele>
        <time>2019-10-17T13:36:48.000Z</time>
      </trkpt>
      <trkpt lat="47.31279" lon="-1.56254">
        <ele>23</ele>
        <time>2019-10-17T13:36:49.000Z</time>
      </trkpt>
      <trkpt lat="47.31275" lon="-1.5625">
        <ele>22</ele>
        <time>2019-10-17T13:36:50.000Z</time>
      </trkpt>
      <trkpt lat="47.31271" lon="-1.56247">
        <ele>22</ele>
        <time>2019-10-17T13:36:51.000Z</time>
      </trkpt>
      <trkpt lat="47.31266" lon="-1.56243">
        <ele>22</ele>
        <time>2019-10-17T13:36:52.000Z</time>
      </trkpt>
      <trkpt lat="47.31262" lon="-1.5624">
        <ele>21</ele>
        <time>2019-10-17T13:36:53.000Z</time>
      </trkpt>
      <trkpt lat="47.31258" lon="-1.56236">
        <ele>21</ele>
        <time>2019-10-17T13:36:54.000Z</time>
      </trkpt>
      <trkpt lat="47.31255" lon="-1.56233">
        <ele>21</ele>
        <time>2019-10-17T13:36:55.000Z</time>
      </trkpt>
      <trkpt lat="47.31251" lon="-1.5623">
        <ele>20</ele>
        <time>2019-10-17T13:36:56.000Z</time>
      </trkpt>
      <trkpt lat="47.31247" lon="-1.56227">
        <ele>20</ele>
        <time>2019-10-17T13:36:57.000Z</time>
      </trkpt>
      <trkpt lat="47.31244" lon="-1.56224">
        <ele>20</ele>
        <time>2019-10-17T13:36:58.000Z</time>
      </trkpt>
      <trkpt lat="47.3124" lon="-1.56222">
        <ele>20</ele>
        <time>2019-10-17T13:36:59.000Z</time>
      </trkpt>
      <trkpt lat="47.31236" lon="-1.56221">
        <ele>19</ele>
        <time>2019-10-17T13:37:00.000Z</time>
      </trkpt>
      <trkpt lat="47.31232" lon="-1.56218">
        <ele>19</ele>
        <time>2019-10-17T13:37:01.000Z</time>
      </trkpt>
      <trkpt lat="47.31228" lon="-1.56215">
        <ele>19</ele>
        <time>2019-10-17T13:37:02.000Z</time>
      </trkpt>
      <trkpt lat="47.31225" lon="-1.56212">
        <ele>19</ele>
        <time>2019-10-17T13:37:03.000Z</time>
      </trkpt>
      <trkpt lat="47.31222" lon="-1.56211">
        <ele>19</ele>
        <time>2019-10-17T13:37:04.000Z</time>
      </trkpt>
      <trkpt lat="47.31218" lon="-1.56208">
        <ele>19</ele>
        <time>2019-10-17T13:37:05.000Z</time>
      </trkpt>
      <trkpt lat="47.31215" lon="-1.56206">
        <ele>19</ele>
        <time>2019-10-17T13:37:06.000Z</time>
      </trkpt>
      <trkpt lat="47.31211" lon="-1.56204">
        <ele>20</ele>
        <time>2019-10-17T13:37:07.000Z</time>
      </trkpt>
      <trkpt lat="47.31208" lon="-1.56202">
        <ele>20</ele>
        <time>2019-10-17T13:37:08.000Z</time>
      </trkpt>
      <trkpt lat="47.31205" lon="-1.56201">
        <ele>20</ele>
        <time>2019-10-17T13:37:09.000Z</time>
      </trkpt>
      <trkpt lat="47.31201" lon="-1.56198">
        <ele>20</ele>
        <time>2019-10-17T13:37:10.000Z</time>
      </trkpt>
      <trkpt lat="47.31197" lon="-1.56196">
        <ele>20</ele>
        <time>2019-10-17T13:37:11.000Z</time>
      </trkpt>
      <trkpt lat="47.31194" lon="-1.56193">
        <ele>20</ele>
        <time>2019-10-17T13:37:12.000Z</time>
      </trkpt>
      <trkpt lat="47.3119" lon="-1.5619">
        <ele>21</ele>
        <time>2019-10-17T13:37:13.000Z</time>
      </trkpt>
      <trkpt lat="47.31185" lon="-1.56187">
        <ele>21</ele>
        <time>2019-10-17T13:37:14.000Z</time>
      </trkpt>
      <trkpt lat="47.3118" lon="-1.56183">
        <ele>21</ele>
        <time>2019-10-17T13:37:15.000Z</time>
      </trkpt>
      <trkpt lat="47.31175" lon="-1.56179">
        <ele>21</ele>
        <time>2019-10-17T13:37:16.000Z</time>
      </trkpt>
      <trkpt lat="47.3117" lon="-1.56175">
        <ele>21</ele>
        <time>2019-10-17T13:37:17.000Z</time>
      </trkpt>
      <trkpt lat="47.31165" lon="-1.56173">
        <ele>22</ele>
        <time>2019-10-17T13:37:18.000Z</time>
      </trkpt>
      <trkpt lat="47.3116" lon="-1.56169">
        <ele>22</ele>
        <time>2019-10-17T13:37:19.000Z</time>
      </trkpt>
      <trkpt lat="47.31155" lon="-1.56166">
        <ele>22</ele>
        <time>2019-10-17T13:37:20.000Z</time>
      </trkpt>
      <trkpt lat="47.3115" lon="-1.56162">
        <ele>23</ele>
        <time>2019-10-17T13:37:21.000Z</time>
      </trkpt>
      <trkpt lat="47.31145" lon="-1.56158">
        <ele>23</ele>
        <time>2019-10-17T13:37:22.000Z</time>
      </trkpt>
      <trkpt lat="47.31139" lon="-1.56154">
        <ele>23</ele>
        <time>2019-10-17T13:37:23.000Z</time>
      </trkpt>
      <trkpt lat="47.31133" lon="-1.56151">
        <ele>24</ele>
        <time>2019-10-17T13:37:24.000Z</time>
      </trkpt>
      <trkpt lat="47.31128" lon="-1.56148">
        <ele>24</ele>
        <time>2019-10-17T13:37:25.000Z</time>
      </trkpt>
      <trkpt lat="47.31122" lon="-1.56146">
        <ele>25</ele>
        <time>2019-10-17T13:37:26.000Z</time>
      </trkpt>
      <trkpt lat="47.31117" lon="-1.56144">
        <ele>25</ele>
        <time>2019-10-17T13:37:27.000Z</time>
      </trkpt>
      <trkpt lat="47.31111" lon="-1.56142">
        <ele>25</ele>
        <time>2019-10-17T13:37:28.000Z</time>
      </trkpt>
      <trkpt lat="47.31106" lon="-1.5614">
        <ele>26</ele>
        <time>2019-10-17T13:37:29.000Z</time>
      </trkpt>
      <trkpt lat="47.31101" lon="-1.56137">
        <ele>26</ele>
        <time>2019-10-17T13:37:30.000Z</time>
      </trkpt>
      <trkpt lat="47.31096" lon="-1.56135">
        <ele>26</ele>
        <time>2019-10-17T13:37:31.000Z</time>
      </trkpt>
      <trkpt lat="47.31092" lon="-1.56135">
        <ele>26</ele>
        <time>2019-10-17T13:37:32.000Z</time>
      </trkpt>
      <trkpt lat="47.31088" lon="-1.56134">
        <ele>26</ele>
        <time>2019-10-17T13:37:33.000Z</time>
      </trkpt>
      <trkpt lat="47.31083" lon="-1.56133">
        <ele>26</ele>
        <time>2019-10-17T13:37:34.000Z</time>
      </trkpt>
      <trkpt lat="47.31078" lon="-1.56133">
        <ele>27</ele>
        <time>2019-10-17T13:37:35.000Z</time>
      </trkpt>
      <trkpt lat="47.31073" lon="-1.56132">
        <ele>27</ele>
        <time>2019-10-17T13:37:36.000Z</time>
      </trkpt>
      <trkpt lat="47.31068" lon="-1.56131">
        <ele>27</ele>
        <time>2019-10-17T13:37:37.000Z</time>
      </trkpt>
      <trkpt lat="47.31063" lon="-1.56131">
        <ele>27</ele>
        <time>2019-10-17T13:37:38.000Z</time>
      </trkpt>
      <trkpt lat="47.31057" lon="-1.5613">
        <ele>27</ele>
        <time>2019-10-17T13:37:39.000Z</time>
      </trkpt>
      <trkpt lat="47.31051" lon="-1.56129">
        <ele>27</ele>
        <time>2019-10-17T13:37:40.000Z</time>
      </trkpt>
      <trkpt lat="47.31045" lon="-1.56127">
        <ele>27</ele>
        <time>2019-10-17T13:37:41.000Z</time>
      </trkpt>
      <trkpt lat="47.31038" lon="-1.56125">
        <ele>28</ele>
        <time>2019-10-17T13:37:42.000Z</time>
      </trkpt>
      <trkpt lat="47.31032" lon="-1.56123">
        <ele>28</ele>
        <time>2019-10-17T13:37:43.000Z</time>
      </trkpt>
      <trkpt lat="47.31027" lon="-1.56122">
        <ele>28</ele>
        <time>2019-10-17T13:37:44.000Z</time>
      </trkpt>
      <trkpt lat="47.31021" lon="-1.56121">
        <ele>28</ele>
        <time>2019-10-17T13:37:45.000Z</time>
      </trkpt>
      <trkpt lat="47.31015" lon="-1.56119">
        <ele>28</ele>
        <time>2019-10-17T13:37:46.000Z</time>
      </trkpt>
      <trkpt lat="47.3101" lon="-1.56118">
        <ele>29</ele>
        <time>2019-10-17T13:37:47.000Z</time>
      </trkpt>
      <trkpt lat="47.31005" lon="-1.56117">
        <ele>29</ele>
        <time>2019-10-17T13:37:48.000Z</time>
      </trkpt>
      <trkpt lat="47.31" lon="-1.56117">
        <ele>29</ele>
        <time>2019-10-17T13:37:49.000Z</time>
      </trkpt>
      <trkpt lat="47.30994" lon="-1.56117">
        <ele>29</ele>
        <time>2019-10-17T13:37:50.000Z</time>
      </trkpt>
      <trkpt lat="47.30989" lon="-1.56116">
        <ele>29</ele>
        <time>2019-10-17T13:37:51.000Z</time>
      </trkpt>
      <trkpt lat="47.30983" lon="-1.56115">
        <ele>29</ele>
        <time>2019-10-17T13:37:52.000Z</time>
      </trkpt>
      <trkpt lat="47.30978" lon="-1.56115">
        <ele>30</ele>
        <time>2019-10-17T13:37:53.000Z</time>
      </trkpt>
      <trkpt lat="47.30972" lon="-1.56113">
        <ele>30</ele>
        <time>2019-10-17T13:37:54.000Z</time>
      </trkpt>
      <trkpt lat="47.30966" lon="-1.56111">
        <ele>30</ele>
        <time>2019-10-17T13:37:55.000Z</time>
      </trkpt>
      <trkpt lat="47.3096" lon="-1.5611">
        <ele>30</ele>
        <time>2019-10-17T13:37:56.000Z</time>
      </trkpt>
      <trkpt lat="47.30955" lon="-1.56108">
        <ele>30</ele>
        <time>2019-10-17T13:37:57.000Z</time>
      </trkpt>
      <trkpt lat="47.30949" lon="-1.56108">
        <ele>31</ele>
        <time>2019-10-17T13:37:58.000Z</time>
      </trkpt>
      <trkpt lat="47.30944" lon="-1.56108">
        <ele>31</ele>
        <time>2019-10-17T13:37:59.000Z</time>
      </trkpt>
      <trkpt lat="47.30938" lon="-1.56109">
        <ele>31</ele>
        <time>2019-10-17T13:38:00.000Z</time>
      </trkpt>
      <trkpt lat="47.30932" lon="-1.56108">
        <ele>31</ele>
        <time>2019-10-17T13:38:01.000Z</time>
      </trkpt>
      <trkpt lat="47.30926" lon="-1.56107">
        <ele>31</ele>
        <time>2019-10-17T13:38:02.000Z</time>
      </trkpt>
      <trkpt lat="47.3092" lon="-1.56106">
        <ele>31</ele>
        <time>2019-10-17T13:38:03.000Z</time>
      </trkpt>
      <trkpt lat="47.30913" lon="-1.56106">
        <ele>32</ele>
        <time>2019-10-17T13:38:04.000Z</time>
      </trkpt>
      <trkpt lat="47.30907" lon="-1.56105">
        <ele>32</ele>
        <time>2019-10-17T13:38:05.000Z</time>
      </trkpt>
      <trkpt lat="47.30901" lon="-1.56104">
        <ele>32</ele>
        <time>2019-10-17T13:38:06.000Z</time>
      </trkpt>
      <trkpt lat="47.30894" lon="-1.56102">
        <ele>33</ele>
        <time>2019-10-17T13:38:07.000Z</time>
      </trkpt>
      <trkpt lat="47.30888" lon="-1.56102">
        <ele>33</ele>
        <time>2019-10-17T13:38:08.000Z</time>
      </trkpt>
      <trkpt lat="47.30881" lon="-1.56101">
        <ele>33</ele>
        <time>2019-10-17T13:38:09.000Z</time>
      </trkpt>
      <trkpt lat="47.30875" lon="-1.56101">
        <ele>33</ele>
        <time>2019-10-17T13:38:10.000Z</time>
      </trkpt>
      <trkpt lat="47.30868" lon="-1.561">
        <ele>33</ele>
        <time>2019-10-17T13:38:11.000Z</time>
      </trkpt>
      <trkpt lat="47.30862" lon="-1.56099">
        <ele>33</ele>
        <time>2019-10-17T13:38:12.000Z</time>
      </trkpt>
      <trkpt lat="47.30855" lon="-1.56097">
        <ele>34</ele>
        <time>2019-10-17T13:38:13.000Z</time>
      </trkpt>
      <trkpt lat="47.30848" lon="-1.56095">
        <ele>34</ele>
        <time>2019-10-17T13:38:14.000Z</time>
      </trkpt>
      <trkpt lat="47.30841" lon="-1.56092">
        <ele>34</ele>
        <time>2019-10-17T13:38:15.000Z</time>
      </trkpt>
      <trkpt lat="47.30834" lon="-1.5609">
        <ele>34</ele>
        <time>2019-10-17T13:38:16.000Z</time>
      </trkpt>
      <trkpt lat="47.30827" lon="-1.56087">
        <ele>34</ele>
        <time>2019-10-17T13:38:17.000Z</time>
      </trkpt>
      <trkpt lat="47.30821" lon="-1.56086">
        <ele>35</ele>
        <time>2019-10-17T13:38:18.000Z</time>
      </trkpt>
      <trkpt lat="47.30814" lon="-1.56085">
        <ele>35</ele>
        <time>2019-10-17T13:38:19.000Z</time>
      </trkpt>
      <trkpt lat="47.30808" lon="-1.56083">
        <ele>35</ele>
        <time>2019-10-17T13:38:20.000Z</time>
      </trkpt>
      <trkpt lat="47.30801" lon="-1.56082">
        <ele>35</ele>
        <time>2019-10-17T13:38:21.000Z</time>
      </trkpt>
      <trkpt lat="47.30795" lon="-1.5608">
        <ele>35</ele>
        <time>2019-10-17T13:38:22.000Z</time>
      </trkpt>
      <trkpt lat="47.30789" lon="-1.56078">
        <ele>36</ele>
        <time>2019-10-17T13:38:23.000Z</time>
      </trkpt>
      <trkpt lat="47.30783" lon="-1.56076">
        <ele>36</ele>
        <time>2019-10-17T13:38:24.000Z</time>
      </trkpt>
      <trkpt lat="47.30777" lon="-1.56074">
        <ele>36</ele>
        <time>2019-10-17T13:38:25.000Z</time>
      </trkpt>
      <trkpt lat="47.30771" lon="-1.56072">
        <ele>36</ele>
        <time>2019-10-17T13:38:26.000Z</time>
      </trkpt>
      <trkpt lat="47.30765" lon="-1.56071">
        <ele>37</ele>
        <time>2019-10-17T13:38:27.000Z</time>
      </trkpt>
      <trkpt lat="47.30758" lon="-1.5607">
        <ele>37</ele>
        <time>2019-10-17T13:38:28.000Z</time>
      </trkpt>
      <trkpt lat="47.30752" lon="-1.56068">
        <ele>37</ele>
        <time>2019-10-17T13:38:29.000Z</time>
      </trkpt>
      <trkpt lat="47.30746" lon="-1.56067">
        <ele>37</ele>
        <time>2019-10-17T13:38:30.000Z</time>
      </trkpt>
      <trkpt lat="47.30739" lon="-1.56066">
        <ele>37</ele>
        <time>2019-10-17T13:38:31.000Z</time>
      </trkpt>
      <trkpt lat="47.30733" lon="-1.56065">
        <ele>37</ele>
        <time>2019-10-17T13:38:32.000Z</time>
      </trkpt>
      <trkpt lat="47.30726" lon="-1.56064">
        <ele>38</ele>
        <time>2019-10-17T13:38:33.000Z</time>
      </trkpt>
      <trkpt lat="47.30719" lon="-1.56063">
        <ele>38</ele>
        <time>2019-10-17T13:38:34.000Z</time>
      </trkpt>
      <trkpt lat="47.30712" lon="-1.56061">
        <ele>38</ele>
        <time>2019-10-17T13:38:35.000Z</time>
      </trkpt>
      <trkpt lat="47.30705" lon="-1.56059">
        <ele>38</ele>
        <time>2019-10-17T13:38:36.000Z</time>
      </trkpt>
      <trkpt lat="47.30699" lon="-1.56057">
        <ele>38</ele>
        <time>2019-10-17T13:38:37.000Z</time>
      </trkpt>
      <trkpt lat="47.30692" lon="-1.56055">
        <ele>38</ele>
        <time>2019-10-17T13:38:38.000Z</time>
      </trkpt>
      <trkpt lat="47.30686" lon="-1.56052">
        <ele>38</ele>
        <time>2019-10-17T13:38:39.000Z</time>
      </trkpt>
      <trkpt lat="47.30681" lon="-1.5605">
        <ele>38</ele>
        <time>2019-10-17T13:38:40.000Z</time>
      </trkpt>
      <trkpt lat="47.30675" lon="-1.56047">
        <ele>39</ele>
        <time>2019-10-17T13:38:41.000Z</time>
      </trkpt>
      <trkpt lat="47.30669" lon="-1.56044">
        <ele>39</ele>
        <time>2019-10-17T13:38:42.000Z</time>
      </trkpt>
      <trkpt lat="47.30664" lon="-1.56043">
        <ele>39</ele>
        <time>2019-10-17T13:38:43.000Z</time>
      </trkpt>
      <trkpt lat="47.30658" lon="-1.56041">
        <ele>39</ele>
        <time>2019-10-17T13:38:44.000Z</time>
      </trkpt>
      <trkpt lat="47.30652" lon="-1.5604">
        <ele>39</ele>
        <time>2019-10-17T13:38:45.000Z</time>
      </trkpt>
      <trkpt lat="47.30647" lon="-1.56039">
        <ele>39</ele>
        <time>2019-10-17T13:38:46.000Z</time>
      </trkpt>
      <trkpt lat="47.30641" lon="-1.56039">
        <ele>39</ele>
        <time>2019-10-17T13:38:47.000Z</time>
      </trkpt>
      <trkpt lat="47.30636" lon="-1.56039">
        <ele>39</ele>
        <time>2019-10-17T13:38:48.000Z</time>
      </trkpt>
      <trkpt lat="47.3063" lon="-1.5604">
        <ele>39</ele>
        <time>2019-10-17T13:38:49.000Z</time>
      </trkpt>
      <trkpt lat="47.30625" lon="-1.5604">
        <ele>39</ele>
        <time>2019-10-17T13:38:50.000Z</time>
      </trkpt>
      <trkpt lat="47.30619" lon="-1.5604">
        <ele>39</ele>
        <time>2019-10-17T13:38:51.000Z</time>
      </trkpt>
      <trkpt lat="47.30613" lon="-1.56041">
        <ele>39</ele>
        <time>2019-10-17T13:38:52.000Z</time>
      </trkpt>
      <trkpt lat="47.30607" lon="-1.56043">
        <ele>39</ele>
        <time>2019-10-17T13:38:53.000Z</time>
      </trkpt>
      <trkpt lat="47.30601" lon="-1.56044">
        <ele>39</ele>
        <time>2019-10-17T13:38:54.000Z</time>
      </trkpt>
      <trkpt lat="47.30595" lon="-1.56046">
        <ele>39</ele>
        <time>2019-10-17T13:38:55.000Z</time>
      </trkpt>
      <trkpt lat="47.3059" lon="-1.56049">
        <ele>39</ele>
        <time>2019-10-17T13:38:56.000Z</time>
      </trkpt>
      <trkpt lat="47.30585" lon="-1.56052">
        <ele>38</ele>
        <time>2019-10-17T13:38:57.000Z</time>
      </trkpt>
      <trkpt lat="47.3058" lon="-1.56052">
        <ele>38</ele>
        <time>2019-10-17T13:38:58.000Z</time>
      </trkpt>
      <trkpt lat="47.30575" lon="-1.56051">
        <ele>38</ele>
        <time>2019-10-17T13:38:59.000Z</time>
      </trkpt>
      <trkpt lat="47.3057" lon="-1.56049">
        <ele>37</ele>
        <time>2019-10-17T13:39:00.000Z</time>
      </trkpt>
      <trkpt lat="47.30565" lon="-1.5605">
        <ele>37</ele>
        <time>2019-10-17T13:39:01.000Z</time>
      </trkpt>
      <trkpt lat="47.30561" lon="-1.56054">
        <ele>36</ele>
        <time>2019-10-17T13:39:02.000Z</time>
      </trkpt>
      <trkpt lat="47.30558" lon="-1.56059">
        <ele>36</ele>
        <time>2019-10-17T13:39:03.000Z</time>
      </trkpt>
      <trkpt lat="47.30556" lon="-1.56066">
        <ele>36</ele>
        <time>2019-10-17T13:39:04.000Z</time>
      </trkpt>
      <trkpt lat="47.30553" lon="-1.56072">
        <ele>35</ele>
        <time>2019-10-17T13:39:05.000Z</time>
      </trkpt>
      <trkpt lat="47.30551" lon="-1.56078">
        <ele>35</ele>
        <time>2019-10-17T13:39:06.000Z</time>
      </trkpt>
      <trkpt lat="47.30549" lon="-1.56085">
        <ele>34</ele>
        <time>2019-10-17T13:39:07.000Z</time>
      </trkpt>
      <trkpt lat="47.30545" lon="-1.5609">
        <ele>34</ele>
        <time>2019-10-17T13:39:08.000Z</time>
      </trkpt>
      <trkpt lat="47.30543" lon="-1.56096">
        <ele>33</ele>
        <time>2019-10-17T13:39:09.000Z</time>
      </trkpt>
      <trkpt lat="47.3054" lon="-1.56103">
        <ele>33</ele>
        <time>2019-10-17T13:39:10.000Z</time>
      </trkpt>
      <trkpt lat="47.30537" lon="-1.56109">
        <ele>33</ele>
        <time>2019-10-17T13:39:11.000Z</time>
      </trkpt>
      <trkpt lat="47.30534" lon="-1.56115">
        <ele>32</ele>
        <time>2019-10-17T13:39:12.000Z</time>
      </trkpt>
      <trkpt lat="47.30531" lon="-1.56122">
        <ele>32</ele>
        <time>2019-10-17T13:39:13.000Z</time>
      </trkpt>
      <trkpt lat="47.30529" lon="-1.56129">
        <ele>32</ele>
        <time>2019-10-17T13:39:14.000Z</time>
      </trkpt>
      <trkpt lat="47.30526" lon="-1.56135">
        <ele>31</ele>
        <time>2019-10-17T13:39:15.000Z</time>
      </trkpt>
      <trkpt lat="47.30522" lon="-1.5614">
        <ele>31</ele>
        <time>2019-10-17T13:39:16.000Z</time>
      </trkpt>
      <trkpt lat="47.3052" lon="-1.56147">
        <ele>31</ele>
        <time>2019-10-17T13:39:17.000Z</time>
      </trkpt>
      <trkpt lat="47.30516" lon="-1.56153">
        <ele>31</ele>
        <time>2019-10-17T13:39:18.000Z</time>
      </trkpt>
      <trkpt lat="47.30513" lon="-1.56159">
        <ele>31</ele>
        <time>2019-10-17T13:39:19.000Z</time>
      </trkpt>
      <trkpt lat="47.3051" lon="-1.56166">
        <ele>31</ele>
        <time>2019-10-17T13:39:20.000Z</time>
      </trkpt>
      <trkpt lat="47.30507" lon="-1.56172">
        <ele>30</ele>
        <time>2019-10-17T13:39:21.000Z</time>
      </trkpt>
      <trkpt lat="47.30504" lon="-1.56179">
        <ele>30</ele>
        <time>2019-10-17T13:39:22.000Z</time>
      </trkpt>
      <trkpt lat="47.30501" lon="-1.56185">
        <ele>30</ele>
        <time>2019-10-17T13:39:23.000Z</time>
      </trkpt>
      <trkpt lat="47.30499" lon="-1.56192">
        <ele>30</ele>
        <time>2019-10-17T13:39:24.000Z</time>
      </trkpt>
      <trkpt lat="47.30496" lon="-1.56198">
        <ele>30</ele>
        <time>2019-10-17T13:39:25.000Z</time>
      </trkpt>
      <trkpt lat="47.30493" lon="-1.56205">
        <ele>30</ele>
        <time>2019-10-17T13:39:26.000Z</time>
      </trkpt>
      <trkpt lat="47.3049" lon="-1.56211">
        <ele>30</ele>
        <time>2019-10-17T13:39:27.000Z</time>
      </trkpt>
      <trkpt lat="47.30488" lon="-1.56217">
        <ele>30</ele>
        <time>2019-10-17T13:39:28.000Z</time>
      </trkpt>
      <trkpt lat="47.30486" lon="-1.56224">
        <ele>30</ele>
        <time>2019-10-17T13:39:29.000Z</time>
      </trkpt>
      <trkpt lat="47.30483" lon="-1.56231">
        <ele>30</ele>
        <time>2019-10-17T13:39:30.000Z</time>
      </trkpt>
      <trkpt lat="47.30481" lon="-1.56237">
        <ele>30</ele>
        <time>2019-10-17T13:39:31.000Z</time>
      </trkpt>
      <trkpt lat="47.30479" lon="-1.56244">
        <ele>30</ele>
        <time>2019-10-17T13:39:32.000Z</time>
      </trkpt>
      <trkpt lat="47.30477" lon="-1.56251">
        <ele>30</ele>
        <time>2019-10-17T13:39:33.000Z</time>
      </trkpt>
      <trkpt lat="47.30475" lon="-1.56258">
        <ele>30</ele>
        <time>2019-10-17T13:39:34.000Z</time>
      </trkpt>
      <trkpt lat="47.30472" lon="-1.56266">
        <ele>30</ele>
        <time>2019-10-17T13:39:35.000Z</time>
      </trkpt>
      <trkpt lat="47.30469" lon="-1.56273">
        <ele>29</ele>
        <time>2019-10-17T13:39:36.000Z</time>
      </trkpt>
      <trkpt lat="47.30467" lon="-1.5628">
        <ele>29</ele>
        <time>2019-10-17T13:39:37.000Z</time>
      </trkpt>
      <trkpt lat="47.30464" lon="-1.56286">
        <ele>29</ele>
        <time>2019-10-17T13:39:38.000Z</time>
      </trkpt>
      <trkpt lat="47.30462" lon="-1.56293">
        <ele>29</ele>
        <time>2019-10-17T13:39:39.000Z</time>
      </trkpt>
      <trkpt lat="47.3046" lon="-1.56301">
        <ele>29</ele>
        <time>2019-10-17T13:39:40.000Z</time>
      </trkpt>
      <trkpt lat="47.30457" lon="-1.56308">
        <ele>29</ele>
        <time>2019-10-17T13:39:41.000Z</time>
      </trkpt>
      <trkpt lat="47.30455" lon="-1.56315">
        <ele>29</ele>
        <time>2019-10-17T13:39:42.000Z</time>
      </trkpt>
      <trkpt lat="47.30453" lon="-1.56323">
        <ele>29</ele>
        <time>2019-10-17T13:39:43.000Z</time>
      </trkpt>
      <trkpt lat="47.30451" lon="-1.5633">
        <ele>29</ele>
        <time>2019-10-17T13:39:44.000Z</time>
      </trkpt>
      <trkpt lat="47.30449" lon="-1.56338">
        <ele>29</ele>
        <time>2019-10-17T13:39:45.000Z</time>
      </trkpt>
      <trkpt lat="47.30447" lon="-1.56345">
        <ele>29</ele>
        <time>2019-10-17T13:39:46.000Z</time>
      </trkpt>
      <trkpt lat="47.30445" lon="-1.56353">
        <ele>29</ele>
        <time>2019-10-17T13:39:47.000Z</time>
      </trkpt>
      <trkpt lat="47.30444" lon="-1.5636">
        <ele>29</ele>
        <time>2019-10-17T13:39:48.000Z</time>
      </trkpt>
      <trkpt lat="47.30443" lon="-1.56368">
        <ele>29</ele>
        <time>2019-10-17T13:39:49.000Z</time>
      </trkpt>
      <trkpt lat="47.30441" lon="-1.56375">
        <ele>29</ele>
        <time>2019-10-17T13:39:50.000Z</time>
      </trkpt>
      <trkpt lat="47.30439" lon="-1.56383">
        <ele>29</ele>
        <time>2019-10-17T13:39:51.000Z</time>
      </trkpt>
      <trkpt lat="47.30437" lon="-1.5639">
        <ele>29</ele>
        <time>2019-10-17T13:39:52.000Z</time>
      </trkpt>
      <trkpt lat="47.30435" lon="-1.56397">
        <ele>29</ele>
        <time>2019-10-17T13:39:53.000Z</time>
      </trkpt>
      <trkpt lat="47.30433" lon="-1.56403">
        <ele>29</ele>
        <time>2019-10-17T13:39:54.000Z</time>
      </trkpt>
      <trkpt lat="47.30431" lon="-1.5641">
        <ele>29</ele>
        <time>2019-10-17T13:39:55.000Z</time>
      </trkpt>
      <trkpt lat="47.30429" lon="-1.56416">
        <ele>29</ele>
        <time>2019-10-17T13:39:56.000Z</time>
      </trkpt>
      <trkpt lat="47.30428" lon="-1.56422">
        <ele>29</ele>
        <time>2019-10-17T13:39:57.000Z</time>
      </trkpt>
      <trkpt lat="47.30427" lon="-1.56428">
        <ele>29</ele>
        <time>2019-10-17T13:39:58.000Z</time>
      </trkpt>
      <trkpt lat="47.30426" lon="-1.56434">
        <ele>29</ele>
        <time>2019-10-17T13:39:59.000Z</time>
      </trkpt>
      <trkpt lat="47.30424" lon="-1.56439">
        <ele>29</ele>
        <time>2019-10-17T13:40:00.000Z</time>
      </trkpt>
      <trkpt lat="47.30422" lon="-1.56445">
        <ele>29</ele>
        <time>2019-10-17T13:40:01.000Z</time>
      </trkpt>
      <trkpt lat="47.3042" lon="-1.56449">
        <ele>29</ele>
        <time>2019-10-17T13:40:02.000Z</time>
      </trkpt>
      <trkpt lat="47.30419" lon="-1.56454">
        <ele>29</ele>
        <time>2019-10-17T13:40:03.000Z</time>
      </trkpt>
      <trkpt lat="47.30417" lon="-1.56459">
        <ele>29</ele>
        <time>2019-10-17T13:40:04.000Z</time>
      </trkpt>
      <trkpt lat="47.30414" lon="-1.56463">
        <ele>29</ele>
        <time>2019-10-17T13:40:05.000Z</time>
      </trkpt>
      <trkpt lat="47.30411" lon="-1.56468">
        <ele>29</ele>
        <time>2019-10-17T13:40:06.000Z</time>
      </trkpt>
      <trkpt lat="47.30408" lon="-1.56472">
        <ele>29</ele>
        <time>2019-10-17T13:40:07.000Z</time>
      </trkpt>
      <trkpt lat="47.30404" lon="-1.56476">
        <ele>29</ele>
        <time>2019-10-17T13:40:08.000Z</time>
      </trkpt>
      <trkpt lat="47.30399" lon="-1.56479">
        <ele>29</ele>
        <time>2019-10-17T13:40:09.000Z</time>
      </trkpt>
      <trkpt lat="47.30394" lon="-1.56482">
        <ele>29</ele>
        <time>2019-10-17T13:40:10.000Z</time>
      </trkpt>
      <trkpt lat="47.30389" lon="-1.56484">
        <ele>29</ele>
        <time>2019-10-17T13:40:11.000Z</time>
      </trkpt>
      <trkpt lat="47.30384" lon="-1.56486">
        <ele>30</ele>
        <time>2019-10-17T13:40:12.000Z</time>
      </trkpt>
      <trkpt lat="47.30379" lon="-1.56488">
        <ele>30</ele>
        <time>2019-10-17T13:40:13.000Z</time>
      </trkpt>
      <trkpt lat="47.30375" lon="-1.56492">
        <ele>30</ele>
        <time>2019-10-17T13:40:14.000Z</time>
      </trkpt>
      <trkpt lat="47.3037" lon="-1.56495">
        <ele>30</ele>
        <time>2019-10-17T13:40:15.000Z</time>
      </trkpt>
      <trkpt lat="47.30365" lon="-1.56499">
        <ele>30</ele>
        <time>2019-10-17T13:40:16.000Z</time>
      </trkpt>
      <trkpt lat="47.30361" lon="-1.56504">
        <ele>30</ele>
        <time>2019-10-17T13:40:17.000Z</time>
      </trkpt>
      <trkpt lat="47.30355" lon="-1.56508">
        <ele>30</ele>
        <time>2019-10-17T13:40:18.000Z</time>
      </trkpt>
      <trkpt lat="47.30351" lon="-1.5651">
        <ele>30</ele>
        <time>2019-10-17T13:40:19.000Z</time>
      </trkpt>
      <trkpt lat="47.30346" lon="-1.56512">
        <ele>31</ele>
        <time>2019-10-17T13:40:20.000Z</time>
      </trkpt>
      <trkpt lat="47.30341" lon="-1.56513">
        <ele>30</ele>
        <time>2019-10-17T13:40:21.000Z</time>
      </trkpt>
      <trkpt lat="47.30335" lon="-1.56514">
        <ele>30</ele>
        <time>2019-10-17T13:40:22.000Z</time>
      </trkpt>
      <trkpt lat="47.30328" lon="-1.56514">
        <ele>30</ele>
        <time>2019-10-17T13:40:23.000Z</time>
      </trkpt>
      <trkpt lat="47.30322" lon="-1.56514">
        <ele>30</ele>
        <time>2019-10-17T13:40:24.000Z</time>
      </trkpt>
      <trkpt lat="47.30315" lon="-1.56516">
        <ele>30</ele>
        <time>2019-10-17T13:40:25.000Z</time>
      </trkpt>
      <trkpt lat="47.30308" lon="-1.56518">
        <ele>30</ele>
        <time>2019-10-17T13:40:26.000Z</time>
      </trkpt>
      <trkpt lat="47.30301" lon="-1.5652">
        <ele>30</ele>
        <time>2019-10-17T13:40:27.000Z</time>
      </trkpt>
      <trkpt lat="47.30294" lon="-1.56524">
        <ele>29</ele>
        <time>2019-10-17T13:40:28.000Z</time>
      </trkpt>
      <trkpt lat="47.30288" lon="-1.56527">
        <ele>29</ele>
        <time>2019-10-17T13:40:29.000Z</time>
      </trkpt>
      <trkpt lat="47.30281" lon="-1.5653">
        <ele>29</ele>
        <time>2019-10-17T13:40:30.000Z</time>
      </trkpt>
      <trkpt lat="47.30275" lon="-1.56534">
        <ele>29</ele>
        <time>2019-10-17T13:40:31.000Z</time>
      </trkpt>
      <trkpt lat="47.30268" lon="-1.56538">
        <ele>29</ele>
        <time>2019-10-17T13:40:32.000Z</time>
      </trkpt>
      <trkpt lat="47.30262" lon="-1.56542">
        <ele>29</ele>
        <time>2019-10-17T13:40:33.000Z</time>
      </trkpt>
      <trkpt lat="47.30255" lon="-1.56546">
        <ele>29</ele>
        <time>2019-10-17T13:40:34.000Z</time>
      </trkpt>
      <trkpt lat="47.30249" lon="-1.5655">
        <ele>29</ele>
        <time>2019-10-17T13:40:35.000Z</time>
      </trkpt>
      <trkpt lat="47.30242" lon="-1.56553">
        <ele>29</ele>
        <time>2019-10-17T13:40:36.000Z</time>
      </trkpt>
      <trkpt lat="47.30235" lon="-1.56556">
        <ele>29</ele>
        <time>2019-10-17T13:40:37.000Z</time>
      </trkpt>
      <trkpt lat="47.30227" lon="-1.56559">
        <ele>29</ele>
        <time>2019-10-17T13:40:38.000Z</time>
      </trkpt>
      <trkpt lat="47.3022" lon="-1.56561">
        <ele>29</ele>
        <time>2019-10-17T13:40:39.000Z</time>
      </trkpt>
      <trkpt lat="47.30213" lon="-1.56564">
        <ele>29</ele>
        <time>2019-10-17T13:40:40.000Z</time>
      </trkpt>
      <trkpt lat="47.30206" lon="-1.56567">
        <ele>29</ele>
        <time>2019-10-17T13:40:41.000Z</time>
      </trkpt>
      <trkpt lat="47.30199" lon="-1.5657">
        <ele>29</ele>
        <time>2019-10-17T13:40:42.000Z</time>
      </trkpt>
      <trkpt lat="47.30192" lon="-1.56572">
        <ele>29</ele>
        <time>2019-10-17T13:40:43.000Z</time>
      </trkpt>
      <trkpt lat="47.30185" lon="-1.56574">
        <ele>29</ele>
        <time>2019-10-17T13:40:44.000Z</time>
      </trkpt>
      <trkpt lat="47.30178" lon="-1.56575">
        <ele>28</ele>
        <time>2019-10-17T13:40:45.000Z</time>
      </trkpt>
      <trkpt lat="47.30172" lon="-1.56578">
        <ele>28</ele>
        <time>2019-10-17T13:40:46.000Z</time>
      </trkpt>
      <trkpt lat="47.30165" lon="-1.56583">
        <ele>28</ele>
        <time>2019-10-17T13:40:47.000Z</time>
      </trkpt>
      <trkpt lat="47.30159" lon="-1.56586">
        <ele>28</ele>
        <time>2019-10-17T13:40:48.000Z</time>
      </trkpt>
      <trkpt lat="47.30152" lon="-1.5659">
        <ele>28</ele>
        <time>2019-10-17T13:40:49.000Z</time>
      </trkpt>
      <trkpt lat="47.30145" lon="-1.56594">
        <ele>27</ele>
        <time>2019-10-17T13:40:50.000Z</time>
      </trkpt>
      <trkpt lat="47.30138" lon="-1.56596">
        <ele>27</ele>
        <time>2019-10-17T13:40:51.000Z</time>
      </trkpt>
      <trkpt lat="47.30131" lon="-1.56597">
        <ele>27</ele>
        <time>2019-10-17T13:40:52.000Z</time>
      </trkpt>
      <trkpt lat="47.30125" lon="-1.56598">
        <ele>26</ele>
        <time>2019-10-17T13:40:53.000Z</time>
      </trkpt>
      <trkpt lat="47.30118" lon="-1.56598">
        <ele>26</ele>
        <time>2019-10-17T13:40:54.000Z</time>
      </trkpt>
      <trkpt lat="47.30111" lon="-1.56599">
        <ele>25</ele>
        <time>2019-10-17T13:40:55.000Z</time>
      </trkpt>
      <trkpt lat="47.30104" lon="-1.566">
        <ele>25</ele>
        <time>2019-10-17T13:40:56.000Z</time>
      </trkpt>
      <trkpt lat="47.30098" lon="-1.56601">
        <ele>24</ele>
        <time>2019-10-17T13:40:57.000Z</time>
      </trkpt>
      <trkpt lat="47.30092" lon="-1.56601">
        <ele>24</ele>
        <time>2019-10-17T13:40:58.000Z</time>
      </trkpt>
      <trkpt lat="47.30086" lon="-1.56601">
        <ele>24</ele>
        <time>2019-10-17T13:40:59.000Z</time>
      </trkpt>
      <trkpt lat="47.3008" lon="-1.566">
        <ele>23</ele>
        <time>2019-10-17T13:41:00.000Z</time>
      </trkpt>
      <trkpt lat="47.30074" lon="-1.56598">
        <ele>23</ele>
        <time>2019-10-17T13:41:01.000Z</time>
      </trkpt>
      <trkpt lat="47.30068" lon="-1.56596">
        <ele>23</ele>
        <time>2019-10-17T13:41:02.000Z</time>
      </trkpt>
      <trkpt lat="47.30061" lon="-1.56594">
        <ele>22</ele>
        <time>2019-10-17T13:41:03.000Z</time>
      </trkpt>
      <trkpt lat="47.30055" lon="-1.56592">
        <ele>22</ele>
        <time>2019-10-17T13:41:04.000Z</time>
      </trkpt>
      <trkpt lat="47.30048" lon="-1.56592">
        <ele>22</ele>
        <time>2019-10-17T13:41:05.000Z</time>
      </trkpt>
      <trkpt lat="47.30042" lon="-1.56591">
        <ele>21</ele>
        <time>2019-10-17T13:41:06.000Z</time>
      </trkpt>
      <trkpt lat="47.30036" lon="-1.56591">
        <ele>21</ele>
        <time>2019-10-17T13:41:07.000Z</time>
      </trkpt>
      <trkpt lat="47.3003" lon="-1.56592">
        <ele>21</ele>
        <time>2019-10-17T13:41:08.000Z</time>
      </trkpt>
      <trkpt lat="47.30025" lon="-1.56593">
        <ele>21</ele>
        <time>2019-10-17T13:41:09.000Z</time>
      </trkpt>
      <trkpt lat="47.30019" lon="-1.56594">
        <ele>21</ele>
        <time>2019-10-17T13:41:10.000Z</time>
      </trkpt>
      <trkpt lat="47.30014" lon="-1.56595">
        <ele>20</ele>
        <time>2019-10-17T13:41:11.000Z</time>
      </trkpt>
      <trkpt lat="47.3001" lon="-1.56596">
        <ele>20</ele>
        <time>2019-10-17T13:41:12.000Z</time>
      </trkpt>
      <trkpt lat="47.30005" lon="-1.56598">
        <ele>20</ele>
        <time>2019-10-17T13:41:13.000Z</time>
      </trkpt>
      <trkpt lat="47.3" lon="-1.56599">
        <ele>20</ele>
        <time>2019-10-17T13:41:14.000Z</time>
      </trkpt>
      <trkpt lat="47.29996" lon="-1.566">
        <ele>20</ele>
        <time>2019-10-17T13:41:15.000Z</time>
      </trkpt>
      <trkpt lat="47.29991" lon="-1.56601">
        <ele>20</ele>
        <time>2019-10-17T13:41:16.000Z</time>
      </trkpt>
      <trkpt lat="47.29987" lon="-1.56602">
        <ele>20</ele>
        <time>2019-10-17T13:41:17.000Z</time>
      </trkpt>
      <trkpt lat="47.29982" lon="-1.56602">
        <ele>20</ele>
        <time>2019-10-17T13:41:18.000Z</time>
      </trkpt>
      <trkpt lat="47.29977" lon="-1.56603">
        <ele>20</ele>
        <time>2019-10-17T13:41:19.000Z</time>
      </trkpt>
      <trkpt lat="47.29972" lon="-1.56603">
        <ele>20</ele>
        <time>2019-10-17T13:41:20.000Z</time>
      </trkpt>
      <trkpt lat="47.29967" lon="-1.56604">
        <ele>20</ele>
        <time>2019-10-17T13:41:21.000Z</time>
      </trkpt>
      <trkpt lat="47.29962" lon="-1.56604">
        <ele>20</ele>
        <time>2019-10-17T13:41:22.000Z</time>
      </trkpt>
      <trkpt lat="47.29958" lon="-1.56605">
        <ele>20</ele>
        <time>2019-10-17T13:41:23.000Z</time>
      </trkpt>
      <trkpt lat="47.29953" lon="-1.56606">
        <ele>20</ele>
        <time>2019-10-17T13:41:24.000Z</time>
      </trkpt>
      <trkpt lat="47.29948" lon="-1.56606">
        <ele>20</ele>
        <time>2019-10-17T13:41:25.000Z</time>
      </trkpt>
      <trkpt lat="47.29943" lon="-1.56606">
        <ele>20</ele>
        <time>2019-10-17T13:41:26.000Z</time>
      </trkpt>
      <trkpt lat="47.29938" lon="-1.56606">
        <ele>20</ele>
        <time>2019-10-17T13:41:27.000Z</time>
      </trkpt>
      <trkpt lat="47.29934" lon="-1.56606">
        <ele>20</ele>
        <time>2019-10-17T13:41:28.000Z</time>
      </trkpt>
      <trkpt lat="47.29929" lon="-1.56607">
        <ele>20</ele>
        <time>2019-10-17T13:41:29.000Z</time>
      </trkpt>
      <trkpt lat="47.29925" lon="-1.56608">
        <ele>20</ele>
        <time>2019-10-17T13:41:30.000Z</time>
      </trkpt>
      <trkpt lat="47.2992" lon="-1.56608">
        <ele>20</ele>
        <time>2019-10-17T13:41:31.000Z</time>
      </trkpt>
      <trkpt lat="47.29916" lon="-1.56608">
        <ele>20</ele>
        <time>2019-10-17T13:41:32.000Z</time>
      </trkpt>
      <trkpt lat="47.29912" lon="-1.56609">
        <ele>20</ele>
        <time>2019-10-17T13:41:33.000Z</time>
      </trkpt>
      <trkpt lat="47.29907" lon="-1.56609">
        <ele>20</ele>
        <time>2019-10-17T13:41:34.000Z</time>
      </trkpt>
      <trkpt lat="47.29903" lon="-1.56609">
        <ele>20</ele>
        <time>2019-10-17T13:41:35.000Z</time>
      </trkpt>
      <trkpt lat="47.299" lon="-1.5661">
        <ele>20</ele>
        <time>2019-10-17T13:41:36.000Z</time>
      </trkpt>
      <trkpt lat="47.29896" lon="-1.5661">
        <ele>20</ele>
        <time>2019-10-17T13:41:37.000Z</time>
      </trkpt>
      <trkpt lat="47.29893" lon="-1.56611">
        <ele>20</ele>
        <time>2019-10-17T13:41:38.000Z</time>
      </trkpt>
      <trkpt lat="47.2989" lon="-1.5661">
        <ele>20</ele>
        <time>2019-10-17T13:41:39.000Z</time>
      </trkpt>
      <trkpt lat="47.29887" lon="-1.5661">
        <ele>20</ele>
        <time>2019-10-17T13:41:40.000Z</time>
      </trkpt>
      <trkpt lat="47.29885" lon="-1.56609">
        <ele>20</ele>
        <time>2019-10-17T13:41:41.000Z</time>
      </trkpt>
      <trkpt lat="47.29882" lon="-1.56609">
        <ele>21</ele>
        <time>2019-10-17T13:41:42.000Z</time>
      </trkpt>
      <trkpt lat="47.2988" lon="-1.56609">
        <ele>21</ele>
        <time>2019-10-17T13:41:43.000Z</time>
      </trkpt>
      <trkpt lat="47.29878" lon="-1.56609">
        <ele>21</ele>
        <time>2019-10-17T13:41:44.000Z</time>
      </trkpt>
      <trkpt lat="47.29878" lon="-1.56609">
        <ele>21</ele>
        <time>2019-10-17T13:41:45.000Z</time>
      </trkpt>
      <trkpt lat="47.29878" lon="-1.56609">
        <ele>21</ele>
        <time>2019-10-17T13:41:46.000Z</time>
      </trkpt>
      <trkpt lat="47.29874" lon="-1.56612">
        <ele>21</ele>
        <time>2019-10-17T13:41:47.000Z</time>
      </trkpt>
      <trkpt lat="47.29872" lon="-1.56613">
        <ele>21</ele>
        <time>2019-10-17T13:41:48.000Z</time>
      </trkpt>
      <trkpt lat="47.2987" lon="-1.56613">
        <ele>21</ele>
        <time>2019-10-17T13:41:49.000Z</time>
      </trkpt>
      <trkpt lat="47.29867" lon="-1.56612">
        <ele>21</ele>
        <time>2019-10-17T13:41:50.000Z</time>
      </trkpt>
      <trkpt lat="47.29865" lon="-1.56612">
        <ele>21</ele>
        <time>2019-10-17T13:41:51.000Z</time>
      </trkpt>
      <trkpt lat="47.29863" lon="-1.56611">
        <ele>22</ele>
        <time>2019-10-17T13:41:52.000Z</time>
      </trkpt>
      <trkpt lat="47.2986" lon="-1.56611">
        <ele>22</ele>
        <time>2019-10-17T13:41:53.000Z</time>
      </trkpt>
      <trkpt lat="47.29858" lon="-1.56612">
        <ele>22</ele>
        <time>2019-10-17T13:41:54.000Z</time>
      </trkpt>
      <trkpt lat="47.29855" lon="-1.56614">
        <ele>22</ele>
        <time>2019-10-17T13:41:55.000Z</time>
      </trkpt>
      <trkpt lat="47.29853" lon="-1.56615">
        <ele>22</ele>
        <time>2019-10-17T13:41:56.000Z</time>
      </trkpt>
      <trkpt lat="47.29851" lon="-1.56617">
        <ele>22</ele>
        <time>2019-10-17T13:41:57.000Z</time>
      </trkpt>
      <trkpt lat="47.29848" lon="-1.5662">
        <ele>23</ele>
        <time>2019-10-17T13:41:58.000Z</time>
      </trkpt>
      <trkpt lat="47.29846" lon="-1.56623">
        <ele>23</ele>
        <time>2019-10-17T13:41:59.000Z</time>
      </trkpt>
      <trkpt lat="47.29843" lon="-1.56625">
        <ele>23</ele>
        <time>2019-10-17T13:42:00.000Z</time>
      </trkpt>
      <trkpt lat="47.2984" lon="-1.56626">
        <ele>23</ele>
        <time>2019-10-17T13:42:01.000Z</time>
      </trkpt>
      <trkpt lat="47.29837" lon="-1.56626">
        <ele>23</ele>
        <time>2019-10-17T13:42:02.000Z</time>
      </trkpt>
      <trkpt lat="47.29834" lon="-1.56627">
        <ele>23</ele>
        <time>2019-10-17T13:42:03.000Z</time>
      </trkpt>
      <trkpt lat="47.2983" lon="-1.56628">
        <ele>23</ele>
        <time>2019-10-17T13:42:04.000Z</time>
      </trkpt>
      <trkpt lat="47.29827" lon="-1.56629">
        <ele>23</ele>
        <time>2019-10-17T13:42:05.000Z</time>
      </trkpt>
      <trkpt lat="47.29823" lon="-1.5663">
        <ele>24</ele>
        <time>2019-10-17T13:42:06.000Z</time>
      </trkpt>
      <trkpt lat="47.29819" lon="-1.5663">
        <ele>24</ele>
        <time>2019-10-17T13:42:07.000Z</time>
      </trkpt>
      <trkpt lat="47.29815" lon="-1.56631">
        <ele>24</ele>
        <time>2019-10-17T13:42:08.000Z</time>
      </trkpt>
      <trkpt lat="47.29811" lon="-1.56633">
        <ele>24</ele>
        <time>2019-10-17T13:42:09.000Z</time>
      </trkpt>
      <trkpt lat="47.29807" lon="-1.56634">
        <ele>24</ele>
        <time>2019-10-17T13:42:10.000Z</time>
      </trkpt>
      <trkpt lat="47.29803" lon="-1.56636">
        <ele>25</ele>
        <time>2019-10-17T13:42:11.000Z</time>
      </trkpt>
      <trkpt lat="47.29799" lon="-1.56637">
        <ele>25</ele>
        <time>2019-10-17T13:42:12.000Z</time>
      </trkpt>
      <trkpt lat="47.29795" lon="-1.56638">
        <ele>25</ele>
        <time>2019-10-17T13:42:13.000Z</time>
      </trkpt>
      <trkpt lat="47.29791" lon="-1.56639">
        <ele>25</ele>
        <time>2019-10-17T13:42:14.000Z</time>
      </trkpt>
      <trkpt lat="47.29788" lon="-1.5664">
        <ele>25</ele>
        <time>2019-10-17T13:42:15.000Z</time>
      </trkpt>
      <trkpt lat="47.29784" lon="-1.56642">
        <ele>25</ele>
        <time>2019-10-17T13:42:16.000Z</time>
      </trkpt>
      <trkpt lat="47.29781" lon="-1.56643">
        <ele>25</ele>
        <time>2019-10-17T13:42:17.000Z</time>
      </trkpt>
      <trkpt lat="47.29777" lon="-1.56644">
        <ele>25</ele>
        <time>2019-10-17T13:42:18.000Z</time>
      </trkpt>
      <trkpt lat="47.29774" lon="-1.56645">
        <ele>25</ele>
        <time>2019-10-17T13:42:19.000Z</time>
      </trkpt>
      <trkpt lat="47.2977" lon="-1.56646">
        <ele>25</ele>
        <time>2019-10-17T13:42:20.000Z</time>
      </trkpt>
      <trkpt lat="47.29767" lon="-1.56646">
        <ele>25</ele>
        <time>2019-10-17T13:42:21.000Z</time>
      </trkpt>
      <trkpt lat="47.29763" lon="-1.56646">
        <ele>26</ele>
        <time>2019-10-17T13:42:22.000Z</time>
      </trkpt>
      <trkpt lat="47.2976" lon="-1.56645">
        <ele>26</ele>
        <time>2019-10-17T13:42:23.000Z</time>
      </trkpt>
      <trkpt lat="47.29756" lon="-1.56645">
        <ele>26</ele>
        <time>2019-10-17T13:42:24.000Z</time>
      </trkpt>
      <trkpt lat="47.29753" lon="-1.56645">
        <ele>26</ele>
        <time>2019-10-17T13:42:25.000Z</time>
      </trkpt>
      <trkpt lat="47.29749" lon="-1.56645">
        <ele>26</ele>
        <time>2019-10-17T13:42:26.000Z</time>
      </trkpt>
      <trkpt lat="47.29746" lon="-1.56645">
        <ele>26</ele>
        <time>2019-10-17T13:42:27.000Z</time>
      </trkpt>
      <trkpt lat="47.29742" lon="-1.56644">
        <ele>26</ele>
        <time>2019-10-17T13:42:28.000Z</time>
      </trkpt>
      <trkpt lat="47.29739" lon="-1.56645">
        <ele>26</ele>
        <time>2019-10-17T13:42:29.000Z</time>
      </trkpt>
      <trkpt lat="47.29736" lon="-1.56646">
        <ele>26</ele>
        <time>2019-10-17T13:42:30.000Z</time>
      </trkpt>
      <trkpt lat="47.29732" lon="-1.56647">
        <ele>26</ele>
        <time>2019-10-17T13:42:31.000Z</time>
      </trkpt>
      <trkpt lat="47.29729" lon="-1.56648">
        <ele>26</ele>
        <time>2019-10-17T13:42:32.000Z</time>
      </trkpt>
      <trkpt lat="47.29725" lon="-1.56648">
        <ele>26</ele>
        <time>2019-10-17T13:42:33.000Z</time>
      </trkpt>
      <trkpt lat="47.29721" lon="-1.56648">
        <ele>26</ele>
        <time>2019-10-17T13:42:34.000Z</time>
      </trkpt>
      <trkpt lat="47.29718" lon="-1.56649">
        <ele>26</ele>
        <time>2019-10-17T13:42:35.000Z</time>
      </trkpt>
      <trkpt lat="47.29714" lon="-1.56649">
        <ele>26</ele>
        <time>2019-10-17T13:42:36.000Z</time>
      </trkpt>
      <trkpt lat="47.29711" lon="-1.56651">
        <ele>27</ele>
        <time>2019-10-17T13:42:37.000Z</time>
      </trkpt>
      <trkpt lat="47.29708" lon="-1.56652">
        <ele>27</ele>
        <time>2019-10-17T13:42:38.000Z</time>
      </trkpt>
      <trkpt lat="47.29705" lon="-1.56654">
        <ele>27</ele>
        <time>2019-10-17T13:42:39.000Z</time>
      </trkpt>
      <trkpt lat="47.29702" lon="-1.56656">
        <ele>27</ele>
        <time>2019-10-17T13:42:40.000Z</time>
      </trkpt>
      <trkpt lat="47.297" lon="-1.56658">
        <ele>27</ele>
        <time>2019-10-17T13:42:41.000Z</time>
      </trkpt>
      <trkpt lat="47.29697" lon="-1.56661">
        <ele>27</ele>
        <time>2019-10-17T13:42:42.000Z</time>
      </trkpt>
      <trkpt lat="47.29694" lon="-1.56663">
        <ele>27</ele>
        <time>2019-10-17T13:42:43.000Z</time>
      </trkpt>
      <trkpt lat="47.29691" lon="-1.56664">
        <ele>27</ele>
        <time>2019-10-17T13:42:44.000Z</time>
      </trkpt>
      <trkpt lat="47.29689" lon="-1.56666">
        <ele>27</ele>
        <time>2019-10-17T13:42:45.000Z</time>
      </trkpt>
      <trkpt lat="47.29686" lon="-1.56668">
        <ele>27</ele>
        <time>2019-10-17T13:42:46.000Z</time>
      </trkpt>
      <trkpt lat="47.29683" lon="-1.56668">
        <ele>27</ele>
        <time>2019-10-17T13:42:47.000Z</time>
      </trkpt>
      <trkpt lat="47.2968" lon="-1.56669">
        <ele>27</ele>
        <time>2019-10-17T13:42:48.000Z</time>
      </trkpt>
      <trkpt lat="47.29676" lon="-1.56669">
        <ele>27</ele>
        <time>2019-10-17T13:42:49.000Z</time>
      </trkpt>
      <trkpt lat="47.29673" lon="-1.5667">
        <ele>27</ele>
        <time>2019-10-17T13:42:50.000Z</time>
      </trkpt>
      <trkpt lat="47.2967" lon="-1.56672">
        <ele>27</ele>
        <time>2019-10-17T13:42:51.000Z</time>
      </trkpt>
      <trkpt lat="47.29667" lon="-1.56673">
        <ele>27</ele>
        <time>2019-10-17T13:42:52.000Z</time>
      </trkpt>
      <trkpt lat="47.29664" lon="-1.56675">
        <ele>28</ele>
        <time>2019-10-17T13:42:53.000Z</time>
      </trkpt>
      <trkpt lat="47.29661" lon="-1.56677">
        <ele>28</ele>
        <time>2019-10-17T13:42:54.000Z</time>
      </trkpt>
      <trkpt lat="47.29657" lon="-1.56678">
        <ele>28</ele>
        <time>2019-10-17T13:42:55.000Z</time>
      </trkpt>
      <trkpt lat="47.29654" lon="-1.56679">
        <ele>28</ele>
        <time>2019-10-17T13:42:56.000Z</time>
      </trkpt>
      <trkpt lat="47.29651" lon="-1.5668">
        <ele>28</ele>
        <time>2019-10-17T13:42:57.000Z</time>
      </trkpt>
      <trkpt lat="47.29648" lon="-1.56682">
        <ele>28</ele>
        <time>2019-10-17T13:42:58.000Z</time>
      </trkpt>
      <trkpt lat="47.29645" lon="-1.56685">
        <ele>28</ele>
        <time>2019-10-17T13:42:59.000Z</time>
      </trkpt>
      <trkpt lat="47.29642" lon="-1.56688">
        <ele>28</ele>
        <time>2019-10-17T13:43:00.000Z</time>
      </trkpt>
      <trkpt lat="47.29638" lon="-1.56691">
        <ele>28</ele>
        <time>2019-10-17T13:43:01.000Z</time>
      </trkpt>
      <trkpt lat="47.29635" lon="-1.56693">
        <ele>28</ele>
        <time>2019-10-17T13:43:02.000Z</time>
      </trkpt>
      <trkpt lat="47.2963" lon="-1.56695">
        <ele>28</ele>
        <time>2019-10-17T13:43:03.000Z</time>
      </trkpt>
      <trkpt lat="47.29626" lon="-1.56697">
        <ele>29</ele>
        <time>2019-10-17T13:43:04.000Z</time>
      </trkpt>
      <trkpt lat="47.29623" lon="-1.567">
        <ele>29</ele>
        <time>2019-10-17T13:43:05.000Z</time>
      </trkpt>
      <trkpt lat="47.29619" lon="-1.56703">
        <ele>29</ele>
        <time>2019-10-17T13:43:06.000Z</time>
      </trkpt>
      <trkpt lat="47.29616" lon="-1.56706">
        <ele>29</ele>
        <time>2019-10-17T13:43:07.000Z</time>
      </trkpt>
      <trkpt lat="47.29612" lon="-1.56708">
        <ele>29</ele>
        <time>2019-10-17T13:43:08.000Z</time>
      </trkpt>
      <trkpt lat="47.29609" lon="-1.5671">
        <ele>29</ele>
        <time>2019-10-17T13:43:09.000Z</time>
      </trkpt>
      <trkpt lat="47.29606" lon="-1.56711">
        <ele>30</ele>
        <time>2019-10-17T13:43:10.000Z</time>
      </trkpt>
      <trkpt lat="47.29605" lon="-1.56712">
        <ele>30</ele>
        <time>2019-10-17T13:43:11.000Z</time>
      </trkpt>
      <trkpt lat="47.29605" lon="-1.56714">
        <ele>30</ele>
        <time>2019-10-17T13:43:12.000Z</time>
      </trkpt>
      <trkpt lat="47.29605" lon="-1.56716">
        <ele>30</ele>
        <time>2019-10-17T13:43:13.000Z</time>
      </trkpt>
      <trkpt lat="47.29605" lon="-1.56719">
        <ele>30</ele>
        <time>2019-10-17T13:43:14.000Z</time>
      </trkpt>
      <trkpt lat="47.29605" lon="-1.56723">
        <ele>30</ele>
        <time>2019-10-17T13:43:15.000Z</time>
      </trkpt>
      <trkpt lat="47.29605" lon="-1.56727">
        <ele>30</ele>
        <time>2019-10-17T13:43:16.000Z</time>
      </trkpt>
      <trkpt lat="47.29604" lon="-1.5673">
        <ele>30</ele>
        <time>2019-10-17T13:43:17.000Z</time>
      </trkpt>
      <trkpt lat="47.29602" lon="-1.56732">
        <ele>30</ele>
        <time>2019-10-17T13:43:18.000Z</time>
      </trkpt>
      <trkpt lat="47.29599" lon="-1.56732">
        <ele>30</ele>
        <time>2019-10-17T13:43:19.000Z</time>
      </trkpt>
      <trkpt lat="47.29595" lon="-1.56733">
        <ele>31</ele>
        <time>2019-10-17T13:43:20.000Z</time>
      </trkpt>
      <trkpt lat="47.29592" lon="-1.56733">
        <ele>31</ele>
        <time>2019-10-17T13:43:21.000Z</time>
      </trkpt>
      <trkpt lat="47.29588" lon="-1.56732">
        <ele>31</ele>
        <time>2019-10-17T13:43:22.000Z</time>
      </trkpt>
      <trkpt lat="47.29584" lon="-1.56732">
        <ele>31</ele>
        <time>2019-10-17T13:43:23.000Z</time>
      </trkpt>
      <trkpt lat="47.2958" lon="-1.56733">
        <ele>31</ele>
        <time>2019-10-17T13:43:24.000Z</time>
      </trkpt>
      <trkpt lat="47.29576" lon="-1.56734">
        <ele>31</ele>
        <time>2019-10-17T13:43:25.000Z</time>
      </trkpt>
      <trkpt lat="47.29573" lon="-1.56735">
        <ele>31</ele>
        <time>2019-10-17T13:43:26.000Z</time>
      </trkpt>
      <trkpt lat="47.29569" lon="-1.56735">
        <ele>32</ele>
        <time>2019-10-17T13:43:27.000Z</time>
      </trkpt>
      <trkpt lat="47.29565" lon="-1.56736">
        <ele>32</ele>
        <time>2019-10-17T13:43:28.000Z</time>
      </trkpt>
      <trkpt lat="47.29561" lon="-1.56738">
        <ele>32</ele>
        <time>2019-10-17T13:43:29.000Z</time>
      </trkpt>
      <trkpt lat="47.29557" lon="-1.56739">
        <ele>32</ele>
        <time>2019-10-17T13:43:30.000Z</time>
      </trkpt>
      <trkpt lat="47.29553" lon="-1.56739">
        <ele>32</ele>
        <time>2019-10-17T13:43:31.000Z</time>
      </trkpt>
      <trkpt lat="47.29549" lon="-1.56739">
        <ele>33</ele>
        <time>2019-10-17T13:43:32.000Z</time>
      </trkpt>
      <trkpt lat="47.29546" lon="-1.56738">
        <ele>33</ele>
        <time>2019-10-17T13:43:33.000Z</time>
      </trkpt>
      <trkpt lat="47.29543" lon="-1.56737">
        <ele>33</ele>
        <time>2019-10-17T13:43:34.000Z</time>
      </trkpt>
      <trkpt lat="47.29541" lon="-1.56738">
        <ele>33</ele>
        <time>2019-10-17T13:43:35.000Z</time>
      </trkpt>
      <trkpt lat="47.29539" lon="-1.56739">
        <ele>33</ele>
        <time>2019-10-17T13:43:36.000Z</time>
      </trkpt>
      <trkpt lat="47.29538" lon="-1.56741">
        <ele>33</ele>
        <time>2019-10-17T13:43:37.000Z</time>
      </trkpt>
      <trkpt lat="47.29537" lon="-1.56744">
        <ele>34</ele>
        <time>2019-10-17T13:43:38.000Z</time>
      </trkpt>
      <trkpt lat="47.29537" lon="-1.56749">
        <ele>34</ele>
        <time>2019-10-17T13:43:39.000Z</time>
      </trkpt>
      <trkpt lat="47.29536" lon="-1.56755">
        <ele>34</ele>
        <time>2019-10-17T13:43:40.000Z</time>
      </trkpt>
      <trkpt lat="47.29536" lon="-1.5676">
        <ele>34</ele>
        <time>2019-10-17T13:43:41.000Z</time>
      </trkpt>
      <trkpt lat="47.29537" lon="-1.56765">
        <ele>34</ele>
        <time>2019-10-17T13:43:42.000Z</time>
      </trkpt>
      <trkpt lat="47.29537" lon="-1.5677">
        <ele>34</ele>
        <time>2019-10-17T13:43:43.000Z</time>
      </trkpt>
      <trkpt lat="47.29538" lon="-1.56775">
        <ele>34</ele>
        <time>2019-10-17T13:43:44.000Z</time>
      </trkpt>
      <trkpt lat="47.29538" lon="-1.56781">
        <ele>34</ele>
        <time>2019-10-17T13:43:45.000Z</time>
      </trkpt>
      <trkpt lat="47.29536" lon="-1.56786">
        <ele>34</ele>
        <time>2019-10-17T13:43:46.000Z</time>
      </trkpt>
      <trkpt lat="47.29533" lon="-1.56791">
        <ele>34</ele>
        <time>2019-10-17T13:43:47.000Z</time>
      </trkpt>
      <trkpt lat="47.2953" lon="-1.56796">
        <ele>34</ele>
        <time>2019-10-17T13:43:48.000Z</time>
      </trkpt>
      <trkpt lat="47.29527" lon="-1.56802">
        <ele>34</ele>
        <time>2019-10-17T13:43:49.000Z</time>
      </trkpt>
      <trkpt lat="47.29524" lon="-1.56808">
        <ele>34</ele>
        <time>2019-10-17T13:43:50.000Z</time>
      </trkpt>
      <trkpt lat="47.29522" lon="-1.56815">
        <ele>34</ele>
        <time>2019-10-17T13:43:51.000Z</time>
      </trkpt>
      <trkpt lat="47.29521" lon="-1.56824">
        <ele>34</ele>
        <time>2019-10-17T13:43:52.000Z</time>
      </trkpt>
      <trkpt lat="47.29519" lon="-1.56831">
        <ele>34</ele>
        <time>2019-10-17T13:43:53.000Z</time>
      </trkpt>
      <trkpt lat="47.29518" lon="-1.5684">
        <ele>33</ele>
        <time>2019-10-17T13:43:54.000Z</time>
      </trkpt>
      <trkpt lat="47.29517" lon="-1.56847">
        <ele>33</ele>
        <time>2019-10-17T13:43:55.000Z</time>
      </trkpt>
      <trkpt lat="47.29516" lon="-1.56855">
        <ele>32</ele>
        <time>2019-10-17T13:43:56.000Z</time>
      </trkpt>
      <trkpt lat="47.29515" lon="-1.56863">
        <ele>32</ele>
        <time>2019-10-17T13:43:57.000Z</time>
      </trkpt>
      <trkpt lat="47.29515" lon="-1.56871">
        <ele>32</ele>
        <time>2019-10-17T13:43:58.000Z</time>
      </trkpt>
      <trkpt lat="47.29514" lon="-1.56878">
        <ele>31</ele>
        <time>2019-10-17T13:43:59.000Z</time>
      </trkpt>
      <trkpt lat="47.29513" lon="-1.56884">
        <ele>31</ele>
        <time>2019-10-17T13:44:00.000Z</time>
      </trkpt>
      <trkpt lat="47.29513" lon="-1.56891">
        <ele>30</ele>
        <time>2019-10-17T13:44:01.000Z</time>
      </trkpt>
      <trkpt lat="47.29514" lon="-1.56898">
        <ele>30</ele>
        <time>2019-10-17T13:44:02.000Z</time>
      </trkpt>
      <trkpt lat="47.29513" lon="-1.56903">
        <ele>29</ele>
        <time>2019-10-17T13:44:03.000Z</time>
      </trkpt>
      <trkpt lat="47.29513" lon="-1.56908">
        <ele>29</ele>
        <time>2019-10-17T13:44:04.000Z</time>
      </trkpt>
      <trkpt lat="47.29512" lon="-1.56914">
        <ele>29</ele>
        <time>2019-10-17T13:44:05.000Z</time>
      </trkpt>
      <trkpt lat="47.29512" lon="-1.5692">
        <ele>28</ele>
        <time>2019-10-17T13:44:06.000Z</time>
      </trkpt>
      <trkpt lat="47.29512" lon="-1.56926">
        <ele>28</ele>
        <time>2019-10-17T13:44:07.000Z</time>
      </trkpt>
      <trkpt lat="47.29513" lon="-1.56932">
        <ele>28</ele>
        <time>2019-10-17T13:44:08.000Z</time>
      </trkpt>
      <trkpt lat="47.29515" lon="-1.56938">
        <ele>27</ele>
        <time>2019-10-17T13:44:09.000Z</time>
      </trkpt>
      <trkpt lat="47.29515" lon="-1.56944">
        <ele>27</ele>
        <time>2019-10-17T13:44:10.000Z</time>
      </trkpt>
      <trkpt lat="47.29515" lon="-1.56948">
        <ele>27</ele>
        <time>2019-10-17T13:44:11.000Z</time>
      </trkpt>
      <trkpt lat="47.29513" lon="-1.56951">
        <ele>27</ele>
        <time>2019-10-17T13:44:12.000Z</time>
      </trkpt>
      <trkpt lat="47.29509" lon="-1.56954">
        <ele>27</ele>
        <time>2019-10-17T13:44:13.000Z</time>
      </trkpt>
      <trkpt lat="47.29506" lon="-1.56956">
        <ele>27</ele>
        <time>2019-10-17T13:44:14.000Z</time>
      </trkpt>
      <trkpt lat="47.29504" lon="-1.56958">
        <ele>26</ele>
        <time>2019-10-17T13:44:15.000Z</time>
      </trkpt>
      <trkpt lat="47.295" lon="-1.56959">
        <ele>26</ele>
        <time>2019-10-17T13:44:16.000Z</time>
      </trkpt>
      <trkpt lat="47.29497" lon="-1.56961">
        <ele>26</ele>
        <time>2019-10-17T13:44:17.000Z</time>
      </trkpt>
      <trkpt lat="47.29494" lon="-1.56961">
        <ele>26</ele>
        <time>2019-10-17T13:44:18.000Z</time>
      </trkpt>
      <trkpt lat="47.29491" lon="-1.5696">
        <ele>26</ele>
        <time>2019-10-17T13:44:19.000Z</time>
      </trkpt>
      <trkpt lat="47.29488" lon="-1.5696">
        <ele>26</ele>
        <time>2019-10-17T13:44:20.000Z</time>
      </trkpt>
      <trkpt lat="47.29485" lon="-1.5696">
        <ele>26</ele>
        <time>2019-10-17T13:44:21.000Z</time>
      </trkpt>
      <trkpt lat="47.29482" lon="-1.5696">
        <ele>26</ele>
        <time>2019-10-17T13:44:22.000Z</time>
      </trkpt>
      <trkpt lat="47.29479" lon="-1.5696">
        <ele>26</ele>
        <time>2019-10-17T13:44:23.000Z</time>
      </trkpt>
      <trkpt lat="47.29475" lon="-1.5696">
        <ele>26</ele>
        <time>2019-10-17T13:44:24.000Z</time>
      </trkpt>
      <trkpt lat="47.29471" lon="-1.56959">
        <ele>26</ele>
        <time>2019-10-17T13:44:25.000Z</time>
      </trkpt>
      <trkpt lat="47.29467" lon="-1.56958">
        <ele>26</ele>
        <time>2019-10-17T13:44:26.000Z</time>
      </trkpt>
      <trkpt lat="47.29463" lon="-1.56958">
        <ele>26</ele>
        <time>2019-10-17T13:44:27.000Z</time>
      </trkpt>
      <trkpt lat="47.2946" lon="-1.56957">
        <ele>26</ele>
        <time>2019-10-17T13:44:28.000Z</time>
      </trkpt>
      <trkpt lat="47.29458" lon="-1.56956">
        <ele>26</ele>
        <time>2019-10-17T13:44:29.000Z</time>
      </trkpt>
      <trkpt lat="47.29456" lon="-1.56955">
        <ele>26</ele>
        <time>2019-10-17T13:44:30.000Z</time>
      </trkpt>
      <trkpt lat="47.29455" lon="-1.56954">
        <ele>26</ele>
        <time>2019-10-17T13:44:31.000Z</time>
      </trkpt>
      <trkpt lat="47.29455" lon="-1.56954">
        <ele>26</ele>
        <time>2019-10-17T13:44:32.000Z</time>
      </trkpt>
      <trkpt lat="47.29455" lon="-1.56955">
        <ele>26</ele>
        <time>2019-10-17T13:44:33.000Z</time>
      </trkpt>
      <trkpt lat="47.29458" lon="-1.56965">
        <ele>29</ele>
        <time>2019-10-17T13:44:34.000Z</time>
      </trkpt>
      <trkpt lat="47.29458" lon="-1.56964">
        <ele>29</ele>
        <time>2019-10-17T13:44:35.000Z</time>
      </trkpt>
      <trkpt lat="47.29455" lon="-1.56961">
        <ele>29</ele>
        <time>2019-10-17T13:44:36.000Z</time>
      </trkpt>
      <trkpt lat="47.29454" lon="-1.5696">
        <ele>29</ele>
        <time>2019-10-17T13:44:37.000Z</time>
      </trkpt>
      <trkpt lat="47.29452" lon="-1.56958">
        <ele>29</ele>
        <time>2019-10-17T13:44:38.000Z</time>
      </trkpt>
      <trkpt lat="47.29452" lon="-1.56957">
        <ele>29</ele>
        <time>2019-10-17T13:44:39.000Z</time>
      </trkpt>
      <trkpt lat="47.29452" lon="-1.56955">
        <ele>29</ele>
        <time>2019-10-17T13:44:40.000Z</time>
      </trkpt>
      <trkpt lat="47.29453" lon="-1.56954">
        <ele>29</ele>
        <time>2019-10-17T13:44:41.000Z</time>
      </trkpt>
      <trkpt lat="47.29453" lon="-1.56953">
        <ele>29</ele>
        <time>2019-10-17T13:44:42.000Z</time>
      </trkpt>
      <trkpt lat="47.29453" lon="-1.56951">
        <ele>29</ele>
        <time>2019-10-17T13:44:43.000Z</time>
      </trkpt>
      <trkpt lat="47.29453" lon="-1.56951">
        <ele>29</ele>
        <time>2019-10-17T13:44:44.000Z</time>
      </trkpt>
      <trkpt lat="47.29447" lon="-1.56935">
        <ele>29</ele>
        <time>2019-10-17T13:44:45.000Z</time>
      </trkpt>
      <trkpt lat="47.29445" lon="-1.56932">
        <ele>29</ele>
        <time>2019-10-17T13:44:46.000Z</time>
      </trkpt>
      <trkpt lat="47.29444" lon="-1.56928">
        <ele>28</ele>
        <time>2019-10-17T13:44:47.000Z</time>
      </trkpt>
      <trkpt lat="47.29442" lon="-1.56925">
        <ele>28</ele>
        <time>2019-10-17T13:44:48.000Z</time>
      </trkpt>
      <trkpt lat="47.29441" lon="-1.56922">
        <ele>28</ele>
        <time>2019-10-17T13:44:49.000Z</time>
      </trkpt>
      <trkpt lat="47.29441" lon="-1.56919">
        <ele>27</ele>
        <time>2019-10-17T13:44:50.000Z</time>
      </trkpt>
      <trkpt lat="47.2944" lon="-1.56916">
        <ele>27</ele>
        <time>2019-10-17T13:44:51.000Z</time>
      </trkpt>
      <trkpt lat="47.29439" lon="-1.56913">
        <ele>27</ele>
        <time>2019-10-17T13:44:52.000Z</time>
      </trkpt>
      <trkpt lat="47.29439" lon="-1.56911">
        <ele>26</ele>
        <time>2019-10-17T13:44:53.000Z</time>
      </trkpt>
      <trkpt lat="47.29438" lon="-1.56908">
        <ele>26</ele>
        <time>2019-10-17T13:44:54.000Z</time>
      </trkpt>
      <trkpt lat="47.29437" lon="-1.56905">
        <ele>25</ele>
        <time>2019-10-17T13:44:55.000Z</time>
      </trkpt>
      <trkpt lat="47.29436" lon="-1.56902">
        <ele>25</ele>
        <time>2019-10-17T13:44:56.000Z</time>
      </trkpt>
      <trkpt lat="47.29436" lon="-1.569">
        <ele>24</ele>
        <time>2019-10-17T13:44:57.000Z</time>
      </trkpt>
      <trkpt lat="47.29435" lon="-1.56897">
        <ele>24</ele>
        <time>2019-10-17T13:44:58.000Z</time>
      </trkpt>
      <trkpt lat="47.29435" lon="-1.56895">
        <ele>23</ele>
        <time>2019-10-17T13:44:59.000Z</time>
      </trkpt>
      <trkpt lat="47.29435" lon="-1.56894">
        <ele>23</ele>
        <time>2019-10-17T13:45:00.000Z</time>
      </trkpt>
      <trkpt lat="47.29435" lon="-1.56892">
        <ele>22</ele>
        <time>2019-10-17T13:45:01.000Z</time>
      </trkpt>
      <trkpt lat="47.29435" lon="-1.56891">
        <ele>22</ele>
        <time>2019-10-17T13:45:02.000Z</time>
      </trkpt>
      <trkpt lat="47.29435" lon="-1.56888">
        <ele>21</ele>
        <time>2019-10-17T13:45:03.000Z</time>
      </trkpt>
      <trkpt lat="47.29436" lon="-1.56886">
        <ele>21</ele>
        <time>2019-10-17T13:45:04.000Z</time>
      </trkpt>
      <trkpt lat="47.29435" lon="-1.56885">
        <ele>21</ele>
        <time>2019-10-17T13:45:05.000Z</time>
      </trkpt>
      <trkpt lat="47.29436" lon="-1.56884">
        <ele>20</ele>
        <time>2019-10-17T13:45:06.000Z</time>
      </trkpt>
      <trkpt lat="47.29436" lon="-1.56883">
        <ele>20</ele>
        <time>2019-10-17T13:45:07.000Z</time>
      </trkpt>
      <trkpt lat="47.29436" lon="-1.56882">
        <ele>20</ele>
        <time>2019-10-17T13:45:08.000Z</time>
      </trkpt>
      <trkpt lat="47.29437" lon="-1.56881">
        <ele>20</ele>
        <time>2019-10-17T13:45:09.000Z</time>
      </trkpt>
      <trkpt lat="47.29437" lon="-1.5688">
        <ele>20</ele>
        <time>2019-10-17T13:45:10.000Z</time>
      </trkpt>
      <trkpt lat="47.29438" lon="-1.56879">
        <ele>20</ele>
        <time>2019-10-17T13:45:11.000Z</time>
      </trkpt>
      <trkpt lat="47.29438" lon="-1.56878">
        <ele>20</ele>
        <time>2019-10-17T13:45:12.000Z</time>
      </trkpt>
      <trkpt lat="47.29438" lon="-1.56876">
        <ele>21</ele>
        <time>2019-10-17T13:45:13.000Z</time>
      </trkpt>
      <trkpt lat="47.29439" lon="-1.56875">
        <ele>21</ele>
        <time>2019-10-17T13:45:14.000Z</time>
      </trkpt>
      <trkpt lat="47.29439" lon="-1.56874">
        <ele>21</ele>
        <time>2019-10-17T13:45:15.000Z</time>
      </trkpt>
      <trkpt lat="47.2944" lon="-1.56873">
        <ele>21</ele>
        <time>2019-10-17T13:45:16.000Z</time>
      </trkpt>
      <trkpt lat="47.29441" lon="-1.56872">
        <ele>21</ele>
        <time>2019-10-17T13:45:17.000Z</time>
      </trkpt>
      <trkpt lat="47.29441" lon="-1.56871">
        <ele>21</ele>
        <time>2019-10-17T13:45:18.000Z</time>
      </trkpt>
      <trkpt lat="47.29442" lon="-1.5687">
        <ele>21</ele>
        <time>2019-10-17T13:45:19.000Z</time>
      </trkpt>
      <trkpt lat="47.29442" lon="-1.56869">
        <ele>21</ele>
        <time>2019-10-17T13:45:20.000Z</time>
      </trkpt>
      <trkpt lat="47.29443" lon="-1.56869">
        <ele>21</ele>
        <time>2019-10-17T13:45:21.000Z</time>
      </trkpt>
      <trkpt lat="47.29443" lon="-1.56868">
        <ele>22</ele>
        <time>2019-10-17T13:45:22.000Z</time>
      </trkpt>
      <trkpt lat="47.29444" lon="-1.56868">
        <ele>22</ele>
        <time>2019-10-17T13:45:23.000Z</time>
      </trkpt>
      <trkpt lat="47.29445" lon="-1.56867">
        <ele>22</ele>
        <time>2019-10-17T13:45:24.000Z</time>
      </trkpt>
      <trkpt lat="47.29446" lon="-1.56866">
        <ele>22</ele>
        <time>2019-10-17T13:45:25.000Z</time>
      </trkpt>
      <trkpt lat="47.29447" lon="-1.56865">
        <ele>22</ele>
        <time>2019-10-17T13:45:26.000Z</time>
      </trkpt>
      <trkpt lat="47.29449" lon="-1.56864">
        <ele>22</ele>
        <time>2019-10-17T13:45:27.000Z</time>
      </trkpt>
      <trkpt lat="47.2945" lon="-1.56862">
        <ele>22</ele>
        <time>2019-10-17T13:45:28.000Z</time>
      </trkpt>
      <trkpt lat="47.29451" lon="-1.56861">
        <ele>22</ele>
        <time>2019-10-17T13:45:29.000Z</time>
      </trkpt>
      <trkpt lat="47.29452" lon="-1.5686">
        <ele>22</ele>
        <time>2019-10-17T13:45:30.000Z</time>
      </trkpt>
      <trkpt lat="47.29453" lon="-1.5686">
        <ele>22</ele>
        <time>2019-10-17T13:45:31.000Z</time>
      </trkpt>
      <trkpt lat="47.29455" lon="-1.56858">
        <ele>22</ele>
        <time>2019-10-17T13:45:32.000Z</time>
      </trkpt>
      <trkpt lat="47.29456" lon="-1.56857">
        <ele>22</ele>
        <time>2019-10-17T13:45:33.000Z</time>
      </trkpt>
      <trkpt lat="47.29457" lon="-1.56856">
        <ele>22</ele>
        <time>2019-10-17T13:45:34.000Z</time>
      </trkpt>
      <trkpt lat="47.29459" lon="-1.56855">
        <ele>22</ele>
        <time>2019-10-17T13:45:35.000Z</time>
      </trkpt>
      <trkpt lat="47.2946" lon="-1.56854">
        <ele>22</ele>
        <time>2019-10-17T13:45:36.000Z</time>
      </trkpt>
      <trkpt lat="47.29462" lon="-1.56853">
        <ele>22</ele>
        <time>2019-10-17T13:45:37.000Z</time>
      </trkpt>
      <trkpt lat="47.29463" lon="-1.56851">
        <ele>21</ele>
        <time>2019-10-17T13:45:38.000Z</time>
      </trkpt>
      <trkpt lat="47.29464" lon="-1.56849">
        <ele>21</ele>
        <time>2019-10-17T13:45:39.000Z</time>
      </trkpt>
      <trkpt lat="47.29465" lon="-1.56847">
        <ele>21</ele>
        <time>2019-10-17T13:45:40.000Z</time>
      </trkpt>
      <trkpt lat="47.29466" lon="-1.56846">
        <ele>21</ele>
        <time>2019-10-17T13:45:41.000Z</time>
      </trkpt>
      <trkpt lat="47.29467" lon="-1.56844">
        <ele>21</ele>
        <time>2019-10-17T13:45:42.000Z</time>
      </trkpt>
      <trkpt lat="47.29468" lon="-1.56842">
        <ele>21</ele>
        <time>2019-10-17T13:45:43.000Z</time>
      </trkpt>
      <trkpt lat="47.29469" lon="-1.5684">
        <ele>22</ele>
        <time>2019-10-17T13:45:44.000Z</time>
      </trkpt>
      <trkpt lat="47.2947" lon="-1.56839">
        <ele>22</ele>
        <time>2019-10-17T13:45:45.000Z</time>
      </trkpt>
      <trkpt lat="47.2947" lon="-1.56838">
        <ele>22</ele>
        <time>2019-10-17T13:45:46.000Z</time>
      </trkpt>
      <trkpt lat="47.2947" lon="-1.56836">
        <ele>22</ele>
        <time>2019-10-17T13:45:47.000Z</time>
      </trkpt>
      <trkpt lat="47.29471" lon="-1.56834">
        <ele>22</ele>
        <time>2019-10-17T13:45:48.000Z</time>
      </trkpt>
      <trkpt lat="47.29471" lon="-1.56832">
        <ele>22</ele>
        <time>2019-10-17T13:45:49.000Z</time>
      </trkpt>
      <trkpt lat="47.29471" lon="-1.56829">
        <ele>22</ele>
        <time>2019-10-17T13:45:50.000Z</time>
      </trkpt>
      <trkpt lat="47.29471" lon="-1.56826">
        <ele>22</ele>
        <time>2019-10-17T13:45:51.000Z</time>
      </trkpt>
      <trkpt lat="47.29472" lon="-1.56824">
        <ele>22</ele>
        <time>2019-10-17T13:45:52.000Z</time>
      </trkpt>
      <trkpt lat="47.29473" lon="-1.56822">
        <ele>22</ele>
        <time>2019-10-17T13:45:53.000Z</time>
      </trkpt>
      <trkpt lat="47.29475" lon="-1.56821">
        <ele>22</ele>
        <time>2019-10-17T13:45:54.000Z</time>
      </trkpt>
      <trkpt lat="47.29475" lon="-1.56817">
        <ele>22</ele>
        <time>2019-10-17T13:45:55.000Z</time>
      </trkpt>
      <trkpt lat="47.29473" lon="-1.56812">
        <ele>21</ele>
        <time>2019-10-17T13:45:56.000Z</time>
      </trkpt>
      <trkpt lat="47.2947" lon="-1.56808">
        <ele>21</ele>
        <time>2019-10-17T13:45:57.000Z</time>
      </trkpt>
      <trkpt lat="47.29467" lon="-1.56805">
        <ele>21</ele>
        <time>2019-10-17T13:45:58.000Z</time>
      </trkpt>
      <trkpt lat="47.29464" lon="-1.56802">
        <ele>20</ele>
        <time>2019-10-17T13:45:59.000Z</time>
      </trkpt>
      <trkpt lat="47.29461" lon="-1.56798">
        <ele>20</ele>
        <time>2019-10-17T13:46:00.000Z</time>
      </trkpt>
      <trkpt lat="47.29458" lon="-1.56795">
        <ele>20</ele>
        <time>2019-10-17T13:46:01.000Z</time>
      </trkpt>
      <trkpt lat="47.29455" lon="-1.56791">
        <ele>20</ele>
        <time>2019-10-17T13:46:02.000Z</time>
      </trkpt>
      <trkpt lat="47.29451" lon="-1.56787">
        <ele>20</ele>
        <time>2019-10-17T13:46:03.000Z</time>
      </trkpt>
      <trkpt lat="47.29448" lon="-1.56784">
        <ele>20</ele>
        <time>2019-10-17T13:46:04.000Z</time>
      </trkpt>
      <trkpt lat="47.29446" lon="-1.56781">
        <ele>20</ele>
        <time>2019-10-17T13:46:05.000Z</time>
      </trkpt>
      <trkpt lat="47.29442" lon="-1.56778">
        <ele>20</ele>
        <time>2019-10-17T13:46:06.000Z</time>
      </trkpt>
      <trkpt lat="47.29439" lon="-1.56774">
        <ele>20</ele>
        <time>2019-10-17T13:46:07.000Z</time>
      </trkpt>
      <trkpt lat="47.29436" lon="-1.56771">
        <ele>20</ele>
        <time>2019-10-17T13:46:08.000Z</time>
      </trkpt>
      <trkpt lat="47.29432" lon="-1.56768">
        <ele>20</ele>
        <time>2019-10-17T13:46:09.000Z</time>
      </trkpt>
      <trkpt lat="47.29429" lon="-1.56765">
        <ele>20</ele>
        <time>2019-10-17T13:46:10.000Z</time>
      </trkpt>
      <trkpt lat="47.29426" lon="-1.56761">
        <ele>20</ele>
        <time>2019-10-17T13:46:11.000Z</time>
      </trkpt>
      <trkpt lat="47.29423" lon="-1.56756">
        <ele>20</ele>
        <time>2019-10-17T13:46:12.000Z</time>
      </trkpt>
      <trkpt lat="47.2942" lon="-1.56752">
        <ele>20</ele>
        <time>2019-10-17T13:46:13.000Z</time>
      </trkpt>
      <trkpt lat="47.29416" lon="-1.56749">
        <ele>20</ele>
        <time>2019-10-17T13:46:14.000Z</time>
      </trkpt>
      <trkpt lat="47.29413" lon="-1.56745">
        <ele>20</ele>
        <time>2019-10-17T13:46:15.000Z</time>
      </trkpt>
      <trkpt lat="47.2941" lon="-1.56743">
        <ele>20</ele>
        <time>2019-10-17T13:46:16.000Z</time>
      </trkpt>
      <trkpt lat="47.29407" lon="-1.56739">
        <ele>20</ele>
        <time>2019-10-17T13:46:17.000Z</time>
      </trkpt>
      <trkpt lat="47.29403" lon="-1.56735">
        <ele>20</ele>
        <time>2019-10-17T13:46:18.000Z</time>
      </trkpt>
      <trkpt lat="47.29401" lon="-1.56732">
        <ele>20</ele>
        <time>2019-10-17T13:46:19.000Z</time>
      </trkpt>
      <trkpt lat="47.29398" lon="-1.56729">
        <ele>20</ele>
        <time>2019-10-17T13:46:20.000Z</time>
      </trkpt>
      <trkpt lat="47.29395" lon="-1.56726">
        <ele>20</ele>
        <time>2019-10-17T13:46:21.000Z</time>
      </trkpt>
      <trkpt lat="47.29391" lon="-1.56723">
        <ele>20</ele>
        <time>2019-10-17T13:46:22.000Z</time>
      </trkpt>
      <trkpt lat="47.29389" lon="-1.5672">
        <ele>20</ele>
        <time>2019-10-17T13:46:23.000Z</time>
      </trkpt>
      <trkpt lat="47.29386" lon="-1.56717">
        <ele>20</ele>
        <time>2019-10-17T13:46:24.000Z</time>
      </trkpt>
      <trkpt lat="47.29384" lon="-1.56715">
        <ele>20</ele>
        <time>2019-10-17T13:46:25.000Z</time>
      </trkpt>
      <trkpt lat="47.29382" lon="-1.56712">
        <ele>20</ele>
        <time>2019-10-17T13:46:26.000Z</time>
      </trkpt>
      <trkpt lat="47.2938" lon="-1.56709">
        <ele>20</ele>
        <time>2019-10-17T13:46:27.000Z</time>
      </trkpt>
      <trkpt lat="47.29377" lon="-1.56705">
        <ele>21</ele>
        <time>2019-10-17T13:46:28.000Z</time>
      </trkpt>
      <trkpt lat="47.29375" lon="-1.56702">
        <ele>21</ele>
        <time>2019-10-17T13:46:29.000Z</time>
      </trkpt>
      <trkpt lat="47.29372" lon="-1.56698">
        <ele>21</ele>
        <time>2019-10-17T13:46:30.000Z</time>
      </trkpt>
      <trkpt lat="47.29369" lon="-1.56693">
        <ele>21</ele>
        <time>2019-10-17T13:46:31.000Z</time>
      </trkpt>
      <trkpt lat="47.29365" lon="-1.56689">
        <ele>21</ele>
        <time>2019-10-17T13:46:32.000Z</time>
      </trkpt>
      <trkpt lat="47.2936" lon="-1.56684">
        <ele>21</ele>
        <time>2019-10-17T13:46:33.000Z</time>
      </trkpt>
      <trkpt lat="47.29355" lon="-1.56679">
        <ele>21</ele>
        <time>2019-10-17T13:46:34.000Z</time>
      </trkpt>
      <trkpt lat="47.29349" lon="-1.56675">
        <ele>21</ele>
        <time>2019-10-17T13:46:35.000Z</time>
      </trkpt>
      <trkpt lat="47.29343" lon="-1.56671">
        <ele>21</ele>
        <time>2019-10-17T13:46:36.000Z</time>
      </trkpt>
      <trkpt lat="47.29335" lon="-1.56666">
        <ele>21</ele>
        <time>2019-10-17T13:46:37.000Z</time>
      </trkpt>
      <trkpt lat="47.29328" lon="-1.56661">
        <ele>22</ele>
        <time>2019-10-17T13:46:38.000Z</time>
      </trkpt>
      <trkpt lat="47.29321" lon="-1.56656">
        <ele>22</ele>
        <time>2019-10-17T13:46:39.000Z</time>
      </trkpt>
      <trkpt lat="47.29316" lon="-1.56651">
        <ele>22</ele>
        <time>2019-10-17T13:46:40.000Z</time>
      </trkpt>
      <trkpt lat="47.2931" lon="-1.56644">
        <ele>22</ele>
        <time>2019-10-17T13:46:41.000Z</time>
      </trkpt>
      <trkpt lat="47.29303" lon="-1.56635">
        <ele>22</ele>
        <time>2019-10-17T13:46:42.000Z</time>
      </trkpt>
      <trkpt lat="47.29296" lon="-1.56627">
        <ele>23</ele>
        <time>2019-10-17T13:46:43.000Z</time>
      </trkpt>
      <trkpt lat="47.2929" lon="-1.56619">
        <ele>23</ele>
        <time>2019-10-17T13:46:44.000Z</time>
      </trkpt>
      <trkpt lat="47.29285" lon="-1.56609">
        <ele>23</ele>
        <time>2019-10-17T13:46:45.000Z</time>
      </trkpt>
      <trkpt lat="47.29279" lon="-1.56601">
        <ele>24</ele>
        <time>2019-10-17T13:46:46.000Z</time>
      </trkpt>
      <trkpt lat="47.29271" lon="-1.56595">
        <ele>24</ele>
        <time>2019-10-17T13:46:47.000Z</time>
      </trkpt>
      <trkpt lat="47.29265" lon="-1.56593">
        <ele>24</ele>
        <time>2019-10-17T13:46:48.000Z</time>
      </trkpt>
      <trkpt lat="47.29259" lon="-1.56595">
        <ele>24</ele>
        <time>2019-10-17T13:46:49.000Z</time>
      </trkpt>
      <trkpt lat="47.29254" lon="-1.56599">
        <ele>24</ele>
        <time>2019-10-17T13:46:50.000Z</time>
      </trkpt>
      <trkpt lat="47.29251" lon="-1.56606">
        <ele>24</ele>
        <time>2019-10-17T13:46:51.000Z</time>
      </trkpt>
      <trkpt lat="47.29248" lon="-1.56611">
        <ele>24</ele>
        <time>2019-10-17T13:46:52.000Z</time>
      </trkpt>
      <trkpt lat="47.29244" lon="-1.56615">
        <ele>24</ele>
        <time>2019-10-17T13:46:53.000Z</time>
      </trkpt>
      <trkpt lat="47.29241" lon="-1.5662">
        <ele>24</ele>
        <time>2019-10-17T13:46:54.000Z</time>
      </trkpt>
      <trkpt lat="47.29239" lon="-1.56624">
        <ele>24</ele>
        <time>2019-10-17T13:46:55.000Z</time>
      </trkpt>
      <trkpt lat="47.29236" lon="-1.56628">
        <ele>24</ele>
        <time>2019-10-17T13:46:56.000Z</time>
      </trkpt>
      <trkpt lat="47.29232" lon="-1.5663">
        <ele>24</ele>
        <time>2019-10-17T13:46:57.000Z</time>
      </trkpt>
      <trkpt lat="47.29229" lon="-1.56628">
        <ele>24</ele>
        <time>2019-10-17T13:46:58.000Z</time>
      </trkpt>
      <trkpt lat="47.29227" lon="-1.56625">
        <ele>24</ele>
        <time>2019-10-17T13:46:59.000Z</time>
      </trkpt>
      <trkpt lat="47.29224" lon="-1.56622">
        <ele>23</ele>
        <time>2019-10-17T13:47:00.000Z</time>
      </trkpt>
      <trkpt lat="47.29221" lon="-1.56619">
        <ele>23</ele>
        <time>2019-10-17T13:47:01.000Z</time>
      </trkpt>
      <trkpt lat="47.29218" lon="-1.56617">
        <ele>23</ele>
        <time>2019-10-17T13:47:02.000Z</time>
      </trkpt>
      <trkpt lat="47.29214" lon="-1.56615">
        <ele>23</ele>
        <time>2019-10-17T13:47:03.000Z</time>
      </trkpt>
      <trkpt lat="47.2921" lon="-1.56613">
        <ele>24</ele>
        <time>2019-10-17T13:47:04.000Z</time>
      </trkpt>
      <trkpt lat="47.29206" lon="-1.56613">
        <ele>24</ele>
        <time>2019-10-17T13:47:05.000Z</time>
      </trkpt>
      <trkpt lat="47.29202" lon="-1.56613">
        <ele>24</ele>
        <time>2019-10-17T13:47:06.000Z</time>
      </trkpt>
      <trkpt lat="47.29199" lon="-1.56614">
        <ele>24</ele>
        <time>2019-10-17T13:47:07.000Z</time>
      </trkpt>
      <trkpt lat="47.29195" lon="-1.56614">
        <ele>24</ele>
        <time>2019-10-17T13:47:08.000Z</time>
      </trkpt>
      <trkpt lat="47.29191" lon="-1.56615">
        <ele>24</ele>
        <time>2019-10-17T13:47:09.000Z</time>
      </trkpt>
      <trkpt lat="47.29187" lon="-1.56615">
        <ele>25</ele>
        <time>2019-10-17T13:47:10.000Z</time>
      </trkpt>
      <trkpt lat="47.29183" lon="-1.56616">
        <ele>25</ele>
        <time>2019-10-17T13:47:11.000Z</time>
      </trkpt>
      <trkpt lat="47.29178" lon="-1.56617">
        <ele>25</ele>
        <time>2019-10-17T13:47:12.000Z</time>
      </trkpt>
      <trkpt lat="47.29174" lon="-1.56617">
        <ele>25</ele>
        <time>2019-10-17T13:47:13.000Z</time>
      </trkpt>
      <trkpt lat="47.29171" lon="-1.56617">
        <ele>25</ele>
        <time>2019-10-17T13:47:14.000Z</time>
      </trkpt>
      <trkpt lat="47.29167" lon="-1.56616">
        <ele>26</ele>
        <time>2019-10-17T13:47:15.000Z</time>
      </trkpt>
      <trkpt lat="47.29167" lon="-1.56616">
        <ele>26</ele>
        <time>2019-10-17T13:47:17.000Z</time>
      </trkpt>
      <trkpt lat="47.29167" lon="-1.56616">
        <ele>26</ele>
        <time>2019-10-17T13:47:18.000Z</time>
      </trkpt>
      <trkpt lat="47.29155" lon="-1.56613">
        <ele>26</ele>
        <time>2019-10-17T13:47:19.000Z</time>
      </trkpt>
      <trkpt lat="47.29151" lon="-1.56612">
        <ele>27</ele>
        <time>2019-10-17T13:47:20.000Z</time>
      </trkpt>
      <trkpt lat="47.29146" lon="-1.56611">
        <ele>27</ele>
        <time>2019-10-17T13:47:21.000Z</time>
      </trkpt>
      <trkpt lat="47.29141" lon="-1.56609">
        <ele>27</ele>
        <time>2019-10-17T13:47:22.000Z</time>
      </trkpt>
      <trkpt lat="47.29137" lon="-1.56608">
        <ele>27</ele>
        <time>2019-10-17T13:47:23.000Z</time>
      </trkpt>
      <trkpt lat="47.29134" lon="-1.56607">
        <ele>27</ele>
        <time>2019-10-17T13:47:24.000Z</time>
      </trkpt>
      <trkpt lat="47.29132" lon="-1.56605">
        <ele>26</ele>
        <time>2019-10-17T13:47:25.000Z</time>
      </trkpt>
      <trkpt lat="47.29131" lon="-1.56602">
        <ele>26</ele>
        <time>2019-10-17T13:47:26.000Z</time>
      </trkpt>
      <trkpt lat="47.29131" lon="-1.566">
        <ele>26</ele>
        <time>2019-10-17T13:47:27.000Z</time>
      </trkpt>
      <trkpt lat="47.2913" lon="-1.56599">
        <ele>26</ele>
        <time>2019-10-17T13:47:28.000Z</time>
      </trkpt>
      <trkpt lat="47.2913" lon="-1.56598">
        <ele>26</ele>
        <time>2019-10-17T13:47:29.000Z</time>
      </trkpt>
      <trkpt lat="47.29129" lon="-1.56597">
        <ele>26</ele>
        <time>2019-10-17T13:47:30.000Z</time>
      </trkpt>
      <trkpt lat="47.29128" lon="-1.56596">
        <ele>26</ele>
        <time>2019-10-17T13:47:31.000Z</time>
      </trkpt>
      <trkpt lat="47.29126" lon="-1.56594">
        <ele>26</ele>
        <time>2019-10-17T13:47:32.000Z</time>
      </trkpt>
      <trkpt lat="47.29125" lon="-1.56592">
        <ele>27</ele>
        <time>2019-10-17T13:47:33.000Z</time>
      </trkpt>
      <trkpt lat="47.29123" lon="-1.5659">
        <ele>28</ele>
        <time>2019-10-17T13:47:34.000Z</time>
      </trkpt>
      <trkpt lat="47.29121" lon="-1.56587">
        <ele>29</ele>
        <time>2019-10-17T13:47:35.000Z</time>
      </trkpt>
      <trkpt lat="47.29119" lon="-1.56584">
        <ele>30</ele>
        <time>2019-10-17T13:47:36.000Z</time>
      </trkpt>
      <trkpt lat="47.29118" lon="-1.56582">
        <ele>31</ele>
        <time>2019-10-17T13:47:37.000Z</time>
      </trkpt>
      <trkpt lat="47.29116" lon="-1.56578">
        <ele>31</ele>
        <time>2019-10-17T13:47:38.000Z</time>
      </trkpt>
      <trkpt lat="47.29114" lon="-1.56575">
        <ele>31</ele>
        <time>2019-10-17T13:47:39.000Z</time>
      </trkpt>
      <trkpt lat="47.29113" lon="-1.56572">
        <ele>30</ele>
        <time>2019-10-17T13:47:40.000Z</time>
      </trkpt>
      <trkpt lat="47.29112" lon="-1.5657">
        <ele>29</ele>
        <time>2019-10-17T13:47:41.000Z</time>
      </trkpt>
      <trkpt lat="47.29112" lon="-1.56568">
        <ele>27</ele>
        <time>2019-10-17T13:47:42.000Z</time>
      </trkpt>
      <trkpt lat="47.29112" lon="-1.56566">
        <ele>26</ele>
        <time>2019-10-17T13:47:43.000Z</time>
      </trkpt>
      <trkpt lat="47.29112" lon="-1.56565">
        <ele>25</ele>
        <time>2019-10-17T13:47:44.000Z</time>
      </trkpt>
      <trkpt lat="47.29112" lon="-1.56563">
        <ele>24</ele>
        <time>2019-10-17T13:47:45.000Z</time>
      </trkpt>
      <trkpt lat="47.29111" lon="-1.56561">
        <ele>23</ele>
        <time>2019-10-17T13:47:46.000Z</time>
      </trkpt>
      <trkpt lat="47.29111" lon="-1.56558">
        <ele>22</ele>
        <time>2019-10-17T13:47:47.000Z</time>
      </trkpt>
      <trkpt lat="47.2911" lon="-1.56556">
        <ele>20</ele>
        <time>2019-10-17T13:47:48.000Z</time>
      </trkpt>
      <trkpt lat="47.2911" lon="-1.56553">
        <ele>19</ele>
        <time>2019-10-17T13:47:49.000Z</time>
      </trkpt>
      <trkpt lat="47.29109" lon="-1.5655">
        <ele>17</ele>
        <time>2019-10-17T13:47:50.000Z</time>
      </trkpt>
      <trkpt lat="47.29109" lon="-1.56547">
        <ele>16</ele>
        <time>2019-10-17T13:47:51.000Z</time>
      </trkpt>
      <trkpt lat="47.29109" lon="-1.56542">
        <ele>14</ele>
        <time>2019-10-17T13:47:52.000Z</time>
      </trkpt>
      <trkpt lat="47.29108" lon="-1.56539">
        <ele>13</ele>
        <time>2019-10-17T13:47:53.000Z</time>
      </trkpt>
      <trkpt lat="47.29108" lon="-1.56536">
        <ele>13</ele>
        <time>2019-10-17T13:47:54.000Z</time>
      </trkpt>
      <trkpt lat="47.29108" lon="-1.56536">
        <ele>11</ele>
        <time>2019-10-17T13:47:57.000Z</time>
      </trkpt>
      <trkpt lat="47.29108" lon="-1.56536">
        <ele>11</ele>
        <time>2019-10-17T13:47:58.000Z</time>
      </trkpt>
      <trkpt lat="47.29105" lon="-1.56525">
        <ele>11</ele>
        <time>2019-10-17T13:47:59.000Z</time>
      </trkpt>
      <trkpt lat="47.29104" lon="-1.56521">
        <ele>10</ele>
        <time>2019-10-17T13:48:00.000Z</time>
      </trkpt>
      <trkpt lat="47.29103" lon="-1.56518">
        <ele>10</ele>
        <time>2019-10-17T13:48:01.000Z</time>
      </trkpt>
      <trkpt lat="47.29103" lon="-1.56515">
        <ele>9</ele>
        <time>2019-10-17T13:48:02.000Z</time>
      </trkpt>
      <trkpt lat="47.29102" lon="-1.56511">
        <ele>9</ele>
        <time>2019-10-17T13:48:03.000Z</time>
      </trkpt>
      <trkpt lat="47.29101" lon="-1.56508">
        <ele>9</ele>
        <time>2019-10-17T13:48:04.000Z</time>
      </trkpt>
      <trkpt lat="47.291" lon="-1.56505">
        <ele>9</ele>
        <time>2019-10-17T13:48:05.000Z</time>
      </trkpt>
      <trkpt lat="47.29099" lon="-1.56503">
        <ele>10</ele>
        <time>2019-10-17T13:48:06.000Z</time>
      </trkpt>
      <trkpt lat="47.29098" lon="-1.56501">
        <ele>11</ele>
        <time>2019-10-17T13:48:07.000Z</time>
      </trkpt>
      <trkpt lat="47.29098" lon="-1.565">
        <ele>11</ele>
        <time>2019-10-17T13:48:08.000Z</time>
      </trkpt>
      <trkpt lat="47.29097" lon="-1.56498">
        <ele>12</ele>
        <time>2019-10-17T13:48:09.000Z</time>
      </trkpt>
      <trkpt lat="47.29095" lon="-1.56497">
        <ele>13</ele>
        <time>2019-10-17T13:48:10.000Z</time>
      </trkpt>
      <trkpt lat="47.29094" lon="-1.56496">
        <ele>13</ele>
        <time>2019-10-17T13:48:11.000Z</time>
      </trkpt>
      <trkpt lat="47.29091" lon="-1.56493">
        <ele>14</ele>
        <time>2019-10-17T13:48:12.000Z</time>
      </trkpt>
      <trkpt lat="47.29088" lon="-1.5649">
        <ele>15</ele>
        <time>2019-10-17T13:48:13.000Z</time>
      </trkpt>
      <trkpt lat="47.29085" lon="-1.56486">
        <ele>16</ele>
        <time>2019-10-17T13:48:14.000Z</time>
      </trkpt>
      <trkpt lat="47.29082" lon="-1.56481">
        <ele>16</ele>
        <time>2019-10-17T13:48:15.000Z</time>
      </trkpt>
      <trkpt lat="47.2908" lon="-1.56477">
        <ele>17</ele>
        <time>2019-10-17T13:48:16.000Z</time>
      </trkpt>
      <trkpt lat="47.29078" lon="-1.56473">
        <ele>17</ele>
        <time>2019-10-17T13:48:17.000Z</time>
      </trkpt>
      <trkpt lat="47.29076" lon="-1.56471">
        <ele>17</ele>
        <time>2019-10-17T13:48:18.000Z</time>
      </trkpt>
      <trkpt lat="47.29075" lon="-1.56468">
        <ele>17</ele>
        <time>2019-10-17T13:48:19.000Z</time>
      </trkpt>
      <trkpt lat="47.29073" lon="-1.56466">
        <ele>17</ele>
        <time>2019-10-17T13:48:20.000Z</time>
      </trkpt>
      <trkpt lat="47.2907" lon="-1.56463">
        <ele>18</ele>
        <time>2019-10-17T13:48:21.000Z</time>
      </trkpt>
      <trkpt lat="47.29068" lon="-1.56462">
        <ele>18</ele>
        <time>2019-10-17T13:48:22.000Z</time>
      </trkpt>
      <trkpt lat="47.29065" lon="-1.5646">
        <ele>19</ele>
        <time>2019-10-17T13:48:23.000Z</time>
      </trkpt>
      <trkpt lat="47.29062" lon="-1.56459">
        <ele>20</ele>
        <time>2019-10-17T13:48:24.000Z</time>
      </trkpt>
      <trkpt lat="47.29058" lon="-1.56457">
        <ele>20</ele>
        <time>2019-10-17T13:48:25.000Z</time>
      </trkpt>
      <trkpt lat="47.29056" lon="-1.56456">
        <ele>21</ele>
        <time>2019-10-17T13:48:26.000Z</time>
      </trkpt>
      <trkpt lat="47.29053" lon="-1.56455">
        <ele>21</ele>
        <time>2019-10-17T13:48:27.000Z</time>
      </trkpt>
      <trkpt lat="47.29049" lon="-1.56453">
        <ele>21</ele>
        <time>2019-10-17T13:48:28.000Z</time>
      </trkpt>
      <trkpt lat="47.29046" lon="-1.56451">
        <ele>22</ele>
        <time>2019-10-17T13:48:29.000Z</time>
      </trkpt>
      <trkpt lat="47.29044" lon="-1.5645">
        <ele>22</ele>
        <time>2019-10-17T13:48:30.000Z</time>
      </trkpt>
      <trkpt lat="47.2904" lon="-1.56449">
        <ele>23</ele>
        <time>2019-10-17T13:48:31.000Z</time>
      </trkpt>
      <trkpt lat="47.29037" lon="-1.56447">
        <ele>23</ele>
        <time>2019-10-17T13:48:32.000Z</time>
      </trkpt>
      <trkpt lat="47.29033" lon="-1.56446">
        <ele>24</ele>
        <time>2019-10-17T13:48:33.000Z</time>
      </trkpt>
      <trkpt lat="47.2903" lon="-1.56444">
        <ele>24</ele>
        <time>2019-10-17T13:48:34.000Z</time>
      </trkpt>
      <trkpt lat="47.29027" lon="-1.56443">
        <ele>25</ele>
        <time>2019-10-17T13:48:35.000Z</time>
      </trkpt>
      <trkpt lat="47.29023" lon="-1.56441">
        <ele>25</ele>
        <time>2019-10-17T13:48:36.000Z</time>
      </trkpt>
      <trkpt lat="47.29019" lon="-1.5644">
        <ele>26</ele>
        <time>2019-10-17T13:48:37.000Z</time>
      </trkpt>
      <trkpt lat="47.29016" lon="-1.56439">
        <ele>26</ele>
        <time>2019-10-17T13:48:38.000Z</time>
      </trkpt>
      <trkpt lat="47.29013" lon="-1.56438">
        <ele>27</ele>
        <time>2019-10-17T13:48:39.000Z</time>
      </trkpt>
      <trkpt lat="47.2901" lon="-1.56437">
        <ele>27</ele>
        <time>2019-10-17T13:48:40.000Z</time>
      </trkpt>
      <trkpt lat="47.29007" lon="-1.56436">
        <ele>27</ele>
        <time>2019-10-17T13:48:41.000Z</time>
      </trkpt>
      <trkpt lat="47.29003" lon="-1.56434">
        <ele>28</ele>
        <time>2019-10-17T13:48:42.000Z</time>
      </trkpt>
      <trkpt lat="47.28999" lon="-1.56433">
        <ele>28</ele>
        <time>2019-10-17T13:48:43.000Z</time>
      </trkpt>
      <trkpt lat="47.28995" lon="-1.56431">
        <ele>29</ele>
        <time>2019-10-17T13:48:44.000Z</time>
      </trkpt>
      <trkpt lat="47.28991" lon="-1.56429">
        <ele>29</ele>
        <time>2019-10-17T13:48:45.000Z</time>
      </trkpt>
      <trkpt lat="47.28987" lon="-1.56428">
        <ele>30</ele>
        <time>2019-10-17T13:48:46.000Z</time>
      </trkpt>
      <trkpt lat="47.28984" lon="-1.56427">
        <ele>30</ele>
        <time>2019-10-17T13:48:47.000Z</time>
      </trkpt>
      <trkpt lat="47.28981" lon="-1.56426">
        <ele>31</ele>
        <time>2019-10-17T13:48:48.000Z</time>
      </trkpt>
      <trkpt lat="47.28977" lon="-1.56425">
        <ele>31</ele>
        <time>2019-10-17T13:48:49.000Z</time>
      </trkpt>
      <trkpt lat="47.28974" lon="-1.56425">
        <ele>32</ele>
        <time>2019-10-17T13:48:50.000Z</time>
      </trkpt>
      <trkpt lat="47.2897" lon="-1.56424">
        <ele>32</ele>
        <time>2019-10-17T13:48:51.000Z</time>
      </trkpt>
      <trkpt lat="47.28967" lon="-1.56424">
        <ele>32</ele>
        <time>2019-10-17T13:48:52.000Z</time>
      </trkpt>
      <trkpt lat="47.28964" lon="-1.56424">
        <ele>33</ele>
        <time>2019-10-17T13:48:53.000Z</time>
      </trkpt>
      <trkpt lat="47.2896" lon="-1.56423">
        <ele>33</ele>
        <time>2019-10-17T13:48:54.000Z</time>
      </trkpt>
      <trkpt lat="47.28957" lon="-1.56422">
        <ele>33</ele>
        <time>2019-10-17T13:48:55.000Z</time>
      </trkpt>
      <trkpt lat="47.28954" lon="-1.56421">
        <ele>33</ele>
        <time>2019-10-17T13:48:56.000Z</time>
      </trkpt>
      <trkpt lat="47.2895" lon="-1.56422">
        <ele>34</ele>
        <time>2019-10-17T13:48:57.000Z</time>
      </trkpt>
      <trkpt lat="47.28947" lon="-1.56424">
        <ele>34</ele>
        <time>2019-10-17T13:48:58.000Z</time>
      </trkpt>
      <trkpt lat="47.28943" lon="-1.56426">
        <ele>35</ele>
        <time>2019-10-17T13:48:59.000Z</time>
      </trkpt>
      <trkpt lat="47.2894" lon="-1.56429">
        <ele>35</ele>
        <time>2019-10-17T13:49:00.000Z</time>
      </trkpt>
      <trkpt lat="47.28937" lon="-1.56432">
        <ele>36</ele>
        <time>2019-10-17T13:49:01.000Z</time>
      </trkpt>
      <trkpt lat="47.28933" lon="-1.56434">
        <ele>36</ele>
        <time>2019-10-17T13:49:02.000Z</time>
      </trkpt>
      <trkpt lat="47.2893" lon="-1.56438">
        <ele>37</ele>
        <time>2019-10-17T13:49:03.000Z</time>
      </trkpt>
      <trkpt lat="47.28926" lon="-1.56441">
        <ele>37</ele>
        <time>2019-10-17T13:49:04.000Z</time>
      </trkpt>
      <trkpt lat="47.28923" lon="-1.56446">
        <ele>37</ele>
        <time>2019-10-17T13:49:05.000Z</time>
      </trkpt>
      <trkpt lat="47.2892" lon="-1.5645">
        <ele>37</ele>
        <time>2019-10-17T13:49:06.000Z</time>
      </trkpt>
      <trkpt lat="47.28917" lon="-1.56455">
        <ele>37</ele>
        <time>2019-10-17T13:49:07.000Z</time>
      </trkpt>
      <trkpt lat="47.28913" lon="-1.56461">
        <ele>37</ele>
        <time>2019-10-17T13:49:08.000Z</time>
      </trkpt>
      <trkpt lat="47.28909" lon="-1.56466">
        <ele>37</ele>
        <time>2019-10-17T13:49:09.000Z</time>
      </trkpt>
      <trkpt lat="47.28905" lon="-1.56471">
        <ele>36</ele>
        <time>2019-10-17T13:49:10.000Z</time>
      </trkpt>
      <trkpt lat="47.28901" lon="-1.56477">
        <ele>36</ele>
        <time>2019-10-17T13:49:11.000Z</time>
      </trkpt>
      <trkpt lat="47.28898" lon="-1.56481">
        <ele>36</ele>
        <time>2019-10-17T13:49:12.000Z</time>
      </trkpt>
      <trkpt lat="47.28894" lon="-1.56486">
        <ele>36</ele>
        <time>2019-10-17T13:49:13.000Z</time>
      </trkpt>
      <trkpt lat="47.2889" lon="-1.5649">
        <ele>36</ele>
        <time>2019-10-17T13:49:14.000Z</time>
      </trkpt>
      <trkpt lat="47.28887" lon="-1.56497">
        <ele>36</ele>
        <time>2019-10-17T13:49:15.000Z</time>
      </trkpt>
      <trkpt lat="47.28883" lon="-1.56504">
        <ele>36</ele>
        <time>2019-10-17T13:49:16.000Z</time>
      </trkpt>
      <trkpt lat="47.2888" lon="-1.56513">
        <ele>35</ele>
        <time>2019-10-17T13:49:17.000Z</time>
      </trkpt>
      <trkpt lat="47.28878" lon="-1.56522">
        <ele>35</ele>
        <time>2019-10-17T13:49:18.000Z</time>
      </trkpt>
      <trkpt lat="47.28876" lon="-1.56533">
        <ele>35</ele>
        <time>2019-10-17T13:49:19.000Z</time>
      </trkpt>
      <trkpt lat="47.28874" lon="-1.56543">
        <ele>34</ele>
        <time>2019-10-17T13:49:20.000Z</time>
      </trkpt>
      <trkpt lat="47.28872" lon="-1.56555">
        <ele>34</ele>
        <time>2019-10-17T13:49:21.000Z</time>
      </trkpt>
      <trkpt lat="47.28871" lon="-1.56566">
        <ele>33</ele>
        <time>2019-10-17T13:49:22.000Z</time>
      </trkpt>
      <trkpt lat="47.28871" lon="-1.56566">
        <ele>32</ele>
        <time>2019-10-17T13:49:25.000Z</time>
      </trkpt>
      <trkpt lat="47.28871" lon="-1.56566">
        <ele>32</ele>
        <time>2019-10-17T13:49:26.000Z</time>
      </trkpt>
      <trkpt lat="47.28864" lon="-1.56603">
        <ele>31</ele>
        <time>2019-10-17T13:49:27.000Z</time>
      </trkpt>
      <trkpt lat="47.28863" lon="-1.56609">
        <ele>31</ele>
        <time>2019-10-17T13:49:28.000Z</time>
      </trkpt>
      <trkpt lat="47.28862" lon="-1.56615">
        <ele>30</ele>
        <time>2019-10-17T13:49:29.000Z</time>
      </trkpt>
      <trkpt lat="47.2886" lon="-1.56621">
        <ele>29</ele>
        <time>2019-10-17T13:49:30.000Z</time>
      </trkpt>
      <trkpt lat="47.28858" lon="-1.56629">
        <ele>29</ele>
        <time>2019-10-17T13:49:31.000Z</time>
      </trkpt>
      <trkpt lat="47.28857" lon="-1.56637">
        <ele>28</ele>
        <time>2019-10-17T13:49:32.000Z</time>
      </trkpt>
      <trkpt lat="47.28856" lon="-1.56645">
        <ele>27</ele>
        <time>2019-10-17T13:49:33.000Z</time>
      </trkpt>
      <trkpt lat="47.28856" lon="-1.56654">
        <ele>25</ele>
        <time>2019-10-17T13:49:34.000Z</time>
      </trkpt>
      <trkpt lat="47.28856" lon="-1.56663">
        <ele>24</ele>
        <time>2019-10-17T13:49:35.000Z</time>
      </trkpt>
      <trkpt lat="47.28854" lon="-1.56671">
        <ele>23</ele>
        <time>2019-10-17T13:49:36.000Z</time>
      </trkpt>
      <trkpt lat="47.28853" lon="-1.5668">
        <ele>21</ele>
        <time>2019-10-17T13:49:37.000Z</time>
      </trkpt>
      <trkpt lat="47.28853" lon="-1.56687">
        <ele>20</ele>
        <time>2019-10-17T13:49:38.000Z</time>
      </trkpt>
      <trkpt lat="47.28852" lon="-1.56693">
        <ele>19</ele>
        <time>2019-10-17T13:49:39.000Z</time>
      </trkpt>
      <trkpt lat="47.28851" lon="-1.56696">
        <ele>18</ele>
        <time>2019-10-17T13:49:40.000Z</time>
      </trkpt>
      <trkpt lat="47.28851" lon="-1.567">
        <ele>17</ele>
        <time>2019-10-17T13:49:41.000Z</time>
      </trkpt>
      <trkpt lat="47.28851" lon="-1.56705">
        <ele>16</ele>
        <time>2019-10-17T13:49:42.000Z</time>
      </trkpt>
      <trkpt lat="47.2885" lon="-1.56711">
        <ele>15</ele>
        <time>2019-10-17T13:49:43.000Z</time>
      </trkpt>
      <trkpt lat="47.2885" lon="-1.56711">
        <ele>13</ele>
        <time>2019-10-17T13:49:46.000Z</time>
      </trkpt>
      <trkpt lat="47.2885" lon="-1.56711">
        <ele>12</ele>
        <time>2019-10-17T13:49:47.000Z</time>
      </trkpt>
      <trkpt lat="47.28847" lon="-1.56736">
        <ele>11</ele>
        <time>2019-10-17T13:49:48.000Z</time>
      </trkpt>
      <trkpt lat="47.28848" lon="-1.56739">
        <ele>10</ele>
        <time>2019-10-17T13:49:49.000Z</time>
      </trkpt>
      <trkpt lat="47.28847" lon="-1.56743">
        <ele>10</ele>
        <time>2019-10-17T13:49:50.000Z</time>
      </trkpt>
      <trkpt lat="47.28846" lon="-1.56746">
        <ele>9</ele>
        <time>2019-10-17T13:49:51.000Z</time>
      </trkpt>
      <trkpt lat="47.28845" lon="-1.56747">
        <ele>8</ele>
        <time>2019-10-17T13:49:52.000Z</time>
      </trkpt>
      <trkpt lat="47.28843" lon="-1.56748">
        <ele>8</ele>
        <time>2019-10-17T13:49:53.000Z</time>
      </trkpt>
      <trkpt lat="47.28841" lon="-1.56747">
        <ele>8</ele>
        <time>2019-10-17T13:49:54.000Z</time>
      </trkpt>
      <trkpt lat="47.2884" lon="-1.56746">
        <ele>9</ele>
        <time>2019-10-17T13:49:55.000Z</time>
      </trkpt>
      <trkpt lat="47.28838" lon="-1.56746">
        <ele>9</ele>
        <time>2019-10-17T13:49:56.000Z</time>
      </trkpt>
      <trkpt lat="47.28835" lon="-1.56746">
        <ele>9</ele>
        <time>2019-10-17T13:49:57.000Z</time>
      </trkpt>
      <trkpt lat="47.28832" lon="-1.56746">
        <ele>10</ele>
        <time>2019-10-17T13:49:58.000Z</time>
      </trkpt>
      <trkpt lat="47.28828" lon="-1.56746">
        <ele>11</ele>
        <time>2019-10-17T13:49:59.000Z</time>
      </trkpt>
      <trkpt lat="47.28825" lon="-1.56746">
        <ele>12</ele>
        <time>2019-10-17T13:50:00.000Z</time>
      </trkpt>
      <trkpt lat="47.28821" lon="-1.56745">
        <ele>14</ele>
        <time>2019-10-17T13:50:01.000Z</time>
      </trkpt>
      <trkpt lat="47.28817" lon="-1.56743">
        <ele>15</ele>
        <time>2019-10-17T13:50:02.000Z</time>
      </trkpt>
      <trkpt lat="47.28813" lon="-1.56742">
        <ele>17</ele>
        <time>2019-10-17T13:50:03.000Z</time>
      </trkpt>
      <trkpt lat="47.28808" lon="-1.5674">
        <ele>19</ele>
        <time>2019-10-17T13:50:04.000Z</time>
      </trkpt>
      <trkpt lat="47.28804" lon="-1.56737">
        <ele>21</ele>
        <time>2019-10-17T13:50:05.000Z</time>
      </trkpt>
      <trkpt lat="47.288" lon="-1.56736">
        <ele>23</ele>
        <time>2019-10-17T13:50:06.000Z</time>
      </trkpt>
      <trkpt lat="47.28795" lon="-1.56733">
        <ele>25</ele>
        <time>2019-10-17T13:50:07.000Z</time>
      </trkpt>
      <trkpt lat="47.28791" lon="-1.5673">
        <ele>27</ele>
        <time>2019-10-17T13:50:08.000Z</time>
      </trkpt>
      <trkpt lat="47.28786" lon="-1.56727">
        <ele>29</ele>
        <time>2019-10-17T13:50:09.000Z</time>
      </trkpt>
      <trkpt lat="47.28781" lon="-1.56725">
        <ele>31</ele>
        <time>2019-10-17T13:50:10.000Z</time>
      </trkpt>
      <trkpt lat="47.28776" lon="-1.56722">
        <ele>33</ele>
        <time>2019-10-17T13:50:11.000Z</time>
      </trkpt>
      <trkpt lat="47.28771" lon="-1.56719">
        <ele>35</ele>
        <time>2019-10-17T13:50:12.000Z</time>
      </trkpt>
      <trkpt lat="47.28766" lon="-1.56715">
        <ele>37</ele>
        <time>2019-10-17T13:50:13.000Z</time>
      </trkpt>
      <trkpt lat="47.28762" lon="-1.56712">
        <ele>39</ele>
        <time>2019-10-17T13:50:14.000Z</time>
      </trkpt>
      <trkpt lat="47.28757" lon="-1.56709">
        <ele>41</ele>
        <time>2019-10-17T13:50:15.000Z</time>
      </trkpt>
      <trkpt lat="47.28752" lon="-1.56706">
        <ele>43</ele>
        <time>2019-10-17T13:50:16.000Z</time>
      </trkpt>
      <trkpt lat="47.28747" lon="-1.56703">
        <ele>45</ele>
        <time>2019-10-17T13:50:17.000Z</time>
      </trkpt>
      <trkpt lat="47.28742" lon="-1.567">
        <ele>47</ele>
        <time>2019-10-17T13:50:18.000Z</time>
      </trkpt>
      <trkpt lat="47.28737" lon="-1.56697">
        <ele>48</ele>
        <time>2019-10-17T13:50:19.000Z</time>
      </trkpt>
      <trkpt lat="47.28733" lon="-1.56695">
        <ele>49</ele>
        <time>2019-10-17T13:50:20.000Z</time>
      </trkpt>
      <trkpt lat="47.28729" lon="-1.56692">
        <ele>49</ele>
        <time>2019-10-17T13:50:21.000Z</time>
      </trkpt>
      <trkpt lat="47.28725" lon="-1.5669">
        <ele>50</ele>
        <time>2019-10-17T13:50:22.000Z</time>
      </trkpt>
      <trkpt lat="47.2872" lon="-1.56688">
        <ele>50</ele>
        <time>2019-10-17T13:50:23.000Z</time>
      </trkpt>
      <trkpt lat="47.28716" lon="-1.56685">
        <ele>50</ele>
        <time>2019-10-17T13:50:24.000Z</time>
      </trkpt>
      <trkpt lat="47.28712" lon="-1.56682">
        <ele>49</ele>
        <time>2019-10-17T13:50:25.000Z</time>
      </trkpt>
      <trkpt lat="47.28708" lon="-1.56679">
        <ele>49</ele>
        <time>2019-10-17T13:50:26.000Z</time>
      </trkpt>
      <trkpt lat="47.28704" lon="-1.56676">
        <ele>49</ele>
        <time>2019-10-17T13:50:27.000Z</time>
      </trkpt>
      <trkpt lat="47.287" lon="-1.56673">
        <ele>48</ele>
        <time>2019-10-17T13:50:28.000Z</time>
      </trkpt>
      <trkpt lat="47.28697" lon="-1.5667">
        <ele>48</ele>
        <time>2019-10-17T13:50:29.000Z</time>
      </trkpt>
      <trkpt lat="47.28694" lon="-1.56666">
        <ele>47</ele>
        <time>2019-10-17T13:50:30.000Z</time>
      </trkpt>
      <trkpt lat="47.2869" lon="-1.56663">
        <ele>47</ele>
        <time>2019-10-17T13:50:31.000Z</time>
      </trkpt>
      <trkpt lat="47.28687" lon="-1.56659">
        <ele>46</ele>
        <time>2019-10-17T13:50:32.000Z</time>
      </trkpt>
      <trkpt lat="47.28684" lon="-1.56656">
        <ele>45</ele>
        <time>2019-10-17T13:50:33.000Z</time>
      </trkpt>
      <trkpt lat="47.28682" lon="-1.56653">
        <ele>44</ele>
        <time>2019-10-17T13:50:34.000Z</time>
      </trkpt>
      <trkpt lat="47.28679" lon="-1.5665">
        <ele>43</ele>
        <time>2019-10-17T13:50:35.000Z</time>
      </trkpt>
      <trkpt lat="47.28677" lon="-1.56647">
        <ele>42</ele>
        <time>2019-10-17T13:50:36.000Z</time>
      </trkpt>
      <trkpt lat="47.28674" lon="-1.56645">
        <ele>41</ele>
        <time>2019-10-17T13:50:37.000Z</time>
      </trkpt>
      <trkpt lat="47.2867" lon="-1.56645">
        <ele>40</ele>
        <time>2019-10-17T13:50:38.000Z</time>
      </trkpt>
      <trkpt lat="47.28666" lon="-1.56646">
        <ele>39</ele>
        <time>2019-10-17T13:50:39.000Z</time>
      </trkpt>
      <trkpt lat="47.28662" lon="-1.56646">
        <ele>38</ele>
        <time>2019-10-17T13:50:40.000Z</time>
      </trkpt>
      <trkpt lat="47.28658" lon="-1.56647">
        <ele>38</ele>
        <time>2019-10-17T13:50:41.000Z</time>
      </trkpt>
      <trkpt lat="47.28654" lon="-1.56647">
        <ele>37</ele>
        <time>2019-10-17T13:50:42.000Z</time>
      </trkpt>
      <trkpt lat="47.2865" lon="-1.56648">
        <ele>36</ele>
        <time>2019-10-17T13:50:43.000Z</time>
      </trkpt>
      <trkpt lat="47.28645" lon="-1.56648">
        <ele>36</ele>
        <time>2019-10-17T13:50:44.000Z</time>
      </trkpt>
      <trkpt lat="47.28641" lon="-1.56648">
        <ele>35</ele>
        <time>2019-10-17T13:50:45.000Z</time>
      </trkpt>
      <trkpt lat="47.28637" lon="-1.56648">
        <ele>35</ele>
        <time>2019-10-17T13:50:46.000Z</time>
      </trkpt>
      <trkpt lat="47.28633" lon="-1.56647">
        <ele>35</ele>
        <time>2019-10-17T13:50:47.000Z</time>
      </trkpt>
      <trkpt lat="47.28628" lon="-1.56646">
        <ele>34</ele>
        <time>2019-10-17T13:50:48.000Z</time>
      </trkpt>
      <trkpt lat="47.28624" lon="-1.56645">
        <ele>34</ele>
        <time>2019-10-17T13:50:49.000Z</time>
      </trkpt>
      <trkpt lat="47.28619" lon="-1.56643">
        <ele>33</ele>
        <time>2019-10-17T13:50:50.000Z</time>
      </trkpt>
      <trkpt lat="47.28615" lon="-1.56642">
        <ele>33</ele>
        <time>2019-10-17T13:50:51.000Z</time>
      </trkpt>
      <trkpt lat="47.2861" lon="-1.5664">
        <ele>32</ele>
        <time>2019-10-17T13:50:52.000Z</time>
      </trkpt>
      <trkpt lat="47.28605" lon="-1.56639">
        <ele>32</ele>
        <time>2019-10-17T13:50:53.000Z</time>
      </trkpt>
      <trkpt lat="47.28601" lon="-1.56637">
        <ele>31</ele>
        <time>2019-10-17T13:50:54.000Z</time>
      </trkpt>
      <trkpt lat="47.28597" lon="-1.56635">
        <ele>31</ele>
        <time>2019-10-17T13:50:55.000Z</time>
      </trkpt>
      <trkpt lat="47.28593" lon="-1.56634">
        <ele>30</ele>
        <time>2019-10-17T13:50:56.000Z</time>
      </trkpt>
      <trkpt lat="47.28589" lon="-1.56634">
        <ele>30</ele>
        <time>2019-10-17T13:50:57.000Z</time>
      </trkpt>
      <trkpt lat="47.28587" lon="-1.56634">
        <ele>30</ele>
        <time>2019-10-17T13:50:58.000Z</time>
      </trkpt>
      <trkpt lat="47.28586" lon="-1.56635">
        <ele>29</ele>
        <time>2019-10-17T13:50:59.000Z</time>
      </trkpt>
      <trkpt lat="47.28585" lon="-1.56635">
        <ele>29</ele>
        <time>2019-10-17T13:51:00.000Z</time>
      </trkpt>
      <trkpt lat="47.28585" lon="-1.56636">
        <ele>28</ele>
        <time>2019-10-17T13:51:01.000Z</time>
      </trkpt>
      <trkpt lat="47.28584" lon="-1.56636">
        <ele>28</ele>
        <time>2019-10-17T13:51:02.000Z</time>
      </trkpt>
      <trkpt lat="47.28584" lon="-1.56637">
        <ele>28</ele>
        <time>2019-10-17T13:51:03.000Z</time>
      </trkpt>
      <trkpt lat="47.28583" lon="-1.56637">
        <ele>27</ele>
        <time>2019-10-17T13:51:04.000Z</time>
      </trkpt>
      <trkpt lat="47.28581" lon="-1.56637">
        <ele>27</ele>
        <time>2019-10-17T13:51:05.000Z</time>
      </trkpt>
      <trkpt lat="47.28581" lon="-1.56636">
        <ele>27</ele>
        <time>2019-10-17T13:51:06.000Z</time>
      </trkpt>
      <trkpt lat="47.28581" lon="-1.56635">
        <ele>26</ele>
        <time>2019-10-17T13:51:07.000Z</time>
      </trkpt>
      <trkpt lat="47.2858" lon="-1.56635">
        <ele>26</ele>
        <time>2019-10-17T13:51:08.000Z</time>
      </trkpt>
      <trkpt lat="47.28581" lon="-1.56634">
        <ele>26</ele>
        <time>2019-10-17T13:51:09.000Z</time>
      </trkpt>
      <trkpt lat="47.28584" lon="-1.56632">
        <ele>26</ele>
        <time>2019-10-17T13:51:10.000Z</time>
      </trkpt>
      <trkpt lat="47.28585" lon="-1.56632">
        <ele>26</ele>
        <time>2019-10-17T13:51:11.000Z</time>
      </trkpt>
      <trkpt lat="47.28586" lon="-1.56631">
        <ele>26</ele>
        <time>2019-10-17T13:51:12.000Z</time>
      </trkpt>
      <trkpt lat="47.28587" lon="-1.56631">
        <ele>26</ele>
        <time>2019-10-17T13:51:13.000Z</time>
      </trkpt>
      <trkpt lat="47.28589" lon="-1.56631">
        <ele>26</ele>
        <time>2019-10-17T13:51:14.000Z</time>
      </trkpt>
      <trkpt lat="47.2859" lon="-1.56631">
        <ele>26</ele>
        <time>2019-10-17T13:51:15.000Z</time>
      </trkpt>
      <trkpt lat="47.28591" lon="-1.56631">
        <ele>26</ele>
        <time>2019-10-17T13:51:16.000Z</time>
      </trkpt>
      <trkpt lat="47.28593" lon="-1.5663">
        <ele>26</ele>
        <time>2019-10-17T13:51:17.000Z</time>
      </trkpt>
      <trkpt lat="47.28594" lon="-1.56629">
        <ele>26</ele>
        <time>2019-10-17T13:51:18.000Z</time>
      </trkpt>
      <trkpt lat="47.28595" lon="-1.56627">
        <ele>26</ele>
        <time>2019-10-17T13:51:19.000Z</time>
      </trkpt>
      <trkpt lat="47.28596" lon="-1.56626">
        <ele>26</ele>
        <time>2019-10-17T13:51:20.000Z</time>
      </trkpt>
      <trkpt lat="47.28598" lon="-1.56625">
        <ele>26</ele>
        <time>2019-10-17T13:51:21.000Z</time>
      </trkpt>
      <trkpt lat="47.28599" lon="-1.56624">
        <ele>26</ele>
        <time>2019-10-17T13:51:22.000Z</time>
      </trkpt>
      <trkpt lat="47.28601" lon="-1.56623">
        <ele>26</ele>
        <time>2019-10-17T13:51:23.000Z</time>
      </trkpt>
      <trkpt lat="47.28602" lon="-1.56622">
        <ele>26</ele>
        <time>2019-10-17T13:51:24.000Z</time>
      </trkpt>
      <trkpt lat="47.28603" lon="-1.56622">
        <ele>26</ele>
        <time>2019-10-17T13:51:25.000Z</time>
      </trkpt>
      <trkpt lat="47.28604" lon="-1.5662">
        <ele>26</ele>
        <time>2019-10-17T13:51:26.000Z</time>
      </trkpt>
      <trkpt lat="47.28604" lon="-1.56619">
        <ele>26</ele>
        <time>2019-10-17T13:51:27.000Z</time>
      </trkpt>
      <trkpt lat="47.28605" lon="-1.56617">
        <ele>26</ele>
        <time>2019-10-17T13:51:28.000Z</time>
      </trkpt>
      <trkpt lat="47.28606" lon="-1.56615">
        <ele>26</ele>
        <time>2019-10-17T13:51:29.000Z</time>
      </trkpt>
      <trkpt lat="47.28607" lon="-1.56614">
        <ele>26</ele>
        <time>2019-10-17T13:51:30.000Z</time>
      </trkpt>
      <trkpt lat="47.28608" lon="-1.56613">
        <ele>26</ele>
        <time>2019-10-17T13:51:31.000Z</time>
      </trkpt>
      <trkpt lat="47.28609" lon="-1.56612">
        <ele>27</ele>
        <time>2019-10-17T13:51:32.000Z</time>
      </trkpt>
      <trkpt lat="47.2861" lon="-1.5661">
        <ele>27</ele>
        <time>2019-10-17T13:51:33.000Z</time>
      </trkpt>
      <trkpt lat="47.28611" lon="-1.56609">
        <ele>27</ele>
        <time>2019-10-17T13:51:34.000Z</time>
      </trkpt>
      <trkpt lat="47.28613" lon="-1.56608">
        <ele>27</ele>
        <time>2019-10-17T13:51:35.000Z</time>
      </trkpt>
      <trkpt lat="47.28614" lon="-1.56607">
        <ele>27</ele>
        <time>2019-10-17T13:51:36.000Z</time>
      </trkpt>
      <trkpt lat="47.28615" lon="-1.56606">
        <ele>27</ele>
        <time>2019-10-17T13:51:37.000Z</time>
      </trkpt>
      <trkpt lat="47.28616" lon="-1.56605">
        <ele>27</ele>
        <time>2019-10-17T13:51:38.000Z</time>
      </trkpt>
      <trkpt lat="47.28617" lon="-1.56605">
        <ele>28</ele>
        <time>2019-10-17T13:51:39.000Z</time>
      </trkpt>
      <trkpt lat="47.28618" lon="-1.56604">
        <ele>28</ele>
        <time>2019-10-17T13:51:40.000Z</time>
      </trkpt>
      <trkpt lat="47.28618" lon="-1.56602">
        <ele>28</ele>
        <time>2019-10-17T13:51:41.000Z</time>
      </trkpt>
      <trkpt lat="47.2862" lon="-1.56601">
        <ele>28</ele>
        <time>2019-10-17T13:51:42.000Z</time>
      </trkpt>
      <trkpt lat="47.28621" lon="-1.566">
        <ele>28</ele>
        <time>2019-10-17T13:51:43.000Z</time>
      </trkpt>
      <trkpt lat="47.28623" lon="-1.566">
        <ele>28</ele>
        <time>2019-10-17T13:51:44.000Z</time>
      </trkpt>
      <trkpt lat="47.28624" lon="-1.56598">
        <ele>29</ele>
        <time>2019-10-17T13:51:45.000Z</time>
      </trkpt>
      <trkpt lat="47.28625" lon="-1.56598">
        <ele>29</ele>
        <time>2019-10-17T13:51:46.000Z</time>
      </trkpt>
      <trkpt lat="47.28626" lon="-1.56597">
        <ele>29</ele>
        <time>2019-10-17T13:51:47.000Z</time>
      </trkpt>
      <trkpt lat="47.28627" lon="-1.56595">
        <ele>29</ele>
        <time>2019-10-17T13:51:48.000Z</time>
      </trkpt>
      <trkpt lat="47.28628" lon="-1.56594">
        <ele>29</ele>
        <time>2019-10-17T13:51:49.000Z</time>
      </trkpt>
      <trkpt lat="47.28629" lon="-1.56592">
        <ele>29</ele>
        <time>2019-10-17T13:51:50.000Z</time>
      </trkpt>
      <trkpt lat="47.2863" lon="-1.5659">
        <ele>29</ele>
        <time>2019-10-17T13:51:51.000Z</time>
      </trkpt>
      <trkpt lat="47.28631" lon="-1.56587">
        <ele>29</ele>
        <time>2019-10-17T13:51:52.000Z</time>
      </trkpt>
      <trkpt lat="47.28632" lon="-1.56585">
        <ele>29</ele>
        <time>2019-10-17T13:51:53.000Z</time>
      </trkpt>
      <trkpt lat="47.28632" lon="-1.56583">
        <ele>30</ele>
        <time>2019-10-17T13:51:54.000Z</time>
      </trkpt>
      <trkpt lat="47.28633" lon="-1.56581">
        <ele>30</ele>
        <time>2019-10-17T13:51:55.000Z</time>
      </trkpt>
      <trkpt lat="47.28635" lon="-1.56579">
        <ele>30</ele>
        <time>2019-10-17T13:51:56.000Z</time>
      </trkpt>
      <trkpt lat="47.28636" lon="-1.56577">
        <ele>30</ele>
        <time>2019-10-17T13:51:57.000Z</time>
      </trkpt>
      <trkpt lat="47.28637" lon="-1.56574">
        <ele>30</ele>
        <time>2019-10-17T13:51:58.000Z</time>
      </trkpt>
      <trkpt lat="47.28638" lon="-1.56572">
        <ele>30</ele>
        <time>2019-10-17T13:51:59.000Z</time>
      </trkpt>
      <trkpt lat="47.28639" lon="-1.5657">
        <ele>30</ele>
        <time>2019-10-17T13:52:00.000Z</time>
      </trkpt>
      <trkpt lat="47.28641" lon="-1.56568">
        <ele>29</ele>
        <time>2019-10-17T13:52:01.000Z</time>
      </trkpt>
      <trkpt lat="47.28642" lon="-1.56565">
        <ele>29</ele>
        <time>2019-10-17T13:52:02.000Z</time>
      </trkpt>
      <trkpt lat="47.28643" lon="-1.56563">
        <ele>29</ele>
        <time>2019-10-17T13:52:03.000Z</time>
      </trkpt>
      <trkpt lat="47.28644" lon="-1.5656">
        <ele>29</ele>
        <time>2019-10-17T13:52:04.000Z</time>
      </trkpt>
      <trkpt lat="47.28643" lon="-1.56557">
        <ele>29</ele>
        <time>2019-10-17T13:52:05.000Z</time>
      </trkpt>
      <trkpt lat="47.28642" lon="-1.56554">
        <ele>29</ele>
        <time>2019-10-17T13:52:06.000Z</time>
      </trkpt>
      <trkpt lat="47.2864" lon="-1.5655">
        <ele>29</ele>
        <time>2019-10-17T13:52:07.000Z</time>
      </trkpt>
      <trkpt lat="47.28637" lon="-1.56546">
        <ele>28</ele>
        <time>2019-10-17T13:52:08.000Z</time>
      </trkpt>
      <trkpt lat="47.28635" lon="-1.56542">
        <ele>28</ele>
        <time>2019-10-17T13:52:09.000Z</time>
      </trkpt>
      <trkpt lat="47.28633" lon="-1.56538">
        <ele>28</ele>
        <time>2019-10-17T13:52:10.000Z</time>
      </trkpt>
      <trkpt lat="47.2863" lon="-1.56534">
        <ele>28</ele>
        <time>2019-10-17T13:52:11.000Z</time>
      </trkpt>
      <trkpt lat="47.28627" lon="-1.5653">
        <ele>28</ele>
        <time>2019-10-17T13:52:12.000Z</time>
      </trkpt>
      <trkpt lat="47.28624" lon="-1.56526">
        <ele>27</ele>
        <time>2019-10-17T13:52:13.000Z</time>
      </trkpt>
      <trkpt lat="47.28621" lon="-1.56522">
        <ele>27</ele>
        <time>2019-10-17T13:52:14.000Z</time>
      </trkpt>
      <trkpt lat="47.28619" lon="-1.56518">
        <ele>27</ele>
        <time>2019-10-17T13:52:15.000Z</time>
      </trkpt>
      <trkpt lat="47.28616" lon="-1.56514">
        <ele>27</ele>
        <time>2019-10-17T13:52:16.000Z</time>
      </trkpt>
      <trkpt lat="47.28613" lon="-1.5651">
        <ele>27</ele>
        <time>2019-10-17T13:52:17.000Z</time>
      </trkpt>
      <trkpt lat="47.2861" lon="-1.56507">
        <ele>27</ele>
        <time>2019-10-17T13:52:18.000Z</time>
      </trkpt>
      <trkpt lat="47.28608" lon="-1.56502">
        <ele>27</ele>
        <time>2019-10-17T13:52:19.000Z</time>
      </trkpt>
      <trkpt lat="47.28606" lon="-1.56498">
        <ele>26</ele>
        <time>2019-10-17T13:52:20.000Z</time>
      </trkpt>
      <trkpt lat="47.28604" lon="-1.56494">
        <ele>26</ele>
        <time>2019-10-17T13:52:21.000Z</time>
      </trkpt>
      <trkpt lat="47.28602" lon="-1.5649">
        <ele>26</ele>
        <time>2019-10-17T13:52:22.000Z</time>
      </trkpt>
      <trkpt lat="47.286" lon="-1.56485">
        <ele>25</ele>
        <time>2019-10-17T13:52:23.000Z</time>
      </trkpt>
      <trkpt lat="47.28597" lon="-1.56481">
        <ele>25</ele>
        <time>2019-10-17T13:52:24.000Z</time>
      </trkpt>
      <trkpt lat="47.28596" lon="-1.56478">
        <ele>25</ele>
        <time>2019-10-17T13:52:25.000Z</time>
      </trkpt>
      <trkpt lat="47.28594" lon="-1.56474">
        <ele>24</ele>
        <time>2019-10-17T13:52:26.000Z</time>
      </trkpt>
      <trkpt lat="47.28591" lon="-1.56471">
        <ele>24</ele>
        <time>2019-10-17T13:52:27.000Z</time>
      </trkpt>
      <trkpt lat="47.28587" lon="-1.56467">
        <ele>24</ele>
        <time>2019-10-17T13:52:28.000Z</time>
      </trkpt>
      <trkpt lat="47.28584" lon="-1.56464">
        <ele>24</ele>
        <time>2019-10-17T13:52:29.000Z</time>
      </trkpt>
      <trkpt lat="47.28581" lon="-1.56462">
        <ele>24</ele>
        <time>2019-10-17T13:52:30.000Z</time>
      </trkpt>
      <trkpt lat="47.28577" lon="-1.5646">
        <ele>24</ele>
        <time>2019-10-17T13:52:31.000Z</time>
      </trkpt>
      <trkpt lat="47.28574" lon="-1.56457">
        <ele>24</ele>
        <time>2019-10-17T13:52:32.000Z</time>
      </trkpt>
      <trkpt lat="47.28571" lon="-1.56455">
        <ele>24</ele>
        <time>2019-10-17T13:52:33.000Z</time>
      </trkpt>
      <trkpt lat="47.2857" lon="-1.56451">
        <ele>24</ele>
        <time>2019-10-17T13:52:34.000Z</time>
      </trkpt>
      <trkpt lat="47.2857" lon="-1.56449">
        <ele>24</ele>
        <time>2019-10-17T13:52:35.000Z</time>
      </trkpt>
      <trkpt lat="47.2857" lon="-1.56448">
        <ele>24</ele>
        <time>2019-10-17T13:52:36.000Z</time>
      </trkpt>
      <trkpt lat="47.2857" lon="-1.56446">
        <ele>24</ele>
        <time>2019-10-17T13:52:37.000Z</time>
      </trkpt>
      <trkpt lat="47.2857" lon="-1.56445">
        <ele>24</ele>
        <time>2019-10-17T13:52:38.000Z</time>
      </trkpt>
      <trkpt lat="47.28571" lon="-1.56445">
        <ele>24</ele>
        <time>2019-10-17T13:52:39.000Z</time>
      </trkpt>
      <trkpt lat="47.28572" lon="-1.56445">
        <ele>24</ele>
        <time>2019-10-17T13:52:40.000Z</time>
      </trkpt>
      <trkpt lat="47.28572" lon="-1.56445">
        <ele>25</ele>
        <time>2019-10-17T13:52:41.000Z</time>
      </trkpt>
      <trkpt lat="47.28574" lon="-1.56439">
        <ele>26</ele>
        <time>2019-10-17T13:52:42.000Z</time>
      </trkpt>
      <trkpt lat="47.28575" lon="-1.56437">
        <ele>26</ele>
        <time>2019-10-17T13:52:43.000Z</time>
      </trkpt>
      <trkpt lat="47.28575" lon="-1.56436">
        <ele>26</ele>
        <time>2019-10-17T13:52:44.000Z</time>
      </trkpt>
      <trkpt lat="47.28574" lon="-1.56434">
        <ele>26</ele>
        <time>2019-10-17T13:52:45.000Z</time>
      </trkpt>
      <trkpt lat="47.28571" lon="-1.56432">
        <ele>26</ele>
        <time>2019-10-17T13:52:46.000Z</time>
      </trkpt>
      <trkpt lat="47.28567" lon="-1.56431">
        <ele>26</ele>
        <time>2019-10-17T13:52:47.000Z</time>
      </trkpt>
      <trkpt lat="47.28563" lon="-1.56428">
        <ele>26</ele>
        <time>2019-10-17T13:52:48.000Z</time>
      </trkpt>
      <trkpt lat="47.28558" lon="-1.56426">
        <ele>27</ele>
        <time>2019-10-17T13:52:49.000Z</time>
      </trkpt>
      <trkpt lat="47.28554" lon="-1.56423">
        <ele>27</ele>
        <time>2019-10-17T13:52:50.000Z</time>
      </trkpt>
      <trkpt lat="47.28551" lon="-1.56421">
        <ele>27</ele>
        <time>2019-10-17T13:52:51.000Z</time>
      </trkpt>
      <trkpt lat="47.28548" lon="-1.5642">
        <ele>27</ele>
        <time>2019-10-17T13:52:52.000Z</time>
      </trkpt>
      <trkpt lat="47.28544" lon="-1.56419">
        <ele>27</ele>
        <time>2019-10-17T13:52:53.000Z</time>
      </trkpt>
      <trkpt lat="47.28541" lon="-1.56419">
        <ele>28</ele>
        <time>2019-10-17T13:52:54.000Z</time>
      </trkpt>
      <trkpt lat="47.28538" lon="-1.56418">
        <ele>28</ele>
        <time>2019-10-17T13:52:55.000Z</time>
      </trkpt>
      <trkpt lat="47.28536" lon="-1.56416">
        <ele>28</ele>
        <time>2019-10-17T13:52:56.000Z</time>
      </trkpt>
      <trkpt lat="47.28533" lon="-1.56415">
        <ele>28</ele>
        <time>2019-10-17T13:52:57.000Z</time>
      </trkpt>
      <trkpt lat="47.28531" lon="-1.56413">
        <ele>29</ele>
        <time>2019-10-17T13:52:58.000Z</time>
      </trkpt>
      <trkpt lat="47.28528" lon="-1.56412">
        <ele>29</ele>
        <time>2019-10-17T13:52:59.000Z</time>
      </trkpt>
      <trkpt lat="47.28525" lon="-1.56411">
        <ele>29</ele>
        <time>2019-10-17T13:53:00.000Z</time>
      </trkpt>
      <trkpt lat="47.28521" lon="-1.5641">
        <ele>30</ele>
        <time>2019-10-17T13:53:01.000Z</time>
      </trkpt>
      <trkpt lat="47.28518" lon="-1.56408">
        <ele>30</ele>
        <time>2019-10-17T13:53:02.000Z</time>
      </trkpt>
      <trkpt lat="47.28515" lon="-1.56407">
        <ele>30</ele>
        <time>2019-10-17T13:53:03.000Z</time>
      </trkpt>
      <trkpt lat="47.28512" lon="-1.56405">
        <ele>31</ele>
        <time>2019-10-17T13:53:04.000Z</time>
      </trkpt>
      <trkpt lat="47.2851" lon="-1.56403">
        <ele>31</ele>
        <time>2019-10-17T13:53:05.000Z</time>
      </trkpt>
      <trkpt lat="47.28507" lon="-1.56403">
        <ele>31</ele>
        <time>2019-10-17T13:53:06.000Z</time>
      </trkpt>
      <trkpt lat="47.28505" lon="-1.56403">
        <ele>31</ele>
        <time>2019-10-17T13:53:07.000Z</time>
      </trkpt>
      <trkpt lat="47.28503" lon="-1.56404">
        <ele>32</ele>
        <time>2019-10-17T13:53:08.000Z</time>
      </trkpt>
      <trkpt lat="47.285" lon="-1.56406">
        <ele>32</ele>
        <time>2019-10-17T13:53:09.000Z</time>
      </trkpt>
      <trkpt lat="47.28497" lon="-1.56409">
        <ele>33</ele>
        <time>2019-10-17T13:53:10.000Z</time>
      </trkpt>
      <trkpt lat="47.28495" lon="-1.56412">
        <ele>33</ele>
        <time>2019-10-17T13:53:11.000Z</time>
      </trkpt>
      <trkpt lat="47.28492" lon="-1.56414">
        <ele>33</ele>
        <time>2019-10-17T13:53:12.000Z</time>
      </trkpt>
      <trkpt lat="47.28489" lon="-1.56414">
        <ele>34</ele>
        <time>2019-10-17T13:53:13.000Z</time>
      </trkpt>
      <trkpt lat="47.28487" lon="-1.56413">
        <ele>34</ele>
        <time>2019-10-17T13:53:14.000Z</time>
      </trkpt>
      <trkpt lat="47.28484" lon="-1.56411">
        <ele>34</ele>
        <time>2019-10-17T13:53:15.000Z</time>
      </trkpt>
      <trkpt lat="47.28482" lon="-1.5641">
        <ele>34</ele>
        <time>2019-10-17T13:53:16.000Z</time>
      </trkpt>
      <trkpt lat="47.28479" lon="-1.5641">
        <ele>35</ele>
        <time>2019-10-17T13:53:17.000Z</time>
      </trkpt>
      <trkpt lat="47.28476" lon="-1.56411">
        <ele>35</ele>
        <time>2019-10-17T13:53:18.000Z</time>
      </trkpt>
      <trkpt lat="47.28473" lon="-1.56411">
        <ele>35</ele>
        <time>2019-10-17T13:53:19.000Z</time>
      </trkpt>
      <trkpt lat="47.28473" lon="-1.56411">
        <ele>36</ele>
        <time>2019-10-17T13:53:22.000Z</time>
      </trkpt>
      <trkpt lat="47.28473" lon="-1.56411">
        <ele>36</ele>
        <time>2019-10-17T13:53:23.000Z</time>
      </trkpt>
      <trkpt lat="47.28463" lon="-1.56416">
        <ele>36</ele>
        <time>2019-10-17T13:53:24.000Z</time>
      </trkpt>
      <trkpt lat="47.28463" lon="-1.56419">
        <ele>36</ele>
        <time>2019-10-17T13:53:25.000Z</time>
      </trkpt>
      <trkpt lat="47.28463" lon="-1.56423">
        <ele>35</ele>
        <time>2019-10-17T13:53:26.000Z</time>
      </trkpt>
      <trkpt lat="47.28462" lon="-1.56426">
        <ele>35</ele>
        <time>2019-10-17T13:53:27.000Z</time>
      </trkpt>
      <trkpt lat="47.28461" lon="-1.56428">
        <ele>34</ele>
        <time>2019-10-17T13:53:28.000Z</time>
      </trkpt>
      <trkpt lat="47.2846" lon="-1.5643">
        <ele>34</ele>
        <time>2019-10-17T13:53:29.000Z</time>
      </trkpt>
      <trkpt lat="47.28458" lon="-1.56432">
        <ele>33</ele>
        <time>2019-10-17T13:53:30.000Z</time>
      </trkpt>
      <trkpt lat="47.28455" lon="-1.56435">
        <ele>33</ele>
        <time>2019-10-17T13:53:31.000Z</time>
      </trkpt>
      <trkpt lat="47.28453" lon="-1.56435">
        <ele>32</ele>
        <time>2019-10-17T13:53:32.000Z</time>
      </trkpt>
      <trkpt lat="47.28452" lon="-1.56434">
        <ele>32</ele>
        <time>2019-10-17T13:53:33.000Z</time>
      </trkpt>
      <trkpt lat="47.28451" lon="-1.56432">
        <ele>31</ele>
        <time>2019-10-17T13:53:34.000Z</time>
      </trkpt>
      <trkpt lat="47.2845" lon="-1.5643">
        <ele>29</ele>
        <time>2019-10-17T13:53:35.000Z</time>
      </trkpt>
      <trkpt lat="47.2845" lon="-1.5643">
        <ele>28</ele>
        <time>2019-10-17T13:53:36.000Z</time>
      </trkpt>
      <trkpt lat="47.2845" lon="-1.5643">
        <ele>26</ele>
        <time>2019-10-17T13:53:37.000Z</time>
      </trkpt>
      <trkpt lat="47.2845" lon="-1.56429">
        <ele>25</ele>
        <time>2019-10-17T13:53:38.000Z</time>
      </trkpt>
      <trkpt lat="47.2845" lon="-1.5643">
        <ele>23</ele>
        <time>2019-10-17T13:53:39.000Z</time>
      </trkpt>
      <trkpt lat="47.2845" lon="-1.5643">
        <ele>22</ele>
        <time>2019-10-17T13:53:40.000Z</time>
      </trkpt>
      <trkpt lat="47.2845" lon="-1.5643">
        <ele>21</ele>
        <time>2019-10-17T13:53:41.000Z</time>
      </trkpt>
      <trkpt lat="47.28449" lon="-1.5643">
        <ele>20</ele>
        <time>2019-10-17T13:53:42.000Z</time>
      </trkpt>
      <trkpt lat="47.28447" lon="-1.56428">
        <ele>20</ele>
        <time>2019-10-17T13:53:43.000Z</time>
      </trkpt>
      <trkpt lat="47.28445" lon="-1.56427">
        <ele>20</ele>
        <time>2019-10-17T13:53:44.000Z</time>
      </trkpt>
      <trkpt lat="47.28442" lon="-1.56427">
        <ele>21</ele>
        <time>2019-10-17T13:53:45.000Z</time>
      </trkpt>
      <trkpt lat="47.2844" lon="-1.56426">
        <ele>21</ele>
        <time>2019-10-17T13:53:46.000Z</time>
      </trkpt>
      <trkpt lat="47.28437" lon="-1.56424">
        <ele>21</ele>
        <time>2019-10-17T13:53:47.000Z</time>
      </trkpt>
      <trkpt lat="47.28434" lon="-1.56423">
        <ele>22</ele>
        <time>2019-10-17T13:53:48.000Z</time>
      </trkpt>
      <trkpt lat="47.28432" lon="-1.56422">
        <ele>22</ele>
        <time>2019-10-17T13:53:49.000Z</time>
      </trkpt>
      <trkpt lat="47.28429" lon="-1.56422">
        <ele>23</ele>
        <time>2019-10-17T13:53:50.000Z</time>
      </trkpt>
      <trkpt lat="47.28426" lon="-1.56421">
        <ele>23</ele>
        <time>2019-10-17T13:53:51.000Z</time>
      </trkpt>
      <trkpt lat="47.28422" lon="-1.56419">
        <ele>24</ele>
        <time>2019-10-17T13:53:52.000Z</time>
      </trkpt>
      <trkpt lat="47.28419" lon="-1.56417">
        <ele>24</ele>
        <time>2019-10-17T13:53:53.000Z</time>
      </trkpt>
      <trkpt lat="47.28417" lon="-1.56415">
        <ele>24</ele>
        <time>2019-10-17T13:53:54.000Z</time>
      </trkpt>
      <trkpt lat="47.28416" lon="-1.56414">
        <ele>24</ele>
        <time>2019-10-17T13:53:55.000Z</time>
      </trkpt>
      <trkpt lat="47.28414" lon="-1.56412">
        <ele>24</ele>
        <time>2019-10-17T13:53:56.000Z</time>
      </trkpt>
      <trkpt lat="47.28412" lon="-1.5641">
        <ele>25</ele>
        <time>2019-10-17T13:53:57.000Z</time>
      </trkpt>
      <trkpt lat="47.28411" lon="-1.56409">
        <ele>25</ele>
        <time>2019-10-17T13:53:58.000Z</time>
      </trkpt>
      <trkpt lat="47.28411" lon="-1.56408">
        <ele>25</ele>
        <time>2019-10-17T13:53:59.000Z</time>
      </trkpt>
      <trkpt lat="47.28411" lon="-1.56408">
        <ele>25</ele>
        <time>2019-10-17T13:54:00.000Z</time>
      </trkpt>
      <trkpt lat="47.28411" lon="-1.56407">
        <ele>25</ele>
        <time>2019-10-17T13:54:01.000Z</time>
      </trkpt>
      <trkpt lat="47.28412" lon="-1.56407">
        <ele>25</ele>
        <time>2019-10-17T13:54:02.000Z</time>
      </trkpt>
      <trkpt lat="47.28412" lon="-1.56408">
        <ele>25</ele>
        <time>2019-10-17T13:54:03.000Z</time>
      </trkpt>
      <trkpt lat="47.28412" lon="-1.56408">
        <ele>26</ele>
        <time>2019-10-17T13:54:04.000Z</time>
      </trkpt>
      <trkpt lat="47.28412" lon="-1.56409">
        <ele>26</ele>
        <time>2019-10-17T13:54:05.000Z</time>
      </trkpt>
      <trkpt lat="47.28406" lon="-1.56408">
        <ele>28</ele>
        <time>2019-10-17T13:54:06.000Z</time>
      </trkpt>
      <trkpt lat="47.28404" lon="-1.56407">
        <ele>28</ele>
        <time>2019-10-17T13:54:07.000Z</time>
      </trkpt>
      <trkpt lat="47.28401" lon="-1.56406">
        <ele>29</ele>
        <time>2019-10-17T13:54:08.000Z</time>
      </trkpt>
      <trkpt lat="47.28399" lon="-1.56405">
        <ele>29</ele>
        <time>2019-10-17T13:54:09.000Z</time>
      </trkpt>
      <trkpt lat="47.28397" lon="-1.56403">
        <ele>30</ele>
        <time>2019-10-17T13:54:10.000Z</time>
      </trkpt>
      <trkpt lat="47.28396" lon="-1.56401">
        <ele>30</ele>
        <time>2019-10-17T13:54:11.000Z</time>
      </trkpt>
      <trkpt lat="47.28396" lon="-1.56399">
        <ele>31</ele>
        <time>2019-10-17T13:54:12.000Z</time>
      </trkpt>
      <trkpt lat="47.28396" lon="-1.56397">
        <ele>31</ele>
        <time>2019-10-17T13:54:13.000Z</time>
      </trkpt>
      <trkpt lat="47.28397" lon="-1.56395">
        <ele>32</ele>
        <time>2019-10-17T13:54:14.000Z</time>
      </trkpt>
      <trkpt lat="47.28397" lon="-1.56395">
        <ele>32</ele>
        <time>2019-10-17T13:54:15.000Z</time>
      </trkpt>
      <trkpt lat="47.28397" lon="-1.56394">
        <ele>32</ele>
        <time>2019-10-17T13:54:16.000Z</time>
      </trkpt>
      <trkpt lat="47.28396" lon="-1.56393">
        <ele>33</ele>
        <time>2019-10-17T13:54:17.000Z</time>
      </trkpt>
      <trkpt lat="47.28396" lon="-1.56391">
        <ele>33</ele>
        <time>2019-10-17T13:54:18.000Z</time>
      </trkpt>
      <trkpt lat="47.28397" lon="-1.5639">
        <ele>34</ele>
        <time>2019-10-17T13:54:19.000Z</time>
      </trkpt>
      <trkpt lat="47.28398" lon="-1.56388">
        <ele>34</ele>
        <time>2019-10-17T13:54:20.000Z</time>
      </trkpt>
      <trkpt lat="47.28399" lon="-1.56387">
        <ele>34</ele>
        <time>2019-10-17T13:54:21.000Z</time>
      </trkpt>
      <trkpt lat="47.28401" lon="-1.56387">
        <ele>35</ele>
        <time>2019-10-17T13:54:22.000Z</time>
      </trkpt>
      <trkpt lat="47.28403" lon="-1.56386">
        <ele>35</ele>
        <time>2019-10-17T13:54:23.000Z</time>
      </trkpt>
      <trkpt lat="47.28404" lon="-1.56384">
        <ele>35</ele>
        <time>2019-10-17T13:54:24.000Z</time>
      </trkpt>
      <trkpt lat="47.28406" lon="-1.56382">
        <ele>36</ele>
        <time>2019-10-17T13:54:25.000Z</time>
      </trkpt>
      <trkpt lat="47.28407" lon="-1.56379">
        <ele>36</ele>
        <time>2019-10-17T13:54:26.000Z</time>
      </trkpt>
      <trkpt lat="47.28409" lon="-1.56377">
        <ele>36</ele>
        <time>2019-10-17T13:54:27.000Z</time>
      </trkpt>
      <trkpt lat="47.28411" lon="-1.56377">
        <ele>37</ele>
        <time>2019-10-17T13:54:28.000Z</time>
      </trkpt>
      <trkpt lat="47.28413" lon="-1.56374">
        <ele>37</ele>
        <time>2019-10-17T13:54:29.000Z</time>
      </trkpt>
      <trkpt lat="47.28415" lon="-1.56372">
        <ele>37</ele>
        <time>2019-10-17T13:54:30.000Z</time>
      </trkpt>
      <trkpt lat="47.28416" lon="-1.56369">
        <ele>37</ele>
        <time>2019-10-17T13:54:31.000Z</time>
      </trkpt>
      <trkpt lat="47.28417" lon="-1.56368">
        <ele>37</ele>
        <time>2019-10-17T13:54:32.000Z</time>
      </trkpt>
      <trkpt lat="47.28419" lon="-1.56366">
        <ele>37</ele>
        <time>2019-10-17T13:54:33.000Z</time>
      </trkpt>
      <trkpt lat="47.2842" lon="-1.56364">
        <ele>37</ele>
        <time>2019-10-17T13:54:34.000Z</time>
      </trkpt>
      <trkpt lat="47.28422" lon="-1.56362">
        <ele>38</ele>
        <time>2019-10-17T13:54:35.000Z</time>
      </trkpt>
      <trkpt lat="47.28423" lon="-1.56359">
        <ele>38</ele>
        <time>2019-10-17T13:54:36.000Z</time>
      </trkpt>
      <trkpt lat="47.28423" lon="-1.56359">
        <ele>38</ele>
        <time>2019-10-17T13:54:40.000Z</time>
      </trkpt>
      <trkpt lat="47.28423" lon="-1.56359">
        <ele>38</ele>
        <time>2019-10-17T13:54:41.000Z</time>
      </trkpt>
      <trkpt lat="47.28433" lon="-1.56347">
        <ele>38</ele>
        <time>2019-10-17T13:54:42.000Z</time>
      </trkpt>
      <trkpt lat="47.28434" lon="-1.56345">
        <ele>38</ele>
        <time>2019-10-17T13:54:43.000Z</time>
      </trkpt>
      <trkpt lat="47.28434" lon="-1.56345">
        <ele>38</ele>
        <time>2019-10-17T13:54:47.000Z</time>
      </trkpt>
      <trkpt lat="47.28434" lon="-1.56345">
        <ele>38</ele>
        <time>2019-10-17T13:54:48.000Z</time>
      </trkpt>
      <trkpt lat="47.28443" lon="-1.5633">
        <ele>38</ele>
        <time>2019-10-17T13:54:49.000Z</time>
      </trkpt>
      <trkpt lat="47.28444" lon="-1.56326">
        <ele>38</ele>
        <time>2019-10-17T13:54:50.000Z</time>
      </trkpt>
      <trkpt lat="47.28445" lon="-1.56321">
        <ele>37</ele>
        <time>2019-10-17T13:54:51.000Z</time>
      </trkpt>
      <trkpt lat="47.28446" lon="-1.56317">
        <ele>36</ele>
        <time>2019-10-17T13:54:52.000Z</time>
      </trkpt>
      <trkpt lat="47.28447" lon="-1.56312">
        <ele>36</ele>
        <time>2019-10-17T13:54:53.000Z</time>
      </trkpt>
      <trkpt lat="47.28447" lon="-1.56307">
        <ele>35</ele>
        <time>2019-10-17T13:54:54.000Z</time>
      </trkpt>
      <trkpt lat="47.28448" lon="-1.563">
        <ele>35</ele>
        <time>2019-10-17T13:54:55.000Z</time>
      </trkpt>
      <trkpt lat="47.28448" lon="-1.56293">
        <ele>33</ele>
        <time>2019-10-17T13:54:56.000Z</time>
      </trkpt>
      <trkpt lat="47.28449" lon="-1.56287">
        <ele>32</ele>
        <time>2019-10-17T13:54:57.000Z</time>
      </trkpt>
      <trkpt lat="47.2845" lon="-1.5628">
        <ele>32</ele>
        <time>2019-10-17T13:54:58.000Z</time>
      </trkpt>
      <trkpt lat="47.28451" lon="-1.56274">
        <ele>31</ele>
        <time>2019-10-17T13:54:59.000Z</time>
      </trkpt>
      <trkpt lat="47.28451" lon="-1.5627">
        <ele>31</ele>
        <time>2019-10-17T13:55:00.000Z</time>
      </trkpt>
      <trkpt lat="47.28453" lon="-1.56265">
        <ele>31</ele>
        <time>2019-10-17T13:55:01.000Z</time>
      </trkpt>
      <trkpt lat="47.28454" lon="-1.5626">
        <ele>31</ele>
        <time>2019-10-17T13:55:02.000Z</time>
      </trkpt>
      <trkpt lat="47.28455" lon="-1.56256">
        <ele>31</ele>
        <time>2019-10-17T13:55:03.000Z</time>
      </trkpt>
      <trkpt lat="47.28456" lon="-1.56252">
        <ele>31</ele>
        <time>2019-10-17T13:55:04.000Z</time>
      </trkpt>
      <trkpt lat="47.28457" lon="-1.56249">
        <ele>31</ele>
        <time>2019-10-17T13:55:05.000Z</time>
      </trkpt>
      <trkpt lat="47.28457" lon="-1.56249">
        <ele>33</ele>
        <time>2019-10-17T13:55:07.000Z</time>
      </trkpt>
      <trkpt lat="47.28457" lon="-1.56249">
        <ele>35</ele>
        <time>2019-10-17T13:55:08.000Z</time>
      </trkpt>
      <trkpt lat="47.28456" lon="-1.56229">
        <ele>37</ele>
        <time>2019-10-17T13:55:09.000Z</time>
      </trkpt>
      <trkpt lat="47.28454" lon="-1.56223">
        <ele>40</ele>
        <time>2019-10-17T13:55:10.000Z</time>
      </trkpt>
      <trkpt lat="47.28451" lon="-1.56217">
        <ele>42</ele>
        <time>2019-10-17T13:55:11.000Z</time>
      </trkpt>
      <trkpt lat="47.28448" lon="-1.56212">
        <ele>45</ele>
        <time>2019-10-17T13:55:12.000Z</time>
      </trkpt>
      <trkpt lat="47.28444" lon="-1.56208">
        <ele>47</ele>
        <time>2019-10-17T13:55:13.000Z</time>
      </trkpt>
      <trkpt lat="47.2844" lon="-1.56204">
        <ele>49</ele>
        <time>2019-10-17T13:55:14.000Z</time>
      </trkpt>
      <trkpt lat="47.28435" lon="-1.562">
        <ele>51</ele>
        <time>2019-10-17T13:55:15.000Z</time>
      </trkpt>
      <trkpt lat="47.28431" lon="-1.56196">
        <ele>52</ele>
        <time>2019-10-17T13:55:16.000Z</time>
      </trkpt>
      <trkpt lat="47.28426" lon="-1.56191">
        <ele>54</ele>
        <time>2019-10-17T13:55:17.000Z</time>
      </trkpt>
      <trkpt lat="47.28422" lon="-1.56187">
        <ele>55</ele>
        <time>2019-10-17T13:55:18.000Z</time>
      </trkpt>
      <trkpt lat="47.28417" lon="-1.56182">
        <ele>56</ele>
        <time>2019-10-17T13:55:19.000Z</time>
      </trkpt>
      <trkpt lat="47.28412" lon="-1.56176">
        <ele>56</ele>
        <time>2019-10-17T13:55:20.000Z</time>
      </trkpt>
      <trkpt lat="47.28407" lon="-1.56172">
        <ele>57</ele>
        <time>2019-10-17T13:55:21.000Z</time>
      </trkpt>
      <trkpt lat="47.28403" lon="-1.56167">
        <ele>58</ele>
        <time>2019-10-17T13:55:22.000Z</time>
      </trkpt>
      <trkpt lat="47.28399" lon="-1.56164">
        <ele>58</ele>
        <time>2019-10-17T13:55:23.000Z</time>
      </trkpt>
      <trkpt lat="47.28395" lon="-1.5616">
        <ele>59</ele>
        <time>2019-10-17T13:55:24.000Z</time>
      </trkpt>
      <trkpt lat="47.28391" lon="-1.56155">
        <ele>60</ele>
        <time>2019-10-17T13:55:25.000Z</time>
      </trkpt>
      <trkpt lat="47.28387" lon="-1.5615">
        <ele>60</ele>
        <time>2019-10-17T13:55:26.000Z</time>
      </trkpt>
      <trkpt lat="47.28384" lon="-1.56145">
        <ele>61</ele>
        <time>2019-10-17T13:55:27.000Z</time>
      </trkpt>
      <trkpt lat="47.28381" lon="-1.56141">
        <ele>62</ele>
        <time>2019-10-17T13:55:28.000Z</time>
      </trkpt>
      <trkpt lat="47.28379" lon="-1.56137">
        <ele>63</ele>
        <time>2019-10-17T13:55:29.000Z</time>
      </trkpt>
      <trkpt lat="47.28376" lon="-1.56134">
        <ele>64</ele>
        <time>2019-10-17T13:55:30.000Z</time>
      </trkpt>
      <trkpt lat="47.28376" lon="-1.56134">
        <ele>65</ele>
        <time>2019-10-17T13:55:33.000Z</time>
      </trkpt>
      <trkpt lat="47.28376" lon="-1.56134">
        <ele>65</ele>
        <time>2019-10-17T13:55:34.000Z</time>
      </trkpt>
      <trkpt lat="47.2836" lon="-1.56128">
        <ele>65</ele>
        <time>2019-10-17T13:55:35.000Z</time>
      </trkpt>
      <trkpt lat="47.28356" lon="-1.56128">
        <ele>65</ele>
        <time>2019-10-17T13:55:36.000Z</time>
      </trkpt>
      <trkpt lat="47.28352" lon="-1.56127">
        <ele>64</ele>
        <time>2019-10-17T13:55:37.000Z</time>
      </trkpt>
      <trkpt lat="47.28347" lon="-1.56126">
        <ele>63</ele>
        <time>2019-10-17T13:55:38.000Z</time>
      </trkpt>
      <trkpt lat="47.28343" lon="-1.56125">
        <ele>63</ele>
        <time>2019-10-17T13:55:39.000Z</time>
      </trkpt>
      <trkpt lat="47.28339" lon="-1.56126">
        <ele>62</ele>
        <time>2019-10-17T13:55:40.000Z</time>
      </trkpt>
      <trkpt lat="47.28335" lon="-1.56127">
        <ele>61</ele>
        <time>2019-10-17T13:55:41.000Z</time>
      </trkpt>
      <trkpt lat="47.28332" lon="-1.56129">
        <ele>61</ele>
        <time>2019-10-17T13:55:42.000Z</time>
      </trkpt>
      <trkpt lat="47.2833" lon="-1.5613">
        <ele>60</ele>
        <time>2019-10-17T13:55:43.000Z</time>
      </trkpt>
      <trkpt lat="47.28329" lon="-1.56132">
        <ele>59</ele>
        <time>2019-10-17T13:55:44.000Z</time>
      </trkpt>
      <trkpt lat="47.28328" lon="-1.56133">
        <ele>58</ele>
        <time>2019-10-17T13:55:45.000Z</time>
      </trkpt>
      <trkpt lat="47.28326" lon="-1.56135">
        <ele>57</ele>
        <time>2019-10-17T13:55:46.000Z</time>
      </trkpt>
      <trkpt lat="47.28325" lon="-1.56137">
        <ele>56</ele>
        <time>2019-10-17T13:55:47.000Z</time>
      </trkpt>
      <trkpt lat="47.28324" lon="-1.5614">
        <ele>55</ele>
        <time>2019-10-17T13:55:48.000Z</time>
      </trkpt>
      <trkpt lat="47.28322" lon="-1.56141">
        <ele>53</ele>
        <time>2019-10-17T13:55:49.000Z</time>
      </trkpt>
      <trkpt lat="47.28321" lon="-1.56143">
        <ele>52</ele>
        <time>2019-10-17T13:55:50.000Z</time>
      </trkpt>
      <trkpt lat="47.2832" lon="-1.56145">
        <ele>51</ele>
        <time>2019-10-17T13:55:51.000Z</time>
      </trkpt>
      <trkpt lat="47.28319" lon="-1.56147">
        <ele>50</ele>
        <time>2019-10-17T13:55:52.000Z</time>
      </trkpt>
      <trkpt lat="47.28319" lon="-1.56149">
        <ele>48</ele>
        <time>2019-10-17T13:55:53.000Z</time>
      </trkpt>
      <trkpt lat="47.2832" lon="-1.56153">
        <ele>50</ele>
        <time>2019-10-17T13:55:54.000Z</time>
      </trkpt>
      <trkpt lat="47.28321" lon="-1.56158">
        <ele>51</ele>
        <time>2019-10-17T13:55:55.000Z</time>
      </trkpt>
      <trkpt lat="47.28322" lon="-1.56164">
        <ele>53</ele>
        <time>2019-10-17T13:55:56.000Z</time>
      </trkpt>
      <trkpt lat="47.28323" lon="-1.56171">
        <ele>54</ele>
        <time>2019-10-17T13:55:57.000Z</time>
      </trkpt>
      <trkpt lat="47.28323" lon="-1.56179">
        <ele>54</ele>
        <time>2019-10-17T13:55:58.000Z</time>
      </trkpt>
      <trkpt lat="47.28323" lon="-1.56186">
        <ele>53</ele>
        <time>2019-10-17T13:55:59.000Z</time>
      </trkpt>
      <trkpt lat="47.28323" lon="-1.56193">
        <ele>51</ele>
        <time>2019-10-17T13:56:00.000Z</time>
      </trkpt>
      <trkpt lat="47.28322" lon="-1.56199">
        <ele>50</ele>
        <time>2019-10-17T13:56:01.000Z</time>
      </trkpt>
      <trkpt lat="47.28322" lon="-1.56203">
        <ele>48</ele>
        <time>2019-10-17T13:56:02.000Z</time>
      </trkpt>
      <trkpt lat="47.28321" lon="-1.56207">
        <ele>46</ele>
        <time>2019-10-17T13:56:03.000Z</time>
      </trkpt>
      <trkpt lat="47.2832" lon="-1.56209">
        <ele>45</ele>
        <time>2019-10-17T13:56:04.000Z</time>
      </trkpt>
      <trkpt lat="47.2832" lon="-1.5621">
        <ele>44</ele>
        <time>2019-10-17T13:56:05.000Z</time>
      </trkpt>
      <trkpt lat="47.2832" lon="-1.5621">
        <ele>43</ele>
        <time>2019-10-17T13:56:06.000Z</time>
      </trkpt>
      <trkpt lat="47.28317" lon="-1.56211">
        <ele>42</ele>
        <time>2019-10-17T13:56:07.000Z</time>
      </trkpt>
      <trkpt lat="47.28314" lon="-1.56211">
        <ele>41</ele>
        <time>2019-10-17T13:56:08.000Z</time>
      </trkpt>
      <trkpt lat="47.2831" lon="-1.56211">
        <ele>40</ele>
        <time>2019-10-17T13:56:09.000Z</time>
      </trkpt>
      <trkpt lat="47.28306" lon="-1.56213">
        <ele>40</ele>
        <time>2019-10-17T13:56:10.000Z</time>
      </trkpt>
      <trkpt lat="47.28301" lon="-1.56216">
        <ele>39</ele>
        <time>2019-10-17T13:56:11.000Z</time>
      </trkpt>
      <trkpt lat="47.28296" lon="-1.56216">
        <ele>39</ele>
        <time>2019-10-17T13:56:12.000Z</time>
      </trkpt>
      <trkpt lat="47.28292" lon="-1.56216">
        <ele>38</ele>
        <time>2019-10-17T13:56:13.000Z</time>
      </trkpt>
      <trkpt lat="47.28288" lon="-1.56216">
        <ele>38</ele>
        <time>2019-10-17T13:56:14.000Z</time>
      </trkpt>
      <trkpt lat="47.28285" lon="-1.56218">
        <ele>38</ele>
        <time>2019-10-17T13:56:15.000Z</time>
      </trkpt>
      <trkpt lat="47.28282" lon="-1.5622">
        <ele>37</ele>
        <time>2019-10-17T13:56:16.000Z</time>
      </trkpt>
      <trkpt lat="47.2828" lon="-1.56223">
        <ele>37</ele>
        <time>2019-10-17T13:56:17.000Z</time>
      </trkpt>
      <trkpt lat="47.28279" lon="-1.56226">
        <ele>37</ele>
        <time>2019-10-17T13:56:18.000Z</time>
      </trkpt>
      <trkpt lat="47.2828" lon="-1.5623">
        <ele>36</ele>
        <time>2019-10-17T13:56:19.000Z</time>
      </trkpt>
      <trkpt lat="47.28281" lon="-1.56235">
        <ele>36</ele>
        <time>2019-10-17T13:56:20.000Z</time>
      </trkpt>
      <trkpt lat="47.28283" lon="-1.5624">
        <ele>36</ele>
        <time>2019-10-17T13:56:21.000Z</time>
      </trkpt>
      <trkpt lat="47.28285" lon="-1.56245">
        <ele>36</ele>
        <time>2019-10-17T13:56:22.000Z</time>
      </trkpt>
      <trkpt lat="47.28287" lon="-1.56251">
        <ele>36</ele>
        <time>2019-10-17T13:56:23.000Z</time>
      </trkpt>
      <trkpt lat="47.28288" lon="-1.56256">
        <ele>36</ele>
        <time>2019-10-17T13:56:24.000Z</time>
      </trkpt>
      <trkpt lat="47.28288" lon="-1.56262">
        <ele>36</ele>
        <time>2019-10-17T13:56:25.000Z</time>
      </trkpt>
      <trkpt lat="47.28289" lon="-1.56268">
        <ele>36</ele>
        <time>2019-10-17T13:56:26.000Z</time>
      </trkpt>
      <trkpt lat="47.2829" lon="-1.56275">
        <ele>36</ele>
        <time>2019-10-17T13:56:27.000Z</time>
      </trkpt>
      <trkpt lat="47.28292" lon="-1.56282">
        <ele>36</ele>
        <time>2019-10-17T13:56:28.000Z</time>
      </trkpt>
      <trkpt lat="47.28294" lon="-1.56289">
        <ele>36</ele>
        <time>2019-10-17T13:56:29.000Z</time>
      </trkpt>
      <trkpt lat="47.28295" lon="-1.56295">
        <ele>36</ele>
        <time>2019-10-17T13:56:30.000Z</time>
      </trkpt>
      <trkpt lat="47.28297" lon="-1.56302">
        <ele>36</ele>
        <time>2019-10-17T13:56:31.000Z</time>
      </trkpt>
      <trkpt lat="47.28298" lon="-1.56309">
        <ele>36</ele>
        <time>2019-10-17T13:56:32.000Z</time>
      </trkpt>
      <trkpt lat="47.28298" lon="-1.56315">
        <ele>36</ele>
        <time>2019-10-17T13:56:33.000Z</time>
      </trkpt>
      <trkpt lat="47.28299" lon="-1.56323">
        <ele>36</ele>
        <time>2019-10-17T13:56:34.000Z</time>
      </trkpt>
      <trkpt lat="47.283" lon="-1.56329">
        <ele>36</ele>
        <time>2019-10-17T13:56:35.000Z</time>
      </trkpt>
      <trkpt lat="47.28301" lon="-1.56334">
        <ele>37</ele>
        <time>2019-10-17T13:56:36.000Z</time>
      </trkpt>
      <trkpt lat="47.28302" lon="-1.56338">
        <ele>37</ele>
        <time>2019-10-17T13:56:37.000Z</time>
      </trkpt>
      <trkpt lat="47.28303" lon="-1.56341">
        <ele>37</ele>
        <time>2019-10-17T13:56:38.000Z</time>
      </trkpt>
      <trkpt lat="47.28303" lon="-1.56346">
        <ele>37</ele>
        <time>2019-10-17T13:56:39.000Z</time>
      </trkpt>
      <trkpt lat="47.28304" lon="-1.5635">
        <ele>37</ele>
        <time>2019-10-17T13:56:40.000Z</time>
      </trkpt>
      <trkpt lat="47.28305" lon="-1.56354">
        <ele>37</ele>
        <time>2019-10-17T13:56:41.000Z</time>
      </trkpt>
      <trkpt lat="47.28305" lon="-1.56358">
        <ele>37</ele>
        <time>2019-10-17T13:56:42.000Z</time>
      </trkpt>
      <trkpt lat="47.28306" lon="-1.5636">
        <ele>37</ele>
        <time>2019-10-17T13:56:43.000Z</time>
      </trkpt>
      <trkpt lat="47.28307" lon="-1.56363">
        <ele>37</ele>
        <time>2019-10-17T13:56:44.000Z</time>
      </trkpt>
      <trkpt lat="47.28308" lon="-1.56366">
        <ele>37</ele>
        <time>2019-10-17T13:56:45.000Z</time>
      </trkpt>
      <trkpt lat="47.28309" lon="-1.5637">
        <ele>37</ele>
        <time>2019-10-17T13:56:46.000Z</time>
      </trkpt>
      <trkpt lat="47.28311" lon="-1.56375">
        <ele>37</ele>
        <time>2019-10-17T13:56:47.000Z</time>
      </trkpt>
      <trkpt lat="47.28313" lon="-1.5638">
        <ele>37</ele>
        <time>2019-10-17T13:56:48.000Z</time>
      </trkpt>
      <trkpt lat="47.28315" lon="-1.56385">
        <ele>37</ele>
        <time>2019-10-17T13:56:49.000Z</time>
      </trkpt>
      <trkpt lat="47.28317" lon="-1.56389">
        <ele>37</ele>
        <time>2019-10-17T13:56:50.000Z</time>
      </trkpt>
      <trkpt lat="47.28319" lon="-1.56393">
        <ele>37</ele>
        <time>2019-10-17T13:56:51.000Z</time>
      </trkpt>
      <trkpt lat="47.28321" lon="-1.56397">
        <ele>37</ele>
        <time>2019-10-17T13:56:52.000Z</time>
      </trkpt>
      <trkpt lat="47.28323" lon="-1.56402">
        <ele>37</ele>
        <time>2019-10-17T13:56:53.000Z</time>
      </trkpt>
      <trkpt lat="47.28324" lon="-1.56406">
        <ele>36</ele>
        <time>2019-10-17T13:56:54.000Z</time>
      </trkpt>
      <trkpt lat="47.28325" lon="-1.56411">
        <ele>36</ele>
        <time>2019-10-17T13:56:55.000Z</time>
      </trkpt>
      <trkpt lat="47.28327" lon="-1.56417">
        <ele>35</ele>
        <time>2019-10-17T13:56:56.000Z</time>
      </trkpt>
      <trkpt lat="47.28329" lon="-1.56424">
        <ele>35</ele>
        <time>2019-10-17T13:56:57.000Z</time>
      </trkpt>
      <trkpt lat="47.28331" lon="-1.5643">
        <ele>34</ele>
        <time>2019-10-17T13:56:58.000Z</time>
      </trkpt>
      <trkpt lat="47.28333" lon="-1.56434">
        <ele>33</ele>
        <time>2019-10-17T13:56:59.000Z</time>
      </trkpt>
      <trkpt lat="47.28335" lon="-1.56438">
        <ele>33</ele>
        <time>2019-10-17T13:57:00.000Z</time>
      </trkpt>
      <trkpt lat="47.28335" lon="-1.56441">
        <ele>32</ele>
        <time>2019-10-17T13:57:01.000Z</time>
      </trkpt>
      <trkpt lat="47.28336" lon="-1.56443">
        <ele>31</ele>
        <time>2019-10-17T13:57:02.000Z</time>
      </trkpt>
      <trkpt lat="47.28336" lon="-1.56446">
        <ele>31</ele>
        <time>2019-10-17T13:57:03.000Z</time>
      </trkpt>
      <trkpt lat="47.28335" lon="-1.56449">
        <ele>30</ele>
        <time>2019-10-17T13:57:04.000Z</time>
      </trkpt>
      <trkpt lat="47.28333" lon="-1.56451">
        <ele>29</ele>
        <time>2019-10-17T13:57:05.000Z</time>
      </trkpt>
      <trkpt lat="47.28331" lon="-1.56452">
        <ele>29</ele>
        <time>2019-10-17T13:57:06.000Z</time>
      </trkpt>
      <trkpt lat="47.2833" lon="-1.56453">
        <ele>28</ele>
        <time>2019-10-17T13:57:07.000Z</time>
      </trkpt>
      <trkpt lat="47.28328" lon="-1.56454">
        <ele>27</ele>
        <time>2019-10-17T13:57:08.000Z</time>
      </trkpt>
      <trkpt lat="47.28326" lon="-1.56455">
        <ele>27</ele>
        <time>2019-10-17T13:57:09.000Z</time>
      </trkpt>
      <trkpt lat="47.28324" lon="-1.56457">
        <ele>26</ele>
        <time>2019-10-17T13:57:10.000Z</time>
      </trkpt>
      <trkpt lat="47.28322" lon="-1.56458">
        <ele>26</ele>
        <time>2019-10-17T13:57:11.000Z</time>
      </trkpt>
      <trkpt lat="47.28319" lon="-1.56459">
        <ele>26</ele>
        <time>2019-10-17T13:57:12.000Z</time>
      </trkpt>
      <trkpt lat="47.28317" lon="-1.56459">
        <ele>25</ele>
        <time>2019-10-17T13:57:13.000Z</time>
      </trkpt>
      <trkpt lat="47.28315" lon="-1.56459">
        <ele>25</ele>
        <time>2019-10-17T13:57:14.000Z</time>
      </trkpt>
      <trkpt lat="47.28313" lon="-1.5646">
        <ele>24</ele>
        <time>2019-10-17T13:57:15.000Z</time>
      </trkpt>
      <trkpt lat="47.28311" lon="-1.56461">
        <ele>24</ele>
        <time>2019-10-17T13:57:16.000Z</time>
      </trkpt>
      <trkpt lat="47.28309" lon="-1.56461">
        <ele>23</ele>
        <time>2019-10-17T13:57:17.000Z</time>
      </trkpt>
      <trkpt lat="47.28308" lon="-1.56461">
        <ele>23</ele>
        <time>2019-10-17T13:57:18.000Z</time>
      </trkpt>
      <trkpt lat="47.28306" lon="-1.56463">
        <ele>22</ele>
        <time>2019-10-17T13:57:19.000Z</time>
      </trkpt>
      <trkpt lat="47.28306" lon="-1.56464">
        <ele>22</ele>
        <time>2019-10-17T13:57:20.000Z</time>
      </trkpt>
      <trkpt lat="47.28306" lon="-1.56465">
        <ele>21</ele>
        <time>2019-10-17T13:57:21.000Z</time>
      </trkpt>
      <trkpt lat="47.28306" lon="-1.56466">
        <ele>21</ele>
        <time>2019-10-17T13:57:22.000Z</time>
      </trkpt>
      <trkpt lat="47.28305" lon="-1.56467">
        <ele>21</ele>
        <time>2019-10-17T13:57:23.000Z</time>
      </trkpt>
      <trkpt lat="47.28305" lon="-1.56468">
        <ele>20</ele>
        <time>2019-10-17T13:57:24.000Z</time>
      </trkpt>
      <trkpt lat="47.28298" lon="-1.56476">
        <ele>15</ele>
        <time>2019-10-17T13:57:25.000Z</time>
      </trkpt>
      <trkpt lat="47.28297" lon="-1.56476">
        <ele>15</ele>
        <time>2019-10-17T13:57:26.000Z</time>
      </trkpt>
      <trkpt lat="47.28296" lon="-1.56476">
        <ele>15</ele>
        <time>2019-10-17T13:57:27.000Z</time>
      </trkpt>
      <trkpt lat="47.28295" lon="-1.56476">
        <ele>15</ele>
        <time>2019-10-17T13:57:28.000Z</time>
      </trkpt>
      <trkpt lat="47.28293" lon="-1.56476">
        <ele>15</ele>
        <time>2019-10-17T13:57:29.000Z</time>
      </trkpt>
      <trkpt lat="47.28292" lon="-1.56475">
        <ele>15</ele>
        <time>2019-10-17T13:57:30.000Z</time>
      </trkpt>
      <trkpt lat="47.28291" lon="-1.56474">
        <ele>15</ele>
        <time>2019-10-17T13:57:31.000Z</time>
      </trkpt>
      <trkpt lat="47.2829" lon="-1.56473">
        <ele>15</ele>
        <time>2019-10-17T13:57:32.000Z</time>
      </trkpt>
      <trkpt lat="47.28289" lon="-1.56473">
        <ele>15</ele>
        <time>2019-10-17T13:57:33.000Z</time>
      </trkpt>
      <trkpt lat="47.28276" lon="-1.56469">
        <ele>12</ele>
        <time>2019-10-17T13:57:34.000Z</time>
      </trkpt>
      <trkpt lat="47.28275" lon="-1.56468">
        <ele>12</ele>
        <time>2019-10-17T13:57:35.000Z</time>
      </trkpt>
      <trkpt lat="47.28274" lon="-1.56468">
        <ele>12</ele>
        <time>2019-10-17T13:57:36.000Z</time>
      </trkpt>
      <trkpt lat="47.2827" lon="-1.56468">
        <ele>12</ele>
        <time>2019-10-17T13:57:37.000Z</time>
      </trkpt>
      <trkpt lat="47.28269" lon="-1.56469">
        <ele>12</ele>
        <time>2019-10-17T13:57:38.000Z</time>
      </trkpt>
      <trkpt lat="47.28268" lon="-1.56469">
        <ele>12</ele>
        <time>2019-10-17T13:57:39.000Z</time>
      </trkpt>
      <trkpt lat="47.28267" lon="-1.56469">
        <ele>12</ele>
        <time>2019-10-17T13:57:40.000Z</time>
      </trkpt>
      <trkpt lat="47.28244" lon="-1.56452">
        <ele>21</ele>
        <time>2019-10-17T13:57:41.000Z</time>
      </trkpt>
      <trkpt lat="47.28243" lon="-1.56452">
        <ele>22</ele>
        <time>2019-10-17T13:57:42.000Z</time>
      </trkpt>
      <trkpt lat="47.28242" lon="-1.56451">
        <ele>22</ele>
        <time>2019-10-17T13:57:43.000Z</time>
      </trkpt>
      <trkpt lat="47.28241" lon="-1.56451">
        <ele>22</ele>
        <time>2019-10-17T13:57:44.000Z</time>
      </trkpt>
      <trkpt lat="47.28234" lon="-1.56449">
        <ele>25</ele>
        <time>2019-10-17T13:57:45.000Z</time>
      </trkpt>
      <trkpt lat="47.28233" lon="-1.56449">
        <ele>25</ele>
        <time>2019-10-17T13:57:46.000Z</time>
      </trkpt>
      <trkpt lat="47.28231" lon="-1.5645">
        <ele>26</ele>
        <time>2019-10-17T13:57:47.000Z</time>
      </trkpt>
      <trkpt lat="47.2823" lon="-1.56451">
        <ele>26</ele>
        <time>2019-10-17T13:57:48.000Z</time>
      </trkpt>
      <trkpt lat="47.28229" lon="-1.56451">
        <ele>26</ele>
        <time>2019-10-17T13:57:49.000Z</time>
      </trkpt>
      <trkpt lat="47.28228" lon="-1.56452">
        <ele>26</ele>
        <time>2019-10-17T13:57:50.000Z</time>
      </trkpt>
      <trkpt lat="47.28227" lon="-1.56452">
        <ele>26</ele>
        <time>2019-10-17T13:57:51.000Z</time>
      </trkpt>
      <trkpt lat="47.28226" lon="-1.56453">
        <ele>26</ele>
        <time>2019-10-17T13:57:52.000Z</time>
      </trkpt>
      <trkpt lat="47.28224" lon="-1.56453">
        <ele>27</ele>
        <time>2019-10-17T13:57:53.000Z</time>
      </trkpt>
      <trkpt lat="47.28222" lon="-1.56454">
        <ele>27</ele>
        <time>2019-10-17T13:57:54.000Z</time>
      </trkpt>
      <trkpt lat="47.28221" lon="-1.56456">
        <ele>27</ele>
        <time>2019-10-17T13:57:55.000Z</time>
      </trkpt>
      <trkpt lat="47.2822" lon="-1.56456">
        <ele>27</ele>
        <time>2019-10-17T13:57:56.000Z</time>
      </trkpt>
      <trkpt lat="47.28219" lon="-1.56457">
        <ele>27</ele>
        <time>2019-10-17T13:57:57.000Z</time>
      </trkpt>
      <trkpt lat="47.28217" lon="-1.56458">
        <ele>28</ele>
        <time>2019-10-17T13:57:58.000Z</time>
      </trkpt>
      <trkpt lat="47.28216" lon="-1.56459">
        <ele>28</ele>
        <time>2019-10-17T13:57:59.000Z</time>
      </trkpt>
      <trkpt lat="47.28215" lon="-1.5646">
        <ele>28</ele>
        <time>2019-10-17T13:58:00.000Z</time>
      </trkpt>
      <trkpt lat="47.28214" lon="-1.56461">
        <ele>28</ele>
        <time>2019-10-17T13:58:01.000Z</time>
      </trkpt>
      <trkpt lat="47.28212" lon="-1.56461">
        <ele>29</ele>
        <time>2019-10-17T13:58:02.000Z</time>
      </trkpt>
      <trkpt lat="47.28211" lon="-1.56462">
        <ele>29</ele>
        <time>2019-10-17T13:58:03.000Z</time>
      </trkpt>
      <trkpt lat="47.28209" lon="-1.56463">
        <ele>29</ele>
        <time>2019-10-17T13:58:04.000Z</time>
      </trkpt>
      <trkpt lat="47.28208" lon="-1.56464">
        <ele>30</ele>
        <time>2019-10-17T13:58:05.000Z</time>
      </trkpt>
      <trkpt lat="47.28207" lon="-1.56465">
        <ele>30</ele>
        <time>2019-10-17T13:58:06.000Z</time>
      </trkpt>
      <trkpt lat="47.28206" lon="-1.56466">
        <ele>30</ele>
        <time>2019-10-17T13:58:07.000Z</time>
      </trkpt>
      <trkpt lat="47.28204" lon="-1.56468">
        <ele>31</ele>
        <time>2019-10-17T13:58:08.000Z</time>
      </trkpt>
      <trkpt lat="47.28204" lon="-1.56469">
        <ele>31</ele>
        <time>2019-10-17T13:58:09.000Z</time>
      </trkpt>
      <trkpt lat="47.28202" lon="-1.5647">
        <ele>31</ele>
        <time>2019-10-17T13:58:10.000Z</time>
      </trkpt>
      <trkpt lat="47.28201" lon="-1.56471">
        <ele>32</ele>
        <time>2019-10-17T13:58:11.000Z</time>
      </trkpt>
      <trkpt lat="47.282" lon="-1.56472">
        <ele>32</ele>
        <time>2019-10-17T13:58:12.000Z</time>
      </trkpt>
      <trkpt lat="47.28199" lon="-1.56473">
        <ele>32</ele>
        <time>2019-10-17T13:58:13.000Z</time>
      </trkpt>
      <trkpt lat="47.28198" lon="-1.56475">
        <ele>32</ele>
        <time>2019-10-17T13:58:14.000Z</time>
      </trkpt>
      <trkpt lat="47.28198" lon="-1.56475">
        <ele>33</ele>
        <time>2019-10-17T13:58:15.000Z</time>
      </trkpt>
      <trkpt lat="47.28197" lon="-1.56476">
        <ele>33</ele>
        <time>2019-10-17T13:58:16.000Z</time>
      </trkpt>
      <trkpt lat="47.28197" lon="-1.56476">
        <ele>33</ele>
        <time>2019-10-17T13:58:17.000Z</time>
      </trkpt>
      <trkpt lat="47.28197" lon="-1.56476">
        <ele>33</ele>
        <time>2019-10-17T13:58:18.000Z</time>
      </trkpt>
      <trkpt lat="47.28197" lon="-1.56476">
        <ele>33</ele>
        <time>2019-10-17T13:58:19.000Z</time>
      </trkpt>
      <trkpt lat="47.28195" lon="-1.56484">
        <ele>34</ele>
        <time>2019-10-17T13:58:20.000Z</time>
      </trkpt>
      <trkpt lat="47.28195" lon="-1.56487">
        <ele>34</ele>
        <time>2019-10-17T13:58:21.000Z</time>
      </trkpt>
      <trkpt lat="47.28195" lon="-1.56489">
        <ele>34</ele>
        <time>2019-10-17T13:58:22.000Z</time>
      </trkpt>
      <trkpt lat="47.28195" lon="-1.56491">
        <ele>34</ele>
        <time>2019-10-17T13:58:23.000Z</time>
      </trkpt>
      <trkpt lat="47.28193" lon="-1.56492">
        <ele>34</ele>
        <time>2019-10-17T13:58:24.000Z</time>
      </trkpt>
      <trkpt lat="47.28192" lon="-1.56493">
        <ele>34</ele>
        <time>2019-10-17T13:58:25.000Z</time>
      </trkpt>
      <trkpt lat="47.28191" lon="-1.56495">
        <ele>35</ele>
        <time>2019-10-17T13:58:26.000Z</time>
      </trkpt>
      <trkpt lat="47.2819" lon="-1.56498">
        <ele>35</ele>
        <time>2019-10-17T13:58:27.000Z</time>
      </trkpt>
      <trkpt lat="47.28189" lon="-1.565">
        <ele>35</ele>
        <time>2019-10-17T13:58:28.000Z</time>
      </trkpt>
      <trkpt lat="47.28188" lon="-1.56502">
        <ele>35</ele>
        <time>2019-10-17T13:58:29.000Z</time>
      </trkpt>
      <trkpt lat="47.28186" lon="-1.56504">
        <ele>35</ele>
        <time>2019-10-17T13:58:30.000Z</time>
      </trkpt>
      <trkpt lat="47.28184" lon="-1.56506">
        <ele>35</ele>
        <time>2019-10-17T13:58:31.000Z</time>
      </trkpt>
      <trkpt lat="47.28182" lon="-1.56508">
        <ele>35</ele>
        <time>2019-10-17T13:58:32.000Z</time>
      </trkpt>
      <trkpt lat="47.2818" lon="-1.56509">
        <ele>35</ele>
        <time>2019-10-17T13:58:33.000Z</time>
      </trkpt>
      <trkpt lat="47.28179" lon="-1.56511">
        <ele>35</ele>
        <time>2019-10-17T13:58:34.000Z</time>
      </trkpt>
      <trkpt lat="47.28176" lon="-1.56512">
        <ele>35</ele>
        <time>2019-10-17T13:58:35.000Z</time>
      </trkpt>
      <trkpt lat="47.28173" lon="-1.56513">
        <ele>35</ele>
        <time>2019-10-17T13:58:36.000Z</time>
      </trkpt>
      <trkpt lat="47.2817" lon="-1.56515">
        <ele>35</ele>
        <time>2019-10-17T13:58:37.000Z</time>
      </trkpt>
      <trkpt lat="47.28168" lon="-1.56516">
        <ele>35</ele>
        <time>2019-10-17T13:58:38.000Z</time>
      </trkpt>
      <trkpt lat="47.28166" lon="-1.56517">
        <ele>35</ele>
        <time>2019-10-17T13:58:39.000Z</time>
      </trkpt>
      <trkpt lat="47.28164" lon="-1.56518">
        <ele>35</ele>
        <time>2019-10-17T13:58:40.000Z</time>
      </trkpt>
      <trkpt lat="47.28162" lon="-1.5652">
        <ele>35</ele>
        <time>2019-10-17T13:58:41.000Z</time>
      </trkpt>
      <trkpt lat="47.2816" lon="-1.56521">
        <ele>35</ele>
        <time>2019-10-17T13:58:42.000Z</time>
      </trkpt>
      <trkpt lat="47.28158" lon="-1.56523">
        <ele>35</ele>
        <time>2019-10-17T13:58:43.000Z</time>
      </trkpt>
      <trkpt lat="47.28156" lon="-1.56524">
        <ele>35</ele>
        <time>2019-10-17T13:58:44.000Z</time>
      </trkpt>
      <trkpt lat="47.28154" lon="-1.56526">
        <ele>34</ele>
        <time>2019-10-17T13:58:45.000Z</time>
      </trkpt>
      <trkpt lat="47.28153" lon="-1.56527">
        <ele>34</ele>
        <time>2019-10-17T13:58:46.000Z</time>
      </trkpt>
      <trkpt lat="47.28152" lon="-1.56528">
        <ele>34</ele>
        <time>2019-10-17T13:58:47.000Z</time>
      </trkpt>
      <trkpt lat="47.28151" lon="-1.56529">
        <ele>34</ele>
        <time>2019-10-17T13:58:48.000Z</time>
      </trkpt>
      <trkpt lat="47.28149" lon="-1.56531">
        <ele>34</ele>
        <time>2019-10-17T13:58:49.000Z</time>
      </trkpt>
      <trkpt lat="47.28146" lon="-1.56532">
        <ele>34</ele>
        <time>2019-10-17T13:58:50.000Z</time>
      </trkpt>
      <trkpt lat="47.28144" lon="-1.56533">
        <ele>34</ele>
        <time>2019-10-17T13:58:51.000Z</time>
      </trkpt>
      <trkpt lat="47.28142" lon="-1.56533">
        <ele>34</ele>
        <time>2019-10-17T13:58:52.000Z</time>
      </trkpt>
      <trkpt lat="47.28141" lon="-1.56534">
        <ele>34</ele>
        <time>2019-10-17T13:58:53.000Z</time>
      </trkpt>
      <trkpt lat="47.2814" lon="-1.56535">
        <ele>34</ele>
        <time>2019-10-17T13:58:54.000Z</time>
      </trkpt>
      <trkpt lat="47.28138" lon="-1.56536">
        <ele>34</ele>
        <time>2019-10-17T13:58:55.000Z</time>
      </trkpt>
      <trkpt lat="47.28136" lon="-1.56537">
        <ele>34</ele>
        <time>2019-10-17T13:58:56.000Z</time>
      </trkpt>
      <trkpt lat="47.28134" lon="-1.56538">
        <ele>34</ele>
        <time>2019-10-17T13:58:57.000Z</time>
      </trkpt>
      <trkpt lat="47.28132" lon="-1.56539">
        <ele>34</ele>
        <time>2019-10-17T13:58:58.000Z</time>
      </trkpt>
      <trkpt lat="47.2813" lon="-1.56539">
        <ele>34</ele>
        <time>2019-10-17T13:58:59.000Z</time>
      </trkpt>
      <trkpt lat="47.28127" lon="-1.56541">
        <ele>34</ele>
        <time>2019-10-17T13:59:00.000Z</time>
      </trkpt>
      <trkpt lat="47.28124" lon="-1.56542">
        <ele>34</ele>
        <time>2019-10-17T13:59:01.000Z</time>
      </trkpt>
      <trkpt lat="47.28121" lon="-1.56543">
        <ele>34</ele>
        <time>2019-10-17T13:59:02.000Z</time>
      </trkpt>
      <trkpt lat="47.28119" lon="-1.56544">
        <ele>34</ele>
        <time>2019-10-17T13:59:03.000Z</time>
      </trkpt>
      <trkpt lat="47.28117" lon="-1.56545">
        <ele>34</ele>
        <time>2019-10-17T13:59:04.000Z</time>
      </trkpt>
      <trkpt lat="47.28115" lon="-1.56545">
        <ele>34</ele>
        <time>2019-10-17T13:59:05.000Z</time>
      </trkpt>
      <trkpt lat="47.28112" lon="-1.56544">
        <ele>34</ele>
        <time>2019-10-17T13:59:06.000Z</time>
      </trkpt>
      <trkpt lat="47.28109" lon="-1.56545">
        <ele>34</ele>
        <time>2019-10-17T13:59:07.000Z</time>
      </trkpt>
      <trkpt lat="47.28107" lon="-1.56546">
        <ele>34</ele>
        <time>2019-10-17T13:59:08.000Z</time>
      </trkpt>
      <trkpt lat="47.28105" lon="-1.56547">
        <ele>34</ele>
        <time>2019-10-17T13:59:09.000Z</time>
      </trkpt>
      <trkpt lat="47.28102" lon="-1.56547">
        <ele>34</ele>
        <time>2019-10-17T13:59:10.000Z</time>
      </trkpt>
      <trkpt lat="47.28099" lon="-1.56546">
        <ele>34</ele>
        <time>2019-10-17T13:59:11.000Z</time>
      </trkpt>
      <trkpt lat="47.28096" lon="-1.56545">
        <ele>34</ele>
        <time>2019-10-17T13:59:12.000Z</time>
      </trkpt>
      <trkpt lat="47.28095" lon="-1.56546">
        <ele>34</ele>
        <time>2019-10-17T13:59:13.000Z</time>
      </trkpt>
      <trkpt lat="47.28093" lon="-1.56545">
        <ele>34</ele>
        <time>2019-10-17T13:59:14.000Z</time>
      </trkpt>
      <trkpt lat="47.28091" lon="-1.56546">
        <ele>34</ele>
        <time>2019-10-17T13:59:15.000Z</time>
      </trkpt>
      <trkpt lat="47.28089" lon="-1.56547">
        <ele>33</ele>
        <time>2019-10-17T13:59:16.000Z</time>
      </trkpt>
      <trkpt lat="47.28085" lon="-1.56546">
        <ele>33</ele>
        <time>2019-10-17T13:59:17.000Z</time>
      </trkpt>
      <trkpt lat="47.28082" lon="-1.56545">
        <ele>33</ele>
        <time>2019-10-17T13:59:18.000Z</time>
      </trkpt>
      <trkpt lat="47.28078" lon="-1.56545">
        <ele>33</ele>
        <time>2019-10-17T13:59:19.000Z</time>
      </trkpt>
      <trkpt lat="47.28074" lon="-1.56544">
        <ele>33</ele>
        <time>2019-10-17T13:59:20.000Z</time>
      </trkpt>
      <trkpt lat="47.2807" lon="-1.56543">
        <ele>33</ele>
        <time>2019-10-17T13:59:21.000Z</time>
      </trkpt>
      <trkpt lat="47.28067" lon="-1.56542">
        <ele>33</ele>
        <time>2019-10-17T13:59:22.000Z</time>
      </trkpt>
      <trkpt lat="47.28065" lon="-1.56542">
        <ele>33</ele>
        <time>2019-10-17T13:59:23.000Z</time>
      </trkpt>
      <trkpt lat="47.28062" lon="-1.56542">
        <ele>33</ele>
        <time>2019-10-17T13:59:24.000Z</time>
      </trkpt>
      <trkpt lat="47.2806" lon="-1.56542">
        <ele>33</ele>
        <time>2019-10-17T13:59:25.000Z</time>
      </trkpt>
      <trkpt lat="47.28058" lon="-1.56543">
        <ele>33</ele>
        <time>2019-10-17T13:59:26.000Z</time>
      </trkpt>
      <trkpt lat="47.28056" lon="-1.56543">
        <ele>33</ele>
        <time>2019-10-17T13:59:27.000Z</time>
      </trkpt>
      <trkpt lat="47.28054" lon="-1.56542">
        <ele>34</ele>
        <time>2019-10-17T13:59:28.000Z</time>
      </trkpt>
      <trkpt lat="47.28052" lon="-1.56542">
        <ele>34</ele>
        <time>2019-10-17T13:59:29.000Z</time>
      </trkpt>
      <trkpt lat="47.28049" lon="-1.56542">
        <ele>34</ele>
        <time>2019-10-17T13:59:30.000Z</time>
      </trkpt>
      <trkpt lat="47.28046" lon="-1.56542">
        <ele>34</ele>
        <time>2019-10-17T13:59:31.000Z</time>
      </trkpt>
      <trkpt lat="47.28044" lon="-1.56543">
        <ele>34</ele>
        <time>2019-10-17T13:59:32.000Z</time>
      </trkpt>
      <trkpt lat="47.28041" lon="-1.56543">
        <ele>34</ele>
        <time>2019-10-17T13:59:33.000Z</time>
      </trkpt>
      <trkpt lat="47.28038" lon="-1.56543">
        <ele>34</ele>
        <time>2019-10-17T13:59:34.000Z</time>
      </trkpt>
      <trkpt lat="47.28036" lon="-1.56543">
        <ele>34</ele>
        <time>2019-10-17T13:59:35.000Z</time>
      </trkpt>
      <trkpt lat="47.28033" lon="-1.56543">
        <ele>34</ele>
        <time>2019-10-17T13:59:36.000Z</time>
      </trkpt>
      <trkpt lat="47.28031" lon="-1.56543">
        <ele>34</ele>
        <time>2019-10-17T13:59:37.000Z</time>
      </trkpt>
      <trkpt lat="47.2803" lon="-1.56544">
        <ele>34</ele>
        <time>2019-10-17T13:59:38.000Z</time>
      </trkpt>
      <trkpt lat="47.28029" lon="-1.56547">
        <ele>34</ele>
        <time>2019-10-17T13:59:39.000Z</time>
      </trkpt>
      <trkpt lat="47.28029" lon="-1.56551">
        <ele>34</ele>
        <time>2019-10-17T13:59:40.000Z</time>
      </trkpt>
      <trkpt lat="47.28028" lon="-1.56556">
        <ele>33</ele>
        <time>2019-10-17T13:59:41.000Z</time>
      </trkpt>
      <trkpt lat="47.28027" lon="-1.56563">
        <ele>32</ele>
        <time>2019-10-17T13:59:42.000Z</time>
      </trkpt>
      <trkpt lat="47.28026" lon="-1.5657">
        <ele>32</ele>
        <time>2019-10-17T13:59:43.000Z</time>
      </trkpt>
      <trkpt lat="47.28026" lon="-1.56576">
        <ele>31</ele>
        <time>2019-10-17T13:59:44.000Z</time>
      </trkpt>
      <trkpt lat="47.28026" lon="-1.56581">
        <ele>31</ele>
        <time>2019-10-17T13:59:45.000Z</time>
      </trkpt>
      <trkpt lat="47.28026" lon="-1.56585">
        <ele>30</ele>
        <time>2019-10-17T13:59:46.000Z</time>
      </trkpt>
      <trkpt lat="47.28024" lon="-1.56588">
        <ele>30</ele>
        <time>2019-10-17T13:59:47.000Z</time>
      </trkpt>
      <trkpt lat="47.28021" lon="-1.56589">
        <ele>29</ele>
        <time>2019-10-17T13:59:48.000Z</time>
      </trkpt>
      <trkpt lat="47.28018" lon="-1.5659">
        <ele>29</ele>
        <time>2019-10-17T13:59:49.000Z</time>
      </trkpt>
      <trkpt lat="47.28014" lon="-1.5659">
        <ele>29</ele>
        <time>2019-10-17T13:59:50.000Z</time>
      </trkpt>
      <trkpt lat="47.2801" lon="-1.56588">
        <ele>29</ele>
        <time>2019-10-17T13:59:51.000Z</time>
      </trkpt>
      <trkpt lat="47.28005" lon="-1.56587">
        <ele>29</ele>
        <time>2019-10-17T13:59:52.000Z</time>
      </trkpt>
      <trkpt lat="47.28001" lon="-1.56586">
        <ele>29</ele>
        <time>2019-10-17T13:59:53.000Z</time>
      </trkpt>
      <trkpt lat="47.27998" lon="-1.56584">
        <ele>29</ele>
        <time>2019-10-17T13:59:54.000Z</time>
      </trkpt>
      <trkpt lat="47.27994" lon="-1.56581">
        <ele>29</ele>
        <time>2019-10-17T13:59:55.000Z</time>
      </trkpt>
      <trkpt lat="47.27989" lon="-1.56578">
        <ele>29</ele>
        <time>2019-10-17T13:59:56.000Z</time>
      </trkpt>
      <trkpt lat="47.27985" lon="-1.56576">
        <ele>29</ele>
        <time>2019-10-17T13:59:57.000Z</time>
      </trkpt>
      <trkpt lat="47.2798" lon="-1.56575">
        <ele>29</ele>
        <time>2019-10-17T13:59:58.000Z</time>
      </trkpt>
      <trkpt lat="47.27975" lon="-1.56574">
        <ele>29</ele>
        <time>2019-10-17T13:59:59.000Z</time>
      </trkpt>
      <trkpt lat="47.27971" lon="-1.56574">
        <ele>29</ele>
        <time>2019-10-17T14:00:00.000Z</time>
      </trkpt>
      <trkpt lat="47.27967" lon="-1.56574">
        <ele>29</ele>
        <time>2019-10-17T14:00:01.000Z</time>
      </trkpt>
      <trkpt lat="47.27963" lon="-1.56574">
        <ele>29</ele>
        <time>2019-10-17T14:00:02.000Z</time>
      </trkpt>
      <trkpt lat="47.2796" lon="-1.56573">
        <ele>29</ele>
        <time>2019-10-17T14:00:03.000Z</time>
      </trkpt>
      <trkpt lat="47.27957" lon="-1.56573">
        <ele>29</ele>
        <time>2019-10-17T14:00:04.000Z</time>
      </trkpt>
      <trkpt lat="47.27954" lon="-1.56573">
        <ele>29</ele>
        <time>2019-10-17T14:00:05.000Z</time>
      </trkpt>
      <trkpt lat="47.27951" lon="-1.56573">
        <ele>29</ele>
        <time>2019-10-17T14:00:06.000Z</time>
      </trkpt>
      <trkpt lat="47.27947" lon="-1.56573">
        <ele>30</ele>
        <time>2019-10-17T14:00:07.000Z</time>
      </trkpt>
      <trkpt lat="47.27944" lon="-1.56573">
        <ele>30</ele>
        <time>2019-10-17T14:00:08.000Z</time>
      </trkpt>
      <trkpt lat="47.2794" lon="-1.56573">
        <ele>30</ele>
        <time>2019-10-17T14:00:09.000Z</time>
      </trkpt>
      <trkpt lat="47.27937" lon="-1.56574">
        <ele>30</ele>
        <time>2019-10-17T14:00:10.000Z</time>
      </trkpt>
      <trkpt lat="47.27934" lon="-1.56576">
        <ele>30</ele>
        <time>2019-10-17T14:00:11.000Z</time>
      </trkpt>
      <trkpt lat="47.27932" lon="-1.56579">
        <ele>30</ele>
        <time>2019-10-17T14:00:12.000Z</time>
      </trkpt>
      <trkpt lat="47.2793" lon="-1.56582">
        <ele>30</ele>
        <time>2019-10-17T14:00:13.000Z</time>
      </trkpt>
      <trkpt lat="47.2793" lon="-1.56586">
        <ele>31</ele>
        <time>2019-10-17T14:00:14.000Z</time>
      </trkpt>
      <trkpt lat="47.2793" lon="-1.5659">
        <ele>31</ele>
        <time>2019-10-17T14:00:15.000Z</time>
      </trkpt>
      <trkpt lat="47.27931" lon="-1.56594">
        <ele>31</ele>
        <time>2019-10-17T14:00:16.000Z</time>
      </trkpt>
      <trkpt lat="47.27933" lon="-1.56599">
        <ele>31</ele>
        <time>2019-10-17T14:00:17.000Z</time>
      </trkpt>
      <trkpt lat="47.27933" lon="-1.56606">
        <ele>31</ele>
        <time>2019-10-17T14:00:18.000Z</time>
      </trkpt>
      <trkpt lat="47.27935" lon="-1.56612">
        <ele>31</ele>
        <time>2019-10-17T14:00:19.000Z</time>
      </trkpt>
      <trkpt lat="47.27937" lon="-1.56618">
        <ele>31</ele>
        <time>2019-10-17T14:00:20.000Z</time>
      </trkpt>
      <trkpt lat="47.27939" lon="-1.56624">
        <ele>32</ele>
        <time>2019-10-17T14:00:21.000Z</time>
      </trkpt>
      <trkpt lat="47.27939" lon="-1.5663">
        <ele>32</ele>
        <time>2019-10-17T14:00:22.000Z</time>
      </trkpt>
      <trkpt lat="47.27941" lon="-1.56636">
        <ele>32</ele>
        <time>2019-10-17T14:00:23.000Z</time>
      </trkpt>
      <trkpt lat="47.27943" lon="-1.56642">
        <ele>32</ele>
        <time>2019-10-17T14:00:24.000Z</time>
      </trkpt>
      <trkpt lat="47.27944" lon="-1.56648">
        <ele>32</ele>
        <time>2019-10-17T14:00:25.000Z</time>
      </trkpt>
      <trkpt lat="47.27946" lon="-1.56653">
        <ele>32</ele>
        <time>2019-10-17T14:00:26.000Z</time>
      </trkpt>
      <trkpt lat="47.27949" lon="-1.56659">
        <ele>32</ele>
        <time>2019-10-17T14:00:27.000Z</time>
      </trkpt>
      <trkpt lat="47.27953" lon="-1.56662">
        <ele>32</ele>
        <time>2019-10-17T14:00:28.000Z</time>
      </trkpt>
      <trkpt lat="47.27957" lon="-1.56664">
        <ele>32</ele>
        <time>2019-10-17T14:00:29.000Z</time>
      </trkpt>
      <trkpt lat="47.27959" lon="-1.56665">
        <ele>32</ele>
        <time>2019-10-17T14:00:30.000Z</time>
      </trkpt>
      <trkpt lat="47.27961" lon="-1.56666">
        <ele>32</ele>
        <time>2019-10-17T14:00:31.000Z</time>
      </trkpt>
      <trkpt lat="47.27963" lon="-1.56667">
        <ele>32</ele>
        <time>2019-10-17T14:00:32.000Z</time>
      </trkpt>
      <trkpt lat="47.27965" lon="-1.5667">
        <ele>32</ele>
        <time>2019-10-17T14:00:33.000Z</time>
      </trkpt>
      <trkpt lat="47.27968" lon="-1.56672">
        <ele>32</ele>
        <time>2019-10-17T14:00:34.000Z</time>
      </trkpt>
      <trkpt lat="47.2797" lon="-1.56675">
        <ele>32</ele>
        <time>2019-10-17T14:00:35.000Z</time>
      </trkpt>
      <trkpt lat="47.27972" lon="-1.56676">
        <ele>32</ele>
        <time>2019-10-17T14:00:36.000Z</time>
      </trkpt>
      <trkpt lat="47.27975" lon="-1.56677">
        <ele>33</ele>
        <time>2019-10-17T14:00:37.000Z</time>
      </trkpt>
      <trkpt lat="47.27977" lon="-1.56677">
        <ele>33</ele>
        <time>2019-10-17T14:00:38.000Z</time>
      </trkpt>
      <trkpt lat="47.27979" lon="-1.56676">
        <ele>33</ele>
        <time>2019-10-17T14:00:39.000Z</time>
      </trkpt>
      <trkpt lat="47.27981" lon="-1.56675">
        <ele>33</ele>
        <time>2019-10-17T14:00:40.000Z</time>
      </trkpt>
      <trkpt lat="47.27983" lon="-1.56675">
        <ele>33</ele>
        <time>2019-10-17T14:00:41.000Z</time>
      </trkpt>
      <trkpt lat="47.27985" lon="-1.56674">
        <ele>32</ele>
        <time>2019-10-17T14:00:42.000Z</time>
      </trkpt>
      <trkpt lat="47.27988" lon="-1.56675">
        <ele>32</ele>
        <time>2019-10-17T14:00:43.000Z</time>
      </trkpt>
      <trkpt lat="47.2799" lon="-1.56675">
        <ele>32</ele>
        <time>2019-10-17T14:00:44.000Z</time>
      </trkpt>
      <trkpt lat="47.27992" lon="-1.56675">
        <ele>32</ele>
        <time>2019-10-17T14:00:45.000Z</time>
      </trkpt>
      <trkpt lat="47.27993" lon="-1.56676">
        <ele>31</ele>
        <time>2019-10-17T14:00:46.000Z</time>
      </trkpt>
      <trkpt lat="47.27994" lon="-1.56677">
        <ele>31</ele>
        <time>2019-10-17T14:00:47.000Z</time>
      </trkpt>
      <trkpt lat="47.27995" lon="-1.56677">
        <ele>31</ele>
        <time>2019-10-17T14:00:48.000Z</time>
      </trkpt>
      <trkpt lat="47.27996" lon="-1.56678">
        <ele>31</ele>
        <time>2019-10-17T14:00:49.000Z</time>
      </trkpt>
      <trkpt lat="47.27996" lon="-1.56679">
        <ele>31</ele>
        <time>2019-10-17T14:00:50.000Z</time>
      </trkpt>
      <trkpt lat="47.27997" lon="-1.56681">
        <ele>31</ele>
        <time>2019-10-17T14:00:51.000Z</time>
      </trkpt>
      <trkpt lat="47.27998" lon="-1.56681">
        <ele>31</ele>
        <time>2019-10-17T14:00:52.000Z</time>
      </trkpt>
      <trkpt lat="47.27998" lon="-1.56681">
        <ele>31</ele>
        <time>2019-10-17T14:00:53.000Z</time>
      </trkpt>
      <trkpt lat="47.27999" lon="-1.56682">
        <ele>31</ele>
        <time>2019-10-17T14:00:54.000Z</time>
      </trkpt>
      <trkpt lat="47.27999" lon="-1.56684">
        <ele>32</ele>
        <time>2019-10-17T14:00:55.000Z</time>
      </trkpt>
      <trkpt lat="47.28" lon="-1.56685">
        <ele>32</ele>
        <time>2019-10-17T14:00:56.000Z</time>
      </trkpt>
      <trkpt lat="47.28001" lon="-1.56687">
        <ele>32</ele>
        <time>2019-10-17T14:00:57.000Z</time>
      </trkpt>
      <trkpt lat="47.28002" lon="-1.56689">
        <ele>32</ele>
        <time>2019-10-17T14:00:58.000Z</time>
      </trkpt>
      <trkpt lat="47.28003" lon="-1.56691">
        <ele>32</ele>
        <time>2019-10-17T14:00:59.000Z</time>
      </trkpt>
      <trkpt lat="47.28005" lon="-1.56693">
        <ele>32</ele>
        <time>2019-10-17T14:01:00.000Z</time>
      </trkpt>
      <trkpt lat="47.28007" lon="-1.56696">
        <ele>32</ele>
        <time>2019-10-17T14:01:01.000Z</time>
      </trkpt>
      <trkpt lat="47.28008" lon="-1.56699">
        <ele>32</ele>
        <time>2019-10-17T14:01:02.000Z</time>
      </trkpt>
      <trkpt lat="47.2801" lon="-1.56702">
        <ele>32</ele>
        <time>2019-10-17T14:01:03.000Z</time>
      </trkpt>
      <trkpt lat="47.28012" lon="-1.56705">
        <ele>32</ele>
        <time>2019-10-17T14:01:04.000Z</time>
      </trkpt>
      <trkpt lat="47.28013" lon="-1.56709">
        <ele>32</ele>
        <time>2019-10-17T14:01:05.000Z</time>
      </trkpt>
      <trkpt lat="47.28013" lon="-1.56712">
        <ele>32</ele>
        <time>2019-10-17T14:01:06.000Z</time>
      </trkpt>
      <trkpt lat="47.28014" lon="-1.56715">
        <ele>32</ele>
        <time>2019-10-17T14:01:07.000Z</time>
      </trkpt>
      <trkpt lat="47.28014" lon="-1.56719">
        <ele>31</ele>
        <time>2019-10-17T14:01:08.000Z</time>
      </trkpt>
      <trkpt lat="47.28015" lon="-1.56722">
        <ele>31</ele>
        <time>2019-10-17T14:01:09.000Z</time>
      </trkpt>
      <trkpt lat="47.28015" lon="-1.56726">
        <ele>31</ele>
        <time>2019-10-17T14:01:10.000Z</time>
      </trkpt>
      <trkpt lat="47.28016" lon="-1.5673">
        <ele>31</ele>
        <time>2019-10-17T14:01:11.000Z</time>
      </trkpt>
      <trkpt lat="47.28017" lon="-1.56733">
        <ele>31</ele>
        <time>2019-10-17T14:01:12.000Z</time>
      </trkpt>
      <trkpt lat="47.28017" lon="-1.56736">
        <ele>31</ele>
        <time>2019-10-17T14:01:13.000Z</time>
      </trkpt>
      <trkpt lat="47.28018" lon="-1.56738">
        <ele>31</ele>
        <time>2019-10-17T14:01:14.000Z</time>
      </trkpt>
      <trkpt lat="47.28018" lon="-1.5674">
        <ele>31</ele>
        <time>2019-10-17T14:01:15.000Z</time>
      </trkpt>
      <trkpt lat="47.28019" lon="-1.56743">
        <ele>31</ele>
        <time>2019-10-17T14:01:16.000Z</time>
      </trkpt>
      <trkpt lat="47.2802" lon="-1.56744">
        <ele>31</ele>
        <time>2019-10-17T14:01:17.000Z</time>
      </trkpt>
      <trkpt lat="47.28021" lon="-1.56746">
        <ele>31</ele>
        <time>2019-10-17T14:01:18.000Z</time>
      </trkpt>
      <trkpt lat="47.28021" lon="-1.56747">
        <ele>31</ele>
        <time>2019-10-17T14:01:19.000Z</time>
      </trkpt>
      <trkpt lat="47.28021" lon="-1.56748">
        <ele>31</ele>
        <time>2019-10-17T14:01:20.000Z</time>
      </trkpt>
      <trkpt lat="47.28022" lon="-1.56749">
        <ele>31</ele>
        <time>2019-10-17T14:01:21.000Z</time>
      </trkpt>
      <trkpt lat="47.28023" lon="-1.56749">
        <ele>31</ele>
        <time>2019-10-17T14:01:22.000Z</time>
      </trkpt>
      <trkpt lat="47.28025" lon="-1.56747">
        <ele>31</ele>
        <time>2019-10-17T14:01:23.000Z</time>
      </trkpt>
      <trkpt lat="47.28026" lon="-1.56746">
        <ele>30</ele>
        <time>2019-10-17T14:01:24.000Z</time>
      </trkpt>
      <trkpt lat="47.28028" lon="-1.56744">
        <ele>30</ele>
        <time>2019-10-17T14:01:25.000Z</time>
      </trkpt>
      <trkpt lat="47.28029" lon="-1.56742">
        <ele>30</ele>
        <time>2019-10-17T14:01:26.000Z</time>
      </trkpt>
      <trkpt lat="47.28031" lon="-1.5674">
        <ele>30</ele>
        <time>2019-10-17T14:01:27.000Z</time>
      </trkpt>
      <trkpt lat="47.28032" lon="-1.56739">
        <ele>30</ele>
        <time>2019-10-17T14:01:28.000Z</time>
      </trkpt>
      <trkpt lat="47.28034" lon="-1.56737">
        <ele>30</ele>
        <time>2019-10-17T14:01:29.000Z</time>
      </trkpt>
      <trkpt lat="47.28036" lon="-1.56736">
        <ele>29</ele>
        <time>2019-10-17T14:01:30.000Z</time>
      </trkpt>
      <trkpt lat="47.28038" lon="-1.56735">
        <ele>29</ele>
        <time>2019-10-17T14:01:31.000Z</time>
      </trkpt>
      <trkpt lat="47.2804" lon="-1.56734">
        <ele>29</ele>
        <time>2019-10-17T14:01:32.000Z</time>
      </trkpt>
      <trkpt lat="47.28042" lon="-1.56733">
        <ele>29</ele>
        <time>2019-10-17T14:01:33.000Z</time>
      </trkpt>
      <trkpt lat="47.28043" lon="-1.56732">
        <ele>29</ele>
        <time>2019-10-17T14:01:34.000Z</time>
      </trkpt>
      <trkpt lat="47.28044" lon="-1.5673">
        <ele>29</ele>
        <time>2019-10-17T14:01:35.000Z</time>
      </trkpt>
      <trkpt lat="47.28045" lon="-1.56728">
        <ele>29</ele>
        <time>2019-10-17T14:01:36.000Z</time>
      </trkpt>
      <trkpt lat="47.28047" lon="-1.56726">
        <ele>29</ele>
        <time>2019-10-17T14:01:37.000Z</time>
      </trkpt>
      <trkpt lat="47.28048" lon="-1.56725">
        <ele>29</ele>
        <time>2019-10-17T14:01:38.000Z</time>
      </trkpt>
      <trkpt lat="47.28049" lon="-1.56723">
        <ele>28</ele>
        <time>2019-10-17T14:01:39.000Z</time>
      </trkpt>
      <trkpt lat="47.28051" lon="-1.56721">
        <ele>28</ele>
        <time>2019-10-17T14:01:40.000Z</time>
      </trkpt>
      <trkpt lat="47.28053" lon="-1.56719">
        <ele>28</ele>
        <time>2019-10-17T14:01:41.000Z</time>
      </trkpt>
      <trkpt lat="47.28056" lon="-1.56718">
        <ele>28</ele>
        <time>2019-10-17T14:01:42.000Z</time>
      </trkpt>
      <trkpt lat="47.28057" lon="-1.56716">
        <ele>28</ele>
        <time>2019-10-17T14:01:43.000Z</time>
      </trkpt>
      <trkpt lat="47.28059" lon="-1.56715">
        <ele>28</ele>
        <time>2019-10-17T14:01:44.000Z</time>
      </trkpt>
      <trkpt lat="47.28061" lon="-1.56714">
        <ele>28</ele>
        <time>2019-10-17T14:01:45.000Z</time>
      </trkpt>
      <trkpt lat="47.28064" lon="-1.56714">
        <ele>28</ele>
        <time>2019-10-17T14:01:46.000Z</time>
      </trkpt>
      <trkpt lat="47.28066" lon="-1.56713">
        <ele>28</ele>
        <time>2019-10-17T14:01:47.000Z</time>
      </trkpt>
      <trkpt lat="47.28068" lon="-1.56711">
        <ele>27</ele>
        <time>2019-10-17T14:01:48.000Z</time>
      </trkpt>
      <trkpt lat="47.28069" lon="-1.56709">
        <ele>27</ele>
        <time>2019-10-17T14:01:49.000Z</time>
      </trkpt>
      <trkpt lat="47.28071" lon="-1.56707">
        <ele>27</ele>
        <time>2019-10-17T14:01:50.000Z</time>
      </trkpt>
      <trkpt lat="47.28074" lon="-1.56706">
        <ele>27</ele>
        <time>2019-10-17T14:01:51.000Z</time>
      </trkpt>
      <trkpt lat="47.28076" lon="-1.56705">
        <ele>27</ele>
        <time>2019-10-17T14:01:52.000Z</time>
      </trkpt>
      <trkpt lat="47.28078" lon="-1.56704">
        <ele>27</ele>
        <time>2019-10-17T14:01:53.000Z</time>
      </trkpt>
      <trkpt lat="47.2808" lon="-1.56702">
        <ele>27</ele>
        <time>2019-10-17T14:01:54.000Z</time>
      </trkpt>
      <trkpt lat="47.28081" lon="-1.56701">
        <ele>27</ele>
        <time>2019-10-17T14:01:55.000Z</time>
      </trkpt>
      <trkpt lat="47.28083" lon="-1.56701">
        <ele>27</ele>
        <time>2019-10-17T14:01:56.000Z</time>
      </trkpt>
      <trkpt lat="47.28085" lon="-1.567">
        <ele>27</ele>
        <time>2019-10-17T14:01:57.000Z</time>
      </trkpt>
      <trkpt lat="47.28086" lon="-1.567">
        <ele>27</ele>
        <time>2019-10-17T14:01:58.000Z</time>
      </trkpt>
      <trkpt lat="47.28089" lon="-1.567">
        <ele>27</ele>
        <time>2019-10-17T14:01:59.000Z</time>
      </trkpt>
      <trkpt lat="47.28091" lon="-1.56699">
        <ele>27</ele>
        <time>2019-10-17T14:02:00.000Z</time>
      </trkpt>
      <trkpt lat="47.28093" lon="-1.56699">
        <ele>27</ele>
        <time>2019-10-17T14:02:01.000Z</time>
      </trkpt>
      <trkpt lat="47.28095" lon="-1.56699">
        <ele>26</ele>
        <time>2019-10-17T14:02:02.000Z</time>
      </trkpt>
      <trkpt lat="47.28098" lon="-1.56699">
        <ele>26</ele>
        <time>2019-10-17T14:02:03.000Z</time>
      </trkpt>
      <trkpt lat="47.28101" lon="-1.567">
        <ele>26</ele>
        <time>2019-10-17T14:02:04.000Z</time>
      </trkpt>
      <trkpt lat="47.28103" lon="-1.567">
        <ele>26</ele>
        <time>2019-10-17T14:02:05.000Z</time>
      </trkpt>
      <trkpt lat="47.28106" lon="-1.567">
        <ele>26</ele>
        <time>2019-10-17T14:02:06.000Z</time>
      </trkpt>
      <trkpt lat="47.28109" lon="-1.56699">
        <ele>25</ele>
        <time>2019-10-17T14:02:07.000Z</time>
      </trkpt>
      <trkpt lat="47.28111" lon="-1.56698">
        <ele>25</ele>
        <time>2019-10-17T14:02:08.000Z</time>
      </trkpt>
      <trkpt lat="47.28113" lon="-1.56698">
        <ele>25</ele>
        <time>2019-10-17T14:02:09.000Z</time>
      </trkpt>
      <trkpt lat="47.28115" lon="-1.56698">
        <ele>25</ele>
        <time>2019-10-17T14:02:10.000Z</time>
      </trkpt>
      <trkpt lat="47.28118" lon="-1.56698">
        <ele>25</ele>
        <time>2019-10-17T14:02:11.000Z</time>
      </trkpt>
      <trkpt lat="47.2812" lon="-1.56698">
        <ele>24</ele>
        <time>2019-10-17T14:02:12.000Z</time>
      </trkpt>
      <trkpt lat="47.28122" lon="-1.56699">
        <ele>24</ele>
        <time>2019-10-17T14:02:13.000Z</time>
      </trkpt>
      <trkpt lat="47.28124" lon="-1.56699">
        <ele>24</ele>
        <time>2019-10-17T14:02:14.000Z</time>
      </trkpt>
      <trkpt lat="47.28127" lon="-1.56701">
        <ele>24</ele>
        <time>2019-10-17T14:02:15.000Z</time>
      </trkpt>
      <trkpt lat="47.28129" lon="-1.56702">
        <ele>23</ele>
        <time>2019-10-17T14:02:16.000Z</time>
      </trkpt>
      <trkpt lat="47.28132" lon="-1.56704">
        <ele>23</ele>
        <time>2019-10-17T14:02:17.000Z</time>
      </trkpt>
      <trkpt lat="47.28135" lon="-1.56705">
        <ele>23</ele>
        <time>2019-10-17T14:02:18.000Z</time>
      </trkpt>
      <trkpt lat="47.28138" lon="-1.56705">
        <ele>23</ele>
        <time>2019-10-17T14:02:19.000Z</time>
      </trkpt>
      <trkpt lat="47.2814" lon="-1.56706">
        <ele>23</ele>
        <time>2019-10-17T14:02:20.000Z</time>
      </trkpt>
      <trkpt lat="47.28142" lon="-1.56706">
        <ele>22</ele>
        <time>2019-10-17T14:02:21.000Z</time>
      </trkpt>
      <trkpt lat="47.28144" lon="-1.56707">
        <ele>22</ele>
        <time>2019-10-17T14:02:22.000Z</time>
      </trkpt>
      <trkpt lat="47.28146" lon="-1.56707">
        <ele>22</ele>
        <time>2019-10-17T14:02:23.000Z</time>
      </trkpt>
      <trkpt lat="47.28148" lon="-1.56707">
        <ele>22</ele>
        <time>2019-10-17T14:02:24.000Z</time>
      </trkpt>
      <trkpt lat="47.2815" lon="-1.56707">
        <ele>21</ele>
        <time>2019-10-17T14:02:25.000Z</time>
      </trkpt>
      <trkpt lat="47.28152" lon="-1.56707">
        <ele>21</ele>
        <time>2019-10-17T14:02:26.000Z</time>
      </trkpt>
      <trkpt lat="47.28154" lon="-1.56708">
        <ele>21</ele>
        <time>2019-10-17T14:02:27.000Z</time>
      </trkpt>
      <trkpt lat="47.28156" lon="-1.56709">
        <ele>21</ele>
        <time>2019-10-17T14:02:28.000Z</time>
      </trkpt>
      <trkpt lat="47.28158" lon="-1.56709">
        <ele>20</ele>
        <time>2019-10-17T14:02:29.000Z</time>
      </trkpt>
      <trkpt lat="47.28159" lon="-1.5671">
        <ele>20</ele>
        <time>2019-10-17T14:02:30.000Z</time>
      </trkpt>
      <trkpt lat="47.28161" lon="-1.5671">
        <ele>20</ele>
        <time>2019-10-17T14:02:31.000Z</time>
      </trkpt>
      <trkpt lat="47.28163" lon="-1.56711">
        <ele>20</ele>
        <time>2019-10-17T14:02:32.000Z</time>
      </trkpt>
      <trkpt lat="47.28164" lon="-1.56711">
        <ele>20</ele>
        <time>2019-10-17T14:02:33.000Z</time>
      </trkpt>
      <trkpt lat="47.28166" lon="-1.56711">
        <ele>19</ele>
        <time>2019-10-17T14:02:34.000Z</time>
      </trkpt>
      <trkpt lat="47.28168" lon="-1.5671">
        <ele>19</ele>
        <time>2019-10-17T14:02:35.000Z</time>
      </trkpt>
      <trkpt lat="47.2817" lon="-1.5671">
        <ele>19</ele>
        <time>2019-10-17T14:02:36.000Z</time>
      </trkpt>
      <trkpt lat="47.28172" lon="-1.5671">
        <ele>19</ele>
        <time>2019-10-17T14:02:37.000Z</time>
      </trkpt>
      <trkpt lat="47.28173" lon="-1.5671">
        <ele>19</ele>
        <time>2019-10-17T14:02:38.000Z</time>
      </trkpt>
      <trkpt lat="47.28174" lon="-1.56709">
        <ele>19</ele>
        <time>2019-10-17T14:02:39.000Z</time>
      </trkpt>
      <trkpt lat="47.28176" lon="-1.56709">
        <ele>19</ele>
        <time>2019-10-17T14:02:40.000Z</time>
      </trkpt>
      <trkpt lat="47.28177" lon="-1.56709">
        <ele>18</ele>
        <time>2019-10-17T14:02:41.000Z</time>
      </trkpt>
      <trkpt lat="47.28179" lon="-1.56709">
        <ele>18</ele>
        <time>2019-10-17T14:02:42.000Z</time>
      </trkpt>
      <trkpt lat="47.28181" lon="-1.56709">
        <ele>18</ele>
        <time>2019-10-17T14:02:43.000Z</time>
      </trkpt>
      <trkpt lat="47.28184" lon="-1.56709">
        <ele>18</ele>
        <time>2019-10-17T14:02:44.000Z</time>
      </trkpt>
      <trkpt lat="47.28185" lon="-1.56709">
        <ele>18</ele>
        <time>2019-10-17T14:02:45.000Z</time>
      </trkpt>
      <trkpt lat="47.28187" lon="-1.5671">
        <ele>18</ele>
        <time>2019-10-17T14:02:46.000Z</time>
      </trkpt>
      <trkpt lat="47.28189" lon="-1.5671">
        <ele>18</ele>
        <time>2019-10-17T14:02:47.000Z</time>
      </trkpt>
      <trkpt lat="47.28191" lon="-1.56709">
        <ele>18</ele>
        <time>2019-10-17T14:02:48.000Z</time>
      </trkpt>
      <trkpt lat="47.28192" lon="-1.56709">
        <ele>17</ele>
        <time>2019-10-17T14:02:49.000Z</time>
      </trkpt>
      <trkpt lat="47.28194" lon="-1.56709">
        <ele>17</ele>
        <time>2019-10-17T14:02:50.000Z</time>
      </trkpt>
      <trkpt lat="47.28196" lon="-1.56708">
        <ele>17</ele>
        <time>2019-10-17T14:02:51.000Z</time>
      </trkpt>
      <trkpt lat="47.28199" lon="-1.56706">
        <ele>17</ele>
        <time>2019-10-17T14:02:52.000Z</time>
      </trkpt>
      <trkpt lat="47.282" lon="-1.56704">
        <ele>17</ele>
        <time>2019-10-17T14:02:53.000Z</time>
      </trkpt>
      <trkpt lat="47.28203" lon="-1.56701">
        <ele>17</ele>
        <time>2019-10-17T14:02:54.000Z</time>
      </trkpt>
      <trkpt lat="47.28205" lon="-1.56697">
        <ele>17</ele>
        <time>2019-10-17T14:02:55.000Z</time>
      </trkpt>
      <trkpt lat="47.28207" lon="-1.56694">
        <ele>17</ele>
        <time>2019-10-17T14:02:56.000Z</time>
      </trkpt>
      <trkpt lat="47.2821" lon="-1.56691">
        <ele>17</ele>
        <time>2019-10-17T14:02:57.000Z</time>
      </trkpt>
      <trkpt lat="47.28212" lon="-1.56688">
        <ele>17</ele>
        <time>2019-10-17T14:02:58.000Z</time>
      </trkpt>
      <trkpt lat="47.28214" lon="-1.56685">
        <ele>17</ele>
        <time>2019-10-17T14:02:59.000Z</time>
      </trkpt>
      <trkpt lat="47.28215" lon="-1.56683">
        <ele>17</ele>
        <time>2019-10-17T14:03:00.000Z</time>
      </trkpt>
      <trkpt lat="47.28217" lon="-1.56679">
        <ele>17</ele>
        <time>2019-10-17T14:03:01.000Z</time>
      </trkpt>
      <trkpt lat="47.28219" lon="-1.56674">
        <ele>17</ele>
        <time>2019-10-17T14:03:02.000Z</time>
      </trkpt>
      <trkpt lat="47.2822" lon="-1.56668">
        <ele>17</ele>
        <time>2019-10-17T14:03:03.000Z</time>
      </trkpt>
      <trkpt lat="47.28222" lon="-1.56661">
        <ele>17</ele>
        <time>2019-10-17T14:03:04.000Z</time>
      </trkpt>
      <trkpt lat="47.28224" lon="-1.56653">
        <ele>17</ele>
        <time>2019-10-17T14:03:05.000Z</time>
      </trkpt>
      <trkpt lat="47.28226" lon="-1.56647">
        <ele>16</ele>
        <time>2019-10-17T14:03:06.000Z</time>
      </trkpt>
      <trkpt lat="47.28229" lon="-1.5664">
        <ele>16</ele>
        <time>2019-10-17T14:03:07.000Z</time>
      </trkpt>
      <trkpt lat="47.28231" lon="-1.56634">
        <ele>16</ele>
        <time>2019-10-17T14:03:08.000Z</time>
      </trkpt>
      <trkpt lat="47.28234" lon="-1.56628">
        <ele>16</ele>
        <time>2019-10-17T14:03:09.000Z</time>
      </trkpt>
      <trkpt lat="47.28238" lon="-1.56623">
        <ele>16</ele>
        <time>2019-10-17T14:03:10.000Z</time>
      </trkpt>
      <trkpt lat="47.28241" lon="-1.56618">
        <ele>15</ele>
        <time>2019-10-17T14:03:11.000Z</time>
      </trkpt>
      <trkpt lat="47.28244" lon="-1.56612">
        <ele>15</ele>
        <time>2019-10-17T14:03:12.000Z</time>
      </trkpt>
      <trkpt lat="47.28247" lon="-1.56607">
        <ele>15</ele>
        <time>2019-10-17T14:03:13.000Z</time>
      </trkpt>
      <trkpt lat="47.2825" lon="-1.56603">
        <ele>15</ele>
        <time>2019-10-17T14:03:14.000Z</time>
      </trkpt>
      <trkpt lat="47.28253" lon="-1.566">
        <ele>15</ele>
        <time>2019-10-17T14:03:15.000Z</time>
      </trkpt>
      <trkpt lat="47.28256" lon="-1.56597">
        <ele>15</ele>
        <time>2019-10-17T14:03:16.000Z</time>
      </trkpt>
      <trkpt lat="47.28259" lon="-1.56594">
        <ele>15</ele>
        <time>2019-10-17T14:03:17.000Z</time>
      </trkpt>
      <trkpt lat="47.28262" lon="-1.56592">
        <ele>15</ele>
        <time>2019-10-17T14:03:18.000Z</time>
      </trkpt>
      <trkpt lat="47.28264" lon="-1.56589">
        <ele>14</ele>
        <time>2019-10-17T14:03:19.000Z</time>
      </trkpt>
      <trkpt lat="47.28267" lon="-1.56587">
        <ele>14</ele>
        <time>2019-10-17T14:03:20.000Z</time>
      </trkpt>
      <trkpt lat="47.2827" lon="-1.56586">
        <ele>14</ele>
        <time>2019-10-17T14:03:21.000Z</time>
      </trkpt>
      <trkpt lat="47.28272" lon="-1.56584">
        <ele>14</ele>
        <time>2019-10-17T14:03:22.000Z</time>
      </trkpt>
      <trkpt lat="47.28274" lon="-1.56582">
        <ele>14</ele>
        <time>2019-10-17T14:03:23.000Z</time>
      </trkpt>
      <trkpt lat="47.28277" lon="-1.56582">
        <ele>14</ele>
        <time>2019-10-17T14:03:24.000Z</time>
      </trkpt>
      <trkpt lat="47.28279" lon="-1.56581">
        <ele>14</ele>
        <time>2019-10-17T14:03:25.000Z</time>
      </trkpt>
      <trkpt lat="47.28281" lon="-1.56581">
        <ele>14</ele>
        <time>2019-10-17T14:03:26.000Z</time>
      </trkpt>
      <trkpt lat="47.28284" lon="-1.56582">
        <ele>14</ele>
        <time>2019-10-17T14:03:27.000Z</time>
      </trkpt>
      <trkpt lat="47.28287" lon="-1.56582">
        <ele>14</ele>
        <time>2019-10-17T14:03:28.000Z</time>
      </trkpt>
      <trkpt lat="47.28289" lon="-1.56582">
        <ele>14</ele>
        <time>2019-10-17T14:03:29.000Z</time>
      </trkpt>
      <trkpt lat="47.28292" lon="-1.56582">
        <ele>15</ele>
        <time>2019-10-17T14:03:30.000Z</time>
      </trkpt>
      <trkpt lat="47.28294" lon="-1.56581">
        <ele>15</ele>
        <time>2019-10-17T14:03:31.000Z</time>
      </trkpt>
      <trkpt lat="47.28297" lon="-1.56582">
        <ele>14</ele>
        <time>2019-10-17T14:03:32.000Z</time>
      </trkpt>
      <trkpt lat="47.28298" lon="-1.56582">
        <ele>14</ele>
        <time>2019-10-17T14:03:33.000Z</time>
      </trkpt>
      <trkpt lat="47.283" lon="-1.56582">
        <ele>14</ele>
        <time>2019-10-17T14:03:34.000Z</time>
      </trkpt>
      <trkpt lat="47.28303" lon="-1.56583">
        <ele>14</ele>
        <time>2019-10-17T14:03:35.000Z</time>
      </trkpt>
      <trkpt lat="47.28305" lon="-1.56583">
        <ele>14</ele>
        <time>2019-10-17T14:03:36.000Z</time>
      </trkpt>
      <trkpt lat="47.28306" lon="-1.56584">
        <ele>14</ele>
        <time>2019-10-17T14:03:37.000Z</time>
      </trkpt>
      <trkpt lat="47.28308" lon="-1.56584">
        <ele>13</ele>
        <time>2019-10-17T14:03:38.000Z</time>
      </trkpt>
      <trkpt lat="47.28311" lon="-1.56585">
        <ele>13</ele>
        <time>2019-10-17T14:03:39.000Z</time>
      </trkpt>
      <trkpt lat="47.28314" lon="-1.56586">
        <ele>13</ele>
        <time>2019-10-17T14:03:40.000Z</time>
      </trkpt>
      <trkpt lat="47.28317" lon="-1.56588">
        <ele>13</ele>
        <time>2019-10-17T14:03:41.000Z</time>
      </trkpt>
      <trkpt lat="47.2832" lon="-1.56589">
        <ele>13</ele>
        <time>2019-10-17T14:03:42.000Z</time>
      </trkpt>
      <trkpt lat="47.28324" lon="-1.56591">
        <ele>12</ele>
        <time>2019-10-17T14:03:43.000Z</time>
      </trkpt>
      <trkpt lat="47.28327" lon="-1.56593">
        <ele>12</ele>
        <time>2019-10-17T14:03:44.000Z</time>
      </trkpt>
      <trkpt lat="47.2833" lon="-1.56596">
        <ele>12</ele>
        <time>2019-10-17T14:03:45.000Z</time>
      </trkpt>
      <trkpt lat="47.28332" lon="-1.56598">
        <ele>12</ele>
        <time>2019-10-17T14:03:46.000Z</time>
      </trkpt>
      <trkpt lat="47.28336" lon="-1.56599">
        <ele>11</ele>
        <time>2019-10-17T14:03:47.000Z</time>
      </trkpt>
      <trkpt lat="47.28339" lon="-1.56601">
        <ele>11</ele>
        <time>2019-10-17T14:03:48.000Z</time>
      </trkpt>
      <trkpt lat="47.28343" lon="-1.56602">
        <ele>11</ele>
        <time>2019-10-17T14:03:49.000Z</time>
      </trkpt>
      <trkpt lat="47.28347" lon="-1.56602">
        <ele>11</ele>
        <time>2019-10-17T14:03:50.000Z</time>
      </trkpt>
      <trkpt lat="47.2835" lon="-1.56603">
        <ele>11</ele>
        <time>2019-10-17T14:03:51.000Z</time>
      </trkpt>
      <trkpt lat="47.28353" lon="-1.56603">
        <ele>10</ele>
        <time>2019-10-17T14:03:52.000Z</time>
      </trkpt>
      <trkpt lat="47.28356" lon="-1.56605">
        <ele>10</ele>
        <time>2019-10-17T14:03:53.000Z</time>
      </trkpt>
      <trkpt lat="47.28358" lon="-1.56606">
        <ele>10</ele>
        <time>2019-10-17T14:03:54.000Z</time>
      </trkpt>
      <trkpt lat="47.2836" lon="-1.56607">
        <ele>10</ele>
        <time>2019-10-17T14:03:55.000Z</time>
      </trkpt>
      <trkpt lat="47.28361" lon="-1.56608">
        <ele>9</ele>
        <time>2019-10-17T14:03:56.000Z</time>
      </trkpt>
      <trkpt lat="47.28362" lon="-1.56608">
        <ele>9</ele>
        <time>2019-10-17T14:03:57.000Z</time>
      </trkpt>
      <trkpt lat="47.28363" lon="-1.56608">
        <ele>9</ele>
        <time>2019-10-17T14:03:58.000Z</time>
      </trkpt>
      <trkpt lat="47.28364" lon="-1.56609">
        <ele>9</ele>
        <time>2019-10-17T14:03:59.000Z</time>
      </trkpt>
      <trkpt lat="47.28364" lon="-1.56609">
        <ele>9</ele>
        <time>2019-10-17T14:04:00.000Z</time>
      </trkpt>
      <trkpt lat="47.28376" lon="-1.56613">
        <ele>10</ele>
        <time>2019-10-17T14:04:01.000Z</time>
      </trkpt>
      <trkpt lat="47.28376" lon="-1.56615">
        <ele>10</ele>
        <time>2019-10-17T14:04:02.000Z</time>
      </trkpt>
      <trkpt lat="47.28376" lon="-1.56619">
        <ele>10</ele>
        <time>2019-10-17T14:04:03.000Z</time>
      </trkpt>
      <trkpt lat="47.28376" lon="-1.56622">
        <ele>10</ele>
        <time>2019-10-17T14:04:04.000Z</time>
      </trkpt>
      <trkpt lat="47.28375" lon="-1.56624">
        <ele>9</ele>
        <time>2019-10-17T14:04:05.000Z</time>
      </trkpt>
      <trkpt lat="47.28375" lon="-1.56628">
        <ele>9</ele>
        <time>2019-10-17T14:04:06.000Z</time>
      </trkpt>
      <trkpt lat="47.28374" lon="-1.56632">
        <ele>9</ele>
        <time>2019-10-17T14:04:07.000Z</time>
      </trkpt>
      <trkpt lat="47.28374" lon="-1.56636">
        <ele>9</ele>
        <time>2019-10-17T14:04:08.000Z</time>
      </trkpt>
      <trkpt lat="47.28373" lon="-1.56641">
        <ele>9</ele>
        <time>2019-10-17T14:04:09.000Z</time>
      </trkpt>
      <trkpt lat="47.28372" lon="-1.56644">
        <ele>9</ele>
        <time>2019-10-17T14:04:10.000Z</time>
      </trkpt>
      <trkpt lat="47.28371" lon="-1.56648">
        <ele>9</ele>
        <time>2019-10-17T14:04:11.000Z</time>
      </trkpt>
      <trkpt lat="47.28371" lon="-1.56651">
        <ele>9</ele>
        <time>2019-10-17T14:04:12.000Z</time>
      </trkpt>
      <trkpt lat="47.2837" lon="-1.56654">
        <ele>9</ele>
        <time>2019-10-17T14:04:13.000Z</time>
      </trkpt>
      <trkpt lat="47.2837" lon="-1.56658">
        <ele>8</ele>
        <time>2019-10-17T14:04:14.000Z</time>
      </trkpt>
      <trkpt lat="47.2837" lon="-1.56661">
        <ele>8</ele>
        <time>2019-10-17T14:04:15.000Z</time>
      </trkpt>
      <trkpt lat="47.28369" lon="-1.56665">
        <ele>8</ele>
        <time>2019-10-17T14:04:16.000Z</time>
      </trkpt>
      <trkpt lat="47.28368" lon="-1.56669">
        <ele>8</ele>
        <time>2019-10-17T14:04:17.000Z</time>
      </trkpt>
      <trkpt lat="47.28367" lon="-1.56672">
        <ele>8</ele>
        <time>2019-10-17T14:04:18.000Z</time>
      </trkpt>
      <trkpt lat="47.28365" lon="-1.56676">
        <ele>8</ele>
        <time>2019-10-17T14:04:19.000Z</time>
      </trkpt>
      <trkpt lat="47.28364" lon="-1.5668">
        <ele>8</ele>
        <time>2019-10-17T14:04:20.000Z</time>
      </trkpt>
      <trkpt lat="47.28364" lon="-1.56684">
        <ele>8</ele>
        <time>2019-10-17T14:04:21.000Z</time>
      </trkpt>
      <trkpt lat="47.28363" lon="-1.56688">
        <ele>8</ele>
        <time>2019-10-17T14:04:22.000Z</time>
      </trkpt>
      <trkpt lat="47.28361" lon="-1.56693">
        <ele>8</ele>
        <time>2019-10-17T14:04:23.000Z</time>
      </trkpt>
      <trkpt lat="47.2836" lon="-1.56697">
        <ele>9</ele>
        <time>2019-10-17T14:04:24.000Z</time>
      </trkpt>
      <trkpt lat="47.28359" lon="-1.56701">
        <ele>9</ele>
        <time>2019-10-17T14:04:25.000Z</time>
      </trkpt>
      <trkpt lat="47.28358" lon="-1.56706">
        <ele>9</ele>
        <time>2019-10-17T14:04:26.000Z</time>
      </trkpt>
      <trkpt lat="47.28357" lon="-1.56709">
        <ele>10</ele>
        <time>2019-10-17T14:04:27.000Z</time>
      </trkpt>
      <trkpt lat="47.28356" lon="-1.56713">
        <ele>10</ele>
        <time>2019-10-17T14:04:28.000Z</time>
      </trkpt>
      <trkpt lat="47.28356" lon="-1.56717">
        <ele>10</ele>
        <time>2019-10-17T14:04:29.000Z</time>
      </trkpt>
      <trkpt lat="47.28356" lon="-1.56722">
        <ele>10</ele>
        <time>2019-10-17T14:04:30.000Z</time>
      </trkpt>
      <trkpt lat="47.28356" lon="-1.56727">
        <ele>10</ele>
        <time>2019-10-17T14:04:31.000Z</time>
      </trkpt>
      <trkpt lat="47.28355" lon="-1.56732">
        <ele>11</ele>
        <time>2019-10-17T14:04:32.000Z</time>
      </trkpt>
      <trkpt lat="47.28354" lon="-1.56736">
        <ele>11</ele>
        <time>2019-10-17T14:04:33.000Z</time>
      </trkpt>
      <trkpt lat="47.28353" lon="-1.5674">
        <ele>11</ele>
        <time>2019-10-17T14:04:34.000Z</time>
      </trkpt>
      <trkpt lat="47.28353" lon="-1.56744">
        <ele>11</ele>
        <time>2019-10-17T14:04:35.000Z</time>
      </trkpt>
      <trkpt lat="47.28352" lon="-1.56747">
        <ele>11</ele>
        <time>2019-10-17T14:04:36.000Z</time>
      </trkpt>
      <trkpt lat="47.28352" lon="-1.56752">
        <ele>11</ele>
        <time>2019-10-17T14:04:37.000Z</time>
      </trkpt>
      <trkpt lat="47.28353" lon="-1.56757">
        <ele>11</ele>
        <time>2019-10-17T14:04:38.000Z</time>
      </trkpt>
      <trkpt lat="47.28355" lon="-1.56762">
        <ele>11</ele>
        <time>2019-10-17T14:04:39.000Z</time>
      </trkpt>
      <trkpt lat="47.28355" lon="-1.56767">
        <ele>11</ele>
        <time>2019-10-17T14:04:40.000Z</time>
      </trkpt>
      <trkpt lat="47.28356" lon="-1.56771">
        <ele>11</ele>
        <time>2019-10-17T14:04:41.000Z</time>
      </trkpt>
      <trkpt lat="47.28356" lon="-1.56775">
        <ele>11</ele>
        <time>2019-10-17T14:04:42.000Z</time>
      </trkpt>
      <trkpt lat="47.28355" lon="-1.5678">
        <ele>11</ele>
        <time>2019-10-17T14:04:43.000Z</time>
      </trkpt>
      <trkpt lat="47.28355" lon="-1.56784">
        <ele>12</ele>
        <time>2019-10-17T14:04:44.000Z</time>
      </trkpt>
      <trkpt lat="47.28354" lon="-1.56787">
        <ele>12</ele>
        <time>2019-10-17T14:04:45.000Z</time>
      </trkpt>
      <trkpt lat="47.28353" lon="-1.56791">
        <ele>12</ele>
        <time>2019-10-17T14:04:46.000Z</time>
      </trkpt>
      <trkpt lat="47.28353" lon="-1.56795">
        <ele>12</ele>
        <time>2019-10-17T14:04:47.000Z</time>
      </trkpt>
      <trkpt lat="47.28353" lon="-1.56798">
        <ele>12</ele>
        <time>2019-10-17T14:04:48.000Z</time>
      </trkpt>
      <trkpt lat="47.28354" lon="-1.56802">
        <ele>12</ele>
        <time>2019-10-17T14:04:49.000Z</time>
      </trkpt>
      <trkpt lat="47.28355" lon="-1.56806">
        <ele>13</ele>
        <time>2019-10-17T14:04:50.000Z</time>
      </trkpt>
      <trkpt lat="47.28356" lon="-1.56811">
        <ele>13</ele>
        <time>2019-10-17T14:04:51.000Z</time>
      </trkpt>
      <trkpt lat="47.28358" lon="-1.56815">
        <ele>13</ele>
        <time>2019-10-17T14:04:52.000Z</time>
      </trkpt>
      <trkpt lat="47.28359" lon="-1.56818">
        <ele>13</ele>
        <time>2019-10-17T14:04:53.000Z</time>
      </trkpt>
      <trkpt lat="47.2836" lon="-1.56819">
        <ele>13</ele>
        <time>2019-10-17T14:04:54.000Z</time>
      </trkpt>
      <trkpt lat="47.28362" lon="-1.56819">
        <ele>13</ele>
        <time>2019-10-17T14:04:55.000Z</time>
      </trkpt>
      <trkpt lat="47.28364" lon="-1.56818">
        <ele>13</ele>
        <time>2019-10-17T14:04:56.000Z</time>
      </trkpt>
      <trkpt lat="47.28365" lon="-1.56817">
        <ele>14</ele>
        <time>2019-10-17T14:04:57.000Z</time>
      </trkpt>
      <trkpt lat="47.28367" lon="-1.56815">
        <ele>14</ele>
        <time>2019-10-17T14:04:58.000Z</time>
      </trkpt>
      <trkpt lat="47.28368" lon="-1.56811">
        <ele>13</ele>
        <time>2019-10-17T14:04:59.000Z</time>
      </trkpt>
      <trkpt lat="47.2837" lon="-1.56809">
        <ele>13</ele>
        <time>2019-10-17T14:05:00.000Z</time>
      </trkpt>
      <trkpt lat="47.28371" lon="-1.56808">
        <ele>13</ele>
        <time>2019-10-17T14:05:01.000Z</time>
      </trkpt>
      <trkpt lat="47.28372" lon="-1.56805">
        <ele>13</ele>
        <time>2019-10-17T14:05:02.000Z</time>
      </trkpt>
      <trkpt lat="47.28373" lon="-1.56802">
        <ele>13</ele>
        <time>2019-10-17T14:05:03.000Z</time>
      </trkpt>
      <trkpt lat="47.28375" lon="-1.568">
        <ele>13</ele>
        <time>2019-10-17T14:05:04.000Z</time>
      </trkpt>
      <trkpt lat="47.28377" lon="-1.56798">
        <ele>13</ele>
        <time>2019-10-17T14:05:05.000Z</time>
      </trkpt>
      <trkpt lat="47.28378" lon="-1.56795">
        <ele>14</ele>
        <time>2019-10-17T14:05:06.000Z</time>
      </trkpt>
      <trkpt lat="47.2838" lon="-1.56793">
        <ele>14</ele>
        <time>2019-10-17T14:05:07.000Z</time>
      </trkpt>
      <trkpt lat="47.28382" lon="-1.5679">
        <ele>14</ele>
        <time>2019-10-17T14:05:08.000Z</time>
      </trkpt>
      <trkpt lat="47.28384" lon="-1.56787">
        <ele>14</ele>
        <time>2019-10-17T14:05:09.000Z</time>
      </trkpt>
      <trkpt lat="47.28384" lon="-1.56784">
        <ele>14</ele>
        <time>2019-10-17T14:05:10.000Z</time>
      </trkpt>
      <trkpt lat="47.28385" lon="-1.56779">
        <ele>14</ele>
        <time>2019-10-17T14:05:11.000Z</time>
      </trkpt>
      <trkpt lat="47.28386" lon="-1.56775">
        <ele>14</ele>
        <time>2019-10-17T14:05:12.000Z</time>
      </trkpt>
      <trkpt lat="47.28387" lon="-1.56771">
        <ele>14</ele>
        <time>2019-10-17T14:05:13.000Z</time>
      </trkpt>
      <trkpt lat="47.28388" lon="-1.56767">
        <ele>14</ele>
        <time>2019-10-17T14:05:14.000Z</time>
      </trkpt>
      <trkpt lat="47.28389" lon="-1.56764">
        <ele>13</ele>
        <time>2019-10-17T14:05:15.000Z</time>
      </trkpt>
      <trkpt lat="47.2839" lon="-1.56761">
        <ele>13</ele>
        <time>2019-10-17T14:05:16.000Z</time>
      </trkpt>
      <trkpt lat="47.2839" lon="-1.56759">
        <ele>13</ele>
        <time>2019-10-17T14:05:17.000Z</time>
      </trkpt>
      <trkpt lat="47.28391" lon="-1.56754">
        <ele>13</ele>
        <time>2019-10-17T14:05:18.000Z</time>
      </trkpt>
      <trkpt lat="47.28392" lon="-1.56749">
        <ele>13</ele>
        <time>2019-10-17T14:05:19.000Z</time>
      </trkpt>
      <trkpt lat="47.28393" lon="-1.56746">
        <ele>14</ele>
        <time>2019-10-17T14:05:20.000Z</time>
      </trkpt>
      <trkpt lat="47.28394" lon="-1.56742">
        <ele>14</ele>
        <time>2019-10-17T14:05:21.000Z</time>
      </trkpt>
      <trkpt lat="47.28395" lon="-1.56738">
        <ele>14</ele>
        <time>2019-10-17T14:05:22.000Z</time>
      </trkpt>
      <trkpt lat="47.28396" lon="-1.56735">
        <ele>14</ele>
        <time>2019-10-17T14:05:23.000Z</time>
      </trkpt>
      <trkpt lat="47.28397" lon="-1.56732">
        <ele>14</ele>
        <time>2019-10-17T14:05:24.000Z</time>
      </trkpt>
      <trkpt lat="47.28399" lon="-1.5673">
        <ele>14</ele>
        <time>2019-10-17T14:05:25.000Z</time>
      </trkpt>
      <trkpt lat="47.28401" lon="-1.56726">
        <ele>14</ele>
        <time>2019-10-17T14:05:26.000Z</time>
      </trkpt>
      <trkpt lat="47.28402" lon="-1.56722">
        <ele>14</ele>
        <time>2019-10-17T14:05:27.000Z</time>
      </trkpt>
      <trkpt lat="47.28404" lon="-1.56719">
        <ele>14</ele>
        <time>2019-10-17T14:05:28.000Z</time>
      </trkpt>
      <trkpt lat="47.28407" lon="-1.56715">
        <ele>14</ele>
        <time>2019-10-17T14:05:29.000Z</time>
      </trkpt>
      <trkpt lat="47.28409" lon="-1.56711">
        <ele>14</ele>
        <time>2019-10-17T14:05:30.000Z</time>
      </trkpt>
      <trkpt lat="47.28411" lon="-1.56706">
        <ele>14</ele>
        <time>2019-10-17T14:05:31.000Z</time>
      </trkpt>
      <trkpt lat="47.28412" lon="-1.56701">
        <ele>14</ele>
        <time>2019-10-17T14:05:32.000Z</time>
      </trkpt>
      <trkpt lat="47.28413" lon="-1.56695">
        <ele>14</ele>
        <time>2019-10-17T14:05:33.000Z</time>
      </trkpt>
      <trkpt lat="47.28415" lon="-1.56691">
        <ele>14</ele>
        <time>2019-10-17T14:05:34.000Z</time>
      </trkpt>
      <trkpt lat="47.28416" lon="-1.56685">
        <ele>14</ele>
        <time>2019-10-17T14:05:35.000Z</time>
      </trkpt>
      <trkpt lat="47.28416" lon="-1.5668">
        <ele>14</ele>
        <time>2019-10-17T14:05:36.000Z</time>
      </trkpt>
      <trkpt lat="47.28417" lon="-1.56675">
        <ele>14</ele>
        <time>2019-10-17T14:05:37.000Z</time>
      </trkpt>
      <trkpt lat="47.28418" lon="-1.56668">
        <ele>14</ele>
        <time>2019-10-17T14:05:38.000Z</time>
      </trkpt>
      <trkpt lat="47.28419" lon="-1.56661">
        <ele>14</ele>
        <time>2019-10-17T14:05:39.000Z</time>
      </trkpt>
      <trkpt lat="47.2842" lon="-1.56655">
        <ele>14</ele>
        <time>2019-10-17T14:05:40.000Z</time>
      </trkpt>
      <trkpt lat="47.28421" lon="-1.56649">
        <ele>14</ele>
        <time>2019-10-17T14:05:41.000Z</time>
      </trkpt>
      <trkpt lat="47.28423" lon="-1.56644">
        <ele>14</ele>
        <time>2019-10-17T14:05:42.000Z</time>
      </trkpt>
      <trkpt lat="47.28424" lon="-1.56639">
        <ele>14</ele>
        <time>2019-10-17T14:05:43.000Z</time>
      </trkpt>
      <trkpt lat="47.28424" lon="-1.56635">
        <ele>14</ele>
        <time>2019-10-17T14:05:44.000Z</time>
      </trkpt>
      <trkpt lat="47.28425" lon="-1.56631">
        <ele>14</ele>
        <time>2019-10-17T14:05:45.000Z</time>
      </trkpt>
      <trkpt lat="47.28426" lon="-1.56625">
        <ele>14</ele>
        <time>2019-10-17T14:05:46.000Z</time>
      </trkpt>
      <trkpt lat="47.28427" lon="-1.56621">
        <ele>14</ele>
        <time>2019-10-17T14:05:47.000Z</time>
      </trkpt>
      <trkpt lat="47.28428" lon="-1.56616">
        <ele>15</ele>
        <time>2019-10-17T14:05:48.000Z</time>
      </trkpt>
      <trkpt lat="47.2843" lon="-1.56612">
        <ele>15</ele>
        <time>2019-10-17T14:05:49.000Z</time>
      </trkpt>
      <trkpt lat="47.28431" lon="-1.56609">
        <ele>15</ele>
        <time>2019-10-17T14:05:50.000Z</time>
      </trkpt>
      <trkpt lat="47.28433" lon="-1.56607">
        <ele>15</ele>
        <time>2019-10-17T14:05:51.000Z</time>
      </trkpt>
      <trkpt lat="47.28436" lon="-1.56604">
        <ele>16</ele>
        <time>2019-10-17T14:05:52.000Z</time>
      </trkpt>
      <trkpt lat="47.28439" lon="-1.56601">
        <ele>16</ele>
        <time>2019-10-17T14:05:53.000Z</time>
      </trkpt>
      <trkpt lat="47.28443" lon="-1.56599">
        <ele>16</ele>
        <time>2019-10-17T14:05:54.000Z</time>
      </trkpt>
      <trkpt lat="47.28446" lon="-1.56596">
        <ele>16</ele>
        <time>2019-10-17T14:05:55.000Z</time>
      </trkpt>
      <trkpt lat="47.28449" lon="-1.56595">
        <ele>16</ele>
        <time>2019-10-17T14:05:56.000Z</time>
      </trkpt>
      <trkpt lat="47.28452" lon="-1.56593">
        <ele>17</ele>
        <time>2019-10-17T14:05:57.000Z</time>
      </trkpt>
      <trkpt lat="47.28455" lon="-1.5659">
        <ele>17</ele>
        <time>2019-10-17T14:05:58.000Z</time>
      </trkpt>
      <trkpt lat="47.28458" lon="-1.56588">
        <ele>17</ele>
        <time>2019-10-17T14:05:59.000Z</time>
      </trkpt>
      <trkpt lat="47.28462" lon="-1.56587">
        <ele>17</ele>
        <time>2019-10-17T14:06:00.000Z</time>
      </trkpt>
      <trkpt lat="47.28465" lon="-1.56585">
        <ele>17</ele>
        <time>2019-10-17T14:06:01.000Z</time>
      </trkpt>
      <trkpt lat="47.28468" lon="-1.56583">
        <ele>18</ele>
        <time>2019-10-17T14:06:02.000Z</time>
      </trkpt>
      <trkpt lat="47.28471" lon="-1.56582">
        <ele>18</ele>
        <time>2019-10-17T14:06:03.000Z</time>
      </trkpt>
      <trkpt lat="47.28474" lon="-1.5658">
        <ele>18</ele>
        <time>2019-10-17T14:06:04.000Z</time>
      </trkpt>
      <trkpt lat="47.28478" lon="-1.5658">
        <ele>18</ele>
        <time>2019-10-17T14:06:05.000Z</time>
      </trkpt>
      <trkpt lat="47.28482" lon="-1.5658">
        <ele>18</ele>
        <time>2019-10-17T14:06:06.000Z</time>
      </trkpt>
      <trkpt lat="47.28485" lon="-1.5658">
        <ele>18</ele>
        <time>2019-10-17T14:06:07.000Z</time>
      </trkpt>
      <trkpt lat="47.28488" lon="-1.5658">
        <ele>18</ele>
        <time>2019-10-17T14:06:08.000Z</time>
      </trkpt>
      <trkpt lat="47.28491" lon="-1.56583">
        <ele>18</ele>
        <time>2019-10-17T14:06:09.000Z</time>
      </trkpt>
      <trkpt lat="47.28493" lon="-1.56586">
        <ele>17</ele>
        <time>2019-10-17T14:06:10.000Z</time>
      </trkpt>
      <trkpt lat="47.28495" lon="-1.5659">
        <ele>17</ele>
        <time>2019-10-17T14:06:11.000Z</time>
      </trkpt>
      <trkpt lat="47.28497" lon="-1.56593">
        <ele>17</ele>
        <time>2019-10-17T14:06:12.000Z</time>
      </trkpt>
      <trkpt lat="47.28498" lon="-1.56597">
        <ele>17</ele>
        <time>2019-10-17T14:06:13.000Z</time>
      </trkpt>
      <trkpt lat="47.285" lon="-1.56601">
        <ele>17</ele>
        <time>2019-10-17T14:06:14.000Z</time>
      </trkpt>
      <trkpt lat="47.285" lon="-1.56604">
        <ele>17</ele>
        <time>2019-10-17T14:06:15.000Z</time>
      </trkpt>
      <trkpt lat="47.28501" lon="-1.56608">
        <ele>17</ele>
        <time>2019-10-17T14:06:16.000Z</time>
      </trkpt>
      <trkpt lat="47.28502" lon="-1.56613">
        <ele>17</ele>
        <time>2019-10-17T14:06:17.000Z</time>
      </trkpt>
      <trkpt lat="47.28504" lon="-1.56617">
        <ele>17</ele>
        <time>2019-10-17T14:06:18.000Z</time>
      </trkpt>
      <trkpt lat="47.28504" lon="-1.56621">
        <ele>17</ele>
        <time>2019-10-17T14:06:19.000Z</time>
      </trkpt>
      <trkpt lat="47.28505" lon="-1.56624">
        <ele>17</ele>
        <time>2019-10-17T14:06:20.000Z</time>
      </trkpt>
      <trkpt lat="47.28504" lon="-1.56627">
        <ele>17</ele>
        <time>2019-10-17T14:06:21.000Z</time>
      </trkpt>
      <trkpt lat="47.28503" lon="-1.5663">
        <ele>17</ele>
        <time>2019-10-17T14:06:22.000Z</time>
      </trkpt>
      <trkpt lat="47.28501" lon="-1.56634">
        <ele>17</ele>
        <time>2019-10-17T14:06:23.000Z</time>
      </trkpt>
      <trkpt lat="47.285" lon="-1.56637">
        <ele>17</ele>
        <time>2019-10-17T14:06:24.000Z</time>
      </trkpt>
      <trkpt lat="47.285" lon="-1.5664">
        <ele>17</ele>
        <time>2019-10-17T14:06:25.000Z</time>
      </trkpt>
      <trkpt lat="47.28498" lon="-1.56643">
        <ele>17</ele>
        <time>2019-10-17T14:06:26.000Z</time>
      </trkpt>
      <trkpt lat="47.28497" lon="-1.56647">
        <ele>16</ele>
        <time>2019-10-17T14:06:27.000Z</time>
      </trkpt>
      <trkpt lat="47.28497" lon="-1.5665">
        <ele>16</ele>
        <time>2019-10-17T14:06:28.000Z</time>
      </trkpt>
      <trkpt lat="47.28498" lon="-1.56655">
        <ele>16</ele>
        <time>2019-10-17T14:06:29.000Z</time>
      </trkpt>
      <trkpt lat="47.28499" lon="-1.56661">
        <ele>16</ele>
        <time>2019-10-17T14:06:30.000Z</time>
      </trkpt>
      <trkpt lat="47.28501" lon="-1.56665">
        <ele>16</ele>
        <time>2019-10-17T14:06:31.000Z</time>
      </trkpt>
      <trkpt lat="47.28503" lon="-1.56669">
        <ele>16</ele>
        <time>2019-10-17T14:06:32.000Z</time>
      </trkpt>
      <trkpt lat="47.28505" lon="-1.56674">
        <ele>16</ele>
        <time>2019-10-17T14:06:33.000Z</time>
      </trkpt>
      <trkpt lat="47.28508" lon="-1.56678">
        <ele>16</ele>
        <time>2019-10-17T14:06:34.000Z</time>
      </trkpt>
      <trkpt lat="47.2851" lon="-1.56682">
        <ele>16</ele>
        <time>2019-10-17T14:06:35.000Z</time>
      </trkpt>
      <trkpt lat="47.28512" lon="-1.56686">
        <ele>16</ele>
        <time>2019-10-17T14:06:36.000Z</time>
      </trkpt>
      <trkpt lat="47.28514" lon="-1.5669">
        <ele>16</ele>
        <time>2019-10-17T14:06:37.000Z</time>
      </trkpt>
      <trkpt lat="47.28516" lon="-1.56693">
        <ele>16</ele>
        <time>2019-10-17T14:06:38.000Z</time>
      </trkpt>
      <trkpt lat="47.28518" lon="-1.56696">
        <ele>16</ele>
        <time>2019-10-17T14:06:39.000Z</time>
      </trkpt>
      <trkpt lat="47.2852" lon="-1.56699">
        <ele>16</ele>
        <time>2019-10-17T14:06:40.000Z</time>
      </trkpt>
      <trkpt lat="47.28522" lon="-1.56702">
        <ele>15</ele>
        <time>2019-10-17T14:06:41.000Z</time>
      </trkpt>
      <trkpt lat="47.28524" lon="-1.56705">
        <ele>15</ele>
        <time>2019-10-17T14:06:42.000Z</time>
      </trkpt>
      <trkpt lat="47.28526" lon="-1.56707">
        <ele>15</ele>
        <time>2019-10-17T14:06:43.000Z</time>
      </trkpt>
      <trkpt lat="47.28527" lon="-1.56709">
        <ele>15</ele>
        <time>2019-10-17T14:06:44.000Z</time>
      </trkpt>
      <trkpt lat="47.2853" lon="-1.56712">
        <ele>15</ele>
        <time>2019-10-17T14:06:45.000Z</time>
      </trkpt>
      <trkpt lat="47.28532" lon="-1.56715">
        <ele>14</ele>
        <time>2019-10-17T14:06:46.000Z</time>
      </trkpt>
      <trkpt lat="47.28534" lon="-1.56718">
        <ele>14</ele>
        <time>2019-10-17T14:06:47.000Z</time>
      </trkpt>
      <trkpt lat="47.28536" lon="-1.5672">
        <ele>14</ele>
        <time>2019-10-17T14:06:48.000Z</time>
      </trkpt>
      <trkpt lat="47.28539" lon="-1.56723">
        <ele>14</ele>
        <time>2019-10-17T14:06:49.000Z</time>
      </trkpt>
      <trkpt lat="47.2854" lon="-1.56726">
        <ele>13</ele>
        <time>2019-10-17T14:06:50.000Z</time>
      </trkpt>
      <trkpt lat="47.28543" lon="-1.56729">
        <ele>13</ele>
        <time>2019-10-17T14:06:51.000Z</time>
      </trkpt>
      <trkpt lat="47.28545" lon="-1.56732">
        <ele>13</ele>
        <time>2019-10-17T14:06:52.000Z</time>
      </trkpt>
      <trkpt lat="47.28548" lon="-1.56735">
        <ele>13</ele>
        <time>2019-10-17T14:06:53.000Z</time>
      </trkpt>
      <trkpt lat="47.28551" lon="-1.56738">
        <ele>13</ele>
        <time>2019-10-17T14:06:54.000Z</time>
      </trkpt>
      <trkpt lat="47.28555" lon="-1.56741">
        <ele>13</ele>
        <time>2019-10-17T14:06:55.000Z</time>
      </trkpt>
      <trkpt lat="47.28559" lon="-1.56743">
        <ele>12</ele>
        <time>2019-10-17T14:06:56.000Z</time>
      </trkpt>
      <trkpt lat="47.28561" lon="-1.56746">
        <ele>12</ele>
        <time>2019-10-17T14:06:57.000Z</time>
      </trkpt>
      <trkpt lat="47.28564" lon="-1.56748">
        <ele>12</ele>
        <time>2019-10-17T14:06:58.000Z</time>
      </trkpt>
      <trkpt lat="47.28566" lon="-1.5675">
        <ele>12</ele>
        <time>2019-10-17T14:06:59.000Z</time>
      </trkpt>
      <trkpt lat="47.28568" lon="-1.5675">
        <ele>11</ele>
        <time>2019-10-17T14:07:00.000Z</time>
      </trkpt>
      <trkpt lat="47.28572" lon="-1.56752">
        <ele>11</ele>
        <time>2019-10-17T14:07:01.000Z</time>
      </trkpt>
      <trkpt lat="47.28575" lon="-1.56753">
        <ele>11</ele>
        <time>2019-10-17T14:07:02.000Z</time>
      </trkpt>
      <trkpt lat="47.28578" lon="-1.56755">
        <ele>11</ele>
        <time>2019-10-17T14:07:03.000Z</time>
      </trkpt>
      <trkpt lat="47.28581" lon="-1.56756">
        <ele>11</ele>
        <time>2019-10-17T14:07:04.000Z</time>
      </trkpt>
      <trkpt lat="47.28583" lon="-1.56758">
        <ele>10</ele>
        <time>2019-10-17T14:07:05.000Z</time>
      </trkpt>
      <trkpt lat="47.28586" lon="-1.5676">
        <ele>10</ele>
        <time>2019-10-17T14:07:06.000Z</time>
      </trkpt>
      <trkpt lat="47.28589" lon="-1.56763">
        <ele>10</ele>
        <time>2019-10-17T14:07:07.000Z</time>
      </trkpt>
      <trkpt lat="47.28592" lon="-1.56764">
        <ele>9</ele>
        <time>2019-10-17T14:07:08.000Z</time>
      </trkpt>
      <trkpt lat="47.28594" lon="-1.56766">
        <ele>9</ele>
        <time>2019-10-17T14:07:09.000Z</time>
      </trkpt>
      <trkpt lat="47.28596" lon="-1.56767">
        <ele>9</ele>
        <time>2019-10-17T14:07:10.000Z</time>
      </trkpt>
      <trkpt lat="47.28599" lon="-1.56768">
        <ele>9</ele>
        <time>2019-10-17T14:07:11.000Z</time>
      </trkpt>
      <trkpt lat="47.28602" lon="-1.5677">
        <ele>8</ele>
        <time>2019-10-17T14:07:12.000Z</time>
      </trkpt>
      <trkpt lat="47.28604" lon="-1.56771">
        <ele>8</ele>
        <time>2019-10-17T14:07:13.000Z</time>
      </trkpt>
      <trkpt lat="47.28606" lon="-1.56773">
        <ele>8</ele>
        <time>2019-10-17T14:07:14.000Z</time>
      </trkpt>
      <trkpt lat="47.28608" lon="-1.56775">
        <ele>8</ele>
        <time>2019-10-17T14:07:15.000Z</time>
      </trkpt>
      <trkpt lat="47.2861" lon="-1.56776">
        <ele>7</ele>
        <time>2019-10-17T14:07:16.000Z</time>
      </trkpt>
      <trkpt lat="47.28613" lon="-1.56777">
        <ele>7</ele>
        <time>2019-10-17T14:07:17.000Z</time>
      </trkpt>
      <trkpt lat="47.28616" lon="-1.56778">
        <ele>7</ele>
        <time>2019-10-17T14:07:18.000Z</time>
      </trkpt>
      <trkpt lat="47.28618" lon="-1.56779">
        <ele>7</ele>
        <time>2019-10-17T14:07:19.000Z</time>
      </trkpt>
      <trkpt lat="47.2862" lon="-1.5678">
        <ele>7</ele>
        <time>2019-10-17T14:07:20.000Z</time>
      </trkpt>
      <trkpt lat="47.28623" lon="-1.5678">
        <ele>6</ele>
        <time>2019-10-17T14:07:21.000Z</time>
      </trkpt>
      <trkpt lat="47.28626" lon="-1.56779">
        <ele>6</ele>
        <time>2019-10-17T14:07:22.000Z</time>
      </trkpt>
      <trkpt lat="47.28628" lon="-1.56779">
        <ele>6</ele>
        <time>2019-10-17T14:07:23.000Z</time>
      </trkpt>
      <trkpt lat="47.28631" lon="-1.5678">
        <ele>6</ele>
        <time>2019-10-17T14:07:24.000Z</time>
      </trkpt>
      <trkpt lat="47.28633" lon="-1.56781">
        <ele>6</ele>
        <time>2019-10-17T14:07:25.000Z</time>
      </trkpt>
      <trkpt lat="47.28636" lon="-1.56782">
        <ele>6</ele>
        <time>2019-10-17T14:07:26.000Z</time>
      </trkpt>
      <trkpt lat="47.28639" lon="-1.56783">
        <ele>6</ele>
        <time>2019-10-17T14:07:27.000Z</time>
      </trkpt>
      <trkpt lat="47.28641" lon="-1.56786">
        <ele>6</ele>
        <time>2019-10-17T14:07:28.000Z</time>
      </trkpt>
      <trkpt lat="47.28644" lon="-1.56788">
        <ele>6</ele>
        <time>2019-10-17T14:07:29.000Z</time>
      </trkpt>
      <trkpt lat="47.28648" lon="-1.56792">
        <ele>6</ele>
        <time>2019-10-17T14:07:30.000Z</time>
      </trkpt>
      <trkpt lat="47.2865" lon="-1.56794">
        <ele>6</ele>
        <time>2019-10-17T14:07:31.000Z</time>
      </trkpt>
      <trkpt lat="47.28653" lon="-1.56797">
        <ele>5</ele>
        <time>2019-10-17T14:07:32.000Z</time>
      </trkpt>
      <trkpt lat="47.28656" lon="-1.56799">
        <ele>5</ele>
        <time>2019-10-17T14:07:33.000Z</time>
      </trkpt>
      <trkpt lat="47.28658" lon="-1.56801">
        <ele>5</ele>
        <time>2019-10-17T14:07:34.000Z</time>
      </trkpt>
      <trkpt lat="47.28661" lon="-1.56802">
        <ele>5</ele>
        <time>2019-10-17T14:07:35.000Z</time>
      </trkpt>
      <trkpt lat="47.28663" lon="-1.56805">
        <ele>5</ele>
        <time>2019-10-17T14:07:36.000Z</time>
      </trkpt>
      <trkpt lat="47.28665" lon="-1.56807">
        <ele>5</ele>
        <time>2019-10-17T14:07:37.000Z</time>
      </trkpt>
      <trkpt lat="47.28667" lon="-1.56808">
        <ele>5</ele>
        <time>2019-10-17T14:07:38.000Z</time>
      </trkpt>
      <trkpt lat="47.28668" lon="-1.56809">
        <ele>5</ele>
        <time>2019-10-17T14:07:39.000Z</time>
      </trkpt>
      <trkpt lat="47.28671" lon="-1.56809">
        <ele>5</ele>
        <time>2019-10-17T14:07:40.000Z</time>
      </trkpt>
      <trkpt lat="47.28673" lon="-1.5681">
        <ele>5</ele>
        <time>2019-10-17T14:07:41.000Z</time>
      </trkpt>
      <trkpt lat="47.28676" lon="-1.56811">
        <ele>5</ele>
        <time>2019-10-17T14:07:42.000Z</time>
      </trkpt>
      <trkpt lat="47.28678" lon="-1.56813">
        <ele>5</ele>
        <time>2019-10-17T14:07:43.000Z</time>
      </trkpt>
      <trkpt lat="47.2868" lon="-1.56815">
        <ele>5</ele>
        <time>2019-10-17T14:07:44.000Z</time>
      </trkpt>
      <trkpt lat="47.28682" lon="-1.56817">
        <ele>6</ele>
        <time>2019-10-17T14:07:45.000Z</time>
      </trkpt>
      <trkpt lat="47.28683" lon="-1.56818">
        <ele>6</ele>
        <time>2019-10-17T14:07:46.000Z</time>
      </trkpt>
      <trkpt lat="47.28684" lon="-1.56819">
        <ele>6</ele>
        <time>2019-10-17T14:07:47.000Z</time>
      </trkpt>
      <trkpt lat="47.28685" lon="-1.5682">
        <ele>6</ele>
        <time>2019-10-17T14:07:48.000Z</time>
      </trkpt>
      <trkpt lat="47.28686" lon="-1.56821">
        <ele>6</ele>
        <time>2019-10-17T14:07:49.000Z</time>
      </trkpt>
      <trkpt lat="47.28687" lon="-1.5682">
        <ele>6</ele>
        <time>2019-10-17T14:07:50.000Z</time>
      </trkpt>
      <trkpt lat="47.28689" lon="-1.5682">
        <ele>6</ele>
        <time>2019-10-17T14:07:51.000Z</time>
      </trkpt>
      <trkpt lat="47.28692" lon="-1.5682">
        <ele>6</ele>
        <time>2019-10-17T14:07:52.000Z</time>
      </trkpt>
      <trkpt lat="47.28695" lon="-1.5682">
        <ele>6</ele>
        <time>2019-10-17T14:07:53.000Z</time>
      </trkpt>
      <trkpt lat="47.28698" lon="-1.56819">
        <ele>6</ele>
        <time>2019-10-17T14:07:54.000Z</time>
      </trkpt>
      <trkpt lat="47.28701" lon="-1.56818">
        <ele>6</ele>
        <time>2019-10-17T14:07:55.000Z</time>
      </trkpt>
      <trkpt lat="47.28704" lon="-1.56819">
        <ele>6</ele>
        <time>2019-10-17T14:07:56.000Z</time>
      </trkpt>
      <trkpt lat="47.28707" lon="-1.5682">
        <ele>6</ele>
        <time>2019-10-17T14:07:57.000Z</time>
      </trkpt>
      <trkpt lat="47.28709" lon="-1.56822">
        <ele>6</ele>
        <time>2019-10-17T14:07:58.000Z</time>
      </trkpt>
      <trkpt lat="47.28711" lon="-1.56824">
        <ele>6</ele>
        <time>2019-10-17T14:07:59.000Z</time>
      </trkpt>
      <trkpt lat="47.28714" lon="-1.56826">
        <ele>6</ele>
        <time>2019-10-17T14:08:00.000Z</time>
      </trkpt>
      <trkpt lat="47.28716" lon="-1.56828">
        <ele>6</ele>
        <time>2019-10-17T14:08:01.000Z</time>
      </trkpt>
      <trkpt lat="47.28718" lon="-1.5683">
        <ele>6</ele>
        <time>2019-10-17T14:08:02.000Z</time>
      </trkpt>
      <trkpt lat="47.28719" lon="-1.56832">
        <ele>6</ele>
        <time>2019-10-17T14:08:03.000Z</time>
      </trkpt>
      <trkpt lat="47.2872" lon="-1.56833">
        <ele>5</ele>
        <time>2019-10-17T14:08:04.000Z</time>
      </trkpt>
      <trkpt lat="47.28721" lon="-1.56834">
        <ele>5</ele>
        <time>2019-10-17T14:08:05.000Z</time>
      </trkpt>
      <trkpt lat="47.28722" lon="-1.56835">
        <ele>5</ele>
        <time>2019-10-17T14:08:06.000Z</time>
      </trkpt>
      <trkpt lat="47.28723" lon="-1.56835">
        <ele>5</ele>
        <time>2019-10-17T14:08:07.000Z</time>
      </trkpt>
      <trkpt lat="47.28724" lon="-1.56836">
        <ele>5</ele>
        <time>2019-10-17T14:08:08.000Z</time>
      </trkpt>
      <trkpt lat="47.28725" lon="-1.56837">
        <ele>5</ele>
        <time>2019-10-17T14:08:09.000Z</time>
      </trkpt>
      <trkpt lat="47.28725" lon="-1.56837">
        <ele>4</ele>
        <time>2019-10-17T14:08:10.000Z</time>
      </trkpt>
      <trkpt lat="47.28726" lon="-1.56838">
        <ele>4</ele>
        <time>2019-10-17T14:08:11.000Z</time>
      </trkpt>
      <trkpt lat="47.28727" lon="-1.56839">
        <ele>4</ele>
        <time>2019-10-17T14:08:12.000Z</time>
      </trkpt>
      <trkpt lat="47.28728" lon="-1.5684">
        <ele>4</ele>
        <time>2019-10-17T14:08:13.000Z</time>
      </trkpt>
      <trkpt lat="47.28729" lon="-1.56841">
        <ele>3</ele>
        <time>2019-10-17T14:08:14.000Z</time>
      </trkpt>
      <trkpt lat="47.28731" lon="-1.56842">
        <ele>3</ele>
        <time>2019-10-17T14:08:15.000Z</time>
      </trkpt>
      <trkpt lat="47.28733" lon="-1.56844">
        <ele>3</ele>
        <time>2019-10-17T14:08:16.000Z</time>
      </trkpt>
      <trkpt lat="47.28735" lon="-1.56845">
        <ele>3</ele>
        <time>2019-10-17T14:08:17.000Z</time>
      </trkpt>
      <trkpt lat="47.28736" lon="-1.56846">
        <ele>2</ele>
        <time>2019-10-17T14:08:18.000Z</time>
      </trkpt>
      <trkpt lat="47.28738" lon="-1.56848">
        <ele>2</ele>
        <time>2019-10-17T14:08:19.000Z</time>
      </trkpt>
      <trkpt lat="47.28738" lon="-1.56848">
        <ele>2</ele>
        <time>2019-10-17T14:08:20.000Z</time>
      </trkpt>
      <trkpt lat="47.28738" lon="-1.56848">
        <ele>2</ele>
        <time>2019-10-17T14:08:21.000Z</time>
      </trkpt>
      <trkpt lat="47.28739" lon="-1.56849">
        <ele>2</ele>
        <time>2019-10-17T14:08:22.000Z</time>
      </trkpt>
      <trkpt lat="47.28739" lon="-1.56849">
        <ele>1</ele>
        <time>2019-10-17T14:08:23.000Z</time>
      </trkpt>
      <trkpt lat="47.28747" lon="-1.56854">
        <ele>14.9</ele>
        <time>2019-10-17T14:08:24.000Z</time>
      </trkpt>
      <trkpt lat="47.28749" lon="-1.56854">
        <ele>14.4</ele>
        <time>2019-10-17T14:08:25.000Z</time>
      </trkpt>
      <trkpt lat="47.28751" lon="-1.56852">
        <ele>13.7</ele>
        <time>2019-10-17T14:08:26.000Z</time>
      </trkpt>
      <trkpt lat="47.28754" lon="-1.56852">
        <ele>13.2</ele>
        <time>2019-10-17T14:08:27.000Z</time>
      </trkpt>
      <trkpt lat="47.28757" lon="-1.5685">
        <ele>12.6</ele>
        <time>2019-10-17T14:08:28.000Z</time>
      </trkpt>
      <trkpt lat="47.2876" lon="-1.5685">
        <ele>12.2</ele>
        <time>2019-10-17T14:08:29.000Z</time>
      </trkpt>
      <trkpt lat="47.28763" lon="-1.56848">
        <ele>11.7</ele>
        <time>2019-10-17T14:08:30.000Z</time>
      </trkpt>
      <trkpt lat="47.28766" lon="-1.56847">
        <ele>11.2</ele>
        <time>2019-10-17T14:08:31.000Z</time>
      </trkpt>
      <trkpt lat="47.28768" lon="-1.56847">
        <ele>10.9</ele>
        <time>2019-10-17T14:08:32.000Z</time>
      </trkpt>
      <trkpt lat="47.2877" lon="-1.56847">
        <ele>10.9</ele>
        <time>2019-10-17T14:08:33.000Z</time>
      </trkpt>
      <trkpt lat="47.28771" lon="-1.56847">
        <ele>10.9</ele>
        <time>2019-10-17T14:08:34.000Z</time>
      </trkpt>
      <trkpt lat="47.28773" lon="-1.56848">
        <ele>11</ele>
        <time>2019-10-17T14:08:35.000Z</time>
      </trkpt>
      <trkpt lat="47.28774" lon="-1.56849">
        <ele>11.3</ele>
        <time>2019-10-17T14:08:36.000Z</time>
      </trkpt>
      <trkpt lat="47.28775" lon="-1.5685">
        <ele>11.5</ele>
        <time>2019-10-17T14:08:37.000Z</time>
      </trkpt>
      <trkpt lat="47.28776" lon="-1.56851">
        <ele>11.5</ele>
        <time>2019-10-17T14:08:38.000Z</time>
      </trkpt>
      <trkpt lat="47.28777" lon="-1.56851">
        <ele>11.6</ele>
        <time>2019-10-17T14:08:39.000Z</time>
      </trkpt>
      <trkpt lat="47.28778" lon="-1.56852">
        <ele>11.6</ele>
        <time>2019-10-17T14:08:40.000Z</time>
      </trkpt>
      <trkpt lat="47.28779" lon="-1.56852">
        <ele>11.7</ele>
        <time>2019-10-17T14:08:41.000Z</time>
      </trkpt>
      <trkpt lat="47.28779" lon="-1.56852">
        <ele>11.8</ele>
        <time>2019-10-17T14:08:42.000Z</time>
      </trkpt>
      <trkpt lat="47.28788" lon="-1.56856">
        <ele>-3</ele>
        <time>2019-10-17T14:08:43.000Z</time>
      </trkpt>
      <trkpt lat="47.28789" lon="-1.56856">
        <ele>-3</ele>
        <time>2019-10-17T14:08:44.000Z</time>
      </trkpt>
      <trkpt lat="47.2879" lon="-1.56856">
        <ele>-3</ele>
        <time>2019-10-17T14:08:45.000Z</time>
      </trkpt>
      <trkpt lat="47.28799" lon="-1.56855">
        <ele>13.1</ele>
        <time>2019-10-17T14:08:46.000Z</time>
      </trkpt>
      <trkpt lat="47.288" lon="-1.56855">
        <ele>13.1</ele>
        <time>2019-10-17T14:08:47.000Z</time>
      </trkpt>
      <trkpt lat="47.28801" lon="-1.56855">
        <ele>13.2</ele>
        <time>2019-10-17T14:08:48.000Z</time>
      </trkpt>
      <trkpt lat="47.28803" lon="-1.56856">
        <ele>13.3</ele>
        <time>2019-10-17T14:08:49.000Z</time>
      </trkpt>
      <trkpt lat="47.28804" lon="-1.56856">
        <ele>1</ele>
        <time>2019-10-17T14:08:50.000Z</time>
      </trkpt>
      <trkpt lat="47.28805" lon="-1.56857">
        <ele>1</ele>
        <time>2019-10-17T14:08:51.000Z</time>
      </trkpt>
      <trkpt lat="47.28806" lon="-1.56856">
        <ele>1</ele>
        <time>2019-10-17T14:08:52.000Z</time>
      </trkpt>
      <trkpt lat="47.28806" lon="-1.56856">
        <ele>1</ele>
        <time>2019-10-17T14:08:53.000Z</time>
      </trkpt>
      <trkpt lat="47.28814" lon="-1.56854">
        <ele>4</ele>
        <time>2019-10-17T14:08:54.000Z</time>
      </trkpt>
      <trkpt lat="47.28815" lon="-1.56854">
        <ele>4</ele>
        <time>2019-10-17T14:08:55.000Z</time>
      </trkpt>
      <trkpt lat="47.28816" lon="-1.56852">
        <ele>4</ele>
        <time>2019-10-17T14:08:56.000Z</time>
      </trkpt>
      <trkpt lat="47.28818" lon="-1.56851">
        <ele>4</ele>
        <time>2019-10-17T14:08:57.000Z</time>
      </trkpt>
      <trkpt lat="47.28819" lon="-1.5685">
        <ele>4</ele>
        <time>2019-10-17T14:08:58.000Z</time>
      </trkpt>
      <trkpt lat="47.28819" lon="-1.56851">
        <ele>4</ele>
        <time>2019-10-17T14:08:59.000Z</time>
      </trkpt>
      <trkpt lat="47.2882" lon="-1.56851">
        <ele>4</ele>
        <time>2019-10-17T14:09:00.000Z</time>
      </trkpt>
      <trkpt lat="47.28823" lon="-1.56849">
        <ele>4</ele>
        <time>2019-10-17T14:09:01.000Z</time>
      </trkpt>
      <trkpt lat="47.28824" lon="-1.56849">
        <ele>4</ele>
        <time>2019-10-17T14:09:02.000Z</time>
      </trkpt>
      <trkpt lat="47.28825" lon="-1.56849">
        <ele>4</ele>
        <time>2019-10-17T14:09:03.000Z</time>
      </trkpt>
      <trkpt lat="47.2884" lon="-1.56847">
        <ele>5</ele>
        <time>2019-10-17T14:09:04.000Z</time>
      </trkpt>
      <trkpt lat="47.28841" lon="-1.56847">
        <ele>5</ele>
        <time>2019-10-17T14:09:05.000Z</time>
      </trkpt>
      <trkpt lat="47.28841" lon="-1.56846">
        <ele>6</ele>
        <time>2019-10-17T14:09:06.000Z</time>
      </trkpt>
      <trkpt lat="47.28842" lon="-1.56847">
        <ele>6</ele>
        <time>2019-10-17T14:09:07.000Z</time>
      </trkpt>
      <trkpt lat="47.28856" lon="-1.56838">
        <ele>10</ele>
        <time>2019-10-17T14:09:08.000Z</time>
      </trkpt>
      <trkpt lat="47.28857" lon="-1.56837">
        <ele>10</ele>
        <time>2019-10-17T14:09:09.000Z</time>
      </trkpt>
      <trkpt lat="47.28858" lon="-1.56836">
        <ele>10</ele>
        <time>2019-10-17T14:09:10.000Z</time>
      </trkpt>
      <trkpt lat="47.28859" lon="-1.56835">
        <ele>10</ele>
        <time>2019-10-17T14:09:11.000Z</time>
      </trkpt>
      <trkpt lat="47.28861" lon="-1.56835">
        <ele>10</ele>
        <time>2019-10-17T14:09:12.000Z</time>
      </trkpt>
      <trkpt lat="47.28862" lon="-1.56835">
        <ele>10</ele>
        <time>2019-10-17T14:09:13.000Z</time>
      </trkpt>
      <trkpt lat="47.28864" lon="-1.56833">
        <ele>10</ele>
        <time>2019-10-17T14:09:14.000Z</time>
      </trkpt>
      <trkpt lat="47.28866" lon="-1.56832">
        <ele>11</ele>
        <time>2019-10-17T14:09:15.000Z</time>
      </trkpt>
      <trkpt lat="47.28867" lon="-1.56831">
        <ele>11</ele>
        <time>2019-10-17T14:09:16.000Z</time>
      </trkpt>
      <trkpt lat="47.28869" lon="-1.5683">
        <ele>11</ele>
        <time>2019-10-17T14:09:17.000Z</time>
      </trkpt>
      <trkpt lat="47.2887" lon="-1.56829">
        <ele>11</ele>
        <time>2019-10-17T14:09:18.000Z</time>
      </trkpt>
      <trkpt lat="47.28872" lon="-1.56828">
        <ele>11</ele>
        <time>2019-10-17T14:09:19.000Z</time>
      </trkpt>
      <trkpt lat="47.28873" lon="-1.56827">
        <ele>11</ele>
        <time>2019-10-17T14:09:20.000Z</time>
      </trkpt>
      <trkpt lat="47.28874" lon="-1.56826">
        <ele>11</ele>
        <time>2019-10-17T14:09:21.000Z</time>
      </trkpt>
      <trkpt lat="47.28876" lon="-1.56825">
        <ele>11</ele>
        <time>2019-10-17T14:09:22.000Z</time>
      </trkpt>
      <trkpt lat="47.28878" lon="-1.56823">
        <ele>12</ele>
        <time>2019-10-17T14:09:23.000Z</time>
      </trkpt>
      <trkpt lat="47.2888" lon="-1.56821">
        <ele>12</ele>
        <time>2019-10-17T14:09:24.000Z</time>
      </trkpt>
      <trkpt lat="47.28882" lon="-1.5682">
        <ele>12</ele>
        <time>2019-10-17T14:09:25.000Z</time>
      </trkpt>
      <trkpt lat="47.28884" lon="-1.56819">
        <ele>12</ele>
        <time>2019-10-17T14:09:26.000Z</time>
      </trkpt>
      <trkpt lat="47.28886" lon="-1.56818">
        <ele>12</ele>
        <time>2019-10-17T14:09:27.000Z</time>
      </trkpt>
      <trkpt lat="47.28888" lon="-1.56816">
        <ele>12</ele>
        <time>2019-10-17T14:09:28.000Z</time>
      </trkpt>
      <trkpt lat="47.28889" lon="-1.56814">
        <ele>12</ele>
        <time>2019-10-17T14:09:29.000Z</time>
      </trkpt>
      <trkpt lat="47.2889" lon="-1.56812">
        <ele>12</ele>
        <time>2019-10-17T14:09:30.000Z</time>
      </trkpt>
      <trkpt lat="47.28892" lon="-1.56809">
        <ele>13</ele>
        <time>2019-10-17T14:09:31.000Z</time>
      </trkpt>
      <trkpt lat="47.28893" lon="-1.56807">
        <ele>13</ele>
        <time>2019-10-17T14:09:32.000Z</time>
      </trkpt>
      <trkpt lat="47.28894" lon="-1.56805">
        <ele>13</ele>
        <time>2019-10-17T14:09:33.000Z</time>
      </trkpt>
      <trkpt lat="47.28895" lon="-1.56802">
        <ele>13</ele>
        <time>2019-10-17T14:09:34.000Z</time>
      </trkpt>
      <trkpt lat="47.28896" lon="-1.568">
        <ele>14</ele>
        <time>2019-10-17T14:09:35.000Z</time>
      </trkpt>
      <trkpt lat="47.28897" lon="-1.56797">
        <ele>14</ele>
        <time>2019-10-17T14:09:36.000Z</time>
      </trkpt>
      <trkpt lat="47.28898" lon="-1.56793">
        <ele>14</ele>
        <time>2019-10-17T14:09:37.000Z</time>
      </trkpt>
      <trkpt lat="47.28898" lon="-1.56791">
        <ele>15</ele>
        <time>2019-10-17T14:09:38.000Z</time>
      </trkpt>
      <trkpt lat="47.28899" lon="-1.56788">
        <ele>15</ele>
        <time>2019-10-17T14:09:39.000Z</time>
      </trkpt>
      <trkpt lat="47.289" lon="-1.56785">
        <ele>15</ele>
        <time>2019-10-17T14:09:40.000Z</time>
      </trkpt>
      <trkpt lat="47.28901" lon="-1.56782">
        <ele>16</ele>
        <time>2019-10-17T14:09:41.000Z</time>
      </trkpt>
      <trkpt lat="47.28901" lon="-1.56779">
        <ele>16</ele>
        <time>2019-10-17T14:09:42.000Z</time>
      </trkpt>
      <trkpt lat="47.28902" lon="-1.56776">
        <ele>16</ele>
        <time>2019-10-17T14:09:43.000Z</time>
      </trkpt>
      <trkpt lat="47.28903" lon="-1.56773">
        <ele>17</ele>
        <time>2019-10-17T14:09:44.000Z</time>
      </trkpt>
      <trkpt lat="47.28904" lon="-1.5677">
        <ele>17</ele>
        <time>2019-10-17T14:09:45.000Z</time>
      </trkpt>
      <trkpt lat="47.28905" lon="-1.56767">
        <ele>17</ele>
        <time>2019-10-17T14:09:46.000Z</time>
      </trkpt>
      <trkpt lat="47.28905" lon="-1.56763">
        <ele>18</ele>
        <time>2019-10-17T14:09:47.000Z</time>
      </trkpt>
      <trkpt lat="47.28906" lon="-1.5676">
        <ele>18</ele>
        <time>2019-10-17T14:09:48.000Z</time>
      </trkpt>
      <trkpt lat="47.28906" lon="-1.56757">
        <ele>19</ele>
        <time>2019-10-17T14:09:49.000Z</time>
      </trkpt>
      <trkpt lat="47.28907" lon="-1.56754">
        <ele>19</ele>
        <time>2019-10-17T14:09:50.000Z</time>
      </trkpt>
      <trkpt lat="47.28907" lon="-1.56751">
        <ele>19</ele>
        <time>2019-10-17T14:09:51.000Z</time>
      </trkpt>
      <trkpt lat="47.28907" lon="-1.56748">
        <ele>19</ele>
        <time>2019-10-17T14:09:52.000Z</time>
      </trkpt>
      <trkpt lat="47.28908" lon="-1.56746">
        <ele>20</ele>
        <time>2019-10-17T14:09:53.000Z</time>
      </trkpt>
      <trkpt lat="47.28909" lon="-1.56744">
        <ele>20</ele>
        <time>2019-10-17T14:09:54.000Z</time>
      </trkpt>
      <trkpt lat="47.2891" lon="-1.56742">
        <ele>20</ele>
        <time>2019-10-17T14:09:55.000Z</time>
      </trkpt>
      <trkpt lat="47.28911" lon="-1.5674">
        <ele>20</ele>
        <time>2019-10-17T14:09:56.000Z</time>
      </trkpt>
      <trkpt lat="47.28911" lon="-1.56738">
        <ele>20</ele>
        <time>2019-10-17T14:09:57.000Z</time>
      </trkpt>
      <trkpt lat="47.28912" lon="-1.56735">
        <ele>21</ele>
        <time>2019-10-17T14:09:58.000Z</time>
      </trkpt>
      <trkpt lat="47.28913" lon="-1.56732">
        <ele>21</ele>
        <time>2019-10-17T14:09:59.000Z</time>
      </trkpt>
      <trkpt lat="47.28914" lon="-1.5673">
        <ele>21</ele>
        <time>2019-10-17T14:10:00.000Z</time>
      </trkpt>
      <trkpt lat="47.28915" lon="-1.56727">
        <ele>21</ele>
        <time>2019-10-17T14:10:01.000Z</time>
      </trkpt>
      <trkpt lat="47.28915" lon="-1.56724">
        <ele>21</ele>
        <time>2019-10-17T14:10:02.000Z</time>
      </trkpt>
      <trkpt lat="47.28916" lon="-1.56721">
        <ele>21</ele>
        <time>2019-10-17T14:10:03.000Z</time>
      </trkpt>
      <trkpt lat="47.28916" lon="-1.56718">
        <ele>21</ele>
        <time>2019-10-17T14:10:04.000Z</time>
      </trkpt>
      <trkpt lat="47.28916" lon="-1.56714">
        <ele>21</ele>
        <time>2019-10-17T14:10:05.000Z</time>
      </trkpt>
      <trkpt lat="47.28916" lon="-1.56711">
        <ele>21</ele>
        <time>2019-10-17T14:10:06.000Z</time>
      </trkpt>
      <trkpt lat="47.28917" lon="-1.56708">
        <ele>21</ele>
        <time>2019-10-17T14:10:07.000Z</time>
      </trkpt>
      <trkpt lat="47.28918" lon="-1.56706">
        <ele>21</ele>
        <time>2019-10-17T14:10:08.000Z</time>
      </trkpt>
      <trkpt lat="47.28919" lon="-1.56704">
        <ele>21</ele>
        <time>2019-10-17T14:10:09.000Z</time>
      </trkpt>
      <trkpt lat="47.28919" lon="-1.56701">
        <ele>21</ele>
        <time>2019-10-17T14:10:10.000Z</time>
      </trkpt>
      <trkpt lat="47.28921" lon="-1.56697">
        <ele>21</ele>
        <time>2019-10-17T14:10:11.000Z</time>
      </trkpt>
      <trkpt lat="47.28921" lon="-1.56693">
        <ele>21</ele>
        <time>2019-10-17T14:10:12.000Z</time>
      </trkpt>
      <trkpt lat="47.28922" lon="-1.5669">
        <ele>21</ele>
        <time>2019-10-17T14:10:13.000Z</time>
      </trkpt>
      <trkpt lat="47.28923" lon="-1.56687">
        <ele>21</ele>
        <time>2019-10-17T14:10:14.000Z</time>
      </trkpt>
      <trkpt lat="47.28924" lon="-1.56684">
        <ele>22</ele>
        <time>2019-10-17T14:10:15.000Z</time>
      </trkpt>
      <trkpt lat="47.28925" lon="-1.56682">
        <ele>22</ele>
        <time>2019-10-17T14:10:16.000Z</time>
      </trkpt>
      <trkpt lat="47.28926" lon="-1.5668">
        <ele>22</ele>
        <time>2019-10-17T14:10:17.000Z</time>
      </trkpt>
      <trkpt lat="47.28928" lon="-1.56677">
        <ele>22</ele>
        <time>2019-10-17T14:10:18.000Z</time>
      </trkpt>
      <trkpt lat="47.2893" lon="-1.56675">
        <ele>23</ele>
        <time>2019-10-17T14:10:19.000Z</time>
      </trkpt>
      <trkpt lat="47.28932" lon="-1.56672">
        <ele>23</ele>
        <time>2019-10-17T14:10:20.000Z</time>
      </trkpt>
      <trkpt lat="47.28933" lon="-1.5667">
        <ele>23</ele>
        <time>2019-10-17T14:10:21.000Z</time>
      </trkpt>
      <trkpt lat="47.28934" lon="-1.56667">
        <ele>23</ele>
        <time>2019-10-17T14:10:22.000Z</time>
      </trkpt>
      <trkpt lat="47.28935" lon="-1.56664">
        <ele>24</ele>
        <time>2019-10-17T14:10:23.000Z</time>
      </trkpt>
      <trkpt lat="47.28935" lon="-1.56661">
        <ele>24</ele>
        <time>2019-10-17T14:10:24.000Z</time>
      </trkpt>
      <trkpt lat="47.28935" lon="-1.56657">
        <ele>24</ele>
        <time>2019-10-17T14:10:25.000Z</time>
      </trkpt>
      <trkpt lat="47.28935" lon="-1.56653">
        <ele>24</ele>
        <time>2019-10-17T14:10:26.000Z</time>
      </trkpt>
      <trkpt lat="47.28936" lon="-1.56649">
        <ele>24</ele>
        <time>2019-10-17T14:10:27.000Z</time>
      </trkpt>
      <trkpt lat="47.28937" lon="-1.56645">
        <ele>24</ele>
        <time>2019-10-17T14:10:28.000Z</time>
      </trkpt>
      <trkpt lat="47.28937" lon="-1.56641">
        <ele>24</ele>
        <time>2019-10-17T14:10:29.000Z</time>
      </trkpt>
      <trkpt lat="47.28938" lon="-1.56636">
        <ele>24</ele>
        <time>2019-10-17T14:10:30.000Z</time>
      </trkpt>
      <trkpt lat="47.2894" lon="-1.56633">
        <ele>24</ele>
        <time>2019-10-17T14:10:31.000Z</time>
      </trkpt>
      <trkpt lat="47.28942" lon="-1.5663">
        <ele>24</ele>
        <time>2019-10-17T14:10:32.000Z</time>
      </trkpt>
      <trkpt lat="47.28944" lon="-1.56628">
        <ele>24</ele>
        <time>2019-10-17T14:10:33.000Z</time>
      </trkpt>
      <trkpt lat="47.28946" lon="-1.56625">
        <ele>24</ele>
        <time>2019-10-17T14:10:34.000Z</time>
      </trkpt>
      <trkpt lat="47.28947" lon="-1.56622">
        <ele>23</ele>
        <time>2019-10-17T14:10:35.000Z</time>
      </trkpt>
      <trkpt lat="47.28948" lon="-1.5662">
        <ele>23</ele>
        <time>2019-10-17T14:10:36.000Z</time>
      </trkpt>
      <trkpt lat="47.28949" lon="-1.56618">
        <ele>23</ele>
        <time>2019-10-17T14:10:37.000Z</time>
      </trkpt>
      <trkpt lat="47.2895" lon="-1.56616">
        <ele>22</ele>
        <time>2019-10-17T14:10:38.000Z</time>
      </trkpt>
      <trkpt lat="47.2895" lon="-1.56615">
        <ele>22</ele>
        <time>2019-10-17T14:10:39.000Z</time>
      </trkpt>
      <trkpt lat="47.28951" lon="-1.56614">
        <ele>22</ele>
        <time>2019-10-17T14:10:40.000Z</time>
      </trkpt>
      <trkpt lat="47.28951" lon="-1.56613">
        <ele>22</ele>
        <time>2019-10-17T14:10:41.000Z</time>
      </trkpt>
      <trkpt lat="47.28952" lon="-1.56612">
        <ele>22</ele>
        <time>2019-10-17T14:10:42.000Z</time>
      </trkpt>
      <trkpt lat="47.28953" lon="-1.56611">
        <ele>22</ele>
        <time>2019-10-17T14:10:43.000Z</time>
      </trkpt>
      <trkpt lat="47.28954" lon="-1.5661">
        <ele>21</ele>
        <time>2019-10-17T14:10:44.000Z</time>
      </trkpt>
      <trkpt lat="47.28955" lon="-1.5661">
        <ele>21</ele>
        <time>2019-10-17T14:10:45.000Z</time>
      </trkpt>
      <trkpt lat="47.28956" lon="-1.56609">
        <ele>21</ele>
        <time>2019-10-17T14:10:46.000Z</time>
      </trkpt>
      <trkpt lat="47.28957" lon="-1.56608">
        <ele>21</ele>
        <time>2019-10-17T14:10:47.000Z</time>
      </trkpt>
      <trkpt lat="47.28958" lon="-1.56606">
        <ele>21</ele>
        <time>2019-10-17T14:10:48.000Z</time>
      </trkpt>
      <trkpt lat="47.2896" lon="-1.56604">
        <ele>21</ele>
        <time>2019-10-17T14:10:49.000Z</time>
      </trkpt>
      <trkpt lat="47.28961" lon="-1.56602">
        <ele>21</ele>
        <time>2019-10-17T14:10:50.000Z</time>
      </trkpt>
      <trkpt lat="47.28963" lon="-1.56602">
        <ele>20</ele>
        <time>2019-10-17T14:10:51.000Z</time>
      </trkpt>
      <trkpt lat="47.28965" lon="-1.56601">
        <ele>20</ele>
        <time>2019-10-17T14:10:52.000Z</time>
      </trkpt>
      <trkpt lat="47.28967" lon="-1.566">
        <ele>20</ele>
        <time>2019-10-17T14:10:53.000Z</time>
      </trkpt>
      <trkpt lat="47.28969" lon="-1.566">
        <ele>20</ele>
        <time>2019-10-17T14:10:54.000Z</time>
      </trkpt>
      <trkpt lat="47.28971" lon="-1.566">
        <ele>20</ele>
        <time>2019-10-17T14:10:55.000Z</time>
      </trkpt>
      <trkpt lat="47.28973" lon="-1.56599">
        <ele>20</ele>
        <time>2019-10-17T14:10:56.000Z</time>
      </trkpt>
      <trkpt lat="47.28974" lon="-1.56598">
        <ele>20</ele>
        <time>2019-10-17T14:10:57.000Z</time>
      </trkpt>
      <trkpt lat="47.28975" lon="-1.56598">
        <ele>20</ele>
        <time>2019-10-17T14:10:58.000Z</time>
      </trkpt>
      <trkpt lat="47.28977" lon="-1.56598">
        <ele>20</ele>
        <time>2019-10-17T14:10:59.000Z</time>
      </trkpt>
      <trkpt lat="47.28978" lon="-1.56598">
        <ele>19</ele>
        <time>2019-10-17T14:11:00.000Z</time>
      </trkpt>
      <trkpt lat="47.28979" lon="-1.566">
        <ele>19</ele>
        <time>2019-10-17T14:11:01.000Z</time>
      </trkpt>
      <trkpt lat="47.28981" lon="-1.56601">
        <ele>19</ele>
        <time>2019-10-17T14:11:02.000Z</time>
      </trkpt>
      <trkpt lat="47.28982" lon="-1.56601">
        <ele>19</ele>
        <time>2019-10-17T14:11:03.000Z</time>
      </trkpt>
      <trkpt lat="47.28984" lon="-1.56601">
        <ele>19</ele>
        <time>2019-10-17T14:11:04.000Z</time>
      </trkpt>
      <trkpt lat="47.28986" lon="-1.56601">
        <ele>19</ele>
        <time>2019-10-17T14:11:05.000Z</time>
      </trkpt>
      <trkpt lat="47.28988" lon="-1.56603">
        <ele>19</ele>
        <time>2019-10-17T14:11:06.000Z</time>
      </trkpt>
      <trkpt lat="47.2899" lon="-1.56605">
        <ele>18</ele>
        <time>2019-10-17T14:11:07.000Z</time>
      </trkpt>
      <trkpt lat="47.28993" lon="-1.56608">
        <ele>18</ele>
        <time>2019-10-17T14:11:08.000Z</time>
      </trkpt>
      <trkpt lat="47.28995" lon="-1.56611">
        <ele>18</ele>
        <time>2019-10-17T14:11:09.000Z</time>
      </trkpt>
      <trkpt lat="47.28997" lon="-1.56614">
        <ele>18</ele>
        <time>2019-10-17T14:11:10.000Z</time>
      </trkpt>
      <trkpt lat="47.28999" lon="-1.56617">
        <ele>18</ele>
        <time>2019-10-17T14:11:11.000Z</time>
      </trkpt>
      <trkpt lat="47.29001" lon="-1.5662">
        <ele>18</ele>
        <time>2019-10-17T14:11:12.000Z</time>
      </trkpt>
      <trkpt lat="47.29003" lon="-1.56623">
        <ele>18</ele>
        <time>2019-10-17T14:11:13.000Z</time>
      </trkpt>
      <trkpt lat="47.29005" lon="-1.56626">
        <ele>18</ele>
        <time>2019-10-17T14:11:14.000Z</time>
      </trkpt>
      <trkpt lat="47.29007" lon="-1.56629">
        <ele>18</ele>
        <time>2019-10-17T14:11:15.000Z</time>
      </trkpt>
      <trkpt lat="47.29009" lon="-1.56633">
        <ele>18</ele>
        <time>2019-10-17T14:11:16.000Z</time>
      </trkpt>
      <trkpt lat="47.29011" lon="-1.56636">
        <ele>17</ele>
        <time>2019-10-17T14:11:17.000Z</time>
      </trkpt>
      <trkpt lat="47.29013" lon="-1.56639">
        <ele>17</ele>
        <time>2019-10-17T14:11:18.000Z</time>
      </trkpt>
      <trkpt lat="47.29015" lon="-1.56642">
        <ele>17</ele>
        <time>2019-10-17T14:11:19.000Z</time>
      </trkpt>
      <trkpt lat="47.29017" lon="-1.56646">
        <ele>17</ele>
        <time>2019-10-17T14:11:20.000Z</time>
      </trkpt>
      <trkpt lat="47.29019" lon="-1.56649">
        <ele>17</ele>
        <time>2019-10-17T14:11:21.000Z</time>
      </trkpt>
      <trkpt lat="47.2902" lon="-1.56653">
        <ele>17</ele>
        <time>2019-10-17T14:11:22.000Z</time>
      </trkpt>
      <trkpt lat="47.29022" lon="-1.56656">
        <ele>17</ele>
        <time>2019-10-17T14:11:23.000Z</time>
      </trkpt>
      <trkpt lat="47.29023" lon="-1.56659">
        <ele>17</ele>
        <time>2019-10-17T14:11:24.000Z</time>
      </trkpt>
      <trkpt lat="47.29024" lon="-1.56663">
        <ele>17</ele>
        <time>2019-10-17T14:11:25.000Z</time>
      </trkpt>
      <trkpt lat="47.29025" lon="-1.56666">
        <ele>17</ele>
        <time>2019-10-17T14:11:26.000Z</time>
      </trkpt>
      <trkpt lat="47.29026" lon="-1.56668">
        <ele>17</ele>
        <time>2019-10-17T14:11:27.000Z</time>
      </trkpt>
      <trkpt lat="47.29027" lon="-1.56671">
        <ele>17</ele>
        <time>2019-10-17T14:11:28.000Z</time>
      </trkpt>
      <trkpt lat="47.29028" lon="-1.56674">
        <ele>17</ele>
        <time>2019-10-17T14:11:29.000Z</time>
      </trkpt>
      <trkpt lat="47.2903" lon="-1.56677">
        <ele>17</ele>
        <time>2019-10-17T14:11:30.000Z</time>
      </trkpt>
      <trkpt lat="47.29031" lon="-1.56679">
        <ele>17</ele>
        <time>2019-10-17T14:11:31.000Z</time>
      </trkpt>
      <trkpt lat="47.29032" lon="-1.56681">
        <ele>17</ele>
        <time>2019-10-17T14:11:32.000Z</time>
      </trkpt>
      <trkpt lat="47.29034" lon="-1.56684">
        <ele>17</ele>
        <time>2019-10-17T14:11:33.000Z</time>
      </trkpt>
      <trkpt lat="47.29036" lon="-1.56687">
        <ele>17</ele>
        <time>2019-10-17T14:11:34.000Z</time>
      </trkpt>
      <trkpt lat="47.29036" lon="-1.5669">
        <ele>17</ele>
        <time>2019-10-17T14:11:35.000Z</time>
      </trkpt>
      <trkpt lat="47.29037" lon="-1.56693">
        <ele>17</ele>
        <time>2019-10-17T14:11:36.000Z</time>
      </trkpt>
      <trkpt lat="47.29038" lon="-1.56695">
        <ele>16</ele>
        <time>2019-10-17T14:11:37.000Z</time>
      </trkpt>
      <trkpt lat="47.29038" lon="-1.56698">
        <ele>16</ele>
        <time>2019-10-17T14:11:38.000Z</time>
      </trkpt>
      <trkpt lat="47.29039" lon="-1.56702">
        <ele>16</ele>
        <time>2019-10-17T14:11:39.000Z</time>
      </trkpt>
      <trkpt lat="47.29041" lon="-1.56705">
        <ele>16</ele>
        <time>2019-10-17T14:11:40.000Z</time>
      </trkpt>
      <trkpt lat="47.29041" lon="-1.56708">
        <ele>16</ele>
        <time>2019-10-17T14:11:41.000Z</time>
      </trkpt>
      <trkpt lat="47.29042" lon="-1.56709">
        <ele>16</ele>
        <time>2019-10-17T14:11:42.000Z</time>
      </trkpt>
      <trkpt lat="47.29043" lon="-1.56711">
        <ele>16</ele>
        <time>2019-10-17T14:11:43.000Z</time>
      </trkpt>
      <trkpt lat="47.29044" lon="-1.56713">
        <ele>15</ele>
        <time>2019-10-17T14:11:44.000Z</time>
      </trkpt>
      <trkpt lat="47.29045" lon="-1.56714">
        <ele>15</ele>
        <time>2019-10-17T14:11:45.000Z</time>
      </trkpt>
      <trkpt lat="47.29045" lon="-1.56716">
        <ele>15</ele>
        <time>2019-10-17T14:11:46.000Z</time>
      </trkpt>
      <trkpt lat="47.29046" lon="-1.56719">
        <ele>15</ele>
        <time>2019-10-17T14:11:47.000Z</time>
      </trkpt>
      <trkpt lat="47.29047" lon="-1.56721">
        <ele>15</ele>
        <time>2019-10-17T14:11:48.000Z</time>
      </trkpt>
      <trkpt lat="47.29048" lon="-1.56724">
        <ele>15</ele>
        <time>2019-10-17T14:11:49.000Z</time>
      </trkpt>
      <trkpt lat="47.29048" lon="-1.56726">
        <ele>15</ele>
        <time>2019-10-17T14:11:50.000Z</time>
      </trkpt>
      <trkpt lat="47.29049" lon="-1.56728">
        <ele>15</ele>
        <time>2019-10-17T14:11:51.000Z</time>
      </trkpt>
      <trkpt lat="47.29049" lon="-1.56729">
        <ele>15</ele>
        <time>2019-10-17T14:11:52.000Z</time>
      </trkpt>
      <trkpt lat="47.2905" lon="-1.5673">
        <ele>15</ele>
        <time>2019-10-17T14:11:53.000Z</time>
      </trkpt>
      <trkpt lat="47.2905" lon="-1.56731">
        <ele>15</ele>
        <time>2019-10-17T14:11:54.000Z</time>
      </trkpt>
      <trkpt lat="47.2905" lon="-1.56733">
        <ele>15</ele>
        <time>2019-10-17T14:11:55.000Z</time>
      </trkpt>
      <trkpt lat="47.29051" lon="-1.56734">
        <ele>15</ele>
        <time>2019-10-17T14:11:56.000Z</time>
      </trkpt>
      <trkpt lat="47.29051" lon="-1.56736">
        <ele>15</ele>
        <time>2019-10-17T14:11:57.000Z</time>
      </trkpt>
      <trkpt lat="47.29051" lon="-1.56737">
        <ele>15</ele>
        <time>2019-10-17T14:11:58.000Z</time>
      </trkpt>
      <trkpt lat="47.29052" lon="-1.56739">
        <ele>15</ele>
        <time>2019-10-17T14:11:59.000Z</time>
      </trkpt>
      <trkpt lat="47.29052" lon="-1.5674">
        <ele>15</ele>
        <time>2019-10-17T14:12:00.000Z</time>
      </trkpt>
      <trkpt lat="47.29052" lon="-1.56741">
        <ele>15</ele>
        <time>2019-10-17T14:12:01.000Z</time>
      </trkpt>
      <trkpt lat="47.29052" lon="-1.56742">
        <ele>15</ele>
        <time>2019-10-17T14:12:02.000Z</time>
      </trkpt>
      <trkpt lat="47.29053" lon="-1.56744">
        <ele>15</ele>
        <time>2019-10-17T14:12:03.000Z</time>
      </trkpt>
      <trkpt lat="47.29053" lon="-1.56745">
        <ele>14</ele>
        <time>2019-10-17T14:12:04.000Z</time>
      </trkpt>
      <trkpt lat="47.29054" lon="-1.56746">
        <ele>14</ele>
        <time>2019-10-17T14:12:05.000Z</time>
      </trkpt>
      <trkpt lat="47.29054" lon="-1.56748">
        <ele>14</ele>
        <time>2019-10-17T14:12:06.000Z</time>
      </trkpt>
      <trkpt lat="47.29055" lon="-1.5675">
        <ele>14</ele>
        <time>2019-10-17T14:12:07.000Z</time>
      </trkpt>
      <trkpt lat="47.29055" lon="-1.56751">
        <ele>14</ele>
        <time>2019-10-17T14:12:08.000Z</time>
      </trkpt>
      <trkpt lat="47.29055" lon="-1.56752">
        <ele>14</ele>
        <time>2019-10-17T14:12:09.000Z</time>
      </trkpt>
      <trkpt lat="47.29055" lon="-1.56753">
        <ele>13</ele>
        <time>2019-10-17T14:12:10.000Z</time>
      </trkpt>
      <trkpt lat="47.29056" lon="-1.56753">
        <ele>13</ele>
        <time>2019-10-17T14:12:11.000Z</time>
      </trkpt>
      <trkpt lat="47.29056" lon="-1.56753">
        <ele>13</ele>
        <time>2019-10-17T14:12:12.000Z</time>
      </trkpt>
      <trkpt lat="47.29056" lon="-1.56753">
        <ele>13</ele>
        <time>2019-10-17T14:12:13.000Z</time>
      </trkpt>
      <trkpt lat="47.29056" lon="-1.56755">
        <ele>13</ele>
        <time>2019-10-17T14:12:14.000Z</time>
      </trkpt>
      <trkpt lat="47.29057" lon="-1.56757">
        <ele>12</ele>
        <time>2019-10-17T14:12:15.000Z</time>
      </trkpt>
      <trkpt lat="47.29057" lon="-1.56759">
        <ele>12</ele>
        <time>2019-10-17T14:12:16.000Z</time>
      </trkpt>
      <trkpt lat="47.29057" lon="-1.56761">
        <ele>12</ele>
        <time>2019-10-17T14:12:17.000Z</time>
      </trkpt>
      <trkpt lat="47.29057" lon="-1.56763">
        <ele>12</ele>
        <time>2019-10-17T14:12:18.000Z</time>
      </trkpt>
      <trkpt lat="47.29057" lon="-1.56765">
        <ele>12</ele>
        <time>2019-10-17T14:12:19.000Z</time>
      </trkpt>
      <trkpt lat="47.29057" lon="-1.56766">
        <ele>12</ele>
        <time>2019-10-17T14:12:20.000Z</time>
      </trkpt>
      <trkpt lat="47.29058" lon="-1.56769">
        <ele>12</ele>
        <time>2019-10-17T14:12:21.000Z</time>
      </trkpt>
      <trkpt lat="47.29058" lon="-1.56771">
        <ele>12</ele>
        <time>2019-10-17T14:12:22.000Z</time>
      </trkpt>
      <trkpt lat="47.29059" lon="-1.56773">
        <ele>11</ele>
        <time>2019-10-17T14:12:23.000Z</time>
      </trkpt>
      <trkpt lat="47.29059" lon="-1.56776">
        <ele>11</ele>
        <time>2019-10-17T14:12:24.000Z</time>
      </trkpt>
      <trkpt lat="47.29061" lon="-1.56779">
        <ele>11</ele>
        <time>2019-10-17T14:12:25.000Z</time>
      </trkpt>
      <trkpt lat="47.29062" lon="-1.56781">
        <ele>11</ele>
        <time>2019-10-17T14:12:26.000Z</time>
      </trkpt>
      <trkpt lat="47.29064" lon="-1.56782">
        <ele>11</ele>
        <time>2019-10-17T14:12:27.000Z</time>
      </trkpt>
      <trkpt lat="47.29067" lon="-1.56783">
        <ele>11</ele>
        <time>2019-10-17T14:12:28.000Z</time>
      </trkpt>
      <trkpt lat="47.29069" lon="-1.56786">
        <ele>11</ele>
        <time>2019-10-17T14:12:29.000Z</time>
      </trkpt>
      <trkpt lat="47.29072" lon="-1.56788">
        <ele>11</ele>
        <time>2019-10-17T14:12:30.000Z</time>
      </trkpt>
      <trkpt lat="47.29075" lon="-1.56791">
        <ele>11</ele>
        <time>2019-10-17T14:12:31.000Z</time>
      </trkpt>
      <trkpt lat="47.29077" lon="-1.56794">
        <ele>11</ele>
        <time>2019-10-17T14:12:32.000Z</time>
      </trkpt>
      <trkpt lat="47.29079" lon="-1.56796">
        <ele>11</ele>
        <time>2019-10-17T14:12:33.000Z</time>
      </trkpt>
      <trkpt lat="47.29081" lon="-1.56798">
        <ele>11</ele>
        <time>2019-10-17T14:12:34.000Z</time>
      </trkpt>
      <trkpt lat="47.29083" lon="-1.568">
        <ele>11</ele>
        <time>2019-10-17T14:12:35.000Z</time>
      </trkpt>
      <trkpt lat="47.29086" lon="-1.56801">
        <ele>11</ele>
        <time>2019-10-17T14:12:36.000Z</time>
      </trkpt>
      <trkpt lat="47.29089" lon="-1.56802">
        <ele>11</ele>
        <time>2019-10-17T14:12:37.000Z</time>
      </trkpt>
      <trkpt lat="47.29093" lon="-1.56801">
        <ele>11</ele>
        <time>2019-10-17T14:12:38.000Z</time>
      </trkpt>
      <trkpt lat="47.29097" lon="-1.56802">
        <ele>11</ele>
        <time>2019-10-17T14:12:39.000Z</time>
      </trkpt>
      <trkpt lat="47.29102" lon="-1.56803">
        <ele>11</ele>
        <time>2019-10-17T14:12:40.000Z</time>
      </trkpt>
      <trkpt lat="47.29106" lon="-1.56804">
        <ele>11</ele>
        <time>2019-10-17T14:12:41.000Z</time>
      </trkpt>
      <trkpt lat="47.29109" lon="-1.56805">
        <ele>10</ele>
        <time>2019-10-17T14:12:42.000Z</time>
      </trkpt>
      <trkpt lat="47.29112" lon="-1.56806">
        <ele>10</ele>
        <time>2019-10-17T14:12:43.000Z</time>
      </trkpt>
      <trkpt lat="47.29114" lon="-1.56807">
        <ele>10</ele>
        <time>2019-10-17T14:12:44.000Z</time>
      </trkpt>
      <trkpt lat="47.29117" lon="-1.56808">
        <ele>10</ele>
        <time>2019-10-17T14:12:45.000Z</time>
      </trkpt>
      <trkpt lat="47.29119" lon="-1.56809">
        <ele>10</ele>
        <time>2019-10-17T14:12:46.000Z</time>
      </trkpt>
      <trkpt lat="47.29122" lon="-1.56811">
        <ele>10</ele>
        <time>2019-10-17T14:12:47.000Z</time>
      </trkpt>
      <trkpt lat="47.29124" lon="-1.56812">
        <ele>10</ele>
        <time>2019-10-17T14:12:48.000Z</time>
      </trkpt>
      <trkpt lat="47.29126" lon="-1.56813">
        <ele>10</ele>
        <time>2019-10-17T14:12:49.000Z</time>
      </trkpt>
      <trkpt lat="47.29128" lon="-1.56814">
        <ele>10</ele>
        <time>2019-10-17T14:12:50.000Z</time>
      </trkpt>
      <trkpt lat="47.29131" lon="-1.56815">
        <ele>10</ele>
        <time>2019-10-17T14:12:51.000Z</time>
      </trkpt>
      <trkpt lat="47.29133" lon="-1.56816">
        <ele>10</ele>
        <time>2019-10-17T14:12:52.000Z</time>
      </trkpt>
      <trkpt lat="47.29135" lon="-1.56817">
        <ele>10</ele>
        <time>2019-10-17T14:12:53.000Z</time>
      </trkpt>
      <trkpt lat="47.29137" lon="-1.56816">
        <ele>10</ele>
        <time>2019-10-17T14:12:54.000Z</time>
      </trkpt>
      <trkpt lat="47.29139" lon="-1.56816">
        <ele>10</ele>
        <time>2019-10-17T14:12:55.000Z</time>
      </trkpt>
      <trkpt lat="47.29141" lon="-1.56817">
        <ele>10</ele>
        <time>2019-10-17T14:12:56.000Z</time>
      </trkpt>
      <trkpt lat="47.29142" lon="-1.56817">
        <ele>10</ele>
        <time>2019-10-17T14:12:57.000Z</time>
      </trkpt>
      <trkpt lat="47.29144" lon="-1.56817">
        <ele>10</ele>
        <time>2019-10-17T14:12:58.000Z</time>
      </trkpt>
      <trkpt lat="47.29146" lon="-1.56817">
        <ele>10</ele>
        <time>2019-10-17T14:12:59.000Z</time>
      </trkpt>
      <trkpt lat="47.29148" lon="-1.56817">
        <ele>10</ele>
        <time>2019-10-17T14:13:00.000Z</time>
      </trkpt>
      <trkpt lat="47.29151" lon="-1.56815">
        <ele>10</ele>
        <time>2019-10-17T14:13:01.000Z</time>
      </trkpt>
      <trkpt lat="47.29154" lon="-1.56815">
        <ele>10</ele>
        <time>2019-10-17T14:13:02.000Z</time>
      </trkpt>
      <trkpt lat="47.29156" lon="-1.56814">
        <ele>10</ele>
        <time>2019-10-17T14:13:03.000Z</time>
      </trkpt>
      <trkpt lat="47.29159" lon="-1.56812">
        <ele>10</ele>
        <time>2019-10-17T14:13:04.000Z</time>
      </trkpt>
      <trkpt lat="47.29162" lon="-1.5681">
        <ele>10</ele>
        <time>2019-10-17T14:13:05.000Z</time>
      </trkpt>
      <trkpt lat="47.29166" lon="-1.56808">
        <ele>10</ele>
        <time>2019-10-17T14:13:06.000Z</time>
      </trkpt>
      <trkpt lat="47.29169" lon="-1.56804">
        <ele>10</ele>
        <time>2019-10-17T14:13:07.000Z</time>
      </trkpt>
      <trkpt lat="47.29173" lon="-1.56801">
        <ele>10</ele>
        <time>2019-10-17T14:13:08.000Z</time>
      </trkpt>
      <trkpt lat="47.29176" lon="-1.56797">
        <ele>10</ele>
        <time>2019-10-17T14:13:09.000Z</time>
      </trkpt>
      <trkpt lat="47.2918" lon="-1.56794">
        <ele>10</ele>
        <time>2019-10-17T14:13:10.000Z</time>
      </trkpt>
      <trkpt lat="47.29184" lon="-1.56792">
        <ele>10</ele>
        <time>2019-10-17T14:13:11.000Z</time>
      </trkpt>
      <trkpt lat="47.29188" lon="-1.5679">
        <ele>10</ele>
        <time>2019-10-17T14:13:12.000Z</time>
      </trkpt>
      <trkpt lat="47.29192" lon="-1.56788">
        <ele>10</ele>
        <time>2019-10-17T14:13:13.000Z</time>
      </trkpt>
      <trkpt lat="47.29195" lon="-1.56786">
        <ele>10</ele>
        <time>2019-10-17T14:13:14.000Z</time>
      </trkpt>
      <trkpt lat="47.29198" lon="-1.56786">
        <ele>10</ele>
        <time>2019-10-17T14:13:15.000Z</time>
      </trkpt>
      <trkpt lat="47.292" lon="-1.56786">
        <ele>10</ele>
        <time>2019-10-17T14:13:16.000Z</time>
      </trkpt>
      <trkpt lat="47.29203" lon="-1.56786">
        <ele>10</ele>
        <time>2019-10-17T14:13:17.000Z</time>
      </trkpt>
      <trkpt lat="47.29205" lon="-1.56787">
        <ele>10</ele>
        <time>2019-10-17T14:13:18.000Z</time>
      </trkpt>
      <trkpt lat="47.29206" lon="-1.56786">
        <ele>10</ele>
        <time>2019-10-17T14:13:19.000Z</time>
      </trkpt>
      <trkpt lat="47.29208" lon="-1.56785">
        <ele>10</ele>
        <time>2019-10-17T14:13:20.000Z</time>
      </trkpt>
      <trkpt lat="47.2921" lon="-1.56784">
        <ele>10</ele>
        <time>2019-10-17T14:13:21.000Z</time>
      </trkpt>
      <trkpt lat="47.29212" lon="-1.56783">
        <ele>10</ele>
        <time>2019-10-17T14:13:22.000Z</time>
      </trkpt>
      <trkpt lat="47.29214" lon="-1.56781">
        <ele>10</ele>
        <time>2019-10-17T14:13:23.000Z</time>
      </trkpt>
      <trkpt lat="47.29217" lon="-1.5678">
        <ele>10</ele>
        <time>2019-10-17T14:13:24.000Z</time>
      </trkpt>
      <trkpt lat="47.29219" lon="-1.56779">
        <ele>10</ele>
        <time>2019-10-17T14:13:25.000Z</time>
      </trkpt>
      <trkpt lat="47.29221" lon="-1.56778">
        <ele>10</ele>
        <time>2019-10-17T14:13:26.000Z</time>
      </trkpt>
      <trkpt lat="47.29223" lon="-1.56778">
        <ele>10</ele>
        <time>2019-10-17T14:13:27.000Z</time>
      </trkpt>
      <trkpt lat="47.29225" lon="-1.56778">
        <ele>10</ele>
        <time>2019-10-17T14:13:28.000Z</time>
      </trkpt>
      <trkpt lat="47.29226" lon="-1.56778">
        <ele>11</ele>
        <time>2019-10-17T14:13:29.000Z</time>
      </trkpt>
      <trkpt lat="47.29227" lon="-1.56778">
        <ele>11</ele>
        <time>2019-10-17T14:13:30.000Z</time>
      </trkpt>
      <trkpt lat="47.29228" lon="-1.56778">
        <ele>11</ele>
        <time>2019-10-17T14:13:31.000Z</time>
      </trkpt>
      <trkpt lat="47.29229" lon="-1.56778">
        <ele>11</ele>
        <time>2019-10-17T14:13:32.000Z</time>
      </trkpt>
      <trkpt lat="47.29229" lon="-1.56778">
        <ele>11</ele>
        <time>2019-10-17T14:13:33.000Z</time>
      </trkpt>
      <trkpt lat="47.29245" lon="-1.56777">
        <ele>15</ele>
        <time>2019-10-17T14:13:34.000Z</time>
      </trkpt>
      <trkpt lat="47.29246" lon="-1.56777">
        <ele>15</ele>
        <time>2019-10-17T14:13:35.000Z</time>
      </trkpt>
      <trkpt lat="47.29248" lon="-1.56778">
        <ele>15</ele>
        <time>2019-10-17T14:13:36.000Z</time>
      </trkpt>
      <trkpt lat="47.29249" lon="-1.56778">
        <ele>15</ele>
        <time>2019-10-17T14:13:37.000Z</time>
      </trkpt>
      <trkpt lat="47.2925" lon="-1.56778">
        <ele>15</ele>
        <time>2019-10-17T14:13:38.000Z</time>
      </trkpt>
      <trkpt lat="47.29251" lon="-1.56778">
        <ele>15</ele>
        <time>2019-10-17T14:13:39.000Z</time>
      </trkpt>
      <trkpt lat="47.29251" lon="-1.56778">
        <ele>15</ele>
        <time>2019-10-17T14:13:40.000Z</time>
      </trkpt>
      <trkpt lat="47.29262" lon="-1.56773">
        <ele>23</ele>
        <time>2019-10-17T14:13:41.000Z</time>
      </trkpt>
      <trkpt lat="47.29262" lon="-1.56776">
        <ele>23</ele>
        <time>2019-10-17T14:13:42.000Z</time>
      </trkpt>
      <trkpt lat="47.29263" lon="-1.56778">
        <ele>23</ele>
        <time>2019-10-17T14:13:43.000Z</time>
      </trkpt>
      <trkpt lat="47.29263" lon="-1.56781">
        <ele>23</ele>
        <time>2019-10-17T14:13:44.000Z</time>
      </trkpt>
      <trkpt lat="47.29264" lon="-1.56784">
        <ele>23</ele>
        <time>2019-10-17T14:13:45.000Z</time>
      </trkpt>
      <trkpt lat="47.29264" lon="-1.56787">
        <ele>23</ele>
        <time>2019-10-17T14:13:46.000Z</time>
      </trkpt>
      <trkpt lat="47.29264" lon="-1.56791">
        <ele>23</ele>
        <time>2019-10-17T14:13:47.000Z</time>
      </trkpt>
      <trkpt lat="47.29265" lon="-1.56794">
        <ele>23</ele>
        <time>2019-10-17T14:13:48.000Z</time>
      </trkpt>
      <trkpt lat="47.29265" lon="-1.56798">
        <ele>22</ele>
        <time>2019-10-17T14:13:49.000Z</time>
      </trkpt>
      <trkpt lat="47.29266" lon="-1.56801">
        <ele>22</ele>
        <time>2019-10-17T14:13:50.000Z</time>
      </trkpt>
      <trkpt lat="47.29266" lon="-1.56804">
        <ele>22</ele>
        <time>2019-10-17T14:13:51.000Z</time>
      </trkpt>
      <trkpt lat="47.29266" lon="-1.56807">
        <ele>21</ele>
        <time>2019-10-17T14:13:52.000Z</time>
      </trkpt>
      <trkpt lat="47.29267" lon="-1.5681">
        <ele>21</ele>
        <time>2019-10-17T14:13:53.000Z</time>
      </trkpt>
      <trkpt lat="47.29267" lon="-1.56812">
        <ele>21</ele>
        <time>2019-10-17T14:13:54.000Z</time>
      </trkpt>
      <trkpt lat="47.29266" lon="-1.56814">
        <ele>20</ele>
        <time>2019-10-17T14:13:55.000Z</time>
      </trkpt>
      <trkpt lat="47.29265" lon="-1.56815">
        <ele>20</ele>
        <time>2019-10-17T14:13:56.000Z</time>
      </trkpt>
      <trkpt lat="47.29264" lon="-1.56816">
        <ele>20</ele>
        <time>2019-10-17T14:13:57.000Z</time>
      </trkpt>
      <trkpt lat="47.29262" lon="-1.56818">
        <ele>20</ele>
        <time>2019-10-17T14:13:58.000Z</time>
      </trkpt>
      <trkpt lat="47.2926" lon="-1.56819">
        <ele>19</ele>
        <time>2019-10-17T14:13:59.000Z</time>
      </trkpt>
      <trkpt lat="47.29258" lon="-1.56819">
        <ele>19</ele>
        <time>2019-10-17T14:14:00.000Z</time>
      </trkpt>
      <trkpt lat="47.29256" lon="-1.5682">
        <ele>19</ele>
        <time>2019-10-17T14:14:01.000Z</time>
      </trkpt>
      <trkpt lat="47.29254" lon="-1.5682">
        <ele>19</ele>
        <time>2019-10-17T14:14:02.000Z</time>
      </trkpt>
      <trkpt lat="47.29252" lon="-1.5682">
        <ele>19</ele>
        <time>2019-10-17T14:14:03.000Z</time>
      </trkpt>
      <trkpt lat="47.2925" lon="-1.56821">
        <ele>18</ele>
        <time>2019-10-17T14:14:04.000Z</time>
      </trkpt>
      <trkpt lat="47.29249" lon="-1.56821">
        <ele>18</ele>
        <time>2019-10-17T14:14:05.000Z</time>
      </trkpt>
      <trkpt lat="47.29247" lon="-1.56823">
        <ele>18</ele>
        <time>2019-10-17T14:14:06.000Z</time>
      </trkpt>
      <trkpt lat="47.29246" lon="-1.56824">
        <ele>18</ele>
        <time>2019-10-17T14:14:07.000Z</time>
      </trkpt>
      <trkpt lat="47.29244" lon="-1.56826">
        <ele>18</ele>
        <time>2019-10-17T14:14:08.000Z</time>
      </trkpt>
      <trkpt lat="47.29243" lon="-1.56828">
        <ele>18</ele>
        <time>2019-10-17T14:14:09.000Z</time>
      </trkpt>
      <trkpt lat="47.29241" lon="-1.5683">
        <ele>18</ele>
        <time>2019-10-17T14:14:10.000Z</time>
      </trkpt>
      <trkpt lat="47.29239" lon="-1.56832">
        <ele>18</ele>
        <time>2019-10-17T14:14:11.000Z</time>
      </trkpt>
      <trkpt lat="47.29238" lon="-1.56834">
        <ele>18</ele>
        <time>2019-10-17T14:14:12.000Z</time>
      </trkpt>
      <trkpt lat="47.29237" lon="-1.56835">
        <ele>18</ele>
        <time>2019-10-17T14:14:13.000Z</time>
      </trkpt>
      <trkpt lat="47.29235" lon="-1.56837">
        <ele>18</ele>
        <time>2019-10-17T14:14:14.000Z</time>
      </trkpt>
      <trkpt lat="47.29234" lon="-1.56839">
        <ele>18</ele>
        <time>2019-10-17T14:14:15.000Z</time>
      </trkpt>
      <trkpt lat="47.29232" lon="-1.56841">
        <ele>18</ele>
        <time>2019-10-17T14:14:16.000Z</time>
      </trkpt>
      <trkpt lat="47.29231" lon="-1.56844">
        <ele>18</ele>
        <time>2019-10-17T14:14:17.000Z</time>
      </trkpt>
      <trkpt lat="47.2923" lon="-1.56846">
        <ele>18</ele>
        <time>2019-10-17T14:14:18.000Z</time>
      </trkpt>
      <trkpt lat="47.29229" lon="-1.56849">
        <ele>18</ele>
        <time>2019-10-17T14:14:19.000Z</time>
      </trkpt>
      <trkpt lat="47.29227" lon="-1.56851">
        <ele>18</ele>
        <time>2019-10-17T14:14:20.000Z</time>
      </trkpt>
      <trkpt lat="47.29227" lon="-1.56854">
        <ele>18</ele>
        <time>2019-10-17T14:14:21.000Z</time>
      </trkpt>
      <trkpt lat="47.29225" lon="-1.56856">
        <ele>18</ele>
        <time>2019-10-17T14:14:22.000Z</time>
      </trkpt>
      <trkpt lat="47.29224" lon="-1.56858">
        <ele>18</ele>
        <time>2019-10-17T14:14:23.000Z</time>
      </trkpt>
      <trkpt lat="47.29223" lon="-1.5686">
        <ele>18</ele>
        <time>2019-10-17T14:14:24.000Z</time>
      </trkpt>
      <trkpt lat="47.29221" lon="-1.56862">
        <ele>18</ele>
        <time>2019-10-17T14:14:25.000Z</time>
      </trkpt>
      <trkpt lat="47.29219" lon="-1.56864">
        <ele>18</ele>
        <time>2019-10-17T14:14:26.000Z</time>
      </trkpt>
      <trkpt lat="47.29217" lon="-1.56865">
        <ele>18</ele>
        <time>2019-10-17T14:14:27.000Z</time>
      </trkpt>
      <trkpt lat="47.29216" lon="-1.56866">
        <ele>18</ele>
        <time>2019-10-17T14:14:28.000Z</time>
      </trkpt>
      <trkpt lat="47.29214" lon="-1.56867">
        <ele>18</ele>
        <time>2019-10-17T14:14:29.000Z</time>
      </trkpt>
      <trkpt lat="47.29213" lon="-1.56868">
        <ele>18</ele>
        <time>2019-10-17T14:14:30.000Z</time>
      </trkpt>
      <trkpt lat="47.29212" lon="-1.5687">
        <ele>18</ele>
        <time>2019-10-17T14:14:31.000Z</time>
      </trkpt>
      <trkpt lat="47.29211" lon="-1.56872">
        <ele>18</ele>
        <time>2019-10-17T14:14:32.000Z</time>
      </trkpt>
      <trkpt lat="47.29209" lon="-1.56874">
        <ele>18</ele>
        <time>2019-10-17T14:14:33.000Z</time>
      </trkpt>
      <trkpt lat="47.29209" lon="-1.56876">
        <ele>18</ele>
        <time>2019-10-17T14:14:34.000Z</time>
      </trkpt>
      <trkpt lat="47.29208" lon="-1.56878">
        <ele>18</ele>
        <time>2019-10-17T14:14:35.000Z</time>
      </trkpt>
      <trkpt lat="47.29207" lon="-1.56879">
        <ele>19</ele>
        <time>2019-10-17T14:14:36.000Z</time>
      </trkpt>
      <trkpt lat="47.29206" lon="-1.5688">
        <ele>19</ele>
        <time>2019-10-17T14:14:37.000Z</time>
      </trkpt>
      <trkpt lat="47.29205" lon="-1.56882">
        <ele>19</ele>
        <time>2019-10-17T14:14:38.000Z</time>
      </trkpt>
      <trkpt lat="47.29205" lon="-1.56885">
        <ele>19</ele>
        <time>2019-10-17T14:14:39.000Z</time>
      </trkpt>
      <trkpt lat="47.29203" lon="-1.56886">
        <ele>19</ele>
        <time>2019-10-17T14:14:40.000Z</time>
      </trkpt>
      <trkpt lat="47.29202" lon="-1.56888">
        <ele>19</ele>
        <time>2019-10-17T14:14:41.000Z</time>
      </trkpt>
      <trkpt lat="47.29201" lon="-1.56889">
        <ele>19</ele>
        <time>2019-10-17T14:14:42.000Z</time>
      </trkpt>
      <trkpt lat="47.29199" lon="-1.5689">
        <ele>20</ele>
        <time>2019-10-17T14:14:43.000Z</time>
      </trkpt>
      <trkpt lat="47.29198" lon="-1.5689">
        <ele>20</ele>
        <time>2019-10-17T14:14:44.000Z</time>
      </trkpt>
      <trkpt lat="47.29197" lon="-1.5689">
        <ele>20</ele>
        <time>2019-10-17T14:14:45.000Z</time>
      </trkpt>
      <trkpt lat="47.29196" lon="-1.56891">
        <ele>20</ele>
        <time>2019-10-17T14:14:46.000Z</time>
      </trkpt>
      <trkpt lat="47.29196" lon="-1.56892">
        <ele>20</ele>
        <time>2019-10-17T14:14:47.000Z</time>
      </trkpt>
      <trkpt lat="47.29196" lon="-1.56892">
        <ele>20</ele>
        <time>2019-10-17T14:14:48.000Z</time>
      </trkpt>
      <trkpt lat="47.29195" lon="-1.56892">
        <ele>20</ele>
        <time>2019-10-17T14:14:49.000Z</time>
      </trkpt>
      <trkpt lat="47.29195" lon="-1.56892">
        <ele>20</ele>
        <time>2019-10-17T14:14:50.000Z</time>
      </trkpt>
      <trkpt lat="47.29194" lon="-1.56893">
        <ele>21</ele>
        <time>2019-10-17T14:14:51.000Z</time>
      </trkpt>
      <trkpt lat="47.29194" lon="-1.56893">
        <ele>21</ele>
        <time>2019-10-17T14:14:52.000Z</time>
      </trkpt>
      <trkpt lat="47.29193" lon="-1.56893">
        <ele>21</ele>
        <time>2019-10-17T14:14:53.000Z</time>
      </trkpt>
      <trkpt lat="47.29193" lon="-1.56894">
        <ele>21</ele>
        <time>2019-10-17T14:14:54.000Z</time>
      </trkpt>
      <trkpt lat="47.29193" lon="-1.56894">
        <ele>21</ele>
        <time>2019-10-17T14:14:55.000Z</time>
      </trkpt>
      <trkpt lat="47.29193" lon="-1.56894">
        <ele>21</ele>
        <time>2019-10-17T14:14:56.000Z</time>
      </trkpt>
      <trkpt lat="47.29182" lon="-1.56902">
        <ele>18</ele>
        <time>2019-10-17T14:14:57.000Z</time>
      </trkpt>
      <trkpt lat="47.2918" lon="-1.56903">
        <ele>18</ele>
        <time>2019-10-17T14:14:58.000Z</time>
      </trkpt>
      <trkpt lat="47.29179" lon="-1.56902">
        <ele>18</ele>
        <time>2019-10-17T14:14:59.000Z</time>
      </trkpt>
      <trkpt lat="47.29178" lon="-1.56902">
        <ele>18</ele>
        <time>2019-10-17T14:15:00.000Z</time>
      </trkpt>
      <trkpt lat="47.29177" lon="-1.56901">
        <ele>18</ele>
        <time>2019-10-17T14:15:01.000Z</time>
      </trkpt>
      <trkpt lat="47.29176" lon="-1.569">
        <ele>18</ele>
        <time>2019-10-17T14:15:02.000Z</time>
      </trkpt>
      <trkpt lat="47.29176" lon="-1.569">
        <ele>18</ele>
        <time>2019-10-17T14:15:03.000Z</time>
      </trkpt>
      <trkpt lat="47.29174" lon="-1.56899">
        <ele>18</ele>
        <time>2019-10-17T14:15:04.000Z</time>
      </trkpt>
      <trkpt lat="47.29172" lon="-1.56899">
        <ele>18</ele>
        <time>2019-10-17T14:15:05.000Z</time>
      </trkpt>
      <trkpt lat="47.2917" lon="-1.56899">
        <ele>18</ele>
        <time>2019-10-17T14:15:06.000Z</time>
      </trkpt>
      <trkpt lat="47.29169" lon="-1.56898">
        <ele>18</ele>
        <time>2019-10-17T14:15:07.000Z</time>
      </trkpt>
      <trkpt lat="47.29168" lon="-1.56897">
        <ele>18</ele>
        <time>2019-10-17T14:15:08.000Z</time>
      </trkpt>
      <trkpt lat="47.29168" lon="-1.56897">
        <ele>18</ele>
        <time>2019-10-17T14:15:09.000Z</time>
      </trkpt>
      <trkpt lat="47.29168" lon="-1.56896">
        <ele>18</ele>
        <time>2019-10-17T14:15:10.000Z</time>
      </trkpt>
      <trkpt lat="47.29168" lon="-1.56896">
        <ele>18</ele>
        <time>2019-10-17T14:15:11.000Z</time>
      </trkpt>
      <trkpt lat="47.29168" lon="-1.56895">
        <ele>18</ele>
        <time>2019-10-17T14:15:12.000Z</time>
      </trkpt>
      <trkpt lat="47.29168" lon="-1.56893">
        <ele>18</ele>
        <time>2019-10-17T14:15:13.000Z</time>
      </trkpt>
      <trkpt lat="47.29169" lon="-1.56892">
        <ele>19</ele>
        <time>2019-10-17T14:15:14.000Z</time>
      </trkpt>
      <trkpt lat="47.29169" lon="-1.5689">
        <ele>19</ele>
        <time>2019-10-17T14:15:15.000Z</time>
      </trkpt>
      <trkpt lat="47.29169" lon="-1.5689">
        <ele>19</ele>
        <time>2019-10-17T14:15:16.000Z</time>
      </trkpt>
      <trkpt lat="47.29169" lon="-1.56886">
        <ele>19</ele>
        <time>2019-10-17T14:15:17.000Z</time>
      </trkpt>
      <trkpt lat="47.29169" lon="-1.56884">
        <ele>19</ele>
        <time>2019-10-17T14:15:18.000Z</time>
      </trkpt>
      <trkpt lat="47.29169" lon="-1.56881">
        <ele>19</ele>
        <time>2019-10-17T14:15:19.000Z</time>
      </trkpt>
      <trkpt lat="47.29169" lon="-1.56878">
        <ele>20</ele>
        <time>2019-10-17T14:15:20.000Z</time>
      </trkpt>
      <trkpt lat="47.2917" lon="-1.56877">
        <ele>20</ele>
        <time>2019-10-17T14:15:21.000Z</time>
      </trkpt>
      <trkpt lat="47.2917" lon="-1.56877">
        <ele>20</ele>
        <time>2019-10-17T14:15:22.000Z</time>
      </trkpt>
      <trkpt lat="47.2917" lon="-1.56875">
        <ele>20</ele>
        <time>2019-10-17T14:15:23.000Z</time>
      </trkpt>
      <trkpt lat="47.2917" lon="-1.56874">
        <ele>20</ele>
        <time>2019-10-17T14:15:24.000Z</time>
      </trkpt>
      <trkpt lat="47.2917" lon="-1.56873">
        <ele>19</ele>
        <time>2019-10-17T14:15:25.000Z</time>
      </trkpt>
      <trkpt lat="47.29167" lon="-1.56874">
        <ele>18</ele>
        <time>2019-10-17T14:15:26.000Z</time>
      </trkpt>
      <trkpt lat="47.29166" lon="-1.56876">
        <ele>19</ele>
        <time>2019-10-17T14:15:27.000Z</time>
      </trkpt>
      <trkpt lat="47.29165" lon="-1.56877">
        <ele>19</ele>
        <time>2019-10-17T14:15:28.000Z</time>
      </trkpt>
      <trkpt lat="47.29164" lon="-1.56879">
        <ele>19</ele>
        <time>2019-10-17T14:15:29.000Z</time>
      </trkpt>
      <trkpt lat="47.29163" lon="-1.56879">
        <ele>19</ele>
        <time>2019-10-17T14:15:30.000Z</time>
      </trkpt>
      <trkpt lat="47.29162" lon="-1.5688">
        <ele>20</ele>
        <time>2019-10-17T14:15:31.000Z</time>
      </trkpt>
      <trkpt lat="47.29161" lon="-1.56881">
        <ele>20</ele>
        <time>2019-10-17T14:15:32.000Z</time>
      </trkpt>
      <trkpt lat="47.2916" lon="-1.56882">
        <ele>20</ele>
        <time>2019-10-17T14:15:33.000Z</time>
      </trkpt>
      <trkpt lat="47.29158" lon="-1.56883">
        <ele>21</ele>
        <time>2019-10-17T14:15:34.000Z</time>
      </trkpt>
      <trkpt lat="47.29156" lon="-1.56884">
        <ele>21</ele>
        <time>2019-10-17T14:15:35.000Z</time>
      </trkpt>
      <trkpt lat="47.29154" lon="-1.56886">
        <ele>21</ele>
        <time>2019-10-17T14:15:36.000Z</time>
      </trkpt>
      <trkpt lat="47.29152" lon="-1.56887">
        <ele>21</ele>
        <time>2019-10-17T14:15:37.000Z</time>
      </trkpt>
      <trkpt lat="47.2915" lon="-1.56887">
        <ele>22</ele>
        <time>2019-10-17T14:15:38.000Z</time>
      </trkpt>
      <trkpt lat="47.29148" lon="-1.56887">
        <ele>22</ele>
        <time>2019-10-17T14:15:39.000Z</time>
      </trkpt>
      <trkpt lat="47.29145" lon="-1.56887">
        <ele>22</ele>
        <time>2019-10-17T14:15:40.000Z</time>
      </trkpt>
      <trkpt lat="47.29143" lon="-1.56888">
        <ele>23</ele>
        <time>2019-10-17T14:15:41.000Z</time>
      </trkpt>
      <trkpt lat="47.29142" lon="-1.56889">
        <ele>23</ele>
        <time>2019-10-17T14:15:42.000Z</time>
      </trkpt>
      <trkpt lat="47.29139" lon="-1.5689">
        <ele>23</ele>
        <time>2019-10-17T14:15:43.000Z</time>
      </trkpt>
      <trkpt lat="47.29137" lon="-1.56891">
        <ele>24</ele>
        <time>2019-10-17T14:15:44.000Z</time>
      </trkpt>
      <trkpt lat="47.29135" lon="-1.56892">
        <ele>24</ele>
        <time>2019-10-17T14:15:45.000Z</time>
      </trkpt>
      <trkpt lat="47.29132" lon="-1.56893">
        <ele>24</ele>
        <time>2019-10-17T14:15:46.000Z</time>
      </trkpt>
      <trkpt lat="47.2913" lon="-1.56893">
        <ele>25</ele>
        <time>2019-10-17T14:15:47.000Z</time>
      </trkpt>
      <trkpt lat="47.29127" lon="-1.56894">
        <ele>25</ele>
        <time>2019-10-17T14:15:48.000Z</time>
      </trkpt>
      <trkpt lat="47.29124" lon="-1.56894">
        <ele>26</ele>
        <time>2019-10-17T14:15:49.000Z</time>
      </trkpt>
      <trkpt lat="47.29121" lon="-1.56894">
        <ele>26</ele>
        <time>2019-10-17T14:15:50.000Z</time>
      </trkpt>
      <trkpt lat="47.29119" lon="-1.56895">
        <ele>27</ele>
        <time>2019-10-17T14:15:51.000Z</time>
      </trkpt>
      <trkpt lat="47.29116" lon="-1.56896">
        <ele>27</ele>
        <time>2019-10-17T14:15:52.000Z</time>
      </trkpt>
      <trkpt lat="47.29114" lon="-1.56898">
        <ele>27</ele>
        <time>2019-10-17T14:15:53.000Z</time>
      </trkpt>
      <trkpt lat="47.29113" lon="-1.56899">
        <ele>28</ele>
        <time>2019-10-17T14:15:54.000Z</time>
      </trkpt>
      <trkpt lat="47.29113" lon="-1.56902">
        <ele>28</ele>
        <time>2019-10-17T14:15:55.000Z</time>
      </trkpt>
      <trkpt lat="47.29112" lon="-1.56904">
        <ele>28</ele>
        <time>2019-10-17T14:15:56.000Z</time>
      </trkpt>
      <trkpt lat="47.2911" lon="-1.56905">
        <ele>29</ele>
        <time>2019-10-17T14:15:57.000Z</time>
      </trkpt>
      <trkpt lat="47.29108" lon="-1.56906">
        <ele>29</ele>
        <time>2019-10-17T14:15:58.000Z</time>
      </trkpt>
      <trkpt lat="47.29106" lon="-1.56907">
        <ele>29</ele>
        <time>2019-10-17T14:15:59.000Z</time>
      </trkpt>
      <trkpt lat="47.29103" lon="-1.56908">
        <ele>29</ele>
        <time>2019-10-17T14:16:00.000Z</time>
      </trkpt>
      <trkpt lat="47.29101" lon="-1.56909">
        <ele>30</ele>
        <time>2019-10-17T14:16:01.000Z</time>
      </trkpt>
      <trkpt lat="47.29099" lon="-1.5691">
        <ele>30</ele>
        <time>2019-10-17T14:16:02.000Z</time>
      </trkpt>
      <trkpt lat="47.29097" lon="-1.56911">
        <ele>30</ele>
        <time>2019-10-17T14:16:03.000Z</time>
      </trkpt>
      <trkpt lat="47.29096" lon="-1.56914">
        <ele>30</ele>
        <time>2019-10-17T14:16:04.000Z</time>
      </trkpt>
      <trkpt lat="47.29094" lon="-1.56917">
        <ele>31</ele>
        <time>2019-10-17T14:16:05.000Z</time>
      </trkpt>
      <trkpt lat="47.29093" lon="-1.56921">
        <ele>31</ele>
        <time>2019-10-17T14:16:06.000Z</time>
      </trkpt>
      <trkpt lat="47.29091" lon="-1.56923">
        <ele>31</ele>
        <time>2019-10-17T14:16:07.000Z</time>
      </trkpt>
      <trkpt lat="47.29088" lon="-1.56925">
        <ele>31</ele>
        <time>2019-10-17T14:16:08.000Z</time>
      </trkpt>
      <trkpt lat="47.29086" lon="-1.56927">
        <ele>31</ele>
        <time>2019-10-17T14:16:09.000Z</time>
      </trkpt>
      <trkpt lat="47.29083" lon="-1.56928">
        <ele>31</ele>
        <time>2019-10-17T14:16:10.000Z</time>
      </trkpt>
      <trkpt lat="47.29081" lon="-1.5693">
        <ele>31</ele>
        <time>2019-10-17T14:16:11.000Z</time>
      </trkpt>
      <trkpt lat="47.29079" lon="-1.56931">
        <ele>31</ele>
        <time>2019-10-17T14:16:12.000Z</time>
      </trkpt>
      <trkpt lat="47.29076" lon="-1.56932">
        <ele>32</ele>
        <time>2019-10-17T14:16:13.000Z</time>
      </trkpt>
      <trkpt lat="47.29074" lon="-1.56932">
        <ele>32</ele>
        <time>2019-10-17T14:16:14.000Z</time>
      </trkpt>
      <trkpt lat="47.29072" lon="-1.56933">
        <ele>32</ele>
        <time>2019-10-17T14:16:15.000Z</time>
      </trkpt>
      <trkpt lat="47.29069" lon="-1.56934">
        <ele>32</ele>
        <time>2019-10-17T14:16:16.000Z</time>
      </trkpt>
      <trkpt lat="47.29067" lon="-1.56935">
        <ele>32</ele>
        <time>2019-10-17T14:16:17.000Z</time>
      </trkpt>
      <trkpt lat="47.29064" lon="-1.56936">
        <ele>32</ele>
        <time>2019-10-17T14:16:18.000Z</time>
      </trkpt>
      <trkpt lat="47.29062" lon="-1.56939">
        <ele>32</ele>
        <time>2019-10-17T14:16:19.000Z</time>
      </trkpt>
      <trkpt lat="47.2906" lon="-1.56942">
        <ele>32</ele>
        <time>2019-10-17T14:16:20.000Z</time>
      </trkpt>
      <trkpt lat="47.29058" lon="-1.56945">
        <ele>32</ele>
        <time>2019-10-17T14:16:21.000Z</time>
      </trkpt>
      <trkpt lat="47.29057" lon="-1.56948">
        <ele>32</ele>
        <time>2019-10-17T14:16:22.000Z</time>
      </trkpt>
      <trkpt lat="47.29056" lon="-1.56952">
        <ele>32</ele>
        <time>2019-10-17T14:16:23.000Z</time>
      </trkpt>
      <trkpt lat="47.29055" lon="-1.56956">
        <ele>32</ele>
        <time>2019-10-17T14:16:24.000Z</time>
      </trkpt>
      <trkpt lat="47.29054" lon="-1.5696">
        <ele>32</ele>
        <time>2019-10-17T14:16:25.000Z</time>
      </trkpt>
      <trkpt lat="47.29054" lon="-1.56962">
        <ele>32</ele>
        <time>2019-10-17T14:16:26.000Z</time>
      </trkpt>
      <trkpt lat="47.29053" lon="-1.56965">
        <ele>32</ele>
        <time>2019-10-17T14:16:27.000Z</time>
      </trkpt>
      <trkpt lat="47.29053" lon="-1.56967">
        <ele>32</ele>
        <time>2019-10-17T14:16:28.000Z</time>
      </trkpt>
      <trkpt lat="47.29055" lon="-1.56969">
        <ele>32</ele>
        <time>2019-10-17T14:16:29.000Z</time>
      </trkpt>
      <trkpt lat="47.29056" lon="-1.56969">
        <ele>32</ele>
        <time>2019-10-17T14:16:30.000Z</time>
      </trkpt>
      <trkpt lat="47.29057" lon="-1.56969">
        <ele>32</ele>
        <time>2019-10-17T14:16:31.000Z</time>
      </trkpt>
      <trkpt lat="47.29058" lon="-1.56971">
        <ele>32</ele>
        <time>2019-10-17T14:16:32.000Z</time>
      </trkpt>
      <trkpt lat="47.29059" lon="-1.56972">
        <ele>32</ele>
        <time>2019-10-17T14:16:33.000Z</time>
      </trkpt>
      <trkpt lat="47.29061" lon="-1.56972">
        <ele>32</ele>
        <time>2019-10-17T14:16:34.000Z</time>
      </trkpt>
      <trkpt lat="47.29063" lon="-1.56971">
        <ele>32</ele>
        <time>2019-10-17T14:16:35.000Z</time>
      </trkpt>
      <trkpt lat="47.29065" lon="-1.56971">
        <ele>32</ele>
        <time>2019-10-17T14:16:36.000Z</time>
      </trkpt>
      <trkpt lat="47.29066" lon="-1.56971">
        <ele>32</ele>
        <time>2019-10-17T14:16:37.000Z</time>
      </trkpt>
      <trkpt lat="47.29068" lon="-1.56969">
        <ele>32</ele>
        <time>2019-10-17T14:16:38.000Z</time>
      </trkpt>
      <trkpt lat="47.2907" lon="-1.56968">
        <ele>32</ele>
        <time>2019-10-17T14:16:39.000Z</time>
      </trkpt>
      <trkpt lat="47.29072" lon="-1.56968">
        <ele>32</ele>
        <time>2019-10-17T14:16:40.000Z</time>
      </trkpt>
      <trkpt lat="47.29075" lon="-1.56967">
        <ele>32</ele>
        <time>2019-10-17T14:16:41.000Z</time>
      </trkpt>
      <trkpt lat="47.29077" lon="-1.56967">
        <ele>32</ele>
        <time>2019-10-17T14:16:42.000Z</time>
      </trkpt>
      <trkpt lat="47.29079" lon="-1.56968">
        <ele>32</ele>
        <time>2019-10-17T14:16:43.000Z</time>
      </trkpt>
      <trkpt lat="47.2908" lon="-1.5697">
        <ele>31</ele>
        <time>2019-10-17T14:16:44.000Z</time>
      </trkpt>
      <trkpt lat="47.29083" lon="-1.56973">
        <ele>31</ele>
        <time>2019-10-17T14:16:45.000Z</time>
      </trkpt>
      <trkpt lat="47.29085" lon="-1.56976">
        <ele>31</ele>
        <time>2019-10-17T14:16:46.000Z</time>
      </trkpt>
      <trkpt lat="47.29087" lon="-1.56979">
        <ele>31</ele>
        <time>2019-10-17T14:16:47.000Z</time>
      </trkpt>
      <trkpt lat="47.2909" lon="-1.5698">
        <ele>31</ele>
        <time>2019-10-17T14:16:48.000Z</time>
      </trkpt>
      <trkpt lat="47.29092" lon="-1.56981">
        <ele>30</ele>
        <time>2019-10-17T14:16:49.000Z</time>
      </trkpt>
      <trkpt lat="47.29095" lon="-1.56981">
        <ele>30</ele>
        <time>2019-10-17T14:16:50.000Z</time>
      </trkpt>
      <trkpt lat="47.29098" lon="-1.5698">
        <ele>30</ele>
        <time>2019-10-17T14:16:51.000Z</time>
      </trkpt>
      <trkpt lat="47.29101" lon="-1.5698">
        <ele>30</ele>
        <time>2019-10-17T14:16:52.000Z</time>
      </trkpt>
      <trkpt lat="47.29103" lon="-1.56979">
        <ele>30</ele>
        <time>2019-10-17T14:16:53.000Z</time>
      </trkpt>
      <trkpt lat="47.29105" lon="-1.56979">
        <ele>30</ele>
        <time>2019-10-17T14:16:54.000Z</time>
      </trkpt>
      <trkpt lat="47.29108" lon="-1.56979">
        <ele>30</ele>
        <time>2019-10-17T14:16:55.000Z</time>
      </trkpt>
      <trkpt lat="47.29111" lon="-1.5698">
        <ele>30</ele>
        <time>2019-10-17T14:16:56.000Z</time>
      </trkpt>
      <trkpt lat="47.29114" lon="-1.5698">
        <ele>30</ele>
        <time>2019-10-17T14:16:57.000Z</time>
      </trkpt>
      <trkpt lat="47.29116" lon="-1.56981">
        <ele>30</ele>
        <time>2019-10-17T14:16:58.000Z</time>
      </trkpt>
      <trkpt lat="47.29118" lon="-1.56982">
        <ele>30</ele>
        <time>2019-10-17T14:16:59.000Z</time>
      </trkpt>
      <trkpt lat="47.2912" lon="-1.56982">
        <ele>30</ele>
        <time>2019-10-17T14:17:00.000Z</time>
      </trkpt>
      <trkpt lat="47.29122" lon="-1.56981">
        <ele>29</ele>
        <time>2019-10-17T14:17:01.000Z</time>
      </trkpt>
      <trkpt lat="47.29126" lon="-1.5698">
        <ele>29</ele>
        <time>2019-10-17T14:17:02.000Z</time>
      </trkpt>
      <trkpt lat="47.29129" lon="-1.56979">
        <ele>29</ele>
        <time>2019-10-17T14:17:03.000Z</time>
      </trkpt>
      <trkpt lat="47.29131" lon="-1.56978">
        <ele>30</ele>
        <time>2019-10-17T14:17:04.000Z</time>
      </trkpt>
      <trkpt lat="47.29132" lon="-1.56978">
        <ele>30</ele>
        <time>2019-10-17T14:17:05.000Z</time>
      </trkpt>
      <trkpt lat="47.29134" lon="-1.56977">
        <ele>30</ele>
        <time>2019-10-17T14:17:06.000Z</time>
      </trkpt>
      <trkpt lat="47.29136" lon="-1.56977">
        <ele>30</ele>
        <time>2019-10-17T14:17:07.000Z</time>
      </trkpt>
      <trkpt lat="47.29138" lon="-1.56975">
        <ele>30</ele>
        <time>2019-10-17T14:17:08.000Z</time>
      </trkpt>
      <trkpt lat="47.2914" lon="-1.56973">
        <ele>30</ele>
        <time>2019-10-17T14:17:09.000Z</time>
      </trkpt>
      <trkpt lat="47.29143" lon="-1.5697">
        <ele>30</ele>
        <time>2019-10-17T14:17:10.000Z</time>
      </trkpt>
      <trkpt lat="47.29145" lon="-1.56968">
        <ele>30</ele>
        <time>2019-10-17T14:17:11.000Z</time>
      </trkpt>
      <trkpt lat="47.29149" lon="-1.56967">
        <ele>30</ele>
        <time>2019-10-17T14:17:12.000Z</time>
      </trkpt>
      <trkpt lat="47.29152" lon="-1.56965">
        <ele>30</ele>
        <time>2019-10-17T14:17:13.000Z</time>
      </trkpt>
      <trkpt lat="47.29156" lon="-1.56963">
        <ele>30</ele>
        <time>2019-10-17T14:17:14.000Z</time>
      </trkpt>
      <trkpt lat="47.29159" lon="-1.56962">
        <ele>30</ele>
        <time>2019-10-17T14:17:15.000Z</time>
      </trkpt>
      <trkpt lat="47.29162" lon="-1.5696">
        <ele>30</ele>
        <time>2019-10-17T14:17:16.000Z</time>
      </trkpt>
      <trkpt lat="47.29165" lon="-1.56958">
        <ele>30</ele>
        <time>2019-10-17T14:17:17.000Z</time>
      </trkpt>
      <trkpt lat="47.29167" lon="-1.56957">
        <ele>30</ele>
        <time>2019-10-17T14:17:18.000Z</time>
      </trkpt>
      <trkpt lat="47.2917" lon="-1.56956">
        <ele>30</ele>
        <time>2019-10-17T14:17:19.000Z</time>
      </trkpt>
      <trkpt lat="47.29173" lon="-1.56955">
        <ele>30</ele>
        <time>2019-10-17T14:17:20.000Z</time>
      </trkpt>
      <trkpt lat="47.29175" lon="-1.56953">
        <ele>30</ele>
        <time>2019-10-17T14:17:21.000Z</time>
      </trkpt>
      <trkpt lat="47.29178" lon="-1.56951">
        <ele>30</ele>
        <time>2019-10-17T14:17:22.000Z</time>
      </trkpt>
      <trkpt lat="47.2918" lon="-1.56948">
        <ele>30</ele>
        <time>2019-10-17T14:17:23.000Z</time>
      </trkpt>
      <trkpt lat="47.29182" lon="-1.56946">
        <ele>30</ele>
        <time>2019-10-17T14:17:24.000Z</time>
      </trkpt>
      <trkpt lat="47.29185" lon="-1.56944">
        <ele>30</ele>
        <time>2019-10-17T14:17:25.000Z</time>
      </trkpt>
      <trkpt lat="47.29187" lon="-1.56942">
        <ele>30</ele>
        <time>2019-10-17T14:17:26.000Z</time>
      </trkpt>
      <trkpt lat="47.2919" lon="-1.56938">
        <ele>30</ele>
        <time>2019-10-17T14:17:27.000Z</time>
      </trkpt>
      <trkpt lat="47.29194" lon="-1.56936">
        <ele>30</ele>
        <time>2019-10-17T14:17:28.000Z</time>
      </trkpt>
      <trkpt lat="47.29197" lon="-1.56934">
        <ele>30</ele>
        <time>2019-10-17T14:17:29.000Z</time>
      </trkpt>
      <trkpt lat="47.292" lon="-1.56931">
        <ele>30</ele>
        <time>2019-10-17T14:17:30.000Z</time>
      </trkpt>
      <trkpt lat="47.29203" lon="-1.56929">
        <ele>30</ele>
        <time>2019-10-17T14:17:31.000Z</time>
      </trkpt>
      <trkpt lat="47.29205" lon="-1.56928">
        <ele>30</ele>
        <time>2019-10-17T14:17:32.000Z</time>
      </trkpt>
      <trkpt lat="47.29207" lon="-1.56928">
        <ele>30</ele>
        <time>2019-10-17T14:17:33.000Z</time>
      </trkpt>
      <trkpt lat="47.2921" lon="-1.56929">
        <ele>30</ele>
        <time>2019-10-17T14:17:34.000Z</time>
      </trkpt>
      <trkpt lat="47.29211" lon="-1.56931">
        <ele>30</ele>
        <time>2019-10-17T14:17:35.000Z</time>
      </trkpt>
      <trkpt lat="47.29213" lon="-1.56933">
        <ele>30</ele>
        <time>2019-10-17T14:17:36.000Z</time>
      </trkpt>
      <trkpt lat="47.29215" lon="-1.56937">
        <ele>30</ele>
        <time>2019-10-17T14:17:37.000Z</time>
      </trkpt>
      <trkpt lat="47.29217" lon="-1.56939">
        <ele>30</ele>
        <time>2019-10-17T14:17:38.000Z</time>
      </trkpt>
      <trkpt lat="47.29218" lon="-1.56942">
        <ele>30</ele>
        <time>2019-10-17T14:17:39.000Z</time>
      </trkpt>
      <trkpt lat="47.2922" lon="-1.56944">
        <ele>30</ele>
        <time>2019-10-17T14:17:40.000Z</time>
      </trkpt>
      <trkpt lat="47.29222" lon="-1.56945">
        <ele>30</ele>
        <time>2019-10-17T14:17:41.000Z</time>
      </trkpt>
      <trkpt lat="47.29223" lon="-1.56946">
        <ele>30</ele>
        <time>2019-10-17T14:17:42.000Z</time>
      </trkpt>
      <trkpt lat="47.29225" lon="-1.56948">
        <ele>30</ele>
        <time>2019-10-17T14:17:43.000Z</time>
      </trkpt>
      <trkpt lat="47.29227" lon="-1.5695">
        <ele>30</ele>
        <time>2019-10-17T14:17:44.000Z</time>
      </trkpt>
      <trkpt lat="47.29228" lon="-1.56953">
        <ele>30</ele>
        <time>2019-10-17T14:17:45.000Z</time>
      </trkpt>
      <trkpt lat="47.2923" lon="-1.56957">
        <ele>31</ele>
        <time>2019-10-17T14:17:46.000Z</time>
      </trkpt>
      <trkpt lat="47.29231" lon="-1.56961">
        <ele>31</ele>
        <time>2019-10-17T14:17:47.000Z</time>
      </trkpt>
      <trkpt lat="47.29233" lon="-1.56965">
        <ele>31</ele>
        <time>2019-10-17T14:17:48.000Z</time>
      </trkpt>
      <trkpt lat="47.29234" lon="-1.56969">
        <ele>31</ele>
        <time>2019-10-17T14:17:49.000Z</time>
      </trkpt>
      <trkpt lat="47.29236" lon="-1.56973">
        <ele>30</ele>
        <time>2019-10-17T14:17:50.000Z</time>
      </trkpt>
      <trkpt lat="47.29238" lon="-1.56978">
        <ele>30</ele>
        <time>2019-10-17T14:17:51.000Z</time>
      </trkpt>
      <trkpt lat="47.29239" lon="-1.56982">
        <ele>30</ele>
        <time>2019-10-17T14:17:52.000Z</time>
      </trkpt>
      <trkpt lat="47.29239" lon="-1.56986">
        <ele>30</ele>
        <time>2019-10-17T14:17:53.000Z</time>
      </trkpt>
      <trkpt lat="47.29237" lon="-1.56988">
        <ele>30</ele>
        <time>2019-10-17T14:17:54.000Z</time>
      </trkpt>
      <trkpt lat="47.29236" lon="-1.56991">
        <ele>30</ele>
        <time>2019-10-17T14:17:55.000Z</time>
      </trkpt>
      <trkpt lat="47.29236" lon="-1.56994">
        <ele>30</ele>
        <time>2019-10-17T14:17:56.000Z</time>
      </trkpt>
      <trkpt lat="47.29235" lon="-1.56996">
        <ele>30</ele>
        <time>2019-10-17T14:17:57.000Z</time>
      </trkpt>
      <trkpt lat="47.29234" lon="-1.56997">
        <ele>30</ele>
        <time>2019-10-17T14:17:58.000Z</time>
      </trkpt>
      <trkpt lat="47.29234" lon="-1.56997">
        <ele>30</ele>
        <time>2019-10-17T14:17:59.000Z</time>
      </trkpt>
      <trkpt lat="47.29233" lon="-1.56998">
        <ele>30</ele>
        <time>2019-10-17T14:18:00.000Z</time>
      </trkpt>
      <trkpt lat="47.29233" lon="-1.57">
        <ele>30</ele>
        <time>2019-10-17T14:18:01.000Z</time>
      </trkpt>
      <trkpt lat="47.29231" lon="-1.57003">
        <ele>30</ele>
        <time>2019-10-17T14:18:02.000Z</time>
      </trkpt>
      <trkpt lat="47.2923" lon="-1.57007">
        <ele>30</ele>
        <time>2019-10-17T14:18:03.000Z</time>
      </trkpt>
      <trkpt lat="47.29228" lon="-1.57011">
        <ele>29</ele>
        <time>2019-10-17T14:18:04.000Z</time>
      </trkpt>
      <trkpt lat="47.29227" lon="-1.57013">
        <ele>29</ele>
        <time>2019-10-17T14:18:05.000Z</time>
      </trkpt>
      <trkpt lat="47.29225" lon="-1.57015">
        <ele>29</ele>
        <time>2019-10-17T14:18:06.000Z</time>
      </trkpt>
      <trkpt lat="47.29223" lon="-1.57015">
        <ele>29</ele>
        <time>2019-10-17T14:18:07.000Z</time>
      </trkpt>
      <trkpt lat="47.29221" lon="-1.57016">
        <ele>29</ele>
        <time>2019-10-17T14:18:08.000Z</time>
      </trkpt>
      <trkpt lat="47.29219" lon="-1.57016">
        <ele>28</ele>
        <time>2019-10-17T14:18:09.000Z</time>
      </trkpt>
      <trkpt lat="47.29217" lon="-1.57015">
        <ele>28</ele>
        <time>2019-10-17T14:18:10.000Z</time>
      </trkpt>
      <trkpt lat="47.29217" lon="-1.57013">
        <ele>28</ele>
        <time>2019-10-17T14:18:11.000Z</time>
      </trkpt>
      <trkpt lat="47.29217" lon="-1.57012">
        <ele>28</ele>
        <time>2019-10-17T14:18:12.000Z</time>
      </trkpt>
      <trkpt lat="47.29216" lon="-1.57012">
        <ele>28</ele>
        <time>2019-10-17T14:18:13.000Z</time>
      </trkpt>
      <trkpt lat="47.29213" lon="-1.57012">
        <ele>28</ele>
        <time>2019-10-17T14:18:14.000Z</time>
      </trkpt>
      <trkpt lat="47.29212" lon="-1.5701">
        <ele>28</ele>
        <time>2019-10-17T14:18:15.000Z</time>
      </trkpt>
      <trkpt lat="47.2921" lon="-1.57009">
        <ele>28</ele>
        <time>2019-10-17T14:18:16.000Z</time>
      </trkpt>
      <trkpt lat="47.29207" lon="-1.57009">
        <ele>28</ele>
        <time>2019-10-17T14:18:17.000Z</time>
      </trkpt>
      <trkpt lat="47.29205" lon="-1.5701">
        <ele>28</ele>
        <time>2019-10-17T14:18:18.000Z</time>
      </trkpt>
      <trkpt lat="47.29203" lon="-1.57011">
        <ele>29</ele>
        <time>2019-10-17T14:18:19.000Z</time>
      </trkpt>
      <trkpt lat="47.29202" lon="-1.57011">
        <ele>29</ele>
        <time>2019-10-17T14:18:20.000Z</time>
      </trkpt>
      <trkpt lat="47.292" lon="-1.5701">
        <ele>29</ele>
        <time>2019-10-17T14:18:21.000Z</time>
      </trkpt>
      <trkpt lat="47.29197" lon="-1.57009">
        <ele>29</ele>
        <time>2019-10-17T14:18:22.000Z</time>
      </trkpt>
      <trkpt lat="47.29194" lon="-1.57008">
        <ele>29</ele>
        <time>2019-10-17T14:18:23.000Z</time>
      </trkpt>
      <trkpt lat="47.29191" lon="-1.57007">
        <ele>29</ele>
        <time>2019-10-17T14:18:24.000Z</time>
      </trkpt>
      <trkpt lat="47.29188" lon="-1.57007">
        <ele>29</ele>
        <time>2019-10-17T14:18:25.000Z</time>
      </trkpt>
      <trkpt lat="47.29185" lon="-1.57007">
        <ele>29</ele>
        <time>2019-10-17T14:18:26.000Z</time>
      </trkpt>
      <trkpt lat="47.29183" lon="-1.57006">
        <ele>30</ele>
        <time>2019-10-17T14:18:27.000Z</time>
      </trkpt>
      <trkpt lat="47.2918" lon="-1.57006">
        <ele>30</ele>
        <time>2019-10-17T14:18:28.000Z</time>
      </trkpt>
      <trkpt lat="47.29177" lon="-1.57006">
        <ele>30</ele>
        <time>2019-10-17T14:18:29.000Z</time>
      </trkpt>
      <trkpt lat="47.29174" lon="-1.57004">
        <ele>30</ele>
        <time>2019-10-17T14:18:30.000Z</time>
      </trkpt>
      <trkpt lat="47.2917" lon="-1.57003">
        <ele>30</ele>
        <time>2019-10-17T14:18:31.000Z</time>
      </trkpt>
      <trkpt lat="47.29167" lon="-1.57002">
        <ele>30</ele>
        <time>2019-10-17T14:18:32.000Z</time>
      </trkpt>
      <trkpt lat="47.29164" lon="-1.57002">
        <ele>30</ele>
        <time>2019-10-17T14:18:33.000Z</time>
      </trkpt>
      <trkpt lat="47.2916" lon="-1.57003">
        <ele>31</ele>
        <time>2019-10-17T14:18:34.000Z</time>
      </trkpt>
      <trkpt lat="47.29157" lon="-1.57005">
        <ele>31</ele>
        <time>2019-10-17T14:18:35.000Z</time>
      </trkpt>
      <trkpt lat="47.29154" lon="-1.57006">
        <ele>31</ele>
        <time>2019-10-17T14:18:36.000Z</time>
      </trkpt>
      <trkpt lat="47.29151" lon="-1.57007">
        <ele>31</ele>
        <time>2019-10-17T14:18:37.000Z</time>
      </trkpt>
      <trkpt lat="47.29149" lon="-1.57009">
        <ele>31</ele>
        <time>2019-10-17T14:18:38.000Z</time>
      </trkpt>
      <trkpt lat="47.29146" lon="-1.5701">
        <ele>31</ele>
        <time>2019-10-17T14:18:39.000Z</time>
      </trkpt>
      <trkpt lat="47.29143" lon="-1.57012">
        <ele>31</ele>
        <time>2019-10-17T14:18:40.000Z</time>
      </trkpt>
      <trkpt lat="47.2914" lon="-1.57014">
        <ele>32</ele>
        <time>2019-10-17T14:18:41.000Z</time>
      </trkpt>
      <trkpt lat="47.29137" lon="-1.57015">
        <ele>32</ele>
        <time>2019-10-17T14:18:42.000Z</time>
      </trkpt>
      <trkpt lat="47.29134" lon="-1.57017">
        <ele>32</ele>
        <time>2019-10-17T14:18:43.000Z</time>
      </trkpt>
      <trkpt lat="47.29132" lon="-1.57018">
        <ele>32</ele>
        <time>2019-10-17T14:18:44.000Z</time>
      </trkpt>
      <trkpt lat="47.29131" lon="-1.57019">
        <ele>32</ele>
        <time>2019-10-17T14:18:45.000Z</time>
      </trkpt>
      <trkpt lat="47.29129" lon="-1.5702">
        <ele>32</ele>
        <time>2019-10-17T14:18:46.000Z</time>
      </trkpt>
      <trkpt lat="47.29127" lon="-1.5702">
        <ele>32</ele>
        <time>2019-10-17T14:18:47.000Z</time>
      </trkpt>
      <trkpt lat="47.29125" lon="-1.5702">
        <ele>32</ele>
        <time>2019-10-17T14:18:48.000Z</time>
      </trkpt>
      <trkpt lat="47.29123" lon="-1.57021">
        <ele>32</ele>
        <time>2019-10-17T14:18:49.000Z</time>
      </trkpt>
      <trkpt lat="47.29121" lon="-1.57021">
        <ele>32</ele>
        <time>2019-10-17T14:18:50.000Z</time>
      </trkpt>
      <trkpt lat="47.29119" lon="-1.57021">
        <ele>32</ele>
        <time>2019-10-17T14:18:51.000Z</time>
      </trkpt>
      <trkpt lat="47.29116" lon="-1.5702">
        <ele>32</ele>
        <time>2019-10-17T14:18:52.000Z</time>
      </trkpt>
      <trkpt lat="47.29114" lon="-1.57019">
        <ele>32</ele>
        <time>2019-10-17T14:18:53.000Z</time>
      </trkpt>
      <trkpt lat="47.29113" lon="-1.57018">
        <ele>32</ele>
        <time>2019-10-17T14:18:54.000Z</time>
      </trkpt>
      <trkpt lat="47.29112" lon="-1.57017">
        <ele>32</ele>
        <time>2019-10-17T14:18:55.000Z</time>
      </trkpt>
      <trkpt lat="47.29111" lon="-1.57017">
        <ele>32</ele>
        <time>2019-10-17T14:18:56.000Z</time>
      </trkpt>
      <trkpt lat="47.2911" lon="-1.57016">
        <ele>32</ele>
        <time>2019-10-17T14:18:57.000Z</time>
      </trkpt>
      <trkpt lat="47.29108" lon="-1.57014">
        <ele>32</ele>
        <time>2019-10-17T14:18:58.000Z</time>
      </trkpt>
      <trkpt lat="47.29105" lon="-1.57013">
        <ele>32</ele>
        <time>2019-10-17T14:18:59.000Z</time>
      </trkpt>
      <trkpt lat="47.29102" lon="-1.57013">
        <ele>32</ele>
        <time>2019-10-17T14:19:00.000Z</time>
      </trkpt>
      <trkpt lat="47.291" lon="-1.57015">
        <ele>32</ele>
        <time>2019-10-17T14:19:01.000Z</time>
      </trkpt>
      <trkpt lat="47.29096" lon="-1.57016">
        <ele>32</ele>
        <time>2019-10-17T14:19:02.000Z</time>
      </trkpt>
      <trkpt lat="47.29093" lon="-1.57018">
        <ele>32</ele>
        <time>2019-10-17T14:19:03.000Z</time>
      </trkpt>
      <trkpt lat="47.2909" lon="-1.57021">
        <ele>32</ele>
        <time>2019-10-17T14:19:04.000Z</time>
      </trkpt>
      <trkpt lat="47.29087" lon="-1.57023">
        <ele>32</ele>
        <time>2019-10-17T14:19:05.000Z</time>
      </trkpt>
      <trkpt lat="47.29084" lon="-1.57026">
        <ele>32</ele>
        <time>2019-10-17T14:19:06.000Z</time>
      </trkpt>
      <trkpt lat="47.29081" lon="-1.57029">
        <ele>32</ele>
        <time>2019-10-17T14:19:07.000Z</time>
      </trkpt>
      <trkpt lat="47.29078" lon="-1.57033">
        <ele>32</ele>
        <time>2019-10-17T14:19:08.000Z</time>
      </trkpt>
      <trkpt lat="47.29076" lon="-1.57037">
        <ele>32</ele>
        <time>2019-10-17T14:19:09.000Z</time>
      </trkpt>
      <trkpt lat="47.29073" lon="-1.57041">
        <ele>32</ele>
        <time>2019-10-17T14:19:10.000Z</time>
      </trkpt>
      <trkpt lat="47.2907" lon="-1.57045">
        <ele>32</ele>
        <time>2019-10-17T14:19:11.000Z</time>
      </trkpt>
      <trkpt lat="47.29067" lon="-1.57048">
        <ele>32</ele>
        <time>2019-10-17T14:19:12.000Z</time>
      </trkpt>
      <trkpt lat="47.29065" lon="-1.57052">
        <ele>32</ele>
        <time>2019-10-17T14:19:13.000Z</time>
      </trkpt>
      <trkpt lat="47.29062" lon="-1.57056">
        <ele>32</ele>
        <time>2019-10-17T14:19:14.000Z</time>
      </trkpt>
      <trkpt lat="47.2906" lon="-1.5706">
        <ele>32</ele>
        <time>2019-10-17T14:19:15.000Z</time>
      </trkpt>
      <trkpt lat="47.29058" lon="-1.57065">
        <ele>32</ele>
        <time>2019-10-17T14:19:16.000Z</time>
      </trkpt>
      <trkpt lat="47.29055" lon="-1.5707">
        <ele>32</ele>
        <time>2019-10-17T14:19:17.000Z</time>
      </trkpt>
      <trkpt lat="47.29052" lon="-1.57074">
        <ele>32</ele>
        <time>2019-10-17T14:19:18.000Z</time>
      </trkpt>
      <trkpt lat="47.29048" lon="-1.57078">
        <ele>32</ele>
        <time>2019-10-17T14:19:19.000Z</time>
      </trkpt>
      <trkpt lat="47.29045" lon="-1.57081">
        <ele>32</ele>
        <time>2019-10-17T14:19:20.000Z</time>
      </trkpt>
      <trkpt lat="47.29041" lon="-1.57085">
        <ele>32</ele>
        <time>2019-10-17T14:19:21.000Z</time>
      </trkpt>
      <trkpt lat="47.29038" lon="-1.57088">
        <ele>32</ele>
        <time>2019-10-17T14:19:22.000Z</time>
      </trkpt>
      <trkpt lat="47.29035" lon="-1.57092">
        <ele>32</ele>
        <time>2019-10-17T14:19:23.000Z</time>
      </trkpt>
      <trkpt lat="47.29032" lon="-1.57097">
        <ele>31</ele>
        <time>2019-10-17T14:19:24.000Z</time>
      </trkpt>
      <trkpt lat="47.29031" lon="-1.57101">
        <ele>31</ele>
        <time>2019-10-17T14:19:25.000Z</time>
      </trkpt>
      <trkpt lat="47.29031" lon="-1.57105">
        <ele>31</ele>
        <time>2019-10-17T14:19:26.000Z</time>
      </trkpt>
      <trkpt lat="47.29031" lon="-1.5711">
        <ele>31</ele>
        <time>2019-10-17T14:19:27.000Z</time>
      </trkpt>
      <trkpt lat="47.29033" lon="-1.57115">
        <ele>31</ele>
        <time>2019-10-17T14:19:28.000Z</time>
      </trkpt>
      <trkpt lat="47.29035" lon="-1.5712">
        <ele>31</ele>
        <time>2019-10-17T14:19:29.000Z</time>
      </trkpt>
      <trkpt lat="47.29036" lon="-1.57125">
        <ele>31</ele>
        <time>2019-10-17T14:19:30.000Z</time>
      </trkpt>
      <trkpt lat="47.29037" lon="-1.5713">
        <ele>31</ele>
        <time>2019-10-17T14:19:31.000Z</time>
      </trkpt>
      <trkpt lat="47.29037" lon="-1.57136">
        <ele>31</ele>
        <time>2019-10-17T14:19:32.000Z</time>
      </trkpt>
      <trkpt lat="47.29038" lon="-1.57142">
        <ele>30</ele>
        <time>2019-10-17T14:19:33.000Z</time>
      </trkpt>
      <trkpt lat="47.29038" lon="-1.57149">
        <ele>30</ele>
        <time>2019-10-17T14:19:34.000Z</time>
      </trkpt>
      <trkpt lat="47.29039" lon="-1.57156">
        <ele>30</ele>
        <time>2019-10-17T14:19:35.000Z</time>
      </trkpt>
      <trkpt lat="47.2904" lon="-1.57163">
        <ele>30</ele>
        <time>2019-10-17T14:19:36.000Z</time>
      </trkpt>
      <trkpt lat="47.2904" lon="-1.5717">
        <ele>30</ele>
        <time>2019-10-17T14:19:37.000Z</time>
      </trkpt>
      <trkpt lat="47.2904" lon="-1.57176">
        <ele>29</ele>
        <time>2019-10-17T14:19:38.000Z</time>
      </trkpt>
      <trkpt lat="47.29038" lon="-1.57182">
        <ele>29</ele>
        <time>2019-10-17T14:19:39.000Z</time>
      </trkpt>
      <trkpt lat="47.29037" lon="-1.57187">
        <ele>29</ele>
        <time>2019-10-17T14:19:40.000Z</time>
      </trkpt>
      <trkpt lat="47.29035" lon="-1.57193">
        <ele>29</ele>
        <time>2019-10-17T14:19:41.000Z</time>
      </trkpt>
      <trkpt lat="47.29034" lon="-1.57199">
        <ele>29</ele>
        <time>2019-10-17T14:19:42.000Z</time>
      </trkpt>
      <trkpt lat="47.29033" lon="-1.57205">
        <ele>29</ele>
        <time>2019-10-17T14:19:43.000Z</time>
      </trkpt>
      <trkpt lat="47.29032" lon="-1.57212">
        <ele>29</ele>
        <time>2019-10-17T14:19:44.000Z</time>
      </trkpt>
      <trkpt lat="47.29033" lon="-1.57218">
        <ele>29</ele>
        <time>2019-10-17T14:19:45.000Z</time>
      </trkpt>
      <trkpt lat="47.29035" lon="-1.57224">
        <ele>29</ele>
        <time>2019-10-17T14:19:46.000Z</time>
      </trkpt>
      <trkpt lat="47.29035" lon="-1.5723">
        <ele>28</ele>
        <time>2019-10-17T14:19:47.000Z</time>
      </trkpt>
      <trkpt lat="47.29036" lon="-1.57235">
        <ele>28</ele>
        <time>2019-10-17T14:19:48.000Z</time>
      </trkpt>
      <trkpt lat="47.29037" lon="-1.57241">
        <ele>28</ele>
        <time>2019-10-17T14:19:49.000Z</time>
      </trkpt>
      <trkpt lat="47.29038" lon="-1.57247">
        <ele>29</ele>
        <time>2019-10-17T14:19:50.000Z</time>
      </trkpt>
      <trkpt lat="47.29038" lon="-1.57253">
        <ele>29</ele>
        <time>2019-10-17T14:19:51.000Z</time>
      </trkpt>
      <trkpt lat="47.29038" lon="-1.57259">
        <ele>29</ele>
        <time>2019-10-17T14:19:52.000Z</time>
      </trkpt>
      <trkpt lat="47.29038" lon="-1.57266">
        <ele>29</ele>
        <time>2019-10-17T14:19:53.000Z</time>
      </trkpt>
      <trkpt lat="47.29039" lon="-1.57273">
        <ele>29</ele>
        <time>2019-10-17T14:19:54.000Z</time>
      </trkpt>
      <trkpt lat="47.29039" lon="-1.5728">
        <ele>28</ele>
        <time>2019-10-17T14:19:55.000Z</time>
      </trkpt>
      <trkpt lat="47.29039" lon="-1.57287">
        <ele>28</ele>
        <time>2019-10-17T14:19:56.000Z</time>
      </trkpt>
      <trkpt lat="47.29039" lon="-1.57294">
        <ele>28</ele>
        <time>2019-10-17T14:19:57.000Z</time>
      </trkpt>
      <trkpt lat="47.29039" lon="-1.57301">
        <ele>28</ele>
        <time>2019-10-17T14:19:58.000Z</time>
      </trkpt>
      <trkpt lat="47.2904" lon="-1.57308">
        <ele>28</ele>
        <time>2019-10-17T14:19:59.000Z</time>
      </trkpt>
      <trkpt lat="47.29041" lon="-1.57315">
        <ele>28</ele>
        <time>2019-10-17T14:20:00.000Z</time>
      </trkpt>
      <trkpt lat="47.29041" lon="-1.57321">
        <ele>28</ele>
        <time>2019-10-17T14:20:01.000Z</time>
      </trkpt>
      <trkpt lat="47.29041" lon="-1.57328">
        <ele>28</ele>
        <time>2019-10-17T14:20:02.000Z</time>
      </trkpt>
      <trkpt lat="47.29042" lon="-1.57334">
        <ele>28</ele>
        <time>2019-10-17T14:20:03.000Z</time>
      </trkpt>
      <trkpt lat="47.29042" lon="-1.5734">
        <ele>27</ele>
        <time>2019-10-17T14:20:04.000Z</time>
      </trkpt>
      <trkpt lat="47.29042" lon="-1.57346">
        <ele>27</ele>
        <time>2019-10-17T14:20:05.000Z</time>
      </trkpt>
      <trkpt lat="47.29043" lon="-1.57352">
        <ele>27</ele>
        <time>2019-10-17T14:20:06.000Z</time>
      </trkpt>
      <trkpt lat="47.29042" lon="-1.57359">
        <ele>27</ele>
        <time>2019-10-17T14:20:07.000Z</time>
      </trkpt>
      <trkpt lat="47.29042" lon="-1.57366">
        <ele>27</ele>
        <time>2019-10-17T14:20:08.000Z</time>
      </trkpt>
      <trkpt lat="47.29042" lon="-1.57372">
        <ele>27</ele>
        <time>2019-10-17T14:20:09.000Z</time>
      </trkpt>
      <trkpt lat="47.29041" lon="-1.57379">
        <ele>27</ele>
        <time>2019-10-17T14:20:10.000Z</time>
      </trkpt>
      <trkpt lat="47.29041" lon="-1.57385">
        <ele>27</ele>
        <time>2019-10-17T14:20:11.000Z</time>
      </trkpt>
      <trkpt lat="47.29041" lon="-1.57391">
        <ele>27</ele>
        <time>2019-10-17T14:20:12.000Z</time>
      </trkpt>
      <trkpt lat="47.29042" lon="-1.57398">
        <ele>27</ele>
        <time>2019-10-17T14:20:13.000Z</time>
      </trkpt>
      <trkpt lat="47.29042" lon="-1.57405">
        <ele>26</ele>
        <time>2019-10-17T14:20:14.000Z</time>
      </trkpt>
      <trkpt lat="47.29042" lon="-1.57412">
        <ele>26</ele>
        <time>2019-10-17T14:20:15.000Z</time>
      </trkpt>
      <trkpt lat="47.29042" lon="-1.5742">
        <ele>26</ele>
        <time>2019-10-17T14:20:16.000Z</time>
      </trkpt>
      <trkpt lat="47.29041" lon="-1.57426">
        <ele>26</ele>
        <time>2019-10-17T14:20:17.000Z</time>
      </trkpt>
      <trkpt lat="47.29041" lon="-1.57432">
        <ele>26</ele>
        <time>2019-10-17T14:20:18.000Z</time>
      </trkpt>
      <trkpt lat="47.29041" lon="-1.57439">
        <ele>26</ele>
        <time>2019-10-17T14:20:19.000Z</time>
      </trkpt>
      <trkpt lat="47.29041" lon="-1.57446">
        <ele>26</ele>
        <time>2019-10-17T14:20:20.000Z</time>
      </trkpt>
      <trkpt lat="47.29041" lon="-1.57452">
        <ele>25</ele>
        <time>2019-10-17T14:20:21.000Z</time>
      </trkpt>
      <trkpt lat="47.2904" lon="-1.57458">
        <ele>25</ele>
        <time>2019-10-17T14:20:22.000Z</time>
      </trkpt>
      <trkpt lat="47.2904" lon="-1.57464">
        <ele>25</ele>
        <time>2019-10-17T14:20:23.000Z</time>
      </trkpt>
      <trkpt lat="47.2904" lon="-1.5747">
        <ele>25</ele>
        <time>2019-10-17T14:20:24.000Z</time>
      </trkpt>
      <trkpt lat="47.2904" lon="-1.57477">
        <ele>25</ele>
        <time>2019-10-17T14:20:25.000Z</time>
      </trkpt>
      <trkpt lat="47.2904" lon="-1.57483">
        <ele>25</ele>
        <time>2019-10-17T14:20:26.000Z</time>
      </trkpt>
      <trkpt lat="47.2904" lon="-1.57489">
        <ele>25</ele>
        <time>2019-10-17T14:20:27.000Z</time>
      </trkpt>
      <trkpt lat="47.29039" lon="-1.57494">
        <ele>25</ele>
        <time>2019-10-17T14:20:28.000Z</time>
      </trkpt>
      <trkpt lat="47.29039" lon="-1.575">
        <ele>25</ele>
        <time>2019-10-17T14:20:29.000Z</time>
      </trkpt>
      <trkpt lat="47.2904" lon="-1.57506">
        <ele>25</ele>
        <time>2019-10-17T14:20:30.000Z</time>
      </trkpt>
      <trkpt lat="47.2904" lon="-1.57512">
        <ele>24</ele>
        <time>2019-10-17T14:20:31.000Z</time>
      </trkpt>
      <trkpt lat="47.29039" lon="-1.57519">
        <ele>24</ele>
        <time>2019-10-17T14:20:32.000Z</time>
      </trkpt>
      <trkpt lat="47.29038" lon="-1.57525">
        <ele>24</ele>
        <time>2019-10-17T14:20:33.000Z</time>
      </trkpt>
      <trkpt lat="47.29037" lon="-1.57531">
        <ele>24</ele>
        <time>2019-10-17T14:20:34.000Z</time>
      </trkpt>
      <trkpt lat="47.29035" lon="-1.57537">
        <ele>24</ele>
        <time>2019-10-17T14:20:35.000Z</time>
      </trkpt>
      <trkpt lat="47.29033" lon="-1.57542">
        <ele>24</ele>
        <time>2019-10-17T14:20:36.000Z</time>
      </trkpt>
      <trkpt lat="47.2903" lon="-1.57547">
        <ele>24</ele>
        <time>2019-10-17T14:20:37.000Z</time>
      </trkpt>
      <trkpt lat="47.29028" lon="-1.57551">
        <ele>24</ele>
        <time>2019-10-17T14:20:38.000Z</time>
      </trkpt>
      <trkpt lat="47.29027" lon="-1.57554">
        <ele>24</ele>
        <time>2019-10-17T14:20:39.000Z</time>
      </trkpt>
      <trkpt lat="47.29029" lon="-1.57555">
        <ele>24</ele>
        <time>2019-10-17T14:20:40.000Z</time>
      </trkpt>
      <trkpt lat="47.29031" lon="-1.57555">
        <ele>24</ele>
        <time>2019-10-17T14:20:41.000Z</time>
      </trkpt>
      <trkpt lat="47.29035" lon="-1.57555">
        <ele>24</ele>
        <time>2019-10-17T14:20:42.000Z</time>
      </trkpt>
      <trkpt lat="47.29039" lon="-1.57555">
        <ele>25</ele>
        <time>2019-10-17T14:20:43.000Z</time>
      </trkpt>
      <trkpt lat="47.29044" lon="-1.57555">
        <ele>25</ele>
        <time>2019-10-17T14:20:44.000Z</time>
      </trkpt>
      <trkpt lat="47.29048" lon="-1.57555">
        <ele>25</ele>
        <time>2019-10-17T14:20:45.000Z</time>
      </trkpt>
      <trkpt lat="47.29053" lon="-1.57554">
        <ele>25</ele>
        <time>2019-10-17T14:20:46.000Z</time>
      </trkpt>
      <trkpt lat="47.29058" lon="-1.57554">
        <ele>25</ele>
        <time>2019-10-17T14:20:47.000Z</time>
      </trkpt>
      <trkpt lat="47.29064" lon="-1.57555">
        <ele>25</ele>
        <time>2019-10-17T14:20:48.000Z</time>
      </trkpt>
      <trkpt lat="47.2907" lon="-1.57556">
        <ele>25</ele>
        <time>2019-10-17T14:20:49.000Z</time>
      </trkpt>
      <trkpt lat="47.29076" lon="-1.57557">
        <ele>25</ele>
        <time>2019-10-17T14:20:50.000Z</time>
      </trkpt>
      <trkpt lat="47.29082" lon="-1.57558">
        <ele>25</ele>
        <time>2019-10-17T14:20:51.000Z</time>
      </trkpt>
      <trkpt lat="47.29089" lon="-1.57559">
        <ele>25</ele>
        <time>2019-10-17T14:20:52.000Z</time>
      </trkpt>
      <trkpt lat="47.29096" lon="-1.5756">
        <ele>24</ele>
        <time>2019-10-17T14:20:53.000Z</time>
      </trkpt>
      <trkpt lat="47.29103" lon="-1.57562">
        <ele>24</ele>
        <time>2019-10-17T14:20:54.000Z</time>
      </trkpt>
      <trkpt lat="47.2911" lon="-1.57563">
        <ele>24</ele>
        <time>2019-10-17T14:20:55.000Z</time>
      </trkpt>
      <trkpt lat="47.29118" lon="-1.57565">
        <ele>24</ele>
        <time>2019-10-17T14:20:56.000Z</time>
      </trkpt>
      <trkpt lat="47.29125" lon="-1.57566">
        <ele>24</ele>
        <time>2019-10-17T14:20:57.000Z</time>
      </trkpt>
      <trkpt lat="47.29133" lon="-1.57568">
        <ele>24</ele>
        <time>2019-10-17T14:20:58.000Z</time>
      </trkpt>
      <trkpt lat="47.2914" lon="-1.5757">
        <ele>24</ele>
        <time>2019-10-17T14:20:59.000Z</time>
      </trkpt>
      <trkpt lat="47.29148" lon="-1.57572">
        <ele>24</ele>
        <time>2019-10-17T14:21:00.000Z</time>
      </trkpt>
      <trkpt lat="47.29155" lon="-1.57574">
        <ele>23</ele>
        <time>2019-10-17T14:21:01.000Z</time>
      </trkpt>
      <trkpt lat="47.29162" lon="-1.57574">
        <ele>23</ele>
        <time>2019-10-17T14:21:02.000Z</time>
      </trkpt>
      <trkpt lat="47.29168" lon="-1.57571">
        <ele>23</ele>
        <time>2019-10-17T14:21:03.000Z</time>
      </trkpt>
      <trkpt lat="47.29174" lon="-1.57566">
        <ele>23</ele>
        <time>2019-10-17T14:21:04.000Z</time>
      </trkpt>
      <trkpt lat="47.29179" lon="-1.57558">
        <ele>23</ele>
        <time>2019-10-17T14:21:05.000Z</time>
      </trkpt>
      <trkpt lat="47.29183" lon="-1.5755">
        <ele>23</ele>
        <time>2019-10-17T14:21:06.000Z</time>
      </trkpt>
      <trkpt lat="47.29186" lon="-1.57541">
        <ele>22</ele>
        <time>2019-10-17T14:21:07.000Z</time>
      </trkpt>
      <trkpt lat="47.29189" lon="-1.57533">
        <ele>22</ele>
        <time>2019-10-17T14:21:08.000Z</time>
      </trkpt>
      <trkpt lat="47.29192" lon="-1.57527">
        <ele>22</ele>
        <time>2019-10-17T14:21:09.000Z</time>
      </trkpt>
      <trkpt lat="47.29196" lon="-1.57522">
        <ele>21</ele>
        <time>2019-10-17T14:21:10.000Z</time>
      </trkpt>
      <trkpt lat="47.292" lon="-1.5752">
        <ele>21</ele>
        <time>2019-10-17T14:21:11.000Z</time>
      </trkpt>
      <trkpt lat="47.29204" lon="-1.57521">
        <ele>21</ele>
        <time>2019-10-17T14:21:12.000Z</time>
      </trkpt>
      <trkpt lat="47.29208" lon="-1.57522">
        <ele>21</ele>
        <time>2019-10-17T14:21:13.000Z</time>
      </trkpt>
      <trkpt lat="47.29212" lon="-1.57523">
        <ele>21</ele>
        <time>2019-10-17T14:21:14.000Z</time>
      </trkpt>
      <trkpt lat="47.29217" lon="-1.57525">
        <ele>21</ele>
        <time>2019-10-17T14:21:15.000Z</time>
      </trkpt>
      <trkpt lat="47.29222" lon="-1.57528">
        <ele>20</ele>
        <time>2019-10-17T14:21:16.000Z</time>
      </trkpt>
      <trkpt lat="47.29227" lon="-1.57531">
        <ele>20</ele>
        <time>2019-10-17T14:21:17.000Z</time>
      </trkpt>
      <trkpt lat="47.29231" lon="-1.57535">
        <ele>19</ele>
        <time>2019-10-17T14:21:18.000Z</time>
      </trkpt>
      <trkpt lat="47.29234" lon="-1.5754">
        <ele>19</ele>
        <time>2019-10-17T14:21:19.000Z</time>
      </trkpt>
      <trkpt lat="47.29236" lon="-1.57544">
        <ele>19</ele>
        <time>2019-10-17T14:21:20.000Z</time>
      </trkpt>
      <trkpt lat="47.29236" lon="-1.57549">
        <ele>18</ele>
        <time>2019-10-17T14:21:21.000Z</time>
      </trkpt>
      <trkpt lat="47.29236" lon="-1.57556">
        <ele>18</ele>
        <time>2019-10-17T14:21:22.000Z</time>
      </trkpt>
      <trkpt lat="47.29236" lon="-1.57562">
        <ele>18</ele>
        <time>2019-10-17T14:21:23.000Z</time>
      </trkpt>
      <trkpt lat="47.29235" lon="-1.57569">
        <ele>17</ele>
        <time>2019-10-17T14:21:24.000Z</time>
      </trkpt>
      <trkpt lat="47.29233" lon="-1.57575">
        <ele>17</ele>
        <time>2019-10-17T14:21:25.000Z</time>
      </trkpt>
      <trkpt lat="47.29231" lon="-1.57582">
        <ele>17</ele>
        <time>2019-10-17T14:21:26.000Z</time>
      </trkpt>
      <trkpt lat="47.2923" lon="-1.57588">
        <ele>16</ele>
        <time>2019-10-17T14:21:27.000Z</time>
      </trkpt>
      <trkpt lat="47.29228" lon="-1.57594">
        <ele>16</ele>
        <time>2019-10-17T14:21:28.000Z</time>
      </trkpt>
      <trkpt lat="47.29227" lon="-1.576">
        <ele>16</ele>
        <time>2019-10-17T14:21:29.000Z</time>
      </trkpt>
      <trkpt lat="47.29226" lon="-1.57605">
        <ele>16</ele>
        <time>2019-10-17T14:21:30.000Z</time>
      </trkpt>
      <trkpt lat="47.29225" lon="-1.5761">
        <ele>15</ele>
        <time>2019-10-17T14:21:31.000Z</time>
      </trkpt>
      <trkpt lat="47.29224" lon="-1.57616">
        <ele>15</ele>
        <time>2019-10-17T14:21:32.000Z</time>
      </trkpt>
      <trkpt lat="47.29222" lon="-1.57622">
        <ele>15</ele>
        <time>2019-10-17T14:21:33.000Z</time>
      </trkpt>
      <trkpt lat="47.29221" lon="-1.57627">
        <ele>15</ele>
        <time>2019-10-17T14:21:34.000Z</time>
      </trkpt>
      <trkpt lat="47.29219" lon="-1.57633">
        <ele>15</ele>
        <time>2019-10-17T14:21:35.000Z</time>
      </trkpt>
      <trkpt lat="47.29218" lon="-1.57638">
        <ele>14</ele>
        <time>2019-10-17T14:21:36.000Z</time>
      </trkpt>
      <trkpt lat="47.29217" lon="-1.57644">
        <ele>14</ele>
        <time>2019-10-17T14:21:37.000Z</time>
      </trkpt>
      <trkpt lat="47.29215" lon="-1.5765">
        <ele>14</ele>
        <time>2019-10-17T14:21:38.000Z</time>
      </trkpt>
      <trkpt lat="47.29213" lon="-1.57657">
        <ele>14</ele>
        <time>2019-10-17T14:21:39.000Z</time>
      </trkpt>
      <trkpt lat="47.29212" lon="-1.57664">
        <ele>14</ele>
        <time>2019-10-17T14:21:40.000Z</time>
      </trkpt>
      <trkpt lat="47.29211" lon="-1.57671">
        <ele>14</ele>
        <time>2019-10-17T14:21:41.000Z</time>
      </trkpt>
      <trkpt lat="47.29209" lon="-1.57678">
        <ele>14</ele>
        <time>2019-10-17T14:21:42.000Z</time>
      </trkpt>
      <trkpt lat="47.29207" lon="-1.57685">
        <ele>13</ele>
        <time>2019-10-17T14:21:43.000Z</time>
      </trkpt>
      <trkpt lat="47.29206" lon="-1.57692">
        <ele>13</ele>
        <time>2019-10-17T14:21:44.000Z</time>
      </trkpt>
      <trkpt lat="47.29206" lon="-1.57699">
        <ele>13</ele>
        <time>2019-10-17T14:21:45.000Z</time>
      </trkpt>
      <trkpt lat="47.29209" lon="-1.57705">
        <ele>13</ele>
        <time>2019-10-17T14:21:46.000Z</time>
      </trkpt>
      <trkpt lat="47.29212" lon="-1.5771">
        <ele>13</ele>
        <time>2019-10-17T14:21:47.000Z</time>
      </trkpt>
      <trkpt lat="47.29214" lon="-1.57715">
        <ele>13</ele>
        <time>2019-10-17T14:21:48.000Z</time>
      </trkpt>
      <trkpt lat="47.29216" lon="-1.5772">
        <ele>13</ele>
        <time>2019-10-17T14:21:49.000Z</time>
      </trkpt>
      <trkpt lat="47.29217" lon="-1.57726">
        <ele>13</ele>
        <time>2019-10-17T14:21:50.000Z</time>
      </trkpt>
      <trkpt lat="47.29219" lon="-1.5773">
        <ele>13</ele>
        <time>2019-10-17T14:21:51.000Z</time>
      </trkpt>
      <trkpt lat="47.2922" lon="-1.57735">
        <ele>13</ele>
        <time>2019-10-17T14:21:52.000Z</time>
      </trkpt>
      <trkpt lat="47.29221" lon="-1.5774">
        <ele>13</ele>
        <time>2019-10-17T14:21:53.000Z</time>
      </trkpt>
      <trkpt lat="47.29222" lon="-1.57745">
        <ele>13</ele>
        <time>2019-10-17T14:21:54.000Z</time>
      </trkpt>
      <trkpt lat="47.29223" lon="-1.57752">
        <ele>13</ele>
        <time>2019-10-17T14:21:55.000Z</time>
      </trkpt>
      <trkpt lat="47.29225" lon="-1.57758">
        <ele>13</ele>
        <time>2019-10-17T14:21:56.000Z</time>
      </trkpt>
      <trkpt lat="47.29226" lon="-1.57763">
        <ele>13</ele>
        <time>2019-10-17T14:21:57.000Z</time>
      </trkpt>
      <trkpt lat="47.29228" lon="-1.57769">
        <ele>13</ele>
        <time>2019-10-17T14:21:58.000Z</time>
      </trkpt>
      <trkpt lat="47.2923" lon="-1.57773">
        <ele>13</ele>
        <time>2019-10-17T14:21:59.000Z</time>
      </trkpt>
      <trkpt lat="47.29231" lon="-1.57778">
        <ele>13</ele>
        <time>2019-10-17T14:22:00.000Z</time>
      </trkpt>
      <trkpt lat="47.29232" lon="-1.57783">
        <ele>13</ele>
        <time>2019-10-17T14:22:01.000Z</time>
      </trkpt>
      <trkpt lat="47.29233" lon="-1.57787">
        <ele>13</ele>
        <time>2019-10-17T14:22:02.000Z</time>
      </trkpt>
      <trkpt lat="47.29234" lon="-1.57791">
        <ele>13</ele>
        <time>2019-10-17T14:22:03.000Z</time>
      </trkpt>
      <trkpt lat="47.29236" lon="-1.57794">
        <ele>13</ele>
        <time>2019-10-17T14:22:04.000Z</time>
      </trkpt>
      <trkpt lat="47.29237" lon="-1.57797">
        <ele>13</ele>
        <time>2019-10-17T14:22:05.000Z</time>
      </trkpt>
      <trkpt lat="47.29238" lon="-1.57799">
        <ele>14</ele>
        <time>2019-10-17T14:22:06.000Z</time>
      </trkpt>
      <trkpt lat="47.29239" lon="-1.57804">
        <ele>14</ele>
        <time>2019-10-17T14:22:07.000Z</time>
      </trkpt>
      <trkpt lat="47.2924" lon="-1.57808">
        <ele>14</ele>
        <time>2019-10-17T14:22:08.000Z</time>
      </trkpt>
      <trkpt lat="47.2924" lon="-1.57812">
        <ele>14</ele>
        <time>2019-10-17T14:22:09.000Z</time>
      </trkpt>
      <trkpt lat="47.29241" lon="-1.57815">
        <ele>14</ele>
        <time>2019-10-17T14:22:10.000Z</time>
      </trkpt>
      <trkpt lat="47.29242" lon="-1.57819">
        <ele>14</ele>
        <time>2019-10-17T14:22:11.000Z</time>
      </trkpt>
      <trkpt lat="47.29243" lon="-1.57821">
        <ele>15</ele>
        <time>2019-10-17T14:22:12.000Z</time>
      </trkpt>
      <trkpt lat="47.29244" lon="-1.57825">
        <ele>15</ele>
        <time>2019-10-17T14:22:13.000Z</time>
      </trkpt>
      <trkpt lat="47.29245" lon="-1.57829">
        <ele>15</ele>
        <time>2019-10-17T14:22:14.000Z</time>
      </trkpt>
      <trkpt lat="47.29247" lon="-1.57833">
        <ele>16</ele>
        <time>2019-10-17T14:22:15.000Z</time>
      </trkpt>
      <trkpt lat="47.29249" lon="-1.57837">
        <ele>16</ele>
        <time>2019-10-17T14:22:16.000Z</time>
      </trkpt>
      <trkpt lat="47.2925" lon="-1.5784">
        <ele>16</ele>
        <time>2019-10-17T14:22:17.000Z</time>
      </trkpt>
      <trkpt lat="47.29252" lon="-1.57843">
        <ele>16</ele>
        <time>2019-10-17T14:22:18.000Z</time>
      </trkpt>
      <trkpt lat="47.29253" lon="-1.57846">
        <ele>17</ele>
        <time>2019-10-17T14:22:19.000Z</time>
      </trkpt>
      <trkpt lat="47.29255" lon="-1.57848">
        <ele>17</ele>
        <time>2019-10-17T14:22:20.000Z</time>
      </trkpt>
      <trkpt lat="47.29255" lon="-1.5785">
        <ele>17</ele>
        <time>2019-10-17T14:22:21.000Z</time>
      </trkpt>
      <trkpt lat="47.29256" lon="-1.57852">
        <ele>17</ele>
        <time>2019-10-17T14:22:22.000Z</time>
      </trkpt>
      <trkpt lat="47.29257" lon="-1.57854">
        <ele>18</ele>
        <time>2019-10-17T14:22:23.000Z</time>
      </trkpt>
      <trkpt lat="47.29258" lon="-1.57856">
        <ele>18</ele>
        <time>2019-10-17T14:22:24.000Z</time>
      </trkpt>
      <trkpt lat="47.29259" lon="-1.57857">
        <ele>18</ele>
        <time>2019-10-17T14:22:25.000Z</time>
      </trkpt>
      <trkpt lat="47.2926" lon="-1.5786">
        <ele>18</ele>
        <time>2019-10-17T14:22:26.000Z</time>
      </trkpt>
      <trkpt lat="47.29261" lon="-1.57862">
        <ele>19</ele>
        <time>2019-10-17T14:22:27.000Z</time>
      </trkpt>
      <trkpt lat="47.29263" lon="-1.57866">
        <ele>19</ele>
        <time>2019-10-17T14:22:28.000Z</time>
      </trkpt>
      <trkpt lat="47.29265" lon="-1.57869">
        <ele>19</ele>
        <time>2019-10-17T14:22:29.000Z</time>
      </trkpt>
      <trkpt lat="47.29266" lon="-1.57872">
        <ele>19</ele>
        <time>2019-10-17T14:22:30.000Z</time>
      </trkpt>
      <trkpt lat="47.29268" lon="-1.57876">
        <ele>19</ele>
        <time>2019-10-17T14:22:31.000Z</time>
      </trkpt>
      <trkpt lat="47.29269" lon="-1.57878">
        <ele>19</ele>
        <time>2019-10-17T14:22:32.000Z</time>
      </trkpt>
      <trkpt lat="47.2927" lon="-1.57881">
        <ele>19</ele>
        <time>2019-10-17T14:22:33.000Z</time>
      </trkpt>
      <trkpt lat="47.29272" lon="-1.57885">
        <ele>19</ele>
        <time>2019-10-17T14:22:34.000Z</time>
      </trkpt>
      <trkpt lat="47.29274" lon="-1.57888">
        <ele>19</ele>
        <time>2019-10-17T14:22:35.000Z</time>
      </trkpt>
      <trkpt lat="47.29276" lon="-1.57891">
        <ele>19</ele>
        <time>2019-10-17T14:22:36.000Z</time>
      </trkpt>
      <trkpt lat="47.29278" lon="-1.57894">
        <ele>19</ele>
        <time>2019-10-17T14:22:37.000Z</time>
      </trkpt>
      <trkpt lat="47.2928" lon="-1.57897">
        <ele>20</ele>
        <time>2019-10-17T14:22:38.000Z</time>
      </trkpt>
      <trkpt lat="47.29282" lon="-1.579">
        <ele>20</ele>
        <time>2019-10-17T14:22:39.000Z</time>
      </trkpt>
      <trkpt lat="47.29284" lon="-1.57903">
        <ele>20</ele>
        <time>2019-10-17T14:22:40.000Z</time>
      </trkpt>
      <trkpt lat="47.29285" lon="-1.57906">
        <ele>20</ele>
        <time>2019-10-17T14:22:41.000Z</time>
      </trkpt>
      <trkpt lat="47.29287" lon="-1.57908">
        <ele>20</ele>
        <time>2019-10-17T14:22:42.000Z</time>
      </trkpt>
      <trkpt lat="47.29288" lon="-1.57911">
        <ele>20</ele>
        <time>2019-10-17T14:22:43.000Z</time>
      </trkpt>
      <trkpt lat="47.2929" lon="-1.57915">
        <ele>21</ele>
        <time>2019-10-17T14:22:44.000Z</time>
      </trkpt>
      <trkpt lat="47.29291" lon="-1.57918">
        <ele>21</ele>
        <time>2019-10-17T14:22:45.000Z</time>
      </trkpt>
      <trkpt lat="47.29293" lon="-1.57921">
        <ele>21</ele>
        <time>2019-10-17T14:22:46.000Z</time>
      </trkpt>
      <trkpt lat="47.29294" lon="-1.57925">
        <ele>21</ele>
        <time>2019-10-17T14:22:47.000Z</time>
      </trkpt>
      <trkpt lat="47.29296" lon="-1.57928">
        <ele>21</ele>
        <time>2019-10-17T14:22:48.000Z</time>
      </trkpt>
      <trkpt lat="47.29298" lon="-1.57932">
        <ele>22</ele>
        <time>2019-10-17T14:22:49.000Z</time>
      </trkpt>
      <trkpt lat="47.293" lon="-1.57935">
        <ele>22</ele>
        <time>2019-10-17T14:22:50.000Z</time>
      </trkpt>
      <trkpt lat="47.29302" lon="-1.57939">
        <ele>22</ele>
        <time>2019-10-17T14:22:51.000Z</time>
      </trkpt>
      <trkpt lat="47.29303" lon="-1.57944">
        <ele>22</ele>
        <time>2019-10-17T14:22:52.000Z</time>
      </trkpt>
      <trkpt lat="47.29305" lon="-1.57947">
        <ele>22</ele>
        <time>2019-10-17T14:22:53.000Z</time>
      </trkpt>
      <trkpt lat="47.29306" lon="-1.5795">
        <ele>23</ele>
        <time>2019-10-17T14:22:54.000Z</time>
      </trkpt>
      <trkpt lat="47.29307" lon="-1.57953">
        <ele>23</ele>
        <time>2019-10-17T14:22:55.000Z</time>
      </trkpt>
      <trkpt lat="47.29308" lon="-1.57955">
        <ele>23</ele>
        <time>2019-10-17T14:22:56.000Z</time>
      </trkpt>
      <trkpt lat="47.29309" lon="-1.57958">
        <ele>24</ele>
        <time>2019-10-17T14:22:57.000Z</time>
      </trkpt>
      <trkpt lat="47.29311" lon="-1.57962">
        <ele>24</ele>
        <time>2019-10-17T14:22:58.000Z</time>
      </trkpt>
      <trkpt lat="47.29313" lon="-1.57965">
        <ele>24</ele>
        <time>2019-10-17T14:22:59.000Z</time>
      </trkpt>
      <trkpt lat="47.29314" lon="-1.57969">
        <ele>24</ele>
        <time>2019-10-17T14:23:00.000Z</time>
      </trkpt>
      <trkpt lat="47.29316" lon="-1.57972">
        <ele>25</ele>
        <time>2019-10-17T14:23:01.000Z</time>
      </trkpt>
      <trkpt lat="47.29317" lon="-1.57975">
        <ele>25</ele>
        <time>2019-10-17T14:23:02.000Z</time>
      </trkpt>
      <trkpt lat="47.29319" lon="-1.57978">
        <ele>25</ele>
        <time>2019-10-17T14:23:03.000Z</time>
      </trkpt>
      <trkpt lat="47.2932" lon="-1.57982">
        <ele>26</ele>
        <time>2019-10-17T14:23:04.000Z</time>
      </trkpt>
      <trkpt lat="47.29322" lon="-1.57985">
        <ele>26</ele>
        <time>2019-10-17T14:23:05.000Z</time>
      </trkpt>
      <trkpt lat="47.29323" lon="-1.57988">
        <ele>26</ele>
        <time>2019-10-17T14:23:06.000Z</time>
      </trkpt>
      <trkpt lat="47.29325" lon="-1.57991">
        <ele>26</ele>
        <time>2019-10-17T14:23:07.000Z</time>
      </trkpt>
      <trkpt lat="47.29326" lon="-1.57994">
        <ele>26</ele>
        <time>2019-10-17T14:23:08.000Z</time>
      </trkpt>
      <trkpt lat="47.29328" lon="-1.57998">
        <ele>27</ele>
        <time>2019-10-17T14:23:09.000Z</time>
      </trkpt>
      <trkpt lat="47.2933" lon="-1.58002">
        <ele>27</ele>
        <time>2019-10-17T14:23:10.000Z</time>
      </trkpt>
      <trkpt lat="47.29332" lon="-1.58005">
        <ele>27</ele>
        <time>2019-10-17T14:23:11.000Z</time>
      </trkpt>
      <trkpt lat="47.29334" lon="-1.58009">
        <ele>27</ele>
        <time>2019-10-17T14:23:12.000Z</time>
      </trkpt>
      <trkpt lat="47.29335" lon="-1.58013">
        <ele>27</ele>
        <time>2019-10-17T14:23:13.000Z</time>
      </trkpt>
      <trkpt lat="47.29337" lon="-1.58017">
        <ele>27</ele>
        <time>2019-10-17T14:23:14.000Z</time>
      </trkpt>
      <trkpt lat="47.29339" lon="-1.58021">
        <ele>27</ele>
        <time>2019-10-17T14:23:15.000Z</time>
      </trkpt>
      <trkpt lat="47.2934" lon="-1.58024">
        <ele>27</ele>
        <time>2019-10-17T14:23:16.000Z</time>
      </trkpt>
      <trkpt lat="47.29341" lon="-1.58027">
        <ele>28</ele>
        <time>2019-10-17T14:23:17.000Z</time>
      </trkpt>
      <trkpt lat="47.29342" lon="-1.5803">
        <ele>28</ele>
        <time>2019-10-17T14:23:18.000Z</time>
      </trkpt>
      <trkpt lat="47.29343" lon="-1.58033">
        <ele>28</ele>
        <time>2019-10-17T14:23:19.000Z</time>
      </trkpt>
      <trkpt lat="47.29344" lon="-1.58036">
        <ele>28</ele>
        <time>2019-10-17T14:23:20.000Z</time>
      </trkpt>
      <trkpt lat="47.29346" lon="-1.58039">
        <ele>28</ele>
        <time>2019-10-17T14:23:21.000Z</time>
      </trkpt>
      <trkpt lat="47.29348" lon="-1.58041">
        <ele>28</ele>
        <time>2019-10-17T14:23:22.000Z</time>
      </trkpt>
      <trkpt lat="47.2935" lon="-1.58044">
        <ele>28</ele>
        <time>2019-10-17T14:23:23.000Z</time>
      </trkpt>
      <trkpt lat="47.29353" lon="-1.58044">
        <ele>28</ele>
        <time>2019-10-17T14:23:24.000Z</time>
      </trkpt>
      <trkpt lat="47.29356" lon="-1.58043">
        <ele>28</ele>
        <time>2019-10-17T14:23:25.000Z</time>
      </trkpt>
      <trkpt lat="47.29359" lon="-1.58043">
        <ele>29</ele>
        <time>2019-10-17T14:23:26.000Z</time>
      </trkpt>
      <trkpt lat="47.29362" lon="-1.58043">
        <ele>29</ele>
        <time>2019-10-17T14:23:27.000Z</time>
      </trkpt>
      <trkpt lat="47.29364" lon="-1.58043">
        <ele>29</ele>
        <time>2019-10-17T14:23:28.000Z</time>
      </trkpt>
      <trkpt lat="47.29366" lon="-1.58042">
        <ele>29</ele>
        <time>2019-10-17T14:23:29.000Z</time>
      </trkpt>
      <trkpt lat="47.29369" lon="-1.58042">
        <ele>29</ele>
        <time>2019-10-17T14:23:30.000Z</time>
      </trkpt>
      <trkpt lat="47.29372" lon="-1.58041">
        <ele>30</ele>
        <time>2019-10-17T14:23:31.000Z</time>
      </trkpt>
      <trkpt lat="47.29375" lon="-1.58041">
        <ele>30</ele>
        <time>2019-10-17T14:23:32.000Z</time>
      </trkpt>
      <trkpt lat="47.29378" lon="-1.58042">
        <ele>30</ele>
        <time>2019-10-17T14:23:33.000Z</time>
      </trkpt>
      <trkpt lat="47.29381" lon="-1.58043">
        <ele>30</ele>
        <time>2019-10-17T14:23:34.000Z</time>
      </trkpt>
      <trkpt lat="47.29384" lon="-1.58046">
        <ele>31</ele>
        <time>2019-10-17T14:23:35.000Z</time>
      </trkpt>
      <trkpt lat="47.29386" lon="-1.5805">
        <ele>31</ele>
        <time>2019-10-17T14:23:36.000Z</time>
      </trkpt>
      <trkpt lat="47.29388" lon="-1.58054">
        <ele>31</ele>
        <time>2019-10-17T14:23:37.000Z</time>
      </trkpt>
      <trkpt lat="47.2939" lon="-1.5806">
        <ele>31</ele>
        <time>2019-10-17T14:23:38.000Z</time>
      </trkpt>
      <trkpt lat="47.29392" lon="-1.58065">
        <ele>31</ele>
        <time>2019-10-17T14:23:39.000Z</time>
      </trkpt>
      <trkpt lat="47.29393" lon="-1.5807">
        <ele>31</ele>
        <time>2019-10-17T14:23:40.000Z</time>
      </trkpt>
      <trkpt lat="47.29396" lon="-1.58074">
        <ele>31</ele>
        <time>2019-10-17T14:23:41.000Z</time>
      </trkpt>
      <trkpt lat="47.29398" lon="-1.58079">
        <ele>31</ele>
        <time>2019-10-17T14:23:42.000Z</time>
      </trkpt>
      <trkpt lat="47.294" lon="-1.58084">
        <ele>31</ele>
        <time>2019-10-17T14:23:43.000Z</time>
      </trkpt>
      <trkpt lat="47.29401" lon="-1.58089">
        <ele>31</ele>
        <time>2019-10-17T14:23:44.000Z</time>
      </trkpt>
      <trkpt lat="47.29403" lon="-1.58094">
        <ele>31</ele>
        <time>2019-10-17T14:23:45.000Z</time>
      </trkpt>
      <trkpt lat="47.29405" lon="-1.58099">
        <ele>31</ele>
        <time>2019-10-17T14:23:46.000Z</time>
      </trkpt>
      <trkpt lat="47.29407" lon="-1.58104">
        <ele>31</ele>
        <time>2019-10-17T14:23:47.000Z</time>
      </trkpt>
      <trkpt lat="47.29409" lon="-1.58109">
        <ele>31</ele>
        <time>2019-10-17T14:23:48.000Z</time>
      </trkpt>
      <trkpt lat="47.29411" lon="-1.58114">
        <ele>31</ele>
        <time>2019-10-17T14:23:49.000Z</time>
      </trkpt>
      <trkpt lat="47.29414" lon="-1.5812">
        <ele>31</ele>
        <time>2019-10-17T14:23:50.000Z</time>
      </trkpt>
      <trkpt lat="47.29416" lon="-1.58126">
        <ele>31</ele>
        <time>2019-10-17T14:23:51.000Z</time>
      </trkpt>
      <trkpt lat="47.29417" lon="-1.58131">
        <ele>31</ele>
        <time>2019-10-17T14:23:52.000Z</time>
      </trkpt>
      <trkpt lat="47.29419" lon="-1.58137">
        <ele>31</ele>
        <time>2019-10-17T14:23:53.000Z</time>
      </trkpt>
      <trkpt lat="47.29421" lon="-1.58143">
        <ele>31</ele>
        <time>2019-10-17T14:23:54.000Z</time>
      </trkpt>
      <trkpt lat="47.29423" lon="-1.58149">
        <ele>31</ele>
        <time>2019-10-17T14:23:55.000Z</time>
      </trkpt>
      <trkpt lat="47.29425" lon="-1.58155">
        <ele>31</ele>
        <time>2019-10-17T14:23:56.000Z</time>
      </trkpt>
      <trkpt lat="47.29426" lon="-1.58161">
        <ele>31</ele>
        <time>2019-10-17T14:23:57.000Z</time>
      </trkpt>
      <trkpt lat="47.29428" lon="-1.58167">
        <ele>31</ele>
        <time>2019-10-17T14:23:58.000Z</time>
      </trkpt>
      <trkpt lat="47.29429" lon="-1.58173">
        <ele>31</ele>
        <time>2019-10-17T14:23:59.000Z</time>
      </trkpt>
      <trkpt lat="47.29431" lon="-1.58179">
        <ele>31</ele>
        <time>2019-10-17T14:24:00.000Z</time>
      </trkpt>
      <trkpt lat="47.29432" lon="-1.58186">
        <ele>31</ele>
        <time>2019-10-17T14:24:01.000Z</time>
      </trkpt>
      <trkpt lat="47.29432" lon="-1.58193">
        <ele>31</ele>
        <time>2019-10-17T14:24:02.000Z</time>
      </trkpt>
      <trkpt lat="47.29431" lon="-1.582">
        <ele>31</ele>
        <time>2019-10-17T14:24:03.000Z</time>
      </trkpt>
      <trkpt lat="47.2943" lon="-1.58207">
        <ele>31</ele>
        <time>2019-10-17T14:24:04.000Z</time>
      </trkpt>
      <trkpt lat="47.2943" lon="-1.58213">
        <ele>31</ele>
        <time>2019-10-17T14:24:05.000Z</time>
      </trkpt>
      <trkpt lat="47.2943" lon="-1.5822">
        <ele>31</ele>
        <time>2019-10-17T14:24:06.000Z</time>
      </trkpt>
      <trkpt lat="47.29431" lon="-1.58226">
        <ele>31</ele>
        <time>2019-10-17T14:24:07.000Z</time>
      </trkpt>
      <trkpt lat="47.29431" lon="-1.58233">
        <ele>31</ele>
        <time>2019-10-17T14:24:08.000Z</time>
      </trkpt>
      <trkpt lat="47.29433" lon="-1.58239">
        <ele>31</ele>
        <time>2019-10-17T14:24:09.000Z</time>
      </trkpt>
      <trkpt lat="47.29435" lon="-1.58247">
        <ele>31</ele>
        <time>2019-10-17T14:24:10.000Z</time>
      </trkpt>
      <trkpt lat="47.29437" lon="-1.58254">
        <ele>31</ele>
        <time>2019-10-17T14:24:11.000Z</time>
      </trkpt>
      <trkpt lat="47.2944" lon="-1.58262">
        <ele>31</ele>
        <time>2019-10-17T14:24:12.000Z</time>
      </trkpt>
      <trkpt lat="47.29441" lon="-1.58269">
        <ele>31</ele>
        <time>2019-10-17T14:24:13.000Z</time>
      </trkpt>
      <trkpt lat="47.29443" lon="-1.58277">
        <ele>31</ele>
        <time>2019-10-17T14:24:14.000Z</time>
      </trkpt>
      <trkpt lat="47.29445" lon="-1.58284">
        <ele>31</ele>
        <time>2019-10-17T14:24:15.000Z</time>
      </trkpt>
      <trkpt lat="47.29447" lon="-1.58291">
        <ele>30</ele>
        <time>2019-10-17T14:24:16.000Z</time>
      </trkpt>
      <trkpt lat="47.29447" lon="-1.58297">
        <ele>30</ele>
        <time>2019-10-17T14:24:17.000Z</time>
      </trkpt>
      <trkpt lat="47.29448" lon="-1.58304">
        <ele>30</ele>
        <time>2019-10-17T14:24:18.000Z</time>
      </trkpt>
      <trkpt lat="47.2945" lon="-1.58312">
        <ele>30</ele>
        <time>2019-10-17T14:24:19.000Z</time>
      </trkpt>
      <trkpt lat="47.29451" lon="-1.58319">
        <ele>30</ele>
        <time>2019-10-17T14:24:20.000Z</time>
      </trkpt>
      <trkpt lat="47.29453" lon="-1.58327">
        <ele>29</ele>
        <time>2019-10-17T14:24:21.000Z</time>
      </trkpt>
      <trkpt lat="47.29455" lon="-1.58335">
        <ele>29</ele>
        <time>2019-10-17T14:24:22.000Z</time>
      </trkpt>
      <trkpt lat="47.29456" lon="-1.58342">
        <ele>29</ele>
        <time>2019-10-17T14:24:23.000Z</time>
      </trkpt>
      <trkpt lat="47.29458" lon="-1.58349">
        <ele>29</ele>
        <time>2019-10-17T14:24:24.000Z</time>
      </trkpt>
      <trkpt lat="47.2946" lon="-1.58357">
        <ele>29</ele>
        <time>2019-10-17T14:24:25.000Z</time>
      </trkpt>
      <trkpt lat="47.29461" lon="-1.58365">
        <ele>28</ele>
        <time>2019-10-17T14:24:26.000Z</time>
      </trkpt>
      <trkpt lat="47.29462" lon="-1.58372">
        <ele>28</ele>
        <time>2019-10-17T14:24:27.000Z</time>
      </trkpt>
      <trkpt lat="47.29464" lon="-1.5838">
        <ele>28</ele>
        <time>2019-10-17T14:24:28.000Z</time>
      </trkpt>
      <trkpt lat="47.29464" lon="-1.58387">
        <ele>28</ele>
        <time>2019-10-17T14:24:29.000Z</time>
      </trkpt>
      <trkpt lat="47.29463" lon="-1.58395">
        <ele>28</ele>
        <time>2019-10-17T14:24:30.000Z</time>
      </trkpt>
      <trkpt lat="47.29461" lon="-1.58401">
        <ele>28</ele>
        <time>2019-10-17T14:24:31.000Z</time>
      </trkpt>
      <trkpt lat="47.29458" lon="-1.58407">
        <ele>27</ele>
        <time>2019-10-17T14:24:32.000Z</time>
      </trkpt>
      <trkpt lat="47.29454" lon="-1.58412">
        <ele>27</ele>
        <time>2019-10-17T14:24:33.000Z</time>
      </trkpt>
      <trkpt lat="47.29451" lon="-1.58418">
        <ele>27</ele>
        <time>2019-10-17T14:24:34.000Z</time>
      </trkpt>
      <trkpt lat="47.29448" lon="-1.58424">
        <ele>28</ele>
        <time>2019-10-17T14:24:35.000Z</time>
      </trkpt>
      <trkpt lat="47.29446" lon="-1.5843">
        <ele>28</ele>
        <time>2019-10-17T14:24:36.000Z</time>
      </trkpt>
      <trkpt lat="47.29444" lon="-1.58435">
        <ele>28</ele>
        <time>2019-10-17T14:24:37.000Z</time>
      </trkpt>
      <trkpt lat="47.29441" lon="-1.58439">
        <ele>28</ele>
        <time>2019-10-17T14:24:38.000Z</time>
      </trkpt>
      <trkpt lat="47.2944" lon="-1.58443">
        <ele>28</ele>
        <time>2019-10-17T14:24:39.000Z</time>
      </trkpt>
      <trkpt lat="47.29439" lon="-1.58447">
        <ele>28</ele>
        <time>2019-10-17T14:24:40.000Z</time>
      </trkpt>
      <trkpt lat="47.29439" lon="-1.58451">
        <ele>28</ele>
        <time>2019-10-17T14:24:41.000Z</time>
      </trkpt>
      <trkpt lat="47.29439" lon="-1.58455">
        <ele>28</ele>
        <time>2019-10-17T14:24:42.000Z</time>
      </trkpt>
      <trkpt lat="47.2944" lon="-1.5846">
        <ele>28</ele>
        <time>2019-10-17T14:24:43.000Z</time>
      </trkpt>
      <trkpt lat="47.29441" lon="-1.58465">
        <ele>28</ele>
        <time>2019-10-17T14:24:44.000Z</time>
      </trkpt>
      <trkpt lat="47.29442" lon="-1.5847">
        <ele>28</ele>
        <time>2019-10-17T14:24:45.000Z</time>
      </trkpt>
      <trkpt lat="47.29443" lon="-1.58477">
        <ele>27</ele>
        <time>2019-10-17T14:24:46.000Z</time>
      </trkpt>
      <trkpt lat="47.29444" lon="-1.58483">
        <ele>27</ele>
        <time>2019-10-17T14:24:47.000Z</time>
      </trkpt>
      <trkpt lat="47.29446" lon="-1.5849">
        <ele>27</ele>
        <time>2019-10-17T14:24:48.000Z</time>
      </trkpt>
      <trkpt lat="47.29448" lon="-1.58496">
        <ele>27</ele>
        <time>2019-10-17T14:24:49.000Z</time>
      </trkpt>
      <trkpt lat="47.2945" lon="-1.58503">
        <ele>27</ele>
        <time>2019-10-17T14:24:50.000Z</time>
      </trkpt>
      <trkpt lat="47.29452" lon="-1.58511">
        <ele>27</ele>
        <time>2019-10-17T14:24:51.000Z</time>
      </trkpt>
      <trkpt lat="47.29454" lon="-1.58518">
        <ele>27</ele>
        <time>2019-10-17T14:24:52.000Z</time>
      </trkpt>
      <trkpt lat="47.29455" lon="-1.58525">
        <ele>26</ele>
        <time>2019-10-17T14:24:53.000Z</time>
      </trkpt>
      <trkpt lat="47.29456" lon="-1.58532">
        <ele>26</ele>
        <time>2019-10-17T14:24:54.000Z</time>
      </trkpt>
      <trkpt lat="47.29457" lon="-1.58539">
        <ele>26</ele>
        <time>2019-10-17T14:24:55.000Z</time>
      </trkpt>
      <trkpt lat="47.29458" lon="-1.58546">
        <ele>26</ele>
        <time>2019-10-17T14:24:56.000Z</time>
      </trkpt>
      <trkpt lat="47.29458" lon="-1.58553">
        <ele>26</ele>
        <time>2019-10-17T14:24:57.000Z</time>
      </trkpt>
      <trkpt lat="47.29459" lon="-1.5856">
        <ele>26</ele>
        <time>2019-10-17T14:24:58.000Z</time>
      </trkpt>
      <trkpt lat="47.29459" lon="-1.58568">
        <ele>26</ele>
        <time>2019-10-17T14:24:59.000Z</time>
      </trkpt>
      <trkpt lat="47.29459" lon="-1.58575">
        <ele>26</ele>
        <time>2019-10-17T14:25:00.000Z</time>
      </trkpt>
      <trkpt lat="47.2946" lon="-1.58581">
        <ele>26</ele>
        <time>2019-10-17T14:25:01.000Z</time>
      </trkpt>
      <trkpt lat="47.29461" lon="-1.58588">
        <ele>26</ele>
        <time>2019-10-17T14:25:02.000Z</time>
      </trkpt>
      <trkpt lat="47.29461" lon="-1.58595">
        <ele>26</ele>
        <time>2019-10-17T14:25:03.000Z</time>
      </trkpt>
      <trkpt lat="47.29462" lon="-1.58601">
        <ele>26</ele>
        <time>2019-10-17T14:25:04.000Z</time>
      </trkpt>
      <trkpt lat="47.29463" lon="-1.58608">
        <ele>26</ele>
        <time>2019-10-17T14:25:05.000Z</time>
      </trkpt>
      <trkpt lat="47.29464" lon="-1.58614">
        <ele>26</ele>
        <time>2019-10-17T14:25:06.000Z</time>
      </trkpt>
      <trkpt lat="47.29465" lon="-1.58621">
        <ele>26</ele>
        <time>2019-10-17T14:25:07.000Z</time>
      </trkpt>
      <trkpt lat="47.29466" lon="-1.58628">
        <ele>26</ele>
        <time>2019-10-17T14:25:08.000Z</time>
      </trkpt>
      <trkpt lat="47.29466" lon="-1.58635">
        <ele>26</ele>
        <time>2019-10-17T14:25:09.000Z</time>
      </trkpt>
      <trkpt lat="47.29466" lon="-1.58642">
        <ele>26</ele>
        <time>2019-10-17T14:25:10.000Z</time>
      </trkpt>
      <trkpt lat="47.29466" lon="-1.58648">
        <ele>26</ele>
        <time>2019-10-17T14:25:11.000Z</time>
      </trkpt>
      <trkpt lat="47.29466" lon="-1.58654">
        <ele>26</ele>
        <time>2019-10-17T14:25:12.000Z</time>
      </trkpt>
      <trkpt lat="47.29467" lon="-1.5866">
        <ele>26</ele>
        <time>2019-10-17T14:25:13.000Z</time>
      </trkpt>
      <trkpt lat="47.29466" lon="-1.58667">
        <ele>26</ele>
        <time>2019-10-17T14:25:14.000Z</time>
      </trkpt>
      <trkpt lat="47.29466" lon="-1.58674">
        <ele>26</ele>
        <time>2019-10-17T14:25:15.000Z</time>
      </trkpt>
      <trkpt lat="47.29466" lon="-1.5868">
        <ele>26</ele>
        <time>2019-10-17T14:25:16.000Z</time>
      </trkpt>
      <trkpt lat="47.29466" lon="-1.58687">
        <ele>26</ele>
        <time>2019-10-17T14:25:17.000Z</time>
      </trkpt>
      <trkpt lat="47.29466" lon="-1.58694">
        <ele>26</ele>
        <time>2019-10-17T14:25:18.000Z</time>
      </trkpt>
      <trkpt lat="47.29466" lon="-1.58701">
        <ele>26</ele>
        <time>2019-10-17T14:25:19.000Z</time>
      </trkpt>
      <trkpt lat="47.29465" lon="-1.58708">
        <ele>27</ele>
        <time>2019-10-17T14:25:20.000Z</time>
      </trkpt>
      <trkpt lat="47.29464" lon="-1.58715">
        <ele>27</ele>
        <time>2019-10-17T14:25:21.000Z</time>
      </trkpt>
      <trkpt lat="47.29464" lon="-1.58722">
        <ele>27</ele>
        <time>2019-10-17T14:25:22.000Z</time>
      </trkpt>
      <trkpt lat="47.29463" lon="-1.58729">
        <ele>27</ele>
        <time>2019-10-17T14:25:23.000Z</time>
      </trkpt>
      <trkpt lat="47.29463" lon="-1.58736">
        <ele>27</ele>
        <time>2019-10-17T14:25:24.000Z</time>
      </trkpt>
      <trkpt lat="47.29464" lon="-1.58742">
        <ele>27</ele>
        <time>2019-10-17T14:25:25.000Z</time>
      </trkpt>
      <trkpt lat="47.29465" lon="-1.58749">
        <ele>27</ele>
        <time>2019-10-17T14:25:26.000Z</time>
      </trkpt>
      <trkpt lat="47.29466" lon="-1.58755">
        <ele>27</ele>
        <time>2019-10-17T14:25:27.000Z</time>
      </trkpt>
      <trkpt lat="47.29467" lon="-1.58762">
        <ele>27</ele>
        <time>2019-10-17T14:25:28.000Z</time>
      </trkpt>
      <trkpt lat="47.29468" lon="-1.58769">
        <ele>27</ele>
        <time>2019-10-17T14:25:29.000Z</time>
      </trkpt>
      <trkpt lat="47.29468" lon="-1.58775">
        <ele>27</ele>
        <time>2019-10-17T14:25:30.000Z</time>
      </trkpt>
      <trkpt lat="47.29468" lon="-1.58781">
        <ele>27</ele>
        <time>2019-10-17T14:25:31.000Z</time>
      </trkpt>
      <trkpt lat="47.29467" lon="-1.58788">
        <ele>27</ele>
        <time>2019-10-17T14:25:32.000Z</time>
      </trkpt>
      <trkpt lat="47.29465" lon="-1.58794">
        <ele>27</ele>
        <time>2019-10-17T14:25:33.000Z</time>
      </trkpt>
      <trkpt lat="47.29463" lon="-1.58799">
        <ele>27</ele>
        <time>2019-10-17T14:25:34.000Z</time>
      </trkpt>
      <trkpt lat="47.29461" lon="-1.58803">
        <ele>27</ele>
        <time>2019-10-17T14:25:35.000Z</time>
      </trkpt>
      <trkpt lat="47.29458" lon="-1.58808">
        <ele>27</ele>
        <time>2019-10-17T14:25:36.000Z</time>
      </trkpt>
      <trkpt lat="47.29456" lon="-1.58813">
        <ele>26</ele>
        <time>2019-10-17T14:25:37.000Z</time>
      </trkpt>
      <trkpt lat="47.29455" lon="-1.58819">
        <ele>26</ele>
        <time>2019-10-17T14:25:38.000Z</time>
      </trkpt>
      <trkpt lat="47.29453" lon="-1.58825">
        <ele>26</ele>
        <time>2019-10-17T14:25:39.000Z</time>
      </trkpt>
      <trkpt lat="47.29453" lon="-1.58831">
        <ele>26</ele>
        <time>2019-10-17T14:25:40.000Z</time>
      </trkpt>
      <trkpt lat="47.29453" lon="-1.58838">
        <ele>26</ele>
        <time>2019-10-17T14:25:41.000Z</time>
      </trkpt>
      <trkpt lat="47.29454" lon="-1.58845">
        <ele>26</ele>
        <time>2019-10-17T14:25:42.000Z</time>
      </trkpt>
      <trkpt lat="47.29455" lon="-1.58852">
        <ele>26</ele>
        <time>2019-10-17T14:25:43.000Z</time>
      </trkpt>
      <trkpt lat="47.29457" lon="-1.58859">
        <ele>26</ele>
        <time>2019-10-17T14:25:44.000Z</time>
      </trkpt>
      <trkpt lat="47.29458" lon="-1.58866">
        <ele>26</ele>
        <time>2019-10-17T14:25:45.000Z</time>
      </trkpt>
      <trkpt lat="47.29459" lon="-1.58873">
        <ele>26</ele>
        <time>2019-10-17T14:25:46.000Z</time>
      </trkpt>
      <trkpt lat="47.2946" lon="-1.5888">
        <ele>26</ele>
        <time>2019-10-17T14:25:47.000Z</time>
      </trkpt>
      <trkpt lat="47.29461" lon="-1.58887">
        <ele>26</ele>
        <time>2019-10-17T14:25:48.000Z</time>
      </trkpt>
      <trkpt lat="47.29461" lon="-1.58893">
        <ele>26</ele>
        <time>2019-10-17T14:25:49.000Z</time>
      </trkpt>
      <trkpt lat="47.29463" lon="-1.58899">
        <ele>26</ele>
        <time>2019-10-17T14:25:50.000Z</time>
      </trkpt>
      <trkpt lat="47.29463" lon="-1.58905">
        <ele>26</ele>
        <time>2019-10-17T14:25:51.000Z</time>
      </trkpt>
      <trkpt lat="47.29465" lon="-1.58912">
        <ele>26</ele>
        <time>2019-10-17T14:25:52.000Z</time>
      </trkpt>
      <trkpt lat="47.29466" lon="-1.58918">
        <ele>26</ele>
        <time>2019-10-17T14:25:53.000Z</time>
      </trkpt>
      <trkpt lat="47.29468" lon="-1.58924">
        <ele>26</ele>
        <time>2019-10-17T14:25:54.000Z</time>
      </trkpt>
      <trkpt lat="47.2947" lon="-1.5893">
        <ele>26</ele>
        <time>2019-10-17T14:25:55.000Z</time>
      </trkpt>
      <trkpt lat="47.29472" lon="-1.58936">
        <ele>26</ele>
        <time>2019-10-17T14:25:56.000Z</time>
      </trkpt>
      <trkpt lat="47.29473" lon="-1.58942">
        <ele>26</ele>
        <time>2019-10-17T14:25:57.000Z</time>
      </trkpt>
      <trkpt lat="47.29475" lon="-1.58948">
        <ele>26</ele>
        <time>2019-10-17T14:25:58.000Z</time>
      </trkpt>
      <trkpt lat="47.29477" lon="-1.58955">
        <ele>26</ele>
        <time>2019-10-17T14:25:59.000Z</time>
      </trkpt>
      <trkpt lat="47.29479" lon="-1.5896">
        <ele>26</ele>
        <time>2019-10-17T14:26:00.000Z</time>
      </trkpt>
      <trkpt lat="47.2948" lon="-1.58966">
        <ele>26</ele>
        <time>2019-10-17T14:26:01.000Z</time>
      </trkpt>
      <trkpt lat="47.2948" lon="-1.58972">
        <ele>26</ele>
        <time>2019-10-17T14:26:02.000Z</time>
      </trkpt>
      <trkpt lat="47.2948" lon="-1.58978">
        <ele>26</ele>
        <time>2019-10-17T14:26:03.000Z</time>
      </trkpt>
      <trkpt lat="47.29479" lon="-1.58984">
        <ele>26</ele>
        <time>2019-10-17T14:26:04.000Z</time>
      </trkpt>
      <trkpt lat="47.29478" lon="-1.58989">
        <ele>26</ele>
        <time>2019-10-17T14:26:05.000Z</time>
      </trkpt>
      <trkpt lat="47.29477" lon="-1.58994">
        <ele>26</ele>
        <time>2019-10-17T14:26:06.000Z</time>
      </trkpt>
      <trkpt lat="47.29477" lon="-1.59">
        <ele>26</ele>
        <time>2019-10-17T14:26:07.000Z</time>
      </trkpt>
      <trkpt lat="47.29476" lon="-1.59005">
        <ele>27</ele>
        <time>2019-10-17T14:26:08.000Z</time>
      </trkpt>
      <trkpt lat="47.29474" lon="-1.59011">
        <ele>27</ele>
        <time>2019-10-17T14:26:09.000Z</time>
      </trkpt>
      <trkpt lat="47.29472" lon="-1.59017">
        <ele>27</ele>
        <time>2019-10-17T14:26:10.000Z</time>
      </trkpt>
      <trkpt lat="47.29469" lon="-1.59022">
        <ele>27</ele>
        <time>2019-10-17T14:26:11.000Z</time>
      </trkpt>
      <trkpt lat="47.29465" lon="-1.59027">
        <ele>27</ele>
        <time>2019-10-17T14:26:12.000Z</time>
      </trkpt>
      <trkpt lat="47.29461" lon="-1.59031">
        <ele>27</ele>
        <time>2019-10-17T14:26:13.000Z</time>
      </trkpt>
      <trkpt lat="47.29458" lon="-1.59035">
        <ele>27</ele>
        <time>2019-10-17T14:26:14.000Z</time>
      </trkpt>
      <trkpt lat="47.29454" lon="-1.59039">
        <ele>28</ele>
        <time>2019-10-17T14:26:15.000Z</time>
      </trkpt>
      <trkpt lat="47.2945" lon="-1.59044">
        <ele>28</ele>
        <time>2019-10-17T14:26:16.000Z</time>
      </trkpt>
      <trkpt lat="47.29447" lon="-1.59048">
        <ele>28</ele>
        <time>2019-10-17T14:26:17.000Z</time>
      </trkpt>
      <trkpt lat="47.29443" lon="-1.59052">
        <ele>28</ele>
        <time>2019-10-17T14:26:18.000Z</time>
      </trkpt>
      <trkpt lat="47.29439" lon="-1.59056">
        <ele>29</ele>
        <time>2019-10-17T14:26:19.000Z</time>
      </trkpt>
      <trkpt lat="47.29434" lon="-1.5906">
        <ele>29</ele>
        <time>2019-10-17T14:26:20.000Z</time>
      </trkpt>
      <trkpt lat="47.2943" lon="-1.59064">
        <ele>29</ele>
        <time>2019-10-17T14:26:21.000Z</time>
      </trkpt>
      <trkpt lat="47.29426" lon="-1.59068">
        <ele>30</ele>
        <time>2019-10-17T14:26:22.000Z</time>
      </trkpt>
      <trkpt lat="47.29423" lon="-1.59071">
        <ele>30</ele>
        <time>2019-10-17T14:26:23.000Z</time>
      </trkpt>
      <trkpt lat="47.2942" lon="-1.59075">
        <ele>30</ele>
        <time>2019-10-17T14:26:24.000Z</time>
      </trkpt>
      <trkpt lat="47.29417" lon="-1.59078">
        <ele>31</ele>
        <time>2019-10-17T14:26:25.000Z</time>
      </trkpt>
      <trkpt lat="47.29414" lon="-1.59083">
        <ele>31</ele>
        <time>2019-10-17T14:26:26.000Z</time>
      </trkpt>
      <trkpt lat="47.29412" lon="-1.59088">
        <ele>31</ele>
        <time>2019-10-17T14:26:27.000Z</time>
      </trkpt>
      <trkpt lat="47.2941" lon="-1.59093">
        <ele>31</ele>
        <time>2019-10-17T14:26:28.000Z</time>
      </trkpt>
      <trkpt lat="47.29408" lon="-1.59098">
        <ele>32</ele>
        <time>2019-10-17T14:26:29.000Z</time>
      </trkpt>
      <trkpt lat="47.29407" lon="-1.59103">
        <ele>32</ele>
        <time>2019-10-17T14:26:30.000Z</time>
      </trkpt>
      <trkpt lat="47.29405" lon="-1.59108">
        <ele>32</ele>
        <time>2019-10-17T14:26:31.000Z</time>
      </trkpt>
      <trkpt lat="47.29403" lon="-1.59113">
        <ele>33</ele>
        <time>2019-10-17T14:26:32.000Z</time>
      </trkpt>
      <trkpt lat="47.29401" lon="-1.59117">
        <ele>33</ele>
        <time>2019-10-17T14:26:33.000Z</time>
      </trkpt>
      <trkpt lat="47.29397" lon="-1.59121">
        <ele>33</ele>
        <time>2019-10-17T14:26:34.000Z</time>
      </trkpt>
      <trkpt lat="47.29394" lon="-1.59125">
        <ele>33</ele>
        <time>2019-10-17T14:26:35.000Z</time>
      </trkpt>
      <trkpt lat="47.29391" lon="-1.59129">
        <ele>34</ele>
        <time>2019-10-17T14:26:36.000Z</time>
      </trkpt>
      <trkpt lat="47.29387" lon="-1.59133">
        <ele>34</ele>
        <time>2019-10-17T14:26:37.000Z</time>
      </trkpt>
      <trkpt lat="47.29385" lon="-1.59138">
        <ele>34</ele>
        <time>2019-10-17T14:26:38.000Z</time>
      </trkpt>
      <trkpt lat="47.29383" lon="-1.59143">
        <ele>34</ele>
        <time>2019-10-17T14:26:39.000Z</time>
      </trkpt>
      <trkpt lat="47.29381" lon="-1.59148">
        <ele>34</ele>
        <time>2019-10-17T14:26:40.000Z</time>
      </trkpt>
      <trkpt lat="47.2938" lon="-1.59152">
        <ele>35</ele>
        <time>2019-10-17T14:26:41.000Z</time>
      </trkpt>
      <trkpt lat="47.29378" lon="-1.59157">
        <ele>35</ele>
        <time>2019-10-17T14:26:42.000Z</time>
      </trkpt>
      <trkpt lat="47.29376" lon="-1.59161">
        <ele>35</ele>
        <time>2019-10-17T14:26:43.000Z</time>
      </trkpt>
      <trkpt lat="47.29375" lon="-1.59165">
        <ele>35</ele>
        <time>2019-10-17T14:26:44.000Z</time>
      </trkpt>
      <trkpt lat="47.29374" lon="-1.5917">
        <ele>35</ele>
        <time>2019-10-17T14:26:45.000Z</time>
      </trkpt>
      <trkpt lat="47.29374" lon="-1.59174">
        <ele>36</ele>
        <time>2019-10-17T14:26:46.000Z</time>
      </trkpt>
      <trkpt lat="47.29374" lon="-1.59179">
        <ele>36</ele>
        <time>2019-10-17T14:26:47.000Z</time>
      </trkpt>
      <trkpt lat="47.29375" lon="-1.59183">
        <ele>36</ele>
        <time>2019-10-17T14:26:48.000Z</time>
      </trkpt>
      <trkpt lat="47.29376" lon="-1.59188">
        <ele>36</ele>
        <time>2019-10-17T14:26:49.000Z</time>
      </trkpt>
      <trkpt lat="47.29377" lon="-1.59192">
        <ele>36</ele>
        <time>2019-10-17T14:26:50.000Z</time>
      </trkpt>
      <trkpt lat="47.29379" lon="-1.59197">
        <ele>37</ele>
        <time>2019-10-17T14:26:51.000Z</time>
      </trkpt>
      <trkpt lat="47.2938" lon="-1.59201">
        <ele>37</ele>
        <time>2019-10-17T14:26:52.000Z</time>
      </trkpt>
      <trkpt lat="47.29382" lon="-1.59205">
        <ele>37</ele>
        <time>2019-10-17T14:26:53.000Z</time>
      </trkpt>
      <trkpt lat="47.29384" lon="-1.59209">
        <ele>37</ele>
        <time>2019-10-17T14:26:54.000Z</time>
      </trkpt>
      <trkpt lat="47.29385" lon="-1.59214">
        <ele>38</ele>
        <time>2019-10-17T14:26:55.000Z</time>
      </trkpt>
      <trkpt lat="47.29386" lon="-1.59218">
        <ele>38</ele>
        <time>2019-10-17T14:26:56.000Z</time>
      </trkpt>
      <trkpt lat="47.29388" lon="-1.59223">
        <ele>38</ele>
        <time>2019-10-17T14:26:57.000Z</time>
      </trkpt>
      <trkpt lat="47.2939" lon="-1.59227">
        <ele>39</ele>
        <time>2019-10-17T14:26:58.000Z</time>
      </trkpt>
      <trkpt lat="47.29391" lon="-1.59232">
        <ele>39</ele>
        <time>2019-10-17T14:26:59.000Z</time>
      </trkpt>
      <trkpt lat="47.29392" lon="-1.59237">
        <ele>39</ele>
        <time>2019-10-17T14:27:00.000Z</time>
      </trkpt>
      <trkpt lat="47.29393" lon="-1.59242">
        <ele>39</ele>
        <time>2019-10-17T14:27:01.000Z</time>
      </trkpt>
      <trkpt lat="47.29394" lon="-1.59247">
        <ele>40</ele>
        <time>2019-10-17T14:27:02.000Z</time>
      </trkpt>
      <trkpt lat="47.29394" lon="-1.59252">
        <ele>40</ele>
        <time>2019-10-17T14:27:03.000Z</time>
      </trkpt>
      <trkpt lat="47.29394" lon="-1.59257">
        <ele>40</ele>
        <time>2019-10-17T14:27:04.000Z</time>
      </trkpt>
      <trkpt lat="47.29395" lon="-1.59261">
        <ele>41</ele>
        <time>2019-10-17T14:27:05.000Z</time>
      </trkpt>
      <trkpt lat="47.29396" lon="-1.59266">
        <ele>41</ele>
        <time>2019-10-17T14:27:06.000Z</time>
      </trkpt>
      <trkpt lat="47.29396" lon="-1.5927">
        <ele>41</ele>
        <time>2019-10-17T14:27:07.000Z</time>
      </trkpt>
      <trkpt lat="47.29397" lon="-1.59275">
        <ele>41</ele>
        <time>2019-10-17T14:27:08.000Z</time>
      </trkpt>
      <trkpt lat="47.29397" lon="-1.5928">
        <ele>42</ele>
        <time>2019-10-17T14:27:09.000Z</time>
      </trkpt>
      <trkpt lat="47.29398" lon="-1.59285">
        <ele>42</ele>
        <time>2019-10-17T14:27:10.000Z</time>
      </trkpt>
      <trkpt lat="47.29398" lon="-1.5929">
        <ele>42</ele>
        <time>2019-10-17T14:27:11.000Z</time>
      </trkpt>
      <trkpt lat="47.29399" lon="-1.59294">
        <ele>42</ele>
        <time>2019-10-17T14:27:12.000Z</time>
      </trkpt>
      <trkpt lat="47.294" lon="-1.59298">
        <ele>43</ele>
        <time>2019-10-17T14:27:13.000Z</time>
      </trkpt>
      <trkpt lat="47.294" lon="-1.59303">
        <ele>43</ele>
        <time>2019-10-17T14:27:14.000Z</time>
      </trkpt>
      <trkpt lat="47.29401" lon="-1.59307">
        <ele>43</ele>
        <time>2019-10-17T14:27:15.000Z</time>
      </trkpt>
      <trkpt lat="47.29401" lon="-1.59312">
        <ele>43</ele>
        <time>2019-10-17T14:27:16.000Z</time>
      </trkpt>
      <trkpt lat="47.29402" lon="-1.59317">
        <ele>43</ele>
        <time>2019-10-17T14:27:17.000Z</time>
      </trkpt>
      <trkpt lat="47.29402" lon="-1.59321">
        <ele>44</ele>
        <time>2019-10-17T14:27:18.000Z</time>
      </trkpt>
      <trkpt lat="47.29403" lon="-1.59325">
        <ele>44</ele>
        <time>2019-10-17T14:27:19.000Z</time>
      </trkpt>
      <trkpt lat="47.29403" lon="-1.59329">
        <ele>44</ele>
        <time>2019-10-17T14:27:20.000Z</time>
      </trkpt>
      <trkpt lat="47.29404" lon="-1.59333">
        <ele>44</ele>
        <time>2019-10-17T14:27:21.000Z</time>
      </trkpt>
      <trkpt lat="47.29404" lon="-1.59337">
        <ele>44</ele>
        <time>2019-10-17T14:27:22.000Z</time>
      </trkpt>
      <trkpt lat="47.29404" lon="-1.59342">
        <ele>44</ele>
        <time>2019-10-17T14:27:23.000Z</time>
      </trkpt>
      <trkpt lat="47.29404" lon="-1.59347">
        <ele>44</ele>
        <time>2019-10-17T14:27:24.000Z</time>
      </trkpt>
      <trkpt lat="47.29404" lon="-1.59352">
        <ele>44</ele>
        <time>2019-10-17T14:27:25.000Z</time>
      </trkpt>
      <trkpt lat="47.29404" lon="-1.59357">
        <ele>45</ele>
        <time>2019-10-17T14:27:26.000Z</time>
      </trkpt>
      <trkpt lat="47.29404" lon="-1.59362">
        <ele>45</ele>
        <time>2019-10-17T14:27:27.000Z</time>
      </trkpt>
      <trkpt lat="47.29403" lon="-1.59366">
        <ele>45</ele>
        <time>2019-10-17T14:27:28.000Z</time>
      </trkpt>
      <trkpt lat="47.29404" lon="-1.59371">
        <ele>45</ele>
        <time>2019-10-17T14:27:29.000Z</time>
      </trkpt>
      <trkpt lat="47.29404" lon="-1.59376">
        <ele>45</ele>
        <time>2019-10-17T14:27:30.000Z</time>
      </trkpt>
      <trkpt lat="47.29404" lon="-1.59381">
        <ele>45</ele>
        <time>2019-10-17T14:27:31.000Z</time>
      </trkpt>
      <trkpt lat="47.29404" lon="-1.59386">
        <ele>45</ele>
        <time>2019-10-17T14:27:32.000Z</time>
      </trkpt>
      <trkpt lat="47.29404" lon="-1.59391">
        <ele>45</ele>
        <time>2019-10-17T14:27:33.000Z</time>
      </trkpt>
      <trkpt lat="47.29404" lon="-1.59396">
        <ele>45</ele>
        <time>2019-10-17T14:27:34.000Z</time>
      </trkpt>
      <trkpt lat="47.29404" lon="-1.59402">
        <ele>45</ele>
        <time>2019-10-17T14:27:35.000Z</time>
      </trkpt>
      <trkpt lat="47.29405" lon="-1.59407">
        <ele>45</ele>
        <time>2019-10-17T14:27:36.000Z</time>
      </trkpt>
      <trkpt lat="47.29405" lon="-1.59412">
        <ele>45</ele>
        <time>2019-10-17T14:27:37.000Z</time>
      </trkpt>
      <trkpt lat="47.29405" lon="-1.59417">
        <ele>46</ele>
        <time>2019-10-17T14:27:38.000Z</time>
      </trkpt>
      <trkpt lat="47.29405" lon="-1.59422">
        <ele>46</ele>
        <time>2019-10-17T14:27:39.000Z</time>
      </trkpt>
      <trkpt lat="47.29406" lon="-1.59427">
        <ele>46</ele>
        <time>2019-10-17T14:27:40.000Z</time>
      </trkpt>
      <trkpt lat="47.29406" lon="-1.59433">
        <ele>46</ele>
        <time>2019-10-17T14:27:41.000Z</time>
      </trkpt>
      <trkpt lat="47.29406" lon="-1.59439">
        <ele>46</ele>
        <time>2019-10-17T14:27:42.000Z</time>
      </trkpt>
      <trkpt lat="47.29407" lon="-1.59444">
        <ele>46</ele>
        <time>2019-10-17T14:27:43.000Z</time>
      </trkpt>
      <trkpt lat="47.29407" lon="-1.59449">
        <ele>46</ele>
        <time>2019-10-17T14:27:44.000Z</time>
      </trkpt>
      <trkpt lat="47.29407" lon="-1.59455">
        <ele>46</ele>
        <time>2019-10-17T14:27:45.000Z</time>
      </trkpt>
      <trkpt lat="47.29407" lon="-1.5946">
        <ele>46</ele>
        <time>2019-10-17T14:27:46.000Z</time>
      </trkpt>
      <trkpt lat="47.29407" lon="-1.59465">
        <ele>45</ele>
        <time>2019-10-17T14:27:47.000Z</time>
      </trkpt>
      <trkpt lat="47.29407" lon="-1.59471">
        <ele>45</ele>
        <time>2019-10-17T14:27:48.000Z</time>
      </trkpt>
      <trkpt lat="47.29408" lon="-1.59476">
        <ele>45</ele>
        <time>2019-10-17T14:27:49.000Z</time>
      </trkpt>
      <trkpt lat="47.29408" lon="-1.59482">
        <ele>45</ele>
        <time>2019-10-17T14:27:50.000Z</time>
      </trkpt>
      <trkpt lat="47.29408" lon="-1.59488">
        <ele>45</ele>
        <time>2019-10-17T14:27:51.000Z</time>
      </trkpt>
      <trkpt lat="47.29408" lon="-1.59494">
        <ele>45</ele>
        <time>2019-10-17T14:27:52.000Z</time>
      </trkpt>
      <trkpt lat="47.29409" lon="-1.595">
        <ele>45</ele>
        <time>2019-10-17T14:27:53.000Z</time>
      </trkpt>
      <trkpt lat="47.29409" lon="-1.59506">
        <ele>45</ele>
        <time>2019-10-17T14:27:54.000Z</time>
      </trkpt>
      <trkpt lat="47.29408" lon="-1.59513">
        <ele>45</ele>
        <time>2019-10-17T14:27:55.000Z</time>
      </trkpt>
      <trkpt lat="47.29409" lon="-1.59519">
        <ele>44</ele>
        <time>2019-10-17T14:27:56.000Z</time>
      </trkpt>
      <trkpt lat="47.29409" lon="-1.59525">
        <ele>44</ele>
        <time>2019-10-17T14:27:57.000Z</time>
      </trkpt>
      <trkpt lat="47.29409" lon="-1.59531">
        <ele>44</ele>
        <time>2019-10-17T14:27:58.000Z</time>
      </trkpt>
      <trkpt lat="47.29409" lon="-1.59537">
        <ele>44</ele>
        <time>2019-10-17T14:27:59.000Z</time>
      </trkpt>
      <trkpt lat="47.2941" lon="-1.59544">
        <ele>44</ele>
        <time>2019-10-17T14:28:00.000Z</time>
      </trkpt>
      <trkpt lat="47.2941" lon="-1.5955">
        <ele>44</ele>
        <time>2019-10-17T14:28:01.000Z</time>
      </trkpt>
      <trkpt lat="47.2941" lon="-1.59557">
        <ele>44</ele>
        <time>2019-10-17T14:28:02.000Z</time>
      </trkpt>
      <trkpt lat="47.29411" lon="-1.59563">
        <ele>44</ele>
        <time>2019-10-17T14:28:03.000Z</time>
      </trkpt>
      <trkpt lat="47.29412" lon="-1.5957">
        <ele>43</ele>
        <time>2019-10-17T14:28:04.000Z</time>
      </trkpt>
      <trkpt lat="47.29412" lon="-1.59577">
        <ele>43</ele>
        <time>2019-10-17T14:28:05.000Z</time>
      </trkpt>
      <trkpt lat="47.29412" lon="-1.59583">
        <ele>43</ele>
        <time>2019-10-17T14:28:06.000Z</time>
      </trkpt>
      <trkpt lat="47.29412" lon="-1.5959">
        <ele>43</ele>
        <time>2019-10-17T14:28:07.000Z</time>
      </trkpt>
      <trkpt lat="47.29413" lon="-1.59596">
        <ele>43</ele>
        <time>2019-10-17T14:28:08.000Z</time>
      </trkpt>
      <trkpt lat="47.29413" lon="-1.59603">
        <ele>43</ele>
        <time>2019-10-17T14:28:09.000Z</time>
      </trkpt>
      <trkpt lat="47.29413" lon="-1.5961">
        <ele>43</ele>
        <time>2019-10-17T14:28:10.000Z</time>
      </trkpt>
      <trkpt lat="47.29414" lon="-1.59617">
        <ele>43</ele>
        <time>2019-10-17T14:28:11.000Z</time>
      </trkpt>
      <trkpt lat="47.29414" lon="-1.59624">
        <ele>43</ele>
        <time>2019-10-17T14:28:12.000Z</time>
      </trkpt>
      <trkpt lat="47.29415" lon="-1.59632">
        <ele>42</ele>
        <time>2019-10-17T14:28:13.000Z</time>
      </trkpt>
      <trkpt lat="47.29415" lon="-1.59639">
        <ele>42</ele>
        <time>2019-10-17T14:28:14.000Z</time>
      </trkpt>
      <trkpt lat="47.29415" lon="-1.59648">
        <ele>42</ele>
        <time>2019-10-17T14:28:15.000Z</time>
      </trkpt>
      <trkpt lat="47.29416" lon="-1.59656">
        <ele>42</ele>
        <time>2019-10-17T14:28:16.000Z</time>
      </trkpt>
      <trkpt lat="47.29417" lon="-1.59665">
        <ele>42</ele>
        <time>2019-10-17T14:28:17.000Z</time>
      </trkpt>
      <trkpt lat="47.29418" lon="-1.59674">
        <ele>42</ele>
        <time>2019-10-17T14:28:18.000Z</time>
      </trkpt>
      <trkpt lat="47.29419" lon="-1.59683">
        <ele>41</ele>
        <time>2019-10-17T14:28:19.000Z</time>
      </trkpt>
      <trkpt lat="47.2942" lon="-1.59693">
        <ele>41</ele>
        <time>2019-10-17T14:28:20.000Z</time>
      </trkpt>
      <trkpt lat="47.2942" lon="-1.59702">
        <ele>41</ele>
        <time>2019-10-17T14:28:21.000Z</time>
      </trkpt>
      <trkpt lat="47.29421" lon="-1.59711">
        <ele>41</ele>
        <time>2019-10-17T14:28:22.000Z</time>
      </trkpt>
      <trkpt lat="47.29422" lon="-1.5972">
        <ele>41</ele>
        <time>2019-10-17T14:28:23.000Z</time>
      </trkpt>
      <trkpt lat="47.29423" lon="-1.59728">
        <ele>41</ele>
        <time>2019-10-17T14:28:24.000Z</time>
      </trkpt>
      <trkpt lat="47.29424" lon="-1.59736">
        <ele>40</ele>
        <time>2019-10-17T14:28:25.000Z</time>
      </trkpt>
      <trkpt lat="47.29425" lon="-1.59745">
        <ele>40</ele>
        <time>2019-10-17T14:28:26.000Z</time>
      </trkpt>
      <trkpt lat="47.29427" lon="-1.59753">
        <ele>40</ele>
        <time>2019-10-17T14:28:27.000Z</time>
      </trkpt>
      <trkpt lat="47.29428" lon="-1.5976">
        <ele>40</ele>
        <time>2019-10-17T14:28:28.000Z</time>
      </trkpt>
      <trkpt lat="47.29429" lon="-1.59768">
        <ele>40</ele>
        <time>2019-10-17T14:28:29.000Z</time>
      </trkpt>
      <trkpt lat="47.29429" lon="-1.59774">
        <ele>40</ele>
        <time>2019-10-17T14:28:30.000Z</time>
      </trkpt>
      <trkpt lat="47.2943" lon="-1.5978">
        <ele>40</ele>
        <time>2019-10-17T14:28:31.000Z</time>
      </trkpt>
      <trkpt lat="47.29431" lon="-1.59785">
        <ele>40</ele>
        <time>2019-10-17T14:28:32.000Z</time>
      </trkpt>
      <trkpt lat="47.29432" lon="-1.5979">
        <ele>40</ele>
        <time>2019-10-17T14:28:33.000Z</time>
      </trkpt>
      <trkpt lat="47.29433" lon="-1.59795">
        <ele>40</ele>
        <time>2019-10-17T14:28:34.000Z</time>
      </trkpt>
      <trkpt lat="47.29433" lon="-1.59801">
        <ele>40</ele>
        <time>2019-10-17T14:28:35.000Z</time>
      </trkpt>
      <trkpt lat="47.29434" lon="-1.59807">
        <ele>40</ele>
        <time>2019-10-17T14:28:36.000Z</time>
      </trkpt>
      <trkpt lat="47.29434" lon="-1.59813">
        <ele>40</ele>
        <time>2019-10-17T14:28:37.000Z</time>
      </trkpt>
      <trkpt lat="47.29434" lon="-1.59819">
        <ele>40</ele>
        <time>2019-10-17T14:28:38.000Z</time>
      </trkpt>
      <trkpt lat="47.29434" lon="-1.59824">
        <ele>40</ele>
        <time>2019-10-17T14:28:39.000Z</time>
      </trkpt>
      <trkpt lat="47.29434" lon="-1.59829">
        <ele>40</ele>
        <time>2019-10-17T14:28:40.000Z</time>
      </trkpt>
      <trkpt lat="47.29434" lon="-1.59835">
        <ele>40</ele>
        <time>2019-10-17T14:28:41.000Z</time>
      </trkpt>
      <trkpt lat="47.29434" lon="-1.59841">
        <ele>40</ele>
        <time>2019-10-17T14:28:42.000Z</time>
      </trkpt>
      <trkpt lat="47.29435" lon="-1.59848">
        <ele>40</ele>
        <time>2019-10-17T14:28:43.000Z</time>
      </trkpt>
      <trkpt lat="47.29436" lon="-1.59854">
        <ele>41</ele>
        <time>2019-10-17T14:28:44.000Z</time>
      </trkpt>
      <trkpt lat="47.29437" lon="-1.59861">
        <ele>41</ele>
        <time>2019-10-17T14:28:45.000Z</time>
      </trkpt>
      <trkpt lat="47.29438" lon="-1.59868">
        <ele>41</ele>
        <time>2019-10-17T14:28:46.000Z</time>
      </trkpt>
      <trkpt lat="47.29439" lon="-1.59874">
        <ele>41</ele>
        <time>2019-10-17T14:28:47.000Z</time>
      </trkpt>
      <trkpt lat="47.29439" lon="-1.5988">
        <ele>41</ele>
        <time>2019-10-17T14:28:48.000Z</time>
      </trkpt>
      <trkpt lat="47.2944" lon="-1.59887">
        <ele>41</ele>
        <time>2019-10-17T14:28:49.000Z</time>
      </trkpt>
      <trkpt lat="47.29441" lon="-1.59893">
        <ele>41</ele>
        <time>2019-10-17T14:28:50.000Z</time>
      </trkpt>
      <trkpt lat="47.29442" lon="-1.59899">
        <ele>42</ele>
        <time>2019-10-17T14:28:51.000Z</time>
      </trkpt>
      <trkpt lat="47.29442" lon="-1.59904">
        <ele>42</ele>
        <time>2019-10-17T14:28:52.000Z</time>
      </trkpt>
      <trkpt lat="47.29442" lon="-1.5991">
        <ele>42</ele>
        <time>2019-10-17T14:28:53.000Z</time>
      </trkpt>
      <trkpt lat="47.29443" lon="-1.59915">
        <ele>42</ele>
        <time>2019-10-17T14:28:54.000Z</time>
      </trkpt>
      <trkpt lat="47.29443" lon="-1.59921">
        <ele>42</ele>
        <time>2019-10-17T14:28:55.000Z</time>
      </trkpt>
      <trkpt lat="47.29443" lon="-1.59928">
        <ele>43</ele>
        <time>2019-10-17T14:28:56.000Z</time>
      </trkpt>
      <trkpt lat="47.29443" lon="-1.59934">
        <ele>43</ele>
        <time>2019-10-17T14:28:57.000Z</time>
      </trkpt>
      <trkpt lat="47.29443" lon="-1.59941">
        <ele>43</ele>
        <time>2019-10-17T14:28:58.000Z</time>
      </trkpt>
      <trkpt lat="47.29443" lon="-1.59947">
        <ele>43</ele>
        <time>2019-10-17T14:28:59.000Z</time>
      </trkpt>
      <trkpt lat="47.29443" lon="-1.59954">
        <ele>43</ele>
        <time>2019-10-17T14:29:00.000Z</time>
      </trkpt>
      <trkpt lat="47.29444" lon="-1.5996">
        <ele>43</ele>
        <time>2019-10-17T14:29:01.000Z</time>
      </trkpt>
      <trkpt lat="47.29445" lon="-1.59966">
        <ele>43</ele>
        <time>2019-10-17T14:29:02.000Z</time>
      </trkpt>
      <trkpt lat="47.29446" lon="-1.59973">
        <ele>43</ele>
        <time>2019-10-17T14:29:03.000Z</time>
      </trkpt>
      <trkpt lat="47.29447" lon="-1.59979">
        <ele>43</ele>
        <time>2019-10-17T14:29:04.000Z</time>
      </trkpt>
      <trkpt lat="47.29447" lon="-1.59985">
        <ele>44</ele>
        <time>2019-10-17T14:29:05.000Z</time>
      </trkpt>
      <trkpt lat="47.29447" lon="-1.59991">
        <ele>44</ele>
        <time>2019-10-17T14:29:06.000Z</time>
      </trkpt>
      <trkpt lat="47.29448" lon="-1.59997">
        <ele>44</ele>
        <time>2019-10-17T14:29:07.000Z</time>
      </trkpt>
      <trkpt lat="47.29448" lon="-1.60003">
        <ele>44</ele>
        <time>2019-10-17T14:29:08.000Z</time>
      </trkpt>
      <trkpt lat="47.29448" lon="-1.60009">
        <ele>44</ele>
        <time>2019-10-17T14:29:09.000Z</time>
      </trkpt>
      <trkpt lat="47.29448" lon="-1.60015">
        <ele>44</ele>
        <time>2019-10-17T14:29:10.000Z</time>
      </trkpt>
      <trkpt lat="47.29448" lon="-1.6002">
        <ele>44</ele>
        <time>2019-10-17T14:29:11.000Z</time>
      </trkpt>
      <trkpt lat="47.29448" lon="-1.60026">
        <ele>45</ele>
        <time>2019-10-17T14:29:12.000Z</time>
      </trkpt>
      <trkpt lat="47.29448" lon="-1.60031">
        <ele>45</ele>
        <time>2019-10-17T14:29:13.000Z</time>
      </trkpt>
      <trkpt lat="47.29449" lon="-1.60037">
        <ele>45</ele>
        <time>2019-10-17T14:29:14.000Z</time>
      </trkpt>
      <trkpt lat="47.29449" lon="-1.60042">
        <ele>45</ele>
        <time>2019-10-17T14:29:15.000Z</time>
      </trkpt>
      <trkpt lat="47.29449" lon="-1.60049">
        <ele>45</ele>
        <time>2019-10-17T14:29:16.000Z</time>
      </trkpt>
      <trkpt lat="47.29449" lon="-1.60055">
        <ele>46</ele>
        <time>2019-10-17T14:29:17.000Z</time>
      </trkpt>
      <trkpt lat="47.29449" lon="-1.60062">
        <ele>46</ele>
        <time>2019-10-17T14:29:18.000Z</time>
      </trkpt>
      <trkpt lat="47.2945" lon="-1.60069">
        <ele>46</ele>
        <time>2019-10-17T14:29:19.000Z</time>
      </trkpt>
      <trkpt lat="47.2945" lon="-1.60075">
        <ele>46</ele>
        <time>2019-10-17T14:29:20.000Z</time>
      </trkpt>
      <trkpt lat="47.2945" lon="-1.60082">
        <ele>46</ele>
        <time>2019-10-17T14:29:21.000Z</time>
      </trkpt>
      <trkpt lat="47.2945" lon="-1.60089">
        <ele>46</ele>
        <time>2019-10-17T14:29:22.000Z</time>
      </trkpt>
      <trkpt lat="47.2945" lon="-1.60096">
        <ele>46</ele>
        <time>2019-10-17T14:29:23.000Z</time>
      </trkpt>
      <trkpt lat="47.29451" lon="-1.60103">
        <ele>46</ele>
        <time>2019-10-17T14:29:24.000Z</time>
      </trkpt>
      <trkpt lat="47.29451" lon="-1.6011">
        <ele>46</ele>
        <time>2019-10-17T14:29:25.000Z</time>
      </trkpt>
      <trkpt lat="47.29452" lon="-1.60117">
        <ele>46</ele>
        <time>2019-10-17T14:29:26.000Z</time>
      </trkpt>
      <trkpt lat="47.29453" lon="-1.60124">
        <ele>47</ele>
        <time>2019-10-17T14:29:27.000Z</time>
      </trkpt>
      <trkpt lat="47.29453" lon="-1.60132">
        <ele>47</ele>
        <time>2019-10-17T14:29:28.000Z</time>
      </trkpt>
      <trkpt lat="47.29453" lon="-1.60138">
        <ele>47</ele>
        <time>2019-10-17T14:29:29.000Z</time>
      </trkpt>
      <trkpt lat="47.29454" lon="-1.60145">
        <ele>46</ele>
        <time>2019-10-17T14:29:30.000Z</time>
      </trkpt>
      <trkpt lat="47.29455" lon="-1.60153">
        <ele>46</ele>
        <time>2019-10-17T14:29:31.000Z</time>
      </trkpt>
      <trkpt lat="47.29455" lon="-1.60161">
        <ele>46</ele>
        <time>2019-10-17T14:29:32.000Z</time>
      </trkpt>
      <trkpt lat="47.29456" lon="-1.60169">
        <ele>46</ele>
        <time>2019-10-17T14:29:33.000Z</time>
      </trkpt>
      <trkpt lat="47.29456" lon="-1.60177">
        <ele>46</ele>
        <time>2019-10-17T14:29:34.000Z</time>
      </trkpt>
      <trkpt lat="47.29455" lon="-1.60185">
        <ele>46</ele>
        <time>2019-10-17T14:29:35.000Z</time>
      </trkpt>
      <trkpt lat="47.29455" lon="-1.60193">
        <ele>46</ele>
        <time>2019-10-17T14:29:36.000Z</time>
      </trkpt>
      <trkpt lat="47.29455" lon="-1.602">
        <ele>46</ele>
        <time>2019-10-17T14:29:37.000Z</time>
      </trkpt>
      <trkpt lat="47.29454" lon="-1.60207">
        <ele>46</ele>
        <time>2019-10-17T14:29:38.000Z</time>
      </trkpt>
      <trkpt lat="47.29454" lon="-1.60213">
        <ele>46</ele>
        <time>2019-10-17T14:29:39.000Z</time>
      </trkpt>
      <trkpt lat="47.29454" lon="-1.60219">
        <ele>46</ele>
        <time>2019-10-17T14:29:40.000Z</time>
      </trkpt>
      <trkpt lat="47.29452" lon="-1.60224">
        <ele>46</ele>
        <time>2019-10-17T14:29:41.000Z</time>
      </trkpt>
      <trkpt lat="47.29451" lon="-1.6023">
        <ele>46</ele>
        <time>2019-10-17T14:29:42.000Z</time>
      </trkpt>
      <trkpt lat="47.29449" lon="-1.60235">
        <ele>46</ele>
        <time>2019-10-17T14:29:43.000Z</time>
      </trkpt>
      <trkpt lat="47.29446" lon="-1.60241">
        <ele>46</ele>
        <time>2019-10-17T14:29:44.000Z</time>
      </trkpt>
      <trkpt lat="47.29443" lon="-1.60247">
        <ele>45</ele>
        <time>2019-10-17T14:29:45.000Z</time>
      </trkpt>
      <trkpt lat="47.29439" lon="-1.60252">
        <ele>45</ele>
        <time>2019-10-17T14:29:46.000Z</time>
      </trkpt>
      <trkpt lat="47.29435" lon="-1.60257">
        <ele>45</ele>
        <time>2019-10-17T14:29:47.000Z</time>
      </trkpt>
      <trkpt lat="47.2943" lon="-1.60262">
        <ele>45</ele>
        <time>2019-10-17T14:29:48.000Z</time>
      </trkpt>
      <trkpt lat="47.29426" lon="-1.60267">
        <ele>45</ele>
        <time>2019-10-17T14:29:49.000Z</time>
      </trkpt>
      <trkpt lat="47.29422" lon="-1.60272">
        <ele>45</ele>
        <time>2019-10-17T14:29:50.000Z</time>
      </trkpt>
      <trkpt lat="47.29418" lon="-1.60278">
        <ele>46</ele>
        <time>2019-10-17T14:29:51.000Z</time>
      </trkpt>
      <trkpt lat="47.29414" lon="-1.60283">
        <ele>46</ele>
        <time>2019-10-17T14:29:52.000Z</time>
      </trkpt>
      <trkpt lat="47.29409" lon="-1.60289">
        <ele>46</ele>
        <time>2019-10-17T14:29:53.000Z</time>
      </trkpt>
      <trkpt lat="47.29405" lon="-1.60295">
        <ele>46</ele>
        <time>2019-10-17T14:29:54.000Z</time>
      </trkpt>
      <trkpt lat="47.294" lon="-1.60301">
        <ele>46</ele>
        <time>2019-10-17T14:29:55.000Z</time>
      </trkpt>
      <trkpt lat="47.29396" lon="-1.60307">
        <ele>46</ele>
        <time>2019-10-17T14:29:56.000Z</time>
      </trkpt>
      <trkpt lat="47.29392" lon="-1.60313">
        <ele>47</ele>
        <time>2019-10-17T14:29:57.000Z</time>
      </trkpt>
      <trkpt lat="47.29388" lon="-1.60319">
        <ele>47</ele>
        <time>2019-10-17T14:29:58.000Z</time>
      </trkpt>
      <trkpt lat="47.29384" lon="-1.60324">
        <ele>47</ele>
        <time>2019-10-17T14:29:59.000Z</time>
      </trkpt>
      <trkpt lat="47.2938" lon="-1.6033">
        <ele>47</ele>
        <time>2019-10-17T14:30:00.000Z</time>
      </trkpt>
      <trkpt lat="47.29375" lon="-1.60336">
        <ele>47</ele>
        <time>2019-10-17T14:30:01.000Z</time>
      </trkpt>
      <trkpt lat="47.29371" lon="-1.60342">
        <ele>48</ele>
        <time>2019-10-17T14:30:02.000Z</time>
      </trkpt>
      <trkpt lat="47.29367" lon="-1.60348">
        <ele>48</ele>
        <time>2019-10-17T14:30:03.000Z</time>
      </trkpt>
      <trkpt lat="47.29364" lon="-1.60354">
        <ele>48</ele>
        <time>2019-10-17T14:30:04.000Z</time>
      </trkpt>
      <trkpt lat="47.29361" lon="-1.6036">
        <ele>48</ele>
        <time>2019-10-17T14:30:05.000Z</time>
      </trkpt>
      <trkpt lat="47.29357" lon="-1.60365">
        <ele>48</ele>
        <time>2019-10-17T14:30:06.000Z</time>
      </trkpt>
      <trkpt lat="47.29353" lon="-1.60371">
        <ele>49</ele>
        <time>2019-10-17T14:30:07.000Z</time>
      </trkpt>
      <trkpt lat="47.29349" lon="-1.60377">
        <ele>49</ele>
        <time>2019-10-17T14:30:08.000Z</time>
      </trkpt>
      <trkpt lat="47.29346" lon="-1.60384">
        <ele>49</ele>
        <time>2019-10-17T14:30:09.000Z</time>
      </trkpt>
      <trkpt lat="47.29342" lon="-1.60389">
        <ele>49</ele>
        <time>2019-10-17T14:30:10.000Z</time>
      </trkpt>
      <trkpt lat="47.29338" lon="-1.60395">
        <ele>49</ele>
        <time>2019-10-17T14:30:11.000Z</time>
      </trkpt>
      <trkpt lat="47.29334" lon="-1.604">
        <ele>49</ele>
        <time>2019-10-17T14:30:12.000Z</time>
      </trkpt>
      <trkpt lat="47.29329" lon="-1.60406">
        <ele>49</ele>
        <time>2019-10-17T14:30:13.000Z</time>
      </trkpt>
      <trkpt lat="47.29325" lon="-1.60412">
        <ele>50</ele>
        <time>2019-10-17T14:30:14.000Z</time>
      </trkpt>
      <trkpt lat="47.29321" lon="-1.60418">
        <ele>50</ele>
        <time>2019-10-17T14:30:15.000Z</time>
      </trkpt>
      <trkpt lat="47.29317" lon="-1.60424">
        <ele>50</ele>
        <time>2019-10-17T14:30:16.000Z</time>
      </trkpt>
      <trkpt lat="47.29313" lon="-1.6043">
        <ele>50</ele>
        <time>2019-10-17T14:30:17.000Z</time>
      </trkpt>
      <trkpt lat="47.29308" lon="-1.60436">
        <ele>50</ele>
        <time>2019-10-17T14:30:18.000Z</time>
      </trkpt>
      <trkpt lat="47.29304" lon="-1.60442">
        <ele>50</ele>
        <time>2019-10-17T14:30:19.000Z</time>
      </trkpt>
      <trkpt lat="47.29299" lon="-1.60448">
        <ele>50</ele>
        <time>2019-10-17T14:30:20.000Z</time>
      </trkpt>
      <trkpt lat="47.29294" lon="-1.60454">
        <ele>50</ele>
        <time>2019-10-17T14:30:21.000Z</time>
      </trkpt>
      <trkpt lat="47.29288" lon="-1.60459">
        <ele>50</ele>
        <time>2019-10-17T14:30:22.000Z</time>
      </trkpt>
      <trkpt lat="47.29282" lon="-1.60464">
        <ele>50</ele>
        <time>2019-10-17T14:30:23.000Z</time>
      </trkpt>
      <trkpt lat="47.29276" lon="-1.60468">
        <ele>50</ele>
        <time>2019-10-17T14:30:24.000Z</time>
      </trkpt>
      <trkpt lat="47.2927" lon="-1.60471">
        <ele>50</ele>
        <time>2019-10-17T14:30:25.000Z</time>
      </trkpt>
      <trkpt lat="47.29264" lon="-1.60475">
        <ele>51</ele>
        <time>2019-10-17T14:30:26.000Z</time>
      </trkpt>
      <trkpt lat="47.29259" lon="-1.60477">
        <ele>51</ele>
        <time>2019-10-17T14:30:27.000Z</time>
      </trkpt>
      <trkpt lat="47.29254" lon="-1.6048">
        <ele>51</ele>
        <time>2019-10-17T14:30:28.000Z</time>
      </trkpt>
      <trkpt lat="47.29248" lon="-1.60483">
        <ele>51</ele>
        <time>2019-10-17T14:30:29.000Z</time>
      </trkpt>
      <trkpt lat="47.29244" lon="-1.60486">
        <ele>51</ele>
        <time>2019-10-17T14:30:30.000Z</time>
      </trkpt>
      <trkpt lat="47.2924" lon="-1.60488">
        <ele>51</ele>
        <time>2019-10-17T14:30:31.000Z</time>
      </trkpt>
      <trkpt lat="47.29236" lon="-1.60491">
        <ele>51</ele>
        <time>2019-10-17T14:30:32.000Z</time>
      </trkpt>
      <trkpt lat="47.29233" lon="-1.60494">
        <ele>52</ele>
        <time>2019-10-17T14:30:33.000Z</time>
      </trkpt>
      <trkpt lat="47.29231" lon="-1.60497">
        <ele>52</ele>
        <time>2019-10-17T14:30:34.000Z</time>
      </trkpt>
      <trkpt lat="47.29228" lon="-1.605">
        <ele>52</ele>
        <time>2019-10-17T14:30:35.000Z</time>
      </trkpt>
      <trkpt lat="47.29227" lon="-1.60503">
        <ele>52</ele>
        <time>2019-10-17T14:30:36.000Z</time>
      </trkpt>
      <trkpt lat="47.29225" lon="-1.60506">
        <ele>52</ele>
        <time>2019-10-17T14:30:37.000Z</time>
      </trkpt>
      <trkpt lat="47.29223" lon="-1.60507">
        <ele>52</ele>
        <time>2019-10-17T14:30:38.000Z</time>
      </trkpt>
      <trkpt lat="47.29222" lon="-1.60506">
        <ele>52</ele>
        <time>2019-10-17T14:30:39.000Z</time>
      </trkpt>
      <trkpt lat="47.2922" lon="-1.60503">
        <ele>52</ele>
        <time>2019-10-17T14:30:40.000Z</time>
      </trkpt>
      <trkpt lat="47.2922" lon="-1.605">
        <ele>52</ele>
        <time>2019-10-17T14:30:41.000Z</time>
      </trkpt>
      <trkpt lat="47.29222" lon="-1.60497">
        <ele>52</ele>
        <time>2019-10-17T14:30:42.000Z</time>
      </trkpt>
      <trkpt lat="47.29224" lon="-1.60493">
        <ele>52</ele>
        <time>2019-10-17T14:30:43.000Z</time>
      </trkpt>
      <trkpt lat="47.29224" lon="-1.60491">
        <ele>52</ele>
        <time>2019-10-17T14:30:44.000Z</time>
      </trkpt>
      <trkpt lat="47.29223" lon="-1.6049">
        <ele>52</ele>
        <time>2019-10-17T14:30:45.000Z</time>
      </trkpt>
      <trkpt lat="47.29223" lon="-1.60489">
        <ele>52</ele>
        <time>2019-10-17T14:30:46.000Z</time>
      </trkpt>
      <trkpt lat="47.29224" lon="-1.60489">
        <ele>53</ele>
        <time>2019-10-17T14:30:47.000Z</time>
      </trkpt>
      <trkpt lat="47.29225" lon="-1.60488">
        <ele>54</ele>
        <time>2019-10-17T14:30:50.000Z</time>
      </trkpt>
      <trkpt lat="47.29225" lon="-1.60498">
        <ele>54</ele>
        <time>2019-10-17T14:30:51.000Z</time>
      </trkpt>
      <trkpt lat="47.29225" lon="-1.60501">
        <ele>54</ele>
        <time>2019-10-17T14:30:52.000Z</time>
      </trkpt>
      <trkpt lat="47.29224" lon="-1.60505">
        <ele>54</ele>
        <time>2019-10-17T14:30:53.000Z</time>
      </trkpt>
      <trkpt lat="47.29222" lon="-1.60509">
        <ele>54</ele>
        <time>2019-10-17T14:30:54.000Z</time>
      </trkpt>
      <trkpt lat="47.2922" lon="-1.60513">
        <ele>54</ele>
        <time>2019-10-17T14:30:55.000Z</time>
      </trkpt>
      <trkpt lat="47.29218" lon="-1.60518">
        <ele>54</ele>
        <time>2019-10-17T14:30:56.000Z</time>
      </trkpt>
      <trkpt lat="47.29217" lon="-1.60523">
        <ele>53</ele>
        <time>2019-10-17T14:30:57.000Z</time>
      </trkpt>
      <trkpt lat="47.29214" lon="-1.60529">
        <ele>53</ele>
        <time>2019-10-17T14:30:58.000Z</time>
      </trkpt>
      <trkpt lat="47.29212" lon="-1.60534">
        <ele>53</ele>
        <time>2019-10-17T14:30:59.000Z</time>
      </trkpt>
      <trkpt lat="47.2921" lon="-1.6054">
        <ele>52</ele>
        <time>2019-10-17T14:31:00.000Z</time>
      </trkpt>
      <trkpt lat="47.29208" lon="-1.60545">
        <ele>52</ele>
        <time>2019-10-17T14:31:01.000Z</time>
      </trkpt>
      <trkpt lat="47.29206" lon="-1.60551">
        <ele>52</ele>
        <time>2019-10-17T14:31:02.000Z</time>
      </trkpt>
      <trkpt lat="47.29204" lon="-1.60557">
        <ele>52</ele>
        <time>2019-10-17T14:31:03.000Z</time>
      </trkpt>
      <trkpt lat="47.29202" lon="-1.60562">
        <ele>52</ele>
        <time>2019-10-17T14:31:04.000Z</time>
      </trkpt>
      <trkpt lat="47.29199" lon="-1.60568">
        <ele>53</ele>
        <time>2019-10-17T14:31:05.000Z</time>
      </trkpt>
      <trkpt lat="47.29197" lon="-1.60574">
        <ele>53</ele>
        <time>2019-10-17T14:31:06.000Z</time>
      </trkpt>
      <trkpt lat="47.29195" lon="-1.60579">
        <ele>53</ele>
        <time>2019-10-17T14:31:07.000Z</time>
      </trkpt>
      <trkpt lat="47.29192" lon="-1.60585">
        <ele>53</ele>
        <time>2019-10-17T14:31:08.000Z</time>
      </trkpt>
      <trkpt lat="47.2919" lon="-1.60591">
        <ele>53</ele>
        <time>2019-10-17T14:31:09.000Z</time>
      </trkpt>
      <trkpt lat="47.29188" lon="-1.60596">
        <ele>54</ele>
        <time>2019-10-17T14:31:10.000Z</time>
      </trkpt>
      <trkpt lat="47.29186" lon="-1.60602">
        <ele>54</ele>
        <time>2019-10-17T14:31:11.000Z</time>
      </trkpt>
      <trkpt lat="47.29183" lon="-1.60607">
        <ele>54</ele>
        <time>2019-10-17T14:31:12.000Z</time>
      </trkpt>
      <trkpt lat="47.29181" lon="-1.60613">
        <ele>54</ele>
        <time>2019-10-17T14:31:13.000Z</time>
      </trkpt>
      <trkpt lat="47.29179" lon="-1.60618">
        <ele>55</ele>
        <time>2019-10-17T14:31:14.000Z</time>
      </trkpt>
      <trkpt lat="47.29177" lon="-1.60624">
        <ele>55</ele>
        <time>2019-10-17T14:31:15.000Z</time>
      </trkpt>
      <trkpt lat="47.29175" lon="-1.60629">
        <ele>55</ele>
        <time>2019-10-17T14:31:16.000Z</time>
      </trkpt>
      <trkpt lat="47.29172" lon="-1.60635">
        <ele>55</ele>
        <time>2019-10-17T14:31:17.000Z</time>
      </trkpt>
      <trkpt lat="47.2917" lon="-1.6064">
        <ele>55</ele>
        <time>2019-10-17T14:31:18.000Z</time>
      </trkpt>
      <trkpt lat="47.29168" lon="-1.60646">
        <ele>56</ele>
        <time>2019-10-17T14:31:19.000Z</time>
      </trkpt>
      <trkpt lat="47.29166" lon="-1.60652">
        <ele>56</ele>
        <time>2019-10-17T14:31:20.000Z</time>
      </trkpt>
      <trkpt lat="47.29163" lon="-1.60657">
        <ele>56</ele>
        <time>2019-10-17T14:31:21.000Z</time>
      </trkpt>
      <trkpt lat="47.29161" lon="-1.60663">
        <ele>56</ele>
        <time>2019-10-17T14:31:22.000Z</time>
      </trkpt>
      <trkpt lat="47.29158" lon="-1.60669">
        <ele>56</ele>
        <time>2019-10-17T14:31:23.000Z</time>
      </trkpt>
      <trkpt lat="47.29156" lon="-1.60674">
        <ele>56</ele>
        <time>2019-10-17T14:31:24.000Z</time>
      </trkpt>
      <trkpt lat="47.29153" lon="-1.6068">
        <ele>57</ele>
        <time>2019-10-17T14:31:25.000Z</time>
      </trkpt>
      <trkpt lat="47.2915" lon="-1.60685">
        <ele>57</ele>
        <time>2019-10-17T14:31:26.000Z</time>
      </trkpt>
      <trkpt lat="47.29148" lon="-1.60691">
        <ele>57</ele>
        <time>2019-10-17T14:31:27.000Z</time>
      </trkpt>
      <trkpt lat="47.29145" lon="-1.60696">
        <ele>57</ele>
        <time>2019-10-17T14:31:28.000Z</time>
      </trkpt>
      <trkpt lat="47.29142" lon="-1.60701">
        <ele>57</ele>
        <time>2019-10-17T14:31:29.000Z</time>
      </trkpt>
      <trkpt lat="47.29139" lon="-1.60706">
        <ele>57</ele>
        <time>2019-10-17T14:31:30.000Z</time>
      </trkpt>
      <trkpt lat="47.29136" lon="-1.60711">
        <ele>57</ele>
        <time>2019-10-17T14:31:31.000Z</time>
      </trkpt>
      <trkpt lat="47.29133" lon="-1.60716">
        <ele>57</ele>
        <time>2019-10-17T14:31:32.000Z</time>
      </trkpt>
      <trkpt lat="47.2913" lon="-1.60721">
        <ele>58</ele>
        <time>2019-10-17T14:31:33.000Z</time>
      </trkpt>
      <trkpt lat="47.29127" lon="-1.60726">
        <ele>58</ele>
        <time>2019-10-17T14:31:34.000Z</time>
      </trkpt>
      <trkpt lat="47.29124" lon="-1.6073">
        <ele>58</ele>
        <time>2019-10-17T14:31:35.000Z</time>
      </trkpt>
      <trkpt lat="47.29121" lon="-1.60735">
        <ele>58</ele>
        <time>2019-10-17T14:31:36.000Z</time>
      </trkpt>
      <trkpt lat="47.29117" lon="-1.6074">
        <ele>58</ele>
        <time>2019-10-17T14:31:37.000Z</time>
      </trkpt>
      <trkpt lat="47.29114" lon="-1.60744">
        <ele>58</ele>
        <time>2019-10-17T14:31:38.000Z</time>
      </trkpt>
      <trkpt lat="47.29111" lon="-1.60749">
        <ele>58</ele>
        <time>2019-10-17T14:31:39.000Z</time>
      </trkpt>
      <trkpt lat="47.29107" lon="-1.60753">
        <ele>58</ele>
        <time>2019-10-17T14:31:40.000Z</time>
      </trkpt>
      <trkpt lat="47.29104" lon="-1.60757">
        <ele>59</ele>
        <time>2019-10-17T14:31:41.000Z</time>
      </trkpt>
      <trkpt lat="47.29101" lon="-1.60762">
        <ele>59</ele>
        <time>2019-10-17T14:31:42.000Z</time>
      </trkpt>
      <trkpt lat="47.29097" lon="-1.60766">
        <ele>59</ele>
        <time>2019-10-17T14:31:43.000Z</time>
      </trkpt>
      <trkpt lat="47.29093" lon="-1.6077">
        <ele>59</ele>
        <time>2019-10-17T14:31:44.000Z</time>
      </trkpt>
      <trkpt lat="47.2909" lon="-1.60773">
        <ele>59</ele>
        <time>2019-10-17T14:31:45.000Z</time>
      </trkpt>
      <trkpt lat="47.29086" lon="-1.60777">
        <ele>59</ele>
        <time>2019-10-17T14:31:46.000Z</time>
      </trkpt>
      <trkpt lat="47.29083" lon="-1.60781">
        <ele>60</ele>
        <time>2019-10-17T14:31:47.000Z</time>
      </trkpt>
      <trkpt lat="47.2908" lon="-1.60785">
        <ele>60</ele>
        <time>2019-10-17T14:31:48.000Z</time>
      </trkpt>
      <trkpt lat="47.29077" lon="-1.60788">
        <ele>60</ele>
        <time>2019-10-17T14:31:49.000Z</time>
      </trkpt>
      <trkpt lat="47.29075" lon="-1.60792">
        <ele>60</ele>
        <time>2019-10-17T14:31:50.000Z</time>
      </trkpt>
      <trkpt lat="47.29074" lon="-1.60795">
        <ele>60</ele>
        <time>2019-10-17T14:31:51.000Z</time>
      </trkpt>
      <trkpt lat="47.29073" lon="-1.60798">
        <ele>60</ele>
        <time>2019-10-17T14:31:52.000Z</time>
      </trkpt>
      <trkpt lat="47.29071" lon="-1.608">
        <ele>60</ele>
        <time>2019-10-17T14:31:53.000Z</time>
      </trkpt>
      <trkpt lat="47.2907" lon="-1.60803">
        <ele>60</ele>
        <time>2019-10-17T14:31:54.000Z</time>
      </trkpt>
      <trkpt lat="47.29068" lon="-1.60807">
        <ele>60</ele>
        <time>2019-10-17T14:31:55.000Z</time>
      </trkpt>
      <trkpt lat="47.29065" lon="-1.6081">
        <ele>60</ele>
        <time>2019-10-17T14:31:56.000Z</time>
      </trkpt>
      <trkpt lat="47.29063" lon="-1.60814">
        <ele>60</ele>
        <time>2019-10-17T14:31:57.000Z</time>
      </trkpt>
      <trkpt lat="47.2906" lon="-1.60818">
        <ele>60</ele>
        <time>2019-10-17T14:31:58.000Z</time>
      </trkpt>
      <trkpt lat="47.29057" lon="-1.60822">
        <ele>60</ele>
        <time>2019-10-17T14:31:59.000Z</time>
      </trkpt>
      <trkpt lat="47.29054" lon="-1.60826">
        <ele>60</ele>
        <time>2019-10-17T14:32:00.000Z</time>
      </trkpt>
      <trkpt lat="47.29051" lon="-1.60831">
        <ele>60</ele>
        <time>2019-10-17T14:32:01.000Z</time>
      </trkpt>
      <trkpt lat="47.29047" lon="-1.60835">
        <ele>60</ele>
        <time>2019-10-17T14:32:02.000Z</time>
      </trkpt>
      <trkpt lat="47.29044" lon="-1.6084">
        <ele>60</ele>
        <time>2019-10-17T14:32:03.000Z</time>
      </trkpt>
      <trkpt lat="47.29041" lon="-1.60845">
        <ele>60</ele>
        <time>2019-10-17T14:32:04.000Z</time>
      </trkpt>
      <trkpt lat="47.29038" lon="-1.6085">
        <ele>60</ele>
        <time>2019-10-17T14:32:05.000Z</time>
      </trkpt>
      <trkpt lat="47.29034" lon="-1.60856">
        <ele>60</ele>
        <time>2019-10-17T14:32:06.000Z</time>
      </trkpt>
      <trkpt lat="47.29031" lon="-1.60861">
        <ele>60</ele>
        <time>2019-10-17T14:32:07.000Z</time>
      </trkpt>
      <trkpt lat="47.29028" lon="-1.60866">
        <ele>60</ele>
        <time>2019-10-17T14:32:08.000Z</time>
      </trkpt>
      <trkpt lat="47.29025" lon="-1.60872">
        <ele>60</ele>
        <time>2019-10-17T14:32:09.000Z</time>
      </trkpt>
      <trkpt lat="47.29021" lon="-1.60877">
        <ele>60</ele>
        <time>2019-10-17T14:32:10.000Z</time>
      </trkpt>
      <trkpt lat="47.29018" lon="-1.60883">
        <ele>60</ele>
        <time>2019-10-17T14:32:11.000Z</time>
      </trkpt>
      <trkpt lat="47.29015" lon="-1.60888">
        <ele>60</ele>
        <time>2019-10-17T14:32:12.000Z</time>
      </trkpt>
      <trkpt lat="47.29012" lon="-1.60894">
        <ele>60</ele>
        <time>2019-10-17T14:32:13.000Z</time>
      </trkpt>
      <trkpt lat="47.29009" lon="-1.60899">
        <ele>60</ele>
        <time>2019-10-17T14:32:14.000Z</time>
      </trkpt>
      <trkpt lat="47.29006" lon="-1.60904">
        <ele>60</ele>
        <time>2019-10-17T14:32:15.000Z</time>
      </trkpt>
      <trkpt lat="47.29003" lon="-1.6091">
        <ele>60</ele>
        <time>2019-10-17T14:32:16.000Z</time>
      </trkpt>
      <trkpt lat="47.28999" lon="-1.60915">
        <ele>60</ele>
        <time>2019-10-17T14:32:17.000Z</time>
      </trkpt>
      <trkpt lat="47.28996" lon="-1.6092">
        <ele>60</ele>
        <time>2019-10-17T14:32:18.000Z</time>
      </trkpt>
      <trkpt lat="47.28993" lon="-1.60925">
        <ele>60</ele>
        <time>2019-10-17T14:32:19.000Z</time>
      </trkpt>
      <trkpt lat="47.28989" lon="-1.60931">
        <ele>60</ele>
        <time>2019-10-17T14:32:20.000Z</time>
      </trkpt>
      <trkpt lat="47.28986" lon="-1.60936">
        <ele>60</ele>
        <time>2019-10-17T14:32:21.000Z</time>
      </trkpt>
      <trkpt lat="47.28983" lon="-1.60941">
        <ele>60</ele>
        <time>2019-10-17T14:32:22.000Z</time>
      </trkpt>
      <trkpt lat="47.28981" lon="-1.60946">
        <ele>60</ele>
        <time>2019-10-17T14:32:23.000Z</time>
      </trkpt>
      <trkpt lat="47.28978" lon="-1.60951">
        <ele>60</ele>
        <time>2019-10-17T14:32:24.000Z</time>
      </trkpt>
      <trkpt lat="47.28975" lon="-1.60956">
        <ele>60</ele>
        <time>2019-10-17T14:32:25.000Z</time>
      </trkpt>
      <trkpt lat="47.28972" lon="-1.60961">
        <ele>60</ele>
        <time>2019-10-17T14:32:26.000Z</time>
      </trkpt>
      <trkpt lat="47.2897" lon="-1.60966">
        <ele>60</ele>
        <time>2019-10-17T14:32:27.000Z</time>
      </trkpt>
      <trkpt lat="47.28967" lon="-1.60972">
        <ele>60</ele>
        <time>2019-10-17T14:32:28.000Z</time>
      </trkpt>
      <trkpt lat="47.28964" lon="-1.60978">
        <ele>59</ele>
        <time>2019-10-17T14:32:29.000Z</time>
      </trkpt>
      <trkpt lat="47.28963" lon="-1.60984">
        <ele>59</ele>
        <time>2019-10-17T14:32:30.000Z</time>
      </trkpt>
      <trkpt lat="47.28963" lon="-1.6099">
        <ele>59</ele>
        <time>2019-10-17T14:32:31.000Z</time>
      </trkpt>
      <trkpt lat="47.28965" lon="-1.60996">
        <ele>59</ele>
        <time>2019-10-17T14:32:32.000Z</time>
      </trkpt>
      <trkpt lat="47.28968" lon="-1.61002">
        <ele>59</ele>
        <time>2019-10-17T14:32:33.000Z</time>
      </trkpt>
      <trkpt lat="47.28972" lon="-1.61007">
        <ele>59</ele>
        <time>2019-10-17T14:32:34.000Z</time>
      </trkpt>
      <trkpt lat="47.28977" lon="-1.61012">
        <ele>59</ele>
        <time>2019-10-17T14:32:35.000Z</time>
      </trkpt>
      <trkpt lat="47.28982" lon="-1.61017">
        <ele>59</ele>
        <time>2019-10-17T14:32:36.000Z</time>
      </trkpt>
      <trkpt lat="47.28987" lon="-1.61022">
        <ele>59</ele>
        <time>2019-10-17T14:32:37.000Z</time>
      </trkpt>
      <trkpt lat="47.28993" lon="-1.61028">
        <ele>59</ele>
        <time>2019-10-17T14:32:38.000Z</time>
      </trkpt>
      <trkpt lat="47.28998" lon="-1.61033">
        <ele>59</ele>
        <time>2019-10-17T14:32:39.000Z</time>
      </trkpt>
      <trkpt lat="47.29003" lon="-1.61038">
        <ele>59</ele>
        <time>2019-10-17T14:32:40.000Z</time>
      </trkpt>
      <trkpt lat="47.29008" lon="-1.61043">
        <ele>59</ele>
        <time>2019-10-17T14:32:41.000Z</time>
      </trkpt>
      <trkpt lat="47.29013" lon="-1.61048">
        <ele>59</ele>
        <time>2019-10-17T14:32:42.000Z</time>
      </trkpt>
      <trkpt lat="47.29018" lon="-1.61053">
        <ele>59</ele>
        <time>2019-10-17T14:32:43.000Z</time>
      </trkpt>
      <trkpt lat="47.29024" lon="-1.61058">
        <ele>59</ele>
        <time>2019-10-17T14:32:44.000Z</time>
      </trkpt>
      <trkpt lat="47.29029" lon="-1.61063">
        <ele>59</ele>
        <time>2019-10-17T14:32:45.000Z</time>
      </trkpt>
      <trkpt lat="47.29034" lon="-1.61068">
        <ele>59</ele>
        <time>2019-10-17T14:32:46.000Z</time>
      </trkpt>
      <trkpt lat="47.2904" lon="-1.61074">
        <ele>59</ele>
        <time>2019-10-17T14:32:47.000Z</time>
      </trkpt>
      <trkpt lat="47.2904" lon="-1.61074">
        <ele>59</ele>
        <time>2019-10-17T14:32:49.000Z</time>
      </trkpt>
      <trkpt lat="47.2904" lon="-1.61074">
        <ele>59</ele>
        <time>2019-10-17T14:32:50.000Z</time>
      </trkpt>
      <trkpt lat="47.29061" lon="-1.61098">
        <ele>58</ele>
        <time>2019-10-17T14:32:51.000Z</time>
      </trkpt>
      <trkpt lat="47.29066" lon="-1.61105">
        <ele>58</ele>
        <time>2019-10-17T14:32:52.000Z</time>
      </trkpt>
      <trkpt lat="47.29071" lon="-1.61111">
        <ele>58</ele>
        <time>2019-10-17T14:32:53.000Z</time>
      </trkpt>
      <trkpt lat="47.29077" lon="-1.61116">
        <ele>58</ele>
        <time>2019-10-17T14:32:54.000Z</time>
      </trkpt>
      <trkpt lat="47.29083" lon="-1.61122">
        <ele>58</ele>
        <time>2019-10-17T14:32:55.000Z</time>
      </trkpt>
      <trkpt lat="47.29088" lon="-1.61128">
        <ele>58</ele>
        <time>2019-10-17T14:32:56.000Z</time>
      </trkpt>
      <trkpt lat="47.29094" lon="-1.61135">
        <ele>58</ele>
        <time>2019-10-17T14:32:57.000Z</time>
      </trkpt>
      <trkpt lat="47.29099" lon="-1.61141">
        <ele>58</ele>
        <time>2019-10-17T14:32:58.000Z</time>
      </trkpt>
      <trkpt lat="47.29103" lon="-1.61148">
        <ele>58</ele>
        <time>2019-10-17T14:32:59.000Z</time>
      </trkpt>
      <trkpt lat="47.29108" lon="-1.61155">
        <ele>58</ele>
        <time>2019-10-17T14:33:00.000Z</time>
      </trkpt>
      <trkpt lat="47.29112" lon="-1.61162">
        <ele>58</ele>
        <time>2019-10-17T14:33:01.000Z</time>
      </trkpt>
      <trkpt lat="47.29116" lon="-1.61169">
        <ele>58</ele>
        <time>2019-10-17T14:33:02.000Z</time>
      </trkpt>
      <trkpt lat="47.2912" lon="-1.61176">
        <ele>57</ele>
        <time>2019-10-17T14:33:03.000Z</time>
      </trkpt>
      <trkpt lat="47.29123" lon="-1.61183">
        <ele>57</ele>
        <time>2019-10-17T14:33:04.000Z</time>
      </trkpt>
      <trkpt lat="47.29126" lon="-1.6119">
        <ele>57</ele>
        <time>2019-10-17T14:33:05.000Z</time>
      </trkpt>
      <trkpt lat="47.29129" lon="-1.61197">
        <ele>57</ele>
        <time>2019-10-17T14:33:06.000Z</time>
      </trkpt>
      <trkpt lat="47.29132" lon="-1.61203">
        <ele>57</ele>
        <time>2019-10-17T14:33:07.000Z</time>
      </trkpt>
      <trkpt lat="47.29134" lon="-1.6121">
        <ele>56</ele>
        <time>2019-10-17T14:33:08.000Z</time>
      </trkpt>
      <trkpt lat="47.29137" lon="-1.61217">
        <ele>56</ele>
        <time>2019-10-17T14:33:09.000Z</time>
      </trkpt>
      <trkpt lat="47.2914" lon="-1.61224">
        <ele>56</ele>
        <time>2019-10-17T14:33:10.000Z</time>
      </trkpt>
      <trkpt lat="47.29143" lon="-1.6123">
        <ele>55</ele>
        <time>2019-10-17T14:33:11.000Z</time>
      </trkpt>
      <trkpt lat="47.29146" lon="-1.61237">
        <ele>55</ele>
        <time>2019-10-17T14:33:12.000Z</time>
      </trkpt>
      <trkpt lat="47.29149" lon="-1.61244">
        <ele>55</ele>
        <time>2019-10-17T14:33:13.000Z</time>
      </trkpt>
      <trkpt lat="47.29152" lon="-1.61251">
        <ele>55</ele>
        <time>2019-10-17T14:33:14.000Z</time>
      </trkpt>
      <trkpt lat="47.29155" lon="-1.61258">
        <ele>55</ele>
        <time>2019-10-17T14:33:15.000Z</time>
      </trkpt>
      <trkpt lat="47.29158" lon="-1.61264">
        <ele>54</ele>
        <time>2019-10-17T14:33:16.000Z</time>
      </trkpt>
      <trkpt lat="47.29161" lon="-1.61271">
        <ele>54</ele>
        <time>2019-10-17T14:33:17.000Z</time>
      </trkpt>
      <trkpt lat="47.29164" lon="-1.61278">
        <ele>54</ele>
        <time>2019-10-17T14:33:18.000Z</time>
      </trkpt>
      <trkpt lat="47.29167" lon="-1.61284">
        <ele>54</ele>
        <time>2019-10-17T14:33:19.000Z</time>
      </trkpt>
      <trkpt lat="47.2917" lon="-1.61291">
        <ele>54</ele>
        <time>2019-10-17T14:33:20.000Z</time>
      </trkpt>
      <trkpt lat="47.29172" lon="-1.61298">
        <ele>53</ele>
        <time>2019-10-17T14:33:21.000Z</time>
      </trkpt>
      <trkpt lat="47.29175" lon="-1.61304">
        <ele>53</ele>
        <time>2019-10-17T14:33:22.000Z</time>
      </trkpt>
      <trkpt lat="47.29178" lon="-1.61311">
        <ele>53</ele>
        <time>2019-10-17T14:33:23.000Z</time>
      </trkpt>
      <trkpt lat="47.29181" lon="-1.61318">
        <ele>53</ele>
        <time>2019-10-17T14:33:24.000Z</time>
      </trkpt>
      <trkpt lat="47.29185" lon="-1.61325">
        <ele>53</ele>
        <time>2019-10-17T14:33:25.000Z</time>
      </trkpt>
      <trkpt lat="47.29188" lon="-1.61331">
        <ele>53</ele>
        <time>2019-10-17T14:33:26.000Z</time>
      </trkpt>
      <trkpt lat="47.29191" lon="-1.61337">
        <ele>53</ele>
        <time>2019-10-17T14:33:27.000Z</time>
      </trkpt>
      <trkpt lat="47.29195" lon="-1.61342">
        <ele>53</ele>
        <time>2019-10-17T14:33:28.000Z</time>
      </trkpt>
      <trkpt lat="47.29198" lon="-1.61348">
        <ele>53</ele>
        <time>2019-10-17T14:33:29.000Z</time>
      </trkpt>
      <trkpt lat="47.29201" lon="-1.61353">
        <ele>53</ele>
        <time>2019-10-17T14:33:30.000Z</time>
      </trkpt>
      <trkpt lat="47.29204" lon="-1.61358">
        <ele>53</ele>
        <time>2019-10-17T14:33:31.000Z</time>
      </trkpt>
      <trkpt lat="47.29207" lon="-1.61363">
        <ele>53</ele>
        <time>2019-10-17T14:33:32.000Z</time>
      </trkpt>
      <trkpt lat="47.29209" lon="-1.61368">
        <ele>53</ele>
        <time>2019-10-17T14:33:33.000Z</time>
      </trkpt>
      <trkpt lat="47.29212" lon="-1.61373">
        <ele>52</ele>
        <time>2019-10-17T14:33:34.000Z</time>
      </trkpt>
      <trkpt lat="47.29215" lon="-1.61379">
        <ele>52</ele>
        <time>2019-10-17T14:33:35.000Z</time>
      </trkpt>
      <trkpt lat="47.29217" lon="-1.61384">
        <ele>52</ele>
        <time>2019-10-17T14:33:36.000Z</time>
      </trkpt>
      <trkpt lat="47.29219" lon="-1.61389">
        <ele>52</ele>
        <time>2019-10-17T14:33:37.000Z</time>
      </trkpt>
      <trkpt lat="47.29221" lon="-1.61394">
        <ele>52</ele>
        <time>2019-10-17T14:33:38.000Z</time>
      </trkpt>
      <trkpt lat="47.29223" lon="-1.61399">
        <ele>52</ele>
        <time>2019-10-17T14:33:39.000Z</time>
      </trkpt>
      <trkpt lat="47.29225" lon="-1.61404">
        <ele>52</ele>
        <time>2019-10-17T14:33:40.000Z</time>
      </trkpt>
      <trkpt lat="47.29228" lon="-1.61408">
        <ele>52</ele>
        <time>2019-10-17T14:33:41.000Z</time>
      </trkpt>
      <trkpt lat="47.2923" lon="-1.61412">
        <ele>52</ele>
        <time>2019-10-17T14:33:42.000Z</time>
      </trkpt>
      <trkpt lat="47.29232" lon="-1.61416">
        <ele>52</ele>
        <time>2019-10-17T14:33:43.000Z</time>
      </trkpt>
      <trkpt lat="47.29235" lon="-1.61421">
        <ele>52</ele>
        <time>2019-10-17T14:33:44.000Z</time>
      </trkpt>
      <trkpt lat="47.29237" lon="-1.61425">
        <ele>52</ele>
        <time>2019-10-17T14:33:45.000Z</time>
      </trkpt>
      <trkpt lat="47.2924" lon="-1.6143">
        <ele>52</ele>
        <time>2019-10-17T14:33:46.000Z</time>
      </trkpt>
      <trkpt lat="47.29243" lon="-1.61435">
        <ele>52</ele>
        <time>2019-10-17T14:33:47.000Z</time>
      </trkpt>
      <trkpt lat="47.29245" lon="-1.6144">
        <ele>52</ele>
        <time>2019-10-17T14:33:48.000Z</time>
      </trkpt>
      <trkpt lat="47.29248" lon="-1.61446">
        <ele>52</ele>
        <time>2019-10-17T14:33:49.000Z</time>
      </trkpt>
      <trkpt lat="47.2925" lon="-1.61451">
        <ele>52</ele>
        <time>2019-10-17T14:33:50.000Z</time>
      </trkpt>
      <trkpt lat="47.29253" lon="-1.61457">
        <ele>52</ele>
        <time>2019-10-17T14:33:51.000Z</time>
      </trkpt>
      <trkpt lat="47.29256" lon="-1.61462">
        <ele>52</ele>
        <time>2019-10-17T14:33:52.000Z</time>
      </trkpt>
      <trkpt lat="47.29258" lon="-1.61467">
        <ele>52</ele>
        <time>2019-10-17T14:33:53.000Z</time>
      </trkpt>
      <trkpt lat="47.29261" lon="-1.61473">
        <ele>52</ele>
        <time>2019-10-17T14:33:54.000Z</time>
      </trkpt>
      <trkpt lat="47.29263" lon="-1.61478">
        <ele>52</ele>
        <time>2019-10-17T14:33:55.000Z</time>
      </trkpt>
      <trkpt lat="47.29266" lon="-1.61483">
        <ele>52</ele>
        <time>2019-10-17T14:33:56.000Z</time>
      </trkpt>
      <trkpt lat="47.29269" lon="-1.61489">
        <ele>52</ele>
        <time>2019-10-17T14:33:57.000Z</time>
      </trkpt>
      <trkpt lat="47.29271" lon="-1.61494">
        <ele>52</ele>
        <time>2019-10-17T14:33:58.000Z</time>
      </trkpt>
      <trkpt lat="47.29272" lon="-1.61501">
        <ele>52</ele>
        <time>2019-10-17T14:33:59.000Z</time>
      </trkpt>
      <trkpt lat="47.29271" lon="-1.61508">
        <ele>52</ele>
        <time>2019-10-17T14:34:00.000Z</time>
      </trkpt>
      <trkpt lat="47.29269" lon="-1.61513">
        <ele>52</ele>
        <time>2019-10-17T14:34:01.000Z</time>
      </trkpt>
      <trkpt lat="47.29266" lon="-1.61518">
        <ele>52</ele>
        <time>2019-10-17T14:34:02.000Z</time>
      </trkpt>
      <trkpt lat="47.29262" lon="-1.61523">
        <ele>52</ele>
        <time>2019-10-17T14:34:03.000Z</time>
      </trkpt>
      <trkpt lat="47.29259" lon="-1.61527">
        <ele>52</ele>
        <time>2019-10-17T14:34:04.000Z</time>
      </trkpt>
      <trkpt lat="47.29256" lon="-1.61531">
        <ele>52</ele>
        <time>2019-10-17T14:34:05.000Z</time>
      </trkpt>
      <trkpt lat="47.29253" lon="-1.61536">
        <ele>52</ele>
        <time>2019-10-17T14:34:06.000Z</time>
      </trkpt>
      <trkpt lat="47.2925" lon="-1.6154">
        <ele>52</ele>
        <time>2019-10-17T14:34:07.000Z</time>
      </trkpt>
      <trkpt lat="47.29247" lon="-1.61545">
        <ele>52</ele>
        <time>2019-10-17T14:34:08.000Z</time>
      </trkpt>
      <trkpt lat="47.29244" lon="-1.6155">
        <ele>52</ele>
        <time>2019-10-17T14:34:09.000Z</time>
      </trkpt>
      <trkpt lat="47.29241" lon="-1.61554">
        <ele>52</ele>
        <time>2019-10-17T14:34:10.000Z</time>
      </trkpt>
      <trkpt lat="47.29238" lon="-1.61558">
        <ele>52</ele>
        <time>2019-10-17T14:34:11.000Z</time>
      </trkpt>
      <trkpt lat="47.29235" lon="-1.61562">
        <ele>53</ele>
        <time>2019-10-17T14:34:12.000Z</time>
      </trkpt>
      <trkpt lat="47.29232" lon="-1.61566">
        <ele>53</ele>
        <time>2019-10-17T14:34:13.000Z</time>
      </trkpt>
      <trkpt lat="47.2923" lon="-1.6157">
        <ele>53</ele>
        <time>2019-10-17T14:34:14.000Z</time>
      </trkpt>
      <trkpt lat="47.29228" lon="-1.61573">
        <ele>53</ele>
        <time>2019-10-17T14:34:15.000Z</time>
      </trkpt>
      <trkpt lat="47.29225" lon="-1.61577">
        <ele>53</ele>
        <time>2019-10-17T14:34:16.000Z</time>
      </trkpt>
      <trkpt lat="47.29223" lon="-1.6158">
        <ele>53</ele>
        <time>2019-10-17T14:34:17.000Z</time>
      </trkpt>
      <trkpt lat="47.29221" lon="-1.61584">
        <ele>53</ele>
        <time>2019-10-17T14:34:18.000Z</time>
      </trkpt>
      <trkpt lat="47.29218" lon="-1.61588">
        <ele>53</ele>
        <time>2019-10-17T14:34:19.000Z</time>
      </trkpt>
      <trkpt lat="47.29216" lon="-1.61592">
        <ele>53</ele>
        <time>2019-10-17T14:34:20.000Z</time>
      </trkpt>
      <trkpt lat="47.29213" lon="-1.61595">
        <ele>53</ele>
        <time>2019-10-17T14:34:21.000Z</time>
      </trkpt>
      <trkpt lat="47.2921" lon="-1.61599">
        <ele>53</ele>
        <time>2019-10-17T14:34:22.000Z</time>
      </trkpt>
      <trkpt lat="47.29207" lon="-1.61603">
        <ele>53</ele>
        <time>2019-10-17T14:34:23.000Z</time>
      </trkpt>
      <trkpt lat="47.29205" lon="-1.61607">
        <ele>53</ele>
        <time>2019-10-17T14:34:24.000Z</time>
      </trkpt>
      <trkpt lat="47.29202" lon="-1.61611">
        <ele>53</ele>
        <time>2019-10-17T14:34:25.000Z</time>
      </trkpt>
      <trkpt lat="47.29199" lon="-1.61615">
        <ele>53</ele>
        <time>2019-10-17T14:34:26.000Z</time>
      </trkpt>
      <trkpt lat="47.29197" lon="-1.61619">
        <ele>53</ele>
        <time>2019-10-17T14:34:27.000Z</time>
      </trkpt>
      <trkpt lat="47.29194" lon="-1.61622">
        <ele>54</ele>
        <time>2019-10-17T14:34:28.000Z</time>
      </trkpt>
      <trkpt lat="47.29192" lon="-1.61626">
        <ele>54</ele>
        <time>2019-10-17T14:34:29.000Z</time>
      </trkpt>
      <trkpt lat="47.29189" lon="-1.61629">
        <ele>54</ele>
        <time>2019-10-17T14:34:30.000Z</time>
      </trkpt>
      <trkpt lat="47.29187" lon="-1.61632">
        <ele>54</ele>
        <time>2019-10-17T14:34:31.000Z</time>
      </trkpt>
      <trkpt lat="47.29184" lon="-1.61635">
        <ele>54</ele>
        <time>2019-10-17T14:34:32.000Z</time>
      </trkpt>
      <trkpt lat="47.29182" lon="-1.61638">
        <ele>54</ele>
        <time>2019-10-17T14:34:33.000Z</time>
      </trkpt>
      <trkpt lat="47.2918" lon="-1.61639">
        <ele>55</ele>
        <time>2019-10-17T14:34:34.000Z</time>
      </trkpt>
      <trkpt lat="47.29179" lon="-1.61639">
        <ele>55</ele>
        <time>2019-10-17T14:34:35.000Z</time>
      </trkpt>
      <trkpt lat="47.29178" lon="-1.61639">
        <ele>55</ele>
        <time>2019-10-17T14:34:36.000Z</time>
      </trkpt>
      <trkpt lat="47.29178" lon="-1.61639">
        <ele>55</ele>
        <time>2019-10-17T14:34:37.000Z</time>
      </trkpt>
      <trkpt lat="47.29178" lon="-1.61638">
        <ele>55</ele>
        <time>2019-10-17T14:34:38.000Z</time>
      </trkpt>
      <trkpt lat="47.29173" lon="-1.6164">
        <ele>57</ele>
        <time>2019-10-17T14:34:39.000Z</time>
      </trkpt>
      <trkpt lat="47.29171" lon="-1.61642">
        <ele>57</ele>
        <time>2019-10-17T14:34:40.000Z</time>
      </trkpt>
      <trkpt lat="47.29169" lon="-1.61644">
        <ele>57</ele>
        <time>2019-10-17T14:34:41.000Z</time>
      </trkpt>
      <trkpt lat="47.29166" lon="-1.61647">
        <ele>57</ele>
        <time>2019-10-17T14:34:42.000Z</time>
      </trkpt>
      <trkpt lat="47.29163" lon="-1.6165">
        <ele>57</ele>
        <time>2019-10-17T14:34:43.000Z</time>
      </trkpt>
      <trkpt lat="47.29161" lon="-1.61652">
        <ele>57</ele>
        <time>2019-10-17T14:34:44.000Z</time>
      </trkpt>
      <trkpt lat="47.29159" lon="-1.61655">
        <ele>57</ele>
        <time>2019-10-17T14:34:45.000Z</time>
      </trkpt>
      <trkpt lat="47.29156" lon="-1.61657">
        <ele>57</ele>
        <time>2019-10-17T14:34:46.000Z</time>
      </trkpt>
      <trkpt lat="47.29154" lon="-1.61661">
        <ele>57</ele>
        <time>2019-10-17T14:34:47.000Z</time>
      </trkpt>
      <trkpt lat="47.29153" lon="-1.61665">
        <ele>57</ele>
        <time>2019-10-17T14:34:48.000Z</time>
      </trkpt>
      <trkpt lat="47.29151" lon="-1.61669">
        <ele>57</ele>
        <time>2019-10-17T14:34:49.000Z</time>
      </trkpt>
      <trkpt lat="47.29149" lon="-1.61672">
        <ele>57</ele>
        <time>2019-10-17T14:34:50.000Z</time>
      </trkpt>
      <trkpt lat="47.29146" lon="-1.61675">
        <ele>58</ele>
        <time>2019-10-17T14:34:51.000Z</time>
      </trkpt>
      <trkpt lat="47.29145" lon="-1.6168">
        <ele>58</ele>
        <time>2019-10-17T14:34:52.000Z</time>
      </trkpt>
      <trkpt lat="47.29144" lon="-1.61684">
        <ele>58</ele>
        <time>2019-10-17T14:34:53.000Z</time>
      </trkpt>
      <trkpt lat="47.29142" lon="-1.61688">
        <ele>58</ele>
        <time>2019-10-17T14:34:54.000Z</time>
      </trkpt>
      <trkpt lat="47.29141" lon="-1.61693">
        <ele>58</ele>
        <time>2019-10-17T14:34:55.000Z</time>
      </trkpt>
      <trkpt lat="47.2914" lon="-1.61698">
        <ele>58</ele>
        <time>2019-10-17T14:34:56.000Z</time>
      </trkpt>
      <trkpt lat="47.29139" lon="-1.61704">
        <ele>58</ele>
        <time>2019-10-17T14:34:57.000Z</time>
      </trkpt>
      <trkpt lat="47.29137" lon="-1.61709">
        <ele>58</ele>
        <time>2019-10-17T14:34:58.000Z</time>
      </trkpt>
      <trkpt lat="47.29135" lon="-1.61715">
        <ele>58</ele>
        <time>2019-10-17T14:34:59.000Z</time>
      </trkpt>
      <trkpt lat="47.29134" lon="-1.61721">
        <ele>58</ele>
        <time>2019-10-17T14:35:00.000Z</time>
      </trkpt>
      <trkpt lat="47.29132" lon="-1.61726">
        <ele>59</ele>
        <time>2019-10-17T14:35:01.000Z</time>
      </trkpt>
      <trkpt lat="47.29131" lon="-1.61732">
        <ele>59</ele>
        <time>2019-10-17T14:35:02.000Z</time>
      </trkpt>
      <trkpt lat="47.29129" lon="-1.61738">
        <ele>59</ele>
        <time>2019-10-17T14:35:03.000Z</time>
      </trkpt>
      <trkpt lat="47.29128" lon="-1.61743">
        <ele>59</ele>
        <time>2019-10-17T14:35:04.000Z</time>
      </trkpt>
      <trkpt lat="47.29126" lon="-1.61749">
        <ele>59</ele>
        <time>2019-10-17T14:35:05.000Z</time>
      </trkpt>
      <trkpt lat="47.29124" lon="-1.61755">
        <ele>59</ele>
        <time>2019-10-17T14:35:06.000Z</time>
      </trkpt>
      <trkpt lat="47.29121" lon="-1.6176">
        <ele>59</ele>
        <time>2019-10-17T14:35:07.000Z</time>
      </trkpt>
      <trkpt lat="47.29119" lon="-1.61765">
        <ele>59</ele>
        <time>2019-10-17T14:35:08.000Z</time>
      </trkpt>
      <trkpt lat="47.29116" lon="-1.6177">
        <ele>59</ele>
        <time>2019-10-17T14:35:09.000Z</time>
      </trkpt>
      <trkpt lat="47.29113" lon="-1.61775">
        <ele>59</ele>
        <time>2019-10-17T14:35:10.000Z</time>
      </trkpt>
      <trkpt lat="47.29109" lon="-1.61779">
        <ele>60</ele>
        <time>2019-10-17T14:35:11.000Z</time>
      </trkpt>
      <trkpt lat="47.29106" lon="-1.61783">
        <ele>60</ele>
        <time>2019-10-17T14:35:12.000Z</time>
      </trkpt>
      <trkpt lat="47.29103" lon="-1.61787">
        <ele>60</ele>
        <time>2019-10-17T14:35:13.000Z</time>
      </trkpt>
      <trkpt lat="47.29101" lon="-1.61792">
        <ele>60</ele>
        <time>2019-10-17T14:35:14.000Z</time>
      </trkpt>
      <trkpt lat="47.291" lon="-1.61797">
        <ele>60</ele>
        <time>2019-10-17T14:35:15.000Z</time>
      </trkpt>
      <trkpt lat="47.29099" lon="-1.61802">
        <ele>60</ele>
        <time>2019-10-17T14:35:16.000Z</time>
      </trkpt>
      <trkpt lat="47.29098" lon="-1.61807">
        <ele>60</ele>
        <time>2019-10-17T14:35:17.000Z</time>
      </trkpt>
      <trkpt lat="47.29096" lon="-1.61813">
        <ele>60</ele>
        <time>2019-10-17T14:35:18.000Z</time>
      </trkpt>
      <trkpt lat="47.29095" lon="-1.61818">
        <ele>61</ele>
        <time>2019-10-17T14:35:19.000Z</time>
      </trkpt>
      <trkpt lat="47.29093" lon="-1.61824">
        <ele>61</ele>
        <time>2019-10-17T14:35:20.000Z</time>
      </trkpt>
      <trkpt lat="47.29092" lon="-1.6183">
        <ele>61</ele>
        <time>2019-10-17T14:35:21.000Z</time>
      </trkpt>
      <trkpt lat="47.2909" lon="-1.61836">
        <ele>61</ele>
        <time>2019-10-17T14:35:22.000Z</time>
      </trkpt>
      <trkpt lat="47.29088" lon="-1.61842">
        <ele>61</ele>
        <time>2019-10-17T14:35:23.000Z</time>
      </trkpt>
      <trkpt lat="47.29087" lon="-1.61848">
        <ele>61</ele>
        <time>2019-10-17T14:35:24.000Z</time>
      </trkpt>
      <trkpt lat="47.29086" lon="-1.61855">
        <ele>61</ele>
        <time>2019-10-17T14:35:25.000Z</time>
      </trkpt>
      <trkpt lat="47.29085" lon="-1.61863">
        <ele>61</ele>
        <time>2019-10-17T14:35:26.000Z</time>
      </trkpt>
      <trkpt lat="47.29084" lon="-1.61872">
        <ele>61</ele>
        <time>2019-10-17T14:35:27.000Z</time>
      </trkpt>
      <trkpt lat="47.29082" lon="-1.61881">
        <ele>62</ele>
        <time>2019-10-17T14:35:28.000Z</time>
      </trkpt>
      <trkpt lat="47.2908" lon="-1.6189">
        <ele>62</ele>
        <time>2019-10-17T14:35:29.000Z</time>
      </trkpt>
      <trkpt lat="47.29078" lon="-1.61899">
        <ele>62</ele>
        <time>2019-10-17T14:35:30.000Z</time>
      </trkpt>
      <trkpt lat="47.29076" lon="-1.61908">
        <ele>62</ele>
        <time>2019-10-17T14:35:31.000Z</time>
      </trkpt>
      <trkpt lat="47.29074" lon="-1.61917">
        <ele>62</ele>
        <time>2019-10-17T14:35:32.000Z</time>
      </trkpt>
      <trkpt lat="47.29071" lon="-1.61926">
        <ele>62</ele>
        <time>2019-10-17T14:35:33.000Z</time>
      </trkpt>
      <trkpt lat="47.29068" lon="-1.61935">
        <ele>62</ele>
        <time>2019-10-17T14:35:34.000Z</time>
      </trkpt>
      <trkpt lat="47.29063" lon="-1.61943">
        <ele>62</ele>
        <time>2019-10-17T14:35:35.000Z</time>
      </trkpt>
      <trkpt lat="47.29057" lon="-1.6195">
        <ele>62</ele>
        <time>2019-10-17T14:35:36.000Z</time>
      </trkpt>
      <trkpt lat="47.29051" lon="-1.61955">
        <ele>62</ele>
        <time>2019-10-17T14:35:37.000Z</time>
      </trkpt>
      <trkpt lat="47.29044" lon="-1.61961">
        <ele>62</ele>
        <time>2019-10-17T14:35:38.000Z</time>
      </trkpt>
      <trkpt lat="47.29038" lon="-1.61967">
        <ele>61</ele>
        <time>2019-10-17T14:35:39.000Z</time>
      </trkpt>
      <trkpt lat="47.29033" lon="-1.61972">
        <ele>61</ele>
        <time>2019-10-17T14:35:40.000Z</time>
      </trkpt>
      <trkpt lat="47.29027" lon="-1.61977">
        <ele>61</ele>
        <time>2019-10-17T14:35:41.000Z</time>
      </trkpt>
      <trkpt lat="47.29022" lon="-1.61982">
        <ele>61</ele>
        <time>2019-10-17T14:35:42.000Z</time>
      </trkpt>
      <trkpt lat="47.29016" lon="-1.61987">
        <ele>61</ele>
        <time>2019-10-17T14:35:43.000Z</time>
      </trkpt>
      <trkpt lat="47.2901" lon="-1.61992">
        <ele>60</ele>
        <time>2019-10-17T14:35:44.000Z</time>
      </trkpt>
      <trkpt lat="47.29004" lon="-1.61995">
        <ele>60</ele>
        <time>2019-10-17T14:35:45.000Z</time>
      </trkpt>
      <trkpt lat="47.28998" lon="-1.61998">
        <ele>60</ele>
        <time>2019-10-17T14:35:46.000Z</time>
      </trkpt>
      <trkpt lat="47.28992" lon="-1.62">
        <ele>59</ele>
        <time>2019-10-17T14:35:47.000Z</time>
      </trkpt>
      <trkpt lat="47.28986" lon="-1.62002">
        <ele>59</ele>
        <time>2019-10-17T14:35:48.000Z</time>
      </trkpt>
      <trkpt lat="47.28979" lon="-1.62005">
        <ele>59</ele>
        <time>2019-10-17T14:35:49.000Z</time>
      </trkpt>
      <trkpt lat="47.28972" lon="-1.62008">
        <ele>58</ele>
        <time>2019-10-17T14:35:50.000Z</time>
      </trkpt>
      <trkpt lat="47.28965" lon="-1.62011">
        <ele>58</ele>
        <time>2019-10-17T14:35:51.000Z</time>
      </trkpt>
      <trkpt lat="47.28959" lon="-1.62013">
        <ele>58</ele>
        <time>2019-10-17T14:35:52.000Z</time>
      </trkpt>
      <trkpt lat="47.28952" lon="-1.62016">
        <ele>57</ele>
        <time>2019-10-17T14:35:53.000Z</time>
      </trkpt>
      <trkpt lat="47.28945" lon="-1.62018">
        <ele>57</ele>
        <time>2019-10-17T14:35:54.000Z</time>
      </trkpt>
      <trkpt lat="47.28938" lon="-1.6202">
        <ele>56</ele>
        <time>2019-10-17T14:35:55.000Z</time>
      </trkpt>
      <trkpt lat="47.2893" lon="-1.62021">
        <ele>56</ele>
        <time>2019-10-17T14:35:56.000Z</time>
      </trkpt>
      <trkpt lat="47.28922" lon="-1.62021">
        <ele>56</ele>
        <time>2019-10-17T14:35:57.000Z</time>
      </trkpt>
      <trkpt lat="47.28915" lon="-1.62021">
        <ele>55</ele>
        <time>2019-10-17T14:35:58.000Z</time>
      </trkpt>
      <trkpt lat="47.28907" lon="-1.62023">
        <ele>55</ele>
        <time>2019-10-17T14:35:59.000Z</time>
      </trkpt>
      <trkpt lat="47.28899" lon="-1.62026">
        <ele>54</ele>
        <time>2019-10-17T14:36:00.000Z</time>
      </trkpt>
      <trkpt lat="47.28891" lon="-1.6203">
        <ele>54</ele>
        <time>2019-10-17T14:36:01.000Z</time>
      </trkpt>
      <trkpt lat="47.28883" lon="-1.62035">
        <ele>54</ele>
        <time>2019-10-17T14:36:02.000Z</time>
      </trkpt>
      <trkpt lat="47.28875" lon="-1.62041">
        <ele>53</ele>
        <time>2019-10-17T14:36:03.000Z</time>
      </trkpt>
      <trkpt lat="47.28868" lon="-1.62047">
        <ele>53</ele>
        <time>2019-10-17T14:36:04.000Z</time>
      </trkpt>
      <trkpt lat="47.2886" lon="-1.62052">
        <ele>53</ele>
        <time>2019-10-17T14:36:05.000Z</time>
      </trkpt>
      <trkpt lat="47.28853" lon="-1.62057">
        <ele>52</ele>
        <time>2019-10-17T14:36:06.000Z</time>
      </trkpt>
      <trkpt lat="47.28845" lon="-1.6206">
        <ele>52</ele>
        <time>2019-10-17T14:36:07.000Z</time>
      </trkpt>
      <trkpt lat="47.28838" lon="-1.62063">
        <ele>51</ele>
        <time>2019-10-17T14:36:08.000Z</time>
      </trkpt>
      <trkpt lat="47.28832" lon="-1.62066">
        <ele>51</ele>
        <time>2019-10-17T14:36:09.000Z</time>
      </trkpt>
      <trkpt lat="47.28827" lon="-1.62071">
        <ele>50</ele>
        <time>2019-10-17T14:36:10.000Z</time>
      </trkpt>
      <trkpt lat="47.28824" lon="-1.62078">
        <ele>50</ele>
        <time>2019-10-17T14:36:11.000Z</time>
      </trkpt>
      <trkpt lat="47.2882" lon="-1.62084">
        <ele>49</ele>
        <time>2019-10-17T14:36:12.000Z</time>
      </trkpt>
      <trkpt lat="47.28816" lon="-1.6209">
        <ele>49</ele>
        <time>2019-10-17T14:36:13.000Z</time>
      </trkpt>
      <trkpt lat="47.28813" lon="-1.62096">
        <ele>49</ele>
        <time>2019-10-17T14:36:14.000Z</time>
      </trkpt>
      <trkpt lat="47.2881" lon="-1.62102">
        <ele>48</ele>
        <time>2019-10-17T14:36:15.000Z</time>
      </trkpt>
      <trkpt lat="47.28808" lon="-1.62107">
        <ele>48</ele>
        <time>2019-10-17T14:36:16.000Z</time>
      </trkpt>
      <trkpt lat="47.28807" lon="-1.62112">
        <ele>48</ele>
        <time>2019-10-17T14:36:17.000Z</time>
      </trkpt>
      <trkpt lat="47.28805" lon="-1.62117">
        <ele>48</ele>
        <time>2019-10-17T14:36:18.000Z</time>
      </trkpt>
      <trkpt lat="47.28804" lon="-1.62121">
        <ele>48</ele>
        <time>2019-10-17T14:36:19.000Z</time>
      </trkpt>
      <trkpt lat="47.28804" lon="-1.62126">
        <ele>48</ele>
        <time>2019-10-17T14:36:20.000Z</time>
      </trkpt>
      <trkpt lat="47.28803" lon="-1.62129">
        <ele>48</ele>
        <time>2019-10-17T14:36:21.000Z</time>
      </trkpt>
      <trkpt lat="47.28802" lon="-1.62134">
        <ele>48</ele>
        <time>2019-10-17T14:36:22.000Z</time>
      </trkpt>
      <trkpt lat="47.28801" lon="-1.62138">
        <ele>48</ele>
        <time>2019-10-17T14:36:23.000Z</time>
      </trkpt>
      <trkpt lat="47.288" lon="-1.62143">
        <ele>48</ele>
        <time>2019-10-17T14:36:24.000Z</time>
      </trkpt>
      <trkpt lat="47.28799" lon="-1.62148">
        <ele>48</ele>
        <time>2019-10-17T14:36:25.000Z</time>
      </trkpt>
      <trkpt lat="47.28797" lon="-1.62154">
        <ele>47</ele>
        <time>2019-10-17T14:36:26.000Z</time>
      </trkpt>
      <trkpt lat="47.28796" lon="-1.62159">
        <ele>47</ele>
        <time>2019-10-17T14:36:27.000Z</time>
      </trkpt>
      <trkpt lat="47.28794" lon="-1.62164">
        <ele>47</ele>
        <time>2019-10-17T14:36:28.000Z</time>
      </trkpt>
      <trkpt lat="47.28792" lon="-1.62169">
        <ele>47</ele>
        <time>2019-10-17T14:36:29.000Z</time>
      </trkpt>
      <trkpt lat="47.2879" lon="-1.62173">
        <ele>47</ele>
        <time>2019-10-17T14:36:30.000Z</time>
      </trkpt>
      <trkpt lat="47.28789" lon="-1.62177">
        <ele>47</ele>
        <time>2019-10-17T14:36:31.000Z</time>
      </trkpt>
      <trkpt lat="47.28787" lon="-1.62181">
        <ele>47</ele>
        <time>2019-10-17T14:36:32.000Z</time>
      </trkpt>
      <trkpt lat="47.28785" lon="-1.62185">
        <ele>47</ele>
        <time>2019-10-17T14:36:33.000Z</time>
      </trkpt>
      <trkpt lat="47.28784" lon="-1.62189">
        <ele>47</ele>
        <time>2019-10-17T14:36:34.000Z</time>
      </trkpt>
      <trkpt lat="47.28783" lon="-1.62194">
        <ele>47</ele>
        <time>2019-10-17T14:36:35.000Z</time>
      </trkpt>
      <trkpt lat="47.28782" lon="-1.62198">
        <ele>47</ele>
        <time>2019-10-17T14:36:36.000Z</time>
      </trkpt>
      <trkpt lat="47.28781" lon="-1.62202">
        <ele>47</ele>
        <time>2019-10-17T14:36:37.000Z</time>
      </trkpt>
      <trkpt lat="47.2878" lon="-1.62206">
        <ele>47</ele>
        <time>2019-10-17T14:36:38.000Z</time>
      </trkpt>
      <trkpt lat="47.28779" lon="-1.62209">
        <ele>47</ele>
        <time>2019-10-17T14:36:39.000Z</time>
      </trkpt>
      <trkpt lat="47.28778" lon="-1.62213">
        <ele>47</ele>
        <time>2019-10-17T14:36:40.000Z</time>
      </trkpt>
      <trkpt lat="47.28778" lon="-1.62217">
        <ele>47</ele>
        <time>2019-10-17T14:36:41.000Z</time>
      </trkpt>
      <trkpt lat="47.28778" lon="-1.62221">
        <ele>47</ele>
        <time>2019-10-17T14:36:42.000Z</time>
      </trkpt>
      <trkpt lat="47.28779" lon="-1.62226">
        <ele>47</ele>
        <time>2019-10-17T14:36:43.000Z</time>
      </trkpt>
      <trkpt lat="47.2878" lon="-1.6223">
        <ele>47</ele>
        <time>2019-10-17T14:36:44.000Z</time>
      </trkpt>
      <trkpt lat="47.28781" lon="-1.62235">
        <ele>47</ele>
        <time>2019-10-17T14:36:45.000Z</time>
      </trkpt>
      <trkpt lat="47.28782" lon="-1.6224">
        <ele>47</ele>
        <time>2019-10-17T14:36:46.000Z</time>
      </trkpt>
      <trkpt lat="47.28782" lon="-1.62244">
        <ele>47</ele>
        <time>2019-10-17T14:36:47.000Z</time>
      </trkpt>
      <trkpt lat="47.28783" lon="-1.62248">
        <ele>47</ele>
        <time>2019-10-17T14:36:48.000Z</time>
      </trkpt>
      <trkpt lat="47.28783" lon="-1.62251">
        <ele>48</ele>
        <time>2019-10-17T14:36:49.000Z</time>
      </trkpt>
      <trkpt lat="47.28784" lon="-1.62254">
        <ele>48</ele>
        <time>2019-10-17T14:36:50.000Z</time>
      </trkpt>
      <trkpt lat="47.28784" lon="-1.62257">
        <ele>48</ele>
        <time>2019-10-17T14:36:51.000Z</time>
      </trkpt>
      <trkpt lat="47.28785" lon="-1.6226">
        <ele>48</ele>
        <time>2019-10-17T14:36:52.000Z</time>
      </trkpt>
      <trkpt lat="47.28785" lon="-1.62263">
        <ele>48</ele>
        <time>2019-10-17T14:36:53.000Z</time>
      </trkpt>
      <trkpt lat="47.28785" lon="-1.62266">
        <ele>48</ele>
        <time>2019-10-17T14:36:54.000Z</time>
      </trkpt>
      <trkpt lat="47.28785" lon="-1.62269">
        <ele>48</ele>
        <time>2019-10-17T14:36:55.000Z</time>
      </trkpt>
      <trkpt lat="47.28785" lon="-1.62271">
        <ele>48</ele>
        <time>2019-10-17T14:36:56.000Z</time>
      </trkpt>
      <trkpt lat="47.28786" lon="-1.62274">
        <ele>48</ele>
        <time>2019-10-17T14:36:57.000Z</time>
      </trkpt>
      <trkpt lat="47.28785" lon="-1.62278">
        <ele>48</ele>
        <time>2019-10-17T14:36:58.000Z</time>
      </trkpt>
      <trkpt lat="47.28786" lon="-1.62281">
        <ele>48</ele>
        <time>2019-10-17T14:36:59.000Z</time>
      </trkpt>
      <trkpt lat="47.28786" lon="-1.62284">
        <ele>48</ele>
        <time>2019-10-17T14:37:00.000Z</time>
      </trkpt>
      <trkpt lat="47.28787" lon="-1.62285">
        <ele>48</ele>
        <time>2019-10-17T14:37:01.000Z</time>
      </trkpt>
      <trkpt lat="47.28788" lon="-1.62287">
        <ele>48</ele>
        <time>2019-10-17T14:37:02.000Z</time>
      </trkpt>
      <trkpt lat="47.2879" lon="-1.62288">
        <ele>48</ele>
        <time>2019-10-17T14:37:03.000Z</time>
      </trkpt>
      <trkpt lat="47.28792" lon="-1.62288">
        <ele>49</ele>
        <time>2019-10-17T14:37:04.000Z</time>
      </trkpt>
      <trkpt lat="47.28794" lon="-1.6229">
        <ele>49</ele>
        <time>2019-10-17T14:37:05.000Z</time>
      </trkpt>
      <trkpt lat="47.28796" lon="-1.62292">
        <ele>49</ele>
        <time>2019-10-17T14:37:06.000Z</time>
      </trkpt>
      <trkpt lat="47.28798" lon="-1.62293">
        <ele>49</ele>
        <time>2019-10-17T14:37:07.000Z</time>
      </trkpt>
      <trkpt lat="47.288" lon="-1.62294">
        <ele>50</ele>
        <time>2019-10-17T14:37:08.000Z</time>
      </trkpt>
      <trkpt lat="47.28802" lon="-1.62295">
        <ele>50</ele>
        <time>2019-10-17T14:37:09.000Z</time>
      </trkpt>
      <trkpt lat="47.28804" lon="-1.62297">
        <ele>50</ele>
        <time>2019-10-17T14:37:10.000Z</time>
      </trkpt>
      <trkpt lat="47.28807" lon="-1.62298">
        <ele>50</ele>
        <time>2019-10-17T14:37:11.000Z</time>
      </trkpt>
      <trkpt lat="47.2881" lon="-1.623">
        <ele>50</ele>
        <time>2019-10-17T14:37:12.000Z</time>
      </trkpt>
      <trkpt lat="47.28813" lon="-1.62301">
        <ele>50</ele>
        <time>2019-10-17T14:37:13.000Z</time>
      </trkpt>
      <trkpt lat="47.28816" lon="-1.62302">
        <ele>50</ele>
        <time>2019-10-17T14:37:14.000Z</time>
      </trkpt>
      <trkpt lat="47.28819" lon="-1.62303">
        <ele>50</ele>
        <time>2019-10-17T14:37:15.000Z</time>
      </trkpt>
      <trkpt lat="47.28821" lon="-1.62304">
        <ele>51</ele>
        <time>2019-10-17T14:37:16.000Z</time>
      </trkpt>
      <trkpt lat="47.28822" lon="-1.62306">
        <ele>51</ele>
        <time>2019-10-17T14:37:17.000Z</time>
      </trkpt>
      <trkpt lat="47.28823" lon="-1.62307">
        <ele>51</ele>
        <time>2019-10-17T14:37:18.000Z</time>
      </trkpt>
      <trkpt lat="47.28825" lon="-1.62308">
        <ele>51</ele>
        <time>2019-10-17T14:37:19.000Z</time>
      </trkpt>
      <trkpt lat="47.28825" lon="-1.62309">
        <ele>51</ele>
        <time>2019-10-17T14:37:20.000Z</time>
      </trkpt>
      <trkpt lat="47.28826" lon="-1.6231">
        <ele>51</ele>
        <time>2019-10-17T14:37:21.000Z</time>
      </trkpt>
      <trkpt lat="47.28828" lon="-1.62311">
        <ele>51</ele>
        <time>2019-10-17T14:37:22.000Z</time>
      </trkpt>
      <trkpt lat="47.2883" lon="-1.62312">
        <ele>51</ele>
        <time>2019-10-17T14:37:23.000Z</time>
      </trkpt>
      <trkpt lat="47.28832" lon="-1.62314">
        <ele>51</ele>
        <time>2019-10-17T14:37:24.000Z</time>
      </trkpt>
      <trkpt lat="47.28834" lon="-1.62315">
        <ele>51</ele>
        <time>2019-10-17T14:37:25.000Z</time>
      </trkpt>
      <trkpt lat="47.28837" lon="-1.62316">
        <ele>51</ele>
        <time>2019-10-17T14:37:26.000Z</time>
      </trkpt>
      <trkpt lat="47.28839" lon="-1.62316">
        <ele>51</ele>
        <time>2019-10-17T14:37:27.000Z</time>
      </trkpt>
      <trkpt lat="47.28841" lon="-1.62316">
        <ele>51</ele>
        <time>2019-10-17T14:37:28.000Z</time>
      </trkpt>
      <trkpt lat="47.28844" lon="-1.62316">
        <ele>51</ele>
        <time>2019-10-17T14:37:29.000Z</time>
      </trkpt>
      <trkpt lat="47.28846" lon="-1.62315">
        <ele>51</ele>
        <time>2019-10-17T14:37:30.000Z</time>
      </trkpt>
      <trkpt lat="47.28849" lon="-1.62314">
        <ele>51</ele>
        <time>2019-10-17T14:37:31.000Z</time>
      </trkpt>
      <trkpt lat="47.28852" lon="-1.62315">
        <ele>51</ele>
        <time>2019-10-17T14:37:32.000Z</time>
      </trkpt>
      <trkpt lat="47.28854" lon="-1.62316">
        <ele>52</ele>
        <time>2019-10-17T14:37:33.000Z</time>
      </trkpt>
      <trkpt lat="47.28857" lon="-1.62317">
        <ele>52</ele>
        <time>2019-10-17T14:37:34.000Z</time>
      </trkpt>
      <trkpt lat="47.28859" lon="-1.62318">
        <ele>52</ele>
        <time>2019-10-17T14:37:35.000Z</time>
      </trkpt>
      <trkpt lat="47.28861" lon="-1.62317">
        <ele>52</ele>
        <time>2019-10-17T14:37:36.000Z</time>
      </trkpt>
      <trkpt lat="47.28863" lon="-1.62314">
        <ele>52</ele>
        <time>2019-10-17T14:37:37.000Z</time>
      </trkpt>
      <trkpt lat="47.28865" lon="-1.62311">
        <ele>52</ele>
        <time>2019-10-17T14:37:38.000Z</time>
      </trkpt>
      <trkpt lat="47.28867" lon="-1.62307">
        <ele>52</ele>
        <time>2019-10-17T14:37:39.000Z</time>
      </trkpt>
      <trkpt lat="47.2887" lon="-1.62302">
        <ele>52</ele>
        <time>2019-10-17T14:37:40.000Z</time>
      </trkpt>
      <trkpt lat="47.28872" lon="-1.62296">
        <ele>52</ele>
        <time>2019-10-17T14:37:41.000Z</time>
      </trkpt>
      <trkpt lat="47.28875" lon="-1.6229">
        <ele>52</ele>
        <time>2019-10-17T14:37:42.000Z</time>
      </trkpt>
      <trkpt lat="47.28877" lon="-1.62285">
        <ele>52</ele>
        <time>2019-10-17T14:37:43.000Z</time>
      </trkpt>
      <trkpt lat="47.28879" lon="-1.62279">
        <ele>52</ele>
        <time>2019-10-17T14:37:44.000Z</time>
      </trkpt>
      <trkpt lat="47.28882" lon="-1.62276">
        <ele>52</ele>
        <time>2019-10-17T14:37:45.000Z</time>
      </trkpt>
      <trkpt lat="47.28885" lon="-1.62275">
        <ele>52</ele>
        <time>2019-10-17T14:37:46.000Z</time>
      </trkpt>
      <trkpt lat="47.28888" lon="-1.62275">
        <ele>52</ele>
        <time>2019-10-17T14:37:47.000Z</time>
      </trkpt>
      <trkpt lat="47.28891" lon="-1.62276">
        <ele>52</ele>
        <time>2019-10-17T14:37:48.000Z</time>
      </trkpt>
      <trkpt lat="47.28895" lon="-1.62278">
        <ele>52</ele>
        <time>2019-10-17T14:37:49.000Z</time>
      </trkpt>
      <trkpt lat="47.28898" lon="-1.62279">
        <ele>52</ele>
        <time>2019-10-17T14:37:50.000Z</time>
      </trkpt>
      <trkpt lat="47.28901" lon="-1.6228">
        <ele>52</ele>
        <time>2019-10-17T14:37:51.000Z</time>
      </trkpt>
      <trkpt lat="47.28903" lon="-1.62282">
        <ele>52</ele>
        <time>2019-10-17T14:37:52.000Z</time>
      </trkpt>
      <trkpt lat="47.28906" lon="-1.62283">
        <ele>52</ele>
        <time>2019-10-17T14:37:53.000Z</time>
      </trkpt>
      <trkpt lat="47.28909" lon="-1.62284">
        <ele>52</ele>
        <time>2019-10-17T14:37:54.000Z</time>
      </trkpt>
      <trkpt lat="47.28911" lon="-1.62285">
        <ele>52</ele>
        <time>2019-10-17T14:37:55.000Z</time>
      </trkpt>
      <trkpt lat="47.28913" lon="-1.62287">
        <ele>52</ele>
        <time>2019-10-17T14:37:56.000Z</time>
      </trkpt>
      <trkpt lat="47.28916" lon="-1.62288">
        <ele>52</ele>
        <time>2019-10-17T14:37:57.000Z</time>
      </trkpt>
      <trkpt lat="47.28918" lon="-1.62289">
        <ele>52</ele>
        <time>2019-10-17T14:37:58.000Z</time>
      </trkpt>
      <trkpt lat="47.28921" lon="-1.62291">
        <ele>53</ele>
        <time>2019-10-17T14:37:59.000Z</time>
      </trkpt>
      <trkpt lat="47.28924" lon="-1.62293">
        <ele>53</ele>
        <time>2019-10-17T14:38:00.000Z</time>
      </trkpt>
      <trkpt lat="47.28928" lon="-1.62295">
        <ele>53</ele>
        <time>2019-10-17T14:38:01.000Z</time>
      </trkpt>
      <trkpt lat="47.28931" lon="-1.62296">
        <ele>53</ele>
        <time>2019-10-17T14:38:02.000Z</time>
      </trkpt>
      <trkpt lat="47.28935" lon="-1.62297">
        <ele>53</ele>
        <time>2019-10-17T14:38:03.000Z</time>
      </trkpt>
      <trkpt lat="47.28938" lon="-1.62299">
        <ele>53</ele>
        <time>2019-10-17T14:38:04.000Z</time>
      </trkpt>
      <trkpt lat="47.28942" lon="-1.62301">
        <ele>53</ele>
        <time>2019-10-17T14:38:05.000Z</time>
      </trkpt>
      <trkpt lat="47.28945" lon="-1.62302">
        <ele>53</ele>
        <time>2019-10-17T14:38:06.000Z</time>
      </trkpt>
      <trkpt lat="47.28948" lon="-1.62303">
        <ele>53</ele>
        <time>2019-10-17T14:38:07.000Z</time>
      </trkpt>
      <trkpt lat="47.28951" lon="-1.62304">
        <ele>53</ele>
        <time>2019-10-17T14:38:08.000Z</time>
      </trkpt>
      <trkpt lat="47.28954" lon="-1.62305">
        <ele>53</ele>
        <time>2019-10-17T14:38:09.000Z</time>
      </trkpt>
      <trkpt lat="47.28957" lon="-1.62306">
        <ele>53</ele>
        <time>2019-10-17T14:38:10.000Z</time>
      </trkpt>
      <trkpt lat="47.2896" lon="-1.62308">
        <ele>53</ele>
        <time>2019-10-17T14:38:11.000Z</time>
      </trkpt>
      <trkpt lat="47.28963" lon="-1.62309">
        <ele>53</ele>
        <time>2019-10-17T14:38:12.000Z</time>
      </trkpt>
      <trkpt lat="47.28966" lon="-1.6231">
        <ele>53</ele>
        <time>2019-10-17T14:38:13.000Z</time>
      </trkpt>
      <trkpt lat="47.28969" lon="-1.62312">
        <ele>53</ele>
        <time>2019-10-17T14:38:14.000Z</time>
      </trkpt>
      <trkpt lat="47.28971" lon="-1.62314">
        <ele>53</ele>
        <time>2019-10-17T14:38:15.000Z</time>
      </trkpt>
      <trkpt lat="47.28974" lon="-1.62315">
        <ele>52</ele>
        <time>2019-10-17T14:38:16.000Z</time>
      </trkpt>
      <trkpt lat="47.28976" lon="-1.62316">
        <ele>52</ele>
        <time>2019-10-17T14:38:17.000Z</time>
      </trkpt>
      <trkpt lat="47.28979" lon="-1.62317">
        <ele>52</ele>
        <time>2019-10-17T14:38:18.000Z</time>
      </trkpt>
      <trkpt lat="47.28981" lon="-1.62318">
        <ele>52</ele>
        <time>2019-10-17T14:38:19.000Z</time>
      </trkpt>
      <trkpt lat="47.28985" lon="-1.6232">
        <ele>52</ele>
        <time>2019-10-17T14:38:20.000Z</time>
      </trkpt>
      <trkpt lat="47.28988" lon="-1.62321">
        <ele>52</ele>
        <time>2019-10-17T14:38:21.000Z</time>
      </trkpt>
      <trkpt lat="47.28991" lon="-1.62322">
        <ele>52</ele>
        <time>2019-10-17T14:38:22.000Z</time>
      </trkpt>
      <trkpt lat="47.28993" lon="-1.62323">
        <ele>52</ele>
        <time>2019-10-17T14:38:23.000Z</time>
      </trkpt>
      <trkpt lat="47.28996" lon="-1.62324">
        <ele>52</ele>
        <time>2019-10-17T14:38:24.000Z</time>
      </trkpt>
      <trkpt lat="47.28998" lon="-1.62325">
        <ele>52</ele>
        <time>2019-10-17T14:38:25.000Z</time>
      </trkpt>
      <trkpt lat="47.28999" lon="-1.62327">
        <ele>52</ele>
        <time>2019-10-17T14:38:26.000Z</time>
      </trkpt>
      <trkpt lat="47.29001" lon="-1.62328">
        <ele>52</ele>
        <time>2019-10-17T14:38:27.000Z</time>
      </trkpt>
      <trkpt lat="47.29002" lon="-1.62328">
        <ele>52</ele>
        <time>2019-10-17T14:38:28.000Z</time>
      </trkpt>
      <trkpt lat="47.29003" lon="-1.62328">
        <ele>52</ele>
        <time>2019-10-17T14:38:29.000Z</time>
      </trkpt>
      <trkpt lat="47.29003" lon="-1.62328">
        <ele>51</ele>
        <time>2019-10-17T14:38:30.000Z</time>
      </trkpt>
      <trkpt lat="47.29013" lon="-1.62328">
        <ele>50</ele>
        <time>2019-10-17T14:38:31.000Z</time>
      </trkpt>
      <trkpt lat="47.29014" lon="-1.62329">
        <ele>50</ele>
        <time>2019-10-17T14:38:32.000Z</time>
      </trkpt>
      <trkpt lat="47.29015" lon="-1.6233">
        <ele>50</ele>
        <time>2019-10-17T14:38:33.000Z</time>
      </trkpt>
      <trkpt lat="47.29016" lon="-1.6233">
        <ele>49</ele>
        <time>2019-10-17T14:38:34.000Z</time>
      </trkpt>
      <trkpt lat="47.29018" lon="-1.6233">
        <ele>49</ele>
        <time>2019-10-17T14:38:35.000Z</time>
      </trkpt>
      <trkpt lat="47.2902" lon="-1.62331">
        <ele>49</ele>
        <time>2019-10-17T14:38:36.000Z</time>
      </trkpt>
      <trkpt lat="47.29022" lon="-1.62332">
        <ele>49</ele>
        <time>2019-10-17T14:38:37.000Z</time>
      </trkpt>
      <trkpt lat="47.29024" lon="-1.62333">
        <ele>49</ele>
        <time>2019-10-17T14:38:38.000Z</time>
      </trkpt>
      <trkpt lat="47.29025" lon="-1.62334">
        <ele>49</ele>
        <time>2019-10-17T14:38:39.000Z</time>
      </trkpt>
      <trkpt lat="47.29026" lon="-1.62336">
        <ele>49</ele>
        <time>2019-10-17T14:38:40.000Z</time>
      </trkpt>
      <trkpt lat="47.29027" lon="-1.62339">
        <ele>49</ele>
        <time>2019-10-17T14:38:41.000Z</time>
      </trkpt>
      <trkpt lat="47.29028" lon="-1.62341">
        <ele>49</ele>
        <time>2019-10-17T14:38:42.000Z</time>
      </trkpt>
      <trkpt lat="47.29029" lon="-1.62343">
        <ele>49</ele>
        <time>2019-10-17T14:38:43.000Z</time>
      </trkpt>
      <trkpt lat="47.2903" lon="-1.62345">
        <ele>49</ele>
        <time>2019-10-17T14:38:44.000Z</time>
      </trkpt>
      <trkpt lat="47.2903" lon="-1.62348">
        <ele>49</ele>
        <time>2019-10-17T14:38:45.000Z</time>
      </trkpt>
      <trkpt lat="47.29031" lon="-1.6235">
        <ele>49</ele>
        <time>2019-10-17T14:38:46.000Z</time>
      </trkpt>
      <trkpt lat="47.29031" lon="-1.62352">
        <ele>49</ele>
        <time>2019-10-17T14:38:47.000Z</time>
      </trkpt>
      <trkpt lat="47.29031" lon="-1.62355">
        <ele>49</ele>
        <time>2019-10-17T14:38:48.000Z</time>
      </trkpt>
      <trkpt lat="47.2903" lon="-1.62356">
        <ele>49</ele>
        <time>2019-10-17T14:38:49.000Z</time>
      </trkpt>
      <trkpt lat="47.2903" lon="-1.62357">
        <ele>49</ele>
        <time>2019-10-17T14:38:50.000Z</time>
      </trkpt>
      <trkpt lat="47.29029" lon="-1.62357">
        <ele>49</ele>
        <time>2019-10-17T14:38:51.000Z</time>
      </trkpt>
      <trkpt lat="47.29029" lon="-1.62356">
        <ele>49</ele>
        <time>2019-10-17T14:38:52.000Z</time>
      </trkpt>
      <trkpt lat="47.29028" lon="-1.62356">
        <ele>49</ele>
        <time>2019-10-17T14:38:53.000Z</time>
      </trkpt>
      <trkpt lat="47.29027" lon="-1.62356">
        <ele>49</ele>
        <time>2019-10-17T14:38:54.000Z</time>
      </trkpt>
      <trkpt lat="47.29026" lon="-1.62355">
        <ele>49</ele>
        <time>2019-10-17T14:38:55.000Z</time>
      </trkpt>
      <trkpt lat="47.29026" lon="-1.62353">
        <ele>49</ele>
        <time>2019-10-17T14:38:56.000Z</time>
      </trkpt>
      <trkpt lat="47.29025" lon="-1.62352">
        <ele>49</ele>
        <time>2019-10-17T14:38:57.000Z</time>
      </trkpt>
      <trkpt lat="47.29024" lon="-1.62353">
        <ele>49</ele>
        <time>2019-10-17T14:38:58.000Z</time>
      </trkpt>
      <trkpt lat="47.29022" lon="-1.62353">
        <ele>49</ele>
        <time>2019-10-17T14:38:59.000Z</time>
      </trkpt>
      <trkpt lat="47.29021" lon="-1.62353">
        <ele>49</ele>
        <time>2019-10-17T14:39:00.000Z</time>
      </trkpt>
      <trkpt lat="47.29019" lon="-1.62354">
        <ele>50</ele>
        <time>2019-10-17T14:39:01.000Z</time>
      </trkpt>
      <trkpt lat="47.29018" lon="-1.62354">
        <ele>50</ele>
        <time>2019-10-17T14:39:02.000Z</time>
      </trkpt>
      <trkpt lat="47.29017" lon="-1.62354">
        <ele>50</ele>
        <time>2019-10-17T14:39:03.000Z</time>
      </trkpt>
      <trkpt lat="47.29015" lon="-1.62354">
        <ele>50</ele>
        <time>2019-10-17T14:39:04.000Z</time>
      </trkpt>
      <trkpt lat="47.29015" lon="-1.62353">
        <ele>50</ele>
        <time>2019-10-17T14:39:05.000Z</time>
      </trkpt>
      <trkpt lat="47.29014" lon="-1.62352">
        <ele>50</ele>
        <time>2019-10-17T14:39:06.000Z</time>
      </trkpt>
      <trkpt lat="47.29014" lon="-1.62351">
        <ele>50</ele>
        <time>2019-10-17T14:39:07.000Z</time>
      </trkpt>
      <trkpt lat="47.29013" lon="-1.6235">
        <ele>50</ele>
        <time>2019-10-17T14:39:08.000Z</time>
      </trkpt>
      <trkpt lat="47.29012" lon="-1.62348">
        <ele>51</ele>
        <time>2019-10-17T14:39:09.000Z</time>
      </trkpt>
      <trkpt lat="47.29009" lon="-1.62347">
        <ele>51</ele>
        <time>2019-10-17T14:39:10.000Z</time>
      </trkpt>
      <trkpt lat="47.29007" lon="-1.62347">
        <ele>51</ele>
        <time>2019-10-17T14:39:11.000Z</time>
      </trkpt>
      <trkpt lat="47.29004" lon="-1.62347">
        <ele>51</ele>
        <time>2019-10-17T14:39:12.000Z</time>
      </trkpt>
      <trkpt lat="47.29002" lon="-1.62347">
        <ele>51</ele>
        <time>2019-10-17T14:39:13.000Z</time>
      </trkpt>
      <trkpt lat="47.28999" lon="-1.62348">
        <ele>51</ele>
        <time>2019-10-17T14:39:14.000Z</time>
      </trkpt>
      <trkpt lat="47.28996" lon="-1.62349">
        <ele>51</ele>
        <time>2019-10-17T14:39:15.000Z</time>
      </trkpt>
      <trkpt lat="47.28994" lon="-1.62351">
        <ele>51</ele>
        <time>2019-10-17T14:39:16.000Z</time>
      </trkpt>
      <trkpt lat="47.28991" lon="-1.62352">
        <ele>51</ele>
        <time>2019-10-17T14:39:17.000Z</time>
      </trkpt>
      <trkpt lat="47.28989" lon="-1.62354">
        <ele>51</ele>
        <time>2019-10-17T14:39:18.000Z</time>
      </trkpt>
      <trkpt lat="47.28987" lon="-1.62355">
        <ele>51</ele>
        <time>2019-10-17T14:39:19.000Z</time>
      </trkpt>
      <trkpt lat="47.28985" lon="-1.62357">
        <ele>51</ele>
        <time>2019-10-17T14:39:20.000Z</time>
      </trkpt>
      <trkpt lat="47.28983" lon="-1.62358">
        <ele>51</ele>
        <time>2019-10-17T14:39:21.000Z</time>
      </trkpt>
      <trkpt lat="47.28981" lon="-1.62359">
        <ele>51</ele>
        <time>2019-10-17T14:39:22.000Z</time>
      </trkpt>
      <trkpt lat="47.28979" lon="-1.6236">
        <ele>51</ele>
        <time>2019-10-17T14:39:23.000Z</time>
      </trkpt>
      <trkpt lat="47.28977" lon="-1.62359">
        <ele>51</ele>
        <time>2019-10-17T14:39:24.000Z</time>
      </trkpt>
      <trkpt lat="47.28976" lon="-1.62358">
        <ele>51</ele>
        <time>2019-10-17T14:39:25.000Z</time>
      </trkpt>
      <trkpt lat="47.28975" lon="-1.62357">
        <ele>51</ele>
        <time>2019-10-17T14:39:26.000Z</time>
      </trkpt>
      <trkpt lat="47.28973" lon="-1.62356">
        <ele>52</ele>
        <time>2019-10-17T14:39:27.000Z</time>
      </trkpt>
      <trkpt lat="47.28972" lon="-1.62354">
        <ele>52</ele>
        <time>2019-10-17T14:39:28.000Z</time>
      </trkpt>
      <trkpt lat="47.28971" lon="-1.62353">
        <ele>52</ele>
        <time>2019-10-17T14:39:29.000Z</time>
      </trkpt>
      <trkpt lat="47.28969" lon="-1.62352">
        <ele>52</ele>
        <time>2019-10-17T14:39:30.000Z</time>
      </trkpt>
      <trkpt lat="47.28966" lon="-1.62351">
        <ele>52</ele>
        <time>2019-10-17T14:39:31.000Z</time>
      </trkpt>
      <trkpt lat="47.28963" lon="-1.6235">
        <ele>52</ele>
        <time>2019-10-17T14:39:32.000Z</time>
      </trkpt>
      <trkpt lat="47.28961" lon="-1.62351">
        <ele>52</ele>
        <time>2019-10-17T14:39:33.000Z</time>
      </trkpt>
      <trkpt lat="47.28959" lon="-1.62352">
        <ele>53</ele>
        <time>2019-10-17T14:39:34.000Z</time>
      </trkpt>
      <trkpt lat="47.28957" lon="-1.62354">
        <ele>53</ele>
        <time>2019-10-17T14:39:35.000Z</time>
      </trkpt>
      <trkpt lat="47.28955" lon="-1.62355">
        <ele>53</ele>
        <time>2019-10-17T14:39:36.000Z</time>
      </trkpt>
      <trkpt lat="47.28952" lon="-1.62356">
        <ele>53</ele>
        <time>2019-10-17T14:39:37.000Z</time>
      </trkpt>
      <trkpt lat="47.28949" lon="-1.62358">
        <ele>53</ele>
        <time>2019-10-17T14:39:38.000Z</time>
      </trkpt>
      <trkpt lat="47.28947" lon="-1.6236">
        <ele>53</ele>
        <time>2019-10-17T14:39:39.000Z</time>
      </trkpt>
      <trkpt lat="47.28945" lon="-1.62363">
        <ele>53</ele>
        <time>2019-10-17T14:39:40.000Z</time>
      </trkpt>
      <trkpt lat="47.28944" lon="-1.62366">
        <ele>53</ele>
        <time>2019-10-17T14:39:41.000Z</time>
      </trkpt>
      <trkpt lat="47.28944" lon="-1.6237">
        <ele>53</ele>
        <time>2019-10-17T14:39:42.000Z</time>
      </trkpt>
      <trkpt lat="47.28944" lon="-1.62375">
        <ele>53</ele>
        <time>2019-10-17T14:39:43.000Z</time>
      </trkpt>
      <trkpt lat="47.28944" lon="-1.62379">
        <ele>53</ele>
        <time>2019-10-17T14:39:44.000Z</time>
      </trkpt>
      <trkpt lat="47.28945" lon="-1.62384">
        <ele>53</ele>
        <time>2019-10-17T14:39:45.000Z</time>
      </trkpt>
      <trkpt lat="47.28946" lon="-1.62388">
        <ele>53</ele>
        <time>2019-10-17T14:39:46.000Z</time>
      </trkpt>
      <trkpt lat="47.28946" lon="-1.62393">
        <ele>54</ele>
        <time>2019-10-17T14:39:47.000Z</time>
      </trkpt>
      <trkpt lat="47.28945" lon="-1.62396">
        <ele>54</ele>
        <time>2019-10-17T14:39:48.000Z</time>
      </trkpt>
      <trkpt lat="47.28944" lon="-1.62399">
        <ele>54</ele>
        <time>2019-10-17T14:39:49.000Z</time>
      </trkpt>
      <trkpt lat="47.28942" lon="-1.62401">
        <ele>54</ele>
        <time>2019-10-17T14:39:50.000Z</time>
      </trkpt>
      <trkpt lat="47.28941" lon="-1.62404">
        <ele>54</ele>
        <time>2019-10-17T14:39:51.000Z</time>
      </trkpt>
      <trkpt lat="47.28939" lon="-1.62405">
        <ele>54</ele>
        <time>2019-10-17T14:39:52.000Z</time>
      </trkpt>
      <trkpt lat="47.28937" lon="-1.62406">
        <ele>54</ele>
        <time>2019-10-17T14:39:53.000Z</time>
      </trkpt>
      <trkpt lat="47.28935" lon="-1.62407">
        <ele>54</ele>
        <time>2019-10-17T14:39:54.000Z</time>
      </trkpt>
      <trkpt lat="47.28932" lon="-1.62407">
        <ele>54</ele>
        <time>2019-10-17T14:39:55.000Z</time>
      </trkpt>
      <trkpt lat="47.28929" lon="-1.62406">
        <ele>54</ele>
        <time>2019-10-17T14:39:56.000Z</time>
      </trkpt>
      <trkpt lat="47.28927" lon="-1.62403">
        <ele>55</ele>
        <time>2019-10-17T14:39:57.000Z</time>
      </trkpt>
      <trkpt lat="47.28925" lon="-1.624">
        <ele>54</ele>
        <time>2019-10-17T14:39:58.000Z</time>
      </trkpt>
      <trkpt lat="47.28924" lon="-1.62396">
        <ele>54</ele>
        <time>2019-10-17T14:39:59.000Z</time>
      </trkpt>
      <trkpt lat="47.28923" lon="-1.62393">
        <ele>54</ele>
        <time>2019-10-17T14:40:00.000Z</time>
      </trkpt>
      <trkpt lat="47.28922" lon="-1.6239">
        <ele>54</ele>
        <time>2019-10-17T14:40:01.000Z</time>
      </trkpt>
      <trkpt lat="47.28921" lon="-1.62387">
        <ele>54</ele>
        <time>2019-10-17T14:40:02.000Z</time>
      </trkpt>
      <trkpt lat="47.28919" lon="-1.62384">
        <ele>54</ele>
        <time>2019-10-17T14:40:03.000Z</time>
      </trkpt>
      <trkpt lat="47.28916" lon="-1.62382">
        <ele>54</ele>
        <time>2019-10-17T14:40:04.000Z</time>
      </trkpt>
      <trkpt lat="47.28913" lon="-1.6238">
        <ele>54</ele>
        <time>2019-10-17T14:40:05.000Z</time>
      </trkpt>
      <trkpt lat="47.28912" lon="-1.62379">
        <ele>54</ele>
        <time>2019-10-17T14:40:06.000Z</time>
      </trkpt>
      <trkpt lat="47.28911" lon="-1.62379">
        <ele>54</ele>
        <time>2019-10-17T14:40:07.000Z</time>
      </trkpt>
      <trkpt lat="47.28909" lon="-1.62379">
        <ele>54</ele>
        <time>2019-10-17T14:40:08.000Z</time>
      </trkpt>
      <trkpt lat="47.28907" lon="-1.62378">
        <ele>54</ele>
        <time>2019-10-17T14:40:09.000Z</time>
      </trkpt>
      <trkpt lat="47.28906" lon="-1.62378">
        <ele>55</ele>
        <time>2019-10-17T14:40:10.000Z</time>
      </trkpt>
      <trkpt lat="47.28903" lon="-1.62377">
        <ele>55</ele>
        <time>2019-10-17T14:40:11.000Z</time>
      </trkpt>
      <trkpt lat="47.289" lon="-1.62377">
        <ele>55</ele>
        <time>2019-10-17T14:40:12.000Z</time>
      </trkpt>
      <trkpt lat="47.28897" lon="-1.62378">
        <ele>55</ele>
        <time>2019-10-17T14:40:13.000Z</time>
      </trkpt>
      <trkpt lat="47.28895" lon="-1.6238">
        <ele>55</ele>
        <time>2019-10-17T14:40:14.000Z</time>
      </trkpt>
      <trkpt lat="47.28893" lon="-1.62383">
        <ele>55</ele>
        <time>2019-10-17T14:40:15.000Z</time>
      </trkpt>
      <trkpt lat="47.2889" lon="-1.62385">
        <ele>55</ele>
        <time>2019-10-17T14:40:16.000Z</time>
      </trkpt>
      <trkpt lat="47.28888" lon="-1.62388">
        <ele>55</ele>
        <time>2019-10-17T14:40:17.000Z</time>
      </trkpt>
      <trkpt lat="47.28886" lon="-1.62392">
        <ele>55</ele>
        <time>2019-10-17T14:40:18.000Z</time>
      </trkpt>
      <trkpt lat="47.28885" lon="-1.62396">
        <ele>55</ele>
        <time>2019-10-17T14:40:19.000Z</time>
      </trkpt>
      <trkpt lat="47.28884" lon="-1.62399">
        <ele>55</ele>
        <time>2019-10-17T14:40:20.000Z</time>
      </trkpt>
      <trkpt lat="47.28882" lon="-1.62401">
        <ele>55</ele>
        <time>2019-10-17T14:40:21.000Z</time>
      </trkpt>
      <trkpt lat="47.2888" lon="-1.62402">
        <ele>55</ele>
        <time>2019-10-17T14:40:22.000Z</time>
      </trkpt>
      <trkpt lat="47.28878" lon="-1.62403">
        <ele>55</ele>
        <time>2019-10-17T14:40:23.000Z</time>
      </trkpt>
      <trkpt lat="47.28875" lon="-1.62403">
        <ele>55</ele>
        <time>2019-10-17T14:40:24.000Z</time>
      </trkpt>
      <trkpt lat="47.28873" lon="-1.62403">
        <ele>55</ele>
        <time>2019-10-17T14:40:25.000Z</time>
      </trkpt>
      <trkpt lat="47.2887" lon="-1.62401">
        <ele>55</ele>
        <time>2019-10-17T14:40:26.000Z</time>
      </trkpt>
      <trkpt lat="47.28868" lon="-1.62399">
        <ele>55</ele>
        <time>2019-10-17T14:40:27.000Z</time>
      </trkpt>
      <trkpt lat="47.28866" lon="-1.62397">
        <ele>55</ele>
        <time>2019-10-17T14:40:28.000Z</time>
      </trkpt>
      <trkpt lat="47.28865" lon="-1.62395">
        <ele>55</ele>
        <time>2019-10-17T14:40:29.000Z</time>
      </trkpt>
      <trkpt lat="47.28863" lon="-1.62393">
        <ele>55</ele>
        <time>2019-10-17T14:40:30.000Z</time>
      </trkpt>
      <trkpt lat="47.2886" lon="-1.62391">
        <ele>55</ele>
        <time>2019-10-17T14:40:31.000Z</time>
      </trkpt>
      <trkpt lat="47.28857" lon="-1.6239">
        <ele>55</ele>
        <time>2019-10-17T14:40:32.000Z</time>
      </trkpt>
      <trkpt lat="47.28854" lon="-1.62388">
        <ele>56</ele>
        <time>2019-10-17T14:40:33.000Z</time>
      </trkpt>
      <trkpt lat="47.28852" lon="-1.62387">
        <ele>56</ele>
        <time>2019-10-17T14:40:34.000Z</time>
      </trkpt>
      <trkpt lat="47.28849" lon="-1.62386">
        <ele>56</ele>
        <time>2019-10-17T14:40:35.000Z</time>
      </trkpt>
      <trkpt lat="47.28847" lon="-1.62385">
        <ele>56</ele>
        <time>2019-10-17T14:40:36.000Z</time>
      </trkpt>
      <trkpt lat="47.28844" lon="-1.62386">
        <ele>56</ele>
        <time>2019-10-17T14:40:37.000Z</time>
      </trkpt>
      <trkpt lat="47.28841" lon="-1.62386">
        <ele>56</ele>
        <time>2019-10-17T14:40:38.000Z</time>
      </trkpt>
      <trkpt lat="47.28839" lon="-1.62387">
        <ele>56</ele>
        <time>2019-10-17T14:40:39.000Z</time>
      </trkpt>
      <trkpt lat="47.28836" lon="-1.62386">
        <ele>56</ele>
        <time>2019-10-17T14:40:40.000Z</time>
      </trkpt>
      <trkpt lat="47.28832" lon="-1.62386">
        <ele>56</ele>
        <time>2019-10-17T14:40:41.000Z</time>
      </trkpt>
      <trkpt lat="47.28829" lon="-1.62387">
        <ele>56</ele>
        <time>2019-10-17T14:40:42.000Z</time>
      </trkpt>
      <trkpt lat="47.28827" lon="-1.6239">
        <ele>57</ele>
        <time>2019-10-17T14:40:43.000Z</time>
      </trkpt>
      <trkpt lat="47.28826" lon="-1.62393">
        <ele>57</ele>
        <time>2019-10-17T14:40:44.000Z</time>
      </trkpt>
      <trkpt lat="47.28826" lon="-1.62396">
        <ele>56</ele>
        <time>2019-10-17T14:40:45.000Z</time>
      </trkpt>
      <trkpt lat="47.28825" lon="-1.624">
        <ele>56</ele>
        <time>2019-10-17T14:40:46.000Z</time>
      </trkpt>
      <trkpt lat="47.28825" lon="-1.62404">
        <ele>56</ele>
        <time>2019-10-17T14:40:47.000Z</time>
      </trkpt>
      <trkpt lat="47.28826" lon="-1.62408">
        <ele>56</ele>
        <time>2019-10-17T14:40:48.000Z</time>
      </trkpt>
      <trkpt lat="47.28827" lon="-1.62412">
        <ele>56</ele>
        <time>2019-10-17T14:40:49.000Z</time>
      </trkpt>
      <trkpt lat="47.28828" lon="-1.62416">
        <ele>56</ele>
        <time>2019-10-17T14:40:50.000Z</time>
      </trkpt>
      <trkpt lat="47.28828" lon="-1.6242">
        <ele>56</ele>
        <time>2019-10-17T14:40:51.000Z</time>
      </trkpt>
      <trkpt lat="47.28829" lon="-1.62425">
        <ele>56</ele>
        <time>2019-10-17T14:40:52.000Z</time>
      </trkpt>
      <trkpt lat="47.2883" lon="-1.6243">
        <ele>55</ele>
        <time>2019-10-17T14:40:53.000Z</time>
      </trkpt>
      <trkpt lat="47.28831" lon="-1.62435">
        <ele>55</ele>
        <time>2019-10-17T14:40:54.000Z</time>
      </trkpt>
      <trkpt lat="47.28832" lon="-1.6244">
        <ele>55</ele>
        <time>2019-10-17T14:40:55.000Z</time>
      </trkpt>
      <trkpt lat="47.28833" lon="-1.62445">
        <ele>55</ele>
        <time>2019-10-17T14:40:56.000Z</time>
      </trkpt>
      <trkpt lat="47.28834" lon="-1.6245">
        <ele>55</ele>
        <time>2019-10-17T14:40:57.000Z</time>
      </trkpt>
      <trkpt lat="47.28835" lon="-1.62455">
        <ele>55</ele>
        <time>2019-10-17T14:40:58.000Z</time>
      </trkpt>
      <trkpt lat="47.28836" lon="-1.6246">
        <ele>54</ele>
        <time>2019-10-17T14:40:59.000Z</time>
      </trkpt>
      <trkpt lat="47.28838" lon="-1.62465">
        <ele>54</ele>
        <time>2019-10-17T14:41:00.000Z</time>
      </trkpt>
      <trkpt lat="47.28839" lon="-1.6247">
        <ele>54</ele>
        <time>2019-10-17T14:41:01.000Z</time>
      </trkpt>
      <trkpt lat="47.2884" lon="-1.62474">
        <ele>54</ele>
        <time>2019-10-17T14:41:02.000Z</time>
      </trkpt>
      <trkpt lat="47.28842" lon="-1.62479">
        <ele>53</ele>
        <time>2019-10-17T14:41:03.000Z</time>
      </trkpt>
      <trkpt lat="47.28844" lon="-1.62483">
        <ele>53</ele>
        <time>2019-10-17T14:41:04.000Z</time>
      </trkpt>
      <trkpt lat="47.28846" lon="-1.62487">
        <ele>53</ele>
        <time>2019-10-17T14:41:05.000Z</time>
      </trkpt>
      <trkpt lat="47.28848" lon="-1.62491">
        <ele>52</ele>
        <time>2019-10-17T14:41:06.000Z</time>
      </trkpt>
      <trkpt lat="47.2885" lon="-1.62495">
        <ele>52</ele>
        <time>2019-10-17T14:41:07.000Z</time>
      </trkpt>
      <trkpt lat="47.28852" lon="-1.62498">
        <ele>52</ele>
        <time>2019-10-17T14:41:08.000Z</time>
      </trkpt>
      <trkpt lat="47.28854" lon="-1.625">
        <ele>52</ele>
        <time>2019-10-17T14:41:09.000Z</time>
      </trkpt>
      <trkpt lat="47.28856" lon="-1.62501">
        <ele>52</ele>
        <time>2019-10-17T14:41:10.000Z</time>
      </trkpt>
      <trkpt lat="47.28857" lon="-1.62503">
        <ele>52</ele>
        <time>2019-10-17T14:41:11.000Z</time>
      </trkpt>
      <trkpt lat="47.28858" lon="-1.62506">
        <ele>52</ele>
        <time>2019-10-17T14:41:12.000Z</time>
      </trkpt>
      <trkpt lat="47.28857" lon="-1.62509">
        <ele>51</ele>
        <time>2019-10-17T14:41:13.000Z</time>
      </trkpt>
      <trkpt lat="47.28857" lon="-1.62513">
        <ele>51</ele>
        <time>2019-10-17T14:41:14.000Z</time>
      </trkpt>
      <trkpt lat="47.28857" lon="-1.62517">
        <ele>51</ele>
        <time>2019-10-17T14:41:15.000Z</time>
      </trkpt>
      <trkpt lat="47.28857" lon="-1.6252">
        <ele>51</ele>
        <time>2019-10-17T14:41:16.000Z</time>
      </trkpt>
      <trkpt lat="47.28857" lon="-1.62524">
        <ele>51</ele>
        <time>2019-10-17T14:41:17.000Z</time>
      </trkpt>
      <trkpt lat="47.28857" lon="-1.62527">
        <ele>51</ele>
        <time>2019-10-17T14:41:18.000Z</time>
      </trkpt>
      <trkpt lat="47.28858" lon="-1.62531">
        <ele>51</ele>
        <time>2019-10-17T14:41:19.000Z</time>
      </trkpt>
      <trkpt lat="47.2886" lon="-1.62535">
        <ele>51</ele>
        <time>2019-10-17T14:41:20.000Z</time>
      </trkpt>
      <trkpt lat="47.28862" lon="-1.62537">
        <ele>51</ele>
        <time>2019-10-17T14:41:21.000Z</time>
      </trkpt>
      <trkpt lat="47.28863" lon="-1.62536">
        <ele>51</ele>
        <time>2019-10-17T14:41:22.000Z</time>
      </trkpt>
      <trkpt lat="47.28864" lon="-1.62534">
        <ele>51</ele>
        <time>2019-10-17T14:41:23.000Z</time>
      </trkpt>
      <trkpt lat="47.28865" lon="-1.62531">
        <ele>51</ele>
        <time>2019-10-17T14:41:24.000Z</time>
      </trkpt>
      <trkpt lat="47.28866" lon="-1.62529">
        <ele>51</ele>
        <time>2019-10-17T14:41:25.000Z</time>
      </trkpt>
      <trkpt lat="47.28867" lon="-1.62527">
        <ele>52</ele>
        <time>2019-10-17T14:41:26.000Z</time>
      </trkpt>
      <trkpt lat="47.28869" lon="-1.62527">
        <ele>52</ele>
        <time>2019-10-17T14:41:27.000Z</time>
      </trkpt>
      <trkpt lat="47.28871" lon="-1.62526">
        <ele>52</ele>
        <time>2019-10-17T14:41:28.000Z</time>
      </trkpt>
      <trkpt lat="47.28873" lon="-1.62525">
        <ele>52</ele>
        <time>2019-10-17T14:41:29.000Z</time>
      </trkpt>
      <trkpt lat="47.28875" lon="-1.62522">
        <ele>52</ele>
        <time>2019-10-17T14:41:30.000Z</time>
      </trkpt>
      <trkpt lat="47.28877" lon="-1.62521">
        <ele>52</ele>
        <time>2019-10-17T14:41:31.000Z</time>
      </trkpt>
      <trkpt lat="47.28879" lon="-1.6252">
        <ele>53</ele>
        <time>2019-10-17T14:41:32.000Z</time>
      </trkpt>
      <trkpt lat="47.28881" lon="-1.6252">
        <ele>53</ele>
        <time>2019-10-17T14:41:33.000Z</time>
      </trkpt>
      <trkpt lat="47.28883" lon="-1.62521">
        <ele>53</ele>
        <time>2019-10-17T14:41:34.000Z</time>
      </trkpt>
      <trkpt lat="47.28885" lon="-1.62521">
        <ele>53</ele>
        <time>2019-10-17T14:41:35.000Z</time>
      </trkpt>
      <trkpt lat="47.28886" lon="-1.62522">
        <ele>54</ele>
        <time>2019-10-17T14:41:36.000Z</time>
      </trkpt>
      <trkpt lat="47.28888" lon="-1.62523">
        <ele>54</ele>
        <time>2019-10-17T14:41:37.000Z</time>
      </trkpt>
      <trkpt lat="47.28889" lon="-1.62524">
        <ele>54</ele>
        <time>2019-10-17T14:41:38.000Z</time>
      </trkpt>
      <trkpt lat="47.28891" lon="-1.62524">
        <ele>54</ele>
        <time>2019-10-17T14:41:39.000Z</time>
      </trkpt>
      <trkpt lat="47.28892" lon="-1.62524">
        <ele>54</ele>
        <time>2019-10-17T14:41:40.000Z</time>
      </trkpt>
      <trkpt lat="47.28893" lon="-1.62523">
        <ele>55</ele>
        <time>2019-10-17T14:41:41.000Z</time>
      </trkpt>
      <trkpt lat="47.28894" lon="-1.62523">
        <ele>55</ele>
        <time>2019-10-17T14:41:42.000Z</time>
      </trkpt>
      <trkpt lat="47.28895" lon="-1.62523">
        <ele>55</ele>
        <time>2019-10-17T14:41:43.000Z</time>
      </trkpt>
      <trkpt lat="47.28896" lon="-1.62524">
        <ele>55</ele>
        <time>2019-10-17T14:41:44.000Z</time>
      </trkpt>
      <trkpt lat="47.28897" lon="-1.62524">
        <ele>56</ele>
        <time>2019-10-17T14:41:45.000Z</time>
      </trkpt>
      <trkpt lat="47.28897" lon="-1.62524">
        <ele>56</ele>
        <time>2019-10-17T14:41:46.000Z</time>
      </trkpt>
      <trkpt lat="47.28898" lon="-1.62522">
        <ele>56</ele>
        <time>2019-10-17T14:41:47.000Z</time>
      </trkpt>
      <trkpt lat="47.28899" lon="-1.62521">
        <ele>56</ele>
        <time>2019-10-17T14:41:48.000Z</time>
      </trkpt>
      <trkpt lat="47.289" lon="-1.6252">
        <ele>56</ele>
        <time>2019-10-17T14:41:49.000Z</time>
      </trkpt>
      <trkpt lat="47.28901" lon="-1.62519">
        <ele>57</ele>
        <time>2019-10-17T14:41:50.000Z</time>
      </trkpt>
      <trkpt lat="47.28902" lon="-1.62518">
        <ele>57</ele>
        <time>2019-10-17T14:41:51.000Z</time>
      </trkpt>
      <trkpt lat="47.28904" lon="-1.62516">
        <ele>57</ele>
        <time>2019-10-17T14:41:52.000Z</time>
      </trkpt>
      <trkpt lat="47.28905" lon="-1.62516">
        <ele>57</ele>
        <time>2019-10-17T14:41:53.000Z</time>
      </trkpt>
      <trkpt lat="47.28907" lon="-1.62515">
        <ele>57</ele>
        <time>2019-10-17T14:41:54.000Z</time>
      </trkpt>
      <trkpt lat="47.28909" lon="-1.62515">
        <ele>57</ele>
        <time>2019-10-17T14:41:55.000Z</time>
      </trkpt>
      <trkpt lat="47.28911" lon="-1.62515">
        <ele>57</ele>
        <time>2019-10-17T14:41:56.000Z</time>
      </trkpt>
      <trkpt lat="47.28912" lon="-1.62514">
        <ele>57</ele>
        <time>2019-10-17T14:41:57.000Z</time>
      </trkpt>
      <trkpt lat="47.28913" lon="-1.62514">
        <ele>57</ele>
        <time>2019-10-17T14:41:58.000Z</time>
      </trkpt>
      <trkpt lat="47.28914" lon="-1.62512">
        <ele>57</ele>
        <time>2019-10-17T14:41:59.000Z</time>
      </trkpt>
      <trkpt lat="47.28916" lon="-1.6251">
        <ele>56</ele>
        <time>2019-10-17T14:42:00.000Z</time>
      </trkpt>
      <trkpt lat="47.28917" lon="-1.62508">
        <ele>56</ele>
        <time>2019-10-17T14:42:01.000Z</time>
      </trkpt>
      <trkpt lat="47.28919" lon="-1.62506">
        <ele>56</ele>
        <time>2019-10-17T14:42:02.000Z</time>
      </trkpt>
      <trkpt lat="47.2892" lon="-1.62504">
        <ele>56</ele>
        <time>2019-10-17T14:42:03.000Z</time>
      </trkpt>
      <trkpt lat="47.28922" lon="-1.62503">
        <ele>56</ele>
        <time>2019-10-17T14:42:04.000Z</time>
      </trkpt>
      <trkpt lat="47.28924" lon="-1.62503">
        <ele>56</ele>
        <time>2019-10-17T14:42:05.000Z</time>
      </trkpt>
      <trkpt lat="47.28925" lon="-1.62503">
        <ele>56</ele>
        <time>2019-10-17T14:42:06.000Z</time>
      </trkpt>
      <trkpt lat="47.28926" lon="-1.62502">
        <ele>56</ele>
        <time>2019-10-17T14:42:07.000Z</time>
      </trkpt>
      <trkpt lat="47.28928" lon="-1.62501">
        <ele>56</ele>
        <time>2019-10-17T14:42:08.000Z</time>
      </trkpt>
      <trkpt lat="47.2893" lon="-1.62499">
        <ele>56</ele>
        <time>2019-10-17T14:42:09.000Z</time>
      </trkpt>
      <trkpt lat="47.28932" lon="-1.62497">
        <ele>56</ele>
        <time>2019-10-17T14:42:10.000Z</time>
      </trkpt>
      <trkpt lat="47.28934" lon="-1.62498">
        <ele>56</ele>
        <time>2019-10-17T14:42:11.000Z</time>
      </trkpt>
      <trkpt lat="47.28936" lon="-1.62497">
        <ele>56</ele>
        <time>2019-10-17T14:42:12.000Z</time>
      </trkpt>
      <trkpt lat="47.28937" lon="-1.62496">
        <ele>55</ele>
        <time>2019-10-17T14:42:13.000Z</time>
      </trkpt>
      <trkpt lat="47.28939" lon="-1.62496">
        <ele>55</ele>
        <time>2019-10-17T14:42:14.000Z</time>
      </trkpt>
      <trkpt lat="47.28941" lon="-1.62497">
        <ele>55</ele>
        <time>2019-10-17T14:42:15.000Z</time>
      </trkpt>
      <trkpt lat="47.28943" lon="-1.62499">
        <ele>55</ele>
        <time>2019-10-17T14:42:16.000Z</time>
      </trkpt>
      <trkpt lat="47.28946" lon="-1.625">
        <ele>55</ele>
        <time>2019-10-17T14:42:17.000Z</time>
      </trkpt>
      <trkpt lat="47.28949" lon="-1.62502">
        <ele>55</ele>
        <time>2019-10-17T14:42:18.000Z</time>
      </trkpt>
      <trkpt lat="47.2895" lon="-1.62503">
        <ele>55</ele>
        <time>2019-10-17T14:42:19.000Z</time>
      </trkpt>
      <trkpt lat="47.28952" lon="-1.62506">
        <ele>55</ele>
        <time>2019-10-17T14:42:20.000Z</time>
      </trkpt>
      <trkpt lat="47.28954" lon="-1.62508">
        <ele>55</ele>
        <time>2019-10-17T14:42:21.000Z</time>
      </trkpt>
      <trkpt lat="47.28956" lon="-1.62508">
        <ele>55</ele>
        <time>2019-10-17T14:42:22.000Z</time>
      </trkpt>
      <trkpt lat="47.28958" lon="-1.62508">
        <ele>54</ele>
        <time>2019-10-17T14:42:23.000Z</time>
      </trkpt>
      <trkpt lat="47.2896" lon="-1.62509">
        <ele>54</ele>
        <time>2019-10-17T14:42:24.000Z</time>
      </trkpt>
      <trkpt lat="47.28961" lon="-1.6251">
        <ele>54</ele>
        <time>2019-10-17T14:42:25.000Z</time>
      </trkpt>
      <trkpt lat="47.28961" lon="-1.6251">
        <ele>54</ele>
        <time>2019-10-17T14:42:26.000Z</time>
      </trkpt>
      <trkpt lat="47.28962" lon="-1.6251">
        <ele>54</ele>
        <time>2019-10-17T14:42:27.000Z</time>
      </trkpt>
      <trkpt lat="47.28963" lon="-1.62509">
        <ele>55</ele>
        <time>2019-10-17T14:42:28.000Z</time>
      </trkpt>
      <trkpt lat="47.28964" lon="-1.62507">
        <ele>55</ele>
        <time>2019-10-17T14:42:29.000Z</time>
      </trkpt>
      <trkpt lat="47.28964" lon="-1.62506">
        <ele>55</ele>
        <time>2019-10-17T14:42:30.000Z</time>
      </trkpt>
      <trkpt lat="47.28965" lon="-1.62504">
        <ele>55</ele>
        <time>2019-10-17T14:42:31.000Z</time>
      </trkpt>
      <trkpt lat="47.28966" lon="-1.62502">
        <ele>55</ele>
        <time>2019-10-17T14:42:32.000Z</time>
      </trkpt>
      <trkpt lat="47.28967" lon="-1.62499">
        <ele>55</ele>
        <time>2019-10-17T14:42:33.000Z</time>
      </trkpt>
      <trkpt lat="47.28967" lon="-1.62497">
        <ele>55</ele>
        <time>2019-10-17T14:42:34.000Z</time>
      </trkpt>
      <trkpt lat="47.28969" lon="-1.62495">
        <ele>56</ele>
        <time>2019-10-17T14:42:35.000Z</time>
      </trkpt>
      <trkpt lat="47.28969" lon="-1.62493">
        <ele>56</ele>
        <time>2019-10-17T14:42:36.000Z</time>
      </trkpt>
      <trkpt lat="47.28969" lon="-1.62489">
        <ele>56</ele>
        <time>2019-10-17T14:42:37.000Z</time>
      </trkpt>
      <trkpt lat="47.28969" lon="-1.62486">
        <ele>56</ele>
        <time>2019-10-17T14:42:38.000Z</time>
      </trkpt>
      <trkpt lat="47.2897" lon="-1.62482">
        <ele>56</ele>
        <time>2019-10-17T14:42:39.000Z</time>
      </trkpt>
      <trkpt lat="47.28971" lon="-1.62479">
        <ele>56</ele>
        <time>2019-10-17T14:42:40.000Z</time>
      </trkpt>
      <trkpt lat="47.28972" lon="-1.62475">
        <ele>56</ele>
        <time>2019-10-17T14:42:41.000Z</time>
      </trkpt>
      <trkpt lat="47.28973" lon="-1.62472">
        <ele>56</ele>
        <time>2019-10-17T14:42:42.000Z</time>
      </trkpt>
      <trkpt lat="47.28974" lon="-1.62468">
        <ele>57</ele>
        <time>2019-10-17T14:42:43.000Z</time>
      </trkpt>
      <trkpt lat="47.28974" lon="-1.62465">
        <ele>57</ele>
        <time>2019-10-17T14:42:44.000Z</time>
      </trkpt>
      <trkpt lat="47.28975" lon="-1.62462">
        <ele>57</ele>
        <time>2019-10-17T14:42:45.000Z</time>
      </trkpt>
      <trkpt lat="47.28975" lon="-1.62459">
        <ele>57</ele>
        <time>2019-10-17T14:42:46.000Z</time>
      </trkpt>
      <trkpt lat="47.28975" lon="-1.62456">
        <ele>57</ele>
        <time>2019-10-17T14:42:47.000Z</time>
      </trkpt>
      <trkpt lat="47.28975" lon="-1.62454">
        <ele>57</ele>
        <time>2019-10-17T14:42:48.000Z</time>
      </trkpt>
      <trkpt lat="47.28976" lon="-1.62452">
        <ele>57</ele>
        <time>2019-10-17T14:42:49.000Z</time>
      </trkpt>
      <trkpt lat="47.28978" lon="-1.6245">
        <ele>57</ele>
        <time>2019-10-17T14:42:50.000Z</time>
      </trkpt>
      <trkpt lat="47.2898" lon="-1.62447">
        <ele>57</ele>
        <time>2019-10-17T14:42:51.000Z</time>
      </trkpt>
      <trkpt lat="47.28983" lon="-1.62445">
        <ele>57</ele>
        <time>2019-10-17T14:42:52.000Z</time>
      </trkpt>
      <trkpt lat="47.28985" lon="-1.62442">
        <ele>56</ele>
        <time>2019-10-17T14:42:53.000Z</time>
      </trkpt>
      <trkpt lat="47.28987" lon="-1.62438">
        <ele>56</ele>
        <time>2019-10-17T14:42:54.000Z</time>
      </trkpt>
      <trkpt lat="47.28989" lon="-1.62435">
        <ele>56</ele>
        <time>2019-10-17T14:42:55.000Z</time>
      </trkpt>
      <trkpt lat="47.28992" lon="-1.62432">
        <ele>56</ele>
        <time>2019-10-17T14:42:56.000Z</time>
      </trkpt>
      <trkpt lat="47.28994" lon="-1.62429">
        <ele>56</ele>
        <time>2019-10-17T14:42:57.000Z</time>
      </trkpt>
      <trkpt lat="47.28996" lon="-1.62426">
        <ele>56</ele>
        <time>2019-10-17T14:42:58.000Z</time>
      </trkpt>
      <trkpt lat="47.28999" lon="-1.62422">
        <ele>56</ele>
        <time>2019-10-17T14:42:59.000Z</time>
      </trkpt>
      <trkpt lat="47.29001" lon="-1.62418">
        <ele>55</ele>
        <time>2019-10-17T14:43:00.000Z</time>
      </trkpt>
      <trkpt lat="47.29003" lon="-1.62413">
        <ele>55</ele>
        <time>2019-10-17T14:43:01.000Z</time>
      </trkpt>
      <trkpt lat="47.29006" lon="-1.6241">
        <ele>55</ele>
        <time>2019-10-17T14:43:02.000Z</time>
      </trkpt>
      <trkpt lat="47.29009" lon="-1.62407">
        <ele>55</ele>
        <time>2019-10-17T14:43:03.000Z</time>
      </trkpt>
      <trkpt lat="47.29011" lon="-1.62405">
        <ele>55</ele>
        <time>2019-10-17T14:43:04.000Z</time>
      </trkpt>
      <trkpt lat="47.29013" lon="-1.62403">
        <ele>55</ele>
        <time>2019-10-17T14:43:05.000Z</time>
      </trkpt>
      <trkpt lat="47.29015" lon="-1.62402">
        <ele>55</ele>
        <time>2019-10-17T14:43:06.000Z</time>
      </trkpt>
      <trkpt lat="47.29017" lon="-1.62403">
        <ele>55</ele>
        <time>2019-10-17T14:43:07.000Z</time>
      </trkpt>
      <trkpt lat="47.29018" lon="-1.62405">
        <ele>56</ele>
        <time>2019-10-17T14:43:08.000Z</time>
      </trkpt>
      <trkpt lat="47.29019" lon="-1.62407">
        <ele>56</ele>
        <time>2019-10-17T14:43:09.000Z</time>
      </trkpt>
      <trkpt lat="47.2902" lon="-1.62411">
        <ele>56</ele>
        <time>2019-10-17T14:43:10.000Z</time>
      </trkpt>
      <trkpt lat="47.2902" lon="-1.62415">
        <ele>56</ele>
        <time>2019-10-17T14:43:11.000Z</time>
      </trkpt>
      <trkpt lat="47.29021" lon="-1.62418">
        <ele>56</ele>
        <time>2019-10-17T14:43:12.000Z</time>
      </trkpt>
      <trkpt lat="47.29023" lon="-1.62421">
        <ele>56</ele>
        <time>2019-10-17T14:43:13.000Z</time>
      </trkpt>
      <trkpt lat="47.29025" lon="-1.62424">
        <ele>56</ele>
        <time>2019-10-17T14:43:14.000Z</time>
      </trkpt>
      <trkpt lat="47.29027" lon="-1.62427">
        <ele>56</ele>
        <time>2019-10-17T14:43:15.000Z</time>
      </trkpt>
      <trkpt lat="47.29027" lon="-1.62429">
        <ele>56</ele>
        <time>2019-10-17T14:43:16.000Z</time>
      </trkpt>
      <trkpt lat="47.29027" lon="-1.62431">
        <ele>56</ele>
        <time>2019-10-17T14:43:17.000Z</time>
      </trkpt>
      <trkpt lat="47.29027" lon="-1.62433">
        <ele>56</ele>
        <time>2019-10-17T14:43:18.000Z</time>
      </trkpt>
      <trkpt lat="47.29027" lon="-1.62435">
        <ele>56</ele>
        <time>2019-10-17T14:43:19.000Z</time>
      </trkpt>
      <trkpt lat="47.29026" lon="-1.62438">
        <ele>56</ele>
        <time>2019-10-17T14:43:20.000Z</time>
      </trkpt>
      <trkpt lat="47.29026" lon="-1.62442">
        <ele>56</ele>
        <time>2019-10-17T14:43:21.000Z</time>
      </trkpt>
      <trkpt lat="47.29026" lon="-1.62447">
        <ele>56</ele>
        <time>2019-10-17T14:43:22.000Z</time>
      </trkpt>
      <trkpt lat="47.29025" lon="-1.62452">
        <ele>56</ele>
        <time>2019-10-17T14:43:23.000Z</time>
      </trkpt>
      <trkpt lat="47.29025" lon="-1.62456">
        <ele>57</ele>
        <time>2019-10-17T14:43:24.000Z</time>
      </trkpt>
      <trkpt lat="47.29024" lon="-1.62461">
        <ele>57</ele>
        <time>2019-10-17T14:43:25.000Z</time>
      </trkpt>
      <trkpt lat="47.29023" lon="-1.62464">
        <ele>57</ele>
        <time>2019-10-17T14:43:26.000Z</time>
      </trkpt>
      <trkpt lat="47.29021" lon="-1.62469">
        <ele>57</ele>
        <time>2019-10-17T14:43:27.000Z</time>
      </trkpt>
      <trkpt lat="47.29021" lon="-1.62474">
        <ele>57</ele>
        <time>2019-10-17T14:43:28.000Z</time>
      </trkpt>
      <trkpt lat="47.2902" lon="-1.62477">
        <ele>57</ele>
        <time>2019-10-17T14:43:29.000Z</time>
      </trkpt>
      <trkpt lat="47.29018" lon="-1.62479">
        <ele>57</ele>
        <time>2019-10-17T14:43:30.000Z</time>
      </trkpt>
      <trkpt lat="47.29016" lon="-1.62481">
        <ele>57</ele>
        <time>2019-10-17T14:43:31.000Z</time>
      </trkpt>
      <trkpt lat="47.29014" lon="-1.62483">
        <ele>57</ele>
        <time>2019-10-17T14:43:32.000Z</time>
      </trkpt>
      <trkpt lat="47.29011" lon="-1.62485">
        <ele>57</ele>
        <time>2019-10-17T14:43:33.000Z</time>
      </trkpt>
      <trkpt lat="47.29008" lon="-1.62488">
        <ele>57</ele>
        <time>2019-10-17T14:43:34.000Z</time>
      </trkpt>
      <trkpt lat="47.29006" lon="-1.6249">
        <ele>57</ele>
        <time>2019-10-17T14:43:35.000Z</time>
      </trkpt>
      <trkpt lat="47.29003" lon="-1.62493">
        <ele>57</ele>
        <time>2019-10-17T14:43:36.000Z</time>
      </trkpt>
      <trkpt lat="47.29" lon="-1.62494">
        <ele>57</ele>
        <time>2019-10-17T14:43:37.000Z</time>
      </trkpt>
      <trkpt lat="47.28996" lon="-1.62496">
        <ele>56</ele>
        <time>2019-10-17T14:43:38.000Z</time>
      </trkpt>
      <trkpt lat="47.28993" lon="-1.62498">
        <ele>56</ele>
        <time>2019-10-17T14:43:39.000Z</time>
      </trkpt>
      <trkpt lat="47.28991" lon="-1.62499">
        <ele>56</ele>
        <time>2019-10-17T14:43:40.000Z</time>
      </trkpt>
      <trkpt lat="47.28988" lon="-1.62502">
        <ele>56</ele>
        <time>2019-10-17T14:43:41.000Z</time>
      </trkpt>
      <trkpt lat="47.28985" lon="-1.62505">
        <ele>56</ele>
        <time>2019-10-17T14:43:42.000Z</time>
      </trkpt>
      <trkpt lat="47.28982" lon="-1.62507">
        <ele>56</ele>
        <time>2019-10-17T14:43:43.000Z</time>
      </trkpt>
      <trkpt lat="47.28979" lon="-1.62508">
        <ele>56</ele>
        <time>2019-10-17T14:43:44.000Z</time>
      </trkpt>
      <trkpt lat="47.28976" lon="-1.6251">
        <ele>56</ele>
        <time>2019-10-17T14:43:45.000Z</time>
      </trkpt>
      <trkpt lat="47.28973" lon="-1.62512">
        <ele>56</ele>
        <time>2019-10-17T14:43:46.000Z</time>
      </trkpt>
      <trkpt lat="47.2897" lon="-1.62514">
        <ele>56</ele>
        <time>2019-10-17T14:43:47.000Z</time>
      </trkpt>
      <trkpt lat="47.28968" lon="-1.62515">
        <ele>56</ele>
        <time>2019-10-17T14:43:48.000Z</time>
      </trkpt>
      <trkpt lat="47.28965" lon="-1.62516">
        <ele>56</ele>
        <time>2019-10-17T14:43:49.000Z</time>
      </trkpt>
      <trkpt lat="47.28962" lon="-1.62517">
        <ele>56</ele>
        <time>2019-10-17T14:43:50.000Z</time>
      </trkpt>
      <trkpt lat="47.28959" lon="-1.62519">
        <ele>55</ele>
        <time>2019-10-17T14:43:51.000Z</time>
      </trkpt>
      <trkpt lat="47.28956" lon="-1.62521">
        <ele>55</ele>
        <time>2019-10-17T14:43:52.000Z</time>
      </trkpt>
      <trkpt lat="47.28953" lon="-1.62523">
        <ele>55</ele>
        <time>2019-10-17T14:43:53.000Z</time>
      </trkpt>
      <trkpt lat="47.2895" lon="-1.62525">
        <ele>55</ele>
        <time>2019-10-17T14:43:54.000Z</time>
      </trkpt>
      <trkpt lat="47.28947" lon="-1.62527">
        <ele>55</ele>
        <time>2019-10-17T14:43:55.000Z</time>
      </trkpt>
      <trkpt lat="47.28945" lon="-1.62529">
        <ele>55</ele>
        <time>2019-10-17T14:43:56.000Z</time>
      </trkpt>
      <trkpt lat="47.28941" lon="-1.62531">
        <ele>55</ele>
        <time>2019-10-17T14:43:57.000Z</time>
      </trkpt>
      <trkpt lat="47.28938" lon="-1.62533">
        <ele>55</ele>
        <time>2019-10-17T14:43:58.000Z</time>
      </trkpt>
      <trkpt lat="47.28935" lon="-1.62534">
        <ele>55</ele>
        <time>2019-10-17T14:43:59.000Z</time>
      </trkpt>
      <trkpt lat="47.28932" lon="-1.62536">
        <ele>55</ele>
        <time>2019-10-17T14:44:00.000Z</time>
      </trkpt>
      <trkpt lat="47.28929" lon="-1.62537">
        <ele>55</ele>
        <time>2019-10-17T14:44:01.000Z</time>
      </trkpt>
      <trkpt lat="47.28926" lon="-1.62538">
        <ele>55</ele>
        <time>2019-10-17T14:44:02.000Z</time>
      </trkpt>
      <trkpt lat="47.28923" lon="-1.6254">
        <ele>54</ele>
        <time>2019-10-17T14:44:03.000Z</time>
      </trkpt>
      <trkpt lat="47.28921" lon="-1.62541">
        <ele>54</ele>
        <time>2019-10-17T14:44:04.000Z</time>
      </trkpt>
      <trkpt lat="47.28918" lon="-1.62543">
        <ele>54</ele>
        <time>2019-10-17T14:44:05.000Z</time>
      </trkpt>
      <trkpt lat="47.28915" lon="-1.62545">
        <ele>54</ele>
        <time>2019-10-17T14:44:06.000Z</time>
      </trkpt>
      <trkpt lat="47.28913" lon="-1.62546">
        <ele>54</ele>
        <time>2019-10-17T14:44:07.000Z</time>
      </trkpt>
      <trkpt lat="47.2891" lon="-1.62548">
        <ele>54</ele>
        <time>2019-10-17T14:44:08.000Z</time>
      </trkpt>
      <trkpt lat="47.28906" lon="-1.6255">
        <ele>54</ele>
        <time>2019-10-17T14:44:09.000Z</time>
      </trkpt>
      <trkpt lat="47.28903" lon="-1.62552">
        <ele>54</ele>
        <time>2019-10-17T14:44:10.000Z</time>
      </trkpt>
      <trkpt lat="47.28901" lon="-1.62554">
        <ele>54</ele>
        <time>2019-10-17T14:44:11.000Z</time>
      </trkpt>
      <trkpt lat="47.28898" lon="-1.62556">
        <ele>54</ele>
        <time>2019-10-17T14:44:12.000Z</time>
      </trkpt>
      <trkpt lat="47.28895" lon="-1.62557">
        <ele>54</ele>
        <time>2019-10-17T14:44:13.000Z</time>
      </trkpt>
      <trkpt lat="47.28892" lon="-1.62558">
        <ele>54</ele>
        <time>2019-10-17T14:44:14.000Z</time>
      </trkpt>
      <trkpt lat="47.28888" lon="-1.6256">
        <ele>54</ele>
        <time>2019-10-17T14:44:15.000Z</time>
      </trkpt>
      <trkpt lat="47.28885" lon="-1.62561">
        <ele>54</ele>
        <time>2019-10-17T14:44:16.000Z</time>
      </trkpt>
      <trkpt lat="47.28882" lon="-1.62563">
        <ele>53</ele>
        <time>2019-10-17T14:44:17.000Z</time>
      </trkpt>
      <trkpt lat="47.28879" lon="-1.62564">
        <ele>53</ele>
        <time>2019-10-17T14:44:18.000Z</time>
      </trkpt>
      <trkpt lat="47.28876" lon="-1.62565">
        <ele>53</ele>
        <time>2019-10-17T14:44:19.000Z</time>
      </trkpt>
      <trkpt lat="47.28874" lon="-1.62566">
        <ele>53</ele>
        <time>2019-10-17T14:44:20.000Z</time>
      </trkpt>
      <trkpt lat="47.28871" lon="-1.62568">
        <ele>53</ele>
        <time>2019-10-17T14:44:21.000Z</time>
      </trkpt>
      <trkpt lat="47.28869" lon="-1.6257">
        <ele>53</ele>
        <time>2019-10-17T14:44:22.000Z</time>
      </trkpt>
      <trkpt lat="47.28866" lon="-1.62572">
        <ele>53</ele>
        <time>2019-10-17T14:44:23.000Z</time>
      </trkpt>
      <trkpt lat="47.28863" lon="-1.62573">
        <ele>53</ele>
        <time>2019-10-17T14:44:24.000Z</time>
      </trkpt>
      <trkpt lat="47.28861" lon="-1.62575">
        <ele>53</ele>
        <time>2019-10-17T14:44:25.000Z</time>
      </trkpt>
      <trkpt lat="47.28858" lon="-1.62577">
        <ele>53</ele>
        <time>2019-10-17T14:44:26.000Z</time>
      </trkpt>
      <trkpt lat="47.28856" lon="-1.62579">
        <ele>53</ele>
        <time>2019-10-17T14:44:27.000Z</time>
      </trkpt>
      <trkpt lat="47.28853" lon="-1.6258">
        <ele>53</ele>
        <time>2019-10-17T14:44:28.000Z</time>
      </trkpt>
      <trkpt lat="47.2885" lon="-1.62582">
        <ele>53</ele>
        <time>2019-10-17T14:44:29.000Z</time>
      </trkpt>
      <trkpt lat="47.28848" lon="-1.62583">
        <ele>53</ele>
        <time>2019-10-17T14:44:30.000Z</time>
      </trkpt>
      <trkpt lat="47.28846" lon="-1.62585">
        <ele>53</ele>
        <time>2019-10-17T14:44:31.000Z</time>
      </trkpt>
      <trkpt lat="47.28844" lon="-1.62586">
        <ele>53</ele>
        <time>2019-10-17T14:44:32.000Z</time>
      </trkpt>
      <trkpt lat="47.28841" lon="-1.62587">
        <ele>54</ele>
        <time>2019-10-17T14:44:33.000Z</time>
      </trkpt>
      <trkpt lat="47.28839" lon="-1.62587">
        <ele>54</ele>
        <time>2019-10-17T14:44:34.000Z</time>
      </trkpt>
      <trkpt lat="47.28836" lon="-1.62587">
        <ele>54</ele>
        <time>2019-10-17T14:44:35.000Z</time>
      </trkpt>
      <trkpt lat="47.28834" lon="-1.62586">
        <ele>54</ele>
        <time>2019-10-17T14:44:36.000Z</time>
      </trkpt>
      <trkpt lat="47.28831" lon="-1.62585">
        <ele>54</ele>
        <time>2019-10-17T14:44:37.000Z</time>
      </trkpt>
      <trkpt lat="47.28827" lon="-1.62582">
        <ele>54</ele>
        <time>2019-10-17T14:44:38.000Z</time>
      </trkpt>
      <trkpt lat="47.28824" lon="-1.6258">
        <ele>54</ele>
        <time>2019-10-17T14:44:39.000Z</time>
      </trkpt>
      <trkpt lat="47.28822" lon="-1.62577">
        <ele>54</ele>
        <time>2019-10-17T14:44:40.000Z</time>
      </trkpt>
      <trkpt lat="47.2882" lon="-1.62573">
        <ele>54</ele>
        <time>2019-10-17T14:44:41.000Z</time>
      </trkpt>
      <trkpt lat="47.28818" lon="-1.6257">
        <ele>55</ele>
        <time>2019-10-17T14:44:42.000Z</time>
      </trkpt>
      <trkpt lat="47.28816" lon="-1.62567">
        <ele>55</ele>
        <time>2019-10-17T14:44:43.000Z</time>
      </trkpt>
      <trkpt lat="47.28813" lon="-1.62565">
        <ele>55</ele>
        <time>2019-10-17T14:44:44.000Z</time>
      </trkpt>
      <trkpt lat="47.28811" lon="-1.62563">
        <ele>55</ele>
        <time>2019-10-17T14:44:45.000Z</time>
      </trkpt>
      <trkpt lat="47.28808" lon="-1.62563">
        <ele>55</ele>
        <time>2019-10-17T14:44:46.000Z</time>
      </trkpt>
      <trkpt lat="47.28804" lon="-1.62564">
        <ele>55</ele>
        <time>2019-10-17T14:44:47.000Z</time>
      </trkpt>
      <trkpt lat="47.28801" lon="-1.62565">
        <ele>55</ele>
        <time>2019-10-17T14:44:48.000Z</time>
      </trkpt>
      <trkpt lat="47.28797" lon="-1.62566">
        <ele>56</ele>
        <time>2019-10-17T14:44:49.000Z</time>
      </trkpt>
      <trkpt lat="47.28794" lon="-1.62567">
        <ele>56</ele>
        <time>2019-10-17T14:44:50.000Z</time>
      </trkpt>
      <trkpt lat="47.28791" lon="-1.62568">
        <ele>56</ele>
        <time>2019-10-17T14:44:51.000Z</time>
      </trkpt>
      <trkpt lat="47.28788" lon="-1.6257">
        <ele>56</ele>
        <time>2019-10-17T14:44:52.000Z</time>
      </trkpt>
      <trkpt lat="47.28785" lon="-1.62571">
        <ele>56</ele>
        <time>2019-10-17T14:44:53.000Z</time>
      </trkpt>
      <trkpt lat="47.28781" lon="-1.62572">
        <ele>56</ele>
        <time>2019-10-17T14:44:54.000Z</time>
      </trkpt>
      <trkpt lat="47.28777" lon="-1.62573">
        <ele>56</ele>
        <time>2019-10-17T14:44:55.000Z</time>
      </trkpt>
      <trkpt lat="47.28773" lon="-1.62573">
        <ele>56</ele>
        <time>2019-10-17T14:44:56.000Z</time>
      </trkpt>
      <trkpt lat="47.28769" lon="-1.62573">
        <ele>56</ele>
        <time>2019-10-17T14:44:57.000Z</time>
      </trkpt>
      <trkpt lat="47.28766" lon="-1.62572">
        <ele>56</ele>
        <time>2019-10-17T14:44:58.000Z</time>
      </trkpt>
      <trkpt lat="47.28762" lon="-1.62571">
        <ele>56</ele>
        <time>2019-10-17T14:44:59.000Z</time>
      </trkpt>
      <trkpt lat="47.28758" lon="-1.62569">
        <ele>56</ele>
        <time>2019-10-17T14:45:00.000Z</time>
      </trkpt>
      <trkpt lat="47.28756" lon="-1.62566">
        <ele>56</ele>
        <time>2019-10-17T14:45:01.000Z</time>
      </trkpt>
      <trkpt lat="47.28754" lon="-1.62564">
        <ele>56</ele>
        <time>2019-10-17T14:45:02.000Z</time>
      </trkpt>
      <trkpt lat="47.28753" lon="-1.62562">
        <ele>57</ele>
        <time>2019-10-17T14:45:03.000Z</time>
      </trkpt>
      <trkpt lat="47.28751" lon="-1.6256">
        <ele>57</ele>
        <time>2019-10-17T14:45:04.000Z</time>
      </trkpt>
      <trkpt lat="47.28748" lon="-1.62558">
        <ele>57</ele>
        <time>2019-10-17T14:45:05.000Z</time>
      </trkpt>
      <trkpt lat="47.28746" lon="-1.62555">
        <ele>57</ele>
        <time>2019-10-17T14:45:06.000Z</time>
      </trkpt>
      <trkpt lat="47.28745" lon="-1.62552">
        <ele>57</ele>
        <time>2019-10-17T14:45:07.000Z</time>
      </trkpt>
      <trkpt lat="47.28744" lon="-1.62548">
        <ele>57</ele>
        <time>2019-10-17T14:45:08.000Z</time>
      </trkpt>
      <trkpt lat="47.28744" lon="-1.62544">
        <ele>57</ele>
        <time>2019-10-17T14:45:09.000Z</time>
      </trkpt>
      <trkpt lat="47.28744" lon="-1.6254">
        <ele>58</ele>
        <time>2019-10-17T14:45:10.000Z</time>
      </trkpt>
      <trkpt lat="47.28744" lon="-1.62536">
        <ele>58</ele>
        <time>2019-10-17T14:45:11.000Z</time>
      </trkpt>
      <trkpt lat="47.28745" lon="-1.62533">
        <ele>58</ele>
        <time>2019-10-17T14:45:12.000Z</time>
      </trkpt>
      <trkpt lat="47.28747" lon="-1.62531">
        <ele>58</ele>
        <time>2019-10-17T14:45:13.000Z</time>
      </trkpt>
      <trkpt lat="47.28749" lon="-1.62528">
        <ele>58</ele>
        <time>2019-10-17T14:45:14.000Z</time>
      </trkpt>
      <trkpt lat="47.28751" lon="-1.62525">
        <ele>58</ele>
        <time>2019-10-17T14:45:15.000Z</time>
      </trkpt>
      <trkpt lat="47.28753" lon="-1.62522">
        <ele>59</ele>
        <time>2019-10-17T14:45:16.000Z</time>
      </trkpt>
      <trkpt lat="47.28754" lon="-1.6252">
        <ele>59</ele>
        <time>2019-10-17T14:45:17.000Z</time>
      </trkpt>
      <trkpt lat="47.28756" lon="-1.62519">
        <ele>59</ele>
        <time>2019-10-17T14:45:18.000Z</time>
      </trkpt>
      <trkpt lat="47.28758" lon="-1.62518">
        <ele>59</ele>
        <time>2019-10-17T14:45:19.000Z</time>
      </trkpt>
      <trkpt lat="47.2876" lon="-1.62517">
        <ele>59</ele>
        <time>2019-10-17T14:45:20.000Z</time>
      </trkpt>
      <trkpt lat="47.28762" lon="-1.62516">
        <ele>59</ele>
        <time>2019-10-17T14:45:21.000Z</time>
      </trkpt>
      <trkpt lat="47.28764" lon="-1.62514">
        <ele>59</ele>
        <time>2019-10-17T14:45:22.000Z</time>
      </trkpt>
      <trkpt lat="47.28766" lon="-1.6251">
        <ele>59</ele>
        <time>2019-10-17T14:45:23.000Z</time>
      </trkpt>
      <trkpt lat="47.28768" lon="-1.62506">
        <ele>59</ele>
        <time>2019-10-17T14:45:24.000Z</time>
      </trkpt>
      <trkpt lat="47.28769" lon="-1.62502">
        <ele>59</ele>
        <time>2019-10-17T14:45:25.000Z</time>
      </trkpt>
      <trkpt lat="47.28768" lon="-1.62498">
        <ele>59</ele>
        <time>2019-10-17T14:45:26.000Z</time>
      </trkpt>
      <trkpt lat="47.28766" lon="-1.62496">
        <ele>59</ele>
        <time>2019-10-17T14:45:27.000Z</time>
      </trkpt>
      <trkpt lat="47.28764" lon="-1.62494">
        <ele>59</ele>
        <time>2019-10-17T14:45:28.000Z</time>
      </trkpt>
      <trkpt lat="47.28763" lon="-1.62492">
        <ele>59</ele>
        <time>2019-10-17T14:45:29.000Z</time>
      </trkpt>
      <trkpt lat="47.28761" lon="-1.62488">
        <ele>59</ele>
        <time>2019-10-17T14:45:30.000Z</time>
      </trkpt>
      <trkpt lat="47.2876" lon="-1.62484">
        <ele>59</ele>
        <time>2019-10-17T14:45:31.000Z</time>
      </trkpt>
      <trkpt lat="47.28759" lon="-1.62482">
        <ele>59</ele>
        <time>2019-10-17T14:45:32.000Z</time>
      </trkpt>
      <trkpt lat="47.28757" lon="-1.62479">
        <ele>59</ele>
        <time>2019-10-17T14:45:33.000Z</time>
      </trkpt>
      <trkpt lat="47.28756" lon="-1.62476">
        <ele>59</ele>
        <time>2019-10-17T14:45:34.000Z</time>
      </trkpt>
      <trkpt lat="47.28754" lon="-1.62473">
        <ele>58</ele>
        <time>2019-10-17T14:45:35.000Z</time>
      </trkpt>
      <trkpt lat="47.28753" lon="-1.62471">
        <ele>58</ele>
        <time>2019-10-17T14:45:36.000Z</time>
      </trkpt>
      <trkpt lat="47.28753" lon="-1.62471">
        <ele>58</ele>
        <time>2019-10-17T14:45:37.000Z</time>
      </trkpt>
      <trkpt lat="47.28752" lon="-1.6247">
        <ele>58</ele>
        <time>2019-10-17T14:45:38.000Z</time>
      </trkpt>
      <trkpt lat="47.2875" lon="-1.62468">
        <ele>58</ele>
        <time>2019-10-17T14:45:39.000Z</time>
      </trkpt>
      <trkpt lat="47.28749" lon="-1.62465">
        <ele>58</ele>
        <time>2019-10-17T14:45:40.000Z</time>
      </trkpt>
      <trkpt lat="47.28747" lon="-1.62461">
        <ele>58</ele>
        <time>2019-10-17T14:45:41.000Z</time>
      </trkpt>
      <trkpt lat="47.28744" lon="-1.62458">
        <ele>57</ele>
        <time>2019-10-17T14:45:42.000Z</time>
      </trkpt>
      <trkpt lat="47.28742" lon="-1.62456">
        <ele>57</ele>
        <time>2019-10-17T14:45:43.000Z</time>
      </trkpt>
      <trkpt lat="47.28738" lon="-1.62452">
        <ele>57</ele>
        <time>2019-10-17T14:45:44.000Z</time>
      </trkpt>
      <trkpt lat="47.28735" lon="-1.6245">
        <ele>57</ele>
        <time>2019-10-17T14:45:45.000Z</time>
      </trkpt>
      <trkpt lat="47.28733" lon="-1.62447">
        <ele>57</ele>
        <time>2019-10-17T14:45:46.000Z</time>
      </trkpt>
      <trkpt lat="47.28731" lon="-1.62443">
        <ele>57</ele>
        <time>2019-10-17T14:45:47.000Z</time>
      </trkpt>
      <trkpt lat="47.28729" lon="-1.62437">
        <ele>56</ele>
        <time>2019-10-17T14:45:48.000Z</time>
      </trkpt>
      <trkpt lat="47.28727" lon="-1.62434">
        <ele>56</ele>
        <time>2019-10-17T14:45:49.000Z</time>
      </trkpt>
      <trkpt lat="47.28725" lon="-1.62431">
        <ele>56</ele>
        <time>2019-10-17T14:45:50.000Z</time>
      </trkpt>
      <trkpt lat="47.28723" lon="-1.62429">
        <ele>56</ele>
        <time>2019-10-17T14:45:51.000Z</time>
      </trkpt>
      <trkpt lat="47.28721" lon="-1.62427">
        <ele>56</ele>
        <time>2019-10-17T14:45:52.000Z</time>
      </trkpt>
      <trkpt lat="47.2872" lon="-1.62425">
        <ele>56</ele>
        <time>2019-10-17T14:45:53.000Z</time>
      </trkpt>
      <trkpt lat="47.28718" lon="-1.62423">
        <ele>56</ele>
        <time>2019-10-17T14:45:54.000Z</time>
      </trkpt>
      <trkpt lat="47.28716" lon="-1.62422">
        <ele>56</ele>
        <time>2019-10-17T14:45:55.000Z</time>
      </trkpt>
      <trkpt lat="47.28713" lon="-1.62421">
        <ele>56</ele>
        <time>2019-10-17T14:45:56.000Z</time>
      </trkpt>
      <trkpt lat="47.28712" lon="-1.62422">
        <ele>56</ele>
        <time>2019-10-17T14:45:57.000Z</time>
      </trkpt>
      <trkpt lat="47.28711" lon="-1.62424">
        <ele>55</ele>
        <time>2019-10-17T14:45:58.000Z</time>
      </trkpt>
      <trkpt lat="47.28709" lon="-1.62426">
        <ele>55</ele>
        <time>2019-10-17T14:45:59.000Z</time>
      </trkpt>
      <trkpt lat="47.28707" lon="-1.6243">
        <ele>55</ele>
        <time>2019-10-17T14:46:00.000Z</time>
      </trkpt>
      <trkpt lat="47.28705" lon="-1.62434">
        <ele>55</ele>
        <time>2019-10-17T14:46:01.000Z</time>
      </trkpt>
      <trkpt lat="47.28702" lon="-1.62437">
        <ele>55</ele>
        <time>2019-10-17T14:46:02.000Z</time>
      </trkpt>
      <trkpt lat="47.28699" lon="-1.6244">
        <ele>55</ele>
        <time>2019-10-17T14:46:03.000Z</time>
      </trkpt>
      <trkpt lat="47.28695" lon="-1.62444">
        <ele>55</ele>
        <time>2019-10-17T14:46:04.000Z</time>
      </trkpt>
      <trkpt lat="47.28691" lon="-1.62448">
        <ele>54</ele>
        <time>2019-10-17T14:46:05.000Z</time>
      </trkpt>
      <trkpt lat="47.28688" lon="-1.62452">
        <ele>54</ele>
        <time>2019-10-17T14:46:06.000Z</time>
      </trkpt>
      <trkpt lat="47.28684" lon="-1.62457">
        <ele>54</ele>
        <time>2019-10-17T14:46:07.000Z</time>
      </trkpt>
      <trkpt lat="47.28681" lon="-1.62461">
        <ele>54</ele>
        <time>2019-10-17T14:46:08.000Z</time>
      </trkpt>
      <trkpt lat="47.28677" lon="-1.62465">
        <ele>54</ele>
        <time>2019-10-17T14:46:09.000Z</time>
      </trkpt>
      <trkpt lat="47.28674" lon="-1.6247">
        <ele>54</ele>
        <time>2019-10-17T14:46:10.000Z</time>
      </trkpt>
      <trkpt lat="47.28672" lon="-1.62475">
        <ele>54</ele>
        <time>2019-10-17T14:46:11.000Z</time>
      </trkpt>
      <trkpt lat="47.28668" lon="-1.6248">
        <ele>54</ele>
        <time>2019-10-17T14:46:12.000Z</time>
      </trkpt>
      <trkpt lat="47.28665" lon="-1.62484">
        <ele>54</ele>
        <time>2019-10-17T14:46:13.000Z</time>
      </trkpt>
      <trkpt lat="47.28661" lon="-1.62488">
        <ele>54</ele>
        <time>2019-10-17T14:46:14.000Z</time>
      </trkpt>
      <trkpt lat="47.28658" lon="-1.62493">
        <ele>54</ele>
        <time>2019-10-17T14:46:15.000Z</time>
      </trkpt>
      <trkpt lat="47.28654" lon="-1.62496">
        <ele>54</ele>
        <time>2019-10-17T14:46:16.000Z</time>
      </trkpt>
      <trkpt lat="47.28651" lon="-1.625">
        <ele>54</ele>
        <time>2019-10-17T14:46:17.000Z</time>
      </trkpt>
      <trkpt lat="47.28649" lon="-1.62504">
        <ele>54</ele>
        <time>2019-10-17T14:46:18.000Z</time>
      </trkpt>
      <trkpt lat="47.28645" lon="-1.62506">
        <ele>54</ele>
        <time>2019-10-17T14:46:19.000Z</time>
      </trkpt>
      <trkpt lat="47.28643" lon="-1.62509">
        <ele>54</ele>
        <time>2019-10-17T14:46:20.000Z</time>
      </trkpt>
      <trkpt lat="47.2864" lon="-1.62512">
        <ele>54</ele>
        <time>2019-10-17T14:46:21.000Z</time>
      </trkpt>
      <trkpt lat="47.28637" lon="-1.62516">
        <ele>54</ele>
        <time>2019-10-17T14:46:22.000Z</time>
      </trkpt>
      <trkpt lat="47.28634" lon="-1.6252">
        <ele>54</ele>
        <time>2019-10-17T14:46:23.000Z</time>
      </trkpt>
      <trkpt lat="47.2863" lon="-1.62523">
        <ele>54</ele>
        <time>2019-10-17T14:46:24.000Z</time>
      </trkpt>
      <trkpt lat="47.28628" lon="-1.62524">
        <ele>54</ele>
        <time>2019-10-17T14:46:25.000Z</time>
      </trkpt>
      <trkpt lat="47.28628" lon="-1.62525">
        <ele>54</ele>
        <time>2019-10-17T14:46:26.000Z</time>
      </trkpt>
      <trkpt lat="47.28629" lon="-1.62524">
        <ele>54</ele>
        <time>2019-10-17T14:46:27.000Z</time>
      </trkpt>
      <trkpt lat="47.28628" lon="-1.62522">
        <ele>54</ele>
        <time>2019-10-17T14:46:28.000Z</time>
      </trkpt>
      <trkpt lat="47.28627" lon="-1.6252">
        <ele>54</ele>
        <time>2019-10-17T14:46:29.000Z</time>
      </trkpt>
      <trkpt lat="47.28624" lon="-1.62521">
        <ele>54</ele>
        <time>2019-10-17T14:46:30.000Z</time>
      </trkpt>
      <trkpt lat="47.28622" lon="-1.62523">
        <ele>54</ele>
        <time>2019-10-17T14:46:31.000Z</time>
      </trkpt>
      <trkpt lat="47.28619" lon="-1.62525">
        <ele>54</ele>
        <time>2019-10-17T14:46:32.000Z</time>
      </trkpt>
      <trkpt lat="47.28617" lon="-1.62525">
        <ele>54</ele>
        <time>2019-10-17T14:46:33.000Z</time>
      </trkpt>
      <trkpt lat="47.28614" lon="-1.62526">
        <ele>54</ele>
        <time>2019-10-17T14:46:34.000Z</time>
      </trkpt>
      <trkpt lat="47.28611" lon="-1.62526">
        <ele>54</ele>
        <time>2019-10-17T14:46:35.000Z</time>
      </trkpt>
      <trkpt lat="47.28607" lon="-1.62525">
        <ele>54</ele>
        <time>2019-10-17T14:46:36.000Z</time>
      </trkpt>
      <trkpt lat="47.28604" lon="-1.62524">
        <ele>54</ele>
        <time>2019-10-17T14:46:37.000Z</time>
      </trkpt>
      <trkpt lat="47.28603" lon="-1.62521">
        <ele>54</ele>
        <time>2019-10-17T14:46:38.000Z</time>
      </trkpt>
      <trkpt lat="47.28601" lon="-1.62519">
        <ele>54</ele>
        <time>2019-10-17T14:46:39.000Z</time>
      </trkpt>
      <trkpt lat="47.286" lon="-1.62517">
        <ele>54</ele>
        <time>2019-10-17T14:46:40.000Z</time>
      </trkpt>
      <trkpt lat="47.28598" lon="-1.62515">
        <ele>54</ele>
        <time>2019-10-17T14:46:41.000Z</time>
      </trkpt>
      <trkpt lat="47.28597" lon="-1.62514">
        <ele>54</ele>
        <time>2019-10-17T14:46:42.000Z</time>
      </trkpt>
      <trkpt lat="47.28596" lon="-1.62514">
        <ele>54</ele>
        <time>2019-10-17T14:46:43.000Z</time>
      </trkpt>
      <trkpt lat="47.28595" lon="-1.62513">
        <ele>54</ele>
        <time>2019-10-17T14:46:44.000Z</time>
      </trkpt>
      <trkpt lat="47.28594" lon="-1.62512">
        <ele>54</ele>
        <time>2019-10-17T14:46:45.000Z</time>
      </trkpt>
      <trkpt lat="47.28592" lon="-1.62511">
        <ele>54</ele>
        <time>2019-10-17T14:46:46.000Z</time>
      </trkpt>
      <trkpt lat="47.28592" lon="-1.62511">
        <ele>54</ele>
        <time>2019-10-17T14:46:48.000Z</time>
      </trkpt>
      <trkpt lat="47.28592" lon="-1.62511">
        <ele>54</ele>
        <time>2019-10-17T14:46:49.000Z</time>
      </trkpt>
      <trkpt lat="47.28589" lon="-1.62502">
        <ele>54</ele>
        <time>2019-10-17T14:46:50.000Z</time>
      </trkpt>
      <trkpt lat="47.28589" lon="-1.62501">
        <ele>54</ele>
        <time>2019-10-17T14:46:51.000Z</time>
      </trkpt>
      <trkpt lat="47.28589" lon="-1.62501">
        <ele>54</ele>
        <time>2019-10-17T14:46:52.000Z</time>
      </trkpt>
      <trkpt lat="47.28588" lon="-1.62501">
        <ele>53</ele>
        <time>2019-10-17T14:46:53.000Z</time>
      </trkpt>
      <trkpt lat="47.28588" lon="-1.62501">
        <ele>53</ele>
        <time>2019-10-17T14:46:54.000Z</time>
      </trkpt>
      <trkpt lat="47.28589" lon="-1.62493">
        <ele>52</ele>
        <time>2019-10-17T14:46:55.000Z</time>
      </trkpt>
      <trkpt lat="47.28589" lon="-1.62493">
        <ele>52</ele>
        <time>2019-10-17T14:46:56.000Z</time>
      </trkpt>
      <trkpt lat="47.28585" lon="-1.62493">
        <ele>52</ele>
        <time>2019-10-17T14:46:57.000Z</time>
      </trkpt>
      <trkpt lat="47.28584" lon="-1.62492">
        <ele>52</ele>
        <time>2019-10-17T14:46:58.000Z</time>
      </trkpt>
      <trkpt lat="47.28588" lon="-1.62493">
        <ele>55</ele>
        <time>2019-10-17T14:46:59.000Z</time>
      </trkpt>
      <trkpt lat="47.28587" lon="-1.62495">
        <ele>55</ele>
        <time>2019-10-17T14:47:00.000Z</time>
      </trkpt>
      <trkpt lat="47.28586" lon="-1.62497">
        <ele>55</ele>
        <time>2019-10-17T14:47:01.000Z</time>
      </trkpt>
      <trkpt lat="47.28585" lon="-1.62497">
        <ele>54</ele>
        <time>2019-10-17T14:47:02.000Z</time>
      </trkpt>
      <trkpt lat="47.28585" lon="-1.62497">
        <ele>54</ele>
        <time>2019-10-17T14:47:03.000Z</time>
      </trkpt>
      <trkpt lat="47.28586" lon="-1.6251">
        <ele>52</ele>
        <time>2019-10-17T14:47:04.000Z</time>
      </trkpt>
      <trkpt lat="47.28586" lon="-1.62514">
        <ele>52</ele>
        <time>2019-10-17T14:47:05.000Z</time>
      </trkpt>
      <trkpt lat="47.28585" lon="-1.62518">
        <ele>52</ele>
        <time>2019-10-17T14:47:06.000Z</time>
      </trkpt>
      <trkpt lat="47.28583" lon="-1.6252">
        <ele>52</ele>
        <time>2019-10-17T14:47:07.000Z</time>
      </trkpt>
      <trkpt lat="47.28581" lon="-1.62521">
        <ele>52</ele>
        <time>2019-10-17T14:47:08.000Z</time>
      </trkpt>
      <trkpt lat="47.28577" lon="-1.62521">
        <ele>52</ele>
        <time>2019-10-17T14:47:09.000Z</time>
      </trkpt>
      <trkpt lat="47.28574" lon="-1.62521">
        <ele>52</ele>
        <time>2019-10-17T14:47:10.000Z</time>
      </trkpt>
      <trkpt lat="47.28571" lon="-1.6252">
        <ele>52</ele>
        <time>2019-10-17T14:47:11.000Z</time>
      </trkpt>
      <trkpt lat="47.28567" lon="-1.6252">
        <ele>51</ele>
        <time>2019-10-17T14:47:12.000Z</time>
      </trkpt>
      <trkpt lat="47.28562" lon="-1.62519">
        <ele>51</ele>
        <time>2019-10-17T14:47:13.000Z</time>
      </trkpt>
      <trkpt lat="47.28558" lon="-1.62518">
        <ele>51</ele>
        <time>2019-10-17T14:47:14.000Z</time>
      </trkpt>
      <trkpt lat="47.28554" lon="-1.62517">
        <ele>51</ele>
        <time>2019-10-17T14:47:15.000Z</time>
      </trkpt>
      <trkpt lat="47.28549" lon="-1.62515">
        <ele>51</ele>
        <time>2019-10-17T14:47:16.000Z</time>
      </trkpt>
      <trkpt lat="47.28545" lon="-1.62514">
        <ele>51</ele>
        <time>2019-10-17T14:47:17.000Z</time>
      </trkpt>
      <trkpt lat="47.28541" lon="-1.62514">
        <ele>51</ele>
        <time>2019-10-17T14:47:18.000Z</time>
      </trkpt>
      <trkpt lat="47.28537" lon="-1.62516">
        <ele>51</ele>
        <time>2019-10-17T14:47:19.000Z</time>
      </trkpt>
      <trkpt lat="47.28534" lon="-1.62518">
        <ele>51</ele>
        <time>2019-10-17T14:47:20.000Z</time>
      </trkpt>
      <trkpt lat="47.28532" lon="-1.6252">
        <ele>51</ele>
        <time>2019-10-17T14:47:21.000Z</time>
      </trkpt>
      <trkpt lat="47.28529" lon="-1.6252">
        <ele>50</ele>
        <time>2019-10-17T14:47:22.000Z</time>
      </trkpt>
      <trkpt lat="47.28525" lon="-1.62521">
        <ele>50</ele>
        <time>2019-10-17T14:47:23.000Z</time>
      </trkpt>
      <trkpt lat="47.28522" lon="-1.62522">
        <ele>50</ele>
        <time>2019-10-17T14:47:24.000Z</time>
      </trkpt>
      <trkpt lat="47.28518" lon="-1.62523">
        <ele>50</ele>
        <time>2019-10-17T14:47:25.000Z</time>
      </trkpt>
      <trkpt lat="47.28514" lon="-1.62525">
        <ele>50</ele>
        <time>2019-10-17T14:47:26.000Z</time>
      </trkpt>
      <trkpt lat="47.2851" lon="-1.62526">
        <ele>50</ele>
        <time>2019-10-17T14:47:27.000Z</time>
      </trkpt>
      <trkpt lat="47.28506" lon="-1.62527">
        <ele>50</ele>
        <time>2019-10-17T14:47:28.000Z</time>
      </trkpt>
      <trkpt lat="47.28502" lon="-1.62528">
        <ele>49</ele>
        <time>2019-10-17T14:47:29.000Z</time>
      </trkpt>
      <trkpt lat="47.28497" lon="-1.62528">
        <ele>49</ele>
        <time>2019-10-17T14:47:30.000Z</time>
      </trkpt>
      <trkpt lat="47.28492" lon="-1.62528">
        <ele>49</ele>
        <time>2019-10-17T14:47:31.000Z</time>
      </trkpt>
      <trkpt lat="47.28487" lon="-1.62529">
        <ele>49</ele>
        <time>2019-10-17T14:47:32.000Z</time>
      </trkpt>
      <trkpt lat="47.28482" lon="-1.62529">
        <ele>49</ele>
        <time>2019-10-17T14:47:33.000Z</time>
      </trkpt>
      <trkpt lat="47.28478" lon="-1.62528">
        <ele>49</ele>
        <time>2019-10-17T14:47:34.000Z</time>
      </trkpt>
      <trkpt lat="47.28473" lon="-1.62528">
        <ele>49</ele>
        <time>2019-10-17T14:47:35.000Z</time>
      </trkpt>
      <trkpt lat="47.28469" lon="-1.62529">
        <ele>49</ele>
        <time>2019-10-17T14:47:36.000Z</time>
      </trkpt>
      <trkpt lat="47.28466" lon="-1.62528">
        <ele>49</ele>
        <time>2019-10-17T14:47:37.000Z</time>
      </trkpt>
      <trkpt lat="47.28462" lon="-1.62528">
        <ele>49</ele>
        <time>2019-10-17T14:47:38.000Z</time>
      </trkpt>
      <trkpt lat="47.28458" lon="-1.62528">
        <ele>48</ele>
        <time>2019-10-17T14:47:39.000Z</time>
      </trkpt>
      <trkpt lat="47.28455" lon="-1.62528">
        <ele>48</ele>
        <time>2019-10-17T14:47:40.000Z</time>
      </trkpt>
      <trkpt lat="47.28451" lon="-1.62528">
        <ele>48</ele>
        <time>2019-10-17T14:47:41.000Z</time>
      </trkpt>
      <trkpt lat="47.28447" lon="-1.62527">
        <ele>48</ele>
        <time>2019-10-17T14:47:42.000Z</time>
      </trkpt>
      <trkpt lat="47.28443" lon="-1.62526">
        <ele>48</ele>
        <time>2019-10-17T14:47:43.000Z</time>
      </trkpt>
      <trkpt lat="47.2844" lon="-1.62524">
        <ele>48</ele>
        <time>2019-10-17T14:47:44.000Z</time>
      </trkpt>
      <trkpt lat="47.28436" lon="-1.62522">
        <ele>48</ele>
        <time>2019-10-17T14:47:45.000Z</time>
      </trkpt>
      <trkpt lat="47.28432" lon="-1.6252">
        <ele>48</ele>
        <time>2019-10-17T14:47:46.000Z</time>
      </trkpt>
      <trkpt lat="47.28428" lon="-1.62519">
        <ele>48</ele>
        <time>2019-10-17T14:47:47.000Z</time>
      </trkpt>
      <trkpt lat="47.28425" lon="-1.62518">
        <ele>48</ele>
        <time>2019-10-17T14:47:48.000Z</time>
      </trkpt>
      <trkpt lat="47.28422" lon="-1.62516">
        <ele>48</ele>
        <time>2019-10-17T14:47:49.000Z</time>
      </trkpt>
      <trkpt lat="47.2842" lon="-1.62515">
        <ele>48</ele>
        <time>2019-10-17T14:47:50.000Z</time>
      </trkpt>
      <trkpt lat="47.28417" lon="-1.62514">
        <ele>48</ele>
        <time>2019-10-17T14:47:51.000Z</time>
      </trkpt>
      <trkpt lat="47.28414" lon="-1.62514">
        <ele>47</ele>
        <time>2019-10-17T14:47:52.000Z</time>
      </trkpt>
      <trkpt lat="47.2841" lon="-1.62513">
        <ele>47</ele>
        <time>2019-10-17T14:47:53.000Z</time>
      </trkpt>
      <trkpt lat="47.28406" lon="-1.62512">
        <ele>48</ele>
        <time>2019-10-17T14:47:54.000Z</time>
      </trkpt>
      <trkpt lat="47.28401" lon="-1.62511">
        <ele>48</ele>
        <time>2019-10-17T14:47:55.000Z</time>
      </trkpt>
      <trkpt lat="47.28396" lon="-1.62511">
        <ele>48</ele>
        <time>2019-10-17T14:47:56.000Z</time>
      </trkpt>
      <trkpt lat="47.28391" lon="-1.62509">
        <ele>48</ele>
        <time>2019-10-17T14:47:57.000Z</time>
      </trkpt>
      <trkpt lat="47.28385" lon="-1.62508">
        <ele>48</ele>
        <time>2019-10-17T14:47:58.000Z</time>
      </trkpt>
      <trkpt lat="47.2838" lon="-1.62506">
        <ele>48</ele>
        <time>2019-10-17T14:47:59.000Z</time>
      </trkpt>
      <trkpt lat="47.28376" lon="-1.62504">
        <ele>48</ele>
        <time>2019-10-17T14:48:00.000Z</time>
      </trkpt>
      <trkpt lat="47.2837" lon="-1.62503">
        <ele>48</ele>
        <time>2019-10-17T14:48:01.000Z</time>
      </trkpt>
      <trkpt lat="47.28365" lon="-1.62503">
        <ele>48</ele>
        <time>2019-10-17T14:48:02.000Z</time>
      </trkpt>
      <trkpt lat="47.28359" lon="-1.62504">
        <ele>48</ele>
        <time>2019-10-17T14:48:03.000Z</time>
      </trkpt>
      <trkpt lat="47.28353" lon="-1.62506">
        <ele>48</ele>
        <time>2019-10-17T14:48:04.000Z</time>
      </trkpt>
      <trkpt lat="47.28348" lon="-1.62508">
        <ele>48</ele>
        <time>2019-10-17T14:48:05.000Z</time>
      </trkpt>
      <trkpt lat="47.28342" lon="-1.6251">
        <ele>48</ele>
        <time>2019-10-17T14:48:06.000Z</time>
      </trkpt>
      <trkpt lat="47.28337" lon="-1.62512">
        <ele>48</ele>
        <time>2019-10-17T14:48:07.000Z</time>
      </trkpt>
      <trkpt lat="47.28332" lon="-1.62513">
        <ele>47</ele>
        <time>2019-10-17T14:48:08.000Z</time>
      </trkpt>
      <trkpt lat="47.28329" lon="-1.62514">
        <ele>47</ele>
        <time>2019-10-17T14:48:09.000Z</time>
      </trkpt>
      <trkpt lat="47.28325" lon="-1.62516">
        <ele>47</ele>
        <time>2019-10-17T14:48:10.000Z</time>
      </trkpt>
      <trkpt lat="47.28322" lon="-1.62516">
        <ele>47</ele>
        <time>2019-10-17T14:48:11.000Z</time>
      </trkpt>
      <trkpt lat="47.28318" lon="-1.62517">
        <ele>47</ele>
        <time>2019-10-17T14:48:12.000Z</time>
      </trkpt>
      <trkpt lat="47.28314" lon="-1.62518">
        <ele>47</ele>
        <time>2019-10-17T14:48:13.000Z</time>
      </trkpt>
      <trkpt lat="47.2831" lon="-1.62518">
        <ele>47</ele>
        <time>2019-10-17T14:48:14.000Z</time>
      </trkpt>
      <trkpt lat="47.28305" lon="-1.6252">
        <ele>47</ele>
        <time>2019-10-17T14:48:15.000Z</time>
      </trkpt>
      <trkpt lat="47.283" lon="-1.62521">
        <ele>47</ele>
        <time>2019-10-17T14:48:16.000Z</time>
      </trkpt>
      <trkpt lat="47.28296" lon="-1.62523">
        <ele>47</ele>
        <time>2019-10-17T14:48:17.000Z</time>
      </trkpt>
      <trkpt lat="47.28291" lon="-1.62525">
        <ele>46</ele>
        <time>2019-10-17T14:48:18.000Z</time>
      </trkpt>
      <trkpt lat="47.28287" lon="-1.62526">
        <ele>46</ele>
        <time>2019-10-17T14:48:19.000Z</time>
      </trkpt>
      <trkpt lat="47.28282" lon="-1.62529">
        <ele>46</ele>
        <time>2019-10-17T14:48:20.000Z</time>
      </trkpt>
      <trkpt lat="47.28278" lon="-1.62532">
        <ele>46</ele>
        <time>2019-10-17T14:48:21.000Z</time>
      </trkpt>
      <trkpt lat="47.28274" lon="-1.62535">
        <ele>46</ele>
        <time>2019-10-17T14:48:22.000Z</time>
      </trkpt>
      <trkpt lat="47.2827" lon="-1.62537">
        <ele>46</ele>
        <time>2019-10-17T14:48:23.000Z</time>
      </trkpt>
      <trkpt lat="47.28266" lon="-1.62539">
        <ele>46</ele>
        <time>2019-10-17T14:48:24.000Z</time>
      </trkpt>
      <trkpt lat="47.28263" lon="-1.62542">
        <ele>46</ele>
        <time>2019-10-17T14:48:25.000Z</time>
      </trkpt>
      <trkpt lat="47.28259" lon="-1.62544">
        <ele>46</ele>
        <time>2019-10-17T14:48:26.000Z</time>
      </trkpt>
      <trkpt lat="47.28255" lon="-1.62547">
        <ele>46</ele>
        <time>2019-10-17T14:48:27.000Z</time>
      </trkpt>
      <trkpt lat="47.28251" lon="-1.6255">
        <ele>46</ele>
        <time>2019-10-17T14:48:28.000Z</time>
      </trkpt>
      <trkpt lat="47.28248" lon="-1.62553">
        <ele>46</ele>
        <time>2019-10-17T14:48:29.000Z</time>
      </trkpt>
      <trkpt lat="47.28243" lon="-1.62556">
        <ele>46</ele>
        <time>2019-10-17T14:48:30.000Z</time>
      </trkpt>
      <trkpt lat="47.28238" lon="-1.62558">
        <ele>46</ele>
        <time>2019-10-17T14:48:31.000Z</time>
      </trkpt>
      <trkpt lat="47.28233" lon="-1.62561">
        <ele>46</ele>
        <time>2019-10-17T14:48:32.000Z</time>
      </trkpt>
      <trkpt lat="47.28228" lon="-1.62565">
        <ele>45</ele>
        <time>2019-10-17T14:48:33.000Z</time>
      </trkpt>
      <trkpt lat="47.28223" lon="-1.62568">
        <ele>45</ele>
        <time>2019-10-17T14:48:34.000Z</time>
      </trkpt>
      <trkpt lat="47.28223" lon="-1.62568">
        <ele>45</ele>
        <time>2019-10-17T14:48:38.000Z</time>
      </trkpt>
      <trkpt lat="47.28223" lon="-1.62568">
        <ele>44</ele>
        <time>2019-10-17T14:48:39.000Z</time>
      </trkpt>
      <trkpt lat="47.28198" lon="-1.62584">
        <ele>44</ele>
        <time>2019-10-17T14:48:40.000Z</time>
      </trkpt>
      <trkpt lat="47.28195" lon="-1.62584">
        <ele>44</ele>
        <time>2019-10-17T14:48:41.000Z</time>
      </trkpt>
      <trkpt lat="47.28192" lon="-1.62583">
        <ele>43</ele>
        <time>2019-10-17T14:48:42.000Z</time>
      </trkpt>
      <trkpt lat="47.28189" lon="-1.62582">
        <ele>43</ele>
        <time>2019-10-17T14:48:43.000Z</time>
      </trkpt>
      <trkpt lat="47.28186" lon="-1.6258">
        <ele>42</ele>
        <time>2019-10-17T14:48:44.000Z</time>
      </trkpt>
      <trkpt lat="47.28183" lon="-1.62579">
        <ele>42</ele>
        <time>2019-10-17T14:48:45.000Z</time>
      </trkpt>
      <trkpt lat="47.28179" lon="-1.62578">
        <ele>41</ele>
        <time>2019-10-17T14:48:46.000Z</time>
      </trkpt>
      <trkpt lat="47.28175" lon="-1.62577">
        <ele>40</ele>
        <time>2019-10-17T14:48:47.000Z</time>
      </trkpt>
      <trkpt lat="47.28172" lon="-1.62577">
        <ele>39</ele>
        <time>2019-10-17T14:48:48.000Z</time>
      </trkpt>
      <trkpt lat="47.28169" lon="-1.62577">
        <ele>38</ele>
        <time>2019-10-17T14:48:49.000Z</time>
      </trkpt>
      <trkpt lat="47.28165" lon="-1.62578">
        <ele>38</ele>
        <time>2019-10-17T14:48:50.000Z</time>
      </trkpt>
      <trkpt lat="47.28162" lon="-1.62582">
        <ele>38</ele>
        <time>2019-10-17T14:48:51.000Z</time>
      </trkpt>
      <trkpt lat="47.2816" lon="-1.62587">
        <ele>38</ele>
        <time>2019-10-17T14:48:52.000Z</time>
      </trkpt>
      <trkpt lat="47.28158" lon="-1.62592">
        <ele>38</ele>
        <time>2019-10-17T14:48:53.000Z</time>
      </trkpt>
      <trkpt lat="47.28157" lon="-1.62598">
        <ele>38</ele>
        <time>2019-10-17T14:48:54.000Z</time>
      </trkpt>
      <trkpt lat="47.28155" lon="-1.62603">
        <ele>38</ele>
        <time>2019-10-17T14:48:55.000Z</time>
      </trkpt>
      <trkpt lat="47.28155" lon="-1.62609">
        <ele>39</ele>
        <time>2019-10-17T14:48:56.000Z</time>
      </trkpt>
      <trkpt lat="47.28153" lon="-1.62615">
        <ele>40</ele>
        <time>2019-10-17T14:48:57.000Z</time>
      </trkpt>
      <trkpt lat="47.28152" lon="-1.6262">
        <ele>41</ele>
        <time>2019-10-17T14:48:58.000Z</time>
      </trkpt>
      <trkpt lat="47.2815" lon="-1.62625">
        <ele>42</ele>
        <time>2019-10-17T14:48:59.000Z</time>
      </trkpt>
      <trkpt lat="47.28149" lon="-1.6263">
        <ele>43</ele>
        <time>2019-10-17T14:49:00.000Z</time>
      </trkpt>
      <trkpt lat="47.28148" lon="-1.62634">
        <ele>44</ele>
        <time>2019-10-17T14:49:01.000Z</time>
      </trkpt>
      <trkpt lat="47.28147" lon="-1.62638">
        <ele>46</ele>
        <time>2019-10-17T14:49:02.000Z</time>
      </trkpt>
      <trkpt lat="47.28145" lon="-1.62642">
        <ele>47</ele>
        <time>2019-10-17T14:49:03.000Z</time>
      </trkpt>
      <trkpt lat="47.28144" lon="-1.62646">
        <ele>48</ele>
        <time>2019-10-17T14:49:04.000Z</time>
      </trkpt>
      <trkpt lat="47.28142" lon="-1.6265">
        <ele>50</ele>
        <time>2019-10-17T14:49:05.000Z</time>
      </trkpt>
      <trkpt lat="47.28141" lon="-1.62654">
        <ele>51</ele>
        <time>2019-10-17T14:49:06.000Z</time>
      </trkpt>
      <trkpt lat="47.28139" lon="-1.62657">
        <ele>52</ele>
        <time>2019-10-17T14:49:07.000Z</time>
      </trkpt>
      <trkpt lat="47.28137" lon="-1.62661">
        <ele>52</ele>
        <time>2019-10-17T14:49:08.000Z</time>
      </trkpt>
      <trkpt lat="47.28135" lon="-1.62664">
        <ele>52</ele>
        <time>2019-10-17T14:49:09.000Z</time>
      </trkpt>
      <trkpt lat="47.28134" lon="-1.62668">
        <ele>52</ele>
        <time>2019-10-17T14:49:10.000Z</time>
      </trkpt>
      <trkpt lat="47.28133" lon="-1.62673">
        <ele>52</ele>
        <time>2019-10-17T14:49:11.000Z</time>
      </trkpt>
      <trkpt lat="47.28133" lon="-1.62677">
        <ele>52</ele>
        <time>2019-10-17T14:49:12.000Z</time>
      </trkpt>
      <trkpt lat="47.28132" lon="-1.6268">
        <ele>52</ele>
        <time>2019-10-17T14:49:13.000Z</time>
      </trkpt>
      <trkpt lat="47.28132" lon="-1.62684">
        <ele>52</ele>
        <time>2019-10-17T14:49:14.000Z</time>
      </trkpt>
      <trkpt lat="47.28131" lon="-1.62687">
        <ele>52</ele>
        <time>2019-10-17T14:49:15.000Z</time>
      </trkpt>
      <trkpt lat="47.28132" lon="-1.62691">
        <ele>52</ele>
        <time>2019-10-17T14:49:16.000Z</time>
      </trkpt>
      <trkpt lat="47.28131" lon="-1.62695">
        <ele>52</ele>
        <time>2019-10-17T14:49:17.000Z</time>
      </trkpt>
      <trkpt lat="47.28131" lon="-1.62699">
        <ele>53</ele>
        <time>2019-10-17T14:49:18.000Z</time>
      </trkpt>
      <trkpt lat="47.28129" lon="-1.62702">
        <ele>53</ele>
        <time>2019-10-17T14:49:19.000Z</time>
      </trkpt>
      <trkpt lat="47.28127" lon="-1.62705">
        <ele>53</ele>
        <time>2019-10-17T14:49:20.000Z</time>
      </trkpt>
      <trkpt lat="47.28125" lon="-1.62708">
        <ele>53</ele>
        <time>2019-10-17T14:49:21.000Z</time>
      </trkpt>
      <trkpt lat="47.28124" lon="-1.62711">
        <ele>54</ele>
        <time>2019-10-17T14:49:22.000Z</time>
      </trkpt>
      <trkpt lat="47.28122" lon="-1.62713">
        <ele>54</ele>
        <time>2019-10-17T14:49:23.000Z</time>
      </trkpt>
      <trkpt lat="47.2812" lon="-1.62715">
        <ele>54</ele>
        <time>2019-10-17T14:49:24.000Z</time>
      </trkpt>
      <trkpt lat="47.28119" lon="-1.62718">
        <ele>55</ele>
        <time>2019-10-17T14:49:25.000Z</time>
      </trkpt>
      <trkpt lat="47.28118" lon="-1.6272">
        <ele>55</ele>
        <time>2019-10-17T14:49:26.000Z</time>
      </trkpt>
      <trkpt lat="47.28117" lon="-1.62723">
        <ele>56</ele>
        <time>2019-10-17T14:49:27.000Z</time>
      </trkpt>
      <trkpt lat="47.28117" lon="-1.62727">
        <ele>56</ele>
        <time>2019-10-17T14:49:28.000Z</time>
      </trkpt>
      <trkpt lat="47.28117" lon="-1.6273">
        <ele>56</ele>
        <time>2019-10-17T14:49:29.000Z</time>
      </trkpt>
      <trkpt lat="47.28118" lon="-1.62734">
        <ele>57</ele>
        <time>2019-10-17T14:49:30.000Z</time>
      </trkpt>
      <trkpt lat="47.28118" lon="-1.62738">
        <ele>57</ele>
        <time>2019-10-17T14:49:31.000Z</time>
      </trkpt>
      <trkpt lat="47.28118" lon="-1.62743">
        <ele>57</ele>
        <time>2019-10-17T14:49:32.000Z</time>
      </trkpt>
      <trkpt lat="47.28118" lon="-1.62747">
        <ele>57</ele>
        <time>2019-10-17T14:49:33.000Z</time>
      </trkpt>
      <trkpt lat="47.28119" lon="-1.62751">
        <ele>57</ele>
        <time>2019-10-17T14:49:34.000Z</time>
      </trkpt>
      <trkpt lat="47.28121" lon="-1.62754">
        <ele>57</ele>
        <time>2019-10-17T14:49:35.000Z</time>
      </trkpt>
      <trkpt lat="47.28122" lon="-1.62759">
        <ele>57</ele>
        <time>2019-10-17T14:49:36.000Z</time>
      </trkpt>
      <trkpt lat="47.28123" lon="-1.62763">
        <ele>56</ele>
        <time>2019-10-17T14:49:37.000Z</time>
      </trkpt>
      <trkpt lat="47.28123" lon="-1.62767">
        <ele>56</ele>
        <time>2019-10-17T14:49:38.000Z</time>
      </trkpt>
      <trkpt lat="47.28122" lon="-1.62773">
        <ele>55</ele>
        <time>2019-10-17T14:49:39.000Z</time>
      </trkpt>
      <trkpt lat="47.28121" lon="-1.62777">
        <ele>55</ele>
        <time>2019-10-17T14:49:40.000Z</time>
      </trkpt>
      <trkpt lat="47.2812" lon="-1.62781">
        <ele>54</ele>
        <time>2019-10-17T14:49:41.000Z</time>
      </trkpt>
      <trkpt lat="47.28119" lon="-1.62786">
        <ele>54</ele>
        <time>2019-10-17T14:49:42.000Z</time>
      </trkpt>
      <trkpt lat="47.28118" lon="-1.6279">
        <ele>53</ele>
        <time>2019-10-17T14:49:43.000Z</time>
      </trkpt>
      <trkpt lat="47.28118" lon="-1.62794">
        <ele>53</ele>
        <time>2019-10-17T14:49:44.000Z</time>
      </trkpt>
      <trkpt lat="47.28117" lon="-1.628">
        <ele>52</ele>
        <time>2019-10-17T14:49:45.000Z</time>
      </trkpt>
      <trkpt lat="47.28115" lon="-1.62804">
        <ele>52</ele>
        <time>2019-10-17T14:49:46.000Z</time>
      </trkpt>
      <trkpt lat="47.28113" lon="-1.62809">
        <ele>52</ele>
        <time>2019-10-17T14:49:47.000Z</time>
      </trkpt>
      <trkpt lat="47.28111" lon="-1.62813">
        <ele>51</ele>
        <time>2019-10-17T14:49:48.000Z</time>
      </trkpt>
      <trkpt lat="47.28109" lon="-1.62818">
        <ele>51</ele>
        <time>2019-10-17T14:49:49.000Z</time>
      </trkpt>
      <trkpt lat="47.28108" lon="-1.62824">
        <ele>51</ele>
        <time>2019-10-17T14:49:50.000Z</time>
      </trkpt>
      <trkpt lat="47.28109" lon="-1.62829">
        <ele>50</ele>
        <time>2019-10-17T14:49:51.000Z</time>
      </trkpt>
      <trkpt lat="47.28109" lon="-1.62835">
        <ele>50</ele>
        <time>2019-10-17T14:49:52.000Z</time>
      </trkpt>
      <trkpt lat="47.28111" lon="-1.6284">
        <ele>50</ele>
        <time>2019-10-17T14:49:53.000Z</time>
      </trkpt>
      <trkpt lat="47.28113" lon="-1.62846">
        <ele>50</ele>
        <time>2019-10-17T14:49:54.000Z</time>
      </trkpt>
      <trkpt lat="47.28116" lon="-1.6285">
        <ele>50</ele>
        <time>2019-10-17T14:49:55.000Z</time>
      </trkpt>
      <trkpt lat="47.28118" lon="-1.62854">
        <ele>49</ele>
        <time>2019-10-17T14:49:56.000Z</time>
      </trkpt>
      <trkpt lat="47.2812" lon="-1.62858">
        <ele>49</ele>
        <time>2019-10-17T14:49:57.000Z</time>
      </trkpt>
      <trkpt lat="47.28121" lon="-1.62861">
        <ele>49</ele>
        <time>2019-10-17T14:49:58.000Z</time>
      </trkpt>
      <trkpt lat="47.28123" lon="-1.62863">
        <ele>49</ele>
        <time>2019-10-17T14:49:59.000Z</time>
      </trkpt>
      <trkpt lat="47.28123" lon="-1.62864">
        <ele>48</ele>
        <time>2019-10-17T14:50:00.000Z</time>
      </trkpt>
      <trkpt lat="47.28124" lon="-1.62866">
        <ele>48</ele>
        <time>2019-10-17T14:50:01.000Z</time>
      </trkpt>
      <trkpt lat="47.28124" lon="-1.62867">
        <ele>48</ele>
        <time>2019-10-17T14:50:02.000Z</time>
      </trkpt>
      <trkpt lat="47.28125" lon="-1.62868">
        <ele>48</ele>
        <time>2019-10-17T14:50:03.000Z</time>
      </trkpt>
      <trkpt lat="47.28125" lon="-1.62869">
        <ele>48</ele>
        <time>2019-10-17T14:50:04.000Z</time>
      </trkpt>
      <trkpt lat="47.28126" lon="-1.62871">
        <ele>48</ele>
        <time>2019-10-17T14:50:05.000Z</time>
      </trkpt>
      <trkpt lat="47.28126" lon="-1.62874">
        <ele>48</ele>
        <time>2019-10-17T14:50:06.000Z</time>
      </trkpt>
      <trkpt lat="47.28127" lon="-1.62876">
        <ele>48</ele>
        <time>2019-10-17T14:50:07.000Z</time>
      </trkpt>
      <trkpt lat="47.28128" lon="-1.62879">
        <ele>47</ele>
        <time>2019-10-17T14:50:08.000Z</time>
      </trkpt>
      <trkpt lat="47.28128" lon="-1.62883">
        <ele>47</ele>
        <time>2019-10-17T14:50:09.000Z</time>
      </trkpt>
      <trkpt lat="47.28129" lon="-1.62887">
        <ele>47</ele>
        <time>2019-10-17T14:50:10.000Z</time>
      </trkpt>
      <trkpt lat="47.28128" lon="-1.62891">
        <ele>47</ele>
        <time>2019-10-17T14:50:11.000Z</time>
      </trkpt>
      <trkpt lat="47.28128" lon="-1.62895">
        <ele>47</ele>
        <time>2019-10-17T14:50:12.000Z</time>
      </trkpt>
      <trkpt lat="47.28127" lon="-1.62898">
        <ele>47</ele>
        <time>2019-10-17T14:50:13.000Z</time>
      </trkpt>
      <trkpt lat="47.28127" lon="-1.62901">
        <ele>47</ele>
        <time>2019-10-17T14:50:14.000Z</time>
      </trkpt>
      <trkpt lat="47.28128" lon="-1.62904">
        <ele>47</ele>
        <time>2019-10-17T14:50:15.000Z</time>
      </trkpt>
      <trkpt lat="47.28128" lon="-1.62907">
        <ele>47</ele>
        <time>2019-10-17T14:50:16.000Z</time>
      </trkpt>
      <trkpt lat="47.28129" lon="-1.6291">
        <ele>47</ele>
        <time>2019-10-17T14:50:17.000Z</time>
      </trkpt>
      <trkpt lat="47.28129" lon="-1.62913">
        <ele>47</ele>
        <time>2019-10-17T14:50:18.000Z</time>
      </trkpt>
      <trkpt lat="47.2813" lon="-1.62916">
        <ele>47</ele>
        <time>2019-10-17T14:50:19.000Z</time>
      </trkpt>
      <trkpt lat="47.28131" lon="-1.62919">
        <ele>47</ele>
        <time>2019-10-17T14:50:20.000Z</time>
      </trkpt>
      <trkpt lat="47.28132" lon="-1.62923">
        <ele>47</ele>
        <time>2019-10-17T14:50:21.000Z</time>
      </trkpt>
      <trkpt lat="47.28133" lon="-1.62927">
        <ele>47</ele>
        <time>2019-10-17T14:50:22.000Z</time>
      </trkpt>
      <trkpt lat="47.28134" lon="-1.6293">
        <ele>47</ele>
        <time>2019-10-17T14:50:23.000Z</time>
      </trkpt>
      <trkpt lat="47.28135" lon="-1.62933">
        <ele>47</ele>
        <time>2019-10-17T14:50:24.000Z</time>
      </trkpt>
      <trkpt lat="47.28136" lon="-1.62937">
        <ele>47</ele>
        <time>2019-10-17T14:50:25.000Z</time>
      </trkpt>
      <trkpt lat="47.28137" lon="-1.6294">
        <ele>47</ele>
        <time>2019-10-17T14:50:26.000Z</time>
      </trkpt>
      <trkpt lat="47.28139" lon="-1.62944">
        <ele>47</ele>
        <time>2019-10-17T14:50:27.000Z</time>
      </trkpt>
      <trkpt lat="47.28141" lon="-1.62947">
        <ele>47</ele>
        <time>2019-10-17T14:50:28.000Z</time>
      </trkpt>
      <trkpt lat="47.28142" lon="-1.6295">
        <ele>47</ele>
        <time>2019-10-17T14:50:29.000Z</time>
      </trkpt>
      <trkpt lat="47.28144" lon="-1.62954">
        <ele>47</ele>
        <time>2019-10-17T14:50:30.000Z</time>
      </trkpt>
      <trkpt lat="47.28146" lon="-1.62958">
        <ele>47</ele>
        <time>2019-10-17T14:50:31.000Z</time>
      </trkpt>
      <trkpt lat="47.28148" lon="-1.62961">
        <ele>47</ele>
        <time>2019-10-17T14:50:32.000Z</time>
      </trkpt>
      <trkpt lat="47.2815" lon="-1.62963">
        <ele>47</ele>
        <time>2019-10-17T14:50:33.000Z</time>
      </trkpt>
      <trkpt lat="47.28152" lon="-1.62967">
        <ele>47</ele>
        <time>2019-10-17T14:50:34.000Z</time>
      </trkpt>
      <trkpt lat="47.28154" lon="-1.6297">
        <ele>47</ele>
        <time>2019-10-17T14:50:35.000Z</time>
      </trkpt>
      <trkpt lat="47.28156" lon="-1.62973">
        <ele>47</ele>
        <time>2019-10-17T14:50:36.000Z</time>
      </trkpt>
      <trkpt lat="47.28158" lon="-1.62975">
        <ele>47</ele>
        <time>2019-10-17T14:50:37.000Z</time>
      </trkpt>
      <trkpt lat="47.2816" lon="-1.62978">
        <ele>47</ele>
        <time>2019-10-17T14:50:38.000Z</time>
      </trkpt>
      <trkpt lat="47.28162" lon="-1.62979">
        <ele>46</ele>
        <time>2019-10-17T14:50:39.000Z</time>
      </trkpt>
      <trkpt lat="47.28164" lon="-1.6298">
        <ele>46</ele>
        <time>2019-10-17T14:50:40.000Z</time>
      </trkpt>
      <trkpt lat="47.28166" lon="-1.62982">
        <ele>46</ele>
        <time>2019-10-17T14:50:41.000Z</time>
      </trkpt>
      <trkpt lat="47.28168" lon="-1.62985">
        <ele>46</ele>
        <time>2019-10-17T14:50:42.000Z</time>
      </trkpt>
      <trkpt lat="47.2817" lon="-1.62987">
        <ele>46</ele>
        <time>2019-10-17T14:50:43.000Z</time>
      </trkpt>
      <trkpt lat="47.28172" lon="-1.6299">
        <ele>46</ele>
        <time>2019-10-17T14:50:44.000Z</time>
      </trkpt>
      <trkpt lat="47.28174" lon="-1.62992">
        <ele>46</ele>
        <time>2019-10-17T14:50:45.000Z</time>
      </trkpt>
      <trkpt lat="47.28176" lon="-1.62994">
        <ele>46</ele>
        <time>2019-10-17T14:50:46.000Z</time>
      </trkpt>
      <trkpt lat="47.28178" lon="-1.62996">
        <ele>46</ele>
        <time>2019-10-17T14:50:47.000Z</time>
      </trkpt>
      <trkpt lat="47.2818" lon="-1.62998">
        <ele>46</ele>
        <time>2019-10-17T14:50:48.000Z</time>
      </trkpt>
      <trkpt lat="47.28182" lon="-1.63">
        <ele>46</ele>
        <time>2019-10-17T14:50:49.000Z</time>
      </trkpt>
      <trkpt lat="47.28183" lon="-1.63002">
        <ele>46</ele>
        <time>2019-10-17T14:50:50.000Z</time>
      </trkpt>
      <trkpt lat="47.28185" lon="-1.63003">
        <ele>47</ele>
        <time>2019-10-17T14:50:51.000Z</time>
      </trkpt>
      <trkpt lat="47.28187" lon="-1.63004">
        <ele>47</ele>
        <time>2019-10-17T14:50:52.000Z</time>
      </trkpt>
      <trkpt lat="47.2819" lon="-1.63007">
        <ele>47</ele>
        <time>2019-10-17T14:50:53.000Z</time>
      </trkpt>
      <trkpt lat="47.28192" lon="-1.63009">
        <ele>47</ele>
        <time>2019-10-17T14:50:54.000Z</time>
      </trkpt>
      <trkpt lat="47.28195" lon="-1.63011">
        <ele>47</ele>
        <time>2019-10-17T14:50:55.000Z</time>
      </trkpt>
      <trkpt lat="47.28197" lon="-1.63014">
        <ele>48</ele>
        <time>2019-10-17T14:50:56.000Z</time>
      </trkpt>
      <trkpt lat="47.282" lon="-1.63016">
        <ele>48</ele>
        <time>2019-10-17T14:50:57.000Z</time>
      </trkpt>
      <trkpt lat="47.28203" lon="-1.6302">
        <ele>48</ele>
        <time>2019-10-17T14:50:58.000Z</time>
      </trkpt>
      <trkpt lat="47.28205" lon="-1.63023">
        <ele>48</ele>
        <time>2019-10-17T14:50:59.000Z</time>
      </trkpt>
      <trkpt lat="47.28207" lon="-1.63027">
        <ele>48</ele>
        <time>2019-10-17T14:51:00.000Z</time>
      </trkpt>
      <trkpt lat="47.28209" lon="-1.6303">
        <ele>49</ele>
        <time>2019-10-17T14:51:01.000Z</time>
      </trkpt>
      <trkpt lat="47.28211" lon="-1.63033">
        <ele>49</ele>
        <time>2019-10-17T14:51:02.000Z</time>
      </trkpt>
      <trkpt lat="47.28213" lon="-1.63036">
        <ele>49</ele>
        <time>2019-10-17T14:51:03.000Z</time>
      </trkpt>
      <trkpt lat="47.28214" lon="-1.63039">
        <ele>49</ele>
        <time>2019-10-17T14:51:04.000Z</time>
      </trkpt>
      <trkpt lat="47.28216" lon="-1.63042">
        <ele>49</ele>
        <time>2019-10-17T14:51:05.000Z</time>
      </trkpt>
      <trkpt lat="47.28217" lon="-1.63045">
        <ele>49</ele>
        <time>2019-10-17T14:51:06.000Z</time>
      </trkpt>
      <trkpt lat="47.28219" lon="-1.63048">
        <ele>49</ele>
        <time>2019-10-17T14:51:07.000Z</time>
      </trkpt>
      <trkpt lat="47.28222" lon="-1.6305">
        <ele>49</ele>
        <time>2019-10-17T14:51:08.000Z</time>
      </trkpt>
      <trkpt lat="47.28225" lon="-1.63052">
        <ele>49</ele>
        <time>2019-10-17T14:51:09.000Z</time>
      </trkpt>
      <trkpt lat="47.28229" lon="-1.63053">
        <ele>49</ele>
        <time>2019-10-17T14:51:10.000Z</time>
      </trkpt>
      <trkpt lat="47.28233" lon="-1.63055">
        <ele>49</ele>
        <time>2019-10-17T14:51:11.000Z</time>
      </trkpt>
      <trkpt lat="47.28237" lon="-1.63055">
        <ele>49</ele>
        <time>2019-10-17T14:51:12.000Z</time>
      </trkpt>
      <trkpt lat="47.2824" lon="-1.63056">
        <ele>49</ele>
        <time>2019-10-17T14:51:13.000Z</time>
      </trkpt>
      <trkpt lat="47.28244" lon="-1.63056">
        <ele>49</ele>
        <time>2019-10-17T14:51:14.000Z</time>
      </trkpt>
      <trkpt lat="47.28248" lon="-1.63056">
        <ele>49</ele>
        <time>2019-10-17T14:51:15.000Z</time>
      </trkpt>
      <trkpt lat="47.28251" lon="-1.63055">
        <ele>49</ele>
        <time>2019-10-17T14:51:16.000Z</time>
      </trkpt>
      <trkpt lat="47.28255" lon="-1.63055">
        <ele>49</ele>
        <time>2019-10-17T14:51:17.000Z</time>
      </trkpt>
      <trkpt lat="47.28259" lon="-1.63054">
        <ele>50</ele>
        <time>2019-10-17T14:51:18.000Z</time>
      </trkpt>
      <trkpt lat="47.28262" lon="-1.63053">
        <ele>50</ele>
        <time>2019-10-17T14:51:19.000Z</time>
      </trkpt>
      <trkpt lat="47.28266" lon="-1.63051">
        <ele>50</ele>
        <time>2019-10-17T14:51:20.000Z</time>
      </trkpt>
      <trkpt lat="47.2827" lon="-1.6305">
        <ele>51</ele>
        <time>2019-10-17T14:51:21.000Z</time>
      </trkpt>
      <trkpt lat="47.28274" lon="-1.63049">
        <ele>51</ele>
        <time>2019-10-17T14:51:22.000Z</time>
      </trkpt>
      <trkpt lat="47.28277" lon="-1.63047">
        <ele>51</ele>
        <time>2019-10-17T14:51:23.000Z</time>
      </trkpt>
      <trkpt lat="47.28281" lon="-1.63046">
        <ele>52</ele>
        <time>2019-10-17T14:51:24.000Z</time>
      </trkpt>
      <trkpt lat="47.28285" lon="-1.63045">
        <ele>52</ele>
        <time>2019-10-17T14:51:25.000Z</time>
      </trkpt>
      <trkpt lat="47.28289" lon="-1.63044">
        <ele>52</ele>
        <time>2019-10-17T14:51:26.000Z</time>
      </trkpt>
      <trkpt lat="47.28293" lon="-1.63043">
        <ele>53</ele>
        <time>2019-10-17T14:51:27.000Z</time>
      </trkpt>
      <trkpt lat="47.28298" lon="-1.63042">
        <ele>53</ele>
        <time>2019-10-17T14:51:28.000Z</time>
      </trkpt>
      <trkpt lat="47.28302" lon="-1.63041">
        <ele>54</ele>
        <time>2019-10-17T14:51:29.000Z</time>
      </trkpt>
      <trkpt lat="47.28307" lon="-1.63039">
        <ele>54</ele>
        <time>2019-10-17T14:51:30.000Z</time>
      </trkpt>
      <trkpt lat="47.28311" lon="-1.63038">
        <ele>55</ele>
        <time>2019-10-17T14:51:31.000Z</time>
      </trkpt>
      <trkpt lat="47.28315" lon="-1.63037">
        <ele>55</ele>
        <time>2019-10-17T14:51:32.000Z</time>
      </trkpt>
      <trkpt lat="47.28319" lon="-1.63035">
        <ele>55</ele>
        <time>2019-10-17T14:51:33.000Z</time>
      </trkpt>
      <trkpt lat="47.28323" lon="-1.63033">
        <ele>56</ele>
        <time>2019-10-17T14:51:34.000Z</time>
      </trkpt>
      <trkpt lat="47.28328" lon="-1.63032">
        <ele>56</ele>
        <time>2019-10-17T14:51:35.000Z</time>
      </trkpt>
      <trkpt lat="47.28332" lon="-1.63031">
        <ele>57</ele>
        <time>2019-10-17T14:51:36.000Z</time>
      </trkpt>
      <trkpt lat="47.28337" lon="-1.63029">
        <ele>57</ele>
        <time>2019-10-17T14:51:37.000Z</time>
      </trkpt>
      <trkpt lat="47.28341" lon="-1.63028">
        <ele>58</ele>
        <time>2019-10-17T14:51:38.000Z</time>
      </trkpt>
      <trkpt lat="47.28346" lon="-1.63027">
        <ele>58</ele>
        <time>2019-10-17T14:51:39.000Z</time>
      </trkpt>
      <trkpt lat="47.2835" lon="-1.63026">
        <ele>58</ele>
        <time>2019-10-17T14:51:40.000Z</time>
      </trkpt>
      <trkpt lat="47.28354" lon="-1.63024">
        <ele>59</ele>
        <time>2019-10-17T14:51:41.000Z</time>
      </trkpt>
      <trkpt lat="47.28359" lon="-1.63023">
        <ele>59</ele>
        <time>2019-10-17T14:51:42.000Z</time>
      </trkpt>
      <trkpt lat="47.28363" lon="-1.63021">
        <ele>60</ele>
        <time>2019-10-17T14:51:43.000Z</time>
      </trkpt>
      <trkpt lat="47.28367" lon="-1.63019">
        <ele>60</ele>
        <time>2019-10-17T14:51:44.000Z</time>
      </trkpt>
      <trkpt lat="47.28372" lon="-1.63017">
        <ele>61</ele>
        <time>2019-10-17T14:51:45.000Z</time>
      </trkpt>
      <trkpt lat="47.28376" lon="-1.63016">
        <ele>61</ele>
        <time>2019-10-17T14:51:46.000Z</time>
      </trkpt>
      <trkpt lat="47.2838" lon="-1.63016">
        <ele>61</ele>
        <time>2019-10-17T14:51:47.000Z</time>
      </trkpt>
      <trkpt lat="47.28385" lon="-1.63017">
        <ele>61</ele>
        <time>2019-10-17T14:51:48.000Z</time>
      </trkpt>
      <trkpt lat="47.28389" lon="-1.63019">
        <ele>61</ele>
        <time>2019-10-17T14:51:49.000Z</time>
      </trkpt>
      <trkpt lat="47.28393" lon="-1.63022">
        <ele>62</ele>
        <time>2019-10-17T14:51:50.000Z</time>
      </trkpt>
      <trkpt lat="47.28398" lon="-1.63023">
        <ele>62</ele>
        <time>2019-10-17T14:51:51.000Z</time>
      </trkpt>
      <trkpt lat="47.28403" lon="-1.63024">
        <ele>62</ele>
        <time>2019-10-17T14:51:52.000Z</time>
      </trkpt>
      <trkpt lat="47.28407" lon="-1.63025">
        <ele>62</ele>
        <time>2019-10-17T14:51:53.000Z</time>
      </trkpt>
      <trkpt lat="47.28411" lon="-1.63026">
        <ele>62</ele>
        <time>2019-10-17T14:51:54.000Z</time>
      </trkpt>
      <trkpt lat="47.28416" lon="-1.63028">
        <ele>62</ele>
        <time>2019-10-17T14:51:55.000Z</time>
      </trkpt>
      <trkpt lat="47.2842" lon="-1.6303">
        <ele>62</ele>
        <time>2019-10-17T14:51:56.000Z</time>
      </trkpt>
      <trkpt lat="47.28424" lon="-1.63032">
        <ele>62</ele>
        <time>2019-10-17T14:51:57.000Z</time>
      </trkpt>
      <trkpt lat="47.28428" lon="-1.63034">
        <ele>63</ele>
        <time>2019-10-17T14:51:58.000Z</time>
      </trkpt>
      <trkpt lat="47.28433" lon="-1.63037">
        <ele>63</ele>
        <time>2019-10-17T14:51:59.000Z</time>
      </trkpt>
      <trkpt lat="47.28437" lon="-1.6304">
        <ele>63</ele>
        <time>2019-10-17T14:52:00.000Z</time>
      </trkpt>
      <trkpt lat="47.28441" lon="-1.63043">
        <ele>63</ele>
        <time>2019-10-17T14:52:01.000Z</time>
      </trkpt>
      <trkpt lat="47.28446" lon="-1.63047">
        <ele>63</ele>
        <time>2019-10-17T14:52:02.000Z</time>
      </trkpt>
      <trkpt lat="47.2845" lon="-1.63051">
        <ele>63</ele>
        <time>2019-10-17T14:52:03.000Z</time>
      </trkpt>
      <trkpt lat="47.28454" lon="-1.63056">
        <ele>63</ele>
        <time>2019-10-17T14:52:04.000Z</time>
      </trkpt>
      <trkpt lat="47.28458" lon="-1.63061">
        <ele>63</ele>
        <time>2019-10-17T14:52:05.000Z</time>
      </trkpt>
      <trkpt lat="47.28461" lon="-1.63066">
        <ele>63</ele>
        <time>2019-10-17T14:52:06.000Z</time>
      </trkpt>
      <trkpt lat="47.28465" lon="-1.63071">
        <ele>63</ele>
        <time>2019-10-17T14:52:07.000Z</time>
      </trkpt>
      <trkpt lat="47.28469" lon="-1.63075">
        <ele>63</ele>
        <time>2019-10-17T14:52:08.000Z</time>
      </trkpt>
      <trkpt lat="47.28473" lon="-1.63079">
        <ele>63</ele>
        <time>2019-10-17T14:52:09.000Z</time>
      </trkpt>
      <trkpt lat="47.28476" lon="-1.63084">
        <ele>63</ele>
        <time>2019-10-17T14:52:10.000Z</time>
      </trkpt>
      <trkpt lat="47.28478" lon="-1.63089">
        <ele>62</ele>
        <time>2019-10-17T14:52:11.000Z</time>
      </trkpt>
      <trkpt lat="47.28478" lon="-1.63094">
        <ele>62</ele>
        <time>2019-10-17T14:52:12.000Z</time>
      </trkpt>
      <trkpt lat="47.28477" lon="-1.63099">
        <ele>62</ele>
        <time>2019-10-17T14:52:13.000Z</time>
      </trkpt>
      <trkpt lat="47.28475" lon="-1.63105">
        <ele>62</ele>
        <time>2019-10-17T14:52:14.000Z</time>
      </trkpt>
      <trkpt lat="47.28471" lon="-1.63109">
        <ele>62</ele>
        <time>2019-10-17T14:52:15.000Z</time>
      </trkpt>
      <trkpt lat="47.28467" lon="-1.63111">
        <ele>62</ele>
        <time>2019-10-17T14:52:16.000Z</time>
      </trkpt>
      <trkpt lat="47.28462" lon="-1.63113">
        <ele>61</ele>
        <time>2019-10-17T14:52:17.000Z</time>
      </trkpt>
      <trkpt lat="47.28457" lon="-1.63115">
        <ele>61</ele>
        <time>2019-10-17T14:52:18.000Z</time>
      </trkpt>
      <trkpt lat="47.28452" lon="-1.63116">
        <ele>61</ele>
        <time>2019-10-17T14:52:19.000Z</time>
      </trkpt>
      <trkpt lat="47.28448" lon="-1.63117">
        <ele>61</ele>
        <time>2019-10-17T14:52:20.000Z</time>
      </trkpt>
      <trkpt lat="47.28444" lon="-1.6312">
        <ele>61</ele>
        <time>2019-10-17T14:52:21.000Z</time>
      </trkpt>
      <trkpt lat="47.28442" lon="-1.63125">
        <ele>61</ele>
        <time>2019-10-17T14:52:22.000Z</time>
      </trkpt>
      <trkpt lat="47.28441" lon="-1.6313">
        <ele>60</ele>
        <time>2019-10-17T14:52:23.000Z</time>
      </trkpt>
      <trkpt lat="47.28441" lon="-1.63136">
        <ele>60</ele>
        <time>2019-10-17T14:52:24.000Z</time>
      </trkpt>
      <trkpt lat="47.28442" lon="-1.63142">
        <ele>60</ele>
        <time>2019-10-17T14:52:25.000Z</time>
      </trkpt>
      <trkpt lat="47.28444" lon="-1.63148">
        <ele>60</ele>
        <time>2019-10-17T14:52:26.000Z</time>
      </trkpt>
      <trkpt lat="47.28446" lon="-1.63154">
        <ele>60</ele>
        <time>2019-10-17T14:52:27.000Z</time>
      </trkpt>
      <trkpt lat="47.28448" lon="-1.63161">
        <ele>60</ele>
        <time>2019-10-17T14:52:28.000Z</time>
      </trkpt>
      <trkpt lat="47.28451" lon="-1.63168">
        <ele>60</ele>
        <time>2019-10-17T14:52:29.000Z</time>
      </trkpt>
      <trkpt lat="47.28453" lon="-1.63175">
        <ele>60</ele>
        <time>2019-10-17T14:52:30.000Z</time>
      </trkpt>
      <trkpt lat="47.28455" lon="-1.63182">
        <ele>59</ele>
        <time>2019-10-17T14:52:31.000Z</time>
      </trkpt>
      <trkpt lat="47.28457" lon="-1.63189">
        <ele>59</ele>
        <time>2019-10-17T14:52:32.000Z</time>
      </trkpt>
      <trkpt lat="47.28459" lon="-1.63196">
        <ele>59</ele>
        <time>2019-10-17T14:52:33.000Z</time>
      </trkpt>
      <trkpt lat="47.28461" lon="-1.63204">
        <ele>59</ele>
        <time>2019-10-17T14:52:34.000Z</time>
      </trkpt>
      <trkpt lat="47.28461" lon="-1.63212">
        <ele>59</ele>
        <time>2019-10-17T14:52:35.000Z</time>
      </trkpt>
      <trkpt lat="47.2846" lon="-1.6322">
        <ele>58</ele>
        <time>2019-10-17T14:52:36.000Z</time>
      </trkpt>
      <trkpt lat="47.28458" lon="-1.63227">
        <ele>58</ele>
        <time>2019-10-17T14:52:37.000Z</time>
      </trkpt>
      <trkpt lat="47.28455" lon="-1.63234">
        <ele>58</ele>
        <time>2019-10-17T14:52:38.000Z</time>
      </trkpt>
      <trkpt lat="47.28451" lon="-1.6324">
        <ele>57</ele>
        <time>2019-10-17T14:52:39.000Z</time>
      </trkpt>
      <trkpt lat="47.28446" lon="-1.63245">
        <ele>57</ele>
        <time>2019-10-17T14:52:40.000Z</time>
      </trkpt>
      <trkpt lat="47.28441" lon="-1.63249">
        <ele>57</ele>
        <time>2019-10-17T14:52:41.000Z</time>
      </trkpt>
      <trkpt lat="47.28436" lon="-1.63254">
        <ele>57</ele>
        <time>2019-10-17T14:52:42.000Z</time>
      </trkpt>
      <trkpt lat="47.28432" lon="-1.63259">
        <ele>57</ele>
        <time>2019-10-17T14:52:43.000Z</time>
      </trkpt>
      <trkpt lat="47.28427" lon="-1.63264">
        <ele>57</ele>
        <time>2019-10-17T14:52:44.000Z</time>
      </trkpt>
      <trkpt lat="47.28423" lon="-1.63268">
        <ele>56</ele>
        <time>2019-10-17T14:52:45.000Z</time>
      </trkpt>
      <trkpt lat="47.28419" lon="-1.63274">
        <ele>56</ele>
        <time>2019-10-17T14:52:46.000Z</time>
      </trkpt>
      <trkpt lat="47.28416" lon="-1.6328">
        <ele>56</ele>
        <time>2019-10-17T14:52:47.000Z</time>
      </trkpt>
      <trkpt lat="47.28415" lon="-1.63286">
        <ele>56</ele>
        <time>2019-10-17T14:52:48.000Z</time>
      </trkpt>
      <trkpt lat="47.28415" lon="-1.63293">
        <ele>56</ele>
        <time>2019-10-17T14:52:49.000Z</time>
      </trkpt>
      <trkpt lat="47.28416" lon="-1.63298">
        <ele>56</ele>
        <time>2019-10-17T14:52:50.000Z</time>
      </trkpt>
      <trkpt lat="47.28416" lon="-1.63305">
        <ele>56</ele>
        <time>2019-10-17T14:52:51.000Z</time>
      </trkpt>
      <trkpt lat="47.28417" lon="-1.63312">
        <ele>56</ele>
        <time>2019-10-17T14:52:52.000Z</time>
      </trkpt>
      <trkpt lat="47.28417" lon="-1.63319">
        <ele>56</ele>
        <time>2019-10-17T14:52:53.000Z</time>
      </trkpt>
      <trkpt lat="47.28417" lon="-1.63327">
        <ele>55</ele>
        <time>2019-10-17T14:52:54.000Z</time>
      </trkpt>
      <trkpt lat="47.28417" lon="-1.63334">
        <ele>55</ele>
        <time>2019-10-17T14:52:55.000Z</time>
      </trkpt>
      <trkpt lat="47.28418" lon="-1.63342">
        <ele>55</ele>
        <time>2019-10-17T14:52:56.000Z</time>
      </trkpt>
      <trkpt lat="47.28419" lon="-1.63349">
        <ele>55</ele>
        <time>2019-10-17T14:52:57.000Z</time>
      </trkpt>
      <trkpt lat="47.2842" lon="-1.63356">
        <ele>54</ele>
        <time>2019-10-17T14:52:58.000Z</time>
      </trkpt>
      <trkpt lat="47.28421" lon="-1.63363">
        <ele>54</ele>
        <time>2019-10-17T14:52:59.000Z</time>
      </trkpt>
      <trkpt lat="47.28422" lon="-1.63371">
        <ele>54</ele>
        <time>2019-10-17T14:53:00.000Z</time>
      </trkpt>
      <trkpt lat="47.28423" lon="-1.63378">
        <ele>54</ele>
        <time>2019-10-17T14:53:01.000Z</time>
      </trkpt>
      <trkpt lat="47.28423" lon="-1.63386">
        <ele>54</ele>
        <time>2019-10-17T14:53:02.000Z</time>
      </trkpt>
      <trkpt lat="47.28422" lon="-1.63394">
        <ele>53</ele>
        <time>2019-10-17T14:53:03.000Z</time>
      </trkpt>
      <trkpt lat="47.28422" lon="-1.63401">
        <ele>53</ele>
        <time>2019-10-17T14:53:04.000Z</time>
      </trkpt>
      <trkpt lat="47.28421" lon="-1.63409">
        <ele>53</ele>
        <time>2019-10-17T14:53:05.000Z</time>
      </trkpt>
      <trkpt lat="47.28421" lon="-1.63416">
        <ele>53</ele>
        <time>2019-10-17T14:53:06.000Z</time>
      </trkpt>
      <trkpt lat="47.2842" lon="-1.63424">
        <ele>53</ele>
        <time>2019-10-17T14:53:07.000Z</time>
      </trkpt>
      <trkpt lat="47.28419" lon="-1.63431">
        <ele>53</ele>
        <time>2019-10-17T14:53:08.000Z</time>
      </trkpt>
      <trkpt lat="47.28418" lon="-1.63439">
        <ele>52</ele>
        <time>2019-10-17T14:53:09.000Z</time>
      </trkpt>
      <trkpt lat="47.28417" lon="-1.63446">
        <ele>52</ele>
        <time>2019-10-17T14:53:10.000Z</time>
      </trkpt>
      <trkpt lat="47.28416" lon="-1.63454">
        <ele>52</ele>
        <time>2019-10-17T14:53:11.000Z</time>
      </trkpt>
      <trkpt lat="47.28415" lon="-1.63461">
        <ele>52</ele>
        <time>2019-10-17T14:53:12.000Z</time>
      </trkpt>
      <trkpt lat="47.28415" lon="-1.63469">
        <ele>52</ele>
        <time>2019-10-17T14:53:13.000Z</time>
      </trkpt>
      <trkpt lat="47.28414" lon="-1.63476">
        <ele>52</ele>
        <time>2019-10-17T14:53:14.000Z</time>
      </trkpt>
      <trkpt lat="47.28413" lon="-1.63483">
        <ele>52</ele>
        <time>2019-10-17T14:53:15.000Z</time>
      </trkpt>
      <trkpt lat="47.28413" lon="-1.6349">
        <ele>52</ele>
        <time>2019-10-17T14:53:16.000Z</time>
      </trkpt>
      <trkpt lat="47.28412" lon="-1.63497">
        <ele>52</ele>
        <time>2019-10-17T14:53:17.000Z</time>
      </trkpt>
      <trkpt lat="47.28411" lon="-1.63504">
        <ele>52</ele>
        <time>2019-10-17T14:53:18.000Z</time>
      </trkpt>
      <trkpt lat="47.28411" lon="-1.63511">
        <ele>52</ele>
        <time>2019-10-17T14:53:19.000Z</time>
      </trkpt>
      <trkpt lat="47.2841" lon="-1.63518">
        <ele>52</ele>
        <time>2019-10-17T14:53:20.000Z</time>
      </trkpt>
      <trkpt lat="47.28409" lon="-1.63525">
        <ele>52</ele>
        <time>2019-10-17T14:53:21.000Z</time>
      </trkpt>
      <trkpt lat="47.28409" lon="-1.63532">
        <ele>52</ele>
        <time>2019-10-17T14:53:22.000Z</time>
      </trkpt>
      <trkpt lat="47.28408" lon="-1.63539">
        <ele>52</ele>
        <time>2019-10-17T14:53:23.000Z</time>
      </trkpt>
      <trkpt lat="47.28408" lon="-1.63546">
        <ele>52</ele>
        <time>2019-10-17T14:53:24.000Z</time>
      </trkpt>
      <trkpt lat="47.28407" lon="-1.63554">
        <ele>52</ele>
        <time>2019-10-17T14:53:25.000Z</time>
      </trkpt>
      <trkpt lat="47.28406" lon="-1.63561">
        <ele>52</ele>
        <time>2019-10-17T14:53:26.000Z</time>
      </trkpt>
      <trkpt lat="47.28406" lon="-1.63568">
        <ele>52</ele>
        <time>2019-10-17T14:53:27.000Z</time>
      </trkpt>
      <trkpt lat="47.28406" lon="-1.63575">
        <ele>52</ele>
        <time>2019-10-17T14:53:28.000Z</time>
      </trkpt>
      <trkpt lat="47.28405" lon="-1.63582">
        <ele>52</ele>
        <time>2019-10-17T14:53:29.000Z</time>
      </trkpt>
      <trkpt lat="47.28405" lon="-1.63589">
        <ele>52</ele>
        <time>2019-10-17T14:53:30.000Z</time>
      </trkpt>
      <trkpt lat="47.28404" lon="-1.63596">
        <ele>52</ele>
        <time>2019-10-17T14:53:31.000Z</time>
      </trkpt>
      <trkpt lat="47.28403" lon="-1.63603">
        <ele>52</ele>
        <time>2019-10-17T14:53:32.000Z</time>
      </trkpt>
      <trkpt lat="47.28403" lon="-1.6361">
        <ele>52</ele>
        <time>2019-10-17T14:53:33.000Z</time>
      </trkpt>
      <trkpt lat="47.28402" lon="-1.63617">
        <ele>52</ele>
        <time>2019-10-17T14:53:34.000Z</time>
      </trkpt>
      <trkpt lat="47.28401" lon="-1.63624">
        <ele>52</ele>
        <time>2019-10-17T14:53:35.000Z</time>
      </trkpt>
      <trkpt lat="47.284" lon="-1.6363">
        <ele>52</ele>
        <time>2019-10-17T14:53:36.000Z</time>
      </trkpt>
      <trkpt lat="47.28398" lon="-1.63637">
        <ele>52</ele>
        <time>2019-10-17T14:53:37.000Z</time>
      </trkpt>
      <trkpt lat="47.28397" lon="-1.63644">
        <ele>52</ele>
        <time>2019-10-17T14:53:38.000Z</time>
      </trkpt>
      <trkpt lat="47.28395" lon="-1.6365">
        <ele>52</ele>
        <time>2019-10-17T14:53:39.000Z</time>
      </trkpt>
      <trkpt lat="47.28394" lon="-1.63657">
        <ele>52</ele>
        <time>2019-10-17T14:53:40.000Z</time>
      </trkpt>
      <trkpt lat="47.28392" lon="-1.63663">
        <ele>52</ele>
        <time>2019-10-17T14:53:41.000Z</time>
      </trkpt>
      <trkpt lat="47.2839" lon="-1.6367">
        <ele>52</ele>
        <time>2019-10-17T14:53:42.000Z</time>
      </trkpt>
      <trkpt lat="47.28388" lon="-1.63675">
        <ele>52</ele>
        <time>2019-10-17T14:53:43.000Z</time>
      </trkpt>
      <trkpt lat="47.28385" lon="-1.6368">
        <ele>52</ele>
        <time>2019-10-17T14:53:44.000Z</time>
      </trkpt>
      <trkpt lat="47.28383" lon="-1.63684">
        <ele>53</ele>
        <time>2019-10-17T14:53:45.000Z</time>
      </trkpt>
      <trkpt lat="47.28381" lon="-1.63689">
        <ele>53</ele>
        <time>2019-10-17T14:53:46.000Z</time>
      </trkpt>
      <trkpt lat="47.28379" lon="-1.63695">
        <ele>53</ele>
        <time>2019-10-17T14:53:47.000Z</time>
      </trkpt>
      <trkpt lat="47.28378" lon="-1.63701">
        <ele>53</ele>
        <time>2019-10-17T14:53:48.000Z</time>
      </trkpt>
      <trkpt lat="47.28379" lon="-1.63707">
        <ele>53</ele>
        <time>2019-10-17T14:53:49.000Z</time>
      </trkpt>
      <trkpt lat="47.28381" lon="-1.63712">
        <ele>53</ele>
        <time>2019-10-17T14:53:50.000Z</time>
      </trkpt>
      <trkpt lat="47.28385" lon="-1.63716">
        <ele>53</ele>
        <time>2019-10-17T14:53:51.000Z</time>
      </trkpt>
      <trkpt lat="47.28389" lon="-1.63719">
        <ele>53</ele>
        <time>2019-10-17T14:53:52.000Z</time>
      </trkpt>
      <trkpt lat="47.28393" lon="-1.63723">
        <ele>53</ele>
        <time>2019-10-17T14:53:53.000Z</time>
      </trkpt>
      <trkpt lat="47.28398" lon="-1.63727">
        <ele>54</ele>
        <time>2019-10-17T14:53:54.000Z</time>
      </trkpt>
      <trkpt lat="47.28402" lon="-1.6373">
        <ele>54</ele>
        <time>2019-10-17T14:53:55.000Z</time>
      </trkpt>
      <trkpt lat="47.28407" lon="-1.63734">
        <ele>54</ele>
        <time>2019-10-17T14:53:56.000Z</time>
      </trkpt>
      <trkpt lat="47.28411" lon="-1.63737">
        <ele>54</ele>
        <time>2019-10-17T14:53:57.000Z</time>
      </trkpt>
      <trkpt lat="47.28415" lon="-1.63741">
        <ele>54</ele>
        <time>2019-10-17T14:53:58.000Z</time>
      </trkpt>
      <trkpt lat="47.2842" lon="-1.63745">
        <ele>54</ele>
        <time>2019-10-17T14:53:59.000Z</time>
      </trkpt>
      <trkpt lat="47.28424" lon="-1.63749">
        <ele>55</ele>
        <time>2019-10-17T14:54:00.000Z</time>
      </trkpt>
      <trkpt lat="47.28428" lon="-1.63752">
        <ele>55</ele>
        <time>2019-10-17T14:54:01.000Z</time>
      </trkpt>
      <trkpt lat="47.28433" lon="-1.63756">
        <ele>55</ele>
        <time>2019-10-17T14:54:02.000Z</time>
      </trkpt>
      <trkpt lat="47.28437" lon="-1.6376">
        <ele>55</ele>
        <time>2019-10-17T14:54:03.000Z</time>
      </trkpt>
      <trkpt lat="47.28441" lon="-1.63764">
        <ele>55</ele>
        <time>2019-10-17T14:54:04.000Z</time>
      </trkpt>
      <trkpt lat="47.28445" lon="-1.63768">
        <ele>56</ele>
        <time>2019-10-17T14:54:05.000Z</time>
      </trkpt>
      <trkpt lat="47.2845" lon="-1.63773">
        <ele>56</ele>
        <time>2019-10-17T14:54:06.000Z</time>
      </trkpt>
      <trkpt lat="47.28454" lon="-1.63778">
        <ele>56</ele>
        <time>2019-10-17T14:54:07.000Z</time>
      </trkpt>
      <trkpt lat="47.28457" lon="-1.63783">
        <ele>56</ele>
        <time>2019-10-17T14:54:08.000Z</time>
      </trkpt>
      <trkpt lat="47.28461" lon="-1.63789">
        <ele>56</ele>
        <time>2019-10-17T14:54:09.000Z</time>
      </trkpt>
      <trkpt lat="47.28464" lon="-1.63795">
        <ele>57</ele>
        <time>2019-10-17T14:54:10.000Z</time>
      </trkpt>
      <trkpt lat="47.28467" lon="-1.63801">
        <ele>57</ele>
        <time>2019-10-17T14:54:11.000Z</time>
      </trkpt>
      <trkpt lat="47.2847" lon="-1.63807">
        <ele>57</ele>
        <time>2019-10-17T14:54:12.000Z</time>
      </trkpt>
      <trkpt lat="47.28471" lon="-1.63812">
        <ele>57</ele>
        <time>2019-10-17T14:54:13.000Z</time>
      </trkpt>
      <trkpt lat="47.28472" lon="-1.63819">
        <ele>57</ele>
        <time>2019-10-17T14:54:14.000Z</time>
      </trkpt>
      <trkpt lat="47.28471" lon="-1.63824">
        <ele>58</ele>
        <time>2019-10-17T14:54:15.000Z</time>
      </trkpt>
      <trkpt lat="47.28469" lon="-1.63831">
        <ele>58</ele>
        <time>2019-10-17T14:54:16.000Z</time>
      </trkpt>
      <trkpt lat="47.28468" lon="-1.63837">
        <ele>58</ele>
        <time>2019-10-17T14:54:17.000Z</time>
      </trkpt>
      <trkpt lat="47.28466" lon="-1.63844">
        <ele>58</ele>
        <time>2019-10-17T14:54:18.000Z</time>
      </trkpt>
      <trkpt lat="47.28464" lon="-1.63851">
        <ele>58</ele>
        <time>2019-10-17T14:54:19.000Z</time>
      </trkpt>
      <trkpt lat="47.28462" lon="-1.63857">
        <ele>58</ele>
        <time>2019-10-17T14:54:20.000Z</time>
      </trkpt>
      <trkpt lat="47.2846" lon="-1.63865">
        <ele>58</ele>
        <time>2019-10-17T14:54:21.000Z</time>
      </trkpt>
      <trkpt lat="47.28458" lon="-1.63872">
        <ele>58</ele>
        <time>2019-10-17T14:54:22.000Z</time>
      </trkpt>
      <trkpt lat="47.28457" lon="-1.6388">
        <ele>58</ele>
        <time>2019-10-17T14:54:23.000Z</time>
      </trkpt>
      <trkpt lat="47.28455" lon="-1.63887">
        <ele>58</ele>
        <time>2019-10-17T14:54:24.000Z</time>
      </trkpt>
      <trkpt lat="47.28454" lon="-1.63894">
        <ele>58</ele>
        <time>2019-10-17T14:54:25.000Z</time>
      </trkpt>
      <trkpt lat="47.28452" lon="-1.63902">
        <ele>58</ele>
        <time>2019-10-17T14:54:26.000Z</time>
      </trkpt>
      <trkpt lat="47.2845" lon="-1.63909">
        <ele>58</ele>
        <time>2019-10-17T14:54:27.000Z</time>
      </trkpt>
      <trkpt lat="47.28449" lon="-1.63917">
        <ele>58</ele>
        <time>2019-10-17T14:54:28.000Z</time>
      </trkpt>
      <trkpt lat="47.28448" lon="-1.63924">
        <ele>58</ele>
        <time>2019-10-17T14:54:29.000Z</time>
      </trkpt>
      <trkpt lat="47.28447" lon="-1.63932">
        <ele>58</ele>
        <time>2019-10-17T14:54:30.000Z</time>
      </trkpt>
      <trkpt lat="47.28446" lon="-1.63939">
        <ele>59</ele>
        <time>2019-10-17T14:54:31.000Z</time>
      </trkpt>
      <trkpt lat="47.28445" lon="-1.63946">
        <ele>59</ele>
        <time>2019-10-17T14:54:32.000Z</time>
      </trkpt>
      <trkpt lat="47.28443" lon="-1.63953">
        <ele>59</ele>
        <time>2019-10-17T14:54:33.000Z</time>
      </trkpt>
      <trkpt lat="47.28442" lon="-1.6396">
        <ele>59</ele>
        <time>2019-10-17T14:54:34.000Z</time>
      </trkpt>
      <trkpt lat="47.2844" lon="-1.63968">
        <ele>60</ele>
        <time>2019-10-17T14:54:35.000Z</time>
      </trkpt>
      <trkpt lat="47.28439" lon="-1.63975">
        <ele>60</ele>
        <time>2019-10-17T14:54:36.000Z</time>
      </trkpt>
      <trkpt lat="47.28437" lon="-1.63983">
        <ele>60</ele>
        <time>2019-10-17T14:54:37.000Z</time>
      </trkpt>
      <trkpt lat="47.28436" lon="-1.63991">
        <ele>60</ele>
        <time>2019-10-17T14:54:38.000Z</time>
      </trkpt>
      <trkpt lat="47.28435" lon="-1.63998">
        <ele>61</ele>
        <time>2019-10-17T14:54:39.000Z</time>
      </trkpt>
      <trkpt lat="47.28433" lon="-1.64005">
        <ele>61</ele>
        <time>2019-10-17T14:54:40.000Z</time>
      </trkpt>
      <trkpt lat="47.28432" lon="-1.64012">
        <ele>61</ele>
        <time>2019-10-17T14:54:41.000Z</time>
      </trkpt>
      <trkpt lat="47.2843" lon="-1.64019">
        <ele>61</ele>
        <time>2019-10-17T14:54:42.000Z</time>
      </trkpt>
      <trkpt lat="47.28428" lon="-1.64026">
        <ele>62</ele>
        <time>2019-10-17T14:54:43.000Z</time>
      </trkpt>
      <trkpt lat="47.28426" lon="-1.64033">
        <ele>62</ele>
        <time>2019-10-17T14:54:44.000Z</time>
      </trkpt>
      <trkpt lat="47.28424" lon="-1.6404">
        <ele>62</ele>
        <time>2019-10-17T14:54:45.000Z</time>
      </trkpt>
      <trkpt lat="47.28422" lon="-1.64048">
        <ele>62</ele>
        <time>2019-10-17T14:54:46.000Z</time>
      </trkpt>
      <trkpt lat="47.2842" lon="-1.64055">
        <ele>62</ele>
        <time>2019-10-17T14:54:47.000Z</time>
      </trkpt>
      <trkpt lat="47.28418" lon="-1.64063">
        <ele>63</ele>
        <time>2019-10-17T14:54:48.000Z</time>
      </trkpt>
      <trkpt lat="47.28416" lon="-1.64071">
        <ele>63</ele>
        <time>2019-10-17T14:54:49.000Z</time>
      </trkpt>
      <trkpt lat="47.28413" lon="-1.64078">
        <ele>63</ele>
        <time>2019-10-17T14:54:50.000Z</time>
      </trkpt>
      <trkpt lat="47.28411" lon="-1.64085">
        <ele>63</ele>
        <time>2019-10-17T14:54:51.000Z</time>
      </trkpt>
      <trkpt lat="47.28409" lon="-1.64092">
        <ele>63</ele>
        <time>2019-10-17T14:54:52.000Z</time>
      </trkpt>
      <trkpt lat="47.28406" lon="-1.64099">
        <ele>63</ele>
        <time>2019-10-17T14:54:53.000Z</time>
      </trkpt>
      <trkpt lat="47.28405" lon="-1.64107">
        <ele>63</ele>
        <time>2019-10-17T14:54:54.000Z</time>
      </trkpt>
      <trkpt lat="47.28403" lon="-1.64114">
        <ele>63</ele>
        <time>2019-10-17T14:54:55.000Z</time>
      </trkpt>
      <trkpt lat="47.284" lon="-1.64121">
        <ele>63</ele>
        <time>2019-10-17T14:54:56.000Z</time>
      </trkpt>
      <trkpt lat="47.28397" lon="-1.64128">
        <ele>63</ele>
        <time>2019-10-17T14:54:57.000Z</time>
      </trkpt>
      <trkpt lat="47.28395" lon="-1.64135">
        <ele>63</ele>
        <time>2019-10-17T14:54:58.000Z</time>
      </trkpt>
      <trkpt lat="47.28393" lon="-1.64143">
        <ele>63</ele>
        <time>2019-10-17T14:54:59.000Z</time>
      </trkpt>
      <trkpt lat="47.28392" lon="-1.64151">
        <ele>63</ele>
        <time>2019-10-17T14:55:00.000Z</time>
      </trkpt>
      <trkpt lat="47.2839" lon="-1.64158">
        <ele>63</ele>
        <time>2019-10-17T14:55:01.000Z</time>
      </trkpt>
      <trkpt lat="47.28387" lon="-1.64166">
        <ele>63</ele>
        <time>2019-10-17T14:55:02.000Z</time>
      </trkpt>
      <trkpt lat="47.28385" lon="-1.64173">
        <ele>63</ele>
        <time>2019-10-17T14:55:03.000Z</time>
      </trkpt>
      <trkpt lat="47.28383" lon="-1.64181">
        <ele>63</ele>
        <time>2019-10-17T14:55:04.000Z</time>
      </trkpt>
      <trkpt lat="47.28381" lon="-1.64188">
        <ele>63</ele>
        <time>2019-10-17T14:55:05.000Z</time>
      </trkpt>
      <trkpt lat="47.28379" lon="-1.64195">
        <ele>63</ele>
        <time>2019-10-17T14:55:06.000Z</time>
      </trkpt>
      <trkpt lat="47.28377" lon="-1.64202">
        <ele>63</ele>
        <time>2019-10-17T14:55:07.000Z</time>
      </trkpt>
      <trkpt lat="47.28376" lon="-1.6421">
        <ele>64</ele>
        <time>2019-10-17T14:55:08.000Z</time>
      </trkpt>
      <trkpt lat="47.28375" lon="-1.64218">
        <ele>64</ele>
        <time>2019-10-17T14:55:09.000Z</time>
      </trkpt>
      <trkpt lat="47.28374" lon="-1.64226">
        <ele>63</ele>
        <time>2019-10-17T14:55:10.000Z</time>
      </trkpt>
      <trkpt lat="47.28372" lon="-1.64233">
        <ele>63</ele>
        <time>2019-10-17T14:55:11.000Z</time>
      </trkpt>
      <trkpt lat="47.2837" lon="-1.64241">
        <ele>63</ele>
        <time>2019-10-17T14:55:12.000Z</time>
      </trkpt>
      <trkpt lat="47.28368" lon="-1.64249">
        <ele>63</ele>
        <time>2019-10-17T14:55:13.000Z</time>
      </trkpt>
      <trkpt lat="47.28366" lon="-1.64256">
        <ele>63</ele>
        <time>2019-10-17T14:55:14.000Z</time>
      </trkpt>
      <trkpt lat="47.28364" lon="-1.64264">
        <ele>63</ele>
        <time>2019-10-17T14:55:15.000Z</time>
      </trkpt>
      <trkpt lat="47.28362" lon="-1.64272">
        <ele>63</ele>
        <time>2019-10-17T14:55:16.000Z</time>
      </trkpt>
      <trkpt lat="47.2836" lon="-1.6428">
        <ele>63</ele>
        <time>2019-10-17T14:55:17.000Z</time>
      </trkpt>
      <trkpt lat="47.28358" lon="-1.64288">
        <ele>63</ele>
        <time>2019-10-17T14:55:18.000Z</time>
      </trkpt>
      <trkpt lat="47.28356" lon="-1.64296">
        <ele>63</ele>
        <time>2019-10-17T14:55:19.000Z</time>
      </trkpt>
      <trkpt lat="47.28355" lon="-1.64304">
        <ele>63</ele>
        <time>2019-10-17T14:55:20.000Z</time>
      </trkpt>
      <trkpt lat="47.28354" lon="-1.64312">
        <ele>63</ele>
        <time>2019-10-17T14:55:21.000Z</time>
      </trkpt>
      <trkpt lat="47.28353" lon="-1.64318">
        <ele>63</ele>
        <time>2019-10-17T14:55:22.000Z</time>
      </trkpt>
      <trkpt lat="47.28352" lon="-1.64324">
        <ele>63</ele>
        <time>2019-10-17T14:55:23.000Z</time>
      </trkpt>
      <trkpt lat="47.28349" lon="-1.6433">
        <ele>63</ele>
        <time>2019-10-17T14:55:24.000Z</time>
      </trkpt>
      <trkpt lat="47.28347" lon="-1.64337">
        <ele>63</ele>
        <time>2019-10-17T14:55:25.000Z</time>
      </trkpt>
      <trkpt lat="47.28345" lon="-1.64343">
        <ele>63</ele>
        <time>2019-10-17T14:55:26.000Z</time>
      </trkpt>
      <trkpt lat="47.28342" lon="-1.64349">
        <ele>64</ele>
        <time>2019-10-17T14:55:27.000Z</time>
      </trkpt>
      <trkpt lat="47.2834" lon="-1.64355">
        <ele>64</ele>
        <time>2019-10-17T14:55:28.000Z</time>
      </trkpt>
      <trkpt lat="47.28339" lon="-1.64363">
        <ele>64</ele>
        <time>2019-10-17T14:55:29.000Z</time>
      </trkpt>
      <trkpt lat="47.28336" lon="-1.6437">
        <ele>64</ele>
        <time>2019-10-17T14:55:30.000Z</time>
      </trkpt>
      <trkpt lat="47.28334" lon="-1.64377">
        <ele>64</ele>
        <time>2019-10-17T14:55:31.000Z</time>
      </trkpt>
      <trkpt lat="47.28332" lon="-1.64384">
        <ele>64</ele>
        <time>2019-10-17T14:55:32.000Z</time>
      </trkpt>
      <trkpt lat="47.2833" lon="-1.6439">
        <ele>64</ele>
        <time>2019-10-17T14:55:33.000Z</time>
      </trkpt>
      <trkpt lat="47.28329" lon="-1.64397">
        <ele>64</ele>
        <time>2019-10-17T14:55:34.000Z</time>
      </trkpt>
      <trkpt lat="47.28328" lon="-1.64403">
        <ele>64</ele>
        <time>2019-10-17T14:55:35.000Z</time>
      </trkpt>
      <trkpt lat="47.28326" lon="-1.64409">
        <ele>64</ele>
        <time>2019-10-17T14:55:36.000Z</time>
      </trkpt>
      <trkpt lat="47.28324" lon="-1.64415">
        <ele>64</ele>
        <time>2019-10-17T14:55:37.000Z</time>
      </trkpt>
      <trkpt lat="47.2832" lon="-1.64419">
        <ele>64</ele>
        <time>2019-10-17T14:55:38.000Z</time>
      </trkpt>
      <trkpt lat="47.28315" lon="-1.6442">
        <ele>64</ele>
        <time>2019-10-17T14:55:39.000Z</time>
      </trkpt>
      <trkpt lat="47.28311" lon="-1.64419">
        <ele>64</ele>
        <time>2019-10-17T14:55:40.000Z</time>
      </trkpt>
      <trkpt lat="47.28307" lon="-1.64417">
        <ele>64</ele>
        <time>2019-10-17T14:55:41.000Z</time>
      </trkpt>
      <trkpt lat="47.28302" lon="-1.64412">
        <ele>64</ele>
        <time>2019-10-17T14:55:42.000Z</time>
      </trkpt>
      <trkpt lat="47.28298" lon="-1.64408">
        <ele>64</ele>
        <time>2019-10-17T14:55:43.000Z</time>
      </trkpt>
      <trkpt lat="47.28294" lon="-1.64403">
        <ele>63</ele>
        <time>2019-10-17T14:55:44.000Z</time>
      </trkpt>
      <trkpt lat="47.28291" lon="-1.64399">
        <ele>63</ele>
        <time>2019-10-17T14:55:45.000Z</time>
      </trkpt>
      <trkpt lat="47.28286" lon="-1.64394">
        <ele>64</ele>
        <time>2019-10-17T14:55:46.000Z</time>
      </trkpt>
      <trkpt lat="47.28282" lon="-1.64389">
        <ele>64</ele>
        <time>2019-10-17T14:55:47.000Z</time>
      </trkpt>
      <trkpt lat="47.28278" lon="-1.64384">
        <ele>64</ele>
        <time>2019-10-17T14:55:48.000Z</time>
      </trkpt>
      <trkpt lat="47.28274" lon="-1.64379">
        <ele>64</ele>
        <time>2019-10-17T14:55:49.000Z</time>
      </trkpt>
      <trkpt lat="47.28269" lon="-1.64374">
        <ele>64</ele>
        <time>2019-10-17T14:55:50.000Z</time>
      </trkpt>
      <trkpt lat="47.28265" lon="-1.6437">
        <ele>64</ele>
        <time>2019-10-17T14:55:51.000Z</time>
      </trkpt>
      <trkpt lat="47.28261" lon="-1.64365">
        <ele>64</ele>
        <time>2019-10-17T14:55:52.000Z</time>
      </trkpt>
      <trkpt lat="47.28257" lon="-1.6436">
        <ele>64</ele>
        <time>2019-10-17T14:55:53.000Z</time>
      </trkpt>
      <trkpt lat="47.28253" lon="-1.64354">
        <ele>64</ele>
        <time>2019-10-17T14:55:54.000Z</time>
      </trkpt>
      <trkpt lat="47.28249" lon="-1.64349">
        <ele>64</ele>
        <time>2019-10-17T14:55:55.000Z</time>
      </trkpt>
      <trkpt lat="47.28245" lon="-1.64344">
        <ele>64</ele>
        <time>2019-10-17T14:55:56.000Z</time>
      </trkpt>
      <trkpt lat="47.28241" lon="-1.64339">
        <ele>65</ele>
        <time>2019-10-17T14:55:57.000Z</time>
      </trkpt>
      <trkpt lat="47.28237" lon="-1.64334">
        <ele>65</ele>
        <time>2019-10-17T14:55:58.000Z</time>
      </trkpt>
      <trkpt lat="47.28233" lon="-1.6433">
        <ele>65</ele>
        <time>2019-10-17T14:55:59.000Z</time>
      </trkpt>
      <trkpt lat="47.28229" lon="-1.64326">
        <ele>65</ele>
        <time>2019-10-17T14:56:00.000Z</time>
      </trkpt>
      <trkpt lat="47.28225" lon="-1.64322">
        <ele>65</ele>
        <time>2019-10-17T14:56:01.000Z</time>
      </trkpt>
      <trkpt lat="47.28221" lon="-1.64318">
        <ele>65</ele>
        <time>2019-10-17T14:56:02.000Z</time>
      </trkpt>
      <trkpt lat="47.28217" lon="-1.64313">
        <ele>65</ele>
        <time>2019-10-17T14:56:03.000Z</time>
      </trkpt>
      <trkpt lat="47.28213" lon="-1.64308">
        <ele>65</ele>
        <time>2019-10-17T14:56:04.000Z</time>
      </trkpt>
      <trkpt lat="47.28209" lon="-1.64303">
        <ele>65</ele>
        <time>2019-10-17T14:56:05.000Z</time>
      </trkpt>
      <trkpt lat="47.28205" lon="-1.64299">
        <ele>65</ele>
        <time>2019-10-17T14:56:06.000Z</time>
      </trkpt>
      <trkpt lat="47.28201" lon="-1.64294">
        <ele>66</ele>
        <time>2019-10-17T14:56:07.000Z</time>
      </trkpt>
      <trkpt lat="47.28197" lon="-1.64289">
        <ele>66</ele>
        <time>2019-10-17T14:56:08.000Z</time>
      </trkpt>
      <trkpt lat="47.28193" lon="-1.64285">
        <ele>66</ele>
        <time>2019-10-17T14:56:09.000Z</time>
      </trkpt>
      <trkpt lat="47.2819" lon="-1.64281">
        <ele>66</ele>
        <time>2019-10-17T14:56:10.000Z</time>
      </trkpt>
      <trkpt lat="47.28185" lon="-1.64277">
        <ele>66</ele>
        <time>2019-10-17T14:56:11.000Z</time>
      </trkpt>
      <trkpt lat="47.28181" lon="-1.64272">
        <ele>66</ele>
        <time>2019-10-17T14:56:12.000Z</time>
      </trkpt>
      <trkpt lat="47.28177" lon="-1.64268">
        <ele>66</ele>
        <time>2019-10-17T14:56:13.000Z</time>
      </trkpt>
      <trkpt lat="47.28173" lon="-1.64264">
        <ele>66</ele>
        <time>2019-10-17T14:56:14.000Z</time>
      </trkpt>
      <trkpt lat="47.28169" lon="-1.64261">
        <ele>67</ele>
        <time>2019-10-17T14:56:15.000Z</time>
      </trkpt>
      <trkpt lat="47.28166" lon="-1.64257">
        <ele>67</ele>
        <time>2019-10-17T14:56:16.000Z</time>
      </trkpt>
      <trkpt lat="47.28162" lon="-1.64253">
        <ele>67</ele>
        <time>2019-10-17T14:56:17.000Z</time>
      </trkpt>
      <trkpt lat="47.28159" lon="-1.6425">
        <ele>67</ele>
        <time>2019-10-17T14:56:18.000Z</time>
      </trkpt>
      <trkpt lat="47.28155" lon="-1.64247">
        <ele>67</ele>
        <time>2019-10-17T14:56:19.000Z</time>
      </trkpt>
      <trkpt lat="47.28151" lon="-1.64243">
        <ele>67</ele>
        <time>2019-10-17T14:56:20.000Z</time>
      </trkpt>
      <trkpt lat="47.28147" lon="-1.64237">
        <ele>67</ele>
        <time>2019-10-17T14:56:21.000Z</time>
      </trkpt>
      <trkpt lat="47.28143" lon="-1.64233">
        <ele>68</ele>
        <time>2019-10-17T14:56:22.000Z</time>
      </trkpt>
      <trkpt lat="47.28139" lon="-1.64229">
        <ele>68</ele>
        <time>2019-10-17T14:56:23.000Z</time>
      </trkpt>
      <trkpt lat="47.28136" lon="-1.64225">
        <ele>68</ele>
        <time>2019-10-17T14:56:24.000Z</time>
      </trkpt>
      <trkpt lat="47.28133" lon="-1.64222">
        <ele>68</ele>
        <time>2019-10-17T14:56:25.000Z</time>
      </trkpt>
      <trkpt lat="47.28129" lon="-1.64218">
        <ele>68</ele>
        <time>2019-10-17T14:56:26.000Z</time>
      </trkpt>
      <trkpt lat="47.28125" lon="-1.64214">
        <ele>68</ele>
        <time>2019-10-17T14:56:27.000Z</time>
      </trkpt>
      <trkpt lat="47.28121" lon="-1.64211">
        <ele>68</ele>
        <time>2019-10-17T14:56:28.000Z</time>
      </trkpt>
      <trkpt lat="47.28116" lon="-1.64209">
        <ele>68</ele>
        <time>2019-10-17T14:56:29.000Z</time>
      </trkpt>
      <trkpt lat="47.28111" lon="-1.64208">
        <ele>68</ele>
        <time>2019-10-17T14:56:30.000Z</time>
      </trkpt>
      <trkpt lat="47.28107" lon="-1.64207">
        <ele>68</ele>
        <time>2019-10-17T14:56:31.000Z</time>
      </trkpt>
      <trkpt lat="47.28102" lon="-1.64206">
        <ele>68</ele>
        <time>2019-10-17T14:56:32.000Z</time>
      </trkpt>
      <trkpt lat="47.28097" lon="-1.64205">
        <ele>68</ele>
        <time>2019-10-17T14:56:33.000Z</time>
      </trkpt>
      <trkpt lat="47.28092" lon="-1.64204">
        <ele>68</ele>
        <time>2019-10-17T14:56:34.000Z</time>
      </trkpt>
      <trkpt lat="47.28087" lon="-1.64203">
        <ele>68</ele>
        <time>2019-10-17T14:56:35.000Z</time>
      </trkpt>
      <trkpt lat="47.28083" lon="-1.64202">
        <ele>68</ele>
        <time>2019-10-17T14:56:36.000Z</time>
      </trkpt>
      <trkpt lat="47.28078" lon="-1.642">
        <ele>68</ele>
        <time>2019-10-17T14:56:37.000Z</time>
      </trkpt>
      <trkpt lat="47.28073" lon="-1.64199">
        <ele>67</ele>
        <time>2019-10-17T14:56:38.000Z</time>
      </trkpt>
      <trkpt lat="47.28067" lon="-1.64198">
        <ele>67</ele>
        <time>2019-10-17T14:56:39.000Z</time>
      </trkpt>
      <trkpt lat="47.28063" lon="-1.64197">
        <ele>67</ele>
        <time>2019-10-17T14:56:40.000Z</time>
      </trkpt>
      <trkpt lat="47.28058" lon="-1.64196">
        <ele>67</ele>
        <time>2019-10-17T14:56:41.000Z</time>
      </trkpt>
      <trkpt lat="47.28053" lon="-1.64194">
        <ele>67</ele>
        <time>2019-10-17T14:56:42.000Z</time>
      </trkpt>
      <trkpt lat="47.28048" lon="-1.64193">
        <ele>67</ele>
        <time>2019-10-17T14:56:43.000Z</time>
      </trkpt>
      <trkpt lat="47.28044" lon="-1.64192">
        <ele>67</ele>
        <time>2019-10-17T14:56:44.000Z</time>
      </trkpt>
      <trkpt lat="47.28039" lon="-1.64191">
        <ele>66</ele>
        <time>2019-10-17T14:56:45.000Z</time>
      </trkpt>
      <trkpt lat="47.28034" lon="-1.6419">
        <ele>66</ele>
        <time>2019-10-17T14:56:46.000Z</time>
      </trkpt>
      <trkpt lat="47.2803" lon="-1.64189">
        <ele>66</ele>
        <time>2019-10-17T14:56:47.000Z</time>
      </trkpt>
      <trkpt lat="47.28025" lon="-1.64189">
        <ele>66</ele>
        <time>2019-10-17T14:56:48.000Z</time>
      </trkpt>
      <trkpt lat="47.28021" lon="-1.64189">
        <ele>66</ele>
        <time>2019-10-17T14:56:49.000Z</time>
      </trkpt>
      <trkpt lat="47.28018" lon="-1.6419">
        <ele>66</ele>
        <time>2019-10-17T14:56:50.000Z</time>
      </trkpt>
      <trkpt lat="47.28017" lon="-1.64189">
        <ele>66</ele>
        <time>2019-10-17T14:56:51.000Z</time>
      </trkpt>
      <trkpt lat="47.28016" lon="-1.64189">
        <ele>66</ele>
        <time>2019-10-17T14:56:52.000Z</time>
      </trkpt>
      <trkpt lat="47.28014" lon="-1.64189">
        <ele>66</ele>
        <time>2019-10-17T14:56:53.000Z</time>
      </trkpt>
      <trkpt lat="47.28011" lon="-1.64189">
        <ele>66</ele>
        <time>2019-10-17T14:56:54.000Z</time>
      </trkpt>
      <trkpt lat="47.28009" lon="-1.64189">
        <ele>66</ele>
        <time>2019-10-17T14:56:55.000Z</time>
      </trkpt>
      <trkpt lat="47.28007" lon="-1.64187">
        <ele>66</ele>
        <time>2019-10-17T14:56:56.000Z</time>
      </trkpt>
      <trkpt lat="47.28004" lon="-1.64183">
        <ele>66</ele>
        <time>2019-10-17T14:56:57.000Z</time>
      </trkpt>
      <trkpt lat="47.28002" lon="-1.64179">
        <ele>66</ele>
        <time>2019-10-17T14:56:58.000Z</time>
      </trkpt>
      <trkpt lat="47.27999" lon="-1.64175">
        <ele>66</ele>
        <time>2019-10-17T14:56:59.000Z</time>
      </trkpt>
      <trkpt lat="47.27995" lon="-1.64171">
        <ele>66</ele>
        <time>2019-10-17T14:57:00.000Z</time>
      </trkpt>
      <trkpt lat="47.27992" lon="-1.64167">
        <ele>66</ele>
        <time>2019-10-17T14:57:01.000Z</time>
      </trkpt>
      <trkpt lat="47.27988" lon="-1.64163">
        <ele>66</ele>
        <time>2019-10-17T14:57:02.000Z</time>
      </trkpt>
      <trkpt lat="47.27984" lon="-1.64159">
        <ele>66</ele>
        <time>2019-10-17T14:57:03.000Z</time>
      </trkpt>
      <trkpt lat="47.27981" lon="-1.64155">
        <ele>66</ele>
        <time>2019-10-17T14:57:04.000Z</time>
      </trkpt>
      <trkpt lat="47.27978" lon="-1.64151">
        <ele>66</ele>
        <time>2019-10-17T14:57:05.000Z</time>
      </trkpt>
      <trkpt lat="47.27974" lon="-1.64146">
        <ele>66</ele>
        <time>2019-10-17T14:57:06.000Z</time>
      </trkpt>
      <trkpt lat="47.2797" lon="-1.64141">
        <ele>66</ele>
        <time>2019-10-17T14:57:07.000Z</time>
      </trkpt>
      <trkpt lat="47.27966" lon="-1.64136">
        <ele>66</ele>
        <time>2019-10-17T14:57:08.000Z</time>
      </trkpt>
      <trkpt lat="47.27962" lon="-1.64131">
        <ele>66</ele>
        <time>2019-10-17T14:57:09.000Z</time>
      </trkpt>
      <trkpt lat="47.27958" lon="-1.64127">
        <ele>66</ele>
        <time>2019-10-17T14:57:10.000Z</time>
      </trkpt>
      <trkpt lat="47.27954" lon="-1.64122">
        <ele>66</ele>
        <time>2019-10-17T14:57:11.000Z</time>
      </trkpt>
      <trkpt lat="47.2795" lon="-1.64118">
        <ele>66</ele>
        <time>2019-10-17T14:57:12.000Z</time>
      </trkpt>
      <trkpt lat="47.27946" lon="-1.64115">
        <ele>66</ele>
        <time>2019-10-17T14:57:13.000Z</time>
      </trkpt>
      <trkpt lat="47.27943" lon="-1.64111">
        <ele>66</ele>
        <time>2019-10-17T14:57:14.000Z</time>
      </trkpt>
      <trkpt lat="47.2794" lon="-1.64109">
        <ele>66</ele>
        <time>2019-10-17T14:57:15.000Z</time>
      </trkpt>
      <trkpt lat="47.27936" lon="-1.64111">
        <ele>66</ele>
        <time>2019-10-17T14:57:16.000Z</time>
      </trkpt>
      <trkpt lat="47.27933" lon="-1.64114">
        <ele>66</ele>
        <time>2019-10-17T14:57:17.000Z</time>
      </trkpt>
      <trkpt lat="47.27931" lon="-1.64119">
        <ele>66</ele>
        <time>2019-10-17T14:57:18.000Z</time>
      </trkpt>
      <trkpt lat="47.27929" lon="-1.64125">
        <ele>66</ele>
        <time>2019-10-17T14:57:19.000Z</time>
      </trkpt>
      <trkpt lat="47.27927" lon="-1.64132">
        <ele>66</ele>
        <time>2019-10-17T14:57:20.000Z</time>
      </trkpt>
      <trkpt lat="47.27925" lon="-1.64138">
        <ele>66</ele>
        <time>2019-10-17T14:57:21.000Z</time>
      </trkpt>
      <trkpt lat="47.27922" lon="-1.64144">
        <ele>66</ele>
        <time>2019-10-17T14:57:22.000Z</time>
      </trkpt>
      <trkpt lat="47.2792" lon="-1.64151">
        <ele>66</ele>
        <time>2019-10-17T14:57:23.000Z</time>
      </trkpt>
      <trkpt lat="47.27916" lon="-1.64158">
        <ele>66</ele>
        <time>2019-10-17T14:57:24.000Z</time>
      </trkpt>
      <trkpt lat="47.27913" lon="-1.64164">
        <ele>66</ele>
        <time>2019-10-17T14:57:25.000Z</time>
      </trkpt>
      <trkpt lat="47.2791" lon="-1.6417">
        <ele>65</ele>
        <time>2019-10-17T14:57:26.000Z</time>
      </trkpt>
      <trkpt lat="47.27907" lon="-1.64176">
        <ele>65</ele>
        <time>2019-10-17T14:57:27.000Z</time>
      </trkpt>
      <trkpt lat="47.27902" lon="-1.64181">
        <ele>65</ele>
        <time>2019-10-17T14:57:28.000Z</time>
      </trkpt>
      <trkpt lat="47.27898" lon="-1.64185">
        <ele>65</ele>
        <time>2019-10-17T14:57:29.000Z</time>
      </trkpt>
      <trkpt lat="47.27894" lon="-1.6419">
        <ele>65</ele>
        <time>2019-10-17T14:57:30.000Z</time>
      </trkpt>
      <trkpt lat="47.27889" lon="-1.64193">
        <ele>65</ele>
        <time>2019-10-17T14:57:31.000Z</time>
      </trkpt>
      <trkpt lat="47.27884" lon="-1.64198">
        <ele>65</ele>
        <time>2019-10-17T14:57:32.000Z</time>
      </trkpt>
      <trkpt lat="47.27879" lon="-1.64201">
        <ele>65</ele>
        <time>2019-10-17T14:57:33.000Z</time>
      </trkpt>
      <trkpt lat="47.27874" lon="-1.64204">
        <ele>65</ele>
        <time>2019-10-17T14:57:34.000Z</time>
      </trkpt>
      <trkpt lat="47.2787" lon="-1.64208">
        <ele>65</ele>
        <time>2019-10-17T14:57:35.000Z</time>
      </trkpt>
      <trkpt lat="47.27865" lon="-1.64212">
        <ele>65</ele>
        <time>2019-10-17T14:57:36.000Z</time>
      </trkpt>
      <trkpt lat="47.27861" lon="-1.64217">
        <ele>64</ele>
        <time>2019-10-17T14:57:37.000Z</time>
      </trkpt>
      <trkpt lat="47.27856" lon="-1.64222">
        <ele>64</ele>
        <time>2019-10-17T14:57:38.000Z</time>
      </trkpt>
      <trkpt lat="47.27852" lon="-1.64226">
        <ele>64</ele>
        <time>2019-10-17T14:57:39.000Z</time>
      </trkpt>
      <trkpt lat="47.27847" lon="-1.64231">
        <ele>64</ele>
        <time>2019-10-17T14:57:40.000Z</time>
      </trkpt>
      <trkpt lat="47.27843" lon="-1.64235">
        <ele>64</ele>
        <time>2019-10-17T14:57:41.000Z</time>
      </trkpt>
      <trkpt lat="47.27839" lon="-1.6424">
        <ele>64</ele>
        <time>2019-10-17T14:57:42.000Z</time>
      </trkpt>
      <trkpt lat="47.27835" lon="-1.64245">
        <ele>64</ele>
        <time>2019-10-17T14:57:43.000Z</time>
      </trkpt>
      <trkpt lat="47.27831" lon="-1.64249">
        <ele>64</ele>
        <time>2019-10-17T14:57:44.000Z</time>
      </trkpt>
      <trkpt lat="47.27826" lon="-1.64254">
        <ele>64</ele>
        <time>2019-10-17T14:57:45.000Z</time>
      </trkpt>
      <trkpt lat="47.27822" lon="-1.64259">
        <ele>64</ele>
        <time>2019-10-17T14:57:46.000Z</time>
      </trkpt>
      <trkpt lat="47.27818" lon="-1.64265">
        <ele>64</ele>
        <time>2019-10-17T14:57:47.000Z</time>
      </trkpt>
      <trkpt lat="47.27814" lon="-1.6427">
        <ele>64</ele>
        <time>2019-10-17T14:57:48.000Z</time>
      </trkpt>
      <trkpt lat="47.27809" lon="-1.64274">
        <ele>64</ele>
        <time>2019-10-17T14:57:49.000Z</time>
      </trkpt>
      <trkpt lat="47.27806" lon="-1.64279">
        <ele>64</ele>
        <time>2019-10-17T14:57:50.000Z</time>
      </trkpt>
      <trkpt lat="47.27803" lon="-1.64285">
        <ele>64</ele>
        <time>2019-10-17T14:57:51.000Z</time>
      </trkpt>
      <trkpt lat="47.278" lon="-1.6429">
        <ele>64</ele>
        <time>2019-10-17T14:57:52.000Z</time>
      </trkpt>
      <trkpt lat="47.27798" lon="-1.64295">
        <ele>64</ele>
        <time>2019-10-17T14:57:53.000Z</time>
      </trkpt>
      <trkpt lat="47.27795" lon="-1.64299">
        <ele>64</ele>
        <time>2019-10-17T14:57:54.000Z</time>
      </trkpt>
      <trkpt lat="47.27791" lon="-1.64302">
        <ele>65</ele>
        <time>2019-10-17T14:57:55.000Z</time>
      </trkpt>
      <trkpt lat="47.27787" lon="-1.64305">
        <ele>65</ele>
        <time>2019-10-17T14:57:56.000Z</time>
      </trkpt>
      <trkpt lat="47.27782" lon="-1.64308">
        <ele>65</ele>
        <time>2019-10-17T14:57:57.000Z</time>
      </trkpt>
      <trkpt lat="47.27779" lon="-1.64312">
        <ele>65</ele>
        <time>2019-10-17T14:57:58.000Z</time>
      </trkpt>
      <trkpt lat="47.27774" lon="-1.64316">
        <ele>65</ele>
        <time>2019-10-17T14:57:59.000Z</time>
      </trkpt>
      <trkpt lat="47.2777" lon="-1.6432">
        <ele>66</ele>
        <time>2019-10-17T14:58:00.000Z</time>
      </trkpt>
      <trkpt lat="47.27765" lon="-1.64324">
        <ele>66</ele>
        <time>2019-10-17T14:58:01.000Z</time>
      </trkpt>
      <trkpt lat="47.2776" lon="-1.64328">
        <ele>66</ele>
        <time>2019-10-17T14:58:02.000Z</time>
      </trkpt>
      <trkpt lat="47.27755" lon="-1.64332">
        <ele>66</ele>
        <time>2019-10-17T14:58:03.000Z</time>
      </trkpt>
      <trkpt lat="47.2775" lon="-1.64335">
        <ele>66</ele>
        <time>2019-10-17T14:58:04.000Z</time>
      </trkpt>
      <trkpt lat="47.27745" lon="-1.6434">
        <ele>67</ele>
        <time>2019-10-17T14:58:05.000Z</time>
      </trkpt>
      <trkpt lat="47.2774" lon="-1.64343">
        <ele>67</ele>
        <time>2019-10-17T14:58:06.000Z</time>
      </trkpt>
      <trkpt lat="47.27735" lon="-1.64347">
        <ele>67</ele>
        <time>2019-10-17T14:58:07.000Z</time>
      </trkpt>
      <trkpt lat="47.27729" lon="-1.64351">
        <ele>67</ele>
        <time>2019-10-17T14:58:08.000Z</time>
      </trkpt>
      <trkpt lat="47.27725" lon="-1.64355">
        <ele>67</ele>
        <time>2019-10-17T14:58:09.000Z</time>
      </trkpt>
      <trkpt lat="47.27719" lon="-1.64359">
        <ele>66</ele>
        <time>2019-10-17T14:58:10.000Z</time>
      </trkpt>
      <trkpt lat="47.27714" lon="-1.64363">
        <ele>66</ele>
        <time>2019-10-17T14:58:11.000Z</time>
      </trkpt>
      <trkpt lat="47.27709" lon="-1.64366">
        <ele>66</ele>
        <time>2019-10-17T14:58:12.000Z</time>
      </trkpt>
      <trkpt lat="47.27703" lon="-1.64369">
        <ele>66</ele>
        <time>2019-10-17T14:58:13.000Z</time>
      </trkpt>
      <trkpt lat="47.27698" lon="-1.64372">
        <ele>66</ele>
        <time>2019-10-17T14:58:14.000Z</time>
      </trkpt>
      <trkpt lat="47.27692" lon="-1.64374">
        <ele>66</ele>
        <time>2019-10-17T14:58:15.000Z</time>
      </trkpt>
      <trkpt lat="47.27686" lon="-1.64376">
        <ele>66</ele>
        <time>2019-10-17T14:58:16.000Z</time>
      </trkpt>
      <trkpt lat="47.27681" lon="-1.64377">
        <ele>66</ele>
        <time>2019-10-17T14:58:17.000Z</time>
      </trkpt>
      <trkpt lat="47.27675" lon="-1.64378">
        <ele>66</ele>
        <time>2019-10-17T14:58:18.000Z</time>
      </trkpt>
      <trkpt lat="47.27669" lon="-1.64379">
        <ele>66</ele>
        <time>2019-10-17T14:58:19.000Z</time>
      </trkpt>
      <trkpt lat="47.27664" lon="-1.64379">
        <ele>65</ele>
        <time>2019-10-17T14:58:20.000Z</time>
      </trkpt>
      <trkpt lat="47.27658" lon="-1.6438">
        <ele>65</ele>
        <time>2019-10-17T14:58:21.000Z</time>
      </trkpt>
      <trkpt lat="47.27653" lon="-1.64382">
        <ele>65</ele>
        <time>2019-10-17T14:58:22.000Z</time>
      </trkpt>
      <trkpt lat="47.27648" lon="-1.64383">
        <ele>65</ele>
        <time>2019-10-17T14:58:23.000Z</time>
      </trkpt>
      <trkpt lat="47.27642" lon="-1.64384">
        <ele>65</ele>
        <time>2019-10-17T14:58:24.000Z</time>
      </trkpt>
      <trkpt lat="47.27636" lon="-1.64386">
        <ele>65</ele>
        <time>2019-10-17T14:58:25.000Z</time>
      </trkpt>
      <trkpt lat="47.27629" lon="-1.64389">
        <ele>65</ele>
        <time>2019-10-17T14:58:26.000Z</time>
      </trkpt>
      <trkpt lat="47.27623" lon="-1.64391">
        <ele>65</ele>
        <time>2019-10-17T14:58:27.000Z</time>
      </trkpt>
      <trkpt lat="47.27618" lon="-1.64394">
        <ele>65</ele>
        <time>2019-10-17T14:58:28.000Z</time>
      </trkpt>
      <trkpt lat="47.27612" lon="-1.64397">
        <ele>65</ele>
        <time>2019-10-17T14:58:29.000Z</time>
      </trkpt>
      <trkpt lat="47.27606" lon="-1.644">
        <ele>64</ele>
        <time>2019-10-17T14:58:30.000Z</time>
      </trkpt>
      <trkpt lat="47.276" lon="-1.64403">
        <ele>64</ele>
        <time>2019-10-17T14:58:31.000Z</time>
      </trkpt>
      <trkpt lat="47.27593" lon="-1.64405">
        <ele>64</ele>
        <time>2019-10-17T14:58:32.000Z</time>
      </trkpt>
      <trkpt lat="47.27587" lon="-1.64408">
        <ele>64</ele>
        <time>2019-10-17T14:58:33.000Z</time>
      </trkpt>
      <trkpt lat="47.2758" lon="-1.64411">
        <ele>64</ele>
        <time>2019-10-17T14:58:34.000Z</time>
      </trkpt>
      <trkpt lat="47.27575" lon="-1.64414">
        <ele>63</ele>
        <time>2019-10-17T14:58:35.000Z</time>
      </trkpt>
      <trkpt lat="47.2757" lon="-1.64418">
        <ele>63</ele>
        <time>2019-10-17T14:58:36.000Z</time>
      </trkpt>
      <trkpt lat="47.27564" lon="-1.64422">
        <ele>63</ele>
        <time>2019-10-17T14:58:37.000Z</time>
      </trkpt>
      <trkpt lat="47.2756" lon="-1.64426">
        <ele>63</ele>
        <time>2019-10-17T14:58:38.000Z</time>
      </trkpt>
      <trkpt lat="47.27557" lon="-1.6443">
        <ele>63</ele>
        <time>2019-10-17T14:58:39.000Z</time>
      </trkpt>
      <trkpt lat="47.27556" lon="-1.64434">
        <ele>62</ele>
        <time>2019-10-17T14:58:40.000Z</time>
      </trkpt>
      <trkpt lat="47.27554" lon="-1.64438">
        <ele>62</ele>
        <time>2019-10-17T14:58:41.000Z</time>
      </trkpt>
      <trkpt lat="47.27551" lon="-1.64443">
        <ele>62</ele>
        <time>2019-10-17T14:58:42.000Z</time>
      </trkpt>
      <trkpt lat="47.27548" lon="-1.64446">
        <ele>62</ele>
        <time>2019-10-17T14:58:43.000Z</time>
      </trkpt>
      <trkpt lat="47.27544" lon="-1.64449">
        <ele>62</ele>
        <time>2019-10-17T14:58:44.000Z</time>
      </trkpt>
      <trkpt lat="47.27539" lon="-1.64451">
        <ele>62</ele>
        <time>2019-10-17T14:58:45.000Z</time>
      </trkpt>
      <trkpt lat="47.27533" lon="-1.64453">
        <ele>61</ele>
        <time>2019-10-17T14:58:46.000Z</time>
      </trkpt>
      <trkpt lat="47.27526" lon="-1.64455">
        <ele>61</ele>
        <time>2019-10-17T14:58:47.000Z</time>
      </trkpt>
      <trkpt lat="47.27519" lon="-1.64457">
        <ele>61</ele>
        <time>2019-10-17T14:58:48.000Z</time>
      </trkpt>
      <trkpt lat="47.27513" lon="-1.6446">
        <ele>60</ele>
        <time>2019-10-17T14:58:49.000Z</time>
      </trkpt>
      <trkpt lat="47.27508" lon="-1.64463">
        <ele>60</ele>
        <time>2019-10-17T14:58:50.000Z</time>
      </trkpt>
      <trkpt lat="47.27502" lon="-1.64467">
        <ele>59</ele>
        <time>2019-10-17T14:58:51.000Z</time>
      </trkpt>
      <trkpt lat="47.27497" lon="-1.6447">
        <ele>59</ele>
        <time>2019-10-17T14:58:52.000Z</time>
      </trkpt>
      <trkpt lat="47.27492" lon="-1.64473">
        <ele>58</ele>
        <time>2019-10-17T14:58:53.000Z</time>
      </trkpt>
      <trkpt lat="47.27487" lon="-1.64476">
        <ele>58</ele>
        <time>2019-10-17T14:58:54.000Z</time>
      </trkpt>
      <trkpt lat="47.27482" lon="-1.64478">
        <ele>58</ele>
        <time>2019-10-17T14:58:55.000Z</time>
      </trkpt>
      <trkpt lat="47.27477" lon="-1.64479">
        <ele>57</ele>
        <time>2019-10-17T14:58:56.000Z</time>
      </trkpt>
      <trkpt lat="47.27472" lon="-1.64481">
        <ele>57</ele>
        <time>2019-10-17T14:58:57.000Z</time>
      </trkpt>
      <trkpt lat="47.27467" lon="-1.64482">
        <ele>57</ele>
        <time>2019-10-17T14:58:58.000Z</time>
      </trkpt>
      <trkpt lat="47.27462" lon="-1.64483">
        <ele>57</ele>
        <time>2019-10-17T14:58:59.000Z</time>
      </trkpt>
      <trkpt lat="47.27457" lon="-1.64484">
        <ele>56</ele>
        <time>2019-10-17T14:59:00.000Z</time>
      </trkpt>
      <trkpt lat="47.27452" lon="-1.64486">
        <ele>56</ele>
        <time>2019-10-17T14:59:01.000Z</time>
      </trkpt>
      <trkpt lat="47.27447" lon="-1.64487">
        <ele>56</ele>
        <time>2019-10-17T14:59:02.000Z</time>
      </trkpt>
      <trkpt lat="47.27442" lon="-1.64488">
        <ele>56</ele>
        <time>2019-10-17T14:59:03.000Z</time>
      </trkpt>
      <trkpt lat="47.27437" lon="-1.64489">
        <ele>56</ele>
        <time>2019-10-17T14:59:04.000Z</time>
      </trkpt>
      <trkpt lat="47.27432" lon="-1.64489">
        <ele>55</ele>
        <time>2019-10-17T14:59:05.000Z</time>
      </trkpt>
      <trkpt lat="47.27427" lon="-1.64489">
        <ele>55</ele>
        <time>2019-10-17T14:59:06.000Z</time>
      </trkpt>
      <trkpt lat="47.27422" lon="-1.6449">
        <ele>55</ele>
        <time>2019-10-17T14:59:07.000Z</time>
      </trkpt>
      <trkpt lat="47.27417" lon="-1.64489">
        <ele>55</ele>
        <time>2019-10-17T14:59:08.000Z</time>
      </trkpt>
      <trkpt lat="47.27413" lon="-1.64487">
        <ele>55</ele>
        <time>2019-10-17T14:59:09.000Z</time>
      </trkpt>
      <trkpt lat="47.27409" lon="-1.64484">
        <ele>54</ele>
        <time>2019-10-17T14:59:10.000Z</time>
      </trkpt>
      <trkpt lat="47.27405" lon="-1.6448">
        <ele>54</ele>
        <time>2019-10-17T14:59:11.000Z</time>
      </trkpt>
      <trkpt lat="47.27401" lon="-1.64476">
        <ele>54</ele>
        <time>2019-10-17T14:59:12.000Z</time>
      </trkpt>
      <trkpt lat="47.27397" lon="-1.64473">
        <ele>54</ele>
        <time>2019-10-17T14:59:13.000Z</time>
      </trkpt>
      <trkpt lat="47.27394" lon="-1.64469">
        <ele>54</ele>
        <time>2019-10-17T14:59:14.000Z</time>
      </trkpt>
      <trkpt lat="47.27391" lon="-1.64466">
        <ele>54</ele>
        <time>2019-10-17T14:59:15.000Z</time>
      </trkpt>
      <trkpt lat="47.2739" lon="-1.64465">
        <ele>54</ele>
        <time>2019-10-17T14:59:16.000Z</time>
      </trkpt>
      <trkpt lat="47.2739" lon="-1.64464">
        <ele>54</ele>
        <time>2019-10-17T14:59:17.000Z</time>
      </trkpt>
      <trkpt lat="47.2739" lon="-1.64464">
        <ele>54</ele>
        <time>2019-10-17T14:59:18.000Z</time>
      </trkpt>
      <trkpt lat="47.2739" lon="-1.64464">
        <ele>54</ele>
        <time>2019-10-17T14:59:19.000Z</time>
      </trkpt>
      <trkpt lat="47.2739" lon="-1.64464">
        <ele>54</ele>
        <time>2019-10-17T14:59:20.000Z</time>
      </trkpt>
      <trkpt lat="47.27389" lon="-1.64464">
        <ele>53</ele>
        <time>2019-10-17T14:59:22.000Z</time>
      </trkpt>
      <trkpt lat="47.27389" lon="-1.64465">
        <ele>53</ele>
        <time>2019-10-17T14:59:24.000Z</time>
      </trkpt>
      <trkpt lat="47.27389" lon="-1.64465">
        <ele>53</ele>
        <time>2019-10-17T14:59:25.000Z</time>
      </trkpt>
      <trkpt lat="47.27388" lon="-1.64465">
        <ele>52</ele>
        <time>2019-10-17T14:59:26.000Z</time>
      </trkpt>
      <trkpt lat="47.27386" lon="-1.64463">
        <ele>52</ele>
        <time>2019-10-17T14:59:27.000Z</time>
      </trkpt>
      <trkpt lat="47.27384" lon="-1.64461">
        <ele>52</ele>
        <time>2019-10-17T14:59:28.000Z</time>
      </trkpt>
      <trkpt lat="47.27382" lon="-1.64459">
        <ele>52</ele>
        <time>2019-10-17T14:59:29.000Z</time>
      </trkpt>
      <trkpt lat="47.27381" lon="-1.64456">
        <ele>52</ele>
        <time>2019-10-17T14:59:30.000Z</time>
      </trkpt>
      <trkpt lat="47.27379" lon="-1.64455">
        <ele>52</ele>
        <time>2019-10-17T14:59:31.000Z</time>
      </trkpt>
      <trkpt lat="47.27378" lon="-1.64453">
        <ele>52</ele>
        <time>2019-10-17T14:59:32.000Z</time>
      </trkpt>
      <trkpt lat="47.27375" lon="-1.6445">
        <ele>52</ele>
        <time>2019-10-17T14:59:33.000Z</time>
      </trkpt>
      <trkpt lat="47.27373" lon="-1.64448">
        <ele>52</ele>
        <time>2019-10-17T14:59:34.000Z</time>
      </trkpt>
      <trkpt lat="47.27371" lon="-1.64445">
        <ele>53</ele>
        <time>2019-10-17T14:59:35.000Z</time>
      </trkpt>
      <trkpt lat="47.27369" lon="-1.64442">
        <ele>53</ele>
        <time>2019-10-17T14:59:36.000Z</time>
      </trkpt>
      <trkpt lat="47.27366" lon="-1.64439">
        <ele>53</ele>
        <time>2019-10-17T14:59:37.000Z</time>
      </trkpt>
      <trkpt lat="47.27363" lon="-1.64436">
        <ele>54</ele>
        <time>2019-10-17T14:59:38.000Z</time>
      </trkpt>
      <trkpt lat="47.2736" lon="-1.64432">
        <ele>54</ele>
        <time>2019-10-17T14:59:39.000Z</time>
      </trkpt>
      <trkpt lat="47.27358" lon="-1.6443">
        <ele>55</ele>
        <time>2019-10-17T14:59:40.000Z</time>
      </trkpt>
      <trkpt lat="47.27355" lon="-1.64428">
        <ele>55</ele>
        <time>2019-10-17T14:59:41.000Z</time>
      </trkpt>
      <trkpt lat="47.27353" lon="-1.64425">
        <ele>55</ele>
        <time>2019-10-17T14:59:42.000Z</time>
      </trkpt>
      <trkpt lat="47.2735" lon="-1.64421">
        <ele>55</ele>
        <time>2019-10-17T14:59:43.000Z</time>
      </trkpt>
      <trkpt lat="47.27347" lon="-1.64417">
        <ele>55</ele>
        <time>2019-10-17T14:59:44.000Z</time>
      </trkpt>
      <trkpt lat="47.27344" lon="-1.64414">
        <ele>55</ele>
        <time>2019-10-17T14:59:45.000Z</time>
      </trkpt>
      <trkpt lat="47.27341" lon="-1.6441">
        <ele>55</ele>
        <time>2019-10-17T14:59:46.000Z</time>
      </trkpt>
      <trkpt lat="47.27338" lon="-1.64406">
        <ele>55</ele>
        <time>2019-10-17T14:59:47.000Z</time>
      </trkpt>
      <trkpt lat="47.27334" lon="-1.64401">
        <ele>55</ele>
        <time>2019-10-17T14:59:48.000Z</time>
      </trkpt>
      <trkpt lat="47.2733" lon="-1.64397">
        <ele>55</ele>
        <time>2019-10-17T14:59:49.000Z</time>
      </trkpt>
      <trkpt lat="47.27327" lon="-1.64392">
        <ele>55</ele>
        <time>2019-10-17T14:59:50.000Z</time>
      </trkpt>
      <trkpt lat="47.27324" lon="-1.64388">
        <ele>55</ele>
        <time>2019-10-17T14:59:51.000Z</time>
      </trkpt>
      <trkpt lat="47.27321" lon="-1.64383">
        <ele>54</ele>
        <time>2019-10-17T14:59:52.000Z</time>
      </trkpt>
      <trkpt lat="47.27318" lon="-1.6438">
        <ele>54</ele>
        <time>2019-10-17T14:59:53.000Z</time>
      </trkpt>
      <trkpt lat="47.27315" lon="-1.64375">
        <ele>54</ele>
        <time>2019-10-17T14:59:54.000Z</time>
      </trkpt>
      <trkpt lat="47.27312" lon="-1.6437">
        <ele>54</ele>
        <time>2019-10-17T14:59:55.000Z</time>
      </trkpt>
      <trkpt lat="47.2731" lon="-1.64366">
        <ele>53</ele>
        <time>2019-10-17T14:59:56.000Z</time>
      </trkpt>
      <trkpt lat="47.27307" lon="-1.64361">
        <ele>53</ele>
        <time>2019-10-17T14:59:57.000Z</time>
      </trkpt>
      <trkpt lat="47.27304" lon="-1.64357">
        <ele>53</ele>
        <time>2019-10-17T14:59:58.000Z</time>
      </trkpt>
      <trkpt lat="47.27301" lon="-1.64352">
        <ele>53</ele>
        <time>2019-10-17T14:59:59.000Z</time>
      </trkpt>
      <trkpt lat="47.27298" lon="-1.64347">
        <ele>53</ele>
        <time>2019-10-17T15:00:00.000Z</time>
      </trkpt>
      <trkpt lat="47.27296" lon="-1.64341">
        <ele>53</ele>
        <time>2019-10-17T15:00:01.000Z</time>
      </trkpt>
      <trkpt lat="47.27293" lon="-1.64336">
        <ele>52</ele>
        <time>2019-10-17T15:00:02.000Z</time>
      </trkpt>
      <trkpt lat="47.27289" lon="-1.64329">
        <ele>52</ele>
        <time>2019-10-17T15:00:03.000Z</time>
      </trkpt>
      <trkpt lat="47.27286" lon="-1.64322">
        <ele>52</ele>
        <time>2019-10-17T15:00:04.000Z</time>
      </trkpt>
      <trkpt lat="47.27283" lon="-1.64316">
        <ele>52</ele>
        <time>2019-10-17T15:00:05.000Z</time>
      </trkpt>
      <trkpt lat="47.2728" lon="-1.64311">
        <ele>51</ele>
        <time>2019-10-17T15:00:06.000Z</time>
      </trkpt>
      <trkpt lat="47.27277" lon="-1.64306">
        <ele>51</ele>
        <time>2019-10-17T15:00:07.000Z</time>
      </trkpt>
      <trkpt lat="47.27274" lon="-1.643">
        <ele>51</ele>
        <time>2019-10-17T15:00:08.000Z</time>
      </trkpt>
      <trkpt lat="47.2727" lon="-1.64295">
        <ele>51</ele>
        <time>2019-10-17T15:00:09.000Z</time>
      </trkpt>
      <trkpt lat="47.27268" lon="-1.64289">
        <ele>51</ele>
        <time>2019-10-17T15:00:10.000Z</time>
      </trkpt>
      <trkpt lat="47.27265" lon="-1.64283">
        <ele>51</ele>
        <time>2019-10-17T15:00:11.000Z</time>
      </trkpt>
      <trkpt lat="47.27262" lon="-1.64278">
        <ele>50</ele>
        <time>2019-10-17T15:00:12.000Z</time>
      </trkpt>
      <trkpt lat="47.27259" lon="-1.64272">
        <ele>50</ele>
        <time>2019-10-17T15:00:13.000Z</time>
      </trkpt>
      <trkpt lat="47.27256" lon="-1.64266">
        <ele>50</ele>
        <time>2019-10-17T15:00:14.000Z</time>
      </trkpt>
      <trkpt lat="47.27252" lon="-1.6426">
        <ele>50</ele>
        <time>2019-10-17T15:00:15.000Z</time>
      </trkpt>
      <trkpt lat="47.27249" lon="-1.64253">
        <ele>50</ele>
        <time>2019-10-17T15:00:16.000Z</time>
      </trkpt>
      <trkpt lat="47.27245" lon="-1.64246">
        <ele>49</ele>
        <time>2019-10-17T15:00:17.000Z</time>
      </trkpt>
      <trkpt lat="47.27241" lon="-1.6424">
        <ele>49</ele>
        <time>2019-10-17T15:00:18.000Z</time>
      </trkpt>
      <trkpt lat="47.27238" lon="-1.64233">
        <ele>49</ele>
        <time>2019-10-17T15:00:19.000Z</time>
      </trkpt>
      <trkpt lat="47.27235" lon="-1.64226">
        <ele>49</ele>
        <time>2019-10-17T15:00:20.000Z</time>
      </trkpt>
      <trkpt lat="47.27233" lon="-1.6422">
        <ele>49</ele>
        <time>2019-10-17T15:00:21.000Z</time>
      </trkpt>
      <trkpt lat="47.27231" lon="-1.64215">
        <ele>49</ele>
        <time>2019-10-17T15:00:22.000Z</time>
      </trkpt>
      <trkpt lat="47.27229" lon="-1.64209">
        <ele>49</ele>
        <time>2019-10-17T15:00:23.000Z</time>
      </trkpt>
      <trkpt lat="47.27227" lon="-1.64203">
        <ele>49</ele>
        <time>2019-10-17T15:00:24.000Z</time>
      </trkpt>
      <trkpt lat="47.27224" lon="-1.64197">
        <ele>49</ele>
        <time>2019-10-17T15:00:25.000Z</time>
      </trkpt>
      <trkpt lat="47.27222" lon="-1.64192">
        <ele>48</ele>
        <time>2019-10-17T15:00:26.000Z</time>
      </trkpt>
      <trkpt lat="47.2722" lon="-1.64186">
        <ele>48</ele>
        <time>2019-10-17T15:00:27.000Z</time>
      </trkpt>
      <trkpt lat="47.27218" lon="-1.64181">
        <ele>48</ele>
        <time>2019-10-17T15:00:28.000Z</time>
      </trkpt>
      <trkpt lat="47.27215" lon="-1.64175">
        <ele>48</ele>
        <time>2019-10-17T15:00:29.000Z</time>
      </trkpt>
      <trkpt lat="47.27213" lon="-1.6417">
        <ele>48</ele>
        <time>2019-10-17T15:00:30.000Z</time>
      </trkpt>
      <trkpt lat="47.2721" lon="-1.64164">
        <ele>48</ele>
        <time>2019-10-17T15:00:31.000Z</time>
      </trkpt>
      <trkpt lat="47.27207" lon="-1.64158">
        <ele>48</ele>
        <time>2019-10-17T15:00:32.000Z</time>
      </trkpt>
      <trkpt lat="47.27205" lon="-1.64152">
        <ele>47</ele>
        <time>2019-10-17T15:00:33.000Z</time>
      </trkpt>
      <trkpt lat="47.27203" lon="-1.64146">
        <ele>47</ele>
        <time>2019-10-17T15:00:34.000Z</time>
      </trkpt>
      <trkpt lat="47.27201" lon="-1.6414">
        <ele>47</ele>
        <time>2019-10-17T15:00:35.000Z</time>
      </trkpt>
      <trkpt lat="47.27199" lon="-1.64134">
        <ele>47</ele>
        <time>2019-10-17T15:00:36.000Z</time>
      </trkpt>
      <trkpt lat="47.27196" lon="-1.6413">
        <ele>47</ele>
        <time>2019-10-17T15:00:37.000Z</time>
      </trkpt>
      <trkpt lat="47.27194" lon="-1.64124">
        <ele>47</ele>
        <time>2019-10-17T15:00:38.000Z</time>
      </trkpt>
      <trkpt lat="47.27191" lon="-1.64118">
        <ele>47</ele>
        <time>2019-10-17T15:00:39.000Z</time>
      </trkpt>
      <trkpt lat="47.27188" lon="-1.64114">
        <ele>47</ele>
        <time>2019-10-17T15:00:40.000Z</time>
      </trkpt>
      <trkpt lat="47.27186" lon="-1.64109">
        <ele>47</ele>
        <time>2019-10-17T15:00:41.000Z</time>
      </trkpt>
      <trkpt lat="47.27184" lon="-1.64104">
        <ele>47</ele>
        <time>2019-10-17T15:00:42.000Z</time>
      </trkpt>
      <trkpt lat="47.27181" lon="-1.64099">
        <ele>47</ele>
        <time>2019-10-17T15:00:43.000Z</time>
      </trkpt>
      <trkpt lat="47.27179" lon="-1.64093">
        <ele>47</ele>
        <time>2019-10-17T15:00:44.000Z</time>
      </trkpt>
      <trkpt lat="47.27176" lon="-1.64087">
        <ele>47</ele>
        <time>2019-10-17T15:00:45.000Z</time>
      </trkpt>
      <trkpt lat="47.27173" lon="-1.64082">
        <ele>47</ele>
        <time>2019-10-17T15:00:46.000Z</time>
      </trkpt>
      <trkpt lat="47.2717" lon="-1.64077">
        <ele>47</ele>
        <time>2019-10-17T15:00:47.000Z</time>
      </trkpt>
      <trkpt lat="47.27168" lon="-1.64072">
        <ele>47</ele>
        <time>2019-10-17T15:00:48.000Z</time>
      </trkpt>
      <trkpt lat="47.27165" lon="-1.64066">
        <ele>47</ele>
        <time>2019-10-17T15:00:49.000Z</time>
      </trkpt>
      <trkpt lat="47.27163" lon="-1.6406">
        <ele>47</ele>
        <time>2019-10-17T15:00:50.000Z</time>
      </trkpt>
      <trkpt lat="47.27161" lon="-1.64055">
        <ele>47</ele>
        <time>2019-10-17T15:00:51.000Z</time>
      </trkpt>
      <trkpt lat="47.27159" lon="-1.6405">
        <ele>47</ele>
        <time>2019-10-17T15:00:52.000Z</time>
      </trkpt>
      <trkpt lat="47.27156" lon="-1.64044">
        <ele>48</ele>
        <time>2019-10-17T15:00:53.000Z</time>
      </trkpt>
      <trkpt lat="47.27153" lon="-1.64039">
        <ele>48</ele>
        <time>2019-10-17T15:00:54.000Z</time>
      </trkpt>
      <trkpt lat="47.27151" lon="-1.64033">
        <ele>48</ele>
        <time>2019-10-17T15:00:55.000Z</time>
      </trkpt>
      <trkpt lat="47.27148" lon="-1.64028">
        <ele>48</ele>
        <time>2019-10-17T15:00:56.000Z</time>
      </trkpt>
      <trkpt lat="47.27145" lon="-1.64022">
        <ele>48</ele>
        <time>2019-10-17T15:00:57.000Z</time>
      </trkpt>
      <trkpt lat="47.27141" lon="-1.64016">
        <ele>48</ele>
        <time>2019-10-17T15:00:58.000Z</time>
      </trkpt>
      <trkpt lat="47.27138" lon="-1.64012">
        <ele>48</ele>
        <time>2019-10-17T15:00:59.000Z</time>
      </trkpt>
      <trkpt lat="47.27135" lon="-1.64007">
        <ele>48</ele>
        <time>2019-10-17T15:01:00.000Z</time>
      </trkpt>
      <trkpt lat="47.27131" lon="-1.64002">
        <ele>49</ele>
        <time>2019-10-17T15:01:01.000Z</time>
      </trkpt>
      <trkpt lat="47.27128" lon="-1.63996">
        <ele>49</ele>
        <time>2019-10-17T15:01:02.000Z</time>
      </trkpt>
      <trkpt lat="47.27125" lon="-1.6399">
        <ele>49</ele>
        <time>2019-10-17T15:01:03.000Z</time>
      </trkpt>
      <trkpt lat="47.27121" lon="-1.63984">
        <ele>49</ele>
        <time>2019-10-17T15:01:04.000Z</time>
      </trkpt>
      <trkpt lat="47.27118" lon="-1.63978">
        <ele>49</ele>
        <time>2019-10-17T15:01:05.000Z</time>
      </trkpt>
      <trkpt lat="47.27115" lon="-1.63972">
        <ele>49</ele>
        <time>2019-10-17T15:01:06.000Z</time>
      </trkpt>
      <trkpt lat="47.27113" lon="-1.63967">
        <ele>49</ele>
        <time>2019-10-17T15:01:07.000Z</time>
      </trkpt>
      <trkpt lat="47.27111" lon="-1.63961">
        <ele>49</ele>
        <time>2019-10-17T15:01:08.000Z</time>
      </trkpt>
      <trkpt lat="47.27108" lon="-1.63955">
        <ele>49</ele>
        <time>2019-10-17T15:01:09.000Z</time>
      </trkpt>
      <trkpt lat="47.27104" lon="-1.63949">
        <ele>49</ele>
        <time>2019-10-17T15:01:10.000Z</time>
      </trkpt>
      <trkpt lat="47.27102" lon="-1.63942">
        <ele>49</ele>
        <time>2019-10-17T15:01:11.000Z</time>
      </trkpt>
      <trkpt lat="47.27099" lon="-1.63936">
        <ele>50</ele>
        <time>2019-10-17T15:01:12.000Z</time>
      </trkpt>
      <trkpt lat="47.27096" lon="-1.6393">
        <ele>50</ele>
        <time>2019-10-17T15:01:13.000Z</time>
      </trkpt>
      <trkpt lat="47.27093" lon="-1.63924">
        <ele>50</ele>
        <time>2019-10-17T15:01:14.000Z</time>
      </trkpt>
      <trkpt lat="47.2709" lon="-1.63919">
        <ele>50</ele>
        <time>2019-10-17T15:01:15.000Z</time>
      </trkpt>
      <trkpt lat="47.27087" lon="-1.63914">
        <ele>50</ele>
        <time>2019-10-17T15:01:16.000Z</time>
      </trkpt>
      <trkpt lat="47.27083" lon="-1.6391">
        <ele>50</ele>
        <time>2019-10-17T15:01:17.000Z</time>
      </trkpt>
      <trkpt lat="47.2708" lon="-1.63907">
        <ele>50</ele>
        <time>2019-10-17T15:01:18.000Z</time>
      </trkpt>
      <trkpt lat="47.27078" lon="-1.63901">
        <ele>50</ele>
        <time>2019-10-17T15:01:19.000Z</time>
      </trkpt>
      <trkpt lat="47.27075" lon="-1.63896">
        <ele>51</ele>
        <time>2019-10-17T15:01:20.000Z</time>
      </trkpt>
      <trkpt lat="47.27073" lon="-1.63889">
        <ele>51</ele>
        <time>2019-10-17T15:01:21.000Z</time>
      </trkpt>
      <trkpt lat="47.27071" lon="-1.63882">
        <ele>51</ele>
        <time>2019-10-17T15:01:22.000Z</time>
      </trkpt>
      <trkpt lat="47.27071" lon="-1.63876">
        <ele>51</ele>
        <time>2019-10-17T15:01:23.000Z</time>
      </trkpt>
      <trkpt lat="47.2707" lon="-1.6387">
        <ele>51</ele>
        <time>2019-10-17T15:01:24.000Z</time>
      </trkpt>
      <trkpt lat="47.27069" lon="-1.63865">
        <ele>51</ele>
        <time>2019-10-17T15:01:25.000Z</time>
      </trkpt>
      <trkpt lat="47.27068" lon="-1.63857">
        <ele>52</ele>
        <time>2019-10-17T15:01:26.000Z</time>
      </trkpt>
      <trkpt lat="47.27068" lon="-1.6385">
        <ele>51</ele>
        <time>2019-10-17T15:01:27.000Z</time>
      </trkpt>
      <trkpt lat="47.27067" lon="-1.63842">
        <ele>51</ele>
        <time>2019-10-17T15:01:28.000Z</time>
      </trkpt>
      <trkpt lat="47.27066" lon="-1.63834">
        <ele>51</ele>
        <time>2019-10-17T15:01:29.000Z</time>
      </trkpt>
      <trkpt lat="47.27065" lon="-1.63827">
        <ele>51</ele>
        <time>2019-10-17T15:01:30.000Z</time>
      </trkpt>
      <trkpt lat="47.27064" lon="-1.63821">
        <ele>51</ele>
        <time>2019-10-17T15:01:31.000Z</time>
      </trkpt>
      <trkpt lat="47.27063" lon="-1.63814">
        <ele>51</ele>
        <time>2019-10-17T15:01:32.000Z</time>
      </trkpt>
      <trkpt lat="47.27062" lon="-1.63807">
        <ele>51</ele>
        <time>2019-10-17T15:01:33.000Z</time>
      </trkpt>
      <trkpt lat="47.27062" lon="-1.638">
        <ele>51</ele>
        <time>2019-10-17T15:01:34.000Z</time>
      </trkpt>
      <trkpt lat="47.27062" lon="-1.63793">
        <ele>51</ele>
        <time>2019-10-17T15:01:35.000Z</time>
      </trkpt>
      <trkpt lat="47.27062" lon="-1.63786">
        <ele>50</ele>
        <time>2019-10-17T15:01:36.000Z</time>
      </trkpt>
      <trkpt lat="47.27062" lon="-1.63778">
        <ele>50</ele>
        <time>2019-10-17T15:01:37.000Z</time>
      </trkpt>
      <trkpt lat="47.27061" lon="-1.6377">
        <ele>50</ele>
        <time>2019-10-17T15:01:38.000Z</time>
      </trkpt>
      <trkpt lat="47.27061" lon="-1.63762">
        <ele>50</ele>
        <time>2019-10-17T15:01:39.000Z</time>
      </trkpt>
      <trkpt lat="47.27061" lon="-1.63754">
        <ele>50</ele>
        <time>2019-10-17T15:01:40.000Z</time>
      </trkpt>
      <trkpt lat="47.27061" lon="-1.63747">
        <ele>50</ele>
        <time>2019-10-17T15:01:41.000Z</time>
      </trkpt>
      <trkpt lat="47.27061" lon="-1.63739">
        <ele>51</ele>
        <time>2019-10-17T15:01:42.000Z</time>
      </trkpt>
      <trkpt lat="47.27061" lon="-1.63732">
        <ele>51</ele>
        <time>2019-10-17T15:01:43.000Z</time>
      </trkpt>
      <trkpt lat="47.27062" lon="-1.63726">
        <ele>51</ele>
        <time>2019-10-17T15:01:44.000Z</time>
      </trkpt>
      <trkpt lat="47.27062" lon="-1.63719">
        <ele>51</ele>
        <time>2019-10-17T15:01:45.000Z</time>
      </trkpt>
      <trkpt lat="47.27063" lon="-1.63713">
        <ele>51</ele>
        <time>2019-10-17T15:01:46.000Z</time>
      </trkpt>
      <trkpt lat="47.27064" lon="-1.63705">
        <ele>51</ele>
        <time>2019-10-17T15:01:47.000Z</time>
      </trkpt>
      <trkpt lat="47.27065" lon="-1.63698">
        <ele>51</ele>
        <time>2019-10-17T15:01:48.000Z</time>
      </trkpt>
      <trkpt lat="47.27066" lon="-1.63692">
        <ele>51</ele>
        <time>2019-10-17T15:01:49.000Z</time>
      </trkpt>
      <trkpt lat="47.27067" lon="-1.63686">
        <ele>51</ele>
        <time>2019-10-17T15:01:50.000Z</time>
      </trkpt>
      <trkpt lat="47.27068" lon="-1.6368">
        <ele>51</ele>
        <time>2019-10-17T15:01:51.000Z</time>
      </trkpt>
      <trkpt lat="47.2707" lon="-1.63674">
        <ele>51</ele>
        <time>2019-10-17T15:01:52.000Z</time>
      </trkpt>
      <trkpt lat="47.27072" lon="-1.63668">
        <ele>51</ele>
        <time>2019-10-17T15:01:53.000Z</time>
      </trkpt>
      <trkpt lat="47.27074" lon="-1.63662">
        <ele>52</ele>
        <time>2019-10-17T15:01:54.000Z</time>
      </trkpt>
      <trkpt lat="47.27075" lon="-1.63656">
        <ele>52</ele>
        <time>2019-10-17T15:01:55.000Z</time>
      </trkpt>
      <trkpt lat="47.27077" lon="-1.6365">
        <ele>52</ele>
        <time>2019-10-17T15:01:56.000Z</time>
      </trkpt>
      <trkpt lat="47.2708" lon="-1.63644">
        <ele>52</ele>
        <time>2019-10-17T15:01:57.000Z</time>
      </trkpt>
      <trkpt lat="47.27082" lon="-1.63638">
        <ele>52</ele>
        <time>2019-10-17T15:01:58.000Z</time>
      </trkpt>
      <trkpt lat="47.27084" lon="-1.63631">
        <ele>52</ele>
        <time>2019-10-17T15:01:59.000Z</time>
      </trkpt>
      <trkpt lat="47.27085" lon="-1.63625">
        <ele>52</ele>
        <time>2019-10-17T15:02:00.000Z</time>
      </trkpt>
      <trkpt lat="47.27087" lon="-1.63619">
        <ele>52</ele>
        <time>2019-10-17T15:02:01.000Z</time>
      </trkpt>
      <trkpt lat="47.27089" lon="-1.63613">
        <ele>52</ele>
        <time>2019-10-17T15:02:02.000Z</time>
      </trkpt>
      <trkpt lat="47.27091" lon="-1.63606">
        <ele>52</ele>
        <time>2019-10-17T15:02:03.000Z</time>
      </trkpt>
      <trkpt lat="47.27092" lon="-1.63599">
        <ele>52</ele>
        <time>2019-10-17T15:02:04.000Z</time>
      </trkpt>
      <trkpt lat="47.27094" lon="-1.63592">
        <ele>52</ele>
        <time>2019-10-17T15:02:05.000Z</time>
      </trkpt>
      <trkpt lat="47.27096" lon="-1.63586">
        <ele>52</ele>
        <time>2019-10-17T15:02:06.000Z</time>
      </trkpt>
      <trkpt lat="47.27097" lon="-1.6358">
        <ele>52</ele>
        <time>2019-10-17T15:02:07.000Z</time>
      </trkpt>
      <trkpt lat="47.27098" lon="-1.63573">
        <ele>53</ele>
        <time>2019-10-17T15:02:08.000Z</time>
      </trkpt>
      <trkpt lat="47.27098" lon="-1.63566">
        <ele>53</ele>
        <time>2019-10-17T15:02:09.000Z</time>
      </trkpt>
      <trkpt lat="47.27098" lon="-1.63558">
        <ele>53</ele>
        <time>2019-10-17T15:02:10.000Z</time>
      </trkpt>
      <trkpt lat="47.27098" lon="-1.6355">
        <ele>53</ele>
        <time>2019-10-17T15:02:11.000Z</time>
      </trkpt>
      <trkpt lat="47.27098" lon="-1.63541">
        <ele>52</ele>
        <time>2019-10-17T15:02:12.000Z</time>
      </trkpt>
      <trkpt lat="47.27098" lon="-1.63531">
        <ele>52</ele>
        <time>2019-10-17T15:02:13.000Z</time>
      </trkpt>
      <trkpt lat="47.27097" lon="-1.6352">
        <ele>52</ele>
        <time>2019-10-17T15:02:14.000Z</time>
      </trkpt>
      <trkpt lat="47.27096" lon="-1.63509">
        <ele>51</ele>
        <time>2019-10-17T15:02:15.000Z</time>
      </trkpt>
      <trkpt lat="47.27095" lon="-1.63497">
        <ele>51</ele>
        <time>2019-10-17T15:02:16.000Z</time>
      </trkpt>
      <trkpt lat="47.27094" lon="-1.63486">
        <ele>51</ele>
        <time>2019-10-17T15:02:17.000Z</time>
      </trkpt>
      <trkpt lat="47.27093" lon="-1.63475">
        <ele>50</ele>
        <time>2019-10-17T15:02:18.000Z</time>
      </trkpt>
      <trkpt lat="47.27091" lon="-1.63464">
        <ele>49</ele>
        <time>2019-10-17T15:02:19.000Z</time>
      </trkpt>
      <trkpt lat="47.27089" lon="-1.63454">
        <ele>49</ele>
        <time>2019-10-17T15:02:20.000Z</time>
      </trkpt>
      <trkpt lat="47.27085" lon="-1.63446">
        <ele>48</ele>
        <time>2019-10-17T15:02:21.000Z</time>
      </trkpt>
      <trkpt lat="47.27079" lon="-1.63438">
        <ele>48</ele>
        <time>2019-10-17T15:02:22.000Z</time>
      </trkpt>
      <trkpt lat="47.27074" lon="-1.63433">
        <ele>47</ele>
        <time>2019-10-17T15:02:23.000Z</time>
      </trkpt>
      <trkpt lat="47.27068" lon="-1.6343">
        <ele>47</ele>
        <time>2019-10-17T15:02:24.000Z</time>
      </trkpt>
      <trkpt lat="47.27062" lon="-1.63428">
        <ele>46</ele>
        <time>2019-10-17T15:02:25.000Z</time>
      </trkpt>
      <trkpt lat="47.27057" lon="-1.63426">
        <ele>46</ele>
        <time>2019-10-17T15:02:26.000Z</time>
      </trkpt>
      <trkpt lat="47.27053" lon="-1.63425">
        <ele>45</ele>
        <time>2019-10-17T15:02:27.000Z</time>
      </trkpt>
      <trkpt lat="47.27049" lon="-1.63425">
        <ele>45</ele>
        <time>2019-10-17T15:02:28.000Z</time>
      </trkpt>
      <trkpt lat="47.27045" lon="-1.63425">
        <ele>45</ele>
        <time>2019-10-17T15:02:29.000Z</time>
      </trkpt>
      <trkpt lat="47.27041" lon="-1.63424">
        <ele>44</ele>
        <time>2019-10-17T15:02:30.000Z</time>
      </trkpt>
      <trkpt lat="47.27036" lon="-1.63424">
        <ele>44</ele>
        <time>2019-10-17T15:02:31.000Z</time>
      </trkpt>
      <trkpt lat="47.27031" lon="-1.63425">
        <ele>44</ele>
        <time>2019-10-17T15:02:32.000Z</time>
      </trkpt>
      <trkpt lat="47.27027" lon="-1.63426">
        <ele>43</ele>
        <time>2019-10-17T15:02:33.000Z</time>
      </trkpt>
      <trkpt lat="47.27024" lon="-1.63427">
        <ele>43</ele>
        <time>2019-10-17T15:02:34.000Z</time>
      </trkpt>
      <trkpt lat="47.27022" lon="-1.63427">
        <ele>43</ele>
        <time>2019-10-17T15:02:35.000Z</time>
      </trkpt>
      <trkpt lat="47.2702" lon="-1.63426">
        <ele>43</ele>
        <time>2019-10-17T15:02:36.000Z</time>
      </trkpt>
      <trkpt lat="47.2702" lon="-1.63425">
        <ele>42</ele>
        <time>2019-10-17T15:02:37.000Z</time>
      </trkpt>
      <trkpt lat="47.2702" lon="-1.63424">
        <ele>42</ele>
        <time>2019-10-17T15:02:38.000Z</time>
      </trkpt>
      <trkpt lat="47.27019" lon="-1.63424">
        <ele>42</ele>
        <time>2019-10-17T15:02:39.000Z</time>
      </trkpt>
    </trkseg>
  </trk>
</gpx>